<?xml version="1.0" encoding="UTF-8"?>
<gpx xmlns:xsi="http://www.w3.org/2001/XMLSchema-instance" xmlns="http://www.topografix.com/GPX/1/0" version="1.0" xsi:schemaLocation="http://www.topografix.com/GPX/1/0 http://www.topografix.com/GPX/1/0/gpx.xsd" creator="gpx.py -- https://github.com/tkrajina/gpxpy">
<name>昆明到大理</name>
<desc>行者骑行软件</desc>
<author>行者骑行软件</author>
<url>http://www.imxingzhe.com</url>
<urlname>行者骑行软件</urlname>
<time>2016-04-06T09:25:52Z</time>
<keywords>行者骑行软件</keywords>
<distance>380628</distance>
<trk>
<name>行者骑行软件</name>
<desc/>
<trkseg>
<trkpt lat="25.068903" lon="102.652036">
<time>2016-04-06T09:25:59Z</time></trkpt>
<trkpt lat="25.068974" lon="102.651936">
<time>2016-04-06T09:26:00Z</time></trkpt>
<trkpt lat="25.069104" lon="102.651717">
<time>2016-04-06T09:26:01Z</time></trkpt>
<trkpt lat="25.069244" lon="102.651397">
<time>2016-04-06T09:26:02Z</time></trkpt>
<trkpt lat="25.069244" lon="102.651397">
<time>2016-04-06T09:26:03Z</time></trkpt>
<trkpt lat="25.069015" lon="102.651278">
<time>2016-04-06T09:26:04Z</time></trkpt>
<trkpt lat="25.068795" lon="102.651178">
<time>2016-04-06T09:26:05Z</time></trkpt>
<trkpt lat="25.068515" lon="102.651088">
<time>2016-04-06T09:26:06Z</time></trkpt>
<trkpt lat="25.068305" lon="102.651048">
<time>2016-04-06T09:26:07Z</time></trkpt>
<trkpt lat="25.068115" lon="102.651028">
<time>2016-04-06T09:26:08Z</time></trkpt>
<trkpt lat="25.067945" lon="102.651018">
<time>2016-04-06T09:26:09Z</time></trkpt>
<trkpt lat="25.067785" lon="102.651038">
<time>2016-04-06T09:26:10Z</time></trkpt>
<trkpt lat="25.067585" lon="102.651068">
<time>2016-04-06T09:26:11Z</time></trkpt>
<trkpt lat="25.067335" lon="102.651138">
<time>2016-04-06T09:26:12Z</time></trkpt>
<trkpt lat="25.066995" lon="102.651248">
<time>2016-04-06T09:26:13Z</time></trkpt>
<trkpt lat="25.065895" lon="102.651557">
<time>2016-04-06T09:26:14Z</time></trkpt>
<trkpt lat="25.065895" lon="102.651557">
<time>2016-04-06T09:26:15Z</time></trkpt>
<trkpt lat="25.065845" lon="102.651288">
<time>2016-04-06T09:26:16Z</time></trkpt>
<trkpt lat="25.065805" lon="102.651108">
<time>2016-04-06T09:26:17Z</time></trkpt>
<trkpt lat="25.065706" lon="102.650739">
<time>2016-04-06T09:26:18Z</time></trkpt>
<trkpt lat="25.065636" lon="102.650519">
<time>2016-04-06T09:26:19Z</time></trkpt>
<trkpt lat="25.065636" lon="102.650499">
<time>2016-04-06T09:26:20Z</time></trkpt>
<trkpt lat="25.065597" lon="102.65041">
<time>2016-04-06T09:26:21Z</time></trkpt>
<trkpt lat="25.065577" lon="102.65036">
<time>2016-04-06T09:26:22Z</time></trkpt>
<trkpt lat="25.065557" lon="102.65029">
<time>2016-04-06T09:26:23Z</time></trkpt>
<trkpt lat="25.065437" lon="102.65007">
<time>2016-04-06T09:26:24Z</time></trkpt>
<trkpt lat="25.065028" lon="102.649492">
<time>2016-04-06T09:26:25Z</time></trkpt>
<trkpt lat="25.064948" lon="102.649372">
<time>2016-04-06T09:26:26Z</time></trkpt>
<trkpt lat="25.0642" lon="102.648384">
<time>2016-04-06T09:26:27Z</time></trkpt>
<trkpt lat="25.06419" lon="102.648384">
<time>2016-04-06T09:26:28Z</time></trkpt>
<trkpt lat="25.064011" lon="102.648165">
<time>2016-04-06T09:26:29Z</time></trkpt>
<trkpt lat="25.063851" lon="102.648035">
<time>2016-04-06T09:26:30Z</time></trkpt>
<trkpt lat="25.063691" lon="102.647925">
<time>2016-04-06T09:26:31Z</time></trkpt>
<trkpt lat="25.063421" lon="102.647766">
<time>2016-04-06T09:26:32Z</time></trkpt>
<trkpt lat="25.063272" lon="102.647706">
<time>2016-04-06T09:26:33Z</time></trkpt>
<trkpt lat="25.063132" lon="102.647656">
<time>2016-04-06T09:26:34Z</time></trkpt>
<trkpt lat="25.062852" lon="102.647586">
<time>2016-04-06T09:26:35Z</time></trkpt>
<trkpt lat="25.062472" lon="102.647476">
<time>2016-04-06T09:26:36Z</time></trkpt>
<trkpt lat="25.061113" lon="102.647127">
<time>2016-04-06T09:26:37Z</time></trkpt>
<trkpt lat="25.060943" lon="102.647077">
<time>2016-04-06T09:26:38Z</time></trkpt>
<trkpt lat="25.059903" lon="102.646828">
<time>2016-04-06T09:26:39Z</time></trkpt>
<trkpt lat="25.059803" lon="102.646798">
<time>2016-04-06T09:26:40Z</time></trkpt>
<trkpt lat="25.059793" lon="102.646798">
<time>2016-04-06T09:26:41Z</time></trkpt>
<trkpt lat="25.059244" lon="102.646658">
<time>2016-04-06T09:26:42Z</time></trkpt>
<trkpt lat="25.058584" lon="102.646489">
<time>2016-04-06T09:26:43Z</time></trkpt>
<trkpt lat="25.057675" lon="102.646269">
<time>2016-04-06T09:26:44Z</time></trkpt>
<trkpt lat="25.056745" lon="102.64604">
<time>2016-04-06T09:26:45Z</time></trkpt>
<trkpt lat="25.055886" lon="102.64582">
<time>2016-04-06T09:26:46Z</time></trkpt>
<trkpt lat="25.055846" lon="102.64581">
<time>2016-04-06T09:26:47Z</time></trkpt>
<trkpt lat="25.055266" lon="102.645681">
<time>2016-04-06T09:26:48Z</time></trkpt>
<trkpt lat="25.054916" lon="102.645611">
<time>2016-04-06T09:26:49Z</time></trkpt>
<trkpt lat="25.054626" lon="102.645541">
<time>2016-04-06T09:26:50Z</time></trkpt>
<trkpt lat="25.054616" lon="102.645541">
<time>2016-04-06T09:26:51Z</time></trkpt>
<trkpt lat="25.054256" lon="102.645461">
<time>2016-04-06T09:26:52Z</time></trkpt>
<trkpt lat="25.054096" lon="102.645431">
<time>2016-04-06T09:26:53Z</time></trkpt>
<trkpt lat="25.053656" lon="102.645391">
<time>2016-04-06T09:26:54Z</time></trkpt>
<trkpt lat="25.053487" lon="102.645381">
<time>2016-04-06T09:26:55Z</time></trkpt>
<trkpt lat="25.053347" lon="102.645381">
<time>2016-04-06T09:26:56Z</time></trkpt>
<trkpt lat="25.053177" lon="102.645381">
<time>2016-04-06T09:26:57Z</time></trkpt>
<trkpt lat="25.053017" lon="102.645381">
<time>2016-04-06T09:26:58Z</time></trkpt>
<trkpt lat="25.051787" lon="102.645401">
<time>2016-04-06T09:26:59Z</time></trkpt>
<trkpt lat="25.051317" lon="102.645401">
<time>2016-04-06T09:27:00Z</time></trkpt>
<trkpt lat="25.051287" lon="102.645401">
<time>2016-04-06T09:27:01Z</time></trkpt>
<trkpt lat="25.050877" lon="102.645411">
<time>2016-04-06T09:27:02Z</time></trkpt>
<trkpt lat="25.050867" lon="102.645411">
<time>2016-04-06T09:27:03Z</time></trkpt>
<trkpt lat="25.050857" lon="102.645411">
<time>2016-04-06T09:27:04Z</time></trkpt>
<trkpt lat="25.050507" lon="102.645421">
<time>2016-04-06T09:27:05Z</time></trkpt>
<trkpt lat="25.050477" lon="102.645411">
<time>2016-04-06T09:27:06Z</time></trkpt>
<trkpt lat="25.050427" lon="102.645411">
<time>2016-04-06T09:27:07Z</time></trkpt>
<trkpt lat="25.050427" lon="102.645411">
<time>2016-04-06T09:27:08Z</time></trkpt>
<trkpt lat="25.050327" lon="102.645351">
<time>2016-04-06T09:27:09Z</time></trkpt>
<trkpt lat="25.050227" lon="102.645332">
<time>2016-04-06T09:27:10Z</time></trkpt>
<trkpt lat="25.050137" lon="102.645312">
<time>2016-04-06T09:27:11Z</time></trkpt>
<trkpt lat="25.050067" lon="102.645292">
<time>2016-04-06T09:27:12Z</time></trkpt>
<trkpt lat="25.049987" lon="102.645242">
<time>2016-04-06T09:27:13Z</time></trkpt>
<trkpt lat="25.049777" lon="102.645122">
<time>2016-04-06T09:27:14Z</time></trkpt>
<trkpt lat="25.049588" lon="102.644972">
<time>2016-04-06T09:27:15Z</time></trkpt>
<trkpt lat="25.049408" lon="102.644793">
<time>2016-04-06T09:27:16Z</time></trkpt>
<trkpt lat="25.049208" lon="102.644543">
<time>2016-04-06T09:27:17Z</time></trkpt>
<trkpt lat="25.049079" lon="102.644374">
<time>2016-04-06T09:27:18Z</time></trkpt>
<trkpt lat="25.048979" lon="102.644254">
<time>2016-04-06T09:27:19Z</time></trkpt>
<trkpt lat="25.048769" lon="102.643965">
<time>2016-04-06T09:27:20Z</time></trkpt>
<trkpt lat="25.04842" lon="102.643486">
<time>2016-04-06T09:27:21Z</time></trkpt>
<trkpt lat="25.0484" lon="102.643476">
<time>2016-04-06T09:27:22Z</time></trkpt>
<trkpt lat="25.04836" lon="102.643426">
<time>2016-04-06T09:27:23Z</time></trkpt>
<trkpt lat="25.04832" lon="102.643376">
<time>2016-04-06T09:27:24Z</time></trkpt>
<trkpt lat="25.048001" lon="102.643037">
<time>2016-04-06T09:27:25Z</time></trkpt>
<trkpt lat="25.047362" lon="102.642418">
<time>2016-04-06T09:27:26Z</time></trkpt>
<trkpt lat="25.046873" lon="102.641999">
<time>2016-04-06T09:27:27Z</time></trkpt>
<trkpt lat="25.046773" lon="102.641899">
<time>2016-04-06T09:27:28Z</time></trkpt>
<trkpt lat="25.046553" lon="102.641719">
<time>2016-04-06T09:27:29Z</time></trkpt>
<trkpt lat="25.046533" lon="102.641689">
<time>2016-04-06T09:27:30Z</time></trkpt>
<trkpt lat="25.046473" lon="102.64163">
<time>2016-04-06T09:27:31Z</time></trkpt>
<trkpt lat="25.045894" lon="102.641021">
<time>2016-04-06T09:27:32Z</time></trkpt>
<trkpt lat="25.045855" lon="102.640971">
<time>2016-04-06T09:27:33Z</time></trkpt>
<trkpt lat="25.045815" lon="102.640921">
<time>2016-04-06T09:27:34Z</time></trkpt>
<trkpt lat="25.045605" lon="102.640702">
<time>2016-04-06T09:27:35Z</time></trkpt>
<trkpt lat="25.045595" lon="102.640692">
<time>2016-04-06T09:27:36Z</time></trkpt>
<trkpt lat="25.045555" lon="102.640642">
<time>2016-04-06T09:27:37Z</time></trkpt>
<trkpt lat="25.045515" lon="102.640602">
<time>2016-04-06T09:27:38Z</time></trkpt>
<trkpt lat="25.045355" lon="102.640412">
<time>2016-04-06T09:27:39Z</time></trkpt>
<trkpt lat="25.045116" lon="102.640153">
<time>2016-04-06T09:27:40Z</time></trkpt>
<trkpt lat="25.044856" lon="102.639953">
<time>2016-04-06T09:27:41Z</time></trkpt>
<trkpt lat="25.044676" lon="102.639833">
<time>2016-04-06T09:27:42Z</time></trkpt>
<trkpt lat="25.044656" lon="102.639823">
<time>2016-04-06T09:27:43Z</time></trkpt>
<trkpt lat="25.044337" lon="102.639674">
<time>2016-04-06T09:27:44Z</time></trkpt>
<trkpt lat="25.044057" lon="102.639574">
<time>2016-04-06T09:27:45Z</time></trkpt>
<trkpt lat="25.043887" lon="102.639504">
<time>2016-04-06T09:27:46Z</time></trkpt>
<trkpt lat="25.043387" lon="102.639344">
<time>2016-04-06T09:27:47Z</time></trkpt>
<trkpt lat="25.042908" lon="102.639195">
<time>2016-04-06T09:27:48Z</time></trkpt>
<trkpt lat="25.042838" lon="102.639165">
<time>2016-04-06T09:27:49Z</time></trkpt>
<trkpt lat="25.042388" lon="102.639025">
<time>2016-04-06T09:27:50Z</time></trkpt>
<trkpt lat="25.042148" lon="102.638945">
<time>2016-04-06T09:27:51Z</time></trkpt>
<trkpt lat="25.041988" lon="102.638885">
<time>2016-04-06T09:27:52Z</time></trkpt>
<trkpt lat="25.041638" lon="102.638746">
<time>2016-04-06T09:27:53Z</time></trkpt>
<trkpt lat="25.041429" lon="102.638666">
<time>2016-04-06T09:27:54Z</time></trkpt>
<trkpt lat="25.040659" lon="102.638357">
<time>2016-04-06T09:27:55Z</time></trkpt>
<trkpt lat="25.040459" lon="102.638277">
<time>2016-04-06T09:27:56Z</time></trkpt>
<trkpt lat="25.038621" lon="102.637528">
<time>2016-04-06T09:27:57Z</time></trkpt>
<trkpt lat="25.038491" lon="102.637478">
<time>2016-04-06T09:27:58Z</time></trkpt>
<trkpt lat="25.038491" lon="102.637478">
<time>2016-04-06T09:27:59Z</time></trkpt>
<trkpt lat="25.038351" lon="102.637478">
<time>2016-04-06T09:28:00Z</time></trkpt>
<trkpt lat="25.037591" lon="102.637169">
<time>2016-04-06T09:28:01Z</time></trkpt>
<trkpt lat="25.037441" lon="102.637109">
<time>2016-04-06T09:28:02Z</time></trkpt>
<trkpt lat="25.037231" lon="102.637029">
<time>2016-04-06T09:28:03Z</time></trkpt>
<trkpt lat="25.036772" lon="102.63684">
<time>2016-04-06T09:28:04Z</time></trkpt>
<trkpt lat="25.035323" lon="102.636241">
<time>2016-04-06T09:28:05Z</time></trkpt>
<trkpt lat="25.034354" lon="102.635842">
<time>2016-04-06T09:28:06Z</time></trkpt>
<trkpt lat="25.034354" lon="102.635842">
<time>2016-04-06T09:28:07Z</time></trkpt>
<trkpt lat="25.034294" lon="102.635752">
<time>2016-04-06T09:28:08Z</time></trkpt>
<trkpt lat="25.033904" lon="102.635592">
<time>2016-04-06T09:28:09Z</time></trkpt>
<trkpt lat="25.033324" lon="102.635353">
<time>2016-04-06T09:28:10Z</time></trkpt>
<trkpt lat="25.030946" lon="102.634365">
<time>2016-04-06T09:28:11Z</time></trkpt>
<trkpt lat="25.030886" lon="102.634345">
<time>2016-04-06T09:28:12Z</time></trkpt>
<trkpt lat="25.030836" lon="102.634315">
<time>2016-04-06T09:28:13Z</time></trkpt>
<trkpt lat="25.030506" lon="102.634155">
<time>2016-04-06T09:28:14Z</time></trkpt>
<trkpt lat="25.030456" lon="102.634125">
<time>2016-04-06T09:28:15Z</time></trkpt>
<trkpt lat="25.029807" lon="102.633776">
<time>2016-04-06T09:28:16Z</time></trkpt>
<trkpt lat="25.029467" lon="102.633556">
<time>2016-04-06T09:28:17Z</time></trkpt>
<trkpt lat="25.029417" lon="102.633526">
<time>2016-04-06T09:28:18Z</time></trkpt>
<trkpt lat="25.029367" lon="102.633496">
<time>2016-04-06T09:28:19Z</time></trkpt>
<trkpt lat="25.028578" lon="102.632997">
<time>2016-04-06T09:28:20Z</time></trkpt>
<trkpt lat="25.027339" lon="102.632209">
<time>2016-04-06T09:28:21Z</time></trkpt>
<trkpt lat="25.02723" lon="102.632129">
<time>2016-04-06T09:28:22Z</time></trkpt>
<trkpt lat="25.02644" lon="102.63163">
<time>2016-04-06T09:28:23Z</time></trkpt>
<trkpt lat="25.024792" lon="102.630552">
<time>2016-04-06T09:28:24Z</time></trkpt>
<trkpt lat="25.024252" lon="102.630212">
<time>2016-04-06T09:28:25Z</time></trkpt>
<trkpt lat="25.024133" lon="102.630133">
<time>2016-04-06T09:28:26Z</time></trkpt>
<trkpt lat="25.023573" lon="102.629783">
<time>2016-04-06T09:28:27Z</time></trkpt>
<trkpt lat="25.023014" lon="102.629374">
<time>2016-04-06T09:28:28Z</time></trkpt>
<trkpt lat="25.021206" lon="102.627986">
<time>2016-04-06T09:28:29Z</time></trkpt>
<trkpt lat="25.021206" lon="102.627986">
<time>2016-04-06T09:28:30Z</time></trkpt>
<trkpt lat="25.021076" lon="102.627956">
<time>2016-04-06T09:28:31Z</time></trkpt>
<trkpt lat="25.020686" lon="102.627687">
<time>2016-04-06T09:28:32Z</time></trkpt>
<trkpt lat="25.020316" lon="102.627447">
<time>2016-04-06T09:28:33Z</time></trkpt>
<trkpt lat="25.020157" lon="102.627347">
<time>2016-04-06T09:28:34Z</time></trkpt>
<trkpt lat="25.019317" lon="102.626808">
<time>2016-04-06T09:28:35Z</time></trkpt>
<trkpt lat="25.018778" lon="102.626439">
<time>2016-04-06T09:28:36Z</time></trkpt>
<trkpt lat="25.018648" lon="102.626359">
<time>2016-04-06T09:28:37Z</time></trkpt>
<trkpt lat="25.017799" lon="102.6258">
<time>2016-04-06T09:28:38Z</time></trkpt>
<trkpt lat="25.017749" lon="102.62577">
<time>2016-04-06T09:28:39Z</time></trkpt>
<trkpt lat="25.017699" lon="102.62573">
<time>2016-04-06T09:28:40Z</time></trkpt>
<trkpt lat="25.017459" lon="102.62557">
<time>2016-04-06T09:28:41Z</time></trkpt>
<trkpt lat="25.017149" lon="102.625301">
<time>2016-04-06T09:28:42Z</time></trkpt>
<trkpt lat="25.017149" lon="102.625301">
<time>2016-04-06T09:28:43Z</time></trkpt>
<trkpt lat="25.017099" lon="102.625361">
<time>2016-04-06T09:28:44Z</time></trkpt>
<trkpt lat="25.017099" lon="102.625361">
<time>2016-04-06T09:28:45Z</time></trkpt>
<trkpt lat="25.01672" lon="102.625011">
<time>2016-04-06T09:28:46Z</time></trkpt>
<trkpt lat="25.015221" lon="102.623593">
<time>2016-04-06T09:28:47Z</time></trkpt>
<trkpt lat="25.015221" lon="102.623593">
<time>2016-04-06T09:28:48Z</time></trkpt>
<trkpt lat="25.015091" lon="102.623554">
<time>2016-04-06T09:28:49Z</time></trkpt>
<trkpt lat="25.014992" lon="102.623464">
<time>2016-04-06T09:28:50Z</time></trkpt>
<trkpt lat="25.014802" lon="102.623284">
<time>2016-04-06T09:28:51Z</time></trkpt>
<trkpt lat="25.014692" lon="102.623174">
<time>2016-04-06T09:28:52Z</time></trkpt>
<trkpt lat="25.014382" lon="102.622905">
<time>2016-04-06T09:28:53Z</time></trkpt>
<trkpt lat="25.013863" lon="102.622455">
<time>2016-04-06T09:28:54Z</time></trkpt>
<trkpt lat="25.013743" lon="102.622345">
<time>2016-04-06T09:28:55Z</time></trkpt>
<trkpt lat="25.012784" lon="102.621606">
<time>2016-04-06T09:28:56Z</time></trkpt>
<trkpt lat="25.011555" lon="102.620778">
<time>2016-04-06T09:28:57Z</time></trkpt>
<trkpt lat="25.010685" lon="102.620228">
<time>2016-04-06T09:28:58Z</time></trkpt>
<trkpt lat="25.010595" lon="102.620179">
<time>2016-04-06T09:28:59Z</time></trkpt>
<trkpt lat="25.010545" lon="102.620149">
<time>2016-04-06T09:29:00Z</time></trkpt>
<trkpt lat="25.010495" lon="102.620119">
<time>2016-04-06T09:29:01Z</time></trkpt>
<trkpt lat="25.010376" lon="102.620059">
<time>2016-04-06T09:29:02Z</time></trkpt>
<trkpt lat="25.010156" lon="102.619939">
<time>2016-04-06T09:29:03Z</time></trkpt>
<trkpt lat="25.009966" lon="102.619869">
<time>2016-04-06T09:29:04Z</time></trkpt>
<trkpt lat="25.009836" lon="102.619849">
<time>2016-04-06T09:29:05Z</time></trkpt>
<trkpt lat="25.009716" lon="102.619849">
<time>2016-04-06T09:29:06Z</time></trkpt>
<trkpt lat="25.009606" lon="102.619859">
<time>2016-04-06T09:29:07Z</time></trkpt>
<trkpt lat="25.009496" lon="102.619879">
<time>2016-04-06T09:29:08Z</time></trkpt>
<trkpt lat="25.009346" lon="102.619919">
<time>2016-04-06T09:29:09Z</time></trkpt>
<trkpt lat="25.009066" lon="102.619999">
<time>2016-04-06T09:29:10Z</time></trkpt>
<trkpt lat="25.008776" lon="102.620079">
<time>2016-04-06T09:29:11Z</time></trkpt>
<trkpt lat="25.008566" lon="102.620109">
<time>2016-04-06T09:29:12Z</time></trkpt>
<trkpt lat="25.008356" lon="102.620109">
<time>2016-04-06T09:29:13Z</time></trkpt>
<trkpt lat="25.008156" lon="102.620089">
<time>2016-04-06T09:29:14Z</time></trkpt>
<trkpt lat="25.007946" lon="102.620059">
<time>2016-04-06T09:29:15Z</time></trkpt>
<trkpt lat="25.007776" lon="102.620029">
<time>2016-04-06T09:29:16Z</time></trkpt>
<trkpt lat="25.007606" lon="102.619989">
<time>2016-04-06T09:29:17Z</time></trkpt>
<trkpt lat="25.007586" lon="102.619979">
<time>2016-04-06T09:29:18Z</time></trkpt>
<trkpt lat="25.007546" lon="102.619969">
<time>2016-04-06T09:29:19Z</time></trkpt>
<trkpt lat="25.007486" lon="102.619949">
<time>2016-04-06T09:29:20Z</time></trkpt>
<trkpt lat="25.007436" lon="102.619929">
<time>2016-04-06T09:29:21Z</time></trkpt>
<trkpt lat="25.006317" lon="102.619569">
<time>2016-04-06T09:29:22Z</time></trkpt>
<trkpt lat="25.006107" lon="102.6195">
<time>2016-04-06T09:29:23Z</time></trkpt>
<trkpt lat="25.005797" lon="102.6194">
<time>2016-04-06T09:29:24Z</time></trkpt>
<trkpt lat="25.005477" lon="102.61931">
<time>2016-04-06T09:29:25Z</time></trkpt>
<trkpt lat="25.005317" lon="102.61925">
<time>2016-04-06T09:29:26Z</time></trkpt>
<trkpt lat="25.005227" lon="102.61923">
<time>2016-04-06T09:29:27Z</time></trkpt>
<trkpt lat="25.004677" lon="102.61904">
<time>2016-04-06T09:29:28Z</time></trkpt>
<trkpt lat="25.004387" lon="102.61893">
<time>2016-04-06T09:29:29Z</time></trkpt>
<trkpt lat="25.004197" lon="102.618851">
<time>2016-04-06T09:29:30Z</time></trkpt>
<trkpt lat="25.004157" lon="102.618831">
<time>2016-04-06T09:29:31Z</time></trkpt>
<trkpt lat="25.003858" lon="102.618681">
<time>2016-04-06T09:29:32Z</time></trkpt>
<trkpt lat="25.003738" lon="102.618541">
<time>2016-04-06T09:29:33Z</time></trkpt>
<trkpt lat="25.003058" lon="102.618141">
<time>2016-04-06T09:29:34Z</time></trkpt>
<trkpt lat="25.002589" lon="102.617722">
<time>2016-04-06T09:29:35Z</time></trkpt>
<trkpt lat="25.002219" lon="102.617412">
<time>2016-04-06T09:29:36Z</time></trkpt>
<trkpt lat="25.002089" lon="102.617313">
<time>2016-04-06T09:29:37Z</time></trkpt>
<trkpt lat="25.001839" lon="102.617143">
<time>2016-04-06T09:29:38Z</time></trkpt>
<trkpt lat="25.001529" lon="102.616953">
<time>2016-04-06T09:29:39Z</time></trkpt>
<trkpt lat="25.00067" lon="102.616444">
<time>2016-04-06T09:29:40Z</time></trkpt>
<trkpt lat="25.00013" lon="102.616094">
<time>2016-04-06T09:29:41Z</time></trkpt>
<trkpt lat="25.00001" lon="102.616014">
<time>2016-04-06T09:29:42Z</time></trkpt>
<trkpt lat="24.999801" lon="102.615824">
<time>2016-04-06T09:29:43Z</time></trkpt>
<trkpt lat="24.999801" lon="102.615824">
<time>2016-04-06T09:29:44Z</time></trkpt>
<trkpt lat="24.999671" lon="102.615804">
<time>2016-04-06T09:29:45Z</time></trkpt>
<trkpt lat="24.999531" lon="102.615685">
<time>2016-04-06T09:29:46Z</time></trkpt>
<trkpt lat="24.999221" lon="102.615455">
<time>2016-04-06T09:29:47Z</time></trkpt>
<trkpt lat="24.998931" lon="102.615225">
<time>2016-04-06T09:29:48Z</time></trkpt>
<trkpt lat="24.998631" lon="102.615045">
<time>2016-04-06T09:29:49Z</time></trkpt>
<trkpt lat="24.998291" lon="102.614876">
<time>2016-04-06T09:29:50Z</time></trkpt>
<trkpt lat="24.997662" lon="102.614606">
<time>2016-04-06T09:29:51Z</time></trkpt>
<trkpt lat="24.997472" lon="102.614526">
<time>2016-04-06T09:29:52Z</time></trkpt>
<trkpt lat="24.997412" lon="102.614496">
<time>2016-04-06T09:29:53Z</time></trkpt>
<trkpt lat="24.997412" lon="102.614496">
<time>2016-04-06T09:29:54Z</time></trkpt>
<trkpt lat="24.997352" lon="102.614796">
<time>2016-04-06T09:29:55Z</time></trkpt>
<trkpt lat="24.997332" lon="102.614906">
<time>2016-04-06T09:29:56Z</time></trkpt>
<trkpt lat="24.997311" lon="102.615025">
<time>2016-04-06T09:29:57Z</time></trkpt>
<trkpt lat="24.997301" lon="102.615135">
<time>2016-04-06T09:29:58Z</time></trkpt>
<trkpt lat="24.997291" lon="102.615385">
<time>2016-04-06T09:29:59Z</time></trkpt>
<trkpt lat="24.997281" lon="102.615635">
<time>2016-04-06T09:30:00Z</time></trkpt>
<trkpt lat="24.997281" lon="102.615715">
<time>2016-04-06T09:30:01Z</time></trkpt>
<trkpt lat="24.997281" lon="102.615715">
<time>2016-04-06T09:30:02Z</time></trkpt>
<trkpt lat="24.997071" lon="102.615705">
<time>2016-04-06T09:30:03Z</time></trkpt>
<trkpt lat="24.996641" lon="102.615685">
<time>2016-04-06T09:30:04Z</time></trkpt>
<trkpt lat="24.996471" lon="102.615685">
<time>2016-04-06T09:30:05Z</time></trkpt>
<trkpt lat="24.995821" lon="102.615735">
<time>2016-04-06T09:30:06Z</time></trkpt>
<trkpt lat="24.995821" lon="102.615735">
<time>2016-04-06T09:30:07Z</time></trkpt>
<trkpt lat="24.995801" lon="102.616414">
<time>2016-04-06T09:30:08Z</time></trkpt>
<trkpt lat="24.99575" lon="102.616624">
<time>2016-04-06T09:30:09Z</time></trkpt>
<trkpt lat="24.99572" lon="102.616793">
<time>2016-04-06T09:30:10Z</time></trkpt>
<trkpt lat="24.99568" lon="102.617053">
<time>2016-04-06T09:30:11Z</time></trkpt>
<trkpt lat="24.99568" lon="102.617053">
<time>2016-04-06T09:30:12Z</time></trkpt>
<trkpt lat="24.995691" lon="102.616404">
<time>2016-04-06T09:30:13Z</time></trkpt>
<trkpt lat="24.995701" lon="102.616374">
<time>2016-04-06T09:30:14Z</time></trkpt>
<trkpt lat="24.995762" lon="102.614936">
<time>2016-04-06T09:30:15Z</time></trkpt>
<trkpt lat="24.995813" lon="102.613387">
<time>2016-04-06T09:30:16Z</time></trkpt>
<trkpt lat="24.995833" lon="102.612928">
<time>2016-04-06T09:30:17Z</time></trkpt>
<trkpt lat="24.995823" lon="102.612478">
<time>2016-04-06T09:30:18Z</time></trkpt>
<trkpt lat="24.995784" lon="102.612169">
<time>2016-04-06T09:30:19Z</time></trkpt>
<trkpt lat="24.995714" lon="102.611899">
<time>2016-04-06T09:30:20Z</time></trkpt>
<trkpt lat="24.995624" lon="102.611659">
<time>2016-04-06T09:30:21Z</time></trkpt>
<trkpt lat="24.995524" lon="102.611429">
<time>2016-04-06T09:30:22Z</time></trkpt>
<trkpt lat="24.995404" lon="102.61123">
<time>2016-04-06T09:30:23Z</time></trkpt>
<trkpt lat="24.995264" lon="102.61105">
<time>2016-04-06T09:30:24Z</time></trkpt>
<trkpt lat="24.995115" lon="102.61085">
<time>2016-04-06T09:30:25Z</time></trkpt>
<trkpt lat="24.994985" lon="102.61071">
<time>2016-04-06T09:30:26Z</time></trkpt>
<trkpt lat="24.994875" lon="102.61061">
<time>2016-04-06T09:30:27Z</time></trkpt>
<trkpt lat="24.994775" lon="102.61052">
<time>2016-04-06T09:30:28Z</time></trkpt>
<trkpt lat="24.994675" lon="102.61045">
<time>2016-04-06T09:30:29Z</time></trkpt>
<trkpt lat="24.994305" lon="102.610221">
<time>2016-04-06T09:30:30Z</time></trkpt>
<trkpt lat="24.994025" lon="102.610021">
<time>2016-04-06T09:30:31Z</time></trkpt>
<trkpt lat="24.993865" lon="102.609891">
<time>2016-04-06T09:30:32Z</time></trkpt>
<trkpt lat="24.993725" lon="102.609751">
<time>2016-04-06T09:30:33Z</time></trkpt>
<trkpt lat="24.993556" lon="102.609571">
<time>2016-04-06T09:30:34Z</time></trkpt>
<trkpt lat="24.993416" lon="102.609371">
<time>2016-04-06T09:30:35Z</time></trkpt>
<trkpt lat="24.993266" lon="102.609132">
<time>2016-04-06T09:30:36Z</time></trkpt>
<trkpt lat="24.992926" lon="102.608382">
<time>2016-04-06T09:30:37Z</time></trkpt>
<trkpt lat="24.992846" lon="102.608212">
<time>2016-04-06T09:30:38Z</time></trkpt>
<trkpt lat="24.992746" lon="102.608023">
<time>2016-04-06T09:30:39Z</time></trkpt>
<trkpt lat="24.992647" lon="102.607863">
<time>2016-04-06T09:30:40Z</time></trkpt>
<trkpt lat="24.992547" lon="102.607713">
<time>2016-04-06T09:30:41Z</time></trkpt>
<trkpt lat="24.992427" lon="102.607563">
<time>2016-04-06T09:30:42Z</time></trkpt>
<trkpt lat="24.992297" lon="102.607433">
<time>2016-04-06T09:30:43Z</time></trkpt>
<trkpt lat="24.992167" lon="102.607323">
<time>2016-04-06T09:30:44Z</time></trkpt>
<trkpt lat="24.992047" lon="102.607233">
<time>2016-04-06T09:30:45Z</time></trkpt>
<trkpt lat="24.991857" lon="102.607113">
<time>2016-04-06T09:30:46Z</time></trkpt>
<trkpt lat="24.991637" lon="102.606974">
<time>2016-04-06T09:30:47Z</time></trkpt>
<trkpt lat="24.991407" lon="102.606834">
<time>2016-04-06T09:30:48Z</time></trkpt>
<trkpt lat="24.991217" lon="102.606724">
<time>2016-04-06T09:30:49Z</time></trkpt>
<trkpt lat="24.991147" lon="102.606674">
<time>2016-04-06T09:30:50Z</time></trkpt>
<trkpt lat="24.991077" lon="102.606624">
<time>2016-04-06T09:30:51Z</time></trkpt>
<trkpt lat="24.991017" lon="102.606564">
<time>2016-04-06T09:30:52Z</time></trkpt>
<trkpt lat="24.990937" lon="102.606484">
<time>2016-04-06T09:30:53Z</time></trkpt>
<trkpt lat="24.990578" lon="102.606044">
<time>2016-04-06T09:30:54Z</time></trkpt>
<trkpt lat="24.990518" lon="102.605964">
<time>2016-04-06T09:30:55Z</time></trkpt>
<trkpt lat="24.990288" lon="102.605665">
<time>2016-04-06T09:30:56Z</time></trkpt>
<trkpt lat="24.990258" lon="102.605615">
<time>2016-04-06T09:30:57Z</time></trkpt>
<trkpt lat="24.989608" lon="102.604665">
<time>2016-04-06T09:30:58Z</time></trkpt>
<trkpt lat="24.989328" lon="102.604256">
<time>2016-04-06T09:30:59Z</time></trkpt>
<trkpt lat="24.988849" lon="102.603546">
<time>2016-04-06T09:31:00Z</time></trkpt>
<trkpt lat="24.988359" lon="102.602867">
<time>2016-04-06T09:31:01Z</time></trkpt>
<trkpt lat="24.988179" lon="102.602657">
<time>2016-04-06T09:31:02Z</time></trkpt>
<trkpt lat="24.987979" lon="102.602457">
<time>2016-04-06T09:31:03Z</time></trkpt>
<trkpt lat="24.987729" lon="102.602237">
<time>2016-04-06T09:31:04Z</time></trkpt>
<trkpt lat="24.987489" lon="102.602067">
<time>2016-04-06T09:31:05Z</time></trkpt>
<trkpt lat="24.987289" lon="102.601937">
<time>2016-04-06T09:31:06Z</time></trkpt>
<trkpt lat="24.986799" lon="102.601697">
<time>2016-04-06T09:31:07Z</time></trkpt>
<trkpt lat="24.98615" lon="102.601367">
<time>2016-04-06T09:31:08Z</time></trkpt>
<trkpt lat="24.98482" lon="102.600688">
<time>2016-04-06T09:31:09Z</time></trkpt>
<trkpt lat="24.98407" lon="102.600318">
<time>2016-04-06T09:31:10Z</time></trkpt>
<trkpt lat="24.98363" lon="102.600068">
<time>2016-04-06T09:31:11Z</time></trkpt>
<trkpt lat="24.98302" lon="102.599818">
<time>2016-04-06T09:31:12Z</time></trkpt>
<trkpt lat="24.98249" lon="102.599578">
<time>2016-04-06T09:31:13Z</time></trkpt>
<trkpt lat="24.98197" lon="102.599439">
<time>2016-04-06T09:31:14Z</time></trkpt>
<trkpt lat="24.981441" lon="102.599309">
<time>2016-04-06T09:31:15Z</time></trkpt>
<trkpt lat="24.981391" lon="102.599299">
<time>2016-04-06T09:31:16Z</time></trkpt>
<trkpt lat="24.980671" lon="102.599239">
<time>2016-04-06T09:31:17Z</time></trkpt>
<trkpt lat="24.979741" lon="102.599169">
<time>2016-04-06T09:31:18Z</time></trkpt>
<trkpt lat="24.979221" lon="102.599069">
<time>2016-04-06T09:31:19Z</time></trkpt>
<trkpt lat="24.979101" lon="102.599039">
<time>2016-04-06T09:31:20Z</time></trkpt>
<trkpt lat="24.978951" lon="102.599009">
<time>2016-04-06T09:31:21Z</time></trkpt>
<trkpt lat="24.978611" lon="102.598909">
<time>2016-04-06T09:31:22Z</time></trkpt>
<trkpt lat="24.978531" lon="102.598879">
<time>2016-04-06T09:31:23Z</time></trkpt>
<trkpt lat="24.978271" lon="102.598779">
<time>2016-04-06T09:31:24Z</time></trkpt>
<trkpt lat="24.977921" lon="102.598639">
<time>2016-04-06T09:31:25Z</time></trkpt>
<trkpt lat="24.977841" lon="102.598609">
<time>2016-04-06T09:31:26Z</time></trkpt>
<trkpt lat="24.977201" lon="102.598379">
<time>2016-04-06T09:31:27Z</time></trkpt>
<trkpt lat="24.976121" lon="102.597989">
<time>2016-04-06T09:31:28Z</time></trkpt>
<trkpt lat="24.975521" lon="102.597769">
<time>2016-04-06T09:31:29Z</time></trkpt>
<trkpt lat="24.974492" lon="102.59739">
<time>2016-04-06T09:31:30Z</time></trkpt>
<trkpt lat="24.974132" lon="102.59723">
<time>2016-04-06T09:31:31Z</time></trkpt>
<trkpt lat="24.973982" lon="102.59716">
<time>2016-04-06T09:31:32Z</time></trkpt>
<trkpt lat="24.973972" lon="102.59716">
<time>2016-04-06T09:31:33Z</time></trkpt>
<trkpt lat="24.973562" lon="102.59696">
<time>2016-04-06T09:31:34Z</time></trkpt>
<trkpt lat="24.973012" lon="102.59667">
<time>2016-04-06T09:31:35Z</time></trkpt>
<trkpt lat="24.972632" lon="102.59643">
<time>2016-04-06T09:31:36Z</time></trkpt>
<trkpt lat="24.971712" lon="102.59591">
<time>2016-04-06T09:31:37Z</time></trkpt>
<trkpt lat="24.970822" lon="102.59542">
<time>2016-04-06T09:31:38Z</time></trkpt>
<trkpt lat="24.970372" lon="102.59516">
<time>2016-04-06T09:31:39Z</time></trkpt>
<trkpt lat="24.969912" lon="102.5949">
<time>2016-04-06T09:31:40Z</time></trkpt>
<trkpt lat="24.969902" lon="102.59489">
<time>2016-04-06T09:31:41Z</time></trkpt>
<trkpt lat="24.969632" lon="102.59474">
<time>2016-04-06T09:31:42Z</time></trkpt>
<trkpt lat="24.968892" lon="102.59433">
<time>2016-04-06T09:31:43Z</time></trkpt>
<trkpt lat="24.968622" lon="102.594181">
<time>2016-04-06T09:31:44Z</time></trkpt>
<trkpt lat="24.968552" lon="102.594141">
<time>2016-04-06T09:31:45Z</time></trkpt>
<trkpt lat="24.967402" lon="102.593501">
<time>2016-04-06T09:31:46Z</time></trkpt>
<trkpt lat="24.967302" lon="102.593441">
<time>2016-04-06T09:31:47Z</time></trkpt>
<trkpt lat="24.966772" lon="102.593131">
<time>2016-04-06T09:31:48Z</time></trkpt>
<trkpt lat="24.966052" lon="102.592721">
<time>2016-04-06T09:31:49Z</time></trkpt>
<trkpt lat="24.966032" lon="102.592711">
<time>2016-04-06T09:31:50Z</time></trkpt>
<trkpt lat="24.965292" lon="102.592301">
<time>2016-04-06T09:31:51Z</time></trkpt>
<trkpt lat="24.965202" lon="102.592251">
<time>2016-04-06T09:31:52Z</time></trkpt>
<trkpt lat="24.964872" lon="102.592061">
<time>2016-04-06T09:31:53Z</time></trkpt>
<trkpt lat="24.964612" lon="102.591941">
<time>2016-04-06T09:31:54Z</time></trkpt>
<trkpt lat="24.964552" lon="102.591911">
<time>2016-04-06T09:31:55Z</time></trkpt>
<trkpt lat="24.964162" lon="102.591771">
<time>2016-04-06T09:31:56Z</time></trkpt>
<trkpt lat="24.963742" lon="102.591631">
<time>2016-04-06T09:31:57Z</time></trkpt>
<trkpt lat="24.963252" lon="102.591501">
<time>2016-04-06T09:31:58Z</time></trkpt>
<trkpt lat="24.962813" lon="102.591381">
<time>2016-04-06T09:31:59Z</time></trkpt>
<trkpt lat="24.962193" lon="102.591241">
<time>2016-04-06T09:32:00Z</time></trkpt>
<trkpt lat="24.961733" lon="102.591161">
<time>2016-04-06T09:32:01Z</time></trkpt>
<trkpt lat="24.960613" lon="102.590951">
<time>2016-04-06T09:32:02Z</time></trkpt>
<trkpt lat="24.959983" lon="102.590791">
<time>2016-04-06T09:32:03Z</time></trkpt>
<trkpt lat="24.959863" lon="102.590761">
<time>2016-04-06T09:32:04Z</time></trkpt>
<trkpt lat="24.959583" lon="102.590661">
<time>2016-04-06T09:32:05Z</time></trkpt>
<trkpt lat="24.959443" lon="102.590601">
<time>2016-04-06T09:32:06Z</time></trkpt>
<trkpt lat="24.959353" lon="102.590571">
<time>2016-04-06T09:32:07Z</time></trkpt>
<trkpt lat="24.959243" lon="102.590521">
<time>2016-04-06T09:32:08Z</time></trkpt>
<trkpt lat="24.959143" lon="102.590481">
<time>2016-04-06T09:32:09Z</time></trkpt>
<trkpt lat="24.958863" lon="102.590321">
<time>2016-04-06T09:32:10Z</time></trkpt>
<trkpt lat="24.958753" lon="102.590251">
<time>2016-04-06T09:32:11Z</time></trkpt>
<trkpt lat="24.958293" lon="102.590021">
<time>2016-04-06T09:32:12Z</time></trkpt>
<trkpt lat="24.957843" lon="102.589821">
<time>2016-04-06T09:32:13Z</time></trkpt>
<trkpt lat="24.957843" lon="102.589821">
<time>2016-04-06T09:32:14Z</time></trkpt>
<trkpt lat="24.957333" lon="102.589501">
<time>2016-04-06T09:32:15Z</time></trkpt>
<trkpt lat="24.956603" lon="102.589041">
<time>2016-04-06T09:32:16Z</time></trkpt>
<trkpt lat="24.956333" lon="102.588921">
<time>2016-04-06T09:32:17Z</time></trkpt>
<trkpt lat="24.955943" lon="102.588771">
<time>2016-04-06T09:32:18Z</time></trkpt>
<trkpt lat="24.954663" lon="102.588311">
<time>2016-04-06T09:32:19Z</time></trkpt>
<trkpt lat="24.954453" lon="102.588231">
<time>2016-04-06T09:32:20Z</time></trkpt>
<trkpt lat="24.954233" lon="102.588131">
<time>2016-04-06T09:32:21Z</time></trkpt>
<trkpt lat="24.954083" lon="102.588041">
<time>2016-04-06T09:32:22Z</time></trkpt>
<trkpt lat="24.954013" lon="102.587971">
<time>2016-04-06T09:32:23Z</time></trkpt>
<trkpt lat="24.953933" lon="102.587851">
<time>2016-04-06T09:32:24Z</time></trkpt>
<trkpt lat="24.953883" lon="102.587751">
<time>2016-04-06T09:32:25Z</time></trkpt>
<trkpt lat="24.953842" lon="102.587611">
<time>2016-04-06T09:32:26Z</time></trkpt>
<trkpt lat="24.953832" lon="102.587421">
<time>2016-04-06T09:32:27Z</time></trkpt>
<trkpt lat="24.953842" lon="102.587221">
<time>2016-04-06T09:32:28Z</time></trkpt>
<trkpt lat="24.953872" lon="102.586961">
<time>2016-04-06T09:32:29Z</time></trkpt>
<trkpt lat="24.953922" lon="102.586721">
<time>2016-04-06T09:32:30Z</time></trkpt>
<trkpt lat="24.954062" lon="102.586131">
<time>2016-04-06T09:32:31Z</time></trkpt>
<trkpt lat="24.954062" lon="102.586131">
<time>2016-04-06T09:32:32Z</time></trkpt>
<trkpt lat="24.954042" lon="102.586051">
<time>2016-04-06T09:32:33Z</time></trkpt>
<trkpt lat="24.954032" lon="102.585951">
<time>2016-04-06T09:32:34Z</time></trkpt>
<trkpt lat="24.954022" lon="102.585871">
<time>2016-04-06T09:32:35Z</time></trkpt>
<trkpt lat="24.954022" lon="102.585771">
<time>2016-04-06T09:32:36Z</time></trkpt>
<trkpt lat="24.954032" lon="102.585681">
<time>2016-04-06T09:32:37Z</time></trkpt>
<trkpt lat="24.954052" lon="102.585571">
<time>2016-04-06T09:32:38Z</time></trkpt>
<trkpt lat="24.954071" lon="102.585471">
<time>2016-04-06T09:32:39Z</time></trkpt>
<trkpt lat="24.954091" lon="102.585381">
<time>2016-04-06T09:32:40Z</time></trkpt>
<trkpt lat="24.954101" lon="102.585341">
<time>2016-04-06T09:32:41Z</time></trkpt>
<trkpt lat="24.954341" lon="102.58464">
<time>2016-04-06T09:32:42Z</time></trkpt>
<trkpt lat="24.954401" lon="102.58446">
<time>2016-04-06T09:32:43Z</time></trkpt>
<trkpt lat="24.954421" lon="102.58438">
<time>2016-04-06T09:32:44Z</time></trkpt>
<trkpt lat="24.954441" lon="102.58431">
<time>2016-04-06T09:32:45Z</time></trkpt>
<trkpt lat="24.954461" lon="102.58418">
<time>2016-04-06T09:32:46Z</time></trkpt>
<trkpt lat="24.954461" lon="102.58418">
<time>2016-04-06T09:32:47Z</time></trkpt>
<trkpt lat="24.954621" lon="102.58377">
<time>2016-04-06T09:32:48Z</time></trkpt>
<trkpt lat="24.95495" lon="102.58292">
<time>2016-04-06T09:32:49Z</time></trkpt>
<trkpt lat="24.95502" lon="102.58275">
<time>2016-04-06T09:32:50Z</time></trkpt>
<trkpt lat="24.955319" lon="102.582009">
<time>2016-04-06T09:32:51Z</time></trkpt>
<trkpt lat="24.955389" lon="102.581829">
<time>2016-04-06T09:32:52Z</time></trkpt>
<trkpt lat="24.955409" lon="102.581789">
<time>2016-04-06T09:32:53Z</time></trkpt>
<trkpt lat="24.955679" lon="102.581159">
<time>2016-04-06T09:32:54Z</time></trkpt>
<trkpt lat="24.955978" lon="102.580539">
<time>2016-04-06T09:32:55Z</time></trkpt>
<trkpt lat="24.956178" lon="102.580178">
<time>2016-04-06T09:32:56Z</time></trkpt>
<trkpt lat="24.956208" lon="102.580118">
<time>2016-04-06T09:32:57Z</time></trkpt>
<trkpt lat="24.956637" lon="102.579228">
<time>2016-04-06T09:32:58Z</time></trkpt>
<trkpt lat="24.957146" lon="102.577997">
<time>2016-04-06T09:32:59Z</time></trkpt>
<trkpt lat="24.957246" lon="102.577747">
<time>2016-04-06T09:33:00Z</time></trkpt>
<trkpt lat="24.957515" lon="102.577106">
<time>2016-04-06T09:33:01Z</time></trkpt>
<trkpt lat="24.957525" lon="102.577076">
<time>2016-04-06T09:33:02Z</time></trkpt>
<trkpt lat="24.957545" lon="102.577046">
<time>2016-04-06T09:33:03Z</time></trkpt>
<trkpt lat="24.957745" lon="102.576556">
<time>2016-04-06T09:33:04Z</time></trkpt>
<trkpt lat="24.957884" lon="102.576206">
<time>2016-04-06T09:33:05Z</time></trkpt>
<trkpt lat="24.957984" lon="102.575976">
<time>2016-04-06T09:33:06Z</time></trkpt>
<trkpt lat="24.958154" lon="102.575615">
<time>2016-04-06T09:33:07Z</time></trkpt>
<trkpt lat="24.958623" lon="102.574424">
<time>2016-04-06T09:33:08Z</time></trkpt>
<trkpt lat="24.958772" lon="102.573934">
<time>2016-04-06T09:33:09Z</time></trkpt>
<trkpt lat="24.958822" lon="102.573644">
<time>2016-04-06T09:33:10Z</time></trkpt>
<trkpt lat="24.958852" lon="102.573434">
<time>2016-04-06T09:33:11Z</time></trkpt>
<trkpt lat="24.958852" lon="102.573354">
<time>2016-04-06T09:33:12Z</time></trkpt>
<trkpt lat="24.958851" lon="102.573083">
<time>2016-04-06T09:33:13Z</time></trkpt>
<trkpt lat="24.958841" lon="102.572903">
<time>2016-04-06T09:33:14Z</time></trkpt>
<trkpt lat="24.958771" lon="102.572523">
<time>2016-04-06T09:33:15Z</time></trkpt>
<trkpt lat="24.95866" lon="102.572132">
<time>2016-04-06T09:33:16Z</time></trkpt>
<trkpt lat="24.9586" lon="102.571982">
<time>2016-04-06T09:33:17Z</time></trkpt>
<trkpt lat="24.95852" lon="102.571762">
<time>2016-04-06T09:33:18Z</time></trkpt>
<trkpt lat="24.95839" lon="102.571472">
<time>2016-04-06T09:33:19Z</time></trkpt>
<trkpt lat="24.958329" lon="102.571342">
<time>2016-04-06T09:33:20Z</time></trkpt>
<trkpt lat="24.958079" lon="102.570881">
<time>2016-04-06T09:33:21Z</time></trkpt>
<trkpt lat="24.957688" lon="102.57012">
<time>2016-04-06T09:33:22Z</time></trkpt>
<trkpt lat="24.957037" lon="102.568869">
<time>2016-04-06T09:33:23Z</time></trkpt>
<trkpt lat="24.956526" lon="102.567948">
<time>2016-04-06T09:33:24Z</time></trkpt>
<trkpt lat="24.956325" lon="102.567578">
<time>2016-04-06T09:33:25Z</time></trkpt>
<trkpt lat="24.956034" lon="102.566997">
<time>2016-04-06T09:33:26Z</time></trkpt>
<trkpt lat="24.955754" lon="102.566466">
<time>2016-04-06T09:33:27Z</time></trkpt>
<trkpt lat="24.954992" lon="102.565005">
<time>2016-04-06T09:33:28Z</time></trkpt>
<trkpt lat="24.954481" lon="102.564123">
<time>2016-04-06T09:33:29Z</time></trkpt>
<trkpt lat="24.95439" lon="102.563963">
<time>2016-04-06T09:33:30Z</time></trkpt>
<trkpt lat="24.95434" lon="102.563883">
<time>2016-04-06T09:33:31Z</time></trkpt>
<trkpt lat="24.95421" lon="102.563663">
<time>2016-04-06T09:33:32Z</time></trkpt>
<trkpt lat="24.95408" lon="102.563473">
<time>2016-04-06T09:33:33Z</time></trkpt>
<trkpt lat="24.953889" lon="102.563222">
<time>2016-04-06T09:33:34Z</time></trkpt>
<trkpt lat="24.953699" lon="102.563042">
<time>2016-04-06T09:33:35Z</time></trkpt>
<trkpt lat="24.953659" lon="102.563012">
<time>2016-04-06T09:33:36Z</time></trkpt>
<trkpt lat="24.953599" lon="102.562952">
<time>2016-04-06T09:33:37Z</time></trkpt>
<trkpt lat="24.953459" lon="102.562832">
<time>2016-04-06T09:33:38Z</time></trkpt>
<trkpt lat="24.953439" lon="102.562812">
<time>2016-04-06T09:33:39Z</time></trkpt>
<trkpt lat="24.953249" lon="102.562641">
<time>2016-04-06T09:33:40Z</time></trkpt>
<trkpt lat="24.953048" lon="102.562481">
<time>2016-04-06T09:33:41Z</time></trkpt>
<trkpt lat="24.952918" lon="102.562371">
<time>2016-04-06T09:33:42Z</time></trkpt>
<trkpt lat="24.952618" lon="102.562111">
<time>2016-04-06T09:33:43Z</time></trkpt>
<trkpt lat="24.952398" lon="102.56189">
<time>2016-04-06T09:33:44Z</time></trkpt>
<trkpt lat="24.952247" lon="102.56168">
<time>2016-04-06T09:33:45Z</time></trkpt>
<trkpt lat="24.952057" lon="102.56142">
<time>2016-04-06T09:33:46Z</time></trkpt>
<trkpt lat="24.951897" lon="102.561149">
<time>2016-04-06T09:33:47Z</time></trkpt>
<trkpt lat="24.951756" lon="102.560869">
<time>2016-04-06T09:33:48Z</time></trkpt>
<trkpt lat="24.951656" lon="102.560629">
<time>2016-04-06T09:33:49Z</time></trkpt>
<trkpt lat="24.951535" lon="102.560258">
<time>2016-04-06T09:33:50Z</time></trkpt>
<trkpt lat="24.951445" lon="102.559928">
<time>2016-04-06T09:33:51Z</time></trkpt>
<trkpt lat="24.951435" lon="102.559867">
<time>2016-04-06T09:33:52Z</time></trkpt>
<trkpt lat="24.951314" lon="102.559357">
<time>2016-04-06T09:33:53Z</time></trkpt>
<trkpt lat="24.951173" lon="102.558896">
<time>2016-04-06T09:33:54Z</time></trkpt>
<trkpt lat="24.951012" lon="102.558345">
<time>2016-04-06T09:33:55Z</time></trkpt>
<trkpt lat="24.950861" lon="102.557854">
<time>2016-04-06T09:33:56Z</time></trkpt>
<trkpt lat="24.950701" lon="102.557464">
<time>2016-04-06T09:33:57Z</time></trkpt>
<trkpt lat="24.95051" lon="102.557133">
<time>2016-04-06T09:33:58Z</time></trkpt>
<trkpt lat="24.95029" lon="102.556823">
<time>2016-04-06T09:33:59Z</time></trkpt>
<trkpt lat="24.950079" lon="102.556552">
<time>2016-04-06T09:34:00Z</time></trkpt>
<trkpt lat="24.949087" lon="102.55516">
<time>2016-04-06T09:34:01Z</time></trkpt>
<trkpt lat="24.948846" lon="102.554819">
<time>2016-04-06T09:34:02Z</time></trkpt>
<trkpt lat="24.948676" lon="102.554529">
<time>2016-04-06T09:34:03Z</time></trkpt>
<trkpt lat="24.948636" lon="102.554459">
<time>2016-04-06T09:34:04Z</time></trkpt>
<trkpt lat="24.948595" lon="102.554378">
<time>2016-04-06T09:34:05Z</time></trkpt>
<trkpt lat="24.948525" lon="102.554148">
<time>2016-04-06T09:34:06Z</time></trkpt>
<trkpt lat="24.948455" lon="102.553888">
<time>2016-04-06T09:34:07Z</time></trkpt>
<trkpt lat="24.948424" lon="102.553727">
<time>2016-04-06T09:34:08Z</time></trkpt>
<trkpt lat="24.948334" lon="102.553307">
<time>2016-04-06T09:34:09Z</time></trkpt>
<trkpt lat="24.948313" lon="102.553186">
<time>2016-04-06T09:34:10Z</time></trkpt>
<trkpt lat="24.948232" lon="102.552625">
<time>2016-04-06T09:34:11Z</time></trkpt>
<trkpt lat="24.948081" lon="102.551844">
<time>2016-04-06T09:34:12Z</time></trkpt>
<trkpt lat="24.94798" lon="102.551303">
<time>2016-04-06T09:34:13Z</time></trkpt>
<trkpt lat="24.947899" lon="102.550752">
<time>2016-04-06T09:34:14Z</time></trkpt>
<trkpt lat="24.947808" lon="102.550331">
<time>2016-04-06T09:34:15Z</time></trkpt>
<trkpt lat="24.947707" lon="102.54995">
<time>2016-04-06T09:34:16Z</time></trkpt>
<trkpt lat="24.947587" lon="102.54968">
<time>2016-04-06T09:34:17Z</time></trkpt>
<trkpt lat="24.947456" lon="102.549449">
<time>2016-04-06T09:34:18Z</time></trkpt>
<trkpt lat="24.947246" lon="102.549149">
<time>2016-04-06T09:34:19Z</time></trkpt>
<trkpt lat="24.946945" lon="102.548768">
<time>2016-04-06T09:34:20Z</time></trkpt>
<trkpt lat="24.946544" lon="102.548327">
<time>2016-04-06T09:34:21Z</time></trkpt>
<trkpt lat="24.946253" lon="102.547996">
<time>2016-04-06T09:34:22Z</time></trkpt>
<trkpt lat="24.946063" lon="102.547776">
<time>2016-04-06T09:34:23Z</time></trkpt>
<trkpt lat="24.945903" lon="102.547606">
<time>2016-04-06T09:34:24Z</time></trkpt>
<trkpt lat="24.945632" lon="102.547325">
<time>2016-04-06T09:34:25Z</time></trkpt>
<trkpt lat="24.945562" lon="102.547255">
<time>2016-04-06T09:34:26Z</time></trkpt>
<trkpt lat="24.94482" lon="102.546423">
<time>2016-04-06T09:34:27Z</time></trkpt>
<trkpt lat="24.944259" lon="102.545812">
<time>2016-04-06T09:34:28Z</time></trkpt>
<trkpt lat="24.943698" lon="102.54515">
<time>2016-04-06T09:34:29Z</time></trkpt>
<trkpt lat="24.943587" lon="102.54502">
<time>2016-04-06T09:34:30Z</time></trkpt>
<trkpt lat="24.943186" lon="102.544519">
<time>2016-04-06T09:34:31Z</time></trkpt>
<trkpt lat="24.942474" lon="102.543256">
<time>2016-04-06T09:34:32Z</time></trkpt>
<trkpt lat="24.942413" lon="102.543136">
<time>2016-04-06T09:34:33Z</time></trkpt>
<trkpt lat="24.942383" lon="102.543066">
<time>2016-04-06T09:34:34Z</time></trkpt>
<trkpt lat="24.942363" lon="102.543016">
<time>2016-04-06T09:34:35Z</time></trkpt>
<trkpt lat="24.942263" lon="102.542745">
<time>2016-04-06T09:34:36Z</time></trkpt>
<trkpt lat="24.942142" lon="102.542374">
<time>2016-04-06T09:34:37Z</time></trkpt>
<trkpt lat="24.942061" lon="102.542084">
<time>2016-04-06T09:34:38Z</time></trkpt>
<trkpt lat="24.942001" lon="102.541843">
<time>2016-04-06T09:34:39Z</time></trkpt>
<trkpt lat="24.94196" lon="102.541633">
<time>2016-04-06T09:34:40Z</time></trkpt>
<trkpt lat="24.94195" lon="102.541603">
<time>2016-04-06T09:34:41Z</time></trkpt>
<trkpt lat="24.941869" lon="102.541041">
<time>2016-04-06T09:34:42Z</time></trkpt>
<trkpt lat="24.941697" lon="102.540119">
<time>2016-04-06T09:34:43Z</time></trkpt>
<trkpt lat="24.941596" lon="102.539708">
<time>2016-04-06T09:34:44Z</time></trkpt>
<trkpt lat="24.941535" lon="102.539498">
<time>2016-04-06T09:34:45Z</time></trkpt>
<trkpt lat="24.941495" lon="102.539377">
<time>2016-04-06T09:34:46Z</time></trkpt>
<trkpt lat="24.941435" lon="102.539237">
<time>2016-04-06T09:34:47Z</time></trkpt>
<trkpt lat="24.941224" lon="102.538806">
<time>2016-04-06T09:34:48Z</time></trkpt>
<trkpt lat="24.940862" lon="102.538004">
<time>2016-04-06T09:34:49Z</time></trkpt>
<trkpt lat="24.940731" lon="102.537764">
<time>2016-04-06T09:34:50Z</time></trkpt>
<trkpt lat="24.940289" lon="102.536892">
<time>2016-04-06T09:34:51Z</time></trkpt>
<trkpt lat="24.939857" lon="102.536039">
<time>2016-04-06T09:34:52Z</time></trkpt>
<trkpt lat="24.939606" lon="102.535558">
<time>2016-04-06T09:34:53Z</time></trkpt>
<trkpt lat="24.939315" lon="102.534997">
<time>2016-04-06T09:34:54Z</time></trkpt>
<trkpt lat="24.938963" lon="102.534315">
<time>2016-04-06T09:34:55Z</time></trkpt>
<trkpt lat="24.938802" lon="102.533994">
<time>2016-04-06T09:34:56Z</time></trkpt>
<trkpt lat="24.93836" lon="102.533092">
<time>2016-04-06T09:34:57Z</time></trkpt>
<trkpt lat="24.938109" lon="102.532651">
<time>2016-04-06T09:34:58Z</time></trkpt>
<trkpt lat="24.937978" lon="102.53242">
<time>2016-04-06T09:34:59Z</time></trkpt>
<trkpt lat="24.937827" lon="102.532109">
<time>2016-04-06T09:35:00Z</time></trkpt>
<trkpt lat="24.937657" lon="102.531769">
<time>2016-04-06T09:35:01Z</time></trkpt>
<trkpt lat="24.937455" lon="102.531227">
<time>2016-04-06T09:35:02Z</time></trkpt>
<trkpt lat="24.937334" lon="102.530756">
<time>2016-04-06T09:35:03Z</time></trkpt>
<trkpt lat="24.937242" lon="102.530094">
<time>2016-04-06T09:35:04Z</time></trkpt>
<trkpt lat="24.937271" lon="102.529613">
<time>2016-04-06T09:35:05Z</time></trkpt>
<trkpt lat="24.93731" lon="102.529312">
<time>2016-04-06T09:35:06Z</time></trkpt>
<trkpt lat="24.93733" lon="102.529212">
<time>2016-04-06T09:35:07Z</time></trkpt>
<trkpt lat="24.937389" lon="102.528961">
<time>2016-04-06T09:35:08Z</time></trkpt>
<trkpt lat="24.937409" lon="102.528851">
<time>2016-04-06T09:35:09Z</time></trkpt>
<trkpt lat="24.937508" lon="102.52857">
<time>2016-04-06T09:35:10Z</time></trkpt>
<trkpt lat="24.937687" lon="102.528189">
<time>2016-04-06T09:35:11Z</time></trkpt>
<trkpt lat="24.937797" lon="102.527988">
<time>2016-04-06T09:35:12Z</time></trkpt>
<trkpt lat="24.937847" lon="102.527908">
<time>2016-04-06T09:35:13Z</time></trkpt>
<trkpt lat="24.938046" lon="102.527617">
<time>2016-04-06T09:35:14Z</time></trkpt>
<trkpt lat="24.938175" lon="102.527447">
<time>2016-04-06T09:35:15Z</time></trkpt>
<trkpt lat="24.938345" lon="102.527267">
<time>2016-04-06T09:35:16Z</time></trkpt>
<trkpt lat="24.939052" lon="102.526314">
<time>2016-04-06T09:35:17Z</time></trkpt>
<trkpt lat="24.939112" lon="102.526204">
<time>2016-04-06T09:35:18Z</time></trkpt>
<trkpt lat="24.939122" lon="102.526194">
<time>2016-04-06T09:35:19Z</time></trkpt>
<trkpt lat="24.939301" lon="102.525883">
<time>2016-04-06T09:35:20Z</time></trkpt>
<trkpt lat="24.93946" lon="102.525542">
<time>2016-04-06T09:35:21Z</time></trkpt>
<trkpt lat="24.939569" lon="102.525231">
<time>2016-04-06T09:35:22Z</time></trkpt>
<trkpt lat="24.939638" lon="102.52494">
<time>2016-04-06T09:35:23Z</time></trkpt>
<trkpt lat="24.939717" lon="102.524559">
<time>2016-04-06T09:35:24Z</time></trkpt>
<trkpt lat="24.939776" lon="102.524138">
<time>2016-04-06T09:35:25Z</time></trkpt>
<trkpt lat="24.939825" lon="102.523656">
<time>2016-04-06T09:35:26Z</time></trkpt>
<trkpt lat="24.939824" lon="102.523436">
<time>2016-04-06T09:35:27Z</time></trkpt>
<trkpt lat="24.939813" lon="102.523105">
<time>2016-04-06T09:35:28Z</time></trkpt>
<trkpt lat="24.939803" lon="102.522954">
<time>2016-04-06T09:35:29Z</time></trkpt>
<trkpt lat="24.939752" lon="102.522634">
<time>2016-04-06T09:35:30Z</time></trkpt>
<trkpt lat="24.939681" lon="102.522333">
<time>2016-04-06T09:35:31Z</time></trkpt>
<trkpt lat="24.93952" lon="102.521871">
<time>2016-04-06T09:35:32Z</time></trkpt>
<trkpt lat="24.939399" lon="102.52158">
<time>2016-04-06T09:35:33Z</time></trkpt>
<trkpt lat="24.939288" lon="102.52136">
<time>2016-04-06T09:35:34Z</time></trkpt>
<trkpt lat="24.939278" lon="102.52134">
<time>2016-04-06T09:35:35Z</time></trkpt>
<trkpt lat="24.939198" lon="102.521199">
<time>2016-04-06T09:35:36Z</time></trkpt>
<trkpt lat="24.939047" lon="102.520939">
<time>2016-04-06T09:35:37Z</time></trkpt>
<trkpt lat="24.938756" lon="102.520538">
<time>2016-04-06T09:35:38Z</time></trkpt>
<trkpt lat="24.938515" lon="102.520257">
<time>2016-04-06T09:35:39Z</time></trkpt>
<trkpt lat="24.938375" lon="102.520116">
<time>2016-04-06T09:35:40Z</time></trkpt>
<trkpt lat="24.938215" lon="102.519976">
<time>2016-04-06T09:35:41Z</time></trkpt>
<trkpt lat="24.937894" lon="102.519705">
<time>2016-04-06T09:35:42Z</time></trkpt>
<trkpt lat="24.937172" lon="102.519143">
<time>2016-04-06T09:35:43Z</time></trkpt>
<trkpt lat="24.936681" lon="102.518772">
<time>2016-04-06T09:35:44Z</time></trkpt>
<trkpt lat="24.936291" lon="102.518451">
<time>2016-04-06T09:35:45Z</time></trkpt>
<trkpt lat="24.936" lon="102.518221">
<time>2016-04-06T09:35:46Z</time></trkpt>
<trkpt lat="24.93579" lon="102.51805">
<time>2016-04-06T09:35:47Z</time></trkpt>
<trkpt lat="24.935489" lon="102.51783">
<time>2016-04-06T09:35:48Z</time></trkpt>
<trkpt lat="24.935168" lon="102.517539">
<time>2016-04-06T09:35:49Z</time></trkpt>
<trkpt lat="24.934978" lon="102.517378">
<time>2016-04-06T09:35:50Z</time></trkpt>
<trkpt lat="24.934837" lon="102.517238">
<time>2016-04-06T09:35:51Z</time></trkpt>
<trkpt lat="24.934737" lon="102.517118">
<time>2016-04-06T09:35:52Z</time></trkpt>
<trkpt lat="24.934406" lon="102.516726">
<time>2016-04-06T09:35:53Z</time></trkpt>
<trkpt lat="24.934054" lon="102.516205">
<time>2016-04-06T09:35:54Z</time></trkpt>
<trkpt lat="24.933854" lon="102.515914">
<time>2016-04-06T09:35:55Z</time></trkpt>
<trkpt lat="24.933613" lon="102.515543">
<time>2016-04-06T09:35:56Z</time></trkpt>
<trkpt lat="24.93291" lon="102.51447">
<time>2016-04-06T09:35:57Z</time></trkpt>
<trkpt lat="24.932377" lon="102.513707">
<time>2016-04-06T09:35:58Z</time></trkpt>
<trkpt lat="24.931383" lon="102.512223">
<time>2016-04-06T09:35:59Z</time></trkpt>
<trkpt lat="24.930479" lon="102.510849">
<time>2016-04-06T09:36:00Z</time></trkpt>
<trkpt lat="24.930188" lon="102.510357">
<time>2016-04-06T09:36:01Z</time></trkpt>
<trkpt lat="24.929937" lon="102.509916">
<time>2016-04-06T09:36:02Z</time></trkpt>
<trkpt lat="24.929916" lon="102.509876">
<time>2016-04-06T09:36:03Z</time></trkpt>
<trkpt lat="24.929906" lon="102.509836">
<time>2016-04-06T09:36:04Z</time></trkpt>
<trkpt lat="24.929776" lon="102.509575">
<time>2016-04-06T09:36:05Z</time></trkpt>
<trkpt lat="24.929574" lon="102.509103">
<time>2016-04-06T09:36:06Z</time></trkpt>
<trkpt lat="24.929514" lon="102.508943">
<time>2016-04-06T09:36:07Z</time></trkpt>
<trkpt lat="24.929474" lon="102.508853">
<time>2016-04-06T09:36:08Z</time></trkpt>
<trkpt lat="24.929443" lon="102.508732">
<time>2016-04-06T09:36:09Z</time></trkpt>
<trkpt lat="24.929413" lon="102.508652">
<time>2016-04-06T09:36:10Z</time></trkpt>
<trkpt lat="24.929362" lon="102.508482">
<time>2016-04-06T09:36:11Z</time></trkpt>
<trkpt lat="24.929322" lon="102.508271">
<time>2016-04-06T09:36:12Z</time></trkpt>
<trkpt lat="24.929261" lon="102.50805">
<time>2016-04-06T09:36:13Z</time></trkpt>
<trkpt lat="24.92919" lon="102.507759">
<time>2016-04-06T09:36:14Z</time></trkpt>
<trkpt lat="24.929109" lon="102.507398">
<time>2016-04-06T09:36:15Z</time></trkpt>
<trkpt lat="24.929028" lon="102.507057">
<time>2016-04-06T09:36:16Z</time></trkpt>
<trkpt lat="24.928816" lon="102.506144">
<time>2016-04-06T09:36:17Z</time></trkpt>
<trkpt lat="24.928643" lon="102.505362">
<time>2016-04-06T09:36:18Z</time></trkpt>
<trkpt lat="24.928532" lon="102.50487">
<time>2016-04-06T09:36:19Z</time></trkpt>
<trkpt lat="24.9284" lon="102.504299">
<time>2016-04-06T09:36:20Z</time></trkpt>
<trkpt lat="24.92838" lon="102.504188">
<time>2016-04-06T09:36:21Z</time></trkpt>
<trkpt lat="24.928329" lon="102.503968">
<time>2016-04-06T09:36:22Z</time></trkpt>
<trkpt lat="24.928278" lon="102.503737">
<time>2016-04-06T09:36:23Z</time></trkpt>
<trkpt lat="24.928258" lon="102.503657">
<time>2016-04-06T09:36:24Z</time></trkpt>
<trkpt lat="24.928238" lon="102.503556">
<time>2016-04-06T09:36:25Z</time></trkpt>
<trkpt lat="24.928116" lon="102.503045">
<time>2016-04-06T09:36:26Z</time></trkpt>
<trkpt lat="24.928035" lon="102.502653">
<time>2016-04-06T09:36:27Z</time></trkpt>
<trkpt lat="24.927934" lon="102.502172">
<time>2016-04-06T09:36:28Z</time></trkpt>
<trkpt lat="24.927914" lon="102.502092">
<time>2016-04-06T09:36:29Z</time></trkpt>
<trkpt lat="24.927822" lon="102.5016">
<time>2016-04-06T09:36:30Z</time></trkpt>
<trkpt lat="24.927812" lon="102.50154">
<time>2016-04-06T09:36:31Z</time></trkpt>
<trkpt lat="24.927761" lon="102.501159">
<time>2016-04-06T09:36:32Z</time></trkpt>
<trkpt lat="24.92773" lon="102.500838">
<time>2016-04-06T09:36:33Z</time></trkpt>
<trkpt lat="24.927709" lon="102.500517">
<time>2016-04-06T09:36:34Z</time></trkpt>
<trkpt lat="24.927688" lon="102.500236">
<time>2016-04-06T09:36:35Z</time></trkpt>
<trkpt lat="24.927688" lon="102.500095">
<time>2016-04-06T09:36:36Z</time></trkpt>
<trkpt lat="24.927677" lon="102.500025">
<time>2016-04-06T09:36:37Z</time></trkpt>
<trkpt lat="24.927625" lon="102.499233">
<time>2016-04-06T09:36:38Z</time></trkpt>
<trkpt lat="24.927532" lon="102.498149">
<time>2016-04-06T09:36:39Z</time></trkpt>
<trkpt lat="24.92749" lon="102.497658">
<time>2016-04-06T09:36:40Z</time></trkpt>
<trkpt lat="24.927427" lon="102.496665">
<time>2016-04-06T09:36:41Z</time></trkpt>
<trkpt lat="24.927416" lon="102.496364">
<time>2016-04-06T09:36:42Z</time></trkpt>
<trkpt lat="24.927406" lon="102.496203">
<time>2016-04-06T09:36:43Z</time></trkpt>
<trkpt lat="24.927395" lon="102.495932">
<time>2016-04-06T09:36:44Z</time></trkpt>
<trkpt lat="24.927404" lon="102.495712">
<time>2016-04-06T09:36:45Z</time></trkpt>
<trkpt lat="24.927404" lon="102.495491">
<time>2016-04-06T09:36:46Z</time></trkpt>
<trkpt lat="24.927413" lon="102.49518">
<time>2016-04-06T09:36:47Z</time></trkpt>
<trkpt lat="24.927423" lon="102.49508">
<time>2016-04-06T09:36:48Z</time></trkpt>
<trkpt lat="24.927432" lon="102.494969">
<time>2016-04-06T09:36:49Z</time></trkpt>
<trkpt lat="24.927442" lon="102.494889">
<time>2016-04-06T09:36:50Z</time></trkpt>
<trkpt lat="24.927462" lon="102.494819">
<time>2016-04-06T09:36:51Z</time></trkpt>
<trkpt lat="24.927491" lon="102.494688">
<time>2016-04-06T09:36:52Z</time></trkpt>
<trkpt lat="24.927531" lon="102.494548">
<time>2016-04-06T09:36:53Z</time></trkpt>
<trkpt lat="24.92762" lon="102.494277">
<time>2016-04-06T09:36:54Z</time></trkpt>
<trkpt lat="24.92762" lon="102.494267">
<time>2016-04-06T09:36:55Z</time></trkpt>
<trkpt lat="24.927689" lon="102.494066">
<time>2016-04-06T09:36:56Z</time></trkpt>
<trkpt lat="24.927769" lon="102.493886">
<time>2016-04-06T09:36:57Z</time></trkpt>
<trkpt lat="24.927828" lon="102.493725">
<time>2016-04-06T09:36:58Z</time></trkpt>
<trkpt lat="24.927918" lon="102.493545">
<time>2016-04-06T09:36:59Z</time></trkpt>
<trkpt lat="24.928037" lon="102.493314">
<time>2016-04-06T09:37:00Z</time></trkpt>
<trkpt lat="24.928156" lon="102.493083">
<time>2016-04-06T09:37:01Z</time></trkpt>
<trkpt lat="24.928375" lon="102.492542">
<time>2016-04-06T09:37:02Z</time></trkpt>
<trkpt lat="24.928395" lon="102.492502">
<time>2016-04-06T09:37:03Z</time></trkpt>
<trkpt lat="24.928514" lon="102.49216">
<time>2016-04-06T09:37:04Z</time></trkpt>
<trkpt lat="24.928533" lon="102.49211">
<time>2016-04-06T09:37:05Z</time></trkpt>
<trkpt lat="24.928593" lon="102.49193">
<time>2016-04-06T09:37:06Z</time></trkpt>
<trkpt lat="24.928712" lon="102.491649">
<time>2016-04-06T09:37:07Z</time></trkpt>
<trkpt lat="24.928712" lon="102.491639">
<time>2016-04-06T09:37:08Z</time></trkpt>
<trkpt lat="24.928871" lon="102.491288">
<time>2016-04-06T09:37:09Z</time></trkpt>
<trkpt lat="24.92898" lon="102.491037">
<time>2016-04-06T09:37:10Z</time></trkpt>
<trkpt lat="24.929" lon="102.490987">
<time>2016-04-06T09:37:11Z</time></trkpt>
<trkpt lat="24.92909" lon="102.490806">
<time>2016-04-06T09:37:12Z</time></trkpt>
<trkpt lat="24.929179" lon="102.490545">
<time>2016-04-06T09:37:13Z</time></trkpt>
<trkpt lat="24.929258" lon="102.490305">
<time>2016-04-06T09:37:14Z</time></trkpt>
<trkpt lat="24.929337" lon="102.489994">
<time>2016-04-06T09:37:15Z</time></trkpt>
<trkpt lat="24.929406" lon="102.489773">
<time>2016-04-06T09:37:16Z</time></trkpt>
<trkpt lat="24.929436" lon="102.489582">
<time>2016-04-06T09:37:17Z</time></trkpt>
<trkpt lat="24.929446" lon="102.489542">
<time>2016-04-06T09:37:18Z</time></trkpt>
<trkpt lat="24.929465" lon="102.489432">
<time>2016-04-06T09:37:19Z</time></trkpt>
<trkpt lat="24.929573" lon="102.488599">
<time>2016-04-06T09:37:20Z</time></trkpt>
<trkpt lat="24.929563" lon="102.488549">
<time>2016-04-06T09:37:21Z</time></trkpt>
<trkpt lat="24.929582" lon="102.488318">
<time>2016-04-06T09:37:22Z</time></trkpt>
<trkpt lat="24.929758" lon="102.487115">
<time>2016-04-06T09:37:23Z</time></trkpt>
<trkpt lat="24.929905" lon="102.485841">
<time>2016-04-06T09:37:24Z</time></trkpt>
<trkpt lat="24.929983" lon="102.485269">
<time>2016-04-06T09:37:25Z</time></trkpt>
<trkpt lat="24.93011" lon="102.484216">
<time>2016-04-06T09:37:26Z</time></trkpt>
<trkpt lat="24.930169" lon="102.483764">
<time>2016-04-06T09:37:27Z</time></trkpt>
<trkpt lat="24.930266" lon="102.483052">
<time>2016-04-06T09:37:28Z</time></trkpt>
<trkpt lat="24.930276" lon="102.483012">
<time>2016-04-06T09:37:29Z</time></trkpt>
<trkpt lat="24.930286" lon="102.482922">
<time>2016-04-06T09:37:30Z</time></trkpt>
<trkpt lat="24.930316" lon="102.482771">
<time>2016-04-06T09:37:31Z</time></trkpt>
<trkpt lat="24.930335" lon="102.482541">
<time>2016-04-06T09:37:32Z</time></trkpt>
<trkpt lat="24.930354" lon="102.48237">
<time>2016-04-06T09:37:33Z</time></trkpt>
<trkpt lat="24.930414" lon="102.482089">
<time>2016-04-06T09:37:34Z</time></trkpt>
<trkpt lat="24.930463" lon="102.481879">
<time>2016-04-06T09:37:35Z</time></trkpt>
<trkpt lat="24.930532" lon="102.481608">
<time>2016-04-06T09:37:36Z</time></trkpt>
<trkpt lat="24.930582" lon="102.481397">
<time>2016-04-06T09:37:37Z</time></trkpt>
<trkpt lat="24.930651" lon="102.481186">
<time>2016-04-06T09:37:38Z</time></trkpt>
<trkpt lat="24.930711" lon="102.481016">
<time>2016-04-06T09:37:39Z</time></trkpt>
<trkpt lat="24.93076" lon="102.480835">
<time>2016-04-06T09:37:40Z</time></trkpt>
<trkpt lat="24.930909" lon="102.480404">
<time>2016-04-06T09:37:41Z</time></trkpt>
<trkpt lat="24.931048" lon="102.480013">
<time>2016-04-06T09:37:42Z</time></trkpt>
<trkpt lat="24.931117" lon="102.479832">
<time>2016-04-06T09:37:43Z</time></trkpt>
<trkpt lat="24.932409" lon="102.477084">
<time>2016-04-06T09:37:44Z</time></trkpt>
<trkpt lat="24.932588" lon="102.476683">
<time>2016-04-06T09:37:45Z</time></trkpt>
<trkpt lat="24.932677" lon="102.476472">
<time>2016-04-06T09:37:46Z</time></trkpt>
<trkpt lat="24.932747" lon="102.476302">
<time>2016-04-06T09:37:47Z</time></trkpt>
<trkpt lat="24.932816" lon="102.476081">
<time>2016-04-06T09:37:48Z</time></trkpt>
<trkpt lat="24.932935" lon="102.47573">
<time>2016-04-06T09:37:49Z</time></trkpt>
<trkpt lat="24.933014" lon="102.475449">
<time>2016-04-06T09:37:50Z</time></trkpt>
<trkpt lat="24.933103" lon="102.475088">
<time>2016-04-06T09:37:51Z</time></trkpt>
<trkpt lat="24.933153" lon="102.474767">
<time>2016-04-06T09:37:52Z</time></trkpt>
<trkpt lat="24.933192" lon="102.474516">
<time>2016-04-06T09:37:53Z</time></trkpt>
<trkpt lat="24.933211" lon="102.474296">
<time>2016-04-06T09:37:54Z</time></trkpt>
<trkpt lat="24.93324" lon="102.474025">
<time>2016-04-06T09:37:55Z</time></trkpt>
<trkpt lat="24.933239" lon="102.473654">
<time>2016-04-06T09:37:56Z</time></trkpt>
<trkpt lat="24.933228" lon="102.473243">
<time>2016-04-06T09:37:57Z</time></trkpt>
<trkpt lat="24.933218" lon="102.473042">
<time>2016-04-06T09:37:58Z</time></trkpt>
<trkpt lat="24.933207" lon="102.472832">
<time>2016-04-06T09:37:59Z</time></trkpt>
<trkpt lat="24.933166" lon="102.472531">
<time>2016-04-06T09:38:00Z</time></trkpt>
<trkpt lat="24.933136" lon="102.47227">
<time>2016-04-06T09:38:01Z</time></trkpt>
<trkpt lat="24.933064" lon="102.471799">
<time>2016-04-06T09:38:02Z</time></trkpt>
<trkpt lat="24.933003" lon="102.471277">
<time>2016-04-06T09:38:03Z</time></trkpt>
<trkpt lat="24.932972" lon="102.471006">
<time>2016-04-06T09:38:04Z</time></trkpt>
<trkpt lat="24.932971" lon="102.470715">
<time>2016-04-06T09:38:05Z</time></trkpt>
<trkpt lat="24.932971" lon="102.470525">
<time>2016-04-06T09:38:06Z</time></trkpt>
<trkpt lat="24.93298" lon="102.470344">
<time>2016-04-06T09:38:07Z</time></trkpt>
<trkpt lat="24.933" lon="102.470194">
<time>2016-04-06T09:38:08Z</time></trkpt>
<trkpt lat="24.93302" lon="102.470074">
<time>2016-04-06T09:38:09Z</time></trkpt>
<trkpt lat="24.933039" lon="102.469953">
<time>2016-04-06T09:38:10Z</time></trkpt>
<trkpt lat="24.933059" lon="102.469843">
<time>2016-04-06T09:38:11Z</time></trkpt>
<trkpt lat="24.933079" lon="102.469713">
<time>2016-04-06T09:38:12Z</time></trkpt>
<trkpt lat="24.933118" lon="102.469582">
<time>2016-04-06T09:38:13Z</time></trkpt>
<trkpt lat="24.933148" lon="102.469462">
<time>2016-04-06T09:38:14Z</time></trkpt>
<trkpt lat="24.933178" lon="102.469342">
<time>2016-04-06T09:38:15Z</time></trkpt>
<trkpt lat="24.933217" lon="102.469221">
<time>2016-04-06T09:38:16Z</time></trkpt>
<trkpt lat="24.933297" lon="102.469001">
<time>2016-04-06T09:38:17Z</time></trkpt>
<trkpt lat="24.933376" lon="102.46883">
<time>2016-04-06T09:38:18Z</time></trkpt>
<trkpt lat="24.933436" lon="102.46869">
<time>2016-04-06T09:38:19Z</time></trkpt>
<trkpt lat="24.933506" lon="102.468529">
<time>2016-04-06T09:38:20Z</time></trkpt>
<trkpt lat="24.933545" lon="102.468409">
<time>2016-04-06T09:38:21Z</time></trkpt>
<trkpt lat="24.933595" lon="102.468269">
<time>2016-04-06T09:38:22Z</time></trkpt>
<trkpt lat="24.933634" lon="102.468078">
<time>2016-04-06T09:38:23Z</time></trkpt>
<trkpt lat="24.933684" lon="102.467888">
<time>2016-04-06T09:38:24Z</time></trkpt>
<trkpt lat="24.933723" lon="102.467667">
<time>2016-04-06T09:38:25Z</time></trkpt>
<trkpt lat="24.933753" lon="102.467486">
<time>2016-04-06T09:38:26Z</time></trkpt>
<trkpt lat="24.933762" lon="102.467346">
<time>2016-04-06T09:38:27Z</time></trkpt>
<trkpt lat="24.933772" lon="102.467176">
<time>2016-04-06T09:38:28Z</time></trkpt>
<trkpt lat="24.933772" lon="102.467025">
<time>2016-04-06T09:38:29Z</time></trkpt>
<trkpt lat="24.933761" lon="102.466905">
<time>2016-04-06T09:38:30Z</time></trkpt>
<trkpt lat="24.933741" lon="102.466784">
<time>2016-04-06T09:38:31Z</time></trkpt>
<trkpt lat="24.933721" lon="102.466664">
<time>2016-04-06T09:38:32Z</time></trkpt>
<trkpt lat="24.93369" lon="102.466514">
<time>2016-04-06T09:38:33Z</time></trkpt>
<trkpt lat="24.93366" lon="102.466393">
<time>2016-04-06T09:38:34Z</time></trkpt>
<trkpt lat="24.93363" lon="102.466273">
<time>2016-04-06T09:38:35Z</time></trkpt>
<trkpt lat="24.933549" lon="102.466073">
<time>2016-04-06T09:38:36Z</time></trkpt>
<trkpt lat="24.933469" lon="102.465902">
<time>2016-04-06T09:38:37Z</time></trkpt>
<trkpt lat="24.933238" lon="102.465531">
<time>2016-04-06T09:38:38Z</time></trkpt>
<trkpt lat="24.932756" lon="102.464899">
<time>2016-04-06T09:38:39Z</time></trkpt>
<trkpt lat="24.932225" lon="102.464197">
<time>2016-04-06T09:38:40Z</time></trkpt>
<trkpt lat="24.931984" lon="102.463937">
<time>2016-04-06T09:38:41Z</time></trkpt>
<trkpt lat="24.931874" lon="102.463796">
<time>2016-04-06T09:38:42Z</time></trkpt>
<trkpt lat="24.931583" lon="102.463415">
<time>2016-04-06T09:38:43Z</time></trkpt>
<trkpt lat="24.928022" lon="102.458954">
<time>2016-04-06T09:38:44Z</time></trkpt>
<trkpt lat="24.927691" lon="102.458563">
<time>2016-04-06T09:38:45Z</time></trkpt>
<trkpt lat="24.927551" lon="102.458383">
<time>2016-04-06T09:38:46Z</time></trkpt>
<trkpt lat="24.92739" lon="102.458162">
<time>2016-04-06T09:38:47Z</time></trkpt>
<trkpt lat="24.92722" lon="102.457911">
<time>2016-04-06T09:38:48Z</time></trkpt>
<trkpt lat="24.927119" lon="102.457741">
<time>2016-04-06T09:38:49Z</time></trkpt>
<trkpt lat="24.926999" lon="102.45748">
<time>2016-04-06T09:38:50Z</time></trkpt>
<trkpt lat="24.926908" lon="102.45731">
<time>2016-04-06T09:38:51Z</time></trkpt>
<trkpt lat="24.926858" lon="102.45718">
<time>2016-04-06T09:38:52Z</time></trkpt>
<trkpt lat="24.926757" lon="102.456889">
<time>2016-04-06T09:38:53Z</time></trkpt>
<trkpt lat="24.926677" lon="102.456668">
<time>2016-04-06T09:38:54Z</time></trkpt>
<trkpt lat="24.926616" lon="102.456448">
<time>2016-04-06T09:38:55Z</time></trkpt>
<trkpt lat="24.926566" lon="102.456207">
<time>2016-04-06T09:38:56Z</time></trkpt>
<trkpt lat="24.926505" lon="102.455937">
<time>2016-04-06T09:38:57Z</time></trkpt>
<trkpt lat="24.926373" lon="102.454744">
<time>2016-04-06T09:38:58Z</time></trkpt>
<trkpt lat="24.926373" lon="102.454714">
<time>2016-04-06T09:38:59Z</time></trkpt>
<trkpt lat="24.925975" lon="102.451306">
<time>2016-04-06T09:39:00Z</time></trkpt>
<trkpt lat="24.925944" lon="102.450975">
<time>2016-04-06T09:39:01Z</time></trkpt>
<trkpt lat="24.925914" lon="102.450674">
<time>2016-04-06T09:39:02Z</time></trkpt>
<trkpt lat="24.925883" lon="102.450394">
<time>2016-04-06T09:39:03Z</time></trkpt>
<trkpt lat="24.925873" lon="102.450173">
<time>2016-04-06T09:39:04Z</time></trkpt>
<trkpt lat="24.925852" lon="102.449973">
<time>2016-04-06T09:39:05Z</time></trkpt>
<trkpt lat="24.92575" lon="102.44891">
<time>2016-04-06T09:39:06Z</time></trkpt>
<trkpt lat="24.92569" lon="102.4487">
<time>2016-04-06T09:39:07Z</time></trkpt>
<trkpt lat="24.92568" lon="102.44864">
<time>2016-04-06T09:39:08Z</time></trkpt>
<trkpt lat="24.925649" lon="102.448369">
<time>2016-04-06T09:39:09Z</time></trkpt>
<trkpt lat="24.925639" lon="102.448299">
<time>2016-04-06T09:39:10Z</time></trkpt>
<trkpt lat="24.925608" lon="102.448039">
<time>2016-04-06T09:39:11Z</time></trkpt>
<trkpt lat="24.925578" lon="102.447748">
<time>2016-04-06T09:39:12Z</time></trkpt>
<trkpt lat="24.925496" lon="102.447086">
<time>2016-04-06T09:39:13Z</time></trkpt>
<trkpt lat="24.925495" lon="102.446626">
<time>2016-04-06T09:39:14Z</time></trkpt>
<trkpt lat="24.925564" lon="102.446094">
<time>2016-04-06T09:39:15Z</time></trkpt>
<trkpt lat="24.925703" lon="102.445593">
<time>2016-04-06T09:39:16Z</time></trkpt>
<trkpt lat="24.925972" lon="102.444922">
<time>2016-04-06T09:39:17Z</time></trkpt>
<trkpt lat="24.926411" lon="102.444241">
<time>2016-04-06T09:39:18Z</time></trkpt>
<trkpt lat="24.92669" lon="102.44392">
<time>2016-04-06T09:39:19Z</time></trkpt>
<trkpt lat="24.927439" lon="102.443158">
<time>2016-04-06T09:39:20Z</time></trkpt>
<trkpt lat="24.928117" lon="102.442267">
<time>2016-04-06T09:39:21Z</time></trkpt>
<trkpt lat="24.928306" lon="102.441946">
<time>2016-04-06T09:39:22Z</time></trkpt>
<trkpt lat="24.928516" lon="102.441525">
<time>2016-04-06T09:39:23Z</time></trkpt>
<trkpt lat="24.928625" lon="102.441235">
<time>2016-04-06T09:39:24Z</time></trkpt>
<trkpt lat="24.928705" lon="102.440964">
<time>2016-04-06T09:39:25Z</time></trkpt>
<trkpt lat="24.928804" lon="102.440413">
<time>2016-04-06T09:39:26Z</time></trkpt>
<trkpt lat="24.928813" lon="102.440113">
<time>2016-04-06T09:39:27Z</time></trkpt>
<trkpt lat="24.928812" lon="102.439712">
<time>2016-04-06T09:39:28Z</time></trkpt>
<trkpt lat="24.928772" lon="102.439281">
<time>2016-04-06T09:39:29Z</time></trkpt>
<trkpt lat="24.928467" lon="102.436667">
<time>2016-04-06T09:39:30Z</time></trkpt>
<trkpt lat="24.928386" lon="102.435945">
<time>2016-04-06T09:39:31Z</time></trkpt>
<trkpt lat="24.928346" lon="102.435595">
<time>2016-04-06T09:39:32Z</time></trkpt>
<trkpt lat="24.928154" lon="102.434163">
<time>2016-04-06T09:39:33Z</time></trkpt>
<trkpt lat="24.928052" lon="102.4328">
<time>2016-04-06T09:39:34Z</time></trkpt>
<trkpt lat="24.92798" lon="102.431539">
<time>2016-04-06T09:39:35Z</time></trkpt>
<trkpt lat="24.927928" lon="102.430397">
<time>2016-04-06T09:39:36Z</time></trkpt>
<trkpt lat="24.927906" lon="102.428805">
<time>2016-04-06T09:39:37Z</time></trkpt>
<trkpt lat="24.927906" lon="102.428544">
<time>2016-04-06T09:39:38Z</time></trkpt>
<trkpt lat="24.927934" lon="102.427343">
<time>2016-04-06T09:39:39Z</time></trkpt>
<trkpt lat="24.927963" lon="102.426131">
<time>2016-04-06T09:39:40Z</time></trkpt>
<trkpt lat="24.927973" lon="102.425701">
<time>2016-04-06T09:39:41Z</time></trkpt>
<trkpt lat="24.927992" lon="102.42534">
<time>2016-04-06T09:39:42Z</time></trkpt>
<trkpt lat="24.927992" lon="102.42528">
<time>2016-04-06T09:39:43Z</time></trkpt>
<trkpt lat="24.928148" lon="102.421677">
<time>2016-04-06T09:39:44Z</time></trkpt>
<trkpt lat="24.928197" lon="102.420375">
<time>2016-04-06T09:39:45Z</time></trkpt>
<trkpt lat="24.928217" lon="102.419935">
<time>2016-04-06T09:39:46Z</time></trkpt>
<trkpt lat="24.928196" lon="102.419074">
<time>2016-04-06T09:39:47Z</time></trkpt>
<trkpt lat="24.928135" lon="102.417663">
<time>2016-04-06T09:39:48Z</time></trkpt>
<trkpt lat="24.928105" lon="102.417153">
<time>2016-04-06T09:39:49Z</time></trkpt>
<trkpt lat="24.928004" lon="102.415812">
<time>2016-04-06T09:39:50Z</time></trkpt>
<trkpt lat="24.927823" lon="102.41425">
<time>2016-04-06T09:39:51Z</time></trkpt>
<trkpt lat="24.927782" lon="102.41346">
<time>2016-04-06T09:39:52Z</time></trkpt>
<trkpt lat="24.927782" lon="102.41346">
<time>2016-04-06T09:39:53Z</time></trkpt>
<trkpt lat="24.927862" lon="102.41347">
<time>2016-04-06T09:39:54Z</time></trkpt>
<trkpt lat="24.927862" lon="102.41347">
<time>2016-04-06T09:39:55Z</time></trkpt>
<trkpt lat="24.927712" lon="102.41286">
<time>2016-04-06T09:39:56Z</time></trkpt>
<trkpt lat="24.927692" lon="102.41273">
<time>2016-04-06T09:39:57Z</time></trkpt>
<trkpt lat="24.927682" lon="102.412609">
<time>2016-04-06T09:39:58Z</time></trkpt>
<trkpt lat="24.927672" lon="102.412419">
<time>2016-04-06T09:39:59Z</time></trkpt>
<trkpt lat="24.927662" lon="102.412269">
<time>2016-04-06T09:40:00Z</time></trkpt>
<trkpt lat="24.927661" lon="102.412129">
<time>2016-04-06T09:40:01Z</time></trkpt>
<trkpt lat="24.927671" lon="102.411929">
<time>2016-04-06T09:40:02Z</time></trkpt>
<trkpt lat="24.927681" lon="102.411749">
<time>2016-04-06T09:40:03Z</time></trkpt>
<trkpt lat="24.927691" lon="102.411639">
<time>2016-04-06T09:40:04Z</time></trkpt>
<trkpt lat="24.927711" lon="102.411529">
<time>2016-04-06T09:40:05Z</time></trkpt>
<trkpt lat="24.927761" lon="102.411379">
<time>2016-04-06T09:40:06Z</time></trkpt>
<trkpt lat="24.927971" lon="102.410749">
<time>2016-04-06T09:40:07Z</time></trkpt>
<trkpt lat="24.928031" lon="102.410598">
<time>2016-04-06T09:40:08Z</time></trkpt>
<trkpt lat="24.92843" lon="102.409688">
<time>2016-04-06T09:40:09Z</time></trkpt>
<trkpt lat="24.92859" lon="102.409348">
<time>2016-04-06T09:40:10Z</time></trkpt>
<trkpt lat="24.92923" lon="102.408287">
<time>2016-04-06T09:40:11Z</time></trkpt>
<trkpt lat="24.9294" lon="102.407937">
<time>2016-04-06T09:40:12Z</time></trkpt>
<trkpt lat="24.929629" lon="102.407477">
<time>2016-04-06T09:40:13Z</time></trkpt>
<trkpt lat="24.929659" lon="102.407427">
<time>2016-04-06T09:40:14Z</time></trkpt>
<trkpt lat="24.929969" lon="102.406727">
<time>2016-04-06T09:40:15Z</time></trkpt>
<trkpt lat="24.930079" lon="102.406467">
<time>2016-04-06T09:40:16Z</time></trkpt>
<trkpt lat="24.930289" lon="102.405777">
<time>2016-04-06T09:40:17Z</time></trkpt>
<trkpt lat="24.930409" lon="102.405137">
<time>2016-04-06T09:40:18Z</time></trkpt>
<trkpt lat="24.930748" lon="102.403296">
<time>2016-04-06T09:40:19Z</time></trkpt>
<trkpt lat="24.930768" lon="102.403176">
<time>2016-04-06T09:40:20Z</time></trkpt>
<trkpt lat="24.931338" lon="102.399576">
<time>2016-04-06T09:40:21Z</time></trkpt>
<trkpt lat="24.931458" lon="102.398836">
<time>2016-04-06T09:40:22Z</time></trkpt>
<trkpt lat="24.931538" lon="102.398286">
<time>2016-04-06T09:40:23Z</time></trkpt>
<trkpt lat="24.931638" lon="102.397506">
<time>2016-04-06T09:40:24Z</time></trkpt>
<trkpt lat="24.931808" lon="102.396107">
<time>2016-04-06T09:40:25Z</time></trkpt>
<trkpt lat="24.931818" lon="102.396057">
<time>2016-04-06T09:40:26Z</time></trkpt>
<trkpt lat="24.931819" lon="102.395557">
<time>2016-04-06T09:40:27Z</time></trkpt>
<trkpt lat="24.931779" lon="102.395157">
<time>2016-04-06T09:40:28Z</time></trkpt>
<trkpt lat="24.931629" lon="102.394297">
<time>2016-04-06T09:40:29Z</time></trkpt>
<trkpt lat="24.93099" lon="102.391888">
<time>2016-04-06T09:40:30Z</time></trkpt>
<trkpt lat="24.93099" lon="102.391888">
<time>2016-04-06T09:40:31Z</time></trkpt>
<trkpt lat="24.930591" lon="102.38854">
<time>2016-04-06T09:40:32Z</time></trkpt>
<trkpt lat="24.930602" lon="102.38812">
<time>2016-04-06T09:40:33Z</time></trkpt>
<trkpt lat="24.930612" lon="102.38786">
<time>2016-04-06T09:40:34Z</time></trkpt>
<trkpt lat="24.930592" lon="102.38781">
<time>2016-04-06T09:40:35Z</time></trkpt>
<trkpt lat="24.930592" lon="102.38781">
<time>2016-04-06T09:40:36Z</time></trkpt>
<trkpt lat="24.930742" lon="102.38776">
<time>2016-04-06T09:40:37Z</time></trkpt>
<trkpt lat="24.930762" lon="102.38776">
<time>2016-04-06T09:40:38Z</time></trkpt>
<trkpt lat="24.931252" lon="102.38764">
<time>2016-04-06T09:40:39Z</time></trkpt>
<trkpt lat="24.931592" lon="102.38759">
<time>2016-04-06T09:40:40Z</time></trkpt>
<trkpt lat="24.931942" lon="102.38752">
<time>2016-04-06T09:40:41Z</time></trkpt>
<trkpt lat="24.932042" lon="102.3875">
<time>2016-04-06T09:40:42Z</time></trkpt>
<trkpt lat="24.932042" lon="102.3875">
<time>2016-04-06T09:40:43Z</time></trkpt>
<trkpt lat="24.932132" lon="102.38714">
<time>2016-04-06T09:40:44Z</time></trkpt>
<trkpt lat="24.932152" lon="102.38709">
<time>2016-04-06T09:40:45Z</time></trkpt>
<trkpt lat="24.932202" lon="102.386851">
<time>2016-04-06T09:40:46Z</time></trkpt>
<trkpt lat="24.932312" lon="102.386471">
<time>2016-04-06T09:40:47Z</time></trkpt>
<trkpt lat="24.932362" lon="102.386271">
<time>2016-04-06T09:40:48Z</time></trkpt>
<trkpt lat="24.932473" lon="102.385821">
<time>2016-04-06T09:40:49Z</time></trkpt>
<trkpt lat="24.932683" lon="102.385082">
<time>2016-04-06T09:40:50Z</time></trkpt>
<trkpt lat="24.932733" lon="102.384892">
<time>2016-04-06T09:40:51Z</time></trkpt>
<trkpt lat="24.932793" lon="102.384652">
<time>2016-04-06T09:40:52Z</time></trkpt>
<trkpt lat="24.932853" lon="102.384502">
<time>2016-04-06T09:40:53Z</time></trkpt>
<trkpt lat="24.933054" lon="102.383793">
<time>2016-04-06T09:40:54Z</time></trkpt>
<trkpt lat="24.933295" lon="102.382913">
<time>2016-04-06T09:40:55Z</time></trkpt>
<trkpt lat="24.933315" lon="102.382823">
<time>2016-04-06T09:40:56Z</time></trkpt>
<trkpt lat="24.933435" lon="102.382314">
<time>2016-04-06T09:40:57Z</time></trkpt>
<trkpt lat="24.933575" lon="102.381854">
<time>2016-04-06T09:40:58Z</time></trkpt>
<trkpt lat="24.933656" lon="102.381554">
<time>2016-04-06T09:40:59Z</time></trkpt>
<trkpt lat="24.933746" lon="102.381235">
<time>2016-04-06T09:41:00Z</time></trkpt>
<trkpt lat="24.933816" lon="102.380995">
<time>2016-04-06T09:41:01Z</time></trkpt>
<trkpt lat="24.933876" lon="102.380745">
<time>2016-04-06T09:41:02Z</time></trkpt>
<trkpt lat="24.933956" lon="102.380465">
<time>2016-04-06T09:41:03Z</time></trkpt>
<trkpt lat="24.934006" lon="102.380285">
<time>2016-04-06T09:41:04Z</time></trkpt>
<trkpt lat="24.934087" lon="102.380066">
<time>2016-04-06T09:41:05Z</time></trkpt>
<trkpt lat="24.934207" lon="102.379676">
<time>2016-04-06T09:41:06Z</time></trkpt>
<trkpt lat="24.934287" lon="102.379456">
<time>2016-04-06T09:41:07Z</time></trkpt>
<trkpt lat="24.934477" lon="102.379057">
<time>2016-04-06T09:41:08Z</time></trkpt>
<trkpt lat="24.934648" lon="102.378727">
<time>2016-04-06T09:41:09Z</time></trkpt>
<trkpt lat="24.934668" lon="102.378707">
<time>2016-04-06T09:41:10Z</time></trkpt>
<trkpt lat="24.934788" lon="102.378527">
<time>2016-04-06T09:41:11Z</time></trkpt>
<trkpt lat="24.934898" lon="102.378367">
<time>2016-04-06T09:41:12Z</time></trkpt>
<trkpt lat="24.934998" lon="102.378227">
<time>2016-04-06T09:41:13Z</time></trkpt>
<trkpt lat="24.935068" lon="102.378137">
<time>2016-04-06T09:41:14Z</time></trkpt>
<trkpt lat="24.935208" lon="102.377958">
<time>2016-04-06T09:41:15Z</time></trkpt>
<trkpt lat="24.935339" lon="102.377778">
<time>2016-04-06T09:41:16Z</time></trkpt>
<trkpt lat="24.935459" lon="102.377628">
<time>2016-04-06T09:41:17Z</time></trkpt>
<trkpt lat="24.935539" lon="102.377528">
<time>2016-04-06T09:41:18Z</time></trkpt>
<trkpt lat="24.935609" lon="102.377438">
<time>2016-04-06T09:41:19Z</time></trkpt>
<trkpt lat="24.935669" lon="102.377368">
<time>2016-04-06T09:41:20Z</time></trkpt>
<trkpt lat="24.935739" lon="102.377268">
<time>2016-04-06T09:41:21Z</time></trkpt>
<trkpt lat="24.935829" lon="102.377178">
<time>2016-04-06T09:41:22Z</time></trkpt>
<trkpt lat="24.935899" lon="102.377098">
<time>2016-04-06T09:41:23Z</time></trkpt>
<trkpt lat="24.935969" lon="102.377029">
<time>2016-04-06T09:41:24Z</time></trkpt>
<trkpt lat="24.936029" lon="102.376979">
<time>2016-04-06T09:41:25Z</time></trkpt>
<trkpt lat="24.936079" lon="102.376939">
<time>2016-04-06T09:41:26Z</time></trkpt>
<trkpt lat="24.936129" lon="102.376899">
<time>2016-04-06T09:41:27Z</time></trkpt>
<trkpt lat="24.936209" lon="102.376839">
<time>2016-04-06T09:41:28Z</time></trkpt>
<trkpt lat="24.936299" lon="102.376789">
<time>2016-04-06T09:41:29Z</time></trkpt>
<trkpt lat="24.936479" lon="102.376679">
<time>2016-04-06T09:41:30Z</time></trkpt>
<trkpt lat="24.936569" lon="102.376629">
<time>2016-04-06T09:41:31Z</time></trkpt>
<trkpt lat="24.936629" lon="102.376609">
<time>2016-04-06T09:41:32Z</time></trkpt>
<trkpt lat="24.936729" lon="102.376569">
<time>2016-04-06T09:41:33Z</time></trkpt>
<trkpt lat="24.93681" lon="102.376539">
<time>2016-04-06T09:41:34Z</time></trkpt>
<trkpt lat="24.93691" lon="102.376499">
<time>2016-04-06T09:41:35Z</time></trkpt>
<trkpt lat="24.93696" lon="102.376479">
<time>2016-04-06T09:41:36Z</time></trkpt>
<trkpt lat="24.93701" lon="102.376469">
<time>2016-04-06T09:41:37Z</time></trkpt>
<trkpt lat="24.93715" lon="102.376419">
<time>2016-04-06T09:41:38Z</time></trkpt>
<trkpt lat="24.93727" lon="102.376379">
<time>2016-04-06T09:41:39Z</time></trkpt>
<trkpt lat="24.93737" lon="102.376349">
<time>2016-04-06T09:41:40Z</time></trkpt>
<trkpt lat="24.93739" lon="102.376339">
<time>2016-04-06T09:41:41Z</time></trkpt>
<trkpt lat="24.93765" lon="102.376259">
<time>2016-04-06T09:41:42Z</time></trkpt>
<trkpt lat="24.93788" lon="102.376169">
<time>2016-04-06T09:41:43Z</time></trkpt>
<trkpt lat="24.938" lon="102.376139">
<time>2016-04-06T09:41:44Z</time></trkpt>
<trkpt lat="24.93812" lon="102.376099">
<time>2016-04-06T09:41:45Z</time></trkpt>
<trkpt lat="24.93831" lon="102.37604">
<time>2016-04-06T09:41:46Z</time></trkpt>
<trkpt lat="24.93847" lon="102.37598">
<time>2016-04-06T09:41:47Z</time></trkpt>
<trkpt lat="24.93864" lon="102.3759">
<time>2016-04-06T09:41:48Z</time></trkpt>
<trkpt lat="24.93876" lon="102.37584">
<time>2016-04-06T09:41:49Z</time></trkpt>
<trkpt lat="24.93887" lon="102.37577">
<time>2016-04-06T09:41:50Z</time></trkpt>
<trkpt lat="24.93894" lon="102.37573">
<time>2016-04-06T09:41:51Z</time></trkpt>
<trkpt lat="24.93899" lon="102.37569">
<time>2016-04-06T09:41:52Z</time></trkpt>
<trkpt lat="24.93904" lon="102.37565">
<time>2016-04-06T09:41:53Z</time></trkpt>
<trkpt lat="24.93909" lon="102.37561">
<time>2016-04-06T09:41:54Z</time></trkpt>
<trkpt lat="24.93913" lon="102.37557">
<time>2016-04-06T09:41:55Z</time></trkpt>
<trkpt lat="24.93917" lon="102.37553">
<time>2016-04-06T09:41:56Z</time></trkpt>
<trkpt lat="24.93921" lon="102.37549">
<time>2016-04-06T09:41:57Z</time></trkpt>
<trkpt lat="24.93925" lon="102.37544">
<time>2016-04-06T09:41:58Z</time></trkpt>
<trkpt lat="24.9393" lon="102.37538">
<time>2016-04-06T09:41:59Z</time></trkpt>
<trkpt lat="24.93936" lon="102.3753">
<time>2016-04-06T09:42:00Z</time></trkpt>
<trkpt lat="24.9394" lon="102.37524">
<time>2016-04-06T09:42:01Z</time></trkpt>
<trkpt lat="24.93941" lon="102.37522">
<time>2016-04-06T09:42:02Z</time></trkpt>
<trkpt lat="24.939431" lon="102.37518">
<time>2016-04-06T09:42:03Z</time></trkpt>
<trkpt lat="24.939471" lon="102.37512">
<time>2016-04-06T09:42:04Z</time></trkpt>
<trkpt lat="24.939491" lon="102.375061">
<time>2016-04-06T09:42:05Z</time></trkpt>
<trkpt lat="24.939511" lon="102.375011">
<time>2016-04-06T09:42:06Z</time></trkpt>
<trkpt lat="24.939541" lon="102.374951">
<time>2016-04-06T09:42:07Z</time></trkpt>
<trkpt lat="24.939591" lon="102.374841">
<time>2016-04-06T09:42:08Z</time></trkpt>
<trkpt lat="24.939651" lon="102.374671">
<time>2016-04-06T09:42:09Z</time></trkpt>
<trkpt lat="24.939711" lon="102.374531">
<time>2016-04-06T09:42:10Z</time></trkpt>
<trkpt lat="24.939751" lon="102.374401">
<time>2016-04-06T09:42:11Z</time></trkpt>
<trkpt lat="24.939852" lon="102.374112">
<time>2016-04-06T09:42:12Z</time></trkpt>
<trkpt lat="24.939972" lon="102.373772">
<time>2016-04-06T09:42:13Z</time></trkpt>
<trkpt lat="24.940032" lon="102.373592">
<time>2016-04-06T09:42:14Z</time></trkpt>
<trkpt lat="24.940082" lon="102.373412">
<time>2016-04-06T09:42:15Z</time></trkpt>
<trkpt lat="24.940213" lon="102.373003">
<time>2016-04-06T09:42:16Z</time></trkpt>
<trkpt lat="24.940263" lon="102.372873">
<time>2016-04-06T09:42:17Z</time></trkpt>
<trkpt lat="24.940343" lon="102.372663">
<time>2016-04-06T09:42:18Z</time></trkpt>
<trkpt lat="24.940413" lon="102.372493">
<time>2016-04-06T09:42:19Z</time></trkpt>
<trkpt lat="24.940554" lon="102.372174">
<time>2016-04-06T09:42:20Z</time></trkpt>
<trkpt lat="24.940624" lon="102.372034">
<time>2016-04-06T09:42:21Z</time></trkpt>
<trkpt lat="24.940684" lon="102.371924">
<time>2016-04-06T09:42:22Z</time></trkpt>
<trkpt lat="24.940984" lon="102.371445">
<time>2016-04-06T09:42:23Z</time></trkpt>
<trkpt lat="24.941095" lon="102.371255">
<time>2016-04-06T09:42:24Z</time></trkpt>
<trkpt lat="24.941225" lon="102.371045">
<time>2016-04-06T09:42:25Z</time></trkpt>
<trkpt lat="24.941365" lon="102.370825">
<time>2016-04-06T09:42:26Z</time></trkpt>
<trkpt lat="24.941636" lon="102.370386">
<time>2016-04-06T09:42:27Z</time></trkpt>
<trkpt lat="24.941896" lon="102.369976">
<time>2016-04-06T09:42:28Z</time></trkpt>
<trkpt lat="24.942066" lon="102.369707">
<time>2016-04-06T09:42:29Z</time></trkpt>
<trkpt lat="24.942096" lon="102.369657">
<time>2016-04-06T09:42:30Z</time></trkpt>
<trkpt lat="24.942377" lon="102.369217">
<time>2016-04-06T09:42:31Z</time></trkpt>
<trkpt lat="24.942637" lon="102.368828">
<time>2016-04-06T09:42:32Z</time></trkpt>
<trkpt lat="24.942717" lon="102.368698">
<time>2016-04-06T09:42:33Z</time></trkpt>
<trkpt lat="24.942808" lon="102.368578">
<time>2016-04-06T09:42:34Z</time></trkpt>
<trkpt lat="24.942918" lon="102.368438">
<time>2016-04-06T09:42:35Z</time></trkpt>
<trkpt lat="24.943008" lon="102.368319">
<time>2016-04-06T09:42:36Z</time></trkpt>
<trkpt lat="24.943068" lon="102.368239">
<time>2016-04-06T09:42:37Z</time></trkpt>
<trkpt lat="24.943148" lon="102.368149">
<time>2016-04-06T09:42:38Z</time></trkpt>
<trkpt lat="24.943248" lon="102.368049">
<time>2016-04-06T09:42:39Z</time></trkpt>
<trkpt lat="24.943318" lon="102.367969">
<time>2016-04-06T09:42:40Z</time></trkpt>
<trkpt lat="24.943388" lon="102.367899">
<time>2016-04-06T09:42:41Z</time></trkpt>
<trkpt lat="24.943458" lon="102.367809">
<time>2016-04-06T09:42:42Z</time></trkpt>
<trkpt lat="24.943589" lon="102.367659">
<time>2016-04-06T09:42:43Z</time></trkpt>
<trkpt lat="24.943709" lon="102.36753">
<time>2016-04-06T09:42:44Z</time></trkpt>
<trkpt lat="24.943809" lon="102.36742">
<time>2016-04-06T09:42:45Z</time></trkpt>
<trkpt lat="24.943919" lon="102.3673">
<time>2016-04-06T09:42:46Z</time></trkpt>
<trkpt lat="24.944059" lon="102.36715">
<time>2016-04-06T09:42:47Z</time></trkpt>
<trkpt lat="24.944169" lon="102.36703">
<time>2016-04-06T09:42:48Z</time></trkpt>
<trkpt lat="24.944299" lon="102.3669">
<time>2016-04-06T09:42:49Z</time></trkpt>
<trkpt lat="24.94443" lon="102.366761">
<time>2016-04-06T09:42:50Z</time></trkpt>
<trkpt lat="24.94449" lon="102.366691">
<time>2016-04-06T09:42:51Z</time></trkpt>
<trkpt lat="24.94464" lon="102.366541">
<time>2016-04-06T09:42:52Z</time></trkpt>
<trkpt lat="24.94472" lon="102.366451">
<time>2016-04-06T09:42:53Z</time></trkpt>
<trkpt lat="24.94481" lon="102.366351">
<time>2016-04-06T09:42:54Z</time></trkpt>
<trkpt lat="24.94488" lon="102.366251">
<time>2016-04-06T09:42:55Z</time></trkpt>
<trkpt lat="24.94503" lon="102.366092">
<time>2016-04-06T09:42:56Z</time></trkpt>
<trkpt lat="24.945161" lon="102.365952">
<time>2016-04-06T09:42:57Z</time></trkpt>
<trkpt lat="24.945241" lon="102.365872">
<time>2016-04-06T09:42:58Z</time></trkpt>
<trkpt lat="24.945371" lon="102.365722">
<time>2016-04-06T09:42:59Z</time></trkpt>
<trkpt lat="24.945651" lon="102.365442">
<time>2016-04-06T09:43:00Z</time></trkpt>
<trkpt lat="24.945821" lon="102.365253">
<time>2016-04-06T09:43:01Z</time></trkpt>
<trkpt lat="24.945912" lon="102.365143">
<time>2016-04-06T09:43:02Z</time></trkpt>
<trkpt lat="24.946022" lon="102.365033">
<time>2016-04-06T09:43:03Z</time></trkpt>
<trkpt lat="24.946102" lon="102.364943">
<time>2016-04-06T09:43:04Z</time></trkpt>
<trkpt lat="24.946172" lon="102.364863">
<time>2016-04-06T09:43:05Z</time></trkpt>
<trkpt lat="24.946252" lon="102.364773">
<time>2016-04-06T09:43:06Z</time></trkpt>
<trkpt lat="24.946342" lon="102.364674">
<time>2016-04-06T09:43:07Z</time></trkpt>
<trkpt lat="24.946442" lon="102.364554">
<time>2016-04-06T09:43:08Z</time></trkpt>
<trkpt lat="24.946593" lon="102.364384">
<time>2016-04-06T09:43:09Z</time></trkpt>
<trkpt lat="24.946713" lon="102.364254">
<time>2016-04-06T09:43:10Z</time></trkpt>
<trkpt lat="24.947604" lon="102.363355">
<time>2016-04-06T09:43:11Z</time></trkpt>
<trkpt lat="24.947644" lon="102.363335">
<time>2016-04-06T09:43:12Z</time></trkpt>
<trkpt lat="24.947774" lon="102.363256">
<time>2016-04-06T09:43:13Z</time></trkpt>
<trkpt lat="24.947894" lon="102.363186">
<time>2016-04-06T09:43:14Z</time></trkpt>
<trkpt lat="24.948014" lon="102.363136">
<time>2016-04-06T09:43:15Z</time></trkpt>
<trkpt lat="24.948134" lon="102.363076">
<time>2016-04-06T09:43:16Z</time></trkpt>
<trkpt lat="24.948244" lon="102.363036">
<time>2016-04-06T09:43:17Z</time></trkpt>
<trkpt lat="24.948344" lon="102.362996">
<time>2016-04-06T09:43:18Z</time></trkpt>
<trkpt lat="24.948464" lon="102.362966">
<time>2016-04-06T09:43:19Z</time></trkpt>
<trkpt lat="24.948634" lon="102.362916">
<time>2016-04-06T09:43:20Z</time></trkpt>
<trkpt lat="24.948744" lon="102.362896">
<time>2016-04-06T09:43:21Z</time></trkpt>
<trkpt lat="24.948824" lon="102.362876">
<time>2016-04-06T09:43:22Z</time></trkpt>
<trkpt lat="24.949164" lon="102.362796">
<time>2016-04-06T09:43:23Z</time></trkpt>
<trkpt lat="24.949434" lon="102.362736">
<time>2016-04-06T09:43:24Z</time></trkpt>
<trkpt lat="24.949524" lon="102.362716">
<time>2016-04-06T09:43:25Z</time></trkpt>
<trkpt lat="24.949815" lon="102.362656">
<time>2016-04-06T09:43:26Z</time></trkpt>
<trkpt lat="24.950085" lon="102.362606">
<time>2016-04-06T09:43:27Z</time></trkpt>
<trkpt lat="24.950385" lon="102.362547">
<time>2016-04-06T09:43:28Z</time></trkpt>
<trkpt lat="24.950515" lon="102.362507">
<time>2016-04-06T09:43:29Z</time></trkpt>
<trkpt lat="24.950645" lon="102.362447">
<time>2016-04-06T09:43:30Z</time></trkpt>
<trkpt lat="24.950745" lon="102.362397">
<time>2016-04-06T09:43:31Z</time></trkpt>
<trkpt lat="24.950835" lon="102.362337">
<time>2016-04-06T09:43:32Z</time></trkpt>
<trkpt lat="24.950905" lon="102.362277">
<time>2016-04-06T09:43:33Z</time></trkpt>
<trkpt lat="24.950975" lon="102.362217">
<time>2016-04-06T09:43:34Z</time></trkpt>
<trkpt lat="24.951035" lon="102.362157">
<time>2016-04-06T09:43:35Z</time></trkpt>
<trkpt lat="24.951105" lon="102.362057">
<time>2016-04-06T09:43:36Z</time></trkpt>
<trkpt lat="24.951165" lon="102.361957">
<time>2016-04-06T09:43:37Z</time></trkpt>
<trkpt lat="24.951205" lon="102.361858">
<time>2016-04-06T09:43:38Z</time></trkpt>
<trkpt lat="24.951246" lon="102.361728">
<time>2016-04-06T09:43:39Z</time></trkpt>
<trkpt lat="24.951266" lon="102.361588">
<time>2016-04-06T09:43:40Z</time></trkpt>
<trkpt lat="24.951296" lon="102.361458">
<time>2016-04-06T09:43:41Z</time></trkpt>
<trkpt lat="24.951336" lon="102.361169">
<time>2016-04-06T09:43:42Z</time></trkpt>
<trkpt lat="24.951448" lon="102.36001">
<time>2016-04-06T09:43:43Z</time></trkpt>
<trkpt lat="24.951478" lon="102.359881">
<time>2016-04-06T09:43:44Z</time></trkpt>
<trkpt lat="24.951509" lon="102.359721">
<time>2016-04-06T09:43:45Z</time></trkpt>
<trkpt lat="24.951559" lon="102.359581">
<time>2016-04-06T09:43:46Z</time></trkpt>
<trkpt lat="24.951609" lon="102.359481">
<time>2016-04-06T09:43:47Z</time></trkpt>
<trkpt lat="24.951659" lon="102.359411">
<time>2016-04-06T09:43:48Z</time></trkpt>
<trkpt lat="24.951709" lon="102.359341">
<time>2016-04-06T09:43:49Z</time></trkpt>
<trkpt lat="24.951809" lon="102.359242">
<time>2016-04-06T09:43:50Z</time></trkpt>
<trkpt lat="24.951949" lon="102.359082">
<time>2016-04-06T09:43:51Z</time></trkpt>
<trkpt lat="24.95216" lon="102.358842">
<time>2016-04-06T09:43:52Z</time></trkpt>
<trkpt lat="24.95227" lon="102.358722">
<time>2016-04-06T09:43:53Z</time></trkpt>
<trkpt lat="24.95235" lon="102.358633">
<time>2016-04-06T09:43:54Z</time></trkpt>
<trkpt lat="24.95242" lon="102.358513">
<time>2016-04-06T09:43:55Z</time></trkpt>
<trkpt lat="24.95248" lon="102.358413">
<time>2016-04-06T09:43:56Z</time></trkpt>
<trkpt lat="24.952541" lon="102.358303">
<time>2016-04-06T09:43:57Z</time></trkpt>
<trkpt lat="24.952601" lon="102.358173">
<time>2016-04-06T09:43:58Z</time></trkpt>
<trkpt lat="24.952691" lon="102.357954">
<time>2016-04-06T09:43:59Z</time></trkpt>
<trkpt lat="24.952791" lon="102.357664">
<time>2016-04-06T09:44:00Z</time></trkpt>
<trkpt lat="24.952892" lon="102.357395">
<time>2016-04-06T09:44:01Z</time></trkpt>
<trkpt lat="24.952902" lon="102.357375">
<time>2016-04-06T09:44:02Z</time></trkpt>
<trkpt lat="24.953002" lon="102.357165">
<time>2016-04-06T09:44:03Z</time></trkpt>
<trkpt lat="24.953092" lon="102.357015">
<time>2016-04-06T09:44:04Z</time></trkpt>
<trkpt lat="24.953173" lon="102.356895">
<time>2016-04-06T09:44:05Z</time></trkpt>
<trkpt lat="24.953263" lon="102.356776">
<time>2016-04-06T09:44:06Z</time></trkpt>
<trkpt lat="24.953363" lon="102.356676">
<time>2016-04-06T09:44:07Z</time></trkpt>
<trkpt lat="24.953483" lon="102.356576">
<time>2016-04-06T09:44:08Z</time></trkpt>
<trkpt lat="24.953563" lon="102.356496">
<time>2016-04-06T09:44:09Z</time></trkpt>
<trkpt lat="24.953723" lon="102.356366">
<time>2016-04-06T09:44:10Z</time></trkpt>
<trkpt lat="24.953954" lon="102.356177">
<time>2016-04-06T09:44:11Z</time></trkpt>
<trkpt lat="24.954144" lon="102.356037">
<time>2016-04-06T09:44:12Z</time></trkpt>
<trkpt lat="24.954454" lon="102.355787">
<time>2016-04-06T09:44:13Z</time></trkpt>
<trkpt lat="24.954694" lon="102.355598">
<time>2016-04-06T09:44:14Z</time></trkpt>
<trkpt lat="24.954875" lon="102.355458">
<time>2016-04-06T09:44:15Z</time></trkpt>
<trkpt lat="24.954975" lon="102.355378">
<time>2016-04-06T09:44:16Z</time></trkpt>
<trkpt lat="24.955125" lon="102.355248">
<time>2016-04-06T09:44:17Z</time></trkpt>
<trkpt lat="24.955315" lon="102.355098">
<time>2016-04-06T09:44:18Z</time></trkpt>
<trkpt lat="24.955505" lon="102.354949">
<time>2016-04-06T09:44:19Z</time></trkpt>
<trkpt lat="24.955636" lon="102.354819">
<time>2016-04-06T09:44:20Z</time></trkpt>
<trkpt lat="24.955786" lon="102.354679">
<time>2016-04-06T09:44:21Z</time></trkpt>
<trkpt lat="24.955916" lon="102.354549">
<time>2016-04-06T09:44:22Z</time></trkpt>
<trkpt lat="24.956036" lon="102.354449">
<time>2016-04-06T09:44:23Z</time></trkpt>
<trkpt lat="24.956066" lon="102.3544">
<time>2016-04-06T09:44:24Z</time></trkpt>
<trkpt lat="24.956136" lon="102.35432">
<time>2016-04-06T09:44:25Z</time></trkpt>
<trkpt lat="24.956256" lon="102.35422">
<time>2016-04-06T09:44:26Z</time></trkpt>
<trkpt lat="24.956337" lon="102.35414">
<time>2016-04-06T09:44:27Z</time></trkpt>
<trkpt lat="24.956467" lon="102.35399">
<time>2016-04-06T09:44:28Z</time></trkpt>
<trkpt lat="24.956747" lon="102.353701">
<time>2016-04-06T09:44:29Z</time></trkpt>
<trkpt lat="24.957038" lon="102.353391">
<time>2016-04-06T09:44:30Z</time></trkpt>
<trkpt lat="24.957248" lon="102.353142">
<time>2016-04-06T09:44:31Z</time></trkpt>
<trkpt lat="24.957438" lon="102.352912">
<time>2016-04-06T09:44:32Z</time></trkpt>
<trkpt lat="24.957469" lon="102.352862">
<time>2016-04-06T09:44:33Z</time></trkpt>
<trkpt lat="24.957599" lon="102.352682">
<time>2016-04-06T09:44:34Z</time></trkpt>
<trkpt lat="24.957759" lon="102.352463">
<time>2016-04-06T09:44:35Z</time></trkpt>
<trkpt lat="24.957899" lon="102.352243">
<time>2016-04-06T09:44:36Z</time></trkpt>
<trkpt lat="24.95812" lon="102.351884">
<time>2016-04-06T09:44:37Z</time></trkpt>
<trkpt lat="24.958351" lon="102.351554">
<time>2016-04-06T09:44:38Z</time></trkpt>
<trkpt lat="24.958641" lon="102.351155">
<time>2016-04-06T09:44:39Z</time></trkpt>
<trkpt lat="24.958872" lon="102.350836">
<time>2016-04-06T09:44:40Z</time></trkpt>
<trkpt lat="24.959182" lon="102.350386">
<time>2016-04-06T09:44:41Z</time></trkpt>
<trkpt lat="24.959593" lon="102.349827">
<time>2016-04-06T09:44:42Z</time></trkpt>
<trkpt lat="24.959854" lon="102.349498">
<time>2016-04-06T09:44:43Z</time></trkpt>
<trkpt lat="24.959854" lon="102.349488">
<time>2016-04-06T09:44:44Z</time></trkpt>
<trkpt lat="24.960074" lon="102.349199">
<time>2016-04-06T09:44:45Z</time></trkpt>
<trkpt lat="24.960255" lon="102.348949">
<time>2016-04-06T09:44:46Z</time></trkpt>
<trkpt lat="24.960275" lon="102.348919">
<time>2016-04-06T09:44:47Z</time></trkpt>
<trkpt lat="24.960295" lon="102.348879">
<time>2016-04-06T09:44:48Z</time></trkpt>
<trkpt lat="24.960335" lon="102.348809">
<time>2016-04-06T09:44:49Z</time></trkpt>
<trkpt lat="24.960445" lon="102.34866">
<time>2016-04-06T09:44:50Z</time></trkpt>
<trkpt lat="24.960566" lon="102.34847">
<time>2016-04-06T09:44:51Z</time></trkpt>
<trkpt lat="24.960816" lon="102.348011">
<time>2016-04-06T09:44:52Z</time></trkpt>
<trkpt lat="24.960927" lon="102.347821">
<time>2016-04-06T09:44:53Z</time></trkpt>
<trkpt lat="24.961007" lon="102.347701">
<time>2016-04-06T09:44:54Z</time></trkpt>
<trkpt lat="24.961107" lon="102.347502">
<time>2016-04-06T09:44:55Z</time></trkpt>
<trkpt lat="24.961137" lon="102.347462">
<time>2016-04-06T09:44:56Z</time></trkpt>
<trkpt lat="24.961258" lon="102.347242">
<time>2016-04-06T09:44:57Z</time></trkpt>
<trkpt lat="24.961358" lon="102.347072">
<time>2016-04-06T09:44:58Z</time></trkpt>
<trkpt lat="24.961538" lon="102.346793">
<time>2016-04-06T09:44:59Z</time></trkpt>
<trkpt lat="24.961639" lon="102.346643">
<time>2016-04-06T09:45:00Z</time></trkpt>
<trkpt lat="24.961749" lon="102.346523">
<time>2016-04-06T09:45:01Z</time></trkpt>
<trkpt lat="24.961839" lon="102.346434">
<time>2016-04-06T09:45:02Z</time></trkpt>
<trkpt lat="24.961959" lon="102.346324">
<time>2016-04-06T09:45:03Z</time></trkpt>
<trkpt lat="24.962079" lon="102.346234">
<time>2016-04-06T09:45:04Z</time></trkpt>
<trkpt lat="24.962289" lon="102.346094">
<time>2016-04-06T09:45:05Z</time></trkpt>
<trkpt lat="24.962309" lon="102.346084">
<time>2016-04-06T09:45:06Z</time></trkpt>
<trkpt lat="24.96239" lon="102.346034">
<time>2016-04-06T09:45:07Z</time></trkpt>
<trkpt lat="24.9625" lon="102.345964">
<time>2016-04-06T09:45:08Z</time></trkpt>
<trkpt lat="24.96264" lon="102.345885">
<time>2016-04-06T09:45:09Z</time></trkpt>
<trkpt lat="24.96279" lon="102.345795">
<time>2016-04-06T09:45:10Z</time></trkpt>
<trkpt lat="24.96289" lon="102.345725">
<time>2016-04-06T09:45:11Z</time></trkpt>
<trkpt lat="24.96295" lon="102.345675">
<time>2016-04-06T09:45:12Z</time></trkpt>
<trkpt lat="24.96302" lon="102.345615">
<time>2016-04-06T09:45:13Z</time></trkpt>
<trkpt lat="24.96304" lon="102.345595">
<time>2016-04-06T09:45:14Z</time></trkpt>
<trkpt lat="24.96305" lon="102.345585">
<time>2016-04-06T09:45:15Z</time></trkpt>
<trkpt lat="24.96309" lon="102.345535">
<time>2016-04-06T09:45:16Z</time></trkpt>
<trkpt lat="24.96315" lon="102.345455">
<time>2016-04-06T09:45:17Z</time></trkpt>
<trkpt lat="24.963191" lon="102.345386">
<time>2016-04-06T09:45:18Z</time></trkpt>
<trkpt lat="24.963251" lon="102.345276">
<time>2016-04-06T09:45:19Z</time></trkpt>
<trkpt lat="24.963291" lon="102.345186">
<time>2016-04-06T09:45:20Z</time></trkpt>
<trkpt lat="24.963341" lon="102.345056">
<time>2016-04-06T09:45:21Z</time></trkpt>
<trkpt lat="24.963371" lon="102.344886">
<time>2016-04-06T09:45:22Z</time></trkpt>
<trkpt lat="24.963382" lon="102.344687">
<time>2016-04-06T09:45:23Z</time></trkpt>
<trkpt lat="24.963392" lon="102.344417">
<time>2016-04-06T09:45:24Z</time></trkpt>
<trkpt lat="24.963403" lon="102.344118">
<time>2016-04-06T09:45:25Z</time></trkpt>
<trkpt lat="24.963433" lon="102.343888">
<time>2016-04-06T09:45:26Z</time></trkpt>
<trkpt lat="24.963494" lon="102.343629">
<time>2016-04-06T09:45:27Z</time></trkpt>
<trkpt lat="24.963574" lon="102.343309">
<time>2016-04-06T09:45:28Z</time></trkpt>
<trkpt lat="24.963675" lon="102.34299">
<time>2016-04-06T09:45:29Z</time></trkpt>
<trkpt lat="24.963775" lon="102.342711">
<time>2016-04-06T09:45:30Z</time></trkpt>
<trkpt lat="24.963836" lon="102.342561">
<time>2016-04-06T09:45:31Z</time></trkpt>
<trkpt lat="24.963896" lon="102.342441">
<time>2016-04-06T09:45:32Z</time></trkpt>
<trkpt lat="24.963996" lon="102.342321">
<time>2016-04-06T09:45:33Z</time></trkpt>
<trkpt lat="24.964076" lon="102.342232">
<time>2016-04-06T09:45:34Z</time></trkpt>
<trkpt lat="24.964176" lon="102.342142">
<time>2016-04-06T09:45:35Z</time></trkpt>
<trkpt lat="24.964376" lon="102.342032">
<time>2016-04-06T09:45:36Z</time></trkpt>
<trkpt lat="24.964667" lon="102.341892">
<time>2016-04-06T09:45:37Z</time></trkpt>
<trkpt lat="24.964877" lon="102.341772">
<time>2016-04-06T09:45:38Z</time></trkpt>
<trkpt lat="24.964957" lon="102.341722">
<time>2016-04-06T09:45:39Z</time></trkpt>
<trkpt lat="24.965037" lon="102.341643">
<time>2016-04-06T09:45:40Z</time></trkpt>
<trkpt lat="24.965107" lon="102.341563">
<time>2016-04-06T09:45:41Z</time></trkpt>
<trkpt lat="24.965157" lon="102.341473">
<time>2016-04-06T09:45:42Z</time></trkpt>
<trkpt lat="24.965198" lon="102.341393">
<time>2016-04-06T09:45:43Z</time></trkpt>
<trkpt lat="24.965238" lon="102.341273">
<time>2016-04-06T09:45:44Z</time></trkpt>
<trkpt lat="24.965258" lon="102.341213">
<time>2016-04-06T09:45:45Z</time></trkpt>
<trkpt lat="24.965288" lon="102.341114">
<time>2016-04-06T09:45:46Z</time></trkpt>
<trkpt lat="24.965338" lon="102.340884">
<time>2016-04-06T09:45:47Z</time></trkpt>
<trkpt lat="24.965419" lon="102.340575">
<time>2016-04-06T09:45:48Z</time></trkpt>
<trkpt lat="24.965479" lon="102.340355">
<time>2016-04-06T09:45:49Z</time></trkpt>
<trkpt lat="24.96554" lon="102.340175">
<time>2016-04-06T09:45:50Z</time></trkpt>
<trkpt lat="24.96561" lon="102.340016">
<time>2016-04-06T09:45:51Z</time></trkpt>
<trkpt lat="24.965761" lon="102.339696">
<time>2016-04-06T09:45:52Z</time></trkpt>
<trkpt lat="24.965791" lon="102.339627">
<time>2016-04-06T09:45:53Z</time></trkpt>
<trkpt lat="24.965791" lon="102.339627">
<time>2016-04-06T09:45:54Z</time></trkpt>
<trkpt lat="24.965532" lon="102.338738">
<time>2016-04-06T09:45:55Z</time></trkpt>
<trkpt lat="24.965605" lon="102.337461">
<time>2016-04-06T09:45:56Z</time></trkpt>
<trkpt lat="24.965446" lon="102.336543">
<time>2016-04-06T09:45:57Z</time></trkpt>
<trkpt lat="24.96405" lon="102.334596">
<time>2016-04-06T09:45:58Z</time></trkpt>
<trkpt lat="24.963912" lon="102.333978">
<time>2016-04-06T09:45:59Z</time></trkpt>
<trkpt lat="24.964036" lon="102.331862">
<time>2016-04-06T09:46:00Z</time></trkpt>
<trkpt lat="24.964146" lon="102.331652">
<time>2016-04-06T09:46:01Z</time></trkpt>
<trkpt lat="24.964417" lon="102.331163">
<time>2016-04-06T09:46:02Z</time></trkpt>
<trkpt lat="24.964417" lon="102.331153">
<time>2016-04-06T09:46:03Z</time></trkpt>
<trkpt lat="24.964427" lon="102.331143">
<time>2016-04-06T09:46:04Z</time></trkpt>
<trkpt lat="24.964437" lon="102.331133">
<time>2016-04-06T09:46:05Z</time></trkpt>
<trkpt lat="24.964447" lon="102.331123">
<time>2016-04-06T09:46:06Z</time></trkpt>
<trkpt lat="24.964457" lon="102.331123">
<time>2016-04-06T09:46:07Z</time></trkpt>
<trkpt lat="24.964497" lon="102.331123">
<time>2016-04-06T09:46:08Z</time></trkpt>
<trkpt lat="24.964497" lon="102.331123">
<time>2016-04-06T09:46:09Z</time></trkpt>
<trkpt lat="24.964517" lon="102.331054">
<time>2016-04-06T09:46:10Z</time></trkpt>
<trkpt lat="24.964557" lon="102.330884">
<time>2016-04-06T09:46:11Z</time></trkpt>
<trkpt lat="24.964638" lon="102.330535">
<time>2016-04-06T09:46:12Z</time></trkpt>
<trkpt lat="24.96485" lon="102.329626">
<time>2016-04-06T09:46:13Z</time></trkpt>
<trkpt lat="24.965011" lon="102.328958">
<time>2016-04-06T09:46:14Z</time></trkpt>
<trkpt lat="24.965172" lon="102.328269">
<time>2016-04-06T09:46:15Z</time></trkpt>
<trkpt lat="24.965283" lon="102.3278">
<time>2016-04-06T09:46:16Z</time></trkpt>
<trkpt lat="24.965384" lon="102.327371">
<time>2016-04-06T09:46:17Z</time></trkpt>
<trkpt lat="24.965454" lon="102.327072">
<time>2016-04-06T09:46:18Z</time></trkpt>
<trkpt lat="24.965525" lon="102.326762">
<time>2016-04-06T09:46:19Z</time></trkpt>
<trkpt lat="24.965676" lon="102.326183">
<time>2016-04-06T09:46:20Z</time></trkpt>
<trkpt lat="24.965727" lon="102.325904">
<time>2016-04-06T09:46:21Z</time></trkpt>
<trkpt lat="24.965827" lon="102.325535">
<time>2016-04-06T09:46:22Z</time></trkpt>
<trkpt lat="24.965858" lon="102.325415">
<time>2016-04-06T09:46:23Z</time></trkpt>
<trkpt lat="24.965938" lon="102.325016">
<time>2016-04-06T09:46:24Z</time></trkpt>
<trkpt lat="24.966029" lon="102.324686">
<time>2016-04-06T09:46:25Z</time></trkpt>
<trkpt lat="24.966069" lon="102.324547">
<time>2016-04-06T09:46:26Z</time></trkpt>
<trkpt lat="24.96626" lon="102.324167">
<time>2016-04-06T09:46:27Z</time></trkpt>
<trkpt lat="24.96635" lon="102.323948">
<time>2016-04-06T09:46:28Z</time></trkpt>
<trkpt lat="24.966431" lon="102.323718">
<time>2016-04-06T09:46:29Z</time></trkpt>
<trkpt lat="24.966541" lon="102.323399">
<time>2016-04-06T09:46:30Z</time></trkpt>
<trkpt lat="24.966712" lon="102.32296">
<time>2016-04-06T09:46:31Z</time></trkpt>
<trkpt lat="24.966963" lon="102.322301">
<time>2016-04-06T09:46:32Z</time></trkpt>
<trkpt lat="24.967165" lon="102.321682">
<time>2016-04-06T09:46:33Z</time></trkpt>
<trkpt lat="24.967827" lon="102.320115">
<time>2016-04-06T09:46:34Z</time></trkpt>
<trkpt lat="24.967878" lon="102.320006">
<time>2016-04-06T09:46:35Z</time></trkpt>
<trkpt lat="24.968069" lon="102.319507">
<time>2016-04-06T09:46:36Z</time></trkpt>
<trkpt lat="24.968169" lon="102.319217">
<time>2016-04-06T09:46:37Z</time></trkpt>
<trkpt lat="24.96835" lon="102.318788">
<time>2016-04-06T09:46:38Z</time></trkpt>
<trkpt lat="24.968511" lon="102.318379">
<time>2016-04-06T09:46:39Z</time></trkpt>
<trkpt lat="24.968702" lon="102.3179">
<time>2016-04-06T09:46:40Z</time></trkpt>
<trkpt lat="24.968802" lon="102.31766">
<time>2016-04-06T09:46:41Z</time></trkpt>
<trkpt lat="24.968812" lon="102.31763">
<time>2016-04-06T09:46:42Z</time></trkpt>
<trkpt lat="24.969093" lon="102.317141">
<time>2016-04-06T09:46:43Z</time></trkpt>
<trkpt lat="24.969454" lon="102.316702">
<time>2016-04-06T09:46:44Z</time></trkpt>
<trkpt lat="24.969724" lon="102.316413">
<time>2016-04-06T09:46:45Z</time></trkpt>
<trkpt lat="24.969764" lon="102.316363">
<time>2016-04-06T09:46:46Z</time></trkpt>
<trkpt lat="24.970075" lon="102.316013">
<time>2016-04-06T09:46:47Z</time></trkpt>
<trkpt lat="24.970325" lon="102.315744">
<time>2016-04-06T09:46:48Z</time></trkpt>
<trkpt lat="24.970596" lon="102.315415">
<time>2016-04-06T09:46:49Z</time></trkpt>
<trkpt lat="24.970937" lon="102.315035">
<time>2016-04-06T09:46:50Z</time></trkpt>
<trkpt lat="24.971207" lon="102.314726">
<time>2016-04-06T09:46:51Z</time></trkpt>
<trkpt lat="24.971347" lon="102.314576">
<time>2016-04-06T09:46:52Z</time></trkpt>
<trkpt lat="24.971367" lon="102.314536">
<time>2016-04-06T09:46:53Z</time></trkpt>
<trkpt lat="24.971378" lon="102.314496">
<time>2016-04-06T09:46:54Z</time></trkpt>
<trkpt lat="24.971368" lon="102.314466">
<time>2016-04-06T09:46:55Z</time></trkpt>
<trkpt lat="24.971368" lon="102.314466">
<time>2016-04-06T09:46:56Z</time></trkpt>
<trkpt lat="24.971577" lon="102.314526">
<time>2016-04-06T09:46:57Z</time></trkpt>
<trkpt lat="24.971777" lon="102.314566">
<time>2016-04-06T09:46:58Z</time></trkpt>
<trkpt lat="24.971777" lon="102.314566">
<time>2016-04-06T09:46:59Z</time></trkpt>
<trkpt lat="24.971838" lon="102.314486">
<time>2016-04-06T09:47:00Z</time></trkpt>
<trkpt lat="24.972269" lon="102.313907">
<time>2016-04-06T09:47:01Z</time></trkpt>
<trkpt lat="24.97281" lon="102.313249">
<time>2016-04-06T09:47:02Z</time></trkpt>
<trkpt lat="24.97305" lon="102.312999">
<time>2016-04-06T09:47:03Z</time></trkpt>
<trkpt lat="24.973471" lon="102.31252">
<time>2016-04-06T09:47:04Z</time></trkpt>
<trkpt lat="24.973812" lon="102.312101">
<time>2016-04-06T09:47:05Z</time></trkpt>
<trkpt lat="24.974052" lon="102.311771">
<time>2016-04-06T09:47:06Z</time></trkpt>
<trkpt lat="24.974183" lon="102.311582">
<time>2016-04-06T09:47:07Z</time></trkpt>
<trkpt lat="24.974574" lon="102.310683">
<time>2016-04-06T09:47:08Z</time></trkpt>
<trkpt lat="24.974756" lon="102.309925">
<time>2016-04-06T09:47:09Z</time></trkpt>
<trkpt lat="24.974817" lon="102.309266">
<time>2016-04-06T09:47:10Z</time></trkpt>
<trkpt lat="24.974779" lon="102.307909">
<time>2016-04-06T09:47:11Z</time></trkpt>
<trkpt lat="24.974661" lon="102.30704">
<time>2016-04-06T09:47:12Z</time></trkpt>
<trkpt lat="24.974532" lon="102.306042">
<time>2016-04-06T09:47:13Z</time></trkpt>
<trkpt lat="24.974267" lon="102.303317">
<time>2016-04-06T09:47:14Z</time></trkpt>
<trkpt lat="24.974218" lon="102.302778">
<time>2016-04-06T09:47:15Z</time></trkpt>
<trkpt lat="24.974208" lon="102.302688">
<time>2016-04-06T09:47:16Z</time></trkpt>
<trkpt lat="24.974189" lon="102.302488">
<time>2016-04-06T09:47:17Z</time></trkpt>
<trkpt lat="24.974159" lon="102.302209">
<time>2016-04-06T09:47:18Z</time></trkpt>
<trkpt lat="24.97411" lon="102.301909">
<time>2016-04-06T09:47:19Z</time></trkpt>
<trkpt lat="24.97408" lon="102.30159">
<time>2016-04-06T09:47:20Z</time></trkpt>
<trkpt lat="24.97407" lon="102.3015">
<time>2016-04-06T09:47:21Z</time></trkpt>
<trkpt lat="24.97407" lon="102.30149">
<time>2016-04-06T09:47:22Z</time></trkpt>
<trkpt lat="24.974051" lon="102.30121">
<time>2016-04-06T09:47:23Z</time></trkpt>
<trkpt lat="24.973962" lon="102.300482">
<time>2016-04-06T09:47:24Z</time></trkpt>
<trkpt lat="24.973843" lon="102.299673">
<time>2016-04-06T09:47:25Z</time></trkpt>
<trkpt lat="24.973784" lon="102.299384">
<time>2016-04-06T09:47:26Z</time></trkpt>
<trkpt lat="24.973585" lon="102.298565">
<time>2016-04-06T09:47:27Z</time></trkpt>
<trkpt lat="24.973366" lon="102.297906">
<time>2016-04-06T09:47:28Z</time></trkpt>
<trkpt lat="24.973147" lon="102.297407">
<time>2016-04-06T09:47:29Z</time></trkpt>
<trkpt lat="24.972858" lon="102.296798">
<time>2016-04-06T09:47:30Z</time></trkpt>
<trkpt lat="24.972748" lon="102.296548">
<time>2016-04-06T09:47:31Z</time></trkpt>
<trkpt lat="24.97235" lon="102.295829">
<time>2016-04-06T09:47:32Z</time></trkpt>
<trkpt lat="24.971532" lon="102.294521">
<time>2016-04-06T09:47:33Z</time></trkpt>
<trkpt lat="24.971322" lon="102.294072">
<time>2016-04-06T09:47:34Z</time></trkpt>
<trkpt lat="24.971183" lon="102.293842">
<time>2016-04-06T09:47:35Z</time></trkpt>
<trkpt lat="24.970944" lon="102.293383">
<time>2016-04-06T09:47:36Z</time></trkpt>
<trkpt lat="24.970894" lon="102.293313">
<time>2016-04-06T09:47:37Z</time></trkpt>
<trkpt lat="24.970425" lon="102.292385">
<time>2016-04-06T09:47:38Z</time></trkpt>
<trkpt lat="24.970415" lon="102.292355">
<time>2016-04-06T09:47:39Z</time></trkpt>
<trkpt lat="24.970335" lon="102.292185">
<time>2016-04-06T09:47:40Z</time></trkpt>
<trkpt lat="24.970236" lon="102.291985">
<time>2016-04-06T09:47:41Z</time></trkpt>
<trkpt lat="24.970136" lon="102.291786">
<time>2016-04-06T09:47:42Z</time></trkpt>
<trkpt lat="24.970096" lon="102.291686">
<time>2016-04-06T09:47:43Z</time></trkpt>
<trkpt lat="24.970066" lon="102.291586">
<time>2016-04-06T09:47:44Z</time></trkpt>
<trkpt lat="24.970036" lon="102.291476">
<time>2016-04-06T09:47:45Z</time></trkpt>
<trkpt lat="24.970027" lon="102.291336">
<time>2016-04-06T09:47:46Z</time></trkpt>
<trkpt lat="24.970027" lon="102.291216">
<time>2016-04-06T09:47:47Z</time></trkpt>
<trkpt lat="24.970027" lon="102.291037">
<time>2016-04-06T09:47:48Z</time></trkpt>
<trkpt lat="24.970027" lon="102.290837">
<time>2016-04-06T09:47:49Z</time></trkpt>
<trkpt lat="24.970028" lon="102.290717">
<time>2016-04-06T09:47:50Z</time></trkpt>
<trkpt lat="24.970028" lon="102.290458">
<time>2016-04-06T09:47:51Z</time></trkpt>
<trkpt lat="24.970038" lon="102.290258">
<time>2016-04-06T09:47:52Z</time></trkpt>
<trkpt lat="24.970038" lon="102.290118">
<time>2016-04-06T09:47:53Z</time></trkpt>
<trkpt lat="24.970059" lon="102.289888">
<time>2016-04-06T09:47:54Z</time></trkpt>
<trkpt lat="24.970079" lon="102.289798">
<time>2016-04-06T09:47:55Z</time></trkpt>
<trkpt lat="24.970099" lon="102.289709">
<time>2016-04-06T09:47:56Z</time></trkpt>
<trkpt lat="24.970139" lon="102.289529">
<time>2016-04-06T09:47:57Z</time></trkpt>
<trkpt lat="24.97018" lon="102.289329">
<time>2016-04-06T09:47:58Z</time></trkpt>
<trkpt lat="24.97023" lon="102.289149">
<time>2016-04-06T09:47:59Z</time></trkpt>
<trkpt lat="24.97025" lon="102.289059">
<time>2016-04-06T09:48:00Z</time></trkpt>
<trkpt lat="24.97032" lon="102.28883">
<time>2016-04-06T09:48:01Z</time></trkpt>
<trkpt lat="24.970421" lon="102.28851">
<time>2016-04-06T09:48:02Z</time></trkpt>
<trkpt lat="24.970431" lon="102.28845">
<time>2016-04-06T09:48:03Z</time></trkpt>
<trkpt lat="24.970481" lon="102.288251">
<time>2016-04-06T09:48:04Z</time></trkpt>
<trkpt lat="24.970501" lon="102.288101">
<time>2016-04-06T09:48:05Z</time></trkpt>
<trkpt lat="24.970521" lon="102.288031">
<time>2016-04-06T09:48:06Z</time></trkpt>
<trkpt lat="24.970551" lon="102.287871">
<time>2016-04-06T09:48:07Z</time></trkpt>
<trkpt lat="24.970562" lon="102.287821">
<time>2016-04-06T09:48:08Z</time></trkpt>
<trkpt lat="24.970582" lon="102.287641">
<time>2016-04-06T09:48:09Z</time></trkpt>
<trkpt lat="24.970582" lon="102.287631">
<time>2016-04-06T09:48:10Z</time></trkpt>
<trkpt lat="24.970612" lon="102.287432">
<time>2016-04-06T09:48:11Z</time></trkpt>
<trkpt lat="24.970632" lon="102.287232">
<time>2016-04-06T09:48:12Z</time></trkpt>
<trkpt lat="24.970642" lon="102.287202">
<time>2016-04-06T09:48:13Z</time></trkpt>
<trkpt lat="24.970663" lon="102.287032">
<time>2016-04-06T09:48:14Z</time></trkpt>
<trkpt lat="24.970703" lon="102.286713">
<time>2016-04-06T09:48:15Z</time></trkpt>
<trkpt lat="24.970694" lon="102.286333">
<time>2016-04-06T09:48:16Z</time></trkpt>
<trkpt lat="24.970664" lon="102.285984">
<time>2016-04-06T09:48:17Z</time></trkpt>
<trkpt lat="24.970634" lon="102.285614">
<time>2016-04-06T09:48:18Z</time></trkpt>
<trkpt lat="24.970615" lon="102.285314">
<time>2016-04-06T09:48:19Z</time></trkpt>
<trkpt lat="24.970585" lon="102.284905">
<time>2016-04-06T09:48:20Z</time></trkpt>
<trkpt lat="24.970566" lon="102.284535">
<time>2016-04-06T09:48:21Z</time></trkpt>
<trkpt lat="24.970526" lon="102.284146">
<time>2016-04-06T09:48:22Z</time></trkpt>
<trkpt lat="24.970507" lon="102.283786">
<time>2016-04-06T09:48:23Z</time></trkpt>
<trkpt lat="24.970487" lon="102.283547">
<time>2016-04-06T09:48:24Z</time></trkpt>
<trkpt lat="24.970467" lon="102.283247">
<time>2016-04-06T09:48:25Z</time></trkpt>
<trkpt lat="24.970438" lon="102.282977">
<time>2016-04-06T09:48:26Z</time></trkpt>
<trkpt lat="24.970408" lon="102.282708">
<time>2016-04-06T09:48:27Z</time></trkpt>
<trkpt lat="24.970378" lon="102.282498">
<time>2016-04-06T09:48:28Z</time></trkpt>
<trkpt lat="24.970309" lon="102.282158">
<time>2016-04-06T09:48:29Z</time></trkpt>
<trkpt lat="24.97019" lon="102.281529">
<time>2016-04-06T09:48:30Z</time></trkpt>
<trkpt lat="24.97006" lon="102.2809">
<time>2016-04-06T09:48:31Z</time></trkpt>
<trkpt lat="24.970001" lon="102.28047">
<time>2016-04-06T09:48:32Z</time></trkpt>
<trkpt lat="24.969951" lon="102.280171">
<time>2016-04-06T09:48:33Z</time></trkpt>
<trkpt lat="24.969941" lon="102.279991">
<time>2016-04-06T09:48:34Z</time></trkpt>
<trkpt lat="24.969942" lon="102.279831">
<time>2016-04-06T09:48:35Z</time></trkpt>
<trkpt lat="24.969942" lon="102.279701">
<time>2016-04-06T09:48:36Z</time></trkpt>
<trkpt lat="24.969962" lon="102.279561">
<time>2016-04-06T09:48:37Z</time></trkpt>
<trkpt lat="24.969982" lon="102.279481">
<time>2016-04-06T09:48:38Z</time></trkpt>
<trkpt lat="24.970002" lon="102.279401">
<time>2016-04-06T09:48:39Z</time></trkpt>
<trkpt lat="24.970062" lon="102.279142">
<time>2016-04-06T09:48:40Z</time></trkpt>
<trkpt lat="24.970163" lon="102.278662">
<time>2016-04-06T09:48:41Z</time></trkpt>
<trkpt lat="24.970213" lon="102.278422">
<time>2016-04-06T09:48:42Z</time></trkpt>
<trkpt lat="24.970233" lon="102.278293">
<time>2016-04-06T09:48:43Z</time></trkpt>
<trkpt lat="24.970334" lon="102.277853">
<time>2016-04-06T09:48:44Z</time></trkpt>
<trkpt lat="24.970384" lon="102.277453">
<time>2016-04-06T09:48:45Z</time></trkpt>
<trkpt lat="24.970434" lon="102.277054">
<time>2016-04-06T09:48:46Z</time></trkpt>
<trkpt lat="24.970515" lon="102.276654">
<time>2016-04-06T09:48:47Z</time></trkpt>
<trkpt lat="24.970585" lon="102.276265">
<time>2016-04-06T09:48:48Z</time></trkpt>
<trkpt lat="24.970676" lon="102.275725">
<time>2016-04-06T09:48:49Z</time></trkpt>
<trkpt lat="24.970736" lon="102.275355">
<time>2016-04-06T09:48:50Z</time></trkpt>
<trkpt lat="24.970746" lon="102.275305">
<time>2016-04-06T09:48:51Z</time></trkpt>
<trkpt lat="24.970786" lon="102.275136">
<time>2016-04-06T09:48:52Z</time></trkpt>
<trkpt lat="24.970827" lon="102.274966">
<time>2016-04-06T09:48:53Z</time></trkpt>
<trkpt lat="24.970887" lon="102.274716">
<time>2016-04-06T09:48:54Z</time></trkpt>
<trkpt lat="24.970937" lon="102.274506">
<time>2016-04-06T09:48:55Z</time></trkpt>
<trkpt lat="24.971027" lon="102.274156">
<time>2016-04-06T09:48:56Z</time></trkpt>
<trkpt lat="24.971108" lon="102.273817">
<time>2016-04-06T09:48:57Z</time></trkpt>
<trkpt lat="24.971208" lon="102.273437">
<time>2016-04-06T09:48:58Z</time></trkpt>
<trkpt lat="24.971268" lon="102.273187">
<time>2016-04-06T09:48:59Z</time></trkpt>
<trkpt lat="24.971318" lon="102.272937">
<time>2016-04-06T09:49:00Z</time></trkpt>
<trkpt lat="24.971399" lon="102.272618">
<time>2016-04-06T09:49:01Z</time></trkpt>
<trkpt lat="24.971479" lon="102.272288">
<time>2016-04-06T09:49:02Z</time></trkpt>
<trkpt lat="24.971529" lon="102.272098">
<time>2016-04-06T09:49:03Z</time></trkpt>
<trkpt lat="24.971579" lon="102.271928">
<time>2016-04-06T09:49:04Z</time></trkpt>
<trkpt lat="24.971619" lon="102.271708">
<time>2016-04-06T09:49:05Z</time></trkpt>
<trkpt lat="24.971629" lon="102.271649">
<time>2016-04-06T09:49:06Z</time></trkpt>
<trkpt lat="24.97165" lon="102.271529">
<time>2016-04-06T09:49:07Z</time></trkpt>
<trkpt lat="24.97167" lon="102.271399">
<time>2016-04-06T09:49:08Z</time></trkpt>
<trkpt lat="24.97169" lon="102.271269">
<time>2016-04-06T09:49:09Z</time></trkpt>
<trkpt lat="24.97171" lon="102.271079">
<time>2016-04-06T09:49:10Z</time></trkpt>
<trkpt lat="24.97171" lon="102.271019">
<time>2016-04-06T09:49:11Z</time></trkpt>
<trkpt lat="24.97172" lon="102.270909">
<time>2016-04-06T09:49:12Z</time></trkpt>
<trkpt lat="24.97171" lon="102.270759">
<time>2016-04-06T09:49:13Z</time></trkpt>
<trkpt lat="24.97171" lon="102.270629">
<time>2016-04-06T09:49:14Z</time></trkpt>
<trkpt lat="24.97169" lon="102.270499">
<time>2016-04-06T09:49:15Z</time></trkpt>
<trkpt lat="24.971651" lon="102.27031">
<time>2016-04-06T09:49:16Z</time></trkpt>
<trkpt lat="24.971601" lon="102.27008">
<time>2016-04-06T09:49:17Z</time></trkpt>
<trkpt lat="24.971521" lon="102.26977">
<time>2016-04-06T09:49:18Z</time></trkpt>
<trkpt lat="24.971451" lon="102.26954">
<time>2016-04-06T09:49:19Z</time></trkpt>
<trkpt lat="24.971401" lon="102.26945">
<time>2016-04-06T09:49:20Z</time></trkpt>
<trkpt lat="24.971371" lon="102.26939">
<time>2016-04-06T09:49:21Z</time></trkpt>
<trkpt lat="24.971361" lon="102.26938">
<time>2016-04-06T09:49:22Z</time></trkpt>
<trkpt lat="24.971301" lon="102.2693">
<time>2016-04-06T09:49:23Z</time></trkpt>
<trkpt lat="24.971241" lon="102.26924">
<time>2016-04-06T09:49:24Z</time></trkpt>
<trkpt lat="24.971172" lon="102.26918">
<time>2016-04-06T09:49:25Z</time></trkpt>
<trkpt lat="24.971092" lon="102.26912">
<time>2016-04-06T09:49:26Z</time></trkpt>
<trkpt lat="24.970972" lon="102.26905">
<time>2016-04-06T09:49:27Z</time></trkpt>
<trkpt lat="24.970762" lon="102.268901">
<time>2016-04-06T09:49:28Z</time></trkpt>
<trkpt lat="24.970522" lon="102.268761">
<time>2016-04-06T09:49:29Z</time></trkpt>
<trkpt lat="24.970282" lon="102.268631">
<time>2016-04-06T09:49:30Z</time></trkpt>
<trkpt lat="24.970062" lon="102.268491">
<time>2016-04-06T09:49:31Z</time></trkpt>
<trkpt lat="24.969732" lon="102.268271">
<time>2016-04-06T09:49:32Z</time></trkpt>
<trkpt lat="24.969483" lon="102.268081">
<time>2016-04-06T09:49:33Z</time></trkpt>
<trkpt lat="24.969293" lon="102.267921">
<time>2016-04-06T09:49:34Z</time></trkpt>
<trkpt lat="24.969113" lon="102.267761">
<time>2016-04-06T09:49:35Z</time></trkpt>
<trkpt lat="24.968923" lon="102.267551">
<time>2016-04-06T09:49:36Z</time></trkpt>
<trkpt lat="24.968763" lon="102.267372">
<time>2016-04-06T09:49:37Z</time></trkpt>
<trkpt lat="24.968493" lon="102.267072">
<time>2016-04-06T09:49:38Z</time></trkpt>
<trkpt lat="24.968363" lon="102.266942">
<time>2016-04-06T09:49:39Z</time></trkpt>
<trkpt lat="24.968274" lon="102.266842">
<time>2016-04-06T09:49:40Z</time></trkpt>
<trkpt lat="24.968194" lon="102.266762">
<time>2016-04-06T09:49:41Z</time></trkpt>
<trkpt lat="24.968114" lon="102.266712">
<time>2016-04-06T09:49:42Z</time></trkpt>
<trkpt lat="24.968004" lon="102.266642">
<time>2016-04-06T09:49:43Z</time></trkpt>
<trkpt lat="24.967624" lon="102.266442">
<time>2016-04-06T09:49:44Z</time></trkpt>
<trkpt lat="24.967514" lon="102.266382">
<time>2016-04-06T09:49:45Z</time></trkpt>
<trkpt lat="24.967254" lon="102.266282">
<time>2016-04-06T09:49:46Z</time></trkpt>
<trkpt lat="24.966924" lon="102.266132">
<time>2016-04-06T09:49:47Z</time></trkpt>
<trkpt lat="24.966684" lon="102.266002">
<time>2016-04-06T09:49:48Z</time></trkpt>
<trkpt lat="24.966604" lon="102.265932">
<time>2016-04-06T09:49:49Z</time></trkpt>
<trkpt lat="24.966544" lon="102.265863">
<time>2016-04-06T09:49:50Z</time></trkpt>
<trkpt lat="24.966455" lon="102.265743">
<time>2016-04-06T09:49:51Z</time></trkpt>
<trkpt lat="24.966455" lon="102.265733">
<time>2016-04-06T09:49:52Z</time></trkpt>
<trkpt lat="24.966385" lon="102.265623">
<time>2016-04-06T09:49:53Z</time></trkpt>
<trkpt lat="24.966305" lon="102.265453">
<time>2016-04-06T09:49:54Z</time></trkpt>
<trkpt lat="24.966265" lon="102.265313">
<time>2016-04-06T09:49:55Z</time></trkpt>
<trkpt lat="24.966235" lon="102.265173">
<time>2016-04-06T09:49:56Z</time></trkpt>
<trkpt lat="24.966185" lon="102.264853">
<time>2016-04-06T09:49:57Z</time></trkpt>
<trkpt lat="24.966135" lon="102.264543">
<time>2016-04-06T09:49:58Z</time></trkpt>
<trkpt lat="24.966086" lon="102.264213">
<time>2016-04-06T09:49:59Z</time></trkpt>
<trkpt lat="24.966026" lon="102.263944">
<time>2016-04-06T09:50:00Z</time></trkpt>
<trkpt lat="24.965986" lon="102.263754">
<time>2016-04-06T09:50:01Z</time></trkpt>
<trkpt lat="24.965946" lon="102.263644">
<time>2016-04-06T09:50:02Z</time></trkpt>
<trkpt lat="24.965906" lon="102.263534">
<time>2016-04-06T09:50:03Z</time></trkpt>
<trkpt lat="24.965866" lon="102.263444">
<time>2016-04-06T09:50:04Z</time></trkpt>
<trkpt lat="24.965826" lon="102.263374">
<time>2016-04-06T09:50:05Z</time></trkpt>
<trkpt lat="24.965766" lon="102.263274">
<time>2016-04-06T09:50:06Z</time></trkpt>
<trkpt lat="24.965696" lon="102.263194">
<time>2016-04-06T09:50:07Z</time></trkpt>
<trkpt lat="24.965566" lon="102.263044">
<time>2016-04-06T09:50:08Z</time></trkpt>
<trkpt lat="24.965386" lon="102.262834">
<time>2016-04-06T09:50:09Z</time></trkpt>
<trkpt lat="24.965227" lon="102.262664">
<time>2016-04-06T09:50:10Z</time></trkpt>
<trkpt lat="24.965167" lon="102.262604">
<time>2016-04-06T09:50:11Z</time></trkpt>
<trkpt lat="24.965017" lon="102.262444">
<time>2016-04-06T09:50:12Z</time></trkpt>
<trkpt lat="24.964807" lon="102.262204">
<time>2016-04-06T09:50:13Z</time></trkpt>
<trkpt lat="24.964657" lon="102.262024">
<time>2016-04-06T09:50:14Z</time></trkpt>
<trkpt lat="24.964577" lon="102.261944">
<time>2016-04-06T09:50:15Z</time></trkpt>
<trkpt lat="24.964347" lon="102.261695">
<time>2016-04-06T09:50:16Z</time></trkpt>
<trkpt lat="24.964137" lon="102.261465">
<time>2016-04-06T09:50:17Z</time></trkpt>
<trkpt lat="24.964017" lon="102.261335">
<time>2016-04-06T09:50:18Z</time></trkpt>
<trkpt lat="24.963808" lon="102.261085">
<time>2016-04-06T09:50:19Z</time></trkpt>
<trkpt lat="24.963638" lon="102.260875">
<time>2016-04-06T09:50:20Z</time></trkpt>
<trkpt lat="24.963548" lon="102.260735">
<time>2016-04-06T09:50:21Z</time></trkpt>
<trkpt lat="24.963488" lon="102.260605">
<time>2016-04-06T09:50:22Z</time></trkpt>
<trkpt lat="24.963438" lon="102.260485">
<time>2016-04-06T09:50:23Z</time></trkpt>
<trkpt lat="24.963428" lon="102.260465">
<time>2016-04-06T09:50:24Z</time></trkpt>
<trkpt lat="24.963388" lon="102.260295">
<time>2016-04-06T09:50:25Z</time></trkpt>
<trkpt lat="24.963378" lon="102.260165">
<time>2016-04-06T09:50:26Z</time></trkpt>
<trkpt lat="24.963368" lon="102.260035">
<time>2016-04-06T09:50:27Z</time></trkpt>
<trkpt lat="24.963368" lon="102.259845">
<time>2016-04-06T09:50:28Z</time></trkpt>
<trkpt lat="24.963388" lon="102.259605">
<time>2016-04-06T09:50:29Z</time></trkpt>
<trkpt lat="24.963398" lon="102.259415">
<time>2016-04-06T09:50:30Z</time></trkpt>
<trkpt lat="24.963428" lon="102.259085">
<time>2016-04-06T09:50:31Z</time></trkpt>
<trkpt lat="24.963469" lon="102.258756">
<time>2016-04-06T09:50:32Z</time></trkpt>
<trkpt lat="24.963509" lon="102.258436">
<time>2016-04-06T09:50:33Z</time></trkpt>
<trkpt lat="24.963539" lon="102.258076">
<time>2016-04-06T09:50:34Z</time></trkpt>
<trkpt lat="24.963579" lon="102.257706">
<time>2016-04-06T09:50:35Z</time></trkpt>
<trkpt lat="24.963609" lon="102.257436">
<time>2016-04-06T09:50:36Z</time></trkpt>
<trkpt lat="24.963629" lon="102.257236">
<time>2016-04-06T09:50:37Z</time></trkpt>
<trkpt lat="24.963639" lon="102.257066">
<time>2016-04-06T09:50:38Z</time></trkpt>
<trkpt lat="24.963629" lon="102.256926">
<time>2016-04-06T09:50:39Z</time></trkpt>
<trkpt lat="24.963619" lon="102.256806">
<time>2016-04-06T09:50:40Z</time></trkpt>
<trkpt lat="24.963579" lon="102.256636">
<time>2016-04-06T09:50:41Z</time></trkpt>
<trkpt lat="24.963579" lon="102.256616">
<time>2016-04-06T09:50:42Z</time></trkpt>
<trkpt lat="24.963519" lon="102.256386">
<time>2016-04-06T09:50:43Z</time></trkpt>
<trkpt lat="24.96334" lon="102.255746">
<time>2016-04-06T09:50:44Z</time></trkpt>
<trkpt lat="24.96317" lon="102.255146">
<time>2016-04-06T09:50:45Z</time></trkpt>
<trkpt lat="24.9631" lon="102.254966">
<time>2016-04-06T09:50:46Z</time></trkpt>
<trkpt lat="24.96304" lon="102.254856">
<time>2016-04-06T09:50:47Z</time></trkpt>
<trkpt lat="24.96298" lon="102.254766">
<time>2016-04-06T09:50:48Z</time></trkpt>
<trkpt lat="24.96293" lon="102.254686">
<time>2016-04-06T09:50:49Z</time></trkpt>
<trkpt lat="24.96287" lon="102.254616">
<time>2016-04-06T09:50:50Z</time></trkpt>
<trkpt lat="24.96278" lon="102.254516">
<time>2016-04-06T09:50:51Z</time></trkpt>
<trkpt lat="24.96265" lon="102.254386">
<time>2016-04-06T09:50:52Z</time></trkpt>
<trkpt lat="24.96251" lon="102.254246">
<time>2016-04-06T09:50:53Z</time></trkpt>
<trkpt lat="24.96235" lon="102.254076">
<time>2016-04-06T09:50:54Z</time></trkpt>
<trkpt lat="24.96208" lon="102.253756">
<time>2016-04-06T09:50:55Z</time></trkpt>
<trkpt lat="24.96192" lon="102.253526">
<time>2016-04-06T09:50:56Z</time></trkpt>
<trkpt lat="24.96183" lon="102.253326">
<time>2016-04-06T09:50:57Z</time></trkpt>
<trkpt lat="24.96176" lon="102.253156">
<time>2016-04-06T09:50:58Z</time></trkpt>
<trkpt lat="24.96173" lon="102.252986">
<time>2016-04-06T09:50:59Z</time></trkpt>
<trkpt lat="24.96171" lon="102.252866">
<time>2016-04-06T09:51:00Z</time></trkpt>
<trkpt lat="24.96171" lon="102.252616">
<time>2016-04-06T09:51:01Z</time></trkpt>
<trkpt lat="24.96171" lon="102.252596">
<time>2016-04-06T09:51:02Z</time></trkpt>
<trkpt lat="24.961711" lon="102.252316">
<time>2016-04-06T09:51:03Z</time></trkpt>
<trkpt lat="24.961701" lon="102.252036">
<time>2016-04-06T09:51:04Z</time></trkpt>
<trkpt lat="24.961711" lon="102.251746">
<time>2016-04-06T09:51:05Z</time></trkpt>
<trkpt lat="24.961721" lon="102.251466">
<time>2016-04-06T09:51:06Z</time></trkpt>
<trkpt lat="24.961711" lon="102.251316">
<time>2016-04-06T09:51:07Z</time></trkpt>
<trkpt lat="24.961711" lon="102.251246">
<time>2016-04-06T09:51:08Z</time></trkpt>
<trkpt lat="24.961701" lon="102.250996">
<time>2016-04-06T09:51:09Z</time></trkpt>
<trkpt lat="24.961681" lon="102.250786">
<time>2016-04-06T09:51:10Z</time></trkpt>
<trkpt lat="24.961521" lon="102.250016">
<time>2016-04-06T09:51:11Z</time></trkpt>
<trkpt lat="24.961491" lon="102.249906">
<time>2016-04-06T09:51:12Z</time></trkpt>
<trkpt lat="24.961421" lon="102.249736">
<time>2016-04-06T09:51:13Z</time></trkpt>
<trkpt lat="24.961341" lon="102.249496">
<time>2016-04-06T09:51:14Z</time></trkpt>
<trkpt lat="24.961271" lon="102.249266">
<time>2016-04-06T09:51:15Z</time></trkpt>
<trkpt lat="24.961211" lon="102.249006">
<time>2016-04-06T09:51:16Z</time></trkpt>
<trkpt lat="24.961171" lon="102.248746">
<time>2016-04-06T09:51:17Z</time></trkpt>
<trkpt lat="24.961131" lon="102.248446">
<time>2016-04-06T09:51:18Z</time></trkpt>
<trkpt lat="24.961101" lon="102.248206">
<time>2016-04-06T09:51:19Z</time></trkpt>
<trkpt lat="24.961071" lon="102.247936">
<time>2016-04-06T09:51:20Z</time></trkpt>
<trkpt lat="24.961051" lon="102.247666">
<time>2016-04-06T09:51:21Z</time></trkpt>
<trkpt lat="24.961031" lon="102.247376">
<time>2016-04-06T09:51:22Z</time></trkpt>
<trkpt lat="24.960961" lon="102.246976">
<time>2016-04-06T09:51:23Z</time></trkpt>
<trkpt lat="24.960931" lon="102.246846">
<time>2016-04-06T09:51:24Z</time></trkpt>
<trkpt lat="24.960881" lon="102.246736">
<time>2016-04-06T09:51:25Z</time></trkpt>
<trkpt lat="24.960831" lon="102.246656">
<time>2016-04-06T09:51:26Z</time></trkpt>
<trkpt lat="24.960781" lon="102.246576">
<time>2016-04-06T09:51:27Z</time></trkpt>
<trkpt lat="24.960761" lon="102.246556">
<time>2016-04-06T09:51:28Z</time></trkpt>
<trkpt lat="24.960761" lon="102.246556">
<time>2016-04-06T09:51:29Z</time></trkpt>
<trkpt lat="24.961161" lon="102.245125">
<time>2016-04-06T09:51:30Z</time></trkpt>
<trkpt lat="24.96195" lon="102.243615">
<time>2016-04-06T09:51:31Z</time></trkpt>
<trkpt lat="24.96208" lon="102.243425">
<time>2016-04-06T09:51:32Z</time></trkpt>
<trkpt lat="24.96226" lon="102.243354">
<time>2016-04-06T09:51:33Z</time></trkpt>
<trkpt lat="24.96265" lon="102.243284">
<time>2016-04-06T09:51:34Z</time></trkpt>
<trkpt lat="24.96265" lon="102.243284">
<time>2016-04-06T09:51:35Z</time></trkpt>
<trkpt lat="24.96248" lon="102.242974">
<time>2016-04-06T09:51:36Z</time></trkpt>
<trkpt lat="24.9624" lon="102.242614">
<time>2016-04-06T09:51:37Z</time></trkpt>
<trkpt lat="24.96233" lon="102.242324">
<time>2016-04-06T09:51:38Z</time></trkpt>
<trkpt lat="24.96233" lon="102.242324">
<time>2016-04-06T09:51:39Z</time></trkpt>
<trkpt lat="24.96282" lon="102.241184">
<time>2016-04-06T09:51:40Z</time></trkpt>
<trkpt lat="24.963189" lon="102.240323">
<time>2016-04-06T09:51:41Z</time></trkpt>
<trkpt lat="24.963189" lon="102.240323">
<time>2016-04-06T09:51:42Z</time></trkpt>
<trkpt lat="24.962279" lon="102.239663">
<time>2016-04-06T09:51:43Z</time></trkpt>
<trkpt lat="24.961389" lon="102.239002">
<time>2016-04-06T09:51:44Z</time></trkpt>
<trkpt lat="24.960799" lon="102.238572">
<time>2016-04-06T09:51:45Z</time></trkpt>
<trkpt lat="24.960269" lon="102.238192">
<time>2016-04-06T09:51:46Z</time></trkpt>
<trkpt lat="24.959639" lon="102.237732">
<time>2016-04-06T09:51:47Z</time></trkpt>
<trkpt lat="24.959389" lon="102.237562">
<time>2016-04-06T09:51:48Z</time></trkpt>
<trkpt lat="24.959079" lon="102.237371">
<time>2016-04-06T09:51:49Z</time></trkpt>
<trkpt lat="24.958679" lon="102.237141">
<time>2016-04-06T09:51:50Z</time></trkpt>
<trkpt lat="24.957629" lon="102.236631">
<time>2016-04-06T09:51:51Z</time></trkpt>
<trkpt lat="24.956419" lon="102.236051">
<time>2016-04-06T09:51:52Z</time></trkpt>
<trkpt lat="24.955399" lon="102.23555">
<time>2016-04-06T09:51:53Z</time></trkpt>
<trkpt lat="24.954078" lon="102.23492">
<time>2016-04-06T09:51:54Z</time></trkpt>
<trkpt lat="24.953208" lon="102.2345">
<time>2016-04-06T09:51:55Z</time></trkpt>
<trkpt lat="24.952248" lon="102.234059">
<time>2016-04-06T09:51:56Z</time></trkpt>
<trkpt lat="24.951438" lon="102.233639">
<time>2016-04-06T09:51:57Z</time></trkpt>
<trkpt lat="24.951348" lon="102.233589">
<time>2016-04-06T09:51:58Z</time></trkpt>
<trkpt lat="24.950848" lon="102.233349">
<time>2016-04-06T09:51:59Z</time></trkpt>
<trkpt lat="24.950488" lon="102.233169">
<time>2016-04-06T09:52:00Z</time></trkpt>
<trkpt lat="24.950008" lon="102.232878">
<time>2016-04-06T09:52:01Z</time></trkpt>
<trkpt lat="24.949598" lon="102.232558">
<time>2016-04-06T09:52:02Z</time></trkpt>
<trkpt lat="24.949117" lon="102.232148">
<time>2016-04-06T09:52:03Z</time></trkpt>
<trkpt lat="24.948327" lon="102.231457">
<time>2016-04-06T09:52:04Z</time></trkpt>
<trkpt lat="24.947967" lon="102.231147">
<time>2016-04-06T09:52:05Z</time></trkpt>
<trkpt lat="24.947587" lon="102.230847">
<time>2016-04-06T09:52:06Z</time></trkpt>
<trkpt lat="24.947257" lon="102.230606">
<time>2016-04-06T09:52:07Z</time></trkpt>
<trkpt lat="24.946867" lon="102.230366">
<time>2016-04-06T09:52:08Z</time></trkpt>
<trkpt lat="24.946286" lon="102.230026">
<time>2016-04-06T09:52:09Z</time></trkpt>
<trkpt lat="24.945736" lon="102.229686">
<time>2016-04-06T09:52:10Z</time></trkpt>
<trkpt lat="24.945346" lon="102.229415">
<time>2016-04-06T09:52:11Z</time></trkpt>
<trkpt lat="24.945036" lon="102.229155">
<time>2016-04-06T09:52:12Z</time></trkpt>
<trkpt lat="24.944136" lon="102.228334">
<time>2016-04-06T09:52:13Z</time></trkpt>
<trkpt lat="24.943055" lon="102.227343">
<time>2016-04-06T09:52:14Z</time></trkpt>
<trkpt lat="24.941874" lon="102.226262">
<time>2016-04-06T09:52:15Z</time></trkpt>
<trkpt lat="24.941544" lon="102.225972">
<time>2016-04-06T09:52:16Z</time></trkpt>
<trkpt lat="24.940774" lon="102.225351">
<time>2016-04-06T09:52:17Z</time></trkpt>
<trkpt lat="24.939703" lon="102.22452">
<time>2016-04-06T09:52:18Z</time></trkpt>
<trkpt lat="24.939213" lon="102.22414">
<time>2016-04-06T09:52:19Z</time></trkpt>
<trkpt lat="24.938773" lon="102.22388">
<time>2016-04-06T09:52:20Z</time></trkpt>
<trkpt lat="24.938773" lon="102.22388">
<time>2016-04-06T09:52:21Z</time></trkpt>
<trkpt lat="24.938832" lon="102.223189">
<time>2016-04-06T09:52:22Z</time></trkpt>
<trkpt lat="24.938852" lon="102.223029">
<time>2016-04-06T09:52:23Z</time></trkpt>
<trkpt lat="24.938882" lon="102.222838">
<time>2016-04-06T09:52:24Z</time></trkpt>
<trkpt lat="24.938911" lon="102.222688">
<time>2016-04-06T09:52:25Z</time></trkpt>
<trkpt lat="24.938941" lon="102.222538">
<time>2016-04-06T09:52:26Z</time></trkpt>
<trkpt lat="24.938971" lon="102.222438">
<time>2016-04-06T09:52:27Z</time></trkpt>
<trkpt lat="24.939001" lon="102.222338">
<time>2016-04-06T09:52:28Z</time></trkpt>
<trkpt lat="24.939021" lon="102.222278">
<time>2016-04-06T09:52:29Z</time></trkpt>
<trkpt lat="24.939051" lon="102.222198">
<time>2016-04-06T09:52:30Z</time></trkpt>
<trkpt lat="24.939101" lon="102.222077">
<time>2016-04-06T09:52:31Z</time></trkpt>
<trkpt lat="24.939191" lon="102.221857">
<time>2016-04-06T09:52:32Z</time></trkpt>
<trkpt lat="24.939749" lon="102.220616">
<time>2016-04-06T09:52:33Z</time></trkpt>
<trkpt lat="24.940178" lon="102.219664">
<time>2016-04-06T09:52:34Z</time></trkpt>
<trkpt lat="24.940298" lon="102.219374">
<time>2016-04-06T09:52:35Z</time></trkpt>
<trkpt lat="24.940428" lon="102.219063">
<time>2016-04-06T09:52:36Z</time></trkpt>
<trkpt lat="24.940587" lon="102.218723">
<time>2016-04-06T09:52:37Z</time></trkpt>
<trkpt lat="24.940687" lon="102.218473">
<time>2016-04-06T09:52:38Z</time></trkpt>
<trkpt lat="24.940777" lon="102.218282">
<time>2016-04-06T09:52:39Z</time></trkpt>
<trkpt lat="24.940817" lon="102.218172">
<time>2016-04-06T09:52:40Z</time></trkpt>
<trkpt lat="24.940926" lon="102.217842">
<time>2016-04-06T09:52:41Z</time></trkpt>
<trkpt lat="24.941424" lon="102.215969">
<time>2016-04-06T09:52:42Z</time></trkpt>
<trkpt lat="24.941534" lon="102.215548">
<time>2016-04-06T09:52:43Z</time></trkpt>
<trkpt lat="24.941564" lon="102.215428">
<time>2016-04-06T09:52:44Z</time></trkpt>
<trkpt lat="24.941623" lon="102.215268">
<time>2016-04-06T09:52:45Z</time></trkpt>
<trkpt lat="24.941683" lon="102.215118">
<time>2016-04-06T09:52:46Z</time></trkpt>
<trkpt lat="24.941733" lon="102.215018">
<time>2016-04-06T09:52:47Z</time></trkpt>
<trkpt lat="24.941773" lon="102.214948">
<time>2016-04-06T09:52:48Z</time></trkpt>
<trkpt lat="24.941863" lon="102.214807">
<time>2016-04-06T09:52:49Z</time></trkpt>
<trkpt lat="24.941923" lon="102.214717">
<time>2016-04-06T09:52:50Z</time></trkpt>
<trkpt lat="24.941983" lon="102.214637">
<time>2016-04-06T09:52:51Z</time></trkpt>
<trkpt lat="24.942122" lon="102.214487">
<time>2016-04-06T09:52:52Z</time></trkpt>
<trkpt lat="24.942262" lon="102.214337">
<time>2016-04-06T09:52:53Z</time></trkpt>
<trkpt lat="24.942422" lon="102.214216">
<time>2016-04-06T09:52:54Z</time></trkpt>
<trkpt lat="24.942542" lon="102.214146">
<time>2016-04-06T09:52:55Z</time></trkpt>
<trkpt lat="24.942652" lon="102.214066">
<time>2016-04-06T09:52:56Z</time></trkpt>
<trkpt lat="24.942832" lon="102.213956">
<time>2016-04-06T09:52:57Z</time></trkpt>
<trkpt lat="24.943061" lon="102.213836">
<time>2016-04-06T09:52:58Z</time></trkpt>
<trkpt lat="24.943151" lon="102.213786">
<time>2016-04-06T09:52:59Z</time></trkpt>
<trkpt lat="24.943201" lon="102.213756">
<time>2016-04-06T09:53:00Z</time></trkpt>
<trkpt lat="24.943691" lon="102.213495">
<time>2016-04-06T09:53:01Z</time></trkpt>
<trkpt lat="24.943921" lon="102.213365">
<time>2016-04-06T09:53:02Z</time></trkpt>
<trkpt lat="24.944051" lon="102.213285">
<time>2016-04-06T09:53:03Z</time></trkpt>
<trkpt lat="24.944211" lon="102.213185">
<time>2016-04-06T09:53:04Z</time></trkpt>
<trkpt lat="24.94435" lon="102.213085">
<time>2016-04-06T09:53:05Z</time></trkpt>
<trkpt lat="24.94445" lon="102.213004">
<time>2016-04-06T09:53:06Z</time></trkpt>
<trkpt lat="24.9447" lon="102.212794">
<time>2016-04-06T09:53:07Z</time></trkpt>
<trkpt lat="24.94485" lon="102.212644">
<time>2016-04-06T09:53:08Z</time></trkpt>
<trkpt lat="24.945059" lon="102.212413">
<time>2016-04-06T09:53:09Z</time></trkpt>
<trkpt lat="24.945728" lon="102.211682">
<time>2016-04-06T09:53:10Z</time></trkpt>
<trkpt lat="24.946298" lon="102.211061">
<time>2016-04-06T09:53:11Z</time></trkpt>
<trkpt lat="24.946757" lon="102.21056">
<time>2016-04-06T09:53:12Z</time></trkpt>
<trkpt lat="24.946907" lon="102.21041">
<time>2016-04-06T09:53:13Z</time></trkpt>
<trkpt lat="24.947076" lon="102.21026">
<time>2016-04-06T09:53:14Z</time></trkpt>
<trkpt lat="24.947296" lon="102.21008">
<time>2016-04-06T09:53:15Z</time></trkpt>
<trkpt lat="24.947536" lon="102.209889">
<time>2016-04-06T09:53:16Z</time></trkpt>
<trkpt lat="24.947736" lon="102.209739">
<time>2016-04-06T09:53:17Z</time></trkpt>
<trkpt lat="24.948115" lon="102.209469">
<time>2016-04-06T09:53:18Z</time></trkpt>
<trkpt lat="24.950932" lon="102.207505">
<time>2016-04-06T09:53:19Z</time></trkpt>
<trkpt lat="24.95283" lon="102.206183">
<time>2016-04-06T09:53:20Z</time></trkpt>
<trkpt lat="24.95308" lon="102.206012">
<time>2016-04-06T09:53:21Z</time></trkpt>
<trkpt lat="24.95316" lon="102.205952">
<time>2016-04-06T09:53:22Z</time></trkpt>
<trkpt lat="24.95325" lon="102.205872">
<time>2016-04-06T09:53:23Z</time></trkpt>
<trkpt lat="24.95329" lon="102.205832">
<time>2016-04-06T09:53:24Z</time></trkpt>
<trkpt lat="24.95333" lon="102.205782">
<time>2016-04-06T09:53:25Z</time></trkpt>
<trkpt lat="24.953359" lon="102.205742">
<time>2016-04-06T09:53:26Z</time></trkpt>
<trkpt lat="24.953379" lon="102.205722">
<time>2016-04-06T09:53:27Z</time></trkpt>
<trkpt lat="24.953389" lon="102.205672">
<time>2016-04-06T09:53:28Z</time></trkpt>
<trkpt lat="24.953399" lon="102.205632">
<time>2016-04-06T09:53:29Z</time></trkpt>
<trkpt lat="24.953409" lon="102.205612">
<time>2016-04-06T09:53:30Z</time></trkpt>
<trkpt lat="24.953409" lon="102.205592">
<time>2016-04-06T09:53:31Z</time></trkpt>
<trkpt lat="24.953409" lon="102.205572">
<time>2016-04-06T09:53:32Z</time></trkpt>
<trkpt lat="24.953409" lon="102.205542">
<time>2016-04-06T09:53:33Z</time></trkpt>
<trkpt lat="24.953409" lon="102.205512">
<time>2016-04-06T09:53:34Z</time></trkpt>
<trkpt lat="24.953409" lon="102.205492">
<time>2016-04-06T09:53:35Z</time></trkpt>
<trkpt lat="24.953399" lon="102.205451">
<time>2016-04-06T09:53:36Z</time></trkpt>
<trkpt lat="24.953389" lon="102.205421">
<time>2016-04-06T09:53:37Z</time></trkpt>
<trkpt lat="24.953379" lon="102.205401">
<time>2016-04-06T09:53:38Z</time></trkpt>
<trkpt lat="24.953359" lon="102.205371">
<time>2016-04-06T09:53:39Z</time></trkpt>
<trkpt lat="24.953349" lon="102.205341">
<time>2016-04-06T09:53:40Z</time></trkpt>
<trkpt lat="24.953319" lon="102.205301">
<time>2016-04-06T09:53:41Z</time></trkpt>
<trkpt lat="24.953289" lon="102.205261">
<time>2016-04-06T09:53:42Z</time></trkpt>
<trkpt lat="24.953239" lon="102.205211">
<time>2016-04-06T09:53:43Z</time></trkpt>
<trkpt lat="24.953159" lon="102.205151">
<time>2016-04-06T09:53:44Z</time></trkpt>
<trkpt lat="24.953079" lon="102.205091">
<time>2016-04-06T09:53:45Z</time></trkpt>
<trkpt lat="24.952989" lon="102.205041">
<time>2016-04-06T09:53:46Z</time></trkpt>
<trkpt lat="24.952918" lon="102.204981">
<time>2016-04-06T09:53:47Z</time></trkpt>
<trkpt lat="24.952778" lon="102.2049">
<time>2016-04-06T09:53:48Z</time></trkpt>
<trkpt lat="24.952268" lon="102.20459">
<time>2016-04-06T09:53:49Z</time></trkpt>
<trkpt lat="24.951547" lon="102.204159">
<time>2016-04-06T09:53:50Z</time></trkpt>
<trkpt lat="24.951187" lon="102.203929">
<time>2016-04-06T09:53:51Z</time></trkpt>
<trkpt lat="24.951067" lon="102.203849">
<time>2016-04-06T09:53:52Z</time></trkpt>
<trkpt lat="24.950957" lon="102.203768">
<time>2016-04-06T09:53:53Z</time></trkpt>
<trkpt lat="24.950837" lon="102.203638">
<time>2016-04-06T09:53:54Z</time></trkpt>
<trkpt lat="24.950787" lon="102.203588">
<time>2016-04-06T09:53:55Z</time></trkpt>
<trkpt lat="24.950727" lon="102.203508">
<time>2016-04-06T09:53:56Z</time></trkpt>
<trkpt lat="24.950676" lon="102.203428">
<time>2016-04-06T09:53:57Z</time></trkpt>
<trkpt lat="24.950636" lon="102.203358">
<time>2016-04-06T09:53:58Z</time></trkpt>
<trkpt lat="24.950606" lon="102.203298">
<time>2016-04-06T09:53:59Z</time></trkpt>
<trkpt lat="24.950596" lon="102.203258">
<time>2016-04-06T09:54:00Z</time></trkpt>
<trkpt lat="24.950576" lon="102.203197">
<time>2016-04-06T09:54:01Z</time></trkpt>
<trkpt lat="24.950546" lon="102.203057">
<time>2016-04-06T09:54:02Z</time></trkpt>
<trkpt lat="24.950536" lon="102.202937">
<time>2016-04-06T09:54:03Z</time></trkpt>
<trkpt lat="24.950526" lon="102.202777">
<time>2016-04-06T09:54:04Z</time></trkpt>
<trkpt lat="24.950515" lon="102.202616">
<time>2016-04-06T09:54:05Z</time></trkpt>
<trkpt lat="24.950515" lon="102.202346">
<time>2016-04-06T09:54:06Z</time></trkpt>
<trkpt lat="24.950534" lon="102.202055">
<time>2016-04-06T09:54:07Z</time></trkpt>
<trkpt lat="24.950554" lon="102.201785">
<time>2016-04-06T09:54:08Z</time></trkpt>
<trkpt lat="24.950593" lon="102.201244">
<time>2016-04-06T09:54:09Z</time></trkpt>
<trkpt lat="24.950692" lon="102.200362">
<time>2016-04-06T09:54:10Z</time></trkpt>
<trkpt lat="24.950741" lon="102.199971">
<time>2016-04-06T09:54:11Z</time></trkpt>
<trkpt lat="24.950791" lon="102.199801">
<time>2016-04-06T09:54:12Z</time></trkpt>
<trkpt lat="24.950831" lon="102.199641">
<time>2016-04-06T09:54:13Z</time></trkpt>
<trkpt lat="24.950861" lon="102.19956">
<time>2016-04-06T09:54:14Z</time></trkpt>
<trkpt lat="24.95089" lon="102.19946">
<time>2016-04-06T09:54:15Z</time></trkpt>
<trkpt lat="24.95094" lon="102.19933">
<time>2016-04-06T09:54:16Z</time></trkpt>
<trkpt lat="24.95098" lon="102.19925">
<time>2016-04-06T09:54:17Z</time></trkpt>
<trkpt lat="24.95106" lon="102.19911">
<time>2016-04-06T09:54:18Z</time></trkpt>
<trkpt lat="24.95117" lon="102.198939">
<time>2016-04-06T09:54:19Z</time></trkpt>
<trkpt lat="24.951299" lon="102.198759">
<time>2016-04-06T09:54:20Z</time></trkpt>
<trkpt lat="24.951459" lon="102.198508">
<time>2016-04-06T09:54:21Z</time></trkpt>
<trkpt lat="24.951588" lon="102.198288">
<time>2016-04-06T09:54:22Z</time></trkpt>
<trkpt lat="24.951718" lon="102.198098">
<time>2016-04-06T09:54:23Z</time></trkpt>
<trkpt lat="24.951977" lon="102.197627">
<time>2016-04-06T09:54:24Z</time></trkpt>
<trkpt lat="24.952167" lon="102.197286">
<time>2016-04-06T09:54:25Z</time></trkpt>
<trkpt lat="24.952296" lon="102.197045">
<time>2016-04-06T09:54:26Z</time></trkpt>
<trkpt lat="24.952964" lon="102.195793">
<time>2016-04-06T09:54:27Z</time></trkpt>
<trkpt lat="24.953104" lon="102.195562">
<time>2016-04-06T09:54:28Z</time></trkpt>
<trkpt lat="24.953204" lon="102.195432">
<time>2016-04-06T09:54:29Z</time></trkpt>
<trkpt lat="24.953383" lon="102.195192">
<time>2016-04-06T09:54:30Z</time></trkpt>
<trkpt lat="24.953982" lon="102.19448">
<time>2016-04-06T09:54:31Z</time></trkpt>
<trkpt lat="24.954261" lon="102.19416">
<time>2016-04-06T09:54:32Z</time></trkpt>
<trkpt lat="24.954271" lon="102.19415">
<time>2016-04-06T09:54:33Z</time></trkpt>
<trkpt lat="24.954431" lon="102.193979">
<time>2016-04-06T09:54:34Z</time></trkpt>
<trkpt lat="24.954571" lon="102.193799">
<time>2016-04-06T09:54:35Z</time></trkpt>
<trkpt lat="24.9549" lon="102.193428">
<time>2016-04-06T09:54:36Z</time></trkpt>
<trkpt lat="24.95499" lon="102.193308">
<time>2016-04-06T09:54:37Z</time></trkpt>
<trkpt lat="24.95505" lon="102.193228">
<time>2016-04-06T09:54:38Z</time></trkpt>
<trkpt lat="24.95508" lon="102.193198">
<time>2016-04-06T09:54:39Z</time></trkpt>
<trkpt lat="24.955119" lon="102.193127">
<time>2016-04-06T09:54:40Z</time></trkpt>
<trkpt lat="24.955159" lon="102.193047">
<time>2016-04-06T09:54:41Z</time></trkpt>
<trkpt lat="24.955179" lon="102.192987">
<time>2016-04-06T09:54:42Z</time></trkpt>
<trkpt lat="24.955209" lon="102.192887">
<time>2016-04-06T09:54:43Z</time></trkpt>
<trkpt lat="24.955239" lon="102.192787">
<time>2016-04-06T09:54:44Z</time></trkpt>
<trkpt lat="24.955249" lon="102.192696">
<time>2016-04-06T09:54:45Z</time></trkpt>
<trkpt lat="24.955249" lon="102.192636">
<time>2016-04-06T09:54:46Z</time></trkpt>
<trkpt lat="24.955249" lon="102.192586">
<time>2016-04-06T09:54:47Z</time></trkpt>
<trkpt lat="24.955248" lon="102.192516">
<time>2016-04-06T09:54:48Z</time></trkpt>
<trkpt lat="24.955238" lon="102.192446">
<time>2016-04-06T09:54:49Z</time></trkpt>
<trkpt lat="24.955228" lon="102.192386">
<time>2016-04-06T09:54:50Z</time></trkpt>
<trkpt lat="24.955208" lon="102.192316">
<time>2016-04-06T09:54:51Z</time></trkpt>
<trkpt lat="24.955188" lon="102.192256">
<time>2016-04-06T09:54:52Z</time></trkpt>
<trkpt lat="24.955168" lon="102.192205">
<time>2016-04-06T09:54:53Z</time></trkpt>
<trkpt lat="24.955138" lon="102.192145">
<time>2016-04-06T09:54:54Z</time></trkpt>
<trkpt lat="24.955098" lon="102.192065">
<time>2016-04-06T09:54:55Z</time></trkpt>
<trkpt lat="24.955027" lon="102.191945">
<time>2016-04-06T09:54:56Z</time></trkpt>
<trkpt lat="24.954867" lon="102.191654">
<time>2016-04-06T09:54:57Z</time></trkpt>
<trkpt lat="24.954807" lon="102.191534">
<time>2016-04-06T09:54:58Z</time></trkpt>
<trkpt lat="24.954777" lon="102.191464">
<time>2016-04-06T09:54:59Z</time></trkpt>
<trkpt lat="24.954757" lon="102.191404">
<time>2016-04-06T09:55:00Z</time></trkpt>
<trkpt lat="24.954736" lon="102.191344">
<time>2016-04-06T09:55:01Z</time></trkpt>
<trkpt lat="24.954716" lon="102.191253">
<time>2016-04-06T09:55:02Z</time></trkpt>
<trkpt lat="24.954706" lon="102.191183">
<time>2016-04-06T09:55:03Z</time></trkpt>
<trkpt lat="24.954696" lon="102.191123">
<time>2016-04-06T09:55:04Z</time></trkpt>
<trkpt lat="24.954696" lon="102.191043">
<time>2016-04-06T09:55:05Z</time></trkpt>
<trkpt lat="24.954686" lon="102.190953">
<time>2016-04-06T09:55:06Z</time></trkpt>
<trkpt lat="24.954686" lon="102.190853">
<time>2016-04-06T09:55:07Z</time></trkpt>
<trkpt lat="24.954695" lon="102.190752">
<time>2016-04-06T09:55:08Z</time></trkpt>
<trkpt lat="24.954705" lon="102.190632">
<time>2016-04-06T09:55:09Z</time></trkpt>
<trkpt lat="24.954774" lon="102.18987">
<time>2016-04-06T09:55:10Z</time></trkpt>
<trkpt lat="24.954784" lon="102.1898">
<time>2016-04-06T09:55:11Z</time></trkpt>
<trkpt lat="24.954784" lon="102.18973">
<time>2016-04-06T09:55:12Z</time></trkpt>
<trkpt lat="24.954804" lon="102.18968">
<time>2016-04-06T09:55:13Z</time></trkpt>
<trkpt lat="24.954833" lon="102.1896">
<time>2016-04-06T09:55:14Z</time></trkpt>
<trkpt lat="24.954853" lon="102.18956">
<time>2016-04-06T09:55:15Z</time></trkpt>
<trkpt lat="24.954883" lon="102.18951">
<time>2016-04-06T09:55:16Z</time></trkpt>
<trkpt lat="24.954913" lon="102.18947">
<time>2016-04-06T09:55:17Z</time></trkpt>
<trkpt lat="24.954953" lon="102.18943">
<time>2016-04-06T09:55:18Z</time></trkpt>
<trkpt lat="24.954983" lon="102.189409">
<time>2016-04-06T09:55:19Z</time></trkpt>
<trkpt lat="24.955033" lon="102.189379">
<time>2016-04-06T09:55:20Z</time></trkpt>
<trkpt lat="24.955083" lon="102.189349">
<time>2016-04-06T09:55:21Z</time></trkpt>
<trkpt lat="24.955173" lon="102.189309">
<time>2016-04-06T09:55:22Z</time></trkpt>
<trkpt lat="24.955293" lon="102.189269">
<time>2016-04-06T09:55:23Z</time></trkpt>
<trkpt lat="24.956232" lon="102.188999">
<time>2016-04-06T09:55:24Z</time></trkpt>
<trkpt lat="24.956482" lon="102.188958">
<time>2016-04-06T09:55:25Z</time></trkpt>
<trkpt lat="24.956752" lon="102.188918">
<time>2016-04-06T09:55:26Z</time></trkpt>
<trkpt lat="24.957012" lon="102.188888">
<time>2016-04-06T09:55:27Z</time></trkpt>
<trkpt lat="24.957662" lon="102.188828">
<time>2016-04-06T09:55:28Z</time></trkpt>
<trkpt lat="24.957772" lon="102.188818">
<time>2016-04-06T09:55:29Z</time></trkpt>
<trkpt lat="24.957952" lon="102.188788">
<time>2016-04-06T09:55:30Z</time></trkpt>
<trkpt lat="24.958062" lon="102.188748">
<time>2016-04-06T09:55:31Z</time></trkpt>
<trkpt lat="24.958111" lon="102.188728">
<time>2016-04-06T09:55:32Z</time></trkpt>
<trkpt lat="24.958171" lon="102.188708">
<time>2016-04-06T09:55:33Z</time></trkpt>
<trkpt lat="24.958231" lon="102.188678">
<time>2016-04-06T09:55:34Z</time></trkpt>
<trkpt lat="24.958281" lon="102.188638">
<time>2016-04-06T09:55:35Z</time></trkpt>
<trkpt lat="24.958321" lon="102.188618">
<time>2016-04-06T09:55:36Z</time></trkpt>
<trkpt lat="24.958381" lon="102.188568">
<time>2016-04-06T09:55:37Z</time></trkpt>
<trkpt lat="24.958431" lon="102.188527">
<time>2016-04-06T09:55:38Z</time></trkpt>
<trkpt lat="24.958481" lon="102.188487">
<time>2016-04-06T09:55:39Z</time></trkpt>
<trkpt lat="24.958531" lon="102.188427">
<time>2016-04-06T09:55:40Z</time></trkpt>
<trkpt lat="24.958681" lon="102.188267">
<time>2016-04-06T09:55:41Z</time></trkpt>
<trkpt lat="24.95891" lon="102.187986">
<time>2016-04-06T09:55:42Z</time></trkpt>
<trkpt lat="24.95894" lon="102.187946">
<time>2016-04-06T09:55:43Z</time></trkpt>
<trkpt lat="24.959219" lon="102.187615">
<time>2016-04-06T09:55:44Z</time></trkpt>
<trkpt lat="24.959369" lon="102.187455">
<time>2016-04-06T09:55:45Z</time></trkpt>
<trkpt lat="24.959529" lon="102.187315">
<time>2016-04-06T09:55:46Z</time></trkpt>
<trkpt lat="24.959609" lon="102.187265">
<time>2016-04-06T09:55:47Z</time></trkpt>
<trkpt lat="24.959699" lon="102.187225">
<time>2016-04-06T09:55:48Z</time></trkpt>
<trkpt lat="24.959759" lon="102.187195">
<time>2016-04-06T09:55:49Z</time></trkpt>
<trkpt lat="24.959839" lon="102.187184">
<time>2016-04-06T09:55:50Z</time></trkpt>
<trkpt lat="24.959939" lon="102.187174">
<time>2016-04-06T09:55:51Z</time></trkpt>
<trkpt lat="24.960058" lon="102.187164">
<time>2016-04-06T09:55:52Z</time></trkpt>
<trkpt lat="24.960168" lon="102.187174">
<time>2016-04-06T09:55:53Z</time></trkpt>
<trkpt lat="24.960278" lon="102.187174">
<time>2016-04-06T09:55:54Z</time></trkpt>
<trkpt lat="24.960408" lon="102.187174">
<time>2016-04-06T09:55:55Z</time></trkpt>
<trkpt lat="24.960908" lon="102.187205">
<time>2016-04-06T09:55:56Z</time></trkpt>
<trkpt lat="24.961278" lon="102.187235">
<time>2016-04-06T09:55:57Z</time></trkpt>
<trkpt lat="24.961388" lon="102.187245">
<time>2016-04-06T09:55:58Z</time></trkpt>
<trkpt lat="24.961398" lon="102.187245">
<time>2016-04-06T09:55:59Z</time></trkpt>
<trkpt lat="24.961548" lon="102.187245">
<time>2016-04-06T09:56:00Z</time></trkpt>
<trkpt lat="24.961648" lon="102.187255">
<time>2016-04-06T09:56:01Z</time></trkpt>
<trkpt lat="24.962368" lon="102.187275">
<time>2016-04-06T09:56:02Z</time></trkpt>
<trkpt lat="24.962528" lon="102.187275">
<time>2016-04-06T09:56:03Z</time></trkpt>
<trkpt lat="24.962668" lon="102.187265">
<time>2016-04-06T09:56:04Z</time></trkpt>
<trkpt lat="24.962778" lon="102.187245">
<time>2016-04-06T09:56:05Z</time></trkpt>
<trkpt lat="24.962878" lon="102.187224">
<time>2016-04-06T09:56:06Z</time></trkpt>
<trkpt lat="24.962978" lon="102.187194">
<time>2016-04-06T09:56:07Z</time></trkpt>
<trkpt lat="24.963088" lon="102.187164">
<time>2016-04-06T09:56:08Z</time></trkpt>
<trkpt lat="24.963248" lon="102.187114">
<time>2016-04-06T09:56:09Z</time></trkpt>
<trkpt lat="24.963368" lon="102.187064">
<time>2016-04-06T09:56:10Z</time></trkpt>
<trkpt lat="24.963538" lon="102.186974">
<time>2016-04-06T09:56:11Z</time></trkpt>
<trkpt lat="24.963668" lon="102.186914">
<time>2016-04-06T09:56:12Z</time></trkpt>
<trkpt lat="24.963787" lon="102.186844">
<time>2016-04-06T09:56:13Z</time></trkpt>
<trkpt lat="24.963987" lon="102.186713">
<time>2016-04-06T09:56:14Z</time></trkpt>
<trkpt lat="24.964327" lon="102.186473">
<time>2016-04-06T09:56:15Z</time></trkpt>
<trkpt lat="24.965166" lon="102.185891">
<time>2016-04-06T09:56:16Z</time></trkpt>
<trkpt lat="24.965325" lon="102.185771">
<time>2016-04-06T09:56:17Z</time></trkpt>
<trkpt lat="24.965455" lon="102.185671">
<time>2016-04-06T09:56:18Z</time></trkpt>
<trkpt lat="24.965585" lon="102.185561">
<time>2016-04-06T09:56:19Z</time></trkpt>
<trkpt lat="24.965725" lon="102.18544">
<time>2016-04-06T09:56:20Z</time></trkpt>
<trkpt lat="24.965795" lon="102.18537">
<time>2016-04-06T09:56:21Z</time></trkpt>
<trkpt lat="24.965884" lon="102.18527">
<time>2016-04-06T09:56:22Z</time></trkpt>
<trkpt lat="24.966034" lon="102.1851">
<time>2016-04-06T09:56:23Z</time></trkpt>
<trkpt lat="24.966204" lon="102.184859">
<time>2016-04-06T09:56:24Z</time></trkpt>
<trkpt lat="24.966333" lon="102.184689">
<time>2016-04-06T09:56:25Z</time></trkpt>
<trkpt lat="24.967101" lon="102.183697">
<time>2016-04-06T09:56:26Z</time></trkpt>
<trkpt lat="24.96763" lon="102.183005">
<time>2016-04-06T09:56:27Z</time></trkpt>
<trkpt lat="24.967949" lon="102.182584">
<time>2016-04-06T09:56:28Z</time></trkpt>
<trkpt lat="24.968039" lon="102.182474">
<time>2016-04-06T09:56:29Z</time></trkpt>
<trkpt lat="24.968218" lon="102.182213">
<time>2016-04-06T09:56:30Z</time></trkpt>
<trkpt lat="24.968268" lon="102.182123">
<time>2016-04-06T09:56:31Z</time></trkpt>
<trkpt lat="24.968338" lon="102.182003">
<time>2016-04-06T09:56:32Z</time></trkpt>
<trkpt lat="24.968408" lon="102.181852">
<time>2016-04-06T09:56:33Z</time></trkpt>
<trkpt lat="24.968487" lon="102.181652">
<time>2016-04-06T09:56:34Z</time></trkpt>
<trkpt lat="24.968527" lon="102.181471">
<time>2016-04-06T09:56:35Z</time></trkpt>
<trkpt lat="24.968547" lon="102.181381">
<time>2016-04-06T09:56:36Z</time></trkpt>
<trkpt lat="24.968567" lon="102.181271">
<time>2016-04-06T09:56:37Z</time></trkpt>
<trkpt lat="24.968577" lon="102.181161">
<time>2016-04-06T09:56:38Z</time></trkpt>
<trkpt lat="24.968576" lon="102.181041">
<time>2016-04-06T09:56:39Z</time></trkpt>
<trkpt lat="24.968576" lon="102.18094">
<time>2016-04-06T09:56:40Z</time></trkpt>
<trkpt lat="24.968566" lon="102.18082">
<time>2016-04-06T09:56:41Z</time></trkpt>
<trkpt lat="24.968556" lon="102.18072">
<time>2016-04-06T09:56:42Z</time></trkpt>
<trkpt lat="24.968525" lon="102.180589">
<time>2016-04-06T09:56:43Z</time></trkpt>
<trkpt lat="24.968505" lon="102.180469">
<time>2016-04-06T09:56:44Z</time></trkpt>
<trkpt lat="24.968475" lon="102.180369">
<time>2016-04-06T09:56:45Z</time></trkpt>
<trkpt lat="24.968435" lon="102.180249">
<time>2016-04-06T09:56:46Z</time></trkpt>
<trkpt lat="24.968375" lon="102.180118">
<time>2016-04-06T09:56:47Z</time></trkpt>
<trkpt lat="24.968324" lon="102.180028">
<time>2016-04-06T09:56:48Z</time></trkpt>
<trkpt lat="24.968274" lon="102.179938">
<time>2016-04-06T09:56:49Z</time></trkpt>
<trkpt lat="24.968214" lon="102.179838">
<time>2016-04-06T09:56:50Z</time></trkpt>
<trkpt lat="24.968064" lon="102.179617">
<time>2016-04-06T09:56:51Z</time></trkpt>
<trkpt lat="24.967873" lon="102.179377">
<time>2016-04-06T09:56:52Z</time></trkpt>
<trkpt lat="24.967673" lon="102.179136">
<time>2016-04-06T09:56:53Z</time></trkpt>
<trkpt lat="24.967472" lon="102.178896">
<time>2016-04-06T09:56:54Z</time></trkpt>
<trkpt lat="24.967272" lon="102.178645">
<time>2016-04-06T09:56:55Z</time></trkpt>
<trkpt lat="24.967182" lon="102.178535">
<time>2016-04-06T09:56:56Z</time></trkpt>
<trkpt lat="24.967092" lon="102.178395">
<time>2016-04-06T09:56:57Z</time></trkpt>
<trkpt lat="24.967011" lon="102.178264">
<time>2016-04-06T09:56:58Z</time></trkpt>
<trkpt lat="24.966941" lon="102.178124">
<time>2016-04-06T09:56:59Z</time></trkpt>
<trkpt lat="24.966921" lon="102.178064">
<time>2016-04-06T09:57:00Z</time></trkpt>
<trkpt lat="24.966901" lon="102.178004">
<time>2016-04-06T09:57:01Z</time></trkpt>
<trkpt lat="24.966881" lon="102.177954">
<time>2016-04-06T09:57:02Z</time></trkpt>
<trkpt lat="24.966871" lon="102.177913">
<time>2016-04-06T09:57:03Z</time></trkpt>
<trkpt lat="24.966861" lon="102.177863">
<time>2016-04-06T09:57:04Z</time></trkpt>
<trkpt lat="24.96685" lon="102.177803">
<time>2016-04-06T09:57:05Z</time></trkpt>
<trkpt lat="24.96684" lon="102.177763">
<time>2016-04-06T09:57:06Z</time></trkpt>
<trkpt lat="24.96684" lon="102.177723">
<time>2016-04-06T09:57:07Z</time></trkpt>
<trkpt lat="24.96684" lon="102.177683">
<time>2016-04-06T09:57:08Z</time></trkpt>
<trkpt lat="24.96684" lon="102.177643">
<time>2016-04-06T09:57:09Z</time></trkpt>
<trkpt lat="24.96684" lon="102.177583">
<time>2016-04-06T09:57:10Z</time></trkpt>
<trkpt lat="24.96684" lon="102.177533">
<time>2016-04-06T09:57:11Z</time></trkpt>
<trkpt lat="24.96685" lon="102.177502">
<time>2016-04-06T09:57:12Z</time></trkpt>
<trkpt lat="24.96686" lon="102.177432">
<time>2016-04-06T09:57:13Z</time></trkpt>
<trkpt lat="24.96688" lon="102.177392">
<time>2016-04-06T09:57:14Z</time></trkpt>
<trkpt lat="24.9669" lon="102.177342">
<time>2016-04-06T09:57:15Z</time></trkpt>
<trkpt lat="24.96692" lon="102.177312">
<time>2016-04-06T09:57:16Z</time></trkpt>
<trkpt lat="24.966949" lon="102.177262">
<time>2016-04-06T09:57:17Z</time></trkpt>
<trkpt lat="24.966989" lon="102.177202">
<time>2016-04-06T09:57:18Z</time></trkpt>
<trkpt lat="24.967049" lon="102.177132">
<time>2016-04-06T09:57:19Z</time></trkpt>
<trkpt lat="24.967129" lon="102.177021">
<time>2016-04-06T09:57:20Z</time></trkpt>
<trkpt lat="24.967179" lon="102.176961">
<time>2016-04-06T09:57:21Z</time></trkpt>
<trkpt lat="24.967249" lon="102.176871">
<time>2016-04-06T09:57:22Z</time></trkpt>
<trkpt lat="24.967318" lon="102.176761">
<time>2016-04-06T09:57:23Z</time></trkpt>
<trkpt lat="24.967388" lon="102.17664">
<time>2016-04-06T09:57:24Z</time></trkpt>
<trkpt lat="24.967448" lon="102.17652">
<time>2016-04-06T09:57:25Z</time></trkpt>
<trkpt lat="24.967697" lon="102.175929">
<time>2016-04-06T09:57:26Z</time></trkpt>
<trkpt lat="24.967886" lon="102.175468">
<time>2016-04-06T09:57:27Z</time></trkpt>
<trkpt lat="24.967946" lon="102.175307">
<time>2016-04-06T09:57:28Z</time></trkpt>
<trkpt lat="24.967985" lon="102.175167">
<time>2016-04-06T09:57:29Z</time></trkpt>
<trkpt lat="24.968005" lon="102.175097">
<time>2016-04-06T09:57:30Z</time></trkpt>
<trkpt lat="24.968015" lon="102.175047">
<time>2016-04-06T09:57:31Z</time></trkpt>
<trkpt lat="24.968015" lon="102.174997">
<time>2016-04-06T09:57:32Z</time></trkpt>
<trkpt lat="24.968015" lon="102.174967">
<time>2016-04-06T09:57:33Z</time></trkpt>
<trkpt lat="24.968005" lon="102.174916">
<time>2016-04-06T09:57:34Z</time></trkpt>
<trkpt lat="24.967995" lon="102.174876">
<time>2016-04-06T09:57:35Z</time></trkpt>
<trkpt lat="24.967975" lon="102.174826">
<time>2016-04-06T09:57:36Z</time></trkpt>
<trkpt lat="24.967945" lon="102.174776">
<time>2016-04-06T09:57:37Z</time></trkpt>
<trkpt lat="24.967905" lon="102.174736">
<time>2016-04-06T09:57:38Z</time></trkpt>
<trkpt lat="24.967845" lon="102.174676">
<time>2016-04-06T09:57:39Z</time></trkpt>
<trkpt lat="24.967744" lon="102.174606">
<time>2016-04-06T09:57:40Z</time></trkpt>
<trkpt lat="24.967634" lon="102.174526">
<time>2016-04-06T09:57:41Z</time></trkpt>
<trkpt lat="24.967174" lon="102.174245">
<time>2016-04-06T09:57:42Z</time></trkpt>
<trkpt lat="24.966903" lon="102.174075">
<time>2016-04-06T09:57:43Z</time></trkpt>
<trkpt lat="24.966663" lon="102.173914">
<time>2016-04-06T09:57:44Z</time></trkpt>
<trkpt lat="24.966253" lon="102.173614">
<time>2016-04-06T09:57:45Z</time></trkpt>
<trkpt lat="24.966042" lon="102.173463">
<time>2016-04-06T09:57:46Z</time></trkpt>
<trkpt lat="24.965882" lon="102.173363">
<time>2016-04-06T09:57:47Z</time></trkpt>
<trkpt lat="24.965612" lon="102.173213">
<time>2016-04-06T09:57:48Z</time></trkpt>
<trkpt lat="24.964821" lon="102.172842">
<time>2016-04-06T09:57:49Z</time></trkpt>
<trkpt lat="24.964491" lon="102.172681">
<time>2016-04-06T09:57:50Z</time></trkpt>
<trkpt lat="24.964401" lon="102.172631">
<time>2016-04-06T09:57:51Z</time></trkpt>
<trkpt lat="24.964351" lon="102.172601">
<time>2016-04-06T09:57:52Z</time></trkpt>
<trkpt lat="24.964311" lon="102.172561">
<time>2016-04-06T09:57:53Z</time></trkpt>
<trkpt lat="24.964251" lon="102.172501">
<time>2016-04-06T09:57:54Z</time></trkpt>
<trkpt lat="24.964211" lon="102.172451">
<time>2016-04-06T09:57:55Z</time></trkpt>
<trkpt lat="24.964191" lon="102.172401">
<time>2016-04-06T09:57:56Z</time></trkpt>
<trkpt lat="24.964161" lon="102.172341">
<time>2016-04-06T09:57:57Z</time></trkpt>
<trkpt lat="24.96414" lon="102.172301">
<time>2016-04-06T09:57:58Z</time></trkpt>
<trkpt lat="24.96413" lon="102.17226">
<time>2016-04-06T09:57:59Z</time></trkpt>
<trkpt lat="24.96411" lon="102.1722">
<time>2016-04-06T09:58:00Z</time></trkpt>
<trkpt lat="24.96407" lon="102.17204">
<time>2016-04-06T09:58:01Z</time></trkpt>
<trkpt lat="24.963909" lon="102.171238">
<time>2016-04-06T09:58:02Z</time></trkpt>
<trkpt lat="24.963898" lon="102.171208">
<time>2016-04-06T09:58:03Z</time></trkpt>
<trkpt lat="24.963868" lon="102.171038">
<time>2016-04-06T09:58:04Z</time></trkpt>
<trkpt lat="24.963848" lon="102.170927">
<time>2016-04-06T09:58:05Z</time></trkpt>
<trkpt lat="24.963828" lon="102.170827">
<time>2016-04-06T09:58:06Z</time></trkpt>
<trkpt lat="24.963828" lon="102.170747">
<time>2016-04-06T09:58:07Z</time></trkpt>
<trkpt lat="24.963827" lon="102.170677">
<time>2016-04-06T09:58:08Z</time></trkpt>
<trkpt lat="24.963827" lon="102.170617">
<time>2016-04-06T09:58:09Z</time></trkpt>
<trkpt lat="24.963837" lon="102.170557">
<time>2016-04-06T09:58:10Z</time></trkpt>
<trkpt lat="24.963847" lon="102.170516">
<time>2016-04-06T09:58:11Z</time></trkpt>
<trkpt lat="24.963867" lon="102.170476">
<time>2016-04-06T09:58:12Z</time></trkpt>
<trkpt lat="24.963877" lon="102.170436">
<time>2016-04-06T09:58:13Z</time></trkpt>
<trkpt lat="24.963897" lon="102.170406">
<time>2016-04-06T09:58:14Z</time></trkpt>
<trkpt lat="24.963917" lon="102.170376">
<time>2016-04-06T09:58:15Z</time></trkpt>
<trkpt lat="24.963927" lon="102.170356">
<time>2016-04-06T09:58:16Z</time></trkpt>
<trkpt lat="24.963957" lon="102.170326">
<time>2016-04-06T09:58:17Z</time></trkpt>
<trkpt lat="24.963997" lon="102.170296">
<time>2016-04-06T09:58:18Z</time></trkpt>
<trkpt lat="24.964047" lon="102.170256">
<time>2016-04-06T09:58:19Z</time></trkpt>
<trkpt lat="24.964137" lon="102.170206">
<time>2016-04-06T09:58:20Z</time></trkpt>
<trkpt lat="24.964236" lon="102.170156">
<time>2016-04-06T09:58:21Z</time></trkpt>
<trkpt lat="24.964446" lon="102.170065">
<time>2016-04-06T09:58:22Z</time></trkpt>
<trkpt lat="24.964656" lon="102.169975">
<time>2016-04-06T09:58:23Z</time></trkpt>
<trkpt lat="24.965066" lon="102.169785">
<time>2016-04-06T09:58:24Z</time></trkpt>
<trkpt lat="24.965186" lon="102.169735">
<time>2016-04-06T09:58:25Z</time></trkpt>
<trkpt lat="24.965565" lon="102.169594">
<time>2016-04-06T09:58:26Z</time></trkpt>
<trkpt lat="24.965665" lon="102.169554">
<time>2016-04-06T09:58:27Z</time></trkpt>
<trkpt lat="24.965745" lon="102.169534">
<time>2016-04-06T09:58:28Z</time></trkpt>
<trkpt lat="24.965815" lon="102.169514">
<time>2016-04-06T09:58:29Z</time></trkpt>
<trkpt lat="24.965915" lon="102.169504">
<time>2016-04-06T09:58:30Z</time></trkpt>
<trkpt lat="24.966015" lon="102.169494">
<time>2016-04-06T09:58:31Z</time></trkpt>
<trkpt lat="24.966155" lon="102.169484">
<time>2016-04-06T09:58:32Z</time></trkpt>
<trkpt lat="24.966345" lon="102.169494">
<time>2016-04-06T09:58:33Z</time></trkpt>
<trkpt lat="24.970005" lon="102.169574">
<time>2016-04-06T09:58:34Z</time></trkpt>
<trkpt lat="24.970915" lon="102.169594">
<time>2016-04-06T09:58:35Z</time></trkpt>
<trkpt lat="24.971145" lon="102.169614">
<time>2016-04-06T09:58:36Z</time></trkpt>
<trkpt lat="24.971285" lon="102.169624">
<time>2016-04-06T09:58:37Z</time></trkpt>
<trkpt lat="24.971375" lon="102.169634">
<time>2016-04-06T09:58:38Z</time></trkpt>
<trkpt lat="24.971445" lon="102.169654">
<time>2016-04-06T09:58:39Z</time></trkpt>
<trkpt lat="24.971555" lon="102.169684">
<time>2016-04-06T09:58:40Z</time></trkpt>
<trkpt lat="24.971675" lon="102.169724">
<time>2016-04-06T09:58:41Z</time></trkpt>
<trkpt lat="24.971805" lon="102.169774">
<time>2016-04-06T09:58:42Z</time></trkpt>
<trkpt lat="24.971935" lon="102.169835">
<time>2016-04-06T09:58:43Z</time></trkpt>
<trkpt lat="24.972005" lon="102.169865">
<time>2016-04-06T09:58:44Z</time></trkpt>
<trkpt lat="24.972145" lon="102.169935">
<time>2016-04-06T09:58:45Z</time></trkpt>
<trkpt lat="24.972375" lon="102.170055">
<time>2016-04-06T09:58:46Z</time></trkpt>
<trkpt lat="24.972515" lon="102.170135">
<time>2016-04-06T09:58:47Z</time></trkpt>
<trkpt lat="24.973656" lon="102.170787">
<time>2016-04-06T09:58:48Z</time></trkpt>
<trkpt lat="24.973737" lon="102.170837">
<time>2016-04-06T09:58:49Z</time></trkpt>
<trkpt lat="24.973947" lon="102.170947">
<time>2016-04-06T09:58:50Z</time></trkpt>
<trkpt lat="24.974397" lon="102.171188">
<time>2016-04-06T09:58:51Z</time></trkpt>
<trkpt lat="24.974577" lon="102.171268">
<time>2016-04-06T09:58:52Z</time></trkpt>
<trkpt lat="24.974767" lon="102.171348">
<time>2016-04-06T09:58:53Z</time></trkpt>
<trkpt lat="24.974917" lon="102.171398">
<time>2016-04-06T09:58:54Z</time></trkpt>
<trkpt lat="24.975077" lon="102.171448">
<time>2016-04-06T09:58:55Z</time></trkpt>
<trkpt lat="24.975158" lon="102.171458">
<time>2016-04-06T09:58:56Z</time></trkpt>
<trkpt lat="24.975438" lon="102.171528">
<time>2016-04-06T09:58:57Z</time></trkpt>
<trkpt lat="24.975738" lon="102.171599">
<time>2016-04-06T09:58:58Z</time></trkpt>
<trkpt lat="24.976098" lon="102.171669">
<time>2016-04-06T09:58:59Z</time></trkpt>
<trkpt lat="24.978048" lon="102.171909">
<time>2016-04-06T09:59:00Z</time></trkpt>
<trkpt lat="24.978558" lon="102.171969">
<time>2016-04-06T09:59:01Z</time></trkpt>
<trkpt lat="24.979088" lon="102.17204">
<time>2016-04-06T09:59:02Z</time></trkpt>
<trkpt lat="24.979398" lon="102.17206">
<time>2016-04-06T09:59:03Z</time></trkpt>
<trkpt lat="24.979528" lon="102.17206">
<time>2016-04-06T09:59:04Z</time></trkpt>
<trkpt lat="24.979618" lon="102.17206">
<time>2016-04-06T09:59:05Z</time></trkpt>
<trkpt lat="24.979748" lon="102.17205">
<time>2016-04-06T09:59:06Z</time></trkpt>
<trkpt lat="24.979858" lon="102.172039">
<time>2016-04-06T09:59:07Z</time></trkpt>
<trkpt lat="24.979868" lon="102.172039">
<time>2016-04-06T09:59:08Z</time></trkpt>
<trkpt lat="24.979868" lon="102.172039">
<time>2016-04-06T09:59:09Z</time></trkpt>
<trkpt lat="24.980109" lon="102.1724">
<time>2016-04-06T09:59:10Z</time></trkpt>
<trkpt lat="24.980109" lon="102.1724">
<time>2016-04-06T09:59:11Z</time></trkpt>
<trkpt lat="24.980759" lon="102.17236">
<time>2016-04-06T09:59:12Z</time></trkpt>
<trkpt lat="24.981418" lon="102.1723">
<time>2016-04-06T09:59:13Z</time></trkpt>
<trkpt lat="24.981838" lon="102.17225">
<time>2016-04-06T09:59:14Z</time></trkpt>
<trkpt lat="24.982458" lon="102.1721">
<time>2016-04-06T09:59:15Z</time></trkpt>
<trkpt lat="24.983077" lon="102.171919">
<time>2016-04-06T09:59:16Z</time></trkpt>
<trkpt lat="24.983687" lon="102.171638">
<time>2016-04-06T09:59:17Z</time></trkpt>
<trkpt lat="24.984486" lon="102.171237">
<time>2016-04-06T09:59:18Z</time></trkpt>
<trkpt lat="24.985874" lon="102.170365">
<time>2016-04-06T09:59:19Z</time></trkpt>
<trkpt lat="24.987102" lon="102.169584">
<time>2016-04-06T09:59:20Z</time></trkpt>
<trkpt lat="24.987332" lon="102.169453">
<time>2016-04-06T09:59:21Z</time></trkpt>
<trkpt lat="24.987512" lon="102.169383">
<time>2016-04-06T09:59:22Z</time></trkpt>
<trkpt lat="24.987742" lon="102.169283">
<time>2016-04-06T09:59:23Z</time></trkpt>
<trkpt lat="24.988022" lon="102.169223">
<time>2016-04-06T09:59:24Z</time></trkpt>
<trkpt lat="24.99149" lon="102.168471">
<time>2016-04-06T09:59:25Z</time></trkpt>
<trkpt lat="24.992249" lon="102.16822">
<time>2016-04-06T09:59:26Z</time></trkpt>
<trkpt lat="24.992519" lon="102.16809">
<time>2016-04-06T09:59:27Z</time></trkpt>
<trkpt lat="24.992779" lon="102.167899">
<time>2016-04-06T09:59:28Z</time></trkpt>
<trkpt lat="24.993188" lon="102.167519">
<time>2016-04-06T09:59:29Z</time></trkpt>
<trkpt lat="24.993697" lon="102.166967">
<time>2016-04-06T09:59:30Z</time></trkpt>
<trkpt lat="24.994066" lon="102.166657">
<time>2016-04-06T09:59:31Z</time></trkpt>
<trkpt lat="24.994286" lon="102.166476">
<time>2016-04-06T09:59:32Z</time></trkpt>
<trkpt lat="24.994505" lon="102.166356">
<time>2016-04-06T09:59:33Z</time></trkpt>
<trkpt lat="24.994685" lon="102.166276">
<time>2016-04-06T09:59:34Z</time></trkpt>
<trkpt lat="24.994875" lon="102.166226">
<time>2016-04-06T09:59:35Z</time></trkpt>
<trkpt lat="24.995055" lon="102.166185">
<time>2016-04-06T09:59:36Z</time></trkpt>
<trkpt lat="24.995395" lon="102.166155">
<time>2016-04-06T09:59:37Z</time></trkpt>
<trkpt lat="24.995885" lon="102.166155">
<time>2016-04-06T09:59:38Z</time></trkpt>
<trkpt lat="24.996825" lon="102.166195">
<time>2016-04-06T09:59:39Z</time></trkpt>
<trkpt lat="24.998165" lon="102.166286">
<time>2016-04-06T09:59:40Z</time></trkpt>
<trkpt lat="24.998365" lon="102.166296">
<time>2016-04-06T09:59:41Z</time></trkpt>
<trkpt lat="24.998365" lon="102.166296">
<time>2016-04-06T09:59:42Z</time></trkpt>
<trkpt lat="24.999025" lon="102.166516">
<time>2016-04-06T09:59:43Z</time></trkpt>
<trkpt lat="24.999295" lon="102.166516">
<time>2016-04-06T09:59:44Z</time></trkpt>
<trkpt lat="25.000015" lon="102.166686">
<time>2016-04-06T09:59:45Z</time></trkpt>
<trkpt lat="25.000546" lon="102.166817">
<time>2016-04-06T09:59:46Z</time></trkpt>
<trkpt lat="25.001176" lon="102.166907">
<time>2016-04-06T09:59:47Z</time></trkpt>
<trkpt lat="25.001616" lon="102.166897">
<time>2016-04-06T09:59:48Z</time></trkpt>
<trkpt lat="25.001696" lon="102.166917">
<time>2016-04-06T09:59:49Z</time></trkpt>
<trkpt lat="25.001756" lon="102.166937">
<time>2016-04-06T09:59:50Z</time></trkpt>
<trkpt lat="25.001756" lon="102.166937">
<time>2016-04-06T09:59:51Z</time></trkpt>
<trkpt lat="25.001946" lon="102.166887">
<time>2016-04-06T09:59:52Z</time></trkpt>
<trkpt lat="25.001975" lon="102.166877">
<time>2016-04-06T09:59:53Z</time></trkpt>
<trkpt lat="25.002025" lon="102.166867">
<time>2016-04-06T09:59:54Z</time></trkpt>
<trkpt lat="25.002115" lon="102.166877">
<time>2016-04-06T09:59:55Z</time></trkpt>
<trkpt lat="25.002165" lon="102.166867">
<time>2016-04-06T09:59:56Z</time></trkpt>
<trkpt lat="25.002205" lon="102.166847">
<time>2016-04-06T09:59:57Z</time></trkpt>
<trkpt lat="25.002455" lon="102.166606">
<time>2016-04-06T09:59:58Z</time></trkpt>
<trkpt lat="25.002535" lon="102.166476">
<time>2016-04-06T09:59:59Z</time></trkpt>
<trkpt lat="25.002595" lon="102.166416">
<time>2016-04-06T10:00:00Z</time></trkpt>
<trkpt lat="25.002674" lon="102.166326">
<time>2016-04-06T10:00:01Z</time></trkpt>
<trkpt lat="25.002874" lon="102.166145">
<time>2016-04-06T10:00:02Z</time></trkpt>
<trkpt lat="25.002944" lon="102.166085">
<time>2016-04-06T10:00:03Z</time></trkpt>
<trkpt lat="25.003333" lon="102.165443">
<time>2016-04-06T10:00:04Z</time></trkpt>
<trkpt lat="25.003462" lon="102.165233">
<time>2016-04-06T10:00:05Z</time></trkpt>
<trkpt lat="25.003622" lon="102.165063">
<time>2016-04-06T10:00:06Z</time></trkpt>
<trkpt lat="25.003891" lon="102.164852">
<time>2016-04-06T10:00:07Z</time></trkpt>
<trkpt lat="25.004121" lon="102.164662">
<time>2016-04-06T10:00:08Z</time></trkpt>
<trkpt lat="25.004231" lon="102.164571">
<time>2016-04-06T10:00:09Z</time></trkpt>
<trkpt lat="25.004311" lon="102.164441">
<time>2016-04-06T10:00:10Z</time></trkpt>
<trkpt lat="25.00452" lon="102.1639">
<time>2016-04-06T10:00:11Z</time></trkpt>
<trkpt lat="25.004649" lon="102.163609">
<time>2016-04-06T10:00:12Z</time></trkpt>
<trkpt lat="25.004958" lon="102.162847">
<time>2016-04-06T10:00:13Z</time></trkpt>
<trkpt lat="25.005047" lon="102.162737">
<time>2016-04-06T10:00:14Z</time></trkpt>
<trkpt lat="25.005107" lon="102.162647">
<time>2016-04-06T10:00:15Z</time></trkpt>
<trkpt lat="25.005257" lon="102.162577">
<time>2016-04-06T10:00:16Z</time></trkpt>
<trkpt lat="25.005497" lon="102.162507">
<time>2016-04-06T10:00:17Z</time></trkpt>
<trkpt lat="25.006127" lon="102.162487">
<time>2016-04-06T10:00:18Z</time></trkpt>
<trkpt lat="25.006317" lon="102.162436">
<time>2016-04-06T10:00:19Z</time></trkpt>
<trkpt lat="25.006836" lon="102.162186">
<time>2016-04-06T10:00:20Z</time></trkpt>
<trkpt lat="25.007325" lon="102.161855">
<time>2016-04-06T10:00:21Z</time></trkpt>
<trkpt lat="25.008603" lon="102.160752">
<time>2016-04-06T10:00:22Z</time></trkpt>
<trkpt lat="25.008603" lon="102.160752">
<time>2016-04-06T10:00:23Z</time></trkpt>
<trkpt lat="25.008623" lon="102.160752">
<time>2016-04-06T10:00:24Z</time></trkpt>
<trkpt lat="25.008663" lon="102.160752">
<time>2016-04-06T10:00:25Z</time></trkpt>
<trkpt lat="25.008703" lon="102.160752">
<time>2016-04-06T10:00:26Z</time></trkpt>
<trkpt lat="25.008763" lon="102.160752">
<time>2016-04-06T10:00:27Z</time></trkpt>
<trkpt lat="25.008863" lon="102.160752">
<time>2016-04-06T10:00:28Z</time></trkpt>
<trkpt lat="25.008953" lon="102.160763">
<time>2016-04-06T10:00:29Z</time></trkpt>
<trkpt lat="25.009063" lon="102.160773">
<time>2016-04-06T10:00:30Z</time></trkpt>
<trkpt lat="25.009133" lon="102.160783">
<time>2016-04-06T10:00:31Z</time></trkpt>
<trkpt lat="25.009193" lon="102.160773">
<time>2016-04-06T10:00:32Z</time></trkpt>
<trkpt lat="25.009253" lon="102.160762">
<time>2016-04-06T10:00:33Z</time></trkpt>
<trkpt lat="25.009303" lon="102.160752">
<time>2016-04-06T10:00:34Z</time></trkpt>
<trkpt lat="25.009343" lon="102.160732">
<time>2016-04-06T10:00:35Z</time></trkpt>
<trkpt lat="25.009383" lon="102.160712">
<time>2016-04-06T10:00:36Z</time></trkpt>
<trkpt lat="25.009423" lon="102.160682">
<time>2016-04-06T10:00:37Z</time></trkpt>
<trkpt lat="25.009463" lon="102.160652">
<time>2016-04-06T10:00:38Z</time></trkpt>
<trkpt lat="25.009503" lon="102.160612">
<time>2016-04-06T10:00:39Z</time></trkpt>
<trkpt lat="25.009553" lon="102.160562">
<time>2016-04-06T10:00:40Z</time></trkpt>
<trkpt lat="25.009653" lon="102.160452">
<time>2016-04-06T10:00:41Z</time></trkpt>
<trkpt lat="25.009812" lon="102.160261">
<time>2016-04-06T10:00:42Z</time></trkpt>
<trkpt lat="25.010361" lon="102.15959">
<time>2016-04-06T10:00:43Z</time></trkpt>
<trkpt lat="25.01055" lon="102.159359">
<time>2016-04-06T10:00:44Z</time></trkpt>
<trkpt lat="25.01072" lon="102.159159">
<time>2016-04-06T10:00:45Z</time></trkpt>
<trkpt lat="25.01077" lon="102.159119">
<time>2016-04-06T10:00:46Z</time></trkpt>
<trkpt lat="25.01082" lon="102.159059">
<time>2016-04-06T10:00:47Z</time></trkpt>
<trkpt lat="25.01089" lon="102.159008">
<time>2016-04-06T10:00:48Z</time></trkpt>
<trkpt lat="25.01096" lon="102.158968">
<time>2016-04-06T10:00:49Z</time></trkpt>
<trkpt lat="25.01101" lon="102.158938">
<time>2016-04-06T10:00:50Z</time></trkpt>
<trkpt lat="25.01107" lon="102.158908">
<time>2016-04-06T10:00:51Z</time></trkpt>
<trkpt lat="25.011159" lon="102.158858">
<time>2016-04-06T10:00:52Z</time></trkpt>
<trkpt lat="25.011659" lon="102.158628">
<time>2016-04-06T10:00:53Z</time></trkpt>
<trkpt lat="25.011749" lon="102.158577">
<time>2016-04-06T10:00:54Z</time></trkpt>
<trkpt lat="25.011809" lon="102.158527">
<time>2016-04-06T10:00:55Z</time></trkpt>
<trkpt lat="25.011849" lon="102.158497">
<time>2016-04-06T10:00:56Z</time></trkpt>
<trkpt lat="25.011889" lon="102.158457">
<time>2016-04-06T10:00:57Z</time></trkpt>
<trkpt lat="25.011928" lon="102.158407">
<time>2016-04-06T10:00:58Z</time></trkpt>
<trkpt lat="25.011958" lon="102.158357">
<time>2016-04-06T10:00:59Z</time></trkpt>
<trkpt lat="25.011998" lon="102.158307">
<time>2016-04-06T10:01:00Z</time></trkpt>
<trkpt lat="25.012028" lon="102.158257">
<time>2016-04-06T10:01:01Z</time></trkpt>
<trkpt lat="25.012068" lon="102.158166">
<time>2016-04-06T10:01:02Z</time></trkpt>
<trkpt lat="25.012098" lon="102.158066">
<time>2016-04-06T10:01:03Z</time></trkpt>
<trkpt lat="25.012128" lon="102.157956">
<time>2016-04-06T10:01:04Z</time></trkpt>
<trkpt lat="25.012167" lon="102.157806">
<time>2016-04-06T10:01:05Z</time></trkpt>
<trkpt lat="25.012197" lon="102.157715">
<time>2016-04-06T10:01:06Z</time></trkpt>
<trkpt lat="25.012267" lon="102.157505">
<time>2016-04-06T10:01:07Z</time></trkpt>
<trkpt lat="25.012287" lon="102.157425">
<time>2016-04-06T10:01:08Z</time></trkpt>
<trkpt lat="25.012307" lon="102.157385">
<time>2016-04-06T10:01:09Z</time></trkpt>
<trkpt lat="25.012326" lon="102.157335">
<time>2016-04-06T10:01:10Z</time></trkpt>
<trkpt lat="25.012356" lon="102.157284">
<time>2016-04-06T10:01:11Z</time></trkpt>
<trkpt lat="25.012376" lon="102.157234">
<time>2016-04-06T10:01:12Z</time></trkpt>
<trkpt lat="25.012396" lon="102.157204">
<time>2016-04-06T10:01:13Z</time></trkpt>
<trkpt lat="25.012406" lon="102.157174">
<time>2016-04-06T10:01:14Z</time></trkpt>
<trkpt lat="25.012446" lon="102.157104">
<time>2016-04-06T10:01:15Z</time></trkpt>
<trkpt lat="25.012586" lon="102.156864">
<time>2016-04-06T10:01:16Z</time></trkpt>
<trkpt lat="25.013004" lon="102.156152">
<time>2016-04-06T10:01:17Z</time></trkpt>
<trkpt lat="25.013283" lon="102.155681">
<time>2016-04-06T10:01:18Z</time></trkpt>
<trkpt lat="25.013333" lon="102.155581">
<time>2016-04-06T10:01:19Z</time></trkpt>
<trkpt lat="25.013423" lon="102.15542">
<time>2016-04-06T10:01:20Z</time></trkpt>
<trkpt lat="25.013543" lon="102.15523">
<time>2016-04-06T10:01:21Z</time></trkpt>
<trkpt lat="25.013622" lon="102.15511">
<time>2016-04-06T10:01:22Z</time></trkpt>
<trkpt lat="25.013702" lon="102.155009">
<time>2016-04-06T10:01:23Z</time></trkpt>
<trkpt lat="25.013762" lon="102.154929">
<time>2016-04-06T10:01:24Z</time></trkpt>
<trkpt lat="25.013852" lon="102.154829">
<time>2016-04-06T10:01:25Z</time></trkpt>
<trkpt lat="25.013982" lon="102.154709">
<time>2016-04-06T10:01:26Z</time></trkpt>
<trkpt lat="25.014091" lon="102.154618">
<time>2016-04-06T10:01:27Z</time></trkpt>
<trkpt lat="25.014201" lon="102.154538">
<time>2016-04-06T10:01:28Z</time></trkpt>
<trkpt lat="25.014461" lon="102.154348">
<time>2016-04-06T10:01:29Z</time></trkpt>
<trkpt lat="25.014611" lon="102.154258">
<time>2016-04-06T10:01:30Z</time></trkpt>
<trkpt lat="25.014701" lon="102.154197">
<time>2016-04-06T10:01:31Z</time></trkpt>
<trkpt lat="25.01479" lon="102.154157">
<time>2016-04-06T10:01:32Z</time></trkpt>
<trkpt lat="25.01488" lon="102.154127">
<time>2016-04-06T10:01:33Z</time></trkpt>
<trkpt lat="25.01496" lon="102.154097">
<time>2016-04-06T10:01:34Z</time></trkpt>
<trkpt lat="25.01503" lon="102.154087">
<time>2016-04-06T10:01:35Z</time></trkpt>
<trkpt lat="25.01509" lon="102.154077">
<time>2016-04-06T10:01:36Z</time></trkpt>
<trkpt lat="25.01516" lon="102.154077">
<time>2016-04-06T10:01:37Z</time></trkpt>
<trkpt lat="25.01523" lon="102.154067">
<time>2016-04-06T10:01:38Z</time></trkpt>
<trkpt lat="25.01532" lon="102.154077">
<time>2016-04-06T10:01:39Z</time></trkpt>
<trkpt lat="25.0154" lon="102.154077">
<time>2016-04-06T10:01:40Z</time></trkpt>
<trkpt lat="25.01546" lon="102.154097">
<time>2016-04-06T10:01:41Z</time></trkpt>
<trkpt lat="25.01551" lon="102.154107">
<time>2016-04-06T10:01:42Z</time></trkpt>
<trkpt lat="25.01558" lon="102.154127">
<time>2016-04-06T10:01:43Z</time></trkpt>
<trkpt lat="25.01564" lon="102.154147">
<time>2016-04-06T10:01:44Z</time></trkpt>
<trkpt lat="25.0157" lon="102.154177">
<time>2016-04-06T10:01:45Z</time></trkpt>
<trkpt lat="25.01576" lon="102.154207">
<time>2016-04-06T10:01:46Z</time></trkpt>
<trkpt lat="25.01583" lon="102.154248">
<time>2016-04-06T10:01:47Z</time></trkpt>
<trkpt lat="25.015871" lon="102.154268">
<time>2016-04-06T10:01:48Z</time></trkpt>
<trkpt lat="25.015971" lon="102.154338">
<time>2016-04-06T10:01:49Z</time></trkpt>
<trkpt lat="25.016071" lon="102.154408">
<time>2016-04-06T10:01:50Z</time></trkpt>
<trkpt lat="25.016161" lon="102.154468">
<time>2016-04-06T10:01:51Z</time></trkpt>
<trkpt lat="25.016221" lon="102.154518">
<time>2016-04-06T10:01:52Z</time></trkpt>
<trkpt lat="25.016261" lon="102.154558">
<time>2016-04-06T10:01:53Z</time></trkpt>
<trkpt lat="25.016301" lon="102.154588">
<time>2016-04-06T10:01:54Z</time></trkpt>
<trkpt lat="25.016341" lon="102.154628">
<time>2016-04-06T10:01:55Z</time></trkpt>
<trkpt lat="25.016411" lon="102.154699">
<time>2016-04-06T10:01:56Z</time></trkpt>
<trkpt lat="25.016511" lon="102.154839">
<time>2016-04-06T10:01:57Z</time></trkpt>
<trkpt lat="25.016582" lon="102.154949">
<time>2016-04-06T10:01:58Z</time></trkpt>
<trkpt lat="25.016642" lon="102.155049">
<time>2016-04-06T10:01:59Z</time></trkpt>
<trkpt lat="25.016712" lon="102.15518">
<time>2016-04-06T10:02:00Z</time></trkpt>
<trkpt lat="25.016973" lon="102.155651">
<time>2016-04-06T10:02:01Z</time></trkpt>
<trkpt lat="25.017003" lon="102.155701">
<time>2016-04-06T10:02:02Z</time></trkpt>
<trkpt lat="25.017043" lon="102.155751">
<time>2016-04-06T10:02:03Z</time></trkpt>
<trkpt lat="25.017083" lon="102.155801">
<time>2016-04-06T10:02:04Z</time></trkpt>
<trkpt lat="25.017103" lon="102.155821">
<time>2016-04-06T10:02:05Z</time></trkpt>
<trkpt lat="25.017133" lon="102.155841">
<time>2016-04-06T10:02:06Z</time></trkpt>
<trkpt lat="25.017143" lon="102.155861">
<time>2016-04-06T10:02:07Z</time></trkpt>
<trkpt lat="25.017173" lon="102.155871">
<time>2016-04-06T10:02:08Z</time></trkpt>
<trkpt lat="25.017193" lon="102.155881">
<time>2016-04-06T10:02:09Z</time></trkpt>
<trkpt lat="25.017213" lon="102.155881">
<time>2016-04-06T10:02:10Z</time></trkpt>
<trkpt lat="25.017243" lon="102.155881">
<time>2016-04-06T10:02:11Z</time></trkpt>
<trkpt lat="25.017253" lon="102.155881">
<time>2016-04-06T10:02:12Z</time></trkpt>
<trkpt lat="25.017283" lon="102.155881">
<time>2016-04-06T10:02:13Z</time></trkpt>
<trkpt lat="25.017303" lon="102.155881">
<time>2016-04-06T10:02:14Z</time></trkpt>
<trkpt lat="25.017313" lon="102.155881">
<time>2016-04-06T10:02:15Z</time></trkpt>
<trkpt lat="25.017333" lon="102.155871">
<time>2016-04-06T10:02:16Z</time></trkpt>
<trkpt lat="25.017353" lon="102.155861">
<time>2016-04-06T10:02:17Z</time></trkpt>
<trkpt lat="25.017373" lon="102.155851">
<time>2016-04-06T10:02:18Z</time></trkpt>
<trkpt lat="25.017393" lon="102.155831">
<time>2016-04-06T10:02:19Z</time></trkpt>
<trkpt lat="25.017413" lon="102.155821">
<time>2016-04-06T10:02:20Z</time></trkpt>
<trkpt lat="25.017423" lon="102.155791">
<time>2016-04-06T10:02:21Z</time></trkpt>
<trkpt lat="25.017443" lon="102.155771">
<time>2016-04-06T10:02:22Z</time></trkpt>
<trkpt lat="25.017453" lon="102.155741">
<time>2016-04-06T10:02:23Z</time></trkpt>
<trkpt lat="25.017473" lon="102.155701">
<time>2016-04-06T10:02:24Z</time></trkpt>
<trkpt lat="25.017483" lon="102.155661">
<time>2016-04-06T10:02:25Z</time></trkpt>
<trkpt lat="25.017493" lon="102.155621">
<time>2016-04-06T10:02:26Z</time></trkpt>
<trkpt lat="25.017493" lon="102.15555">
<time>2016-04-06T10:02:27Z</time></trkpt>
<trkpt lat="25.017503" lon="102.15548">
<time>2016-04-06T10:02:28Z</time></trkpt>
<trkpt lat="25.017492" lon="102.15533">
<time>2016-04-06T10:02:29Z</time></trkpt>
<trkpt lat="25.017492" lon="102.155119">
<time>2016-04-06T10:02:30Z</time></trkpt>
<trkpt lat="25.017491" lon="102.154889">
<time>2016-04-06T10:02:31Z</time></trkpt>
<trkpt lat="25.017491" lon="102.154668">
<time>2016-04-06T10:02:32Z</time></trkpt>
<trkpt lat="25.017491" lon="102.154518">
<time>2016-04-06T10:02:33Z</time></trkpt>
<trkpt lat="25.017501" lon="102.154408">
<time>2016-04-06T10:02:34Z</time></trkpt>
<trkpt lat="25.01749" lon="102.154348">
<time>2016-04-06T10:02:35Z</time></trkpt>
<trkpt lat="25.01749" lon="102.154237">
<time>2016-04-06T10:02:36Z</time></trkpt>
<trkpt lat="25.01748" lon="102.154147">
<time>2016-04-06T10:02:37Z</time></trkpt>
<trkpt lat="25.01747" lon="102.154057">
<time>2016-04-06T10:02:38Z</time></trkpt>
<trkpt lat="25.01747" lon="102.154007">
<time>2016-04-06T10:02:39Z</time></trkpt>
<trkpt lat="25.01746" lon="102.153947">
<time>2016-04-06T10:02:40Z</time></trkpt>
<trkpt lat="25.01744" lon="102.153867">
<time>2016-04-06T10:02:41Z</time></trkpt>
<trkpt lat="25.017419" lon="102.153776">
<time>2016-04-06T10:02:42Z</time></trkpt>
<trkpt lat="25.017379" lon="102.153636">
<time>2016-04-06T10:02:43Z</time></trkpt>
<trkpt lat="25.017339" lon="102.153516">
<time>2016-04-06T10:02:44Z</time></trkpt>
<trkpt lat="25.017279" lon="102.153366">
<time>2016-04-06T10:02:45Z</time></trkpt>
<trkpt lat="25.017148" lon="102.153055">
<time>2016-04-06T10:02:46Z</time></trkpt>
<trkpt lat="25.017088" lon="102.152885">
<time>2016-04-06T10:02:47Z</time></trkpt>
<trkpt lat="25.017048" lon="102.152754">
<time>2016-04-06T10:02:48Z</time></trkpt>
<trkpt lat="25.017028" lon="102.152684">
<time>2016-04-06T10:02:49Z</time></trkpt>
<trkpt lat="25.017027" lon="102.152634">
<time>2016-04-06T10:02:50Z</time></trkpt>
<trkpt lat="25.017017" lon="102.152594">
<time>2016-04-06T10:02:51Z</time></trkpt>
<trkpt lat="25.017017" lon="102.152534">
<time>2016-04-06T10:02:52Z</time></trkpt>
<trkpt lat="25.017017" lon="102.152484">
<time>2016-04-06T10:02:53Z</time></trkpt>
<trkpt lat="25.017027" lon="102.152434">
<time>2016-04-06T10:02:54Z</time></trkpt>
<trkpt lat="25.017037" lon="102.152373">
<time>2016-04-06T10:02:55Z</time></trkpt>
<trkpt lat="25.017047" lon="102.152323">
<time>2016-04-06T10:02:56Z</time></trkpt>
<trkpt lat="25.017067" lon="102.152273">
<time>2016-04-06T10:02:57Z</time></trkpt>
<trkpt lat="25.017087" lon="102.152213">
<time>2016-04-06T10:02:58Z</time></trkpt>
<trkpt lat="25.017107" lon="102.152173">
<time>2016-04-06T10:02:59Z</time></trkpt>
<trkpt lat="25.017166" lon="102.152023">
<time>2016-04-06T10:03:00Z</time></trkpt>
<trkpt lat="25.017286" lon="102.151782">
<time>2016-04-06T10:03:01Z</time></trkpt>
<trkpt lat="25.017326" lon="102.151662">
<time>2016-04-06T10:03:02Z</time></trkpt>
<trkpt lat="25.017346" lon="102.151562">
<time>2016-04-06T10:03:03Z</time></trkpt>
<trkpt lat="25.017365" lon="102.151461">
<time>2016-04-06T10:03:04Z</time></trkpt>
<trkpt lat="25.017365" lon="102.151341">
<time>2016-04-06T10:03:05Z</time></trkpt>
<trkpt lat="25.017365" lon="102.151211">
<time>2016-04-06T10:03:06Z</time></trkpt>
<trkpt lat="25.017355" lon="102.15104">
<time>2016-04-06T10:03:07Z</time></trkpt>
<trkpt lat="25.017354" lon="102.15081">
<time>2016-04-06T10:03:08Z</time></trkpt>
<trkpt lat="25.017364" lon="102.150549">
<time>2016-04-06T10:03:09Z</time></trkpt>
<trkpt lat="25.017433" lon="102.149828">
<time>2016-04-06T10:03:10Z</time></trkpt>
<trkpt lat="25.017462" lon="102.149577">
<time>2016-04-06T10:03:11Z</time></trkpt>
<trkpt lat="25.017472" lon="102.149337">
<time>2016-04-06T10:03:12Z</time></trkpt>
<trkpt lat="25.017481" lon="102.148996">
<time>2016-04-06T10:03:13Z</time></trkpt>
<trkpt lat="25.017471" lon="102.148816">
<time>2016-04-06T10:03:14Z</time></trkpt>
<trkpt lat="25.01746" lon="102.148555">
<time>2016-04-06T10:03:15Z</time></trkpt>
<trkpt lat="25.01746" lon="102.148415">
<time>2016-04-06T10:03:16Z</time></trkpt>
<trkpt lat="25.01747" lon="102.148345">
<time>2016-04-06T10:03:17Z</time></trkpt>
<trkpt lat="25.01749" lon="102.148274">
<time>2016-04-06T10:03:18Z</time></trkpt>
<trkpt lat="25.01751" lon="102.148224">
<time>2016-04-06T10:03:19Z</time></trkpt>
<trkpt lat="25.01753" lon="102.148184">
<time>2016-04-06T10:03:20Z</time></trkpt>
<trkpt lat="25.01755" lon="102.148164">
<time>2016-04-06T10:03:21Z</time></trkpt>
<trkpt lat="25.01758" lon="102.148144">
<time>2016-04-06T10:03:22Z</time></trkpt>
<trkpt lat="25.01762" lon="102.148114">
<time>2016-04-06T10:03:23Z</time></trkpt>
<trkpt lat="25.01766" lon="102.148084">
<time>2016-04-06T10:03:24Z</time></trkpt>
<trkpt lat="25.017699" lon="102.148074">
<time>2016-04-06T10:03:25Z</time></trkpt>
<trkpt lat="25.017729" lon="102.148064">
<time>2016-04-06T10:03:26Z</time></trkpt>
<trkpt lat="25.017759" lon="102.148064">
<time>2016-04-06T10:03:27Z</time></trkpt>
<trkpt lat="25.017789" lon="102.148054">
<time>2016-04-06T10:03:28Z</time></trkpt>
<trkpt lat="25.017819" lon="102.148064">
<time>2016-04-06T10:03:29Z</time></trkpt>
<trkpt lat="25.017869" lon="102.148064">
<time>2016-04-06T10:03:30Z</time></trkpt>
<trkpt lat="25.017929" lon="102.148084">
<time>2016-04-06T10:03:31Z</time></trkpt>
<trkpt lat="25.01802" lon="102.148114">
<time>2016-04-06T10:03:32Z</time></trkpt>
<trkpt lat="25.01808" lon="102.148134">
<time>2016-04-06T10:03:33Z</time></trkpt>
<trkpt lat="25.01814" lon="102.148164">
<time>2016-04-06T10:03:34Z</time></trkpt>
<trkpt lat="25.0183" lon="102.148234">
<time>2016-04-06T10:03:35Z</time></trkpt>
<trkpt lat="25.01835" lon="102.148244">
<time>2016-04-06T10:03:36Z</time></trkpt>
<trkpt lat="25.01839" lon="102.148254">
<time>2016-04-06T10:03:37Z</time></trkpt>
<trkpt lat="25.01842" lon="102.148264">
<time>2016-04-06T10:03:38Z</time></trkpt>
<trkpt lat="25.01844" lon="102.148264">
<time>2016-04-06T10:03:39Z</time></trkpt>
<trkpt lat="25.01846" lon="102.148264">
<time>2016-04-06T10:03:40Z</time></trkpt>
<trkpt lat="25.01848" lon="102.148264">
<time>2016-04-06T10:03:41Z</time></trkpt>
<trkpt lat="25.01849" lon="102.148264">
<time>2016-04-06T10:03:42Z</time></trkpt>
<trkpt lat="25.01851" lon="102.148254">
<time>2016-04-06T10:03:43Z</time></trkpt>
<trkpt lat="25.01853" lon="102.148244">
<time>2016-04-06T10:03:44Z</time></trkpt>
<trkpt lat="25.01855" lon="102.148244">
<time>2016-04-06T10:03:45Z</time></trkpt>
<trkpt lat="25.01858" lon="102.148224">
<time>2016-04-06T10:03:46Z</time></trkpt>
<trkpt lat="25.01859" lon="102.148204">
<time>2016-04-06T10:03:47Z</time></trkpt>
<trkpt lat="25.0186" lon="102.148184">
<time>2016-04-06T10:03:48Z</time></trkpt>
<trkpt lat="25.01861" lon="102.148164">
<time>2016-04-06T10:03:49Z</time></trkpt>
<trkpt lat="25.01862" lon="102.148154">
<time>2016-04-06T10:03:50Z</time></trkpt>
<trkpt lat="25.018629" lon="102.148114">
<time>2016-04-06T10:03:51Z</time></trkpt>
<trkpt lat="25.018629" lon="102.148074">
<time>2016-04-06T10:03:52Z</time></trkpt>
<trkpt lat="25.018629" lon="102.148034">
<time>2016-04-06T10:03:53Z</time></trkpt>
<trkpt lat="25.018619" lon="102.147984">
<time>2016-04-06T10:03:54Z</time></trkpt>
<trkpt lat="25.018609" lon="102.147954">
<time>2016-04-06T10:03:55Z</time></trkpt>
<trkpt lat="25.018599" lon="102.147894">
<time>2016-04-06T10:03:56Z</time></trkpt>
<trkpt lat="25.018559" lon="102.147793">
<time>2016-04-06T10:03:57Z</time></trkpt>
<trkpt lat="25.018499" lon="102.147623">
<time>2016-04-06T10:03:58Z</time></trkpt>
<trkpt lat="25.018468" lon="102.147473">
<time>2016-04-06T10:03:59Z</time></trkpt>
<trkpt lat="25.018448" lon="102.147342">
<time>2016-04-06T10:04:00Z</time></trkpt>
<trkpt lat="25.018428" lon="102.147202">
<time>2016-04-06T10:04:01Z</time></trkpt>
<trkpt lat="25.018418" lon="102.147072">
<time>2016-04-06T10:04:02Z</time></trkpt>
<trkpt lat="25.018407" lon="102.146902">
<time>2016-04-06T10:04:03Z</time></trkpt>
<trkpt lat="25.018397" lon="102.146761">
<time>2016-04-06T10:04:04Z</time></trkpt>
<trkpt lat="25.018387" lon="102.146651">
<time>2016-04-06T10:04:05Z</time></trkpt>
<trkpt lat="25.018367" lon="102.146551">
<time>2016-04-06T10:04:06Z</time></trkpt>
<trkpt lat="25.018327" lon="102.146451">
<time>2016-04-06T10:04:07Z</time></trkpt>
<trkpt lat="25.018297" lon="102.14634">
<time>2016-04-06T10:04:08Z</time></trkpt>
<trkpt lat="25.018236" lon="102.14624">
<time>2016-04-06T10:04:09Z</time></trkpt>
<trkpt lat="25.018136" lon="102.14606">
<time>2016-04-06T10:04:10Z</time></trkpt>
<trkpt lat="25.017805" lon="102.145519">
<time>2016-04-06T10:04:11Z</time></trkpt>
<trkpt lat="25.017745" lon="102.145408">
<time>2016-04-06T10:04:12Z</time></trkpt>
<trkpt lat="25.017695" lon="102.145318">
<time>2016-04-06T10:04:13Z</time></trkpt>
<trkpt lat="25.017665" lon="102.145238">
<time>2016-04-06T10:04:14Z</time></trkpt>
<trkpt lat="25.017645" lon="102.145188">
<time>2016-04-06T10:04:15Z</time></trkpt>
<trkpt lat="25.017635" lon="102.145138">
<time>2016-04-06T10:04:16Z</time></trkpt>
<trkpt lat="25.017614" lon="102.145058">
<time>2016-04-06T10:04:17Z</time></trkpt>
<trkpt lat="25.017614" lon="102.145008">
<time>2016-04-06T10:04:18Z</time></trkpt>
<trkpt lat="25.017614" lon="102.144947">
<time>2016-04-06T10:04:19Z</time></trkpt>
<trkpt lat="25.017624" lon="102.144877">
<time>2016-04-06T10:04:20Z</time></trkpt>
<trkpt lat="25.017634" lon="102.144817">
<time>2016-04-06T10:04:21Z</time></trkpt>
<trkpt lat="25.017664" lon="102.144747">
<time>2016-04-06T10:04:22Z</time></trkpt>
<trkpt lat="25.017694" lon="102.144687">
<time>2016-04-06T10:04:23Z</time></trkpt>
<trkpt lat="25.017714" lon="102.144637">
<time>2016-04-06T10:04:24Z</time></trkpt>
<trkpt lat="25.017744" lon="102.144607">
<time>2016-04-06T10:04:25Z</time></trkpt>
<trkpt lat="25.017804" lon="102.144517">
<time>2016-04-06T10:04:26Z</time></trkpt>
<trkpt lat="25.017863" lon="102.144426">
<time>2016-04-06T10:04:27Z</time></trkpt>
<trkpt lat="25.017903" lon="102.144366">
<time>2016-04-06T10:04:28Z</time></trkpt>
<trkpt lat="25.017933" lon="102.144306">
<time>2016-04-06T10:04:29Z</time></trkpt>
<trkpt lat="25.017953" lon="102.144246">
<time>2016-04-06T10:04:30Z</time></trkpt>
<trkpt lat="25.017963" lon="102.144186">
<time>2016-04-06T10:04:31Z</time></trkpt>
<trkpt lat="25.017963" lon="102.144146">
<time>2016-04-06T10:04:32Z</time></trkpt>
<trkpt lat="25.017963" lon="102.144106">
<time>2016-04-06T10:04:33Z</time></trkpt>
<trkpt lat="25.017953" lon="102.144046">
<time>2016-04-06T10:04:34Z</time></trkpt>
<trkpt lat="25.017943" lon="102.143985">
<time>2016-04-06T10:04:35Z</time></trkpt>
<trkpt lat="25.017903" lon="102.143885">
<time>2016-04-06T10:04:36Z</time></trkpt>
<trkpt lat="25.017762" lon="102.143615">
<time>2016-04-06T10:04:37Z</time></trkpt>
<trkpt lat="25.017702" lon="102.143515">
<time>2016-04-06T10:04:38Z</time></trkpt>
<trkpt lat="25.017662" lon="102.143454">
<time>2016-04-06T10:04:39Z</time></trkpt>
<trkpt lat="25.017612" lon="102.143394">
<time>2016-04-06T10:04:40Z</time></trkpt>
<trkpt lat="25.017572" lon="102.143354">
<time>2016-04-06T10:04:41Z</time></trkpt>
<trkpt lat="25.017522" lon="102.143314">
<time>2016-04-06T10:04:42Z</time></trkpt>
<trkpt lat="25.017452" lon="102.143274">
<time>2016-04-06T10:04:43Z</time></trkpt>
<trkpt lat="25.017392" lon="102.143234">
<time>2016-04-06T10:04:44Z</time></trkpt>
<trkpt lat="25.017312" lon="102.143214">
<time>2016-04-06T10:04:45Z</time></trkpt>
<trkpt lat="25.017211" lon="102.143184">
<time>2016-04-06T10:04:46Z</time></trkpt>
<trkpt lat="25.017111" lon="102.143164">
<time>2016-04-06T10:04:47Z</time></trkpt>
<trkpt lat="25.016951" lon="102.143114">
<time>2016-04-06T10:04:48Z</time></trkpt>
<trkpt lat="25.016881" lon="102.143094">
<time>2016-04-06T10:04:49Z</time></trkpt>
<trkpt lat="25.016811" lon="102.143054">
<time>2016-04-06T10:04:50Z</time></trkpt>
<trkpt lat="25.016751" lon="102.143024">
<time>2016-04-06T10:04:51Z</time></trkpt>
<trkpt lat="25.016701" lon="102.142973">
<time>2016-04-06T10:04:52Z</time></trkpt>
<trkpt lat="25.016631" lon="102.142903">
<time>2016-04-06T10:04:53Z</time></trkpt>
<trkpt lat="25.016561" lon="102.142813">
<time>2016-04-06T10:04:54Z</time></trkpt>
<trkpt lat="25.016501" lon="102.142713">
<time>2016-04-06T10:04:55Z</time></trkpt>
<trkpt lat="25.016441" lon="102.142633">
<time>2016-04-06T10:04:56Z</time></trkpt>
<trkpt lat="25.016371" lon="102.142513">
<time>2016-04-06T10:04:57Z</time></trkpt>
<trkpt lat="25.01622" lon="102.142262">
<time>2016-04-06T10:04:58Z</time></trkpt>
<trkpt lat="25.01615" lon="102.142152">
<time>2016-04-06T10:04:59Z</time></trkpt>
<trkpt lat="25.01609" lon="102.142072">
<time>2016-04-06T10:05:00Z</time></trkpt>
<trkpt lat="25.01599" lon="102.141971">
<time>2016-04-06T10:05:01Z</time></trkpt>
<trkpt lat="25.01588" lon="102.141881">
<time>2016-04-06T10:05:02Z</time></trkpt>
<trkpt lat="25.015769" lon="102.141811">
<time>2016-04-06T10:05:03Z</time></trkpt>
<trkpt lat="25.015669" lon="102.141751">
<time>2016-04-06T10:05:04Z</time></trkpt>
<trkpt lat="25.015549" lon="102.141681">
<time>2016-04-06T10:05:05Z</time></trkpt>
<trkpt lat="25.015439" lon="102.141621">
<time>2016-04-06T10:05:06Z</time></trkpt>
<trkpt lat="25.015319" lon="102.141561">
<time>2016-04-06T10:05:07Z</time></trkpt>
<trkpt lat="25.015189" lon="102.141511">
<time>2016-04-06T10:05:08Z</time></trkpt>
<trkpt lat="25.015029" lon="102.141481">
<time>2016-04-06T10:05:09Z</time></trkpt>
<trkpt lat="25.014879" lon="102.141471">
<time>2016-04-06T10:05:10Z</time></trkpt>
<trkpt lat="25.014779" lon="102.14145">
<time>2016-04-06T10:05:11Z</time></trkpt>
<trkpt lat="25.014689" lon="102.14143">
<time>2016-04-06T10:05:12Z</time></trkpt>
<trkpt lat="25.014579" lon="102.14139">
<time>2016-04-06T10:05:13Z</time></trkpt>
<trkpt lat="25.014519" lon="102.14136">
<time>2016-04-06T10:05:14Z</time></trkpt>
<trkpt lat="25.014459" lon="102.14131">
<time>2016-04-06T10:05:15Z</time></trkpt>
<trkpt lat="25.014429" lon="102.14128">
<time>2016-04-06T10:05:16Z</time></trkpt>
<trkpt lat="25.014389" lon="102.14125">
<time>2016-04-06T10:05:17Z</time></trkpt>
<trkpt lat="25.014359" lon="102.1412">
<time>2016-04-06T10:05:18Z</time></trkpt>
<trkpt lat="25.014329" lon="102.14116">
<time>2016-04-06T10:05:19Z</time></trkpt>
<trkpt lat="25.014309" lon="102.14111">
<time>2016-04-06T10:05:20Z</time></trkpt>
<trkpt lat="25.014278" lon="102.14106">
<time>2016-04-06T10:05:21Z</time></trkpt>
<trkpt lat="25.014268" lon="102.14099">
<time>2016-04-06T10:05:22Z</time></trkpt>
<trkpt lat="25.014258" lon="102.140919">
<time>2016-04-06T10:05:23Z</time></trkpt>
<trkpt lat="25.014248" lon="102.140789">
<time>2016-04-06T10:05:24Z</time></trkpt>
<trkpt lat="25.014258" lon="102.140679">
<time>2016-04-06T10:05:25Z</time></trkpt>
<trkpt lat="25.014268" lon="102.140579">
<time>2016-04-06T10:05:26Z</time></trkpt>
<trkpt lat="25.014258" lon="102.140509">
<time>2016-04-06T10:05:27Z</time></trkpt>
<trkpt lat="25.014258" lon="102.140459">
<time>2016-04-06T10:05:28Z</time></trkpt>
<trkpt lat="25.014237" lon="102.140378">
<time>2016-04-06T10:05:29Z</time></trkpt>
<trkpt lat="25.014217" lon="102.140328">
<time>2016-04-06T10:05:30Z</time></trkpt>
<trkpt lat="25.014187" lon="102.140248">
<time>2016-04-06T10:05:31Z</time></trkpt>
<trkpt lat="25.014137" lon="102.140178">
<time>2016-04-06T10:05:32Z</time></trkpt>
<trkpt lat="25.014077" lon="102.140078">
<time>2016-04-06T10:05:33Z</time></trkpt>
<trkpt lat="25.013987" lon="102.139978">
<time>2016-04-06T10:05:34Z</time></trkpt>
<trkpt lat="25.013857" lon="102.139827">
<time>2016-04-06T10:05:35Z</time></trkpt>
<trkpt lat="25.013737" lon="102.139747">
<time>2016-04-06T10:05:36Z</time></trkpt>
<trkpt lat="25.013646" lon="102.139697">
<time>2016-04-06T10:05:37Z</time></trkpt>
<trkpt lat="25.013556" lon="102.139657">
<time>2016-04-06T10:05:38Z</time></trkpt>
<trkpt lat="25.013436" lon="102.139597">
<time>2016-04-06T10:05:39Z</time></trkpt>
<trkpt lat="25.012936" lon="102.139396">
<time>2016-04-06T10:05:40Z</time></trkpt>
<trkpt lat="25.012766" lon="102.139326">
<time>2016-04-06T10:05:41Z</time></trkpt>
<trkpt lat="25.012676" lon="102.139276">
<time>2016-04-06T10:05:42Z</time></trkpt>
<trkpt lat="25.012626" lon="102.139236">
<time>2016-04-06T10:05:43Z</time></trkpt>
<trkpt lat="25.012586" lon="102.139206">
<time>2016-04-06T10:05:44Z</time></trkpt>
<trkpt lat="25.012556" lon="102.139156">
<time>2016-04-06T10:05:45Z</time></trkpt>
<trkpt lat="25.012516" lon="102.139106">
<time>2016-04-06T10:05:46Z</time></trkpt>
<trkpt lat="25.012496" lon="102.139066">
<time>2016-04-06T10:05:47Z</time></trkpt>
<trkpt lat="25.012476" lon="102.138986">
<time>2016-04-06T10:05:48Z</time></trkpt>
<trkpt lat="25.012455" lon="102.138916">
<time>2016-04-06T10:05:49Z</time></trkpt>
<trkpt lat="25.012435" lon="102.138835">
<time>2016-04-06T10:05:50Z</time></trkpt>
<trkpt lat="25.012425" lon="102.138725">
<time>2016-04-06T10:05:51Z</time></trkpt>
<trkpt lat="25.012415" lon="102.138605">
<time>2016-04-06T10:05:52Z</time></trkpt>
<trkpt lat="25.012415" lon="102.138535">
<time>2016-04-06T10:05:53Z</time></trkpt>
<trkpt lat="25.012395" lon="102.138465">
<time>2016-04-06T10:05:54Z</time></trkpt>
<trkpt lat="25.012375" lon="102.138425">
<time>2016-04-06T10:05:55Z</time></trkpt>
<trkpt lat="25.012365" lon="102.138395">
<time>2016-04-06T10:05:56Z</time></trkpt>
<trkpt lat="25.012335" lon="102.138344">
<time>2016-04-06T10:05:57Z</time></trkpt>
<trkpt lat="25.012305" lon="102.138314">
<time>2016-04-06T10:05:58Z</time></trkpt>
<trkpt lat="25.012254" lon="102.138264">
<time>2016-04-06T10:05:59Z</time></trkpt>
<trkpt lat="25.012184" lon="102.138194">
<time>2016-04-06T10:06:00Z</time></trkpt>
<trkpt lat="25.012044" lon="102.138054">
<time>2016-04-06T10:06:01Z</time></trkpt>
<trkpt lat="25.012004" lon="102.138024">
<time>2016-04-06T10:06:02Z</time></trkpt>
<trkpt lat="25.011964" lon="102.137974">
<time>2016-04-06T10:06:03Z</time></trkpt>
<trkpt lat="25.011944" lon="102.137934">
<time>2016-04-06T10:06:04Z</time></trkpt>
<trkpt lat="25.011914" lon="102.137884">
<time>2016-04-06T10:06:05Z</time></trkpt>
<trkpt lat="25.011884" lon="102.137823">
<time>2016-04-06T10:06:06Z</time></trkpt>
<trkpt lat="25.011874" lon="102.137773">
<time>2016-04-06T10:06:07Z</time></trkpt>
<trkpt lat="25.011854" lon="102.137713">
<time>2016-04-06T10:06:08Z</time></trkpt>
<trkpt lat="25.011824" lon="102.137603">
<time>2016-04-06T10:06:09Z</time></trkpt>
<trkpt lat="25.011803" lon="102.137513">
<time>2016-04-06T10:06:10Z</time></trkpt>
<trkpt lat="25.011773" lon="102.137443">
<time>2016-04-06T10:06:11Z</time></trkpt>
<trkpt lat="25.011753" lon="102.137393">
<time>2016-04-06T10:06:12Z</time></trkpt>
<trkpt lat="25.011723" lon="102.137323">
<time>2016-04-06T10:06:13Z</time></trkpt>
<trkpt lat="25.011683" lon="102.137252">
<time>2016-04-06T10:06:14Z</time></trkpt>
<trkpt lat="25.011653" lon="102.137202">
<time>2016-04-06T10:06:15Z</time></trkpt>
<trkpt lat="25.011573" lon="102.137082">
<time>2016-04-06T10:06:16Z</time></trkpt>
<trkpt lat="25.011443" lon="102.136892">
<time>2016-04-06T10:06:17Z</time></trkpt>
<trkpt lat="25.011362" lon="102.136772">
<time>2016-04-06T10:06:18Z</time></trkpt>
<trkpt lat="25.011312" lon="102.136701">
<time>2016-04-06T10:06:19Z</time></trkpt>
<trkpt lat="25.011292" lon="102.136651">
<time>2016-04-06T10:06:20Z</time></trkpt>
<trkpt lat="25.011282" lon="102.136621">
<time>2016-04-06T10:06:21Z</time></trkpt>
<trkpt lat="25.011272" lon="102.136591">
<time>2016-04-06T10:06:22Z</time></trkpt>
<trkpt lat="25.011262" lon="102.136561">
<time>2016-04-06T10:06:23Z</time></trkpt>
<trkpt lat="25.011262" lon="102.136541">
<time>2016-04-06T10:06:24Z</time></trkpt>
<trkpt lat="25.011262" lon="102.136511">
<time>2016-04-06T10:06:25Z</time></trkpt>
<trkpt lat="25.011262" lon="102.136491">
<time>2016-04-06T10:06:26Z</time></trkpt>
<trkpt lat="25.011262" lon="102.136461">
<time>2016-04-06T10:06:27Z</time></trkpt>
<trkpt lat="25.011262" lon="102.136431">
<time>2016-04-06T10:06:28Z</time></trkpt>
<trkpt lat="25.011262" lon="102.136411">
<time>2016-04-06T10:06:29Z</time></trkpt>
<trkpt lat="25.011272" lon="102.136381">
<time>2016-04-06T10:06:30Z</time></trkpt>
<trkpt lat="25.011282" lon="102.136341">
<time>2016-04-06T10:06:31Z</time></trkpt>
<trkpt lat="25.011292" lon="102.136311">
<time>2016-04-06T10:06:32Z</time></trkpt>
<trkpt lat="25.011302" lon="102.136281">
<time>2016-04-06T10:06:33Z</time></trkpt>
<trkpt lat="25.011322" lon="102.136251">
<time>2016-04-06T10:06:34Z</time></trkpt>
<trkpt lat="25.011342" lon="102.136231">
<time>2016-04-06T10:06:35Z</time></trkpt>
<trkpt lat="25.011362" lon="102.13619">
<time>2016-04-06T10:06:36Z</time></trkpt>
<trkpt lat="25.011401" lon="102.13615">
<time>2016-04-06T10:06:37Z</time></trkpt>
<trkpt lat="25.011481" lon="102.13607">
<time>2016-04-06T10:06:38Z</time></trkpt>
<trkpt lat="25.011601" lon="102.13595">
<time>2016-04-06T10:06:39Z</time></trkpt>
<trkpt lat="25.011711" lon="102.13584">
<time>2016-04-06T10:06:40Z</time></trkpt>
<trkpt lat="25.011841" lon="102.13572">
<time>2016-04-06T10:06:41Z</time></trkpt>
<trkpt lat="25.011901" lon="102.135669">
<time>2016-04-06T10:06:42Z</time></trkpt>
<trkpt lat="25.011941" lon="102.135639">
<time>2016-04-06T10:06:43Z</time></trkpt>
<trkpt lat="25.011971" lon="102.135629">
<time>2016-04-06T10:06:44Z</time></trkpt>
<trkpt lat="25.012011" lon="102.135609">
<time>2016-04-06T10:06:45Z</time></trkpt>
<trkpt lat="25.012051" lon="102.135589">
<time>2016-04-06T10:06:46Z</time></trkpt>
<trkpt lat="25.012091" lon="102.135579">
<time>2016-04-06T10:06:47Z</time></trkpt>
<trkpt lat="25.012131" lon="102.135569">
<time>2016-04-06T10:06:48Z</time></trkpt>
<trkpt lat="25.012171" lon="102.135559">
<time>2016-04-06T10:06:49Z</time></trkpt>
<trkpt lat="25.012211" lon="102.135559">
<time>2016-04-06T10:06:50Z</time></trkpt>
<trkpt lat="25.012261" lon="102.135549">
<time>2016-04-06T10:06:51Z</time></trkpt>
<trkpt lat="25.01238" lon="102.135539">
<time>2016-04-06T10:06:52Z</time></trkpt>
<trkpt lat="25.01255" lon="102.135529">
<time>2016-04-06T10:06:53Z</time></trkpt>
<trkpt lat="25.01264" lon="102.135529">
<time>2016-04-06T10:06:54Z</time></trkpt>
<trkpt lat="25.01269" lon="102.135529">
<time>2016-04-06T10:06:55Z</time></trkpt>
<trkpt lat="25.01272" lon="102.135539">
<time>2016-04-06T10:06:56Z</time></trkpt>
<trkpt lat="25.01274" lon="102.135539">
<time>2016-04-06T10:06:57Z</time></trkpt>
<trkpt lat="25.01277" lon="102.135549">
<time>2016-04-06T10:06:58Z</time></trkpt>
<trkpt lat="25.01279" lon="102.135559">
<time>2016-04-06T10:06:59Z</time></trkpt>
<trkpt lat="25.0128" lon="102.135559">
<time>2016-04-06T10:07:00Z</time></trkpt>
<trkpt lat="25.01282" lon="102.135569">
<time>2016-04-06T10:07:01Z</time></trkpt>
<trkpt lat="25.01284" lon="102.135589">
<time>2016-04-06T10:07:02Z</time></trkpt>
<trkpt lat="25.012871" lon="102.135599">
<time>2016-04-06T10:07:03Z</time></trkpt>
<trkpt lat="25.012901" lon="102.135629">
<time>2016-04-06T10:07:04Z</time></trkpt>
<trkpt lat="25.012921" lon="102.135649">
<time>2016-04-06T10:07:05Z</time></trkpt>
<trkpt lat="25.012941" lon="102.135679">
<time>2016-04-06T10:07:06Z</time></trkpt>
<trkpt lat="25.012961" lon="102.135699">
<time>2016-04-06T10:07:07Z</time></trkpt>
<trkpt lat="25.012981" lon="102.13573">
<time>2016-04-06T10:07:08Z</time></trkpt>
<trkpt lat="25.013021" lon="102.1358">
<time>2016-04-06T10:07:09Z</time></trkpt>
<trkpt lat="25.013061" lon="102.13588">
<time>2016-04-06T10:07:10Z</time></trkpt>
<trkpt lat="25.013151" lon="102.13606">
<time>2016-04-06T10:07:11Z</time></trkpt>
<trkpt lat="25.013201" lon="102.13615">
<time>2016-04-06T10:07:12Z</time></trkpt>
<trkpt lat="25.013251" lon="102.13625">
<time>2016-04-06T10:07:13Z</time></trkpt>
<trkpt lat="25.013332" lon="102.136351">
<time>2016-04-06T10:07:14Z</time></trkpt>
<trkpt lat="25.013392" lon="102.136441">
<time>2016-04-06T10:07:15Z</time></trkpt>
<trkpt lat="25.013482" lon="102.136521">
<time>2016-04-06T10:07:16Z</time></trkpt>
<trkpt lat="25.013562" lon="102.136591">
<time>2016-04-06T10:07:17Z</time></trkpt>
<trkpt lat="25.013852" lon="102.136832">
<time>2016-04-06T10:07:18Z</time></trkpt>
<trkpt lat="25.014273" lon="102.137172">
<time>2016-04-06T10:07:19Z</time></trkpt>
<trkpt lat="25.014443" lon="102.137332">
<time>2016-04-06T10:07:20Z</time></trkpt>
<trkpt lat="25.014623" lon="102.137543">
<time>2016-04-06T10:07:21Z</time></trkpt>
<trkpt lat="25.014773" lon="102.137713">
<time>2016-04-06T10:07:22Z</time></trkpt>
<trkpt lat="25.014803" lon="102.137733">
<time>2016-04-06T10:07:23Z</time></trkpt>
<trkpt lat="25.014823" lon="102.137753">
<time>2016-04-06T10:07:24Z</time></trkpt>
<trkpt lat="25.014853" lon="102.137763">
<time>2016-04-06T10:07:25Z</time></trkpt>
<trkpt lat="25.014873" lon="102.137773">
<time>2016-04-06T10:07:26Z</time></trkpt>
<trkpt lat="25.014893" lon="102.137773">
<time>2016-04-06T10:07:27Z</time></trkpt>
<trkpt lat="25.014923" lon="102.137783">
<time>2016-04-06T10:07:28Z</time></trkpt>
<trkpt lat="25.014943" lon="102.137783">
<time>2016-04-06T10:07:29Z</time></trkpt>
<trkpt lat="25.014963" lon="102.137783">
<time>2016-04-06T10:07:30Z</time></trkpt>
<trkpt lat="25.014993" lon="102.137783">
<time>2016-04-06T10:07:31Z</time></trkpt>
<trkpt lat="25.015013" lon="102.137783">
<time>2016-04-06T10:07:32Z</time></trkpt>
<trkpt lat="25.015033" lon="102.137773">
<time>2016-04-06T10:07:33Z</time></trkpt>
<trkpt lat="25.015063" lon="102.137763">
<time>2016-04-06T10:07:34Z</time></trkpt>
<trkpt lat="25.015083" lon="102.137753">
<time>2016-04-06T10:07:35Z</time></trkpt>
<trkpt lat="25.015103" lon="102.137743">
<time>2016-04-06T10:07:36Z</time></trkpt>
<trkpt lat="25.015133" lon="102.137723">
<time>2016-04-06T10:07:37Z</time></trkpt>
<trkpt lat="25.015173" lon="102.137683">
<time>2016-04-06T10:07:38Z</time></trkpt>
<trkpt lat="25.015293" lon="102.137553">
<time>2016-04-06T10:07:39Z</time></trkpt>
<trkpt lat="25.015443" lon="102.137403">
<time>2016-04-06T10:07:40Z</time></trkpt>
<trkpt lat="25.015483" lon="102.137352">
<time>2016-04-06T10:07:41Z</time></trkpt>
<trkpt lat="25.015543" lon="102.137292">
<time>2016-04-06T10:07:42Z</time></trkpt>
<trkpt lat="25.015623" lon="102.137252">
<time>2016-04-06T10:07:43Z</time></trkpt>
<trkpt lat="25.015683" lon="102.137222">
<time>2016-04-06T10:07:44Z</time></trkpt>
<trkpt lat="25.015742" lon="102.137202">
<time>2016-04-06T10:07:45Z</time></trkpt>
<trkpt lat="25.015842" lon="102.137182">
<time>2016-04-06T10:07:46Z</time></trkpt>
<trkpt lat="25.015902" lon="102.137182">
<time>2016-04-06T10:07:47Z</time></trkpt>
<trkpt lat="25.015972" lon="102.137182">
<time>2016-04-06T10:07:48Z</time></trkpt>
<trkpt lat="25.016092" lon="102.137202">
<time>2016-04-06T10:07:49Z</time></trkpt>
<trkpt lat="25.016172" lon="102.137212">
<time>2016-04-06T10:07:50Z</time></trkpt>
<trkpt lat="25.016322" lon="102.137242">
<time>2016-04-06T10:07:51Z</time></trkpt>
<trkpt lat="25.016573" lon="102.137292">
<time>2016-04-06T10:07:52Z</time></trkpt>
<trkpt lat="25.016633" lon="102.137312">
<time>2016-04-06T10:07:53Z</time></trkpt>
<trkpt lat="25.016673" lon="102.137322">
<time>2016-04-06T10:07:54Z</time></trkpt>
<trkpt lat="25.016713" lon="102.137342">
<time>2016-04-06T10:07:55Z</time></trkpt>
<trkpt lat="25.016733" lon="102.137362">
<time>2016-04-06T10:07:56Z</time></trkpt>
<trkpt lat="25.016763" lon="102.137383">
<time>2016-04-06T10:07:57Z</time></trkpt>
<trkpt lat="25.016783" lon="102.137403">
<time>2016-04-06T10:07:58Z</time></trkpt>
<trkpt lat="25.016803" lon="102.137433">
<time>2016-04-06T10:07:59Z</time></trkpt>
<trkpt lat="25.016823" lon="102.137463">
<time>2016-04-06T10:08:00Z</time></trkpt>
<trkpt lat="25.016833" lon="102.137483">
<time>2016-04-06T10:08:01Z</time></trkpt>
<trkpt lat="25.016853" lon="102.137523">
<time>2016-04-06T10:08:02Z</time></trkpt>
<trkpt lat="25.016863" lon="102.137563">
<time>2016-04-06T10:08:03Z</time></trkpt>
<trkpt lat="25.016873" lon="102.137623">
<time>2016-04-06T10:08:04Z</time></trkpt>
<trkpt lat="25.016883" lon="102.137773">
<time>2016-04-06T10:08:05Z</time></trkpt>
<trkpt lat="25.016903" lon="102.137853">
<time>2016-04-06T10:08:06Z</time></trkpt>
<trkpt lat="25.016913" lon="102.137893">
<time>2016-04-06T10:08:07Z</time></trkpt>
<trkpt lat="25.016923" lon="102.137924">
<time>2016-04-06T10:08:08Z</time></trkpt>
<trkpt lat="25.016943" lon="102.137954">
<time>2016-04-06T10:08:09Z</time></trkpt>
<trkpt lat="25.016973" lon="102.137984">
<time>2016-04-06T10:08:10Z</time></trkpt>
<trkpt lat="25.017004" lon="102.138014">
<time>2016-04-06T10:08:11Z</time></trkpt>
<trkpt lat="25.017024" lon="102.138034">
<time>2016-04-06T10:08:12Z</time></trkpt>
<trkpt lat="25.017054" lon="102.138044">
<time>2016-04-06T10:08:13Z</time></trkpt>
<trkpt lat="25.017084" lon="102.138054">
<time>2016-04-06T10:08:14Z</time></trkpt>
<trkpt lat="25.017114" lon="102.138064">
<time>2016-04-06T10:08:15Z</time></trkpt>
<trkpt lat="25.017144" lon="102.138074">
<time>2016-04-06T10:08:16Z</time></trkpt>
<trkpt lat="25.017184" lon="102.138074">
<time>2016-04-06T10:08:17Z</time></trkpt>
<trkpt lat="25.017234" lon="102.138074">
<time>2016-04-06T10:08:18Z</time></trkpt>
<trkpt lat="25.017294" lon="102.138074">
<time>2016-04-06T10:08:19Z</time></trkpt>
<trkpt lat="25.017364" lon="102.138074">
<time>2016-04-06T10:08:20Z</time></trkpt>
<trkpt lat="25.017434" lon="102.138064">
<time>2016-04-06T10:08:21Z</time></trkpt>
<trkpt lat="25.017484" lon="102.138064">
<time>2016-04-06T10:08:22Z</time></trkpt>
<trkpt lat="25.017514" lon="102.138074">
<time>2016-04-06T10:08:23Z</time></trkpt>
<trkpt lat="25.017544" lon="102.138074">
<time>2016-04-06T10:08:24Z</time></trkpt>
<trkpt lat="25.017564" lon="102.138084">
<time>2016-04-06T10:08:25Z</time></trkpt>
<trkpt lat="25.017584" lon="102.138094">
<time>2016-04-06T10:08:26Z</time></trkpt>
<trkpt lat="25.017614" lon="102.138104">
<time>2016-04-06T10:08:27Z</time></trkpt>
<trkpt lat="25.017634" lon="102.138114">
<time>2016-04-06T10:08:28Z</time></trkpt>
<trkpt lat="25.017644" lon="102.138124">
<time>2016-04-06T10:08:29Z</time></trkpt>
<trkpt lat="25.017684" lon="102.138154">
<time>2016-04-06T10:08:30Z</time></trkpt>
<trkpt lat="25.017694" lon="102.138164">
<time>2016-04-06T10:08:31Z</time></trkpt>
<trkpt lat="25.017704" lon="102.138174">
<time>2016-04-06T10:08:32Z</time></trkpt>
<trkpt lat="25.017714" lon="102.138194">
<time>2016-04-06T10:08:33Z</time></trkpt>
<trkpt lat="25.017724" lon="102.138204">
<time>2016-04-06T10:08:34Z</time></trkpt>
<trkpt lat="25.017744" lon="102.138244">
<time>2016-04-06T10:08:35Z</time></trkpt>
<trkpt lat="25.017754" lon="102.138274">
<time>2016-04-06T10:08:36Z</time></trkpt>
<trkpt lat="25.017764" lon="102.138294">
<time>2016-04-06T10:08:37Z</time></trkpt>
<trkpt lat="25.017784" lon="102.138354">
<time>2016-04-06T10:08:38Z</time></trkpt>
<trkpt lat="25.017804" lon="102.138414">
<time>2016-04-06T10:08:39Z</time></trkpt>
<trkpt lat="25.017824" lon="102.138505">
<time>2016-04-06T10:08:40Z</time></trkpt>
<trkpt lat="25.017834" lon="102.138555">
<time>2016-04-06T10:08:41Z</time></trkpt>
<trkpt lat="25.017844" lon="102.138585">
<time>2016-04-06T10:08:42Z</time></trkpt>
<trkpt lat="25.017854" lon="102.138665">
<time>2016-04-06T10:08:43Z</time></trkpt>
<trkpt lat="25.017874" lon="102.138715">
<time>2016-04-06T10:08:44Z</time></trkpt>
<trkpt lat="25.017895" lon="102.138765">
<time>2016-04-06T10:08:45Z</time></trkpt>
<trkpt lat="25.017915" lon="102.138805">
<time>2016-04-06T10:08:46Z</time></trkpt>
<trkpt lat="25.017935" lon="102.138835">
<time>2016-04-06T10:08:47Z</time></trkpt>
<trkpt lat="25.017955" lon="102.138865">
<time>2016-04-06T10:08:48Z</time></trkpt>
<trkpt lat="25.017975" lon="102.138885">
<time>2016-04-06T10:08:49Z</time></trkpt>
<trkpt lat="25.018005" lon="102.138905">
<time>2016-04-06T10:08:50Z</time></trkpt>
<trkpt lat="25.018035" lon="102.138925">
<time>2016-04-06T10:08:51Z</time></trkpt>
<trkpt lat="25.018085" lon="102.138955">
<time>2016-04-06T10:08:52Z</time></trkpt>
<trkpt lat="25.018125" lon="102.138965">
<time>2016-04-06T10:08:53Z</time></trkpt>
<trkpt lat="25.018195" lon="102.138986">
<time>2016-04-06T10:08:54Z</time></trkpt>
<trkpt lat="25.018295" lon="102.138996">
<time>2016-04-06T10:08:55Z</time></trkpt>
<trkpt lat="25.018505" lon="102.139016">
<time>2016-04-06T10:08:56Z</time></trkpt>
<trkpt lat="25.019185" lon="102.139126">
<time>2016-04-06T10:08:57Z</time></trkpt>
<trkpt lat="25.019275" lon="102.139146">
<time>2016-04-06T10:08:58Z</time></trkpt>
<trkpt lat="25.019345" lon="102.139146">
<time>2016-04-06T10:08:59Z</time></trkpt>
<trkpt lat="25.019395" lon="102.139146">
<time>2016-04-06T10:09:00Z</time></trkpt>
<trkpt lat="25.019445" lon="102.139136">
<time>2016-04-06T10:09:01Z</time></trkpt>
<trkpt lat="25.019485" lon="102.139116">
<time>2016-04-06T10:09:02Z</time></trkpt>
<trkpt lat="25.019535" lon="102.139096">
<time>2016-04-06T10:09:03Z</time></trkpt>
<trkpt lat="25.019565" lon="102.139076">
<time>2016-04-06T10:09:04Z</time></trkpt>
<trkpt lat="25.019615" lon="102.139026">
<time>2016-04-06T10:09:05Z</time></trkpt>
<trkpt lat="25.019655" lon="102.138975">
<time>2016-04-06T10:09:06Z</time></trkpt>
<trkpt lat="25.019774" lon="102.138815">
<time>2016-04-06T10:09:07Z</time></trkpt>
<trkpt lat="25.019804" lon="102.138785">
<time>2016-04-06T10:09:08Z</time></trkpt>
<trkpt lat="25.019854" lon="102.138745">
<time>2016-04-06T10:09:09Z</time></trkpt>
<trkpt lat="25.019894" lon="102.138705">
<time>2016-04-06T10:09:10Z</time></trkpt>
<trkpt lat="25.019944" lon="102.138685">
<time>2016-04-06T10:09:11Z</time></trkpt>
<trkpt lat="25.019984" lon="102.138665">
<time>2016-04-06T10:09:12Z</time></trkpt>
<trkpt lat="25.020024" lon="102.138655">
<time>2016-04-06T10:09:13Z</time></trkpt>
<trkpt lat="25.020074" lon="102.138645">
<time>2016-04-06T10:09:14Z</time></trkpt>
<trkpt lat="25.020124" lon="102.138645">
<time>2016-04-06T10:09:15Z</time></trkpt>
<trkpt lat="25.020154" lon="102.138645">
<time>2016-04-06T10:09:16Z</time></trkpt>
<trkpt lat="25.020194" lon="102.138655">
<time>2016-04-06T10:09:17Z</time></trkpt>
<trkpt lat="25.020234" lon="102.138675">
<time>2016-04-06T10:09:18Z</time></trkpt>
<trkpt lat="25.020274" lon="102.138685">
<time>2016-04-06T10:09:19Z</time></trkpt>
<trkpt lat="25.020314" lon="102.138705">
<time>2016-04-06T10:09:20Z</time></trkpt>
<trkpt lat="25.020354" lon="102.138725">
<time>2016-04-06T10:09:21Z</time></trkpt>
<trkpt lat="25.020414" lon="102.138745">
<time>2016-04-06T10:09:22Z</time></trkpt>
<trkpt lat="25.020464" lon="102.138775">
<time>2016-04-06T10:09:23Z</time></trkpt>
<trkpt lat="25.020514" lon="102.138795">
<time>2016-04-06T10:09:24Z</time></trkpt>
<trkpt lat="25.020554" lon="102.138815">
<time>2016-04-06T10:09:25Z</time></trkpt>
<trkpt lat="25.020584" lon="102.138825">
<time>2016-04-06T10:09:26Z</time></trkpt>
<trkpt lat="25.020614" lon="102.138825">
<time>2016-04-06T10:09:27Z</time></trkpt>
<trkpt lat="25.020644" lon="102.138835">
<time>2016-04-06T10:09:28Z</time></trkpt>
<trkpt lat="25.020684" lon="102.138835">
<time>2016-04-06T10:09:29Z</time></trkpt>
<trkpt lat="25.020704" lon="102.138825">
<time>2016-04-06T10:09:30Z</time></trkpt>
<trkpt lat="25.020734" lon="102.138815">
<time>2016-04-06T10:09:31Z</time></trkpt>
<trkpt lat="25.020754" lon="102.138805">
<time>2016-04-06T10:09:32Z</time></trkpt>
<trkpt lat="25.020774" lon="102.138785">
<time>2016-04-06T10:09:33Z</time></trkpt>
<trkpt lat="25.020794" lon="102.138765">
<time>2016-04-06T10:09:34Z</time></trkpt>
<trkpt lat="25.020794" lon="102.138735">
<time>2016-04-06T10:09:35Z</time></trkpt>
<trkpt lat="25.020804" lon="102.138715">
<time>2016-04-06T10:09:36Z</time></trkpt>
<trkpt lat="25.020814" lon="102.138685">
<time>2016-04-06T10:09:37Z</time></trkpt>
<trkpt lat="25.020814" lon="102.138665">
<time>2016-04-06T10:09:38Z</time></trkpt>
<trkpt lat="25.020824" lon="102.138635">
<time>2016-04-06T10:09:39Z</time></trkpt>
<trkpt lat="25.020814" lon="102.138605">
<time>2016-04-06T10:09:40Z</time></trkpt>
<trkpt lat="25.020804" lon="102.138565">
<time>2016-04-06T10:09:41Z</time></trkpt>
<trkpt lat="25.020794" lon="102.138535">
<time>2016-04-06T10:09:42Z</time></trkpt>
<trkpt lat="25.020774" lon="102.138505">
<time>2016-04-06T10:09:43Z</time></trkpt>
<trkpt lat="25.020754" lon="102.138484">
<time>2016-04-06T10:09:44Z</time></trkpt>
<trkpt lat="25.020734" lon="102.138464">
<time>2016-04-06T10:09:45Z</time></trkpt>
<trkpt lat="25.020704" lon="102.138444">
<time>2016-04-06T10:09:46Z</time></trkpt>
<trkpt lat="25.020664" lon="102.138424">
<time>2016-04-06T10:09:47Z</time></trkpt>
<trkpt lat="25.020624" lon="102.138414">
<time>2016-04-06T10:09:48Z</time></trkpt>
<trkpt lat="25.020564" lon="102.138394">
<time>2016-04-06T10:09:49Z</time></trkpt>
<trkpt lat="25.020474" lon="102.138374">
<time>2016-04-06T10:09:50Z</time></trkpt>
<trkpt lat="25.020354" lon="102.138354">
<time>2016-04-06T10:09:51Z</time></trkpt>
<trkpt lat="25.020354" lon="102.138354">
<time>2016-04-06T10:09:52Z</time></trkpt>
<trkpt lat="25.020583" lon="102.138114">
<time>2016-04-06T10:09:53Z</time></trkpt>
<trkpt lat="25.020693" lon="102.137984">
<time>2016-04-06T10:09:54Z</time></trkpt>
<trkpt lat="25.020843" lon="102.137843">
<time>2016-04-06T10:09:55Z</time></trkpt>
<trkpt lat="25.021043" lon="102.137763">
<time>2016-04-06T10:09:56Z</time></trkpt>
<trkpt lat="25.021223" lon="102.137793">
<time>2016-04-06T10:09:57Z</time></trkpt>
<trkpt lat="25.021503" lon="102.137893">
<time>2016-04-06T10:09:58Z</time></trkpt>
<trkpt lat="25.021623" lon="102.137923">
<time>2016-04-06T10:09:59Z</time></trkpt>
<trkpt lat="25.021763" lon="102.137953">
<time>2016-04-06T10:10:00Z</time></trkpt>
<trkpt lat="25.021823" lon="102.137933">
<time>2016-04-06T10:10:01Z</time></trkpt>
<trkpt lat="25.021903" lon="102.137823">
<time>2016-04-06T10:10:02Z</time></trkpt>
<trkpt lat="25.022012" lon="102.137703">
<time>2016-04-06T10:10:03Z</time></trkpt>
<trkpt lat="25.022112" lon="102.137673">
<time>2016-04-06T10:10:04Z</time></trkpt>
<trkpt lat="25.022202" lon="102.137663">
<time>2016-04-06T10:10:05Z</time></trkpt>
<trkpt lat="25.022302" lon="102.137683">
<time>2016-04-06T10:10:06Z</time></trkpt>
<trkpt lat="25.022392" lon="102.137703">
<time>2016-04-06T10:10:07Z</time></trkpt>
<trkpt lat="25.022502" lon="102.137733">
<time>2016-04-06T10:10:08Z</time></trkpt>
<trkpt lat="25.022572" lon="102.137733">
<time>2016-04-06T10:10:09Z</time></trkpt>
<trkpt lat="25.022682" lon="102.137733">
<time>2016-04-06T10:10:10Z</time></trkpt>
<trkpt lat="25.022762" lon="102.137733">
<time>2016-04-06T10:10:11Z</time></trkpt>
<trkpt lat="25.022862" lon="102.137663">
<time>2016-04-06T10:10:12Z</time></trkpt>
<trkpt lat="25.022952" lon="102.137583">
<time>2016-04-06T10:10:13Z</time></trkpt>
<trkpt lat="25.022982" lon="102.137472">
<time>2016-04-06T10:10:14Z</time></trkpt>
<trkpt lat="25.022972" lon="102.137302">
<time>2016-04-06T10:10:15Z</time></trkpt>
<trkpt lat="25.023121" lon="102.136982">
<time>2016-04-06T10:10:16Z</time></trkpt>
<trkpt lat="25.023281" lon="102.136691">
<time>2016-04-06T10:10:17Z</time></trkpt>
<trkpt lat="25.023311" lon="102.136581">
<time>2016-04-06T10:10:18Z</time></trkpt>
<trkpt lat="25.0234" lon="102.136431">
<time>2016-04-06T10:10:19Z</time></trkpt>
<trkpt lat="25.02343" lon="102.13624">
<time>2016-04-06T10:10:20Z</time></trkpt>
<trkpt lat="25.0234" lon="102.13603">
<time>2016-04-06T10:10:21Z</time></trkpt>
<trkpt lat="25.02336" lon="102.135819">
<time>2016-04-06T10:10:22Z</time></trkpt>
<trkpt lat="25.023399" lon="102.135559">
<time>2016-04-06T10:10:23Z</time></trkpt>
<trkpt lat="25.023419" lon="102.135359">
<time>2016-04-06T10:10:24Z</time></trkpt>
<trkpt lat="25.023479" lon="102.135148">
<time>2016-04-06T10:10:25Z</time></trkpt>
<trkpt lat="25.023488" lon="102.134958">
<time>2016-04-06T10:10:26Z</time></trkpt>
<trkpt lat="25.023468" lon="102.134848">
<time>2016-04-06T10:10:27Z</time></trkpt>
<trkpt lat="25.023428" lon="102.134697">
<time>2016-04-06T10:10:28Z</time></trkpt>
<trkpt lat="25.023378" lon="102.134537">
<time>2016-04-06T10:10:29Z</time></trkpt>
<trkpt lat="25.023407" lon="102.134196">
<time>2016-04-06T10:10:30Z</time></trkpt>
<trkpt lat="25.023417" lon="102.134016">
<time>2016-04-06T10:10:31Z</time></trkpt>
<trkpt lat="25.023427" lon="102.133906">
<time>2016-04-06T10:10:32Z</time></trkpt>
<trkpt lat="25.023457" lon="102.133796">
<time>2016-04-06T10:10:33Z</time></trkpt>
<trkpt lat="25.023507" lon="102.133655">
<time>2016-04-06T10:10:34Z</time></trkpt>
<trkpt lat="25.023506" lon="102.133505">
<time>2016-04-06T10:10:35Z</time></trkpt>
<trkpt lat="25.023486" lon="102.133415">
<time>2016-04-06T10:10:36Z</time></trkpt>
<trkpt lat="25.023516" lon="102.133155">
<time>2016-04-06T10:10:37Z</time></trkpt>
<trkpt lat="25.023596" lon="102.132984">
<time>2016-04-06T10:10:38Z</time></trkpt>
<trkpt lat="25.023745" lon="102.132774">
<time>2016-04-06T10:10:39Z</time></trkpt>
<trkpt lat="25.023835" lon="102.132724">
<time>2016-04-06T10:10:40Z</time></trkpt>
<trkpt lat="25.023945" lon="102.132724">
<time>2016-04-06T10:10:41Z</time></trkpt>
<trkpt lat="25.024135" lon="102.132684">
<time>2016-04-06T10:10:42Z</time></trkpt>
<trkpt lat="25.024205" lon="102.132644">
<time>2016-04-06T10:10:43Z</time></trkpt>
<trkpt lat="25.024355" lon="102.132644">
<time>2016-04-06T10:10:44Z</time></trkpt>
<trkpt lat="25.024435" lon="102.132684">
<time>2016-04-06T10:10:45Z</time></trkpt>
<trkpt lat="25.024555" lon="102.132704">
<time>2016-04-06T10:10:46Z</time></trkpt>
<trkpt lat="25.024705" lon="102.132714">
<time>2016-04-06T10:10:47Z</time></trkpt>
<trkpt lat="25.024905" lon="102.132654">
<time>2016-04-06T10:10:48Z</time></trkpt>
<trkpt lat="25.025205" lon="102.132463">
<time>2016-04-06T10:10:49Z</time></trkpt>
<trkpt lat="25.025285" lon="102.132333">
<time>2016-04-06T10:10:50Z</time></trkpt>
<trkpt lat="25.025444" lon="102.132273">
<time>2016-04-06T10:10:51Z</time></trkpt>
<trkpt lat="25.025554" lon="102.132263">
<time>2016-04-06T10:10:52Z</time></trkpt>
<trkpt lat="25.025694" lon="102.132143">
<time>2016-04-06T10:10:53Z</time></trkpt>
<trkpt lat="25.025824" lon="102.131902">
<time>2016-04-06T10:10:54Z</time></trkpt>
<trkpt lat="25.025974" lon="102.131652">
<time>2016-04-06T10:10:55Z</time></trkpt>
<trkpt lat="25.026173" lon="102.131431">
<time>2016-04-06T10:10:56Z</time></trkpt>
<trkpt lat="25.026343" lon="102.131281">
<time>2016-04-06T10:10:57Z</time></trkpt>
<trkpt lat="25.026772" lon="102.13086">
<time>2016-04-06T10:10:58Z</time></trkpt>
<trkpt lat="25.027252" lon="102.13047">
<time>2016-04-06T10:10:59Z</time></trkpt>
<trkpt lat="25.027392" lon="102.13036">
<time>2016-04-06T10:11:00Z</time></trkpt>
<trkpt lat="25.027641" lon="102.130169">
<time>2016-04-06T10:11:01Z</time></trkpt>
<trkpt lat="25.027991" lon="102.129879">
<time>2016-04-06T10:11:02Z</time></trkpt>
<trkpt lat="25.027991" lon="102.129879">
<time>2016-04-06T10:11:03Z</time></trkpt>
<trkpt lat="25.028071" lon="102.129819">
<time>2016-04-06T10:11:04Z</time></trkpt>
<trkpt lat="25.028151" lon="102.129769">
<time>2016-04-06T10:11:05Z</time></trkpt>
<trkpt lat="25.028231" lon="102.129688">
<time>2016-04-06T10:11:06Z</time></trkpt>
<trkpt lat="25.02847" lon="102.129488">
<time>2016-04-06T10:11:07Z</time></trkpt>
<trkpt lat="25.02854" lon="102.129408">
<time>2016-04-06T10:11:08Z</time></trkpt>
<trkpt lat="25.02861" lon="102.129348">
<time>2016-04-06T10:11:09Z</time></trkpt>
<trkpt lat="25.02868" lon="102.129318">
<time>2016-04-06T10:11:10Z</time></trkpt>
<trkpt lat="25.02872" lon="102.129278">
<time>2016-04-06T10:11:11Z</time></trkpt>
<trkpt lat="25.02877" lon="102.129228">
<time>2016-04-06T10:11:12Z</time></trkpt>
<trkpt lat="25.02908" lon="102.129047">
<time>2016-04-06T10:11:13Z</time></trkpt>
<trkpt lat="25.02927" lon="102.128937">
<time>2016-04-06T10:11:14Z</time></trkpt>
<trkpt lat="25.02937" lon="102.128837">
<time>2016-04-06T10:11:15Z</time></trkpt>
<trkpt lat="25.02941" lon="102.128837">
<time>2016-04-06T10:11:16Z</time></trkpt>
<trkpt lat="25.02944" lon="102.128857">
<time>2016-04-06T10:11:17Z</time></trkpt>
<trkpt lat="25.02947" lon="102.128907">
<time>2016-04-06T10:11:18Z</time></trkpt>
<trkpt lat="25.0295" lon="102.128987">
<time>2016-04-06T10:11:19Z</time></trkpt>
<trkpt lat="25.02973" lon="102.129438">
<time>2016-04-06T10:11:20Z</time></trkpt>
<trkpt lat="25.02986" lon="102.129618">
<time>2016-04-06T10:11:21Z</time></trkpt>
<trkpt lat="25.030011" lon="102.129728">
<time>2016-04-06T10:11:22Z</time></trkpt>
<trkpt lat="25.030081" lon="102.129759">
<time>2016-04-06T10:11:23Z</time></trkpt>
<trkpt lat="25.030251" lon="102.129728">
<time>2016-04-06T10:11:24Z</time></trkpt>
<trkpt lat="25.030311" lon="102.129738">
<time>2016-04-06T10:11:25Z</time></trkpt>
<trkpt lat="25.030371" lon="102.129749">
<time>2016-04-06T10:11:26Z</time></trkpt>
<trkpt lat="25.030451" lon="102.129789">
<time>2016-04-06T10:11:27Z</time></trkpt>
<trkpt lat="25.030521" lon="102.129829">
<time>2016-04-06T10:11:28Z</time></trkpt>
<trkpt lat="25.030591" lon="102.129839">
<time>2016-04-06T10:11:29Z</time></trkpt>
<trkpt lat="25.030661" lon="102.129839">
<time>2016-04-06T10:11:30Z</time></trkpt>
<trkpt lat="25.030811" lon="102.129799">
<time>2016-04-06T10:11:31Z</time></trkpt>
<trkpt lat="25.030911" lon="102.129789">
<time>2016-04-06T10:11:32Z</time></trkpt>
<trkpt lat="25.031031" lon="102.129799">
<time>2016-04-06T10:11:33Z</time></trkpt>
<trkpt lat="25.031111" lon="102.129819">
<time>2016-04-06T10:11:34Z</time></trkpt>
<trkpt lat="25.031111" lon="102.129819">
<time>2016-04-06T10:11:35Z</time></trkpt>
<trkpt lat="25.03118" lon="102.129678">
<time>2016-04-06T10:11:36Z</time></trkpt>
<trkpt lat="25.03128" lon="102.129448">
<time>2016-04-06T10:11:37Z</time></trkpt>
<trkpt lat="25.03137" lon="102.129157">
<time>2016-04-06T10:11:38Z</time></trkpt>
<trkpt lat="25.031509" lon="102.128867">
<time>2016-04-06T10:11:39Z</time></trkpt>
<trkpt lat="25.031619" lon="102.128346">
<time>2016-04-06T10:11:40Z</time></trkpt>
<trkpt lat="25.031628" lon="102.127986">
<time>2016-04-06T10:11:41Z</time></trkpt>
<trkpt lat="25.031568" lon="102.127815">
<time>2016-04-06T10:11:42Z</time></trkpt>
<trkpt lat="25.031498" lon="102.127565">
<time>2016-04-06T10:11:43Z</time></trkpt>
<trkpt lat="25.031517" lon="102.127365">
<time>2016-04-06T10:11:44Z</time></trkpt>
<trkpt lat="25.031607" lon="102.126974">
<time>2016-04-06T10:11:45Z</time></trkpt>
<trkpt lat="25.031707" lon="102.126643">
<time>2016-04-06T10:11:46Z</time></trkpt>
<trkpt lat="25.031896" lon="102.126433">
<time>2016-04-06T10:11:47Z</time></trkpt>
<trkpt lat="25.032226" lon="102.125922">
<time>2016-04-06T10:11:48Z</time></trkpt>
<trkpt lat="25.032485" lon="102.125572">
<time>2016-04-06T10:11:49Z</time></trkpt>
<trkpt lat="25.032515" lon="102.125351">
<time>2016-04-06T10:11:50Z</time></trkpt>
<trkpt lat="25.032535" lon="102.125021">
<time>2016-04-06T10:11:51Z</time></trkpt>
<trkpt lat="25.032545" lon="102.124891">
<time>2016-04-06T10:11:52Z</time></trkpt>
<trkpt lat="25.032414" lon="102.12442">
<time>2016-04-06T10:11:53Z</time></trkpt>
<trkpt lat="25.032384" lon="102.1241">
<time>2016-04-06T10:11:54Z</time></trkpt>
<trkpt lat="25.032643" lon="102.123759">
<time>2016-04-06T10:11:55Z</time></trkpt>
<trkpt lat="25.032803" lon="102.123188">
<time>2016-04-06T10:11:56Z</time></trkpt>
<trkpt lat="25.032822" lon="102.122728">
<time>2016-04-06T10:11:57Z</time></trkpt>
<trkpt lat="25.032982" lon="102.122157">
<time>2016-04-06T10:11:58Z</time></trkpt>
<trkpt lat="25.033201" lon="102.121556">
<time>2016-04-06T10:11:59Z</time></trkpt>
<trkpt lat="25.03343" lon="102.120224">
<time>2016-04-06T10:12:00Z</time></trkpt>
<trkpt lat="25.033579" lon="102.119663">
<time>2016-04-06T10:12:01Z</time></trkpt>
<trkpt lat="25.033849" lon="102.119103">
<time>2016-04-06T10:12:02Z</time></trkpt>
<trkpt lat="25.034178" lon="102.118542">
<time>2016-04-06T10:12:03Z</time></trkpt>
<trkpt lat="25.034218" lon="102.118312">
<time>2016-04-06T10:12:04Z</time></trkpt>
<trkpt lat="25.034277" lon="102.117961">
<time>2016-04-06T10:12:05Z</time></trkpt>
<trkpt lat="25.034557" lon="102.11717">
<time>2016-04-06T10:12:06Z</time></trkpt>
<trkpt lat="25.034866" lon="102.116519">
<time>2016-04-06T10:12:07Z</time></trkpt>
<trkpt lat="25.035355" lon="102.115538">
<time>2016-04-06T10:12:08Z</time></trkpt>
<trkpt lat="25.035595" lon="102.114887">
<time>2016-04-06T10:12:09Z</time></trkpt>
<trkpt lat="25.035704" lon="102.114437">
<time>2016-04-06T10:12:10Z</time></trkpt>
<trkpt lat="25.035944" lon="102.114247">
<time>2016-04-06T10:12:11Z</time></trkpt>
<trkpt lat="25.036254" lon="102.114187">
<time>2016-04-06T10:12:12Z</time></trkpt>
<trkpt lat="25.036654" lon="102.114027">
<time>2016-04-06T10:12:13Z</time></trkpt>
<trkpt lat="25.036834" lon="102.113666">
<time>2016-04-06T10:12:14Z</time></trkpt>
<trkpt lat="25.036864" lon="102.113306">
<time>2016-04-06T10:12:15Z</time></trkpt>
<trkpt lat="25.036833" lon="102.112935">
<time>2016-04-06T10:12:16Z</time></trkpt>
<trkpt lat="25.036633" lon="102.112555">
<time>2016-04-06T10:12:17Z</time></trkpt>
<trkpt lat="25.036513" lon="102.112094">
<time>2016-04-06T10:12:18Z</time></trkpt>
<trkpt lat="25.036513" lon="102.112094">
<time>2016-04-06T10:12:19Z</time></trkpt>
<trkpt lat="25.036283" lon="102.112044">
<time>2016-04-06T10:12:20Z</time></trkpt>
<trkpt lat="25.035423" lon="102.111734">
<time>2016-04-06T10:12:21Z</time></trkpt>
<trkpt lat="25.034842" lon="102.111394">
<time>2016-04-06T10:12:22Z</time></trkpt>
<trkpt lat="25.034842" lon="102.111394">
<time>2016-04-06T10:12:23Z</time></trkpt>
<trkpt lat="25.035392" lon="102.111354">
<time>2016-04-06T10:12:24Z</time></trkpt>
<trkpt lat="25.035752" lon="102.111294">
<time>2016-04-06T10:12:25Z</time></trkpt>
<trkpt lat="25.035992" lon="102.111254">
<time>2016-04-06T10:12:26Z</time></trkpt>
<trkpt lat="25.036272" lon="102.111184">
<time>2016-04-06T10:12:27Z</time></trkpt>
<trkpt lat="25.036692" lon="102.111043">
<time>2016-04-06T10:12:28Z</time></trkpt>
<trkpt lat="25.037092" lon="102.110883">
<time>2016-04-06T10:12:29Z</time></trkpt>
<trkpt lat="25.037372" lon="102.110753">
<time>2016-04-06T10:12:30Z</time></trkpt>
<trkpt lat="25.037632" lon="102.110613">
<time>2016-04-06T10:12:31Z</time></trkpt>
<trkpt lat="25.037852" lon="102.110483">
<time>2016-04-06T10:12:32Z</time></trkpt>
<trkpt lat="25.038071" lon="102.110323">
<time>2016-04-06T10:12:33Z</time></trkpt>
<trkpt lat="25.038651" lon="102.109832">
<time>2016-04-06T10:12:34Z</time></trkpt>
<trkpt lat="25.039011" lon="102.109472">
<time>2016-04-06T10:12:35Z</time></trkpt>
<trkpt lat="25.039271" lon="102.109182">
<time>2016-04-06T10:12:36Z</time></trkpt>
<trkpt lat="25.039441" lon="102.108951">
<time>2016-04-06T10:12:37Z</time></trkpt>
<trkpt lat="25.03964" lon="102.108661">
<time>2016-04-06T10:12:38Z</time></trkpt>
<trkpt lat="25.03981" lon="102.108381">
<time>2016-04-06T10:12:39Z</time></trkpt>
<trkpt lat="25.03999" lon="102.108041">
<time>2016-04-06T10:12:40Z</time></trkpt>
<trkpt lat="25.04013" lon="102.10775">
<time>2016-04-06T10:12:41Z</time></trkpt>
<trkpt lat="25.04036" lon="102.10716">
<time>2016-04-06T10:12:42Z</time></trkpt>
<trkpt lat="25.040469" lon="102.10681">
<time>2016-04-06T10:12:43Z</time></trkpt>
<trkpt lat="25.040519" lon="102.106579">
<time>2016-04-06T10:12:44Z</time></trkpt>
<trkpt lat="25.040569" lon="102.106349">
<time>2016-04-06T10:12:45Z</time></trkpt>
<trkpt lat="25.040679" lon="102.105809">
<time>2016-04-06T10:12:46Z</time></trkpt>
<trkpt lat="25.040868" lon="102.104638">
<time>2016-04-06T10:12:47Z</time></trkpt>
<trkpt lat="25.040918" lon="102.104348">
<time>2016-04-06T10:12:48Z</time></trkpt>
<trkpt lat="25.041028" lon="102.103767">
<time>2016-04-06T10:12:49Z</time></trkpt>
<trkpt lat="25.041128" lon="102.103277">
<time>2016-04-06T10:12:50Z</time></trkpt>
<trkpt lat="25.041188" lon="102.103087">
<time>2016-04-06T10:12:51Z</time></trkpt>
<trkpt lat="25.041248" lon="102.102937">
<time>2016-04-06T10:12:52Z</time></trkpt>
<trkpt lat="25.041348" lon="102.102757">
<time>2016-04-06T10:12:53Z</time></trkpt>
<trkpt lat="25.041438" lon="102.102587">
<time>2016-04-06T10:12:54Z</time></trkpt>
<trkpt lat="25.041538" lon="102.102437">
<time>2016-04-06T10:12:55Z</time></trkpt>
<trkpt lat="25.041638" lon="102.102307">
<time>2016-04-06T10:12:56Z</time></trkpt>
<trkpt lat="25.041638" lon="102.102297">
<time>2016-04-06T10:12:57Z</time></trkpt>
<trkpt lat="25.041738" lon="102.102187">
<time>2016-04-06T10:12:58Z</time></trkpt>
<trkpt lat="25.041828" lon="102.102096">
<time>2016-04-06T10:12:59Z</time></trkpt>
<trkpt lat="25.041948" lon="102.101986">
<time>2016-04-06T10:13:00Z</time></trkpt>
<trkpt lat="25.042118" lon="102.101846">
<time>2016-04-06T10:13:01Z</time></trkpt>
<trkpt lat="25.042357" lon="102.101656">
<time>2016-04-06T10:13:02Z</time></trkpt>
<trkpt lat="25.042587" lon="102.101506">
<time>2016-04-06T10:13:03Z</time></trkpt>
<trkpt lat="25.043197" lon="102.101086">
<time>2016-04-06T10:13:04Z</time></trkpt>
<trkpt lat="25.045177" lon="102.099735">
<time>2016-04-06T10:13:05Z</time></trkpt>
<trkpt lat="25.046777" lon="102.098655">
<time>2016-04-06T10:13:06Z</time></trkpt>
<trkpt lat="25.047856" lon="102.097914">
<time>2016-04-06T10:13:07Z</time></trkpt>
<trkpt lat="25.048286" lon="102.097624">
<time>2016-04-06T10:13:08Z</time></trkpt>
<trkpt lat="25.048496" lon="102.097474">
<time>2016-04-06T10:13:09Z</time></trkpt>
<trkpt lat="25.048896" lon="102.097144">
<time>2016-04-06T10:13:10Z</time></trkpt>
<trkpt lat="25.049516" lon="102.096584">
<time>2016-04-06T10:13:11Z</time></trkpt>
<trkpt lat="25.049966" lon="102.096084">
<time>2016-04-06T10:13:12Z</time></trkpt>
<trkpt lat="25.050536" lon="102.095443">
<time>2016-04-06T10:13:13Z</time></trkpt>
<trkpt lat="25.051036" lon="102.094903">
<time>2016-04-06T10:13:14Z</time></trkpt>
<trkpt lat="25.051316" lon="102.094613">
<time>2016-04-06T10:13:15Z</time></trkpt>
<trkpt lat="25.051526" lon="102.094413">
<time>2016-04-06T10:13:16Z</time></trkpt>
<trkpt lat="25.051686" lon="102.094273">
<time>2016-04-06T10:13:17Z</time></trkpt>
<trkpt lat="25.051816" lon="102.094173">
<time>2016-04-06T10:13:18Z</time></trkpt>
<trkpt lat="25.051946" lon="102.094063">
<time>2016-04-06T10:13:19Z</time></trkpt>
<trkpt lat="25.052126" lon="102.093943">
<time>2016-04-06T10:13:20Z</time></trkpt>
<trkpt lat="25.052376" lon="102.093773">
<time>2016-04-06T10:13:21Z</time></trkpt>
<trkpt lat="25.052706" lon="102.093573">
<time>2016-04-06T10:13:22Z</time></trkpt>
<trkpt lat="25.053316" lon="102.093213">
<time>2016-04-06T10:13:23Z</time></trkpt>
<trkpt lat="25.053696" lon="102.093003">
<time>2016-04-06T10:13:24Z</time></trkpt>
<trkpt lat="25.053936" lon="102.092823">
<time>2016-04-06T10:13:25Z</time></trkpt>
<trkpt lat="25.053946" lon="102.092823">
<time>2016-04-06T10:13:26Z</time></trkpt>
<trkpt lat="25.054246" lon="102.092593">
<time>2016-04-06T10:13:27Z</time></trkpt>
<trkpt lat="25.054576" lon="102.092333">
<time>2016-04-06T10:13:28Z</time></trkpt>
<trkpt lat="25.054776" lon="102.092143">
<time>2016-04-06T10:13:29Z</time></trkpt>
<trkpt lat="25.055536" lon="102.091413">
<time>2016-04-06T10:13:30Z</time></trkpt>
<trkpt lat="25.057116" lon="102.089863">
<time>2016-04-06T10:13:31Z</time></trkpt>
<trkpt lat="25.057726" lon="102.089273">
<time>2016-04-06T10:13:32Z</time></trkpt>
<trkpt lat="25.059317" lon="102.087703">
<time>2016-04-06T10:13:33Z</time></trkpt>
<trkpt lat="25.059737" lon="102.087283">
<time>2016-04-06T10:13:34Z</time></trkpt>
<trkpt lat="25.060647" lon="102.086403">
<time>2016-04-06T10:13:35Z</time></trkpt>
<trkpt lat="25.060867" lon="102.086203">
<time>2016-04-06T10:13:36Z</time></trkpt>
<trkpt lat="25.061067" lon="102.086043">
<time>2016-04-06T10:13:37Z</time></trkpt>
<trkpt lat="25.061237" lon="102.085923">
<time>2016-04-06T10:13:38Z</time></trkpt>
<trkpt lat="25.061407" lon="102.085813">
<time>2016-04-06T10:13:39Z</time></trkpt>
<trkpt lat="25.061577" lon="102.085723">
<time>2016-04-06T10:13:40Z</time></trkpt>
<trkpt lat="25.061747" lon="102.085663">
<time>2016-04-06T10:13:41Z</time></trkpt>
<trkpt lat="25.062007" lon="102.085583">
<time>2016-04-06T10:13:42Z</time></trkpt>
<trkpt lat="25.062137" lon="102.085563">
<time>2016-04-06T10:13:43Z</time></trkpt>
<trkpt lat="25.062297" lon="102.085523">
<time>2016-04-06T10:13:44Z</time></trkpt>
<trkpt lat="25.062527" lon="102.085493">
<time>2016-04-06T10:13:45Z</time></trkpt>
<trkpt lat="25.062677" lon="102.085493">
<time>2016-04-06T10:13:46Z</time></trkpt>
<trkpt lat="25.062977" lon="102.085493">
<time>2016-04-06T10:13:47Z</time></trkpt>
<trkpt lat="25.063197" lon="102.085503">
<time>2016-04-06T10:13:48Z</time></trkpt>
<trkpt lat="25.063727" lon="102.085533">
<time>2016-04-06T10:13:49Z</time></trkpt>
<trkpt lat="25.064717" lon="102.085593">
<time>2016-04-06T10:13:50Z</time></trkpt>
<trkpt lat="25.066817" lon="102.085733">
<time>2016-04-06T10:13:51Z</time></trkpt>
<trkpt lat="25.067727" lon="102.085783">
<time>2016-04-06T10:13:52Z</time></trkpt>
<trkpt lat="25.068267" lon="102.085803">
<time>2016-04-06T10:13:53Z</time></trkpt>
<trkpt lat="25.068537" lon="102.085773">
<time>2016-04-06T10:13:54Z</time></trkpt>
<trkpt lat="25.068807" lon="102.085723">
<time>2016-04-06T10:13:55Z</time></trkpt>
<trkpt lat="25.069087" lon="102.085633">
<time>2016-04-06T10:13:56Z</time></trkpt>
<trkpt lat="25.069257" lon="102.085573">
<time>2016-04-06T10:13:57Z</time></trkpt>
<trkpt lat="25.069477" lon="102.085463">
<time>2016-04-06T10:13:58Z</time></trkpt>
<trkpt lat="25.069637" lon="102.085373">
<time>2016-04-06T10:13:59Z</time></trkpt>
<trkpt lat="25.070127" lon="102.085073">
<time>2016-04-06T10:14:00Z</time></trkpt>
<trkpt lat="25.071107" lon="102.084403">
<time>2016-04-06T10:14:01Z</time></trkpt>
<trkpt lat="25.071477" lon="102.084143">
<time>2016-04-06T10:14:02Z</time></trkpt>
<trkpt lat="25.072587" lon="102.083393">
<time>2016-04-06T10:14:03Z</time></trkpt>
<trkpt lat="25.072778" lon="102.083263">
<time>2016-04-06T10:14:04Z</time></trkpt>
<trkpt lat="25.072988" lon="102.083133">
<time>2016-04-06T10:14:05Z</time></trkpt>
<trkpt lat="25.073178" lon="102.083023">
<time>2016-04-06T10:14:06Z</time></trkpt>
<trkpt lat="25.073318" lon="102.082943">
<time>2016-04-06T10:14:07Z</time></trkpt>
<trkpt lat="25.073628" lon="102.082774">
<time>2016-04-06T10:14:08Z</time></trkpt>
<trkpt lat="25.073908" lon="102.082644">
<time>2016-04-06T10:14:09Z</time></trkpt>
<trkpt lat="25.074098" lon="102.082564">
<time>2016-04-06T10:14:10Z</time></trkpt>
<trkpt lat="25.074528" lon="102.082404">
<time>2016-04-06T10:14:11Z</time></trkpt>
<trkpt lat="25.074828" lon="102.082304">
<time>2016-04-06T10:14:12Z</time></trkpt>
<trkpt lat="25.075108" lon="102.082224">
<time>2016-04-06T10:14:13Z</time></trkpt>
<trkpt lat="25.075378" lon="102.082164">
<time>2016-04-06T10:14:14Z</time></trkpt>
<trkpt lat="25.075598" lon="102.082134">
<time>2016-04-06T10:14:15Z</time></trkpt>
<trkpt lat="25.075858" lon="102.082094">
<time>2016-04-06T10:14:16Z</time></trkpt>
<trkpt lat="25.076218" lon="102.082034">
<time>2016-04-06T10:14:17Z</time></trkpt>
<trkpt lat="25.076508" lon="102.081994">
<time>2016-04-06T10:14:18Z</time></trkpt>
<trkpt lat="25.076808" lon="102.081954">
<time>2016-04-06T10:14:19Z</time></trkpt>
<trkpt lat="25.077338" lon="102.081864">
<time>2016-04-06T10:14:20Z</time></trkpt>
<trkpt lat="25.077598" lon="102.081814">
<time>2016-04-06T10:14:21Z</time></trkpt>
<trkpt lat="25.077788" lon="102.081774">
<time>2016-04-06T10:14:22Z</time></trkpt>
<trkpt lat="25.078008" lon="102.081714">
<time>2016-04-06T10:14:23Z</time></trkpt>
<trkpt lat="25.078338" lon="102.081614">
<time>2016-04-06T10:14:24Z</time></trkpt>
<trkpt lat="25.078528" lon="102.081544">
<time>2016-04-06T10:14:25Z</time></trkpt>
<trkpt lat="25.078708" lon="102.081484">
<time>2016-04-06T10:14:26Z</time></trkpt>
<trkpt lat="25.078958" lon="102.081394">
<time>2016-04-06T10:14:27Z</time></trkpt>
<trkpt lat="25.079348" lon="102.081234">
<time>2016-04-06T10:14:28Z</time></trkpt>
<trkpt lat="25.079738" lon="102.081044">
<time>2016-04-06T10:14:29Z</time></trkpt>
<trkpt lat="25.080458" lon="102.080684">
<time>2016-04-06T10:14:30Z</time></trkpt>
<trkpt lat="25.080969" lon="102.080444">
<time>2016-04-06T10:14:31Z</time></trkpt>
<trkpt lat="25.081459" lon="102.080224">
<time>2016-04-06T10:14:32Z</time></trkpt>
<trkpt lat="25.081769" lon="102.080124">
<time>2016-04-06T10:14:33Z</time></trkpt>
<trkpt lat="25.082089" lon="102.080034">
<time>2016-04-06T10:14:34Z</time></trkpt>
<trkpt lat="25.082479" lon="102.079925">
<time>2016-04-06T10:14:35Z</time></trkpt>
<trkpt lat="25.082969" lon="102.079835">
<time>2016-04-06T10:14:36Z</time></trkpt>
<trkpt lat="25.083349" lon="102.079795">
<time>2016-04-06T10:14:37Z</time></trkpt>
<trkpt lat="25.083569" lon="102.079765">
<time>2016-04-06T10:14:38Z</time></trkpt>
<trkpt lat="25.083639" lon="102.079765">
<time>2016-04-06T10:14:39Z</time></trkpt>
<trkpt lat="25.084089" lon="102.079755">
<time>2016-04-06T10:14:40Z</time></trkpt>
<trkpt lat="25.084649" lon="102.079755">
<time>2016-04-06T10:14:41Z</time></trkpt>
<trkpt lat="25.086978" lon="102.079754">
<time>2016-04-06T10:14:42Z</time></trkpt>
<trkpt lat="25.088578" lon="102.079734">
<time>2016-04-06T10:14:43Z</time></trkpt>
<trkpt lat="25.089748" lon="102.079694">
<time>2016-04-06T10:14:44Z</time></trkpt>
<trkpt lat="25.090288" lon="102.079634">
<time>2016-04-06T10:14:45Z</time></trkpt>
<trkpt lat="25.091108" lon="102.079534">
<time>2016-04-06T10:14:46Z</time></trkpt>
<trkpt lat="25.092098" lon="102.079385">
<time>2016-04-06T10:14:47Z</time></trkpt>
<trkpt lat="25.093968" lon="102.079115">
<time>2016-04-06T10:14:48Z</time></trkpt>
<trkpt lat="25.095298" lon="102.078915">
<time>2016-04-06T10:14:49Z</time></trkpt>
<trkpt lat="25.097228" lon="102.078655">
<time>2016-04-06T10:14:50Z</time></trkpt>
<trkpt lat="25.098408" lon="102.078495">
<time>2016-04-06T10:14:51Z</time></trkpt>
<trkpt lat="25.098948" lon="102.078455">
<time>2016-04-06T10:14:52Z</time></trkpt>
<trkpt lat="25.099428" lon="102.078425">
<time>2016-04-06T10:14:53Z</time></trkpt>
<trkpt lat="25.100398" lon="102.078435">
<time>2016-04-06T10:14:54Z</time></trkpt>
<trkpt lat="25.101368" lon="102.078475">
<time>2016-04-06T10:14:55Z</time></trkpt>
<trkpt lat="25.101888" lon="102.078455">
<time>2016-04-06T10:14:56Z</time></trkpt>
<trkpt lat="25.102198" lon="102.078435">
<time>2016-04-06T10:14:57Z</time></trkpt>
<trkpt lat="25.102468" lon="102.078365">
<time>2016-04-06T10:14:58Z</time></trkpt>
<trkpt lat="25.102768" lon="102.078265">
<time>2016-04-06T10:14:59Z</time></trkpt>
<trkpt lat="25.103028" lon="102.078135">
<time>2016-04-06T10:15:00Z</time></trkpt>
<trkpt lat="25.103228" lon="102.078015">
<time>2016-04-06T10:15:01Z</time></trkpt>
<trkpt lat="25.103579" lon="102.077775">
<time>2016-04-06T10:15:02Z</time></trkpt>
<trkpt lat="25.104079" lon="102.077435">
<time>2016-04-06T10:15:03Z</time></trkpt>
<trkpt lat="25.105339" lon="102.076576">
<time>2016-04-06T10:15:04Z</time></trkpt>
<trkpt lat="25.10588" lon="102.076206">
<time>2016-04-06T10:15:05Z</time></trkpt>
<trkpt lat="25.10635" lon="102.075926">
<time>2016-04-06T10:15:06Z</time></trkpt>
<trkpt lat="25.10673" lon="102.075746">
<time>2016-04-06T10:15:07Z</time></trkpt>
<trkpt lat="25.10708" lon="102.075616">
<time>2016-04-06T10:15:08Z</time></trkpt>
<trkpt lat="25.10739" lon="102.075546">
<time>2016-04-06T10:15:09Z</time></trkpt>
<trkpt lat="25.1077" lon="102.075496">
<time>2016-04-06T10:15:10Z</time></trkpt>
<trkpt lat="25.10805" lon="102.075466">
<time>2016-04-06T10:15:11Z</time></trkpt>
<trkpt lat="25.10814" lon="102.075466">
<time>2016-04-06T10:15:12Z</time></trkpt>
<trkpt lat="25.10841" lon="102.075446">
<time>2016-04-06T10:15:13Z</time></trkpt>
<trkpt lat="25.10898" lon="102.075446">
<time>2016-04-06T10:15:14Z</time></trkpt>
<trkpt lat="25.11098" lon="102.075416">
<time>2016-04-06T10:15:15Z</time></trkpt>
<trkpt lat="25.11139" lon="102.075416">
<time>2016-04-06T10:15:16Z</time></trkpt>
<trkpt lat="25.11159" lon="102.075396">
<time>2016-04-06T10:15:17Z</time></trkpt>
<trkpt lat="25.1118" lon="102.075386">
<time>2016-04-06T10:15:18Z</time></trkpt>
<trkpt lat="25.11199" lon="102.075346">
<time>2016-04-06T10:15:19Z</time></trkpt>
<trkpt lat="25.11219" lon="102.075306">
<time>2016-04-06T10:15:20Z</time></trkpt>
<trkpt lat="25.11237" lon="102.075257">
<time>2016-04-06T10:15:21Z</time></trkpt>
<trkpt lat="25.11252" lon="102.075207">
<time>2016-04-06T10:15:22Z</time></trkpt>
<trkpt lat="25.11266" lon="102.075147">
<time>2016-04-06T10:15:23Z</time></trkpt>
<trkpt lat="25.11279" lon="102.075087">
<time>2016-04-06T10:15:24Z</time></trkpt>
<trkpt lat="25.11288" lon="102.075047">
<time>2016-04-06T10:15:25Z</time></trkpt>
<trkpt lat="25.11296" lon="102.075007">
<time>2016-04-06T10:15:26Z</time></trkpt>
<trkpt lat="25.11304" lon="102.074967">
<time>2016-04-06T10:15:27Z</time></trkpt>
<trkpt lat="25.1131" lon="102.074927">
<time>2016-04-06T10:15:28Z</time></trkpt>
<trkpt lat="25.11326" lon="102.074797">
<time>2016-04-06T10:15:29Z</time></trkpt>
<trkpt lat="25.11326" lon="102.074797">
<time>2016-04-06T10:15:30Z</time></trkpt>
<trkpt lat="25.113411" lon="102.074657">
<time>2016-04-06T10:15:31Z</time></trkpt>
<trkpt lat="25.113521" lon="102.074567">
<time>2016-04-06T10:15:32Z</time></trkpt>
<trkpt lat="25.113641" lon="102.074477">
<time>2016-04-06T10:15:33Z</time></trkpt>
<trkpt lat="25.113731" lon="102.074407">
<time>2016-04-06T10:15:34Z</time></trkpt>
<trkpt lat="25.113831" lon="102.074317">
<time>2016-04-06T10:15:35Z</time></trkpt>
<trkpt lat="25.113951" lon="102.074187">
<time>2016-04-06T10:15:36Z</time></trkpt>
<trkpt lat="25.114051" lon="102.074057">
<time>2016-04-06T10:15:37Z</time></trkpt>
<trkpt lat="25.114161" lon="102.073927">
<time>2016-04-06T10:15:38Z</time></trkpt>
<trkpt lat="25.114361" lon="102.073658">
<time>2016-04-06T10:15:39Z</time></trkpt>
<trkpt lat="25.114802" lon="102.072988">
<time>2016-04-06T10:15:40Z</time></trkpt>
<trkpt lat="25.115393" lon="102.071909">
<time>2016-04-06T10:15:41Z</time></trkpt>
<trkpt lat="25.115944" lon="102.07097">
<time>2016-04-06T10:15:42Z</time></trkpt>
<trkpt lat="25.116626" lon="102.069781">
<time>2016-04-06T10:15:43Z</time></trkpt>
<trkpt lat="25.116946" lon="102.069232">
<time>2016-04-06T10:15:44Z</time></trkpt>
<trkpt lat="25.117908" lon="102.067543">
<time>2016-04-06T10:15:45Z</time></trkpt>
<trkpt lat="25.118469" lon="102.066575">
<time>2016-04-06T10:15:46Z</time></trkpt>
<trkpt lat="25.11887" lon="102.066025">
<time>2016-04-06T10:15:47Z</time></trkpt>
<trkpt lat="25.119311" lon="102.065566">
<time>2016-04-06T10:15:48Z</time></trkpt>
<trkpt lat="25.119321" lon="102.065546">
<time>2016-04-06T10:15:49Z</time></trkpt>
<trkpt lat="25.119581" lon="102.065316">
<time>2016-04-06T10:15:50Z</time></trkpt>
<trkpt lat="25.119701" lon="102.065216">
<time>2016-04-06T10:15:51Z</time></trkpt>
<trkpt lat="25.120122" lon="102.064887">
<time>2016-04-06T10:15:52Z</time></trkpt>
<trkpt lat="25.120352" lon="102.064747">
<time>2016-04-06T10:15:53Z</time></trkpt>
<trkpt lat="25.120492" lon="102.064667">
<time>2016-04-06T10:15:54Z</time></trkpt>
<trkpt lat="25.120692" lon="102.064567">
<time>2016-04-06T10:15:55Z</time></trkpt>
<trkpt lat="25.120982" lon="102.064417">
<time>2016-04-06T10:15:56Z</time></trkpt>
<trkpt lat="25.121582" lon="102.064227">
<time>2016-04-06T10:15:57Z</time></trkpt>
<trkpt lat="25.121763" lon="102.064177">
<time>2016-04-06T10:15:58Z</time></trkpt>
<trkpt lat="25.122013" lon="102.064127">
<time>2016-04-06T10:15:59Z</time></trkpt>
<trkpt lat="25.122173" lon="102.064107">
<time>2016-04-06T10:16:00Z</time></trkpt>
<trkpt lat="25.122303" lon="102.064077">
<time>2016-04-06T10:16:01Z</time></trkpt>
<trkpt lat="25.122633" lon="102.064057">
<time>2016-04-06T10:16:02Z</time></trkpt>
<trkpt lat="25.123083" lon="102.064047">
<time>2016-04-06T10:16:03Z</time></trkpt>
<trkpt lat="25.124882" lon="102.064057">
<time>2016-04-06T10:16:04Z</time></trkpt>
<trkpt lat="25.129302" lon="102.064087">
<time>2016-04-06T10:16:05Z</time></trkpt>
<trkpt lat="25.129342" lon="102.064087">
<time>2016-04-06T10:16:06Z</time></trkpt>
<trkpt lat="25.131432" lon="102.064107">
<time>2016-04-06T10:16:07Z</time></trkpt>
<trkpt lat="25.134542" lon="102.064137">
<time>2016-04-06T10:16:08Z</time></trkpt>
<trkpt lat="25.135092" lon="102.064147">
<time>2016-04-06T10:16:09Z</time></trkpt>
<trkpt lat="25.137441" lon="102.064157">
<time>2016-04-06T10:16:10Z</time></trkpt>
<trkpt lat="25.137491" lon="102.064157">
<time>2016-04-06T10:16:11Z</time></trkpt>
<trkpt lat="25.139781" lon="102.064177">
<time>2016-04-06T10:16:12Z</time></trkpt>
<trkpt lat="25.140741" lon="102.064187">
<time>2016-04-06T10:16:13Z</time></trkpt>
<trkpt lat="25.142461" lon="102.064207">
<time>2016-04-06T10:16:14Z</time></trkpt>
<trkpt lat="25.142521" lon="102.064207">
<time>2016-04-06T10:16:15Z</time></trkpt>
<trkpt lat="25.142641" lon="102.064207">
<time>2016-04-06T10:16:16Z</time></trkpt>
<trkpt lat="25.144461" lon="102.064207">
<time>2016-04-06T10:16:17Z</time></trkpt>
<trkpt lat="25.145771" lon="102.064207">
<time>2016-04-06T10:16:18Z</time></trkpt>
<trkpt lat="25.146281" lon="102.064227">
<time>2016-04-06T10:16:19Z</time></trkpt>
<trkpt lat="25.146351" lon="102.064227">
<time>2016-04-06T10:16:20Z</time></trkpt>
<trkpt lat="25.146421" lon="102.064207">
<time>2016-04-06T10:16:21Z</time></trkpt>
<trkpt lat="25.146471" lon="102.064167">
<time>2016-04-06T10:16:22Z</time></trkpt>
<trkpt lat="25.146531" lon="102.064137">
<time>2016-04-06T10:16:23Z</time></trkpt>
<trkpt lat="25.146581" lon="102.064097">
<time>2016-04-06T10:16:24Z</time></trkpt>
<trkpt lat="25.146631" lon="102.064067">
<time>2016-04-06T10:16:25Z</time></trkpt>
<trkpt lat="25.146631" lon="102.064067">
<time>2016-04-06T10:16:26Z</time></trkpt>
<trkpt lat="25.146611" lon="102.064087">
<time>2016-04-06T10:16:27Z</time></trkpt>
<trkpt lat="25.146591" lon="102.064127">
<time>2016-04-06T10:16:28Z</time></trkpt>
<trkpt lat="25.146581" lon="102.064147">
<time>2016-04-06T10:16:29Z</time></trkpt>
<trkpt lat="25.146581" lon="102.064147">
<time>2016-04-06T10:16:30Z</time></trkpt>
<trkpt lat="25.146591" lon="102.064127">
<time>2016-04-06T10:16:31Z</time></trkpt>
<trkpt lat="25.146611" lon="102.064087">
<time>2016-04-06T10:16:32Z</time></trkpt>
<trkpt lat="25.146631" lon="102.064067">
<time>2016-04-06T10:16:33Z</time></trkpt>
<trkpt lat="25.146651" lon="102.064047">
<time>2016-04-06T10:16:34Z</time></trkpt>
<trkpt lat="25.146671" lon="102.064027">
<time>2016-04-06T10:16:35Z</time></trkpt>
<trkpt lat="25.146701" lon="102.064017">
<time>2016-04-06T10:16:36Z</time></trkpt>
<trkpt lat="25.146721" lon="102.063997">
<time>2016-04-06T10:16:37Z</time></trkpt>
<trkpt lat="25.146741" lon="102.063997">
<time>2016-04-06T10:16:38Z</time></trkpt>
<trkpt lat="25.146761" lon="102.063987">
<time>2016-04-06T10:16:39Z</time></trkpt>
<trkpt lat="25.146781" lon="102.063987">
<time>2016-04-06T10:16:40Z</time></trkpt>
<trkpt lat="25.146801" lon="102.063987">
<time>2016-04-06T10:16:41Z</time></trkpt>
<trkpt lat="25.146821" lon="102.063987">
<time>2016-04-06T10:16:42Z</time></trkpt>
<trkpt lat="25.146841" lon="102.063997">
<time>2016-04-06T10:16:43Z</time></trkpt>
<trkpt lat="25.146841" lon="102.063997">
<time>2016-04-06T10:16:44Z</time></trkpt>
<trkpt lat="25.146982" lon="102.063118">
<time>2016-04-06T10:16:45Z</time></trkpt>
<trkpt lat="25.147154" lon="102.06195">
<time>2016-04-06T10:16:46Z</time></trkpt>
<trkpt lat="25.147204" lon="102.06167">
<time>2016-04-06T10:16:47Z</time></trkpt>
<trkpt lat="25.147275" lon="102.06139">
<time>2016-04-06T10:16:48Z</time></trkpt>
<trkpt lat="25.147355" lon="102.061141">
<time>2016-04-06T10:16:49Z</time></trkpt>
<trkpt lat="25.147406" lon="102.061001">
<time>2016-04-06T10:16:50Z</time></trkpt>
<trkpt lat="25.147496" lon="102.060791">
<time>2016-04-06T10:16:51Z</time></trkpt>
<trkpt lat="25.147727" lon="102.060332">
<time>2016-04-06T10:16:52Z</time></trkpt>
<trkpt lat="25.147917" lon="102.059962">
<time>2016-04-06T10:16:53Z</time></trkpt>
<trkpt lat="25.148017" lon="102.059763">
<time>2016-04-06T10:16:54Z</time></trkpt>
<trkpt lat="25.148088" lon="102.059593">
<time>2016-04-06T10:16:55Z</time></trkpt>
<trkpt lat="25.148278" lon="102.059223">
<time>2016-04-06T10:16:56Z</time></trkpt>
<trkpt lat="25.148309" lon="102.058924">
<time>2016-04-06T10:16:57Z</time></trkpt>
<trkpt lat="25.148179" lon="102.058674">
<time>2016-04-06T10:16:58Z</time></trkpt>
<trkpt lat="25.1481" lon="102.058485">
<time>2016-04-06T10:16:59Z</time></trkpt>
<trkpt lat="25.14806" lon="102.058385">
<time>2016-04-06T10:17:00Z</time></trkpt>
<trkpt lat="25.14804" lon="102.058315">
<time>2016-04-06T10:17:01Z</time></trkpt>
<trkpt lat="25.14802" lon="102.058265">
<time>2016-04-06T10:17:02Z</time></trkpt>
<trkpt lat="25.148" lon="102.058155">
<time>2016-04-06T10:17:03Z</time></trkpt>
<trkpt lat="25.14797" lon="102.058015">
<time>2016-04-06T10:17:04Z</time></trkpt>
<trkpt lat="25.147911" lon="102.057626">
<time>2016-04-06T10:17:05Z</time></trkpt>
<trkpt lat="25.147911" lon="102.057626">
<time>2016-04-06T10:17:06Z</time></trkpt>
<trkpt lat="25.147923" lon="102.056378">
<time>2016-04-06T10:17:07Z</time></trkpt>
<trkpt lat="25.147914" lon="102.055909">
<time>2016-04-06T10:17:08Z</time></trkpt>
<trkpt lat="25.147895" lon="102.05535">
<time>2016-04-06T10:17:09Z</time></trkpt>
<trkpt lat="25.147886" lon="102.05507">
<time>2016-04-06T10:17:10Z</time></trkpt>
<trkpt lat="25.147866" lon="102.05487">
<time>2016-04-06T10:17:11Z</time></trkpt>
<trkpt lat="25.147816" lon="102.054661">
<time>2016-04-06T10:17:12Z</time></trkpt>
<trkpt lat="25.147777" lon="102.054471">
<time>2016-04-06T10:17:13Z</time></trkpt>
<trkpt lat="25.147707" lon="102.054231">
<time>2016-04-06T10:17:14Z</time></trkpt>
<trkpt lat="25.147588" lon="102.053762">
<time>2016-04-06T10:17:15Z</time></trkpt>
<trkpt lat="25.147558" lon="102.053612">
<time>2016-04-06T10:17:16Z</time></trkpt>
<trkpt lat="25.147529" lon="102.053453">
<time>2016-04-06T10:17:17Z</time></trkpt>
<trkpt lat="25.147509" lon="102.053273">
<time>2016-04-06T10:17:18Z</time></trkpt>
<trkpt lat="25.147499" lon="102.053053">
<time>2016-04-06T10:17:19Z</time></trkpt>
<trkpt lat="25.14749" lon="102.052744">
<time>2016-04-06T10:17:20Z</time></trkpt>
<trkpt lat="25.14749" lon="102.052634">
<time>2016-04-06T10:17:21Z</time></trkpt>
<trkpt lat="25.1475" lon="102.052564">
<time>2016-04-06T10:17:22Z</time></trkpt>
<trkpt lat="25.14751" lon="102.052474">
<time>2016-04-06T10:17:23Z</time></trkpt>
<trkpt lat="25.147521" lon="102.052395">
<time>2016-04-06T10:17:24Z</time></trkpt>
<trkpt lat="25.147541" lon="102.052245">
<time>2016-04-06T10:17:25Z</time></trkpt>
<trkpt lat="25.147561" lon="102.052095">
<time>2016-04-06T10:17:26Z</time></trkpt>
<trkpt lat="25.147632" lon="102.051806">
<time>2016-04-06T10:17:27Z</time></trkpt>
<trkpt lat="25.147722" lon="102.051386">
<time>2016-04-06T10:17:28Z</time></trkpt>
<trkpt lat="25.147733" lon="102.051327">
<time>2016-04-06T10:17:29Z</time></trkpt>
<trkpt lat="25.147763" lon="102.051197">
<time>2016-04-06T10:17:30Z</time></trkpt>
<trkpt lat="25.147783" lon="102.051007">
<time>2016-04-06T10:17:31Z</time></trkpt>
<trkpt lat="25.147783" lon="102.050887">
<time>2016-04-06T10:17:32Z</time></trkpt>
<trkpt lat="25.147784" lon="102.050788">
<time>2016-04-06T10:17:33Z</time></trkpt>
<trkpt lat="25.147774" lon="102.050678">
<time>2016-04-06T10:17:34Z</time></trkpt>
<trkpt lat="25.147754" lon="102.050578">
<time>2016-04-06T10:17:35Z</time></trkpt>
<trkpt lat="25.147724" lon="102.050438">
<time>2016-04-06T10:17:36Z</time></trkpt>
<trkpt lat="25.147685" lon="102.050288">
<time>2016-04-06T10:17:37Z</time></trkpt>
<trkpt lat="25.147625" lon="102.050129">
<time>2016-04-06T10:17:38Z</time></trkpt>
<trkpt lat="25.147555" lon="102.049979">
<time>2016-04-06T10:17:39Z</time></trkpt>
<trkpt lat="25.147495" lon="102.049889">
<time>2016-04-06T10:17:40Z</time></trkpt>
<trkpt lat="25.147426" lon="102.049789">
<time>2016-04-06T10:17:41Z</time></trkpt>
<trkpt lat="25.147336" lon="102.04969">
<time>2016-04-06T10:17:42Z</time></trkpt>
<trkpt lat="25.147266" lon="102.04962">
<time>2016-04-06T10:17:43Z</time></trkpt>
<trkpt lat="25.147196" lon="102.04956">
<time>2016-04-06T10:17:44Z</time></trkpt>
<trkpt lat="25.147096" lon="102.04947">
<time>2016-04-06T10:17:45Z</time></trkpt>
<trkpt lat="25.147016" lon="102.04941">
<time>2016-04-06T10:17:46Z</time></trkpt>
<trkpt lat="25.146857" lon="102.04933">
<time>2016-04-06T10:17:47Z</time></trkpt>
<trkpt lat="25.146307" lon="102.049091">
<time>2016-04-06T10:17:48Z</time></trkpt>
<trkpt lat="25.146177" lon="102.049031">
<time>2016-04-06T10:17:49Z</time></trkpt>
<trkpt lat="25.146087" lon="102.048981">
<time>2016-04-06T10:17:50Z</time></trkpt>
<trkpt lat="25.145968" lon="102.048911">
<time>2016-04-06T10:17:51Z</time></trkpt>
<trkpt lat="25.145868" lon="102.048831">
<time>2016-04-06T10:17:52Z</time></trkpt>
<trkpt lat="25.145788" lon="102.048761">
<time>2016-04-06T10:17:53Z</time></trkpt>
<trkpt lat="25.145708" lon="102.048682">
<time>2016-04-06T10:17:54Z</time></trkpt>
<trkpt lat="25.145608" lon="102.048572">
<time>2016-04-06T10:17:55Z</time></trkpt>
<trkpt lat="25.145558" lon="102.048492">
<time>2016-04-06T10:17:56Z</time></trkpt>
<trkpt lat="25.145489" lon="102.048372">
<time>2016-04-06T10:17:57Z</time></trkpt>
<trkpt lat="25.145429" lon="102.048232">
<time>2016-04-06T10:17:58Z</time></trkpt>
<trkpt lat="25.145379" lon="102.048063">
<time>2016-04-06T10:17:59Z</time></trkpt>
<trkpt lat="25.14529" lon="102.047773">
<time>2016-04-06T10:18:00Z</time></trkpt>
<trkpt lat="25.145121" lon="102.047115">
<time>2016-04-06T10:18:01Z</time></trkpt>
<trkpt lat="25.145052" lon="102.046915">
<time>2016-04-06T10:18:02Z</time></trkpt>
<trkpt lat="25.145002" lon="102.046795">
<time>2016-04-06T10:18:03Z</time></trkpt>
<trkpt lat="25.144903" lon="102.046546">
<time>2016-04-06T10:18:04Z</time></trkpt>
<trkpt lat="25.144793" lon="102.046276">
<time>2016-04-06T10:18:05Z</time></trkpt>
<trkpt lat="25.144704" lon="102.046017">
<time>2016-04-06T10:18:06Z</time></trkpt>
<trkpt lat="25.144634" lon="102.045757">
<time>2016-04-06T10:18:07Z</time></trkpt>
<trkpt lat="25.144545" lon="102.045368">
<time>2016-04-06T10:18:08Z</time></trkpt>
<trkpt lat="25.144516" lon="102.045179">
<time>2016-04-06T10:18:09Z</time></trkpt>
<trkpt lat="25.144496" lon="102.045069">
<time>2016-04-06T10:18:10Z</time></trkpt>
<trkpt lat="25.144486" lon="102.044959">
<time>2016-04-06T10:18:11Z</time></trkpt>
<trkpt lat="25.144476" lon="102.044839">
<time>2016-04-06T10:18:12Z</time></trkpt>
<trkpt lat="25.144467" lon="102.04457">
<time>2016-04-06T10:18:13Z</time></trkpt>
<trkpt lat="25.144449" lon="102.043602">
<time>2016-04-06T10:18:14Z</time></trkpt>
<trkpt lat="25.14445" lon="102.043143">
<time>2016-04-06T10:18:15Z</time></trkpt>
<trkpt lat="25.14445" lon="102.043033">
<time>2016-04-06T10:18:16Z</time></trkpt>
<trkpt lat="25.14446" lon="102.042953">
<time>2016-04-06T10:18:17Z</time></trkpt>
<trkpt lat="25.144471" lon="102.042884">
<time>2016-04-06T10:18:18Z</time></trkpt>
<trkpt lat="25.144491" lon="102.042764">
<time>2016-04-06T10:18:19Z</time></trkpt>
<trkpt lat="25.144521" lon="102.042624">
<time>2016-04-06T10:18:20Z</time></trkpt>
<trkpt lat="25.144582" lon="102.042415">
<time>2016-04-06T10:18:21Z</time></trkpt>
<trkpt lat="25.144753" lon="102.041896">
<time>2016-04-06T10:18:22Z</time></trkpt>
<trkpt lat="25.144803" lon="102.041676">
<time>2016-04-06T10:18:23Z</time></trkpt>
<trkpt lat="25.144834" lon="102.041517">
<time>2016-04-06T10:18:24Z</time></trkpt>
<trkpt lat="25.144834" lon="102.041437">
<time>2016-04-06T10:18:25Z</time></trkpt>
<trkpt lat="25.144834" lon="102.041287">
<time>2016-04-06T10:18:26Z</time></trkpt>
<trkpt lat="25.144846" lon="102.040708">
<time>2016-04-06T10:18:27Z</time></trkpt>
<trkpt lat="25.144866" lon="102.040509">
<time>2016-04-06T10:18:28Z</time></trkpt>
<trkpt lat="25.144886" lon="102.040319">
<time>2016-04-06T10:18:29Z</time></trkpt>
<trkpt lat="25.144927" lon="102.04012">
<time>2016-04-06T10:18:30Z</time></trkpt>
<trkpt lat="25.145089" lon="102.039381">
<time>2016-04-06T10:18:31Z</time></trkpt>
<trkpt lat="25.145119" lon="102.039202">
<time>2016-04-06T10:18:32Z</time></trkpt>
<trkpt lat="25.14515" lon="102.038962">
<time>2016-04-06T10:18:33Z</time></trkpt>
<trkpt lat="25.14516" lon="102.038902">
<time>2016-04-06T10:18:34Z</time></trkpt>
<trkpt lat="25.14516" lon="102.038813">
<time>2016-04-06T10:18:35Z</time></trkpt>
<trkpt lat="25.14517" lon="102.038643">
<time>2016-04-06T10:18:36Z</time></trkpt>
<trkpt lat="25.145171" lon="102.038324">
<time>2016-04-06T10:18:37Z</time></trkpt>
<trkpt lat="25.145182" lon="102.037994">
<time>2016-04-06T10:18:38Z</time></trkpt>
<trkpt lat="25.145182" lon="102.037835">
<time>2016-04-06T10:18:39Z</time></trkpt>
<trkpt lat="25.145193" lon="102.037725">
<time>2016-04-06T10:18:40Z</time></trkpt>
<trkpt lat="25.145213" lon="102.037585">
<time>2016-04-06T10:18:41Z</time></trkpt>
<trkpt lat="25.145243" lon="102.037446">
<time>2016-04-06T10:18:42Z</time></trkpt>
<trkpt lat="25.145264" lon="102.037356">
<time>2016-04-06T10:18:43Z</time></trkpt>
<trkpt lat="25.145284" lon="102.037276">
<time>2016-04-06T10:18:44Z</time></trkpt>
<trkpt lat="25.145324" lon="102.037136">
<time>2016-04-06T10:18:45Z</time></trkpt>
<trkpt lat="25.145364" lon="102.036977">
<time>2016-04-06T10:18:46Z</time></trkpt>
<trkpt lat="25.145516" lon="102.036478">
<time>2016-04-06T10:18:47Z</time></trkpt>
<trkpt lat="25.145586" lon="102.036239">
<time>2016-04-06T10:18:48Z</time></trkpt>
<trkpt lat="25.145637" lon="102.035989">
<time>2016-04-06T10:18:49Z</time></trkpt>
<trkpt lat="25.145657" lon="102.03584">
<time>2016-04-06T10:18:50Z</time></trkpt>
<trkpt lat="25.145678" lon="102.0357">
<time>2016-04-06T10:18:51Z</time></trkpt>
<trkpt lat="25.145688" lon="102.03555">
<time>2016-04-06T10:18:52Z</time></trkpt>
<trkpt lat="25.145698" lon="102.035361">
<time>2016-04-06T10:18:53Z</time></trkpt>
<trkpt lat="25.145699" lon="102.035181">
<time>2016-04-06T10:18:54Z</time></trkpt>
<trkpt lat="25.145699" lon="102.034982">
<time>2016-04-06T10:18:55Z</time></trkpt>
<trkpt lat="25.14568" lon="102.034762">
<time>2016-04-06T10:18:56Z</time></trkpt>
<trkpt lat="25.14567" lon="102.034563">
<time>2016-04-06T10:18:57Z</time></trkpt>
<trkpt lat="25.145661" lon="102.034373">
<time>2016-04-06T10:18:58Z</time></trkpt>
<trkpt lat="25.145651" lon="102.034214">
<time>2016-04-06T10:18:59Z</time></trkpt>
<trkpt lat="25.145652" lon="102.034114">
<time>2016-04-06T10:19:00Z</time></trkpt>
<trkpt lat="25.145662" lon="102.033914">
<time>2016-04-06T10:19:01Z</time></trkpt>
<trkpt lat="25.145672" lon="102.033785">
<time>2016-04-06T10:19:02Z</time></trkpt>
<trkpt lat="25.145693" lon="102.033695">
<time>2016-04-06T10:19:03Z</time></trkpt>
<trkpt lat="25.145723" lon="102.033595">
<time>2016-04-06T10:19:04Z</time></trkpt>
<trkpt lat="25.145763" lon="102.033535">
<time>2016-04-06T10:19:05Z</time></trkpt>
<trkpt lat="25.145783" lon="102.033465">
<time>2016-04-06T10:19:06Z</time></trkpt>
<trkpt lat="25.145853" lon="102.033376">
<time>2016-04-06T10:19:07Z</time></trkpt>
<trkpt lat="25.145904" lon="102.033306">
<time>2016-04-06T10:19:08Z</time></trkpt>
<trkpt lat="25.145994" lon="102.033226">
<time>2016-04-06T10:19:09Z</time></trkpt>
<trkpt lat="25.146114" lon="102.033116">
<time>2016-04-06T10:19:10Z</time></trkpt>
<trkpt lat="25.146294" lon="102.032977">
<time>2016-04-06T10:19:11Z</time></trkpt>
<trkpt lat="25.146765" lon="102.032588">
<time>2016-04-06T10:19:12Z</time></trkpt>
<trkpt lat="25.146916" lon="102.032478">
<time>2016-04-06T10:19:13Z</time></trkpt>
<trkpt lat="25.147006" lon="102.032428">
<time>2016-04-06T10:19:14Z</time></trkpt>
<trkpt lat="25.147076" lon="102.032398">
<time>2016-04-06T10:19:15Z</time></trkpt>
<trkpt lat="25.147176" lon="102.032358">
<time>2016-04-06T10:19:16Z</time></trkpt>
<trkpt lat="25.147326" lon="102.032318">
<time>2016-04-06T10:19:17Z</time></trkpt>
<trkpt lat="25.147456" lon="102.032298">
<time>2016-04-06T10:19:18Z</time></trkpt>
<trkpt lat="25.147656" lon="102.032278">
<time>2016-04-06T10:19:19Z</time></trkpt>
<trkpt lat="25.147946" lon="102.032248">
<time>2016-04-06T10:19:20Z</time></trkpt>
<trkpt lat="25.148206" lon="102.032198">
<time>2016-04-06T10:19:21Z</time></trkpt>
<trkpt lat="25.148376" lon="102.032159">
<time>2016-04-06T10:19:22Z</time></trkpt>
<trkpt lat="25.148466" lon="102.032139">
<time>2016-04-06T10:19:23Z</time></trkpt>
<trkpt lat="25.148537" lon="102.032109">
<time>2016-04-06T10:19:24Z</time></trkpt>
<trkpt lat="25.148687" lon="102.032039">
<time>2016-04-06T10:19:25Z</time></trkpt>
<trkpt lat="25.148737" lon="102.031999">
<time>2016-04-06T10:19:26Z</time></trkpt>
<trkpt lat="25.148817" lon="102.031949">
<time>2016-04-06T10:19:27Z</time></trkpt>
<trkpt lat="25.148877" lon="102.031889">
<time>2016-04-06T10:19:28Z</time></trkpt>
<trkpt lat="25.148967" lon="102.031799">
<time>2016-04-06T10:19:29Z</time></trkpt>
<trkpt lat="25.149017" lon="102.03174">
<time>2016-04-06T10:19:30Z</time></trkpt>
<trkpt lat="25.149088" lon="102.03163">
<time>2016-04-06T10:19:31Z</time></trkpt>
<trkpt lat="25.149188" lon="102.03146">
<time>2016-04-06T10:19:32Z</time></trkpt>
<trkpt lat="25.149349" lon="102.031151">
<time>2016-04-06T10:19:33Z</time></trkpt>
<trkpt lat="25.149761" lon="102.030423">
<time>2016-04-06T10:19:34Z</time></trkpt>
<trkpt lat="25.149831" lon="102.030293">
<time>2016-04-06T10:19:35Z</time></trkpt>
<trkpt lat="25.149911" lon="102.030193">
<time>2016-04-06T10:19:36Z</time></trkpt>
<trkpt lat="25.150012" lon="102.030084">
<time>2016-04-06T10:19:37Z</time></trkpt>
<trkpt lat="25.150102" lon="102.030014">
<time>2016-04-06T10:19:38Z</time></trkpt>
<trkpt lat="25.150192" lon="102.029954">
<time>2016-04-06T10:19:39Z</time></trkpt>
<trkpt lat="25.150272" lon="102.029914">
<time>2016-04-06T10:19:40Z</time></trkpt>
<trkpt lat="25.150382" lon="102.029864">
<time>2016-04-06T10:19:41Z</time></trkpt>
<trkpt lat="25.150462" lon="102.029854">
<time>2016-04-06T10:19:42Z</time></trkpt>
<trkpt lat="25.150552" lon="102.029834">
<time>2016-04-06T10:19:43Z</time></trkpt>
<trkpt lat="25.150642" lon="102.029834">
<time>2016-04-06T10:19:44Z</time></trkpt>
<trkpt lat="25.150732" lon="102.029834">
<time>2016-04-06T10:19:45Z</time></trkpt>
<trkpt lat="25.150842" lon="102.029844">
<time>2016-04-06T10:19:46Z</time></trkpt>
<trkpt lat="25.150922" lon="102.029864">
<time>2016-04-06T10:19:47Z</time></trkpt>
<trkpt lat="25.151122" lon="102.029914">
<time>2016-04-06T10:19:48Z</time></trkpt>
<trkpt lat="25.151802" lon="102.030094">
<time>2016-04-06T10:19:49Z</time></trkpt>
<trkpt lat="25.151921" lon="102.030124">
<time>2016-04-06T10:19:50Z</time></trkpt>
<trkpt lat="25.152101" lon="102.030154">
<time>2016-04-06T10:19:51Z</time></trkpt>
<trkpt lat="25.152211" lon="102.030173">
<time>2016-04-06T10:19:52Z</time></trkpt>
<trkpt lat="25.152291" lon="102.030173">
<time>2016-04-06T10:19:53Z</time></trkpt>
<trkpt lat="25.152361" lon="102.030173">
<time>2016-04-06T10:19:54Z</time></trkpt>
<trkpt lat="25.152431" lon="102.030163">
<time>2016-04-06T10:19:55Z</time></trkpt>
<trkpt lat="25.152551" lon="102.030144">
<time>2016-04-06T10:19:56Z</time></trkpt>
<trkpt lat="25.152621" lon="102.030114">
<time>2016-04-06T10:19:57Z</time></trkpt>
<trkpt lat="25.152671" lon="102.030104">
<time>2016-04-06T10:19:58Z</time></trkpt>
<trkpt lat="25.152762" lon="102.030064">
<time>2016-04-06T10:19:59Z</time></trkpt>
<trkpt lat="25.152842" lon="102.030024">
<time>2016-04-06T10:20:00Z</time></trkpt>
<trkpt lat="25.152912" lon="102.029974">
<time>2016-04-06T10:20:01Z</time></trkpt>
<trkpt lat="25.153012" lon="102.029904">
<time>2016-04-06T10:20:02Z</time></trkpt>
<trkpt lat="25.153072" lon="102.029844">
<time>2016-04-06T10:20:03Z</time></trkpt>
<trkpt lat="25.153172" lon="102.029745">
<time>2016-04-06T10:20:04Z</time></trkpt>
<trkpt lat="25.153313" lon="102.029575">
<time>2016-04-06T10:20:05Z</time></trkpt>
<trkpt lat="25.153383" lon="102.029495">
<time>2016-04-06T10:20:06Z</time></trkpt>
<trkpt lat="25.153443" lon="102.029395">
<time>2016-04-06T10:20:07Z</time></trkpt>
<trkpt lat="25.153494" lon="102.029296">
<time>2016-04-06T10:20:08Z</time></trkpt>
<trkpt lat="25.153534" lon="102.029226">
<time>2016-04-06T10:20:09Z</time></trkpt>
<trkpt lat="25.153574" lon="102.029136">
<time>2016-04-06T10:20:10Z</time></trkpt>
<trkpt lat="25.153614" lon="102.029016">
<time>2016-04-06T10:20:11Z</time></trkpt>
<trkpt lat="25.153665" lon="102.028847">
<time>2016-04-06T10:20:12Z</time></trkpt>
<trkpt lat="25.153695" lon="102.028737">
<time>2016-04-06T10:20:13Z</time></trkpt>
<trkpt lat="25.153756" lon="102.028448">
<time>2016-04-06T10:20:14Z</time></trkpt>
<trkpt lat="25.153796" lon="102.028318">
<time>2016-04-06T10:20:15Z</time></trkpt>
<trkpt lat="25.153836" lon="102.028199">
<time>2016-04-06T10:20:16Z</time></trkpt>
<trkpt lat="25.153877" lon="102.028089">
<time>2016-04-06T10:20:17Z</time></trkpt>
<trkpt lat="25.153927" lon="102.028009">
<time>2016-04-06T10:20:18Z</time></trkpt>
<trkpt lat="25.153987" lon="102.027919">
<time>2016-04-06T10:20:19Z</time></trkpt>
<trkpt lat="25.154068" lon="102.02781">
<time>2016-04-06T10:20:20Z</time></trkpt>
<trkpt lat="25.154208" lon="102.02766">
<time>2016-04-06T10:20:21Z</time></trkpt>
<trkpt lat="25.154358" lon="102.02752">
<time>2016-04-06T10:20:22Z</time></trkpt>
<trkpt lat="25.154509" lon="102.027381">
<time>2016-04-06T10:20:23Z</time></trkpt>
<trkpt lat="25.154739" lon="102.027241">
<time>2016-04-06T10:20:24Z</time></trkpt>
<trkpt lat="25.155069" lon="102.027061">
<time>2016-04-06T10:20:25Z</time></trkpt>
<trkpt lat="25.15524" lon="102.026972">
<time>2016-04-06T10:20:26Z</time></trkpt>
<trkpt lat="25.15552" lon="102.026792">
<time>2016-04-06T10:20:27Z</time></trkpt>
<trkpt lat="25.155701" lon="102.026643">
<time>2016-04-06T10:20:28Z</time></trkpt>
<trkpt lat="25.155861" lon="102.026483">
<time>2016-04-06T10:20:29Z</time></trkpt>
<trkpt lat="25.156022" lon="102.026284">
<time>2016-04-06T10:20:30Z</time></trkpt>
<trkpt lat="25.156122" lon="102.026144">
<time>2016-04-06T10:20:31Z</time></trkpt>
<trkpt lat="25.156273" lon="102.025905">
<time>2016-04-06T10:20:32Z</time></trkpt>
<trkpt lat="25.156464" lon="102.025555">
<time>2016-04-06T10:20:33Z</time></trkpt>
<trkpt lat="25.156584" lon="102.025296">
<time>2016-04-06T10:20:34Z</time></trkpt>
<trkpt lat="25.156755" lon="102.024877">
<time>2016-04-06T10:20:35Z</time></trkpt>
<trkpt lat="25.156917" lon="102.024448">
<time>2016-04-06T10:20:36Z</time></trkpt>
<trkpt lat="25.157017" lon="102.024119">
<time>2016-04-06T10:20:37Z</time></trkpt>
<trkpt lat="25.15727" lon="102.023292">
<time>2016-04-06T10:20:38Z</time></trkpt>
<trkpt lat="25.157472" lon="102.022574">
<time>2016-04-06T10:20:39Z</time></trkpt>
<trkpt lat="25.157583" lon="102.022155">
<time>2016-04-06T10:20:40Z</time></trkpt>
<trkpt lat="25.157684" lon="102.021915">
<time>2016-04-06T10:20:41Z</time></trkpt>
<trkpt lat="25.157724" lon="102.021826">
<time>2016-04-06T10:20:42Z</time></trkpt>
<trkpt lat="25.157774" lon="102.021736">
<time>2016-04-06T10:20:43Z</time></trkpt>
<trkpt lat="25.157824" lon="102.021676">
<time>2016-04-06T10:20:44Z</time></trkpt>
<trkpt lat="25.157864" lon="102.021626">
<time>2016-04-06T10:20:45Z</time></trkpt>
<trkpt lat="25.157924" lon="102.021576">
<time>2016-04-06T10:20:46Z</time></trkpt>
<trkpt lat="25.157995" lon="102.021526">
<time>2016-04-06T10:20:47Z</time></trkpt>
<trkpt lat="25.158075" lon="102.021497">
<time>2016-04-06T10:20:48Z</time></trkpt>
<trkpt lat="25.158145" lon="102.021467">
<time>2016-04-06T10:20:49Z</time></trkpt>
<trkpt lat="25.158235" lon="102.021437">
<time>2016-04-06T10:20:50Z</time></trkpt>
<trkpt lat="25.158355" lon="102.021417">
<time>2016-04-06T10:20:51Z</time></trkpt>
<trkpt lat="25.158455" lon="102.021407">
<time>2016-04-06T10:20:52Z</time></trkpt>
<trkpt lat="25.158585" lon="102.021397">
<time>2016-04-06T10:20:53Z</time></trkpt>
<trkpt lat="25.158855" lon="102.021417">
<time>2016-04-06T10:20:54Z</time></trkpt>
<trkpt lat="25.159315" lon="102.021457">
<time>2016-04-06T10:20:55Z</time></trkpt>
<trkpt lat="25.160035" lon="102.021526">
<time>2016-04-06T10:20:56Z</time></trkpt>
<trkpt lat="25.160234" lon="102.021546">
<time>2016-04-06T10:20:57Z</time></trkpt>
<trkpt lat="25.160354" lon="102.021546">
<time>2016-04-06T10:20:58Z</time></trkpt>
<trkpt lat="25.160444" lon="102.021556">
<time>2016-04-06T10:20:59Z</time></trkpt>
<trkpt lat="25.160544" lon="102.021546">
<time>2016-04-06T10:21:00Z</time></trkpt>
<trkpt lat="25.160634" lon="102.021526">
<time>2016-04-06T10:21:01Z</time></trkpt>
<trkpt lat="25.160745" lon="102.021506">
<time>2016-04-06T10:21:02Z</time></trkpt>
<trkpt lat="25.160855" lon="102.021467">
<time>2016-04-06T10:21:03Z</time></trkpt>
<trkpt lat="25.161025" lon="102.021407">
<time>2016-04-06T10:21:04Z</time></trkpt>
<trkpt lat="25.161205" lon="102.021317">
<time>2016-04-06T10:21:05Z</time></trkpt>
<trkpt lat="25.161616" lon="102.021107">
<time>2016-04-06T10:21:06Z</time></trkpt>
<trkpt lat="25.161876" lon="102.020968">
<time>2016-04-06T10:21:07Z</time></trkpt>
<trkpt lat="25.162056" lon="102.020858">
<time>2016-04-06T10:21:08Z</time></trkpt>
<trkpt lat="25.162467" lon="102.020599">
<time>2016-04-06T10:21:09Z</time></trkpt>
<trkpt lat="25.162707" lon="102.020439">
<time>2016-04-06T10:21:10Z</time></trkpt>
<trkpt lat="25.162828" lon="102.02035">
<time>2016-04-06T10:21:11Z</time></trkpt>
<trkpt lat="25.162928" lon="102.02028">
<time>2016-04-06T10:21:12Z</time></trkpt>
<trkpt lat="25.162998" lon="102.02022">
<time>2016-04-06T10:21:13Z</time></trkpt>
<trkpt lat="25.163078" lon="102.02014">
<time>2016-04-06T10:21:14Z</time></trkpt>
<trkpt lat="25.163159" lon="102.02005">
<time>2016-04-06T10:21:15Z</time></trkpt>
<trkpt lat="25.163219" lon="102.019981">
<time>2016-04-06T10:21:16Z</time></trkpt>
<trkpt lat="25.163349" lon="102.019801">
<time>2016-04-06T10:21:17Z</time></trkpt>
<trkpt lat="25.16353" lon="102.019582">
<time>2016-04-06T10:21:18Z</time></trkpt>
<trkpt lat="25.16367" lon="102.019392">
<time>2016-04-06T10:21:19Z</time></trkpt>
<trkpt lat="25.163761" lon="102.019302">
<time>2016-04-06T10:21:20Z</time></trkpt>
<trkpt lat="25.163861" lon="102.019193">
<time>2016-04-06T10:21:21Z</time></trkpt>
<trkpt lat="25.163931" lon="102.019133">
<time>2016-04-06T10:21:22Z</time></trkpt>
<trkpt lat="25.163981" lon="102.019093">
<time>2016-04-06T10:21:23Z</time></trkpt>
<trkpt lat="25.164081" lon="102.019003">
<time>2016-04-06T10:21:24Z</time></trkpt>
<trkpt lat="25.164573" lon="102.018624">
<time>2016-04-06T10:21:25Z</time></trkpt>
<trkpt lat="25.164643" lon="102.018575">
<time>2016-04-06T10:21:26Z</time></trkpt>
<trkpt lat="25.165033" lon="102.018295">
<time>2016-04-06T10:21:27Z</time></trkpt>
<trkpt lat="25.165194" lon="102.018166">
<time>2016-04-06T10:21:28Z</time></trkpt>
<trkpt lat="25.165354" lon="102.018006">
<time>2016-04-06T10:21:29Z</time></trkpt>
<trkpt lat="25.165455" lon="102.017896">
<time>2016-04-06T10:21:30Z</time></trkpt>
<trkpt lat="25.165665" lon="102.017647">
<time>2016-04-06T10:21:31Z</time></trkpt>
<trkpt lat="25.165746" lon="102.017537">
<time>2016-04-06T10:21:32Z</time></trkpt>
<trkpt lat="25.165826" lon="102.017428">
<time>2016-04-06T10:21:33Z</time></trkpt>
<trkpt lat="25.165926" lon="102.017308">
<time>2016-04-06T10:21:34Z</time></trkpt>
<trkpt lat="25.165997" lon="102.017198">
<time>2016-04-06T10:21:35Z</time></trkpt>
<trkpt lat="25.166097" lon="102.017049">
<time>2016-04-06T10:21:36Z</time></trkpt>
<trkpt lat="25.166208" lon="102.016849">
<time>2016-04-06T10:21:37Z</time></trkpt>
<trkpt lat="25.166399" lon="102.01647">
<time>2016-04-06T10:21:38Z</time></trkpt>
<trkpt lat="25.16653" lon="102.016181">
<time>2016-04-06T10:21:39Z</time></trkpt>
<trkpt lat="25.16668" lon="102.015862">
<time>2016-04-06T10:21:40Z</time></trkpt>
<trkpt lat="25.166842" lon="102.015453">
<time>2016-04-06T10:21:41Z</time></trkpt>
<trkpt lat="25.167023" lon="102.015064">
<time>2016-04-06T10:21:42Z</time></trkpt>
<trkpt lat="25.167184" lon="102.014805">
<time>2016-04-06T10:21:43Z</time></trkpt>
<trkpt lat="25.167294" lon="102.014676">
<time>2016-04-06T10:21:44Z</time></trkpt>
<trkpt lat="25.167394" lon="102.014556">
<time>2016-04-06T10:21:45Z</time></trkpt>
<trkpt lat="25.167635" lon="102.014297">
<time>2016-04-06T10:21:46Z</time></trkpt>
<trkpt lat="25.167715" lon="102.014227">
<time>2016-04-06T10:21:47Z</time></trkpt>
<trkpt lat="25.167735" lon="102.014207">
<time>2016-04-06T10:21:48Z</time></trkpt>
<trkpt lat="25.167866" lon="102.014107">
<time>2016-04-06T10:21:49Z</time></trkpt>
<trkpt lat="25.168066" lon="102.013988">
<time>2016-04-06T10:21:50Z</time></trkpt>
<trkpt lat="25.168066" lon="102.013988">
<time>2016-04-06T10:21:51Z</time></trkpt>
<trkpt lat="25.168026" lon="102.013868">
<time>2016-04-06T10:21:52Z</time></trkpt>
<trkpt lat="25.167867" lon="102.013449">
<time>2016-04-06T10:21:53Z</time></trkpt>
<trkpt lat="25.167828" lon="102.01324">
<time>2016-04-06T10:21:54Z</time></trkpt>
<trkpt lat="25.167819" lon="102.01303">
<time>2016-04-06T10:21:55Z</time></trkpt>
<trkpt lat="25.167819" lon="102.012791">
<time>2016-04-06T10:21:56Z</time></trkpt>
<trkpt lat="25.16785" lon="102.012602">
<time>2016-04-06T10:21:57Z</time></trkpt>
<trkpt lat="25.167962" lon="102.012063">
<time>2016-04-06T10:21:58Z</time></trkpt>
<trkpt lat="25.167962" lon="102.012063">
<time>2016-04-06T10:21:59Z</time></trkpt>
<trkpt lat="25.168092" lon="102.011973">
<time>2016-04-06T10:22:00Z</time></trkpt>
<trkpt lat="25.168282" lon="102.011794">
<time>2016-04-06T10:22:01Z</time></trkpt>
<trkpt lat="25.168383" lon="102.011654">
<time>2016-04-06T10:22:02Z</time></trkpt>
<trkpt lat="25.168513" lon="102.011425">
<time>2016-04-06T10:22:03Z</time></trkpt>
<trkpt lat="25.168654" lon="102.011116">
<time>2016-04-06T10:22:04Z</time></trkpt>
<trkpt lat="25.168685" lon="102.010986">
<time>2016-04-06T10:22:05Z</time></trkpt>
<trkpt lat="25.168685" lon="102.010847">
<time>2016-04-06T10:22:06Z</time></trkpt>
<trkpt lat="25.168666" lon="102.010727">
<time>2016-04-06T10:22:07Z</time></trkpt>
<trkpt lat="25.168606" lon="102.010617">
<time>2016-04-06T10:22:08Z</time></trkpt>
<trkpt lat="25.168506" lon="102.010448">
<time>2016-04-06T10:22:09Z</time></trkpt>
<trkpt lat="25.168157" lon="102.010099">
<time>2016-04-06T10:22:10Z</time></trkpt>
<trkpt lat="25.16744" lon="102.009371">
<time>2016-04-06T10:22:11Z</time></trkpt>
<trkpt lat="25.166782" lon="102.008743">
<time>2016-04-06T10:22:12Z</time></trkpt>
<trkpt lat="25.166682" lon="102.008623">
<time>2016-04-06T10:22:13Z</time></trkpt>
<trkpt lat="25.166582" lon="102.008504">
<time>2016-04-06T10:22:14Z</time></trkpt>
<trkpt lat="25.166423" lon="102.008264">
<time>2016-04-06T10:22:15Z</time></trkpt>
<trkpt lat="25.166244" lon="102.007935">
<time>2016-04-06T10:22:16Z</time></trkpt>
<trkpt lat="25.166075" lon="102.007596">
<time>2016-04-06T10:22:17Z</time></trkpt>
<trkpt lat="25.165906" lon="102.007178">
<time>2016-04-06T10:22:18Z</time></trkpt>
<trkpt lat="25.165718" lon="102.006619">
<time>2016-04-06T10:22:19Z</time></trkpt>
<trkpt lat="25.16558" lon="102.006091">
<time>2016-04-06T10:22:20Z</time></trkpt>
<trkpt lat="25.165461" lon="102.005602">
<time>2016-04-06T10:22:21Z</time></trkpt>
<trkpt lat="25.165392" lon="102.005124">
<time>2016-04-06T10:22:22Z</time></trkpt>
<trkpt lat="25.165324" lon="102.004655">
<time>2016-04-06T10:22:23Z</time></trkpt>
<trkpt lat="25.165225" lon="102.004187">
<time>2016-04-06T10:22:24Z</time></trkpt>
<trkpt lat="25.165116" lon="102.003838">
<time>2016-04-06T10:22:25Z</time></trkpt>
<trkpt lat="25.165027" lon="102.003559">
<time>2016-04-06T10:22:26Z</time></trkpt>
<trkpt lat="25.164968" lon="102.003329">
<time>2016-04-06T10:22:27Z</time></trkpt>
<trkpt lat="25.164919" lon="102.00312">
<time>2016-04-06T10:22:28Z</time></trkpt>
<trkpt lat="25.164821" lon="102.002442">
<time>2016-04-06T10:22:29Z</time></trkpt>
<trkpt lat="25.164751" lon="102.002193">
<time>2016-04-06T10:22:30Z</time></trkpt>
<trkpt lat="25.164652" lon="102.001943">
<time>2016-04-06T10:22:31Z</time></trkpt>
<trkpt lat="25.164543" lon="102.001734">
<time>2016-04-06T10:22:32Z</time></trkpt>
<trkpt lat="25.164224" lon="102.001246">
<time>2016-04-06T10:22:33Z</time></trkpt>
<trkpt lat="25.163916" lon="102.000857">
<time>2016-04-06T10:22:34Z</time></trkpt>
<trkpt lat="25.163686" lon="102.000647">
<time>2016-04-06T10:22:35Z</time></trkpt>
<trkpt lat="25.163447" lon="102.000408">
<time>2016-04-06T10:22:36Z</time></trkpt>
<trkpt lat="25.163208" lon="102.000199">
<time>2016-04-06T10:22:37Z</time></trkpt>
<trkpt lat="25.163118" lon="102.000109">
<time>2016-04-06T10:22:38Z</time></trkpt>
<trkpt lat="25.163048" lon="102.000009">
<time>2016-04-06T10:22:39Z</time></trkpt>
<trkpt lat="25.163008" lon="101.999959">
<time>2016-04-06T10:22:40Z</time></trkpt>
<trkpt lat="25.162958" lon="101.9999">
<time>2016-04-06T10:22:41Z</time></trkpt>
<trkpt lat="25.162919" lon="101.9998">
<time>2016-04-06T10:22:42Z</time></trkpt>
<trkpt lat="25.162869" lon="101.99967">
<time>2016-04-06T10:22:43Z</time></trkpt>
<trkpt lat="25.16276" lon="101.999341">
<time>2016-04-06T10:22:44Z</time></trkpt>
<trkpt lat="25.162631" lon="101.998982">
<time>2016-04-06T10:22:45Z</time></trkpt>
<trkpt lat="25.162492" lon="101.998633">
<time>2016-04-06T10:22:46Z</time></trkpt>
<trkpt lat="25.162403" lon="101.998374">
<time>2016-04-06T10:22:47Z</time></trkpt>
<trkpt lat="25.162383" lon="101.998275">
<time>2016-04-06T10:22:48Z</time></trkpt>
<trkpt lat="25.162364" lon="101.998185">
<time>2016-04-06T10:22:49Z</time></trkpt>
<trkpt lat="25.162354" lon="101.998095">
<time>2016-04-06T10:22:50Z</time></trkpt>
<trkpt lat="25.162344" lon="101.998005">
<time>2016-04-06T10:22:51Z</time></trkpt>
<trkpt lat="25.162355" lon="101.997906">
<time>2016-04-06T10:22:52Z</time></trkpt>
<trkpt lat="25.162355" lon="101.997776">
<time>2016-04-06T10:22:53Z</time></trkpt>
<trkpt lat="25.162366" lon="101.997477">
<time>2016-04-06T10:22:54Z</time></trkpt>
<trkpt lat="25.162366" lon="101.997307">
<time>2016-04-06T10:22:55Z</time></trkpt>
<trkpt lat="25.162347" lon="101.997018">
<time>2016-04-06T10:22:56Z</time></trkpt>
<trkpt lat="25.162308" lon="101.996759">
<time>2016-04-06T10:22:57Z</time></trkpt>
<trkpt lat="25.162279" lon="101.99651">
<time>2016-04-06T10:22:58Z</time></trkpt>
<trkpt lat="25.162259" lon="101.99641">
<time>2016-04-06T10:22:59Z</time></trkpt>
<trkpt lat="25.162219" lon="101.996301">
<time>2016-04-06T10:23:00Z</time></trkpt>
<trkpt lat="25.16218" lon="101.996201">
<time>2016-04-06T10:23:01Z</time></trkpt>
<trkpt lat="25.16212" lon="101.996111">
<time>2016-04-06T10:23:02Z</time></trkpt>
<trkpt lat="25.16205" lon="101.996041">
<time>2016-04-06T10:23:03Z</time></trkpt>
<trkpt lat="25.16198" lon="101.995972">
<time>2016-04-06T10:23:04Z</time></trkpt>
<trkpt lat="25.161901" lon="101.995902">
<time>2016-04-06T10:23:05Z</time></trkpt>
<trkpt lat="25.161811" lon="101.995852">
<time>2016-04-06T10:23:06Z</time></trkpt>
<trkpt lat="25.161711" lon="101.995792">
<time>2016-04-06T10:23:07Z</time></trkpt>
<trkpt lat="25.161621" lon="101.995732">
<time>2016-04-06T10:23:08Z</time></trkpt>
<trkpt lat="25.161541" lon="101.995652">
<time>2016-04-06T10:23:09Z</time></trkpt>
<trkpt lat="25.161282" lon="101.995363">
<time>2016-04-06T10:23:10Z</time></trkpt>
<trkpt lat="25.160963" lon="101.994994">
<time>2016-04-06T10:23:11Z</time></trkpt>
<trkpt lat="25.160674" lon="101.994695">
<time>2016-04-06T10:23:12Z</time></trkpt>
<trkpt lat="25.160495" lon="101.994496">
<time>2016-04-06T10:23:13Z</time></trkpt>
<trkpt lat="25.160386" lon="101.994327">
<time>2016-04-06T10:23:14Z</time></trkpt>
<trkpt lat="25.160286" lon="101.994167">
<time>2016-04-06T10:23:15Z</time></trkpt>
<trkpt lat="25.160227" lon="101.994007">
<time>2016-04-06T10:23:16Z</time></trkpt>
<trkpt lat="25.160167" lon="101.993838">
<time>2016-04-06T10:23:17Z</time></trkpt>
<trkpt lat="25.160118" lon="101.993639">
<time>2016-04-06T10:23:18Z</time></trkpt>
<trkpt lat="25.160098" lon="101.993509">
<time>2016-04-06T10:23:19Z</time></trkpt>
<trkpt lat="25.160078" lon="101.993419">
<time>2016-04-06T10:23:20Z</time></trkpt>
<trkpt lat="25.160069" lon="101.99327">
<time>2016-04-06T10:23:21Z</time></trkpt>
<trkpt lat="25.16008" lon="101.992881">
<time>2016-04-06T10:23:22Z</time></trkpt>
<trkpt lat="25.160091" lon="101.992691">
<time>2016-04-06T10:23:23Z</time></trkpt>
<trkpt lat="25.160111" lon="101.992602">
<time>2016-04-06T10:23:24Z</time></trkpt>
<trkpt lat="25.160151" lon="101.992492">
<time>2016-04-06T10:23:25Z</time></trkpt>
<trkpt lat="25.160211" lon="101.992402">
<time>2016-04-06T10:23:26Z</time></trkpt>
<trkpt lat="25.160292" lon="101.992323">
<time>2016-04-06T10:23:27Z</time></trkpt>
<trkpt lat="25.160392" lon="101.992243">
<time>2016-04-06T10:23:28Z</time></trkpt>
<trkpt lat="25.160492" lon="101.992163">
<time>2016-04-06T10:23:29Z</time></trkpt>
<trkpt lat="25.160562" lon="101.992123">
<time>2016-04-06T10:23:30Z</time></trkpt>
<trkpt lat="25.160692" lon="101.992063">
<time>2016-04-06T10:23:31Z</time></trkpt>
<trkpt lat="25.160823" lon="101.992003">
<time>2016-04-06T10:23:32Z</time></trkpt>
<trkpt lat="25.161023" lon="101.991944">
<time>2016-04-06T10:23:33Z</time></trkpt>
<trkpt lat="25.161253" lon="101.991874">
<time>2016-04-06T10:23:34Z</time></trkpt>
<trkpt lat="25.161433" lon="101.991834">
<time>2016-04-06T10:23:35Z</time></trkpt>
<trkpt lat="25.161493" lon="101.991804">
<time>2016-04-06T10:23:36Z</time></trkpt>
<trkpt lat="25.161603" lon="101.991744">
<time>2016-04-06T10:23:37Z</time></trkpt>
<trkpt lat="25.161674" lon="101.991664">
<time>2016-04-06T10:23:38Z</time></trkpt>
<trkpt lat="25.161724" lon="101.991585">
<time>2016-04-06T10:23:39Z</time></trkpt>
<trkpt lat="25.161804" lon="101.991415">
<time>2016-04-06T10:23:40Z</time></trkpt>
<trkpt lat="25.161835" lon="101.991296">
<time>2016-04-06T10:23:41Z</time></trkpt>
<trkpt lat="25.161885" lon="101.991136">
<time>2016-04-06T10:23:42Z</time></trkpt>
<trkpt lat="25.161916" lon="101.991006">
<time>2016-04-06T10:23:43Z</time></trkpt>
<trkpt lat="25.161926" lon="101.990887">
<time>2016-04-06T10:23:44Z</time></trkpt>
<trkpt lat="25.161946" lon="101.990687">
<time>2016-04-06T10:23:45Z</time></trkpt>
<trkpt lat="25.161937" lon="101.990538">
<time>2016-04-06T10:23:46Z</time></trkpt>
<trkpt lat="25.161927" lon="101.990388">
<time>2016-04-06T10:23:47Z</time></trkpt>
<trkpt lat="25.161908" lon="101.990269">
<time>2016-04-06T10:23:48Z</time></trkpt>
<trkpt lat="25.161888" lon="101.990149">
<time>2016-04-06T10:23:49Z</time></trkpt>
<trkpt lat="25.16174" lon="101.989601">
<time>2016-04-06T10:23:50Z</time></trkpt>
<trkpt lat="25.161651" lon="101.989272">
<time>2016-04-06T10:23:51Z</time></trkpt>
<trkpt lat="25.161552" lon="101.988982">
<time>2016-04-06T10:23:52Z</time></trkpt>
<trkpt lat="25.161433" lon="101.988693">
<time>2016-04-06T10:23:53Z</time></trkpt>
<trkpt lat="25.161323" lon="101.988434">
<time>2016-04-06T10:23:54Z</time></trkpt>
<trkpt lat="25.161254" lon="101.988295">
<time>2016-04-06T10:23:55Z</time></trkpt>
<trkpt lat="25.161094" lon="101.988095">
<time>2016-04-06T10:23:56Z</time></trkpt>
<trkpt lat="25.160915" lon="101.987906">
<time>2016-04-06T10:23:57Z</time></trkpt>
<trkpt lat="25.160656" lon="101.987656">
<time>2016-04-06T10:23:58Z</time></trkpt>
<trkpt lat="25.160347" lon="101.987357">
<time>2016-04-06T10:23:59Z</time></trkpt>
<trkpt lat="25.160187" lon="101.987218">
<time>2016-04-06T10:24:00Z</time></trkpt>
<trkpt lat="25.160037" lon="101.987098">
<time>2016-04-06T10:24:01Z</time></trkpt>
<trkpt lat="25.159788" lon="101.986909">
<time>2016-04-06T10:24:02Z</time></trkpt>
<trkpt lat="25.159708" lon="101.986839">
<time>2016-04-06T10:24:03Z</time></trkpt>
<trkpt lat="25.159628" lon="101.986749">
<time>2016-04-06T10:24:04Z</time></trkpt>
<trkpt lat="25.159549" lon="101.986659">
<time>2016-04-06T10:24:05Z</time></trkpt>
<trkpt lat="25.159439" lon="101.98649">
<time>2016-04-06T10:24:06Z</time></trkpt>
<trkpt lat="25.15929" lon="101.986231">
<time>2016-04-06T10:24:07Z</time></trkpt>
<trkpt lat="25.159111" lon="101.985872">
<time>2016-04-06T10:24:08Z</time></trkpt>
<trkpt lat="25.159061" lon="101.985732">
<time>2016-04-06T10:24:09Z</time></trkpt>
<trkpt lat="25.159032" lon="101.985652">
<time>2016-04-06T10:24:10Z</time></trkpt>
<trkpt lat="25.159002" lon="101.985503">
<time>2016-04-06T10:24:11Z</time></trkpt>
<trkpt lat="25.158983" lon="101.985393">
<time>2016-04-06T10:24:12Z</time></trkpt>
<trkpt lat="25.158973" lon="101.985283">
<time>2016-04-06T10:24:13Z</time></trkpt>
<trkpt lat="25.158973" lon="101.985114">
<time>2016-04-06T10:24:14Z</time></trkpt>
<trkpt lat="25.158974" lon="101.984735">
<time>2016-04-06T10:24:15Z</time></trkpt>
<trkpt lat="25.158956" lon="101.984356">
<time>2016-04-06T10:24:16Z</time></trkpt>
<trkpt lat="25.158937" lon="101.983977">
<time>2016-04-06T10:24:17Z</time></trkpt>
<trkpt lat="25.158928" lon="101.983568">
<time>2016-04-06T10:24:18Z</time></trkpt>
<trkpt lat="25.158899" lon="101.983249">
<time>2016-04-06T10:24:19Z</time></trkpt>
<trkpt lat="25.158879" lon="101.98309">
<time>2016-04-06T10:24:20Z</time></trkpt>
<trkpt lat="25.1588" lon="101.982811">
<time>2016-04-06T10:24:21Z</time></trkpt>
<trkpt lat="25.158661" lon="101.982452">
<time>2016-04-06T10:24:22Z</time></trkpt>
<trkpt lat="25.158602" lon="101.982252">
<time>2016-04-06T10:24:23Z</time></trkpt>
<trkpt lat="25.158572" lon="101.982123">
<time>2016-04-06T10:24:24Z</time></trkpt>
<trkpt lat="25.158563" lon="101.982003">
<time>2016-04-06T10:24:25Z</time></trkpt>
<trkpt lat="25.158533" lon="101.981834">
<time>2016-04-06T10:24:26Z</time></trkpt>
<trkpt lat="25.158503" lon="101.981684">
<time>2016-04-06T10:24:27Z</time></trkpt>
<trkpt lat="25.158474" lon="101.981554">
<time>2016-04-06T10:24:28Z</time></trkpt>
<trkpt lat="25.158424" lon="101.981425">
<time>2016-04-06T10:24:29Z</time></trkpt>
<trkpt lat="25.158295" lon="101.981076">
<time>2016-04-06T10:24:30Z</time></trkpt>
<trkpt lat="25.158226" lon="101.980876">
<time>2016-04-06T10:24:31Z</time></trkpt>
<trkpt lat="25.158186" lon="101.980697">
<time>2016-04-06T10:24:32Z</time></trkpt>
<trkpt lat="25.158167" lon="101.980567">
<time>2016-04-06T10:24:33Z</time></trkpt>
<trkpt lat="25.158157" lon="101.980458">
<time>2016-04-06T10:24:34Z</time></trkpt>
<trkpt lat="25.158149" lon="101.979809">
<time>2016-04-06T10:24:35Z</time></trkpt>
<trkpt lat="25.15814" lon="101.97952">
<time>2016-04-06T10:24:36Z</time></trkpt>
<trkpt lat="25.15815" lon="101.979321">
<time>2016-04-06T10:24:37Z</time></trkpt>
<trkpt lat="25.158181" lon="101.979111">
<time>2016-04-06T10:24:38Z</time></trkpt>
<trkpt lat="25.158211" lon="101.978982">
<time>2016-04-06T10:24:39Z</time></trkpt>
<trkpt lat="25.158282" lon="101.978663">
<time>2016-04-06T10:24:40Z</time></trkpt>
<trkpt lat="25.158303" lon="101.978483">
<time>2016-04-06T10:24:41Z</time></trkpt>
<trkpt lat="25.158313" lon="101.978234">
<time>2016-04-06T10:24:42Z</time></trkpt>
<trkpt lat="25.158315" lon="101.977845">
<time>2016-04-06T10:24:43Z</time></trkpt>
<trkpt lat="25.158306" lon="101.977466">
<time>2016-04-06T10:24:44Z</time></trkpt>
<trkpt lat="25.158287" lon="101.977157">
<time>2016-04-06T10:24:45Z</time></trkpt>
<trkpt lat="25.158257" lon="101.976967">
<time>2016-04-06T10:24:46Z</time></trkpt>
<trkpt lat="25.158178" lon="101.976648">
<time>2016-04-06T10:24:47Z</time></trkpt>
<trkpt lat="25.158049" lon="101.976249">
<time>2016-04-06T10:24:48Z</time></trkpt>
<trkpt lat="25.157921" lon="101.975731">
<time>2016-04-06T10:24:49Z</time></trkpt>
<trkpt lat="25.157812" lon="101.975123">
<time>2016-04-06T10:24:50Z</time></trkpt>
<trkpt lat="25.157744" lon="101.974634">
<time>2016-04-06T10:24:51Z</time></trkpt>
<trkpt lat="25.157735" lon="101.974155">
<time>2016-04-06T10:24:52Z</time></trkpt>
<trkpt lat="25.157807" lon="101.973577">
<time>2016-04-06T10:24:53Z</time></trkpt>
<trkpt lat="25.157918" lon="101.973128">
<time>2016-04-06T10:24:54Z</time></trkpt>
<trkpt lat="25.158149" lon="101.972589">
<time>2016-04-06T10:24:55Z</time></trkpt>
<trkpt lat="25.158471" lon="101.972031">
<time>2016-04-06T10:24:56Z</time></trkpt>
<trkpt lat="25.158923" lon="101.971243">
<time>2016-04-06T10:24:57Z</time></trkpt>
<trkpt lat="25.159034" lon="101.970944">
<time>2016-04-06T10:24:58Z</time></trkpt>
<trkpt lat="25.159074" lon="101.970824">
<time>2016-04-06T10:24:59Z</time></trkpt>
<trkpt lat="25.159195" lon="101.970415">
<time>2016-04-06T10:25:00Z</time></trkpt>
<trkpt lat="25.159246" lon="101.970026">
<time>2016-04-06T10:25:01Z</time></trkpt>
<trkpt lat="25.159308" lon="101.969458">
<time>2016-04-06T10:25:02Z</time></trkpt>
<trkpt lat="25.159308" lon="101.969288">
<time>2016-04-06T10:25:03Z</time></trkpt>
<trkpt lat="25.159309" lon="101.969119">
<time>2016-04-06T10:25:04Z</time></trkpt>
<trkpt lat="25.159309" lon="101.968969">
<time>2016-04-06T10:25:05Z</time></trkpt>
<trkpt lat="25.15929" lon="101.968839">
<time>2016-04-06T10:25:06Z</time></trkpt>
<trkpt lat="25.15925" lon="101.96862">
<time>2016-04-06T10:25:07Z</time></trkpt>
<trkpt lat="25.15922" lon="101.9685">
<time>2016-04-06T10:25:08Z</time></trkpt>
<trkpt lat="25.159181" lon="101.968381">
<time>2016-04-06T10:25:09Z</time></trkpt>
<trkpt lat="25.159171" lon="101.968361">
<time>2016-04-06T10:25:10Z</time></trkpt>
<trkpt lat="25.159131" lon="101.968271">
<time>2016-04-06T10:25:11Z</time></trkpt>
<trkpt lat="25.159081" lon="101.968171">
<time>2016-04-06T10:25:12Z</time></trkpt>
<trkpt lat="25.159022" lon="101.968061">
<time>2016-04-06T10:25:13Z</time></trkpt>
<trkpt lat="25.158952" lon="101.967952">
<time>2016-04-06T10:25:14Z</time></trkpt>
<trkpt lat="25.158832" lon="101.967832">
<time>2016-04-06T10:25:15Z</time></trkpt>
<trkpt lat="25.158693" lon="101.967742">
<time>2016-04-06T10:25:16Z</time></trkpt>
<trkpt lat="25.158623" lon="101.967702">
<time>2016-04-06T10:25:17Z</time></trkpt>
<trkpt lat="25.158543" lon="101.967663">
<time>2016-04-06T10:25:18Z</time></trkpt>
<trkpt lat="25.158473" lon="101.967643">
<time>2016-04-06T10:25:19Z</time></trkpt>
<trkpt lat="25.158393" lon="101.967623">
<time>2016-04-06T10:25:20Z</time></trkpt>
<trkpt lat="25.158233" lon="101.967613">
<time>2016-04-06T10:25:21Z</time></trkpt>
<trkpt lat="25.158083" lon="101.967613">
<time>2016-04-06T10:25:22Z</time></trkpt>
<trkpt lat="25.157983" lon="101.967633">
<time>2016-04-06T10:25:23Z</time></trkpt>
<trkpt lat="25.157883" lon="101.967682">
<time>2016-04-06T10:25:24Z</time></trkpt>
<trkpt lat="25.157793" lon="101.967732">
<time>2016-04-06T10:25:25Z</time></trkpt>
<trkpt lat="25.157712" lon="101.967812">
<time>2016-04-06T10:25:26Z</time></trkpt>
<trkpt lat="25.157562" lon="101.967962">
<time>2016-04-06T10:25:27Z</time></trkpt>
<trkpt lat="25.157372" lon="101.968131">
<time>2016-04-06T10:25:28Z</time></trkpt>
<trkpt lat="25.157241" lon="101.968241">
<time>2016-04-06T10:25:29Z</time></trkpt>
<trkpt lat="25.157131" lon="101.968301">
<time>2016-04-06T10:25:30Z</time></trkpt>
<trkpt lat="25.157061" lon="101.968331">
<time>2016-04-06T10:25:31Z</time></trkpt>
<trkpt lat="25.156971" lon="101.968341">
<time>2016-04-06T10:25:32Z</time></trkpt>
<trkpt lat="25.156881" lon="101.968341">
<time>2016-04-06T10:25:33Z</time></trkpt>
<trkpt lat="25.156731" lon="101.968321">
<time>2016-04-06T10:25:34Z</time></trkpt>
<trkpt lat="25.156561" lon="101.968281">
<time>2016-04-06T10:25:35Z</time></trkpt>
<trkpt lat="25.156361" lon="101.968221">
<time>2016-04-06T10:25:36Z</time></trkpt>
<trkpt lat="25.156202" lon="101.968151">
<time>2016-04-06T10:25:37Z</time></trkpt>
<trkpt lat="25.156062" lon="101.968062">
<time>2016-04-06T10:25:38Z</time></trkpt>
<trkpt lat="25.155922" lon="101.967952">
<time>2016-04-06T10:25:39Z</time></trkpt>
<trkpt lat="25.155802" lon="101.967822">
<time>2016-04-06T10:25:40Z</time></trkpt>
<trkpt lat="25.155653" lon="101.967623">
<time>2016-04-06T10:25:41Z</time></trkpt>
<trkpt lat="25.155574" lon="101.967413">
<time>2016-04-06T10:25:42Z</time></trkpt>
<trkpt lat="25.155524" lon="101.967154">
<time>2016-04-06T10:25:43Z</time></trkpt>
<trkpt lat="25.155525" lon="101.966855">
<time>2016-04-06T10:25:44Z</time></trkpt>
<trkpt lat="25.155556" lon="101.966545">
<time>2016-04-06T10:25:45Z</time></trkpt>
<trkpt lat="25.155657" lon="101.966166">
<time>2016-04-06T10:25:46Z</time></trkpt>
<trkpt lat="25.155748" lon="101.965738">
<time>2016-04-06T10:25:47Z</time></trkpt>
<trkpt lat="25.155799" lon="101.965348">
<time>2016-04-06T10:25:48Z</time></trkpt>
<trkpt lat="25.155831" lon="101.96464">
<time>2016-04-06T10:25:49Z</time></trkpt>
<trkpt lat="25.155943" lon="101.963952">
<time>2016-04-06T10:25:50Z</time></trkpt>
<trkpt lat="25.156084" lon="101.963304">
<time>2016-04-06T10:25:51Z</time></trkpt>
<trkpt lat="25.156145" lon="101.962934">
<time>2016-04-06T10:25:52Z</time></trkpt>
<trkpt lat="25.156155" lon="101.962785">
<time>2016-04-06T10:25:53Z</time></trkpt>
<trkpt lat="25.156156" lon="101.962645">
<time>2016-04-06T10:25:54Z</time></trkpt>
<trkpt lat="25.156146" lon="101.962525">
<time>2016-04-06T10:25:55Z</time></trkpt>
<trkpt lat="25.156127" lon="101.962376">
<time>2016-04-06T10:25:56Z</time></trkpt>
<trkpt lat="25.155978" lon="101.961867">
<time>2016-04-06T10:25:57Z</time></trkpt>
<trkpt lat="25.155749" lon="101.961279">
<time>2016-04-06T10:25:58Z</time></trkpt>
<trkpt lat="25.15568" lon="101.960949">
<time>2016-04-06T10:25:59Z</time></trkpt>
<trkpt lat="25.155661" lon="101.96076">
<time>2016-04-06T10:26:00Z</time></trkpt>
<trkpt lat="25.155671" lon="101.96058">
<time>2016-04-06T10:26:01Z</time></trkpt>
<trkpt lat="25.155731" lon="101.960391">
<time>2016-04-06T10:26:02Z</time></trkpt>
<trkpt lat="25.155782" lon="101.960251">
<time>2016-04-06T10:26:03Z</time></trkpt>
<trkpt lat="25.155832" lon="101.960151">
<time>2016-04-06T10:26:04Z</time></trkpt>
<trkpt lat="25.155882" lon="101.960071">
<time>2016-04-06T10:26:05Z</time></trkpt>
<trkpt lat="25.155962" lon="101.960002">
<time>2016-04-06T10:26:06Z</time></trkpt>
<trkpt lat="25.156063" lon="101.959912">
<time>2016-04-06T10:26:07Z</time></trkpt>
<trkpt lat="25.156173" lon="101.959832">
<time>2016-04-06T10:26:08Z</time></trkpt>
<trkpt lat="25.156323" lon="101.959752">
<time>2016-04-06T10:26:09Z</time></trkpt>
<trkpt lat="25.156513" lon="101.959672">
<time>2016-04-06T10:26:10Z</time></trkpt>
<trkpt lat="25.156743" lon="101.959592">
<time>2016-04-06T10:26:11Z</time></trkpt>
<trkpt lat="25.157053" lon="101.959533">
<time>2016-04-06T10:26:12Z</time></trkpt>
<trkpt lat="25.157404" lon="101.959503">
<time>2016-04-06T10:26:13Z</time></trkpt>
<trkpt lat="25.158374" lon="101.959453">
<time>2016-04-06T10:26:14Z</time></trkpt>
<trkpt lat="25.158564" lon="101.959453">
<time>2016-04-06T10:26:15Z</time></trkpt>
<trkpt lat="25.158724" lon="101.959453">
<time>2016-04-06T10:26:16Z</time></trkpt>
<trkpt lat="25.158914" lon="101.959443">
<time>2016-04-06T10:26:17Z</time></trkpt>
<trkpt lat="25.159044" lon="101.959423">
<time>2016-04-06T10:26:18Z</time></trkpt>
<trkpt lat="25.159164" lon="101.959393">
<time>2016-04-06T10:26:19Z</time></trkpt>
<trkpt lat="25.159284" lon="101.959343">
<time>2016-04-06T10:26:20Z</time></trkpt>
<trkpt lat="25.159424" lon="101.959243">
<time>2016-04-06T10:26:21Z</time></trkpt>
<trkpt lat="25.159564" lon="101.959114">
<time>2016-04-06T10:26:22Z</time></trkpt>
<trkpt lat="25.159885" lon="101.958704">
<time>2016-04-06T10:26:23Z</time></trkpt>
<trkpt lat="25.160216" lon="101.958345">
<time>2016-04-06T10:26:24Z</time></trkpt>
<trkpt lat="25.160467" lon="101.958016">
<time>2016-04-06T10:26:25Z</time></trkpt>
<trkpt lat="25.160708" lon="101.957717">
<time>2016-04-06T10:26:26Z</time></trkpt>
<trkpt lat="25.160998" lon="101.957457">
<time>2016-04-06T10:26:27Z</time></trkpt>
<trkpt lat="25.161319" lon="101.957218">
<time>2016-04-06T10:26:28Z</time></trkpt>
<trkpt lat="25.161629" lon="101.956998">
<time>2016-04-06T10:26:29Z</time></trkpt>
<trkpt lat="25.16186" lon="101.956809">
<time>2016-04-06T10:26:30Z</time></trkpt>
<trkpt lat="25.16205" lon="101.956599">
<time>2016-04-06T10:26:31Z</time></trkpt>
<trkpt lat="25.162281" lon="101.95625">
<time>2016-04-06T10:26:32Z</time></trkpt>
<trkpt lat="25.162502" lon="101.955881">
<time>2016-04-06T10:26:33Z</time></trkpt>
<trkpt lat="25.162763" lon="101.955482">
<time>2016-04-06T10:26:34Z</time></trkpt>
<trkpt lat="25.162923" lon="101.955222">
<time>2016-04-06T10:26:35Z</time></trkpt>
<trkpt lat="25.163194" lon="101.954753">
<time>2016-04-06T10:26:36Z</time></trkpt>
<trkpt lat="25.163255" lon="101.954633">
<time>2016-04-06T10:26:37Z</time></trkpt>
<trkpt lat="25.163355" lon="101.954434">
<time>2016-04-06T10:26:38Z</time></trkpt>
<trkpt lat="25.163546" lon="101.953995">
<time>2016-04-06T10:26:39Z</time></trkpt>
<trkpt lat="25.163657" lon="101.953765">
<time>2016-04-06T10:26:40Z</time></trkpt>
<trkpt lat="25.163767" lon="101.953556">
<time>2016-04-06T10:26:41Z</time></trkpt>
<trkpt lat="25.163807" lon="101.953446">
<time>2016-04-06T10:26:42Z</time></trkpt>
<trkpt lat="25.163858" lon="101.953296">
<time>2016-04-06T10:26:43Z</time></trkpt>
<trkpt lat="25.163898" lon="101.953127">
<time>2016-04-06T10:26:44Z</time></trkpt>
<trkpt lat="25.163908" lon="101.952957">
<time>2016-04-06T10:26:45Z</time></trkpt>
<trkpt lat="25.163909" lon="101.952817">
<time>2016-04-06T10:26:46Z</time></trkpt>
<trkpt lat="25.163889" lon="101.952668">
<time>2016-04-06T10:26:47Z</time></trkpt>
<trkpt lat="25.163869" lon="101.952518">
<time>2016-04-06T10:26:48Z</time></trkpt>
<trkpt lat="25.16383" lon="101.952378">
<time>2016-04-06T10:26:49Z</time></trkpt>
<trkpt lat="25.16377" lon="101.952219">
<time>2016-04-06T10:26:50Z</time></trkpt>
<trkpt lat="25.16372" lon="101.952079">
<time>2016-04-06T10:26:51Z</time></trkpt>
<trkpt lat="25.163631" lon="101.951859">
<time>2016-04-06T10:26:52Z</time></trkpt>
<trkpt lat="25.163591" lon="101.95171">
<time>2016-04-06T10:26:53Z</time></trkpt>
<trkpt lat="25.163551" lon="101.95156">
<time>2016-04-06T10:26:54Z</time></trkpt>
<trkpt lat="25.163532" lon="101.95142">
<time>2016-04-06T10:26:55Z</time></trkpt>
<trkpt lat="25.163522" lon="101.951311">
<time>2016-04-06T10:26:56Z</time></trkpt>
<trkpt lat="25.163512" lon="101.951161">
<time>2016-04-06T10:26:57Z</time></trkpt>
<trkpt lat="25.163513" lon="101.951011">
<time>2016-04-06T10:26:58Z</time></trkpt>
<trkpt lat="25.163523" lon="101.950861">
<time>2016-04-06T10:26:59Z</time></trkpt>
<trkpt lat="25.163543" lon="101.950722">
<time>2016-04-06T10:27:00Z</time></trkpt>
<trkpt lat="25.163594" lon="101.950512">
<time>2016-04-06T10:27:01Z</time></trkpt>
<trkpt lat="25.163654" lon="101.950283">
<time>2016-04-06T10:27:02Z</time></trkpt>
<trkpt lat="25.163725" lon="101.950063">
<time>2016-04-06T10:27:03Z</time></trkpt>
<trkpt lat="25.163785" lon="101.949903">
<time>2016-04-06T10:27:04Z</time></trkpt>
<trkpt lat="25.163885" lon="101.949714">
<time>2016-04-06T10:27:05Z</time></trkpt>
<trkpt lat="25.163976" lon="101.949574">
<time>2016-04-06T10:27:06Z</time></trkpt>
<trkpt lat="25.164146" lon="101.949334">
<time>2016-04-06T10:27:07Z</time></trkpt>
<trkpt lat="25.164327" lon="101.949075">
<time>2016-04-06T10:27:08Z</time></trkpt>
<trkpt lat="25.164497" lon="101.948845">
<time>2016-04-06T10:27:09Z</time></trkpt>
<trkpt lat="25.164728" lon="101.948536">
<time>2016-04-06T10:27:10Z</time></trkpt>
<trkpt lat="25.164848" lon="101.948366">
<time>2016-04-06T10:27:11Z</time></trkpt>
<trkpt lat="25.164908" lon="101.948267">
<time>2016-04-06T10:27:12Z</time></trkpt>
<trkpt lat="25.164979" lon="101.948127">
<time>2016-04-06T10:27:13Z</time></trkpt>
<trkpt lat="25.165029" lon="101.947997">
<time>2016-04-06T10:27:14Z</time></trkpt>
<trkpt lat="25.16514" lon="101.947638">
<time>2016-04-06T10:27:15Z</time></trkpt>
<trkpt lat="25.1652" lon="101.947428">
<time>2016-04-06T10:27:16Z</time></trkpt>
<trkpt lat="25.165321" lon="101.947059">
<time>2016-04-06T10:27:17Z</time></trkpt>
<trkpt lat="25.165381" lon="101.946829">
<time>2016-04-06T10:27:18Z</time></trkpt>
<trkpt lat="25.165391" lon="101.946779">
<time>2016-04-06T10:27:19Z</time></trkpt>
<trkpt lat="25.165401" lon="101.946729">
<time>2016-04-06T10:27:20Z</time></trkpt>
<trkpt lat="25.165402" lon="101.946689">
<time>2016-04-06T10:27:21Z</time></trkpt>
<trkpt lat="25.165402" lon="101.94662">
<time>2016-04-06T10:27:22Z</time></trkpt>
<trkpt lat="25.165392" lon="101.94654">
<time>2016-04-06T10:27:23Z</time></trkpt>
<trkpt lat="25.165382" lon="101.94648">
<time>2016-04-06T10:27:24Z</time></trkpt>
<trkpt lat="25.165342" lon="101.9464">
<time>2016-04-06T10:27:25Z</time></trkpt>
<trkpt lat="25.165312" lon="101.94635">
<time>2016-04-06T10:27:26Z</time></trkpt>
<trkpt lat="25.165252" lon="101.9463">
<time>2016-04-06T10:27:27Z</time></trkpt>
<trkpt lat="25.165212" lon="101.94626">
<time>2016-04-06T10:27:28Z</time></trkpt>
<trkpt lat="25.165142" lon="101.94622">
<time>2016-04-06T10:27:29Z</time></trkpt>
<trkpt lat="25.164923" lon="101.946131">
<time>2016-04-06T10:27:30Z</time></trkpt>
<trkpt lat="25.164733" lon="101.946061">
<time>2016-04-06T10:27:31Z</time></trkpt>
<trkpt lat="25.164653" lon="101.946031">
<time>2016-04-06T10:27:32Z</time></trkpt>
<trkpt lat="25.164573" lon="101.946001">
<time>2016-04-06T10:27:33Z</time></trkpt>
<trkpt lat="25.164503" lon="101.945961">
<time>2016-04-06T10:27:34Z</time></trkpt>
<trkpt lat="25.164453" lon="101.945921">
<time>2016-04-06T10:27:35Z</time></trkpt>
<trkpt lat="25.164393" lon="101.945881">
<time>2016-04-06T10:27:36Z</time></trkpt>
<trkpt lat="25.164343" lon="101.945821">
<time>2016-04-06T10:27:37Z</time></trkpt>
<trkpt lat="25.164254" lon="101.945711">
<time>2016-04-06T10:27:38Z</time></trkpt>
<trkpt lat="25.164144" lon="101.945592">
<time>2016-04-06T10:27:39Z</time></trkpt>
<trkpt lat="25.164054" lon="101.945512">
<time>2016-04-06T10:27:40Z</time></trkpt>
<trkpt lat="25.163994" lon="101.945472">
<time>2016-04-06T10:27:41Z</time></trkpt>
<trkpt lat="25.163924" lon="101.945442">
<time>2016-04-06T10:27:42Z</time></trkpt>
<trkpt lat="25.163854" lon="101.945412">
<time>2016-04-06T10:27:43Z</time></trkpt>
<trkpt lat="25.163764" lon="101.945382">
<time>2016-04-06T10:27:44Z</time></trkpt>
<trkpt lat="25.163634" lon="101.945342">
<time>2016-04-06T10:27:45Z</time></trkpt>
<trkpt lat="25.163444" lon="101.945282">
<time>2016-04-06T10:27:46Z</time></trkpt>
<trkpt lat="25.163294" lon="101.945242">
<time>2016-04-06T10:27:47Z</time></trkpt>
<trkpt lat="25.163195" lon="101.945202">
<time>2016-04-06T10:27:48Z</time></trkpt>
<trkpt lat="25.163105" lon="101.945162">
<time>2016-04-06T10:27:49Z</time></trkpt>
<trkpt lat="25.163075" lon="101.945142">
<time>2016-04-06T10:27:50Z</time></trkpt>
<trkpt lat="25.163015" lon="101.945112">
<time>2016-04-06T10:27:51Z</time></trkpt>
<trkpt lat="25.162965" lon="101.945063">
<time>2016-04-06T10:27:52Z</time></trkpt>
<trkpt lat="25.162915" lon="101.945023">
<time>2016-04-06T10:27:53Z</time></trkpt>
<trkpt lat="25.162885" lon="101.944963">
<time>2016-04-06T10:27:54Z</time></trkpt>
<trkpt lat="25.162845" lon="101.944903">
<time>2016-04-06T10:27:55Z</time></trkpt>
<trkpt lat="25.162805" lon="101.944803">
<time>2016-04-06T10:27:56Z</time></trkpt>
<trkpt lat="25.162776" lon="101.944673">
<time>2016-04-06T10:27:57Z</time></trkpt>
<trkpt lat="25.162756" lon="101.944533">
<time>2016-04-06T10:27:58Z</time></trkpt>
<trkpt lat="25.162726" lon="101.944374">
<time>2016-04-06T10:27:59Z</time></trkpt>
<trkpt lat="25.162697" lon="101.944194">
<time>2016-04-06T10:28:00Z</time></trkpt>
<trkpt lat="25.162667" lon="101.943994">
<time>2016-04-06T10:28:01Z</time></trkpt>
<trkpt lat="25.162617" lon="101.943785">
<time>2016-04-06T10:28:02Z</time></trkpt>
<trkpt lat="25.162568" lon="101.943585">
<time>2016-04-06T10:28:03Z</time></trkpt>
<trkpt lat="25.162568" lon="101.943585">
<time>2016-04-06T10:28:04Z</time></trkpt>
<trkpt lat="25.162658" lon="101.943555">
<time>2016-04-06T10:28:05Z</time></trkpt>
<trkpt lat="25.162658" lon="101.943555">
<time>2016-04-06T10:28:06Z</time></trkpt>
<trkpt lat="25.162638" lon="101.943495">
<time>2016-04-06T10:28:07Z</time></trkpt>
<trkpt lat="25.162578" lon="101.943286">
<time>2016-04-06T10:28:08Z</time></trkpt>
<trkpt lat="25.162519" lon="101.943106">
<time>2016-04-06T10:28:09Z</time></trkpt>
<trkpt lat="25.162459" lon="101.942956">
<time>2016-04-06T10:28:10Z</time></trkpt>
<trkpt lat="25.162369" lon="101.942767">
<time>2016-04-06T10:28:11Z</time></trkpt>
<trkpt lat="25.16218" lon="101.942377">
<time>2016-04-06T10:28:12Z</time></trkpt>
<trkpt lat="25.162021" lon="101.942038">
<time>2016-04-06T10:28:13Z</time></trkpt>
<trkpt lat="25.161881" lon="101.941738">
<time>2016-04-06T10:28:14Z</time></trkpt>
<trkpt lat="25.161762" lon="101.941459">
<time>2016-04-06T10:28:15Z</time></trkpt>
<trkpt lat="25.161692" lon="101.941249">
<time>2016-04-06T10:28:16Z</time></trkpt>
<trkpt lat="25.161632" lon="101.941049">
<time>2016-04-06T10:28:17Z</time></trkpt>
<trkpt lat="25.161613" lon="101.94086">
<time>2016-04-06T10:28:18Z</time></trkpt>
<trkpt lat="25.161603" lon="101.94059">
<time>2016-04-06T10:28:19Z</time></trkpt>
<trkpt lat="25.161634" lon="101.940271">
<time>2016-04-06T10:28:20Z</time></trkpt>
<trkpt lat="25.161674" lon="101.939871">
<time>2016-04-06T10:28:21Z</time></trkpt>
<trkpt lat="25.161715" lon="101.939552">
<time>2016-04-06T10:28:22Z</time></trkpt>
<trkpt lat="25.161755" lon="101.939342">
<time>2016-04-06T10:28:23Z</time></trkpt>
<trkpt lat="25.161786" lon="101.939152">
<time>2016-04-06T10:28:24Z</time></trkpt>
<trkpt lat="25.161826" lon="101.938983">
<time>2016-04-06T10:28:25Z</time></trkpt>
<trkpt lat="25.161856" lon="101.938863">
<time>2016-04-06T10:28:26Z</time></trkpt>
<trkpt lat="25.161896" lon="101.938743">
<time>2016-04-06T10:28:27Z</time></trkpt>
<trkpt lat="25.161957" lon="101.938593">
<time>2016-04-06T10:28:28Z</time></trkpt>
<trkpt lat="25.162027" lon="101.938434">
<time>2016-04-06T10:28:29Z</time></trkpt>
<trkpt lat="25.162117" lon="101.938284">
<time>2016-04-06T10:28:30Z</time></trkpt>
<trkpt lat="25.162187" lon="101.938214">
<time>2016-04-06T10:28:31Z</time></trkpt>
<trkpt lat="25.162247" lon="101.938164">
<time>2016-04-06T10:28:32Z</time></trkpt>
<trkpt lat="25.162307" lon="101.938124">
<time>2016-04-06T10:28:33Z</time></trkpt>
<trkpt lat="25.162397" lon="101.938084">
<time>2016-04-06T10:28:34Z</time></trkpt>
<trkpt lat="25.162527" lon="101.938064">
<time>2016-04-06T10:28:35Z</time></trkpt>
<trkpt lat="25.162617" lon="101.938054">
<time>2016-04-06T10:28:36Z</time></trkpt>
<trkpt lat="25.162727" lon="101.938074">
<time>2016-04-06T10:28:37Z</time></trkpt>
<trkpt lat="25.162827" lon="101.938114">
<time>2016-04-06T10:28:38Z</time></trkpt>
<trkpt lat="25.162927" lon="101.938164">
<time>2016-04-06T10:28:39Z</time></trkpt>
<trkpt lat="25.163027" lon="101.938224">
<time>2016-04-06T10:28:40Z</time></trkpt>
<trkpt lat="25.163117" lon="101.938294">
<time>2016-04-06T10:28:41Z</time></trkpt>
<trkpt lat="25.163327" lon="101.938453">
<time>2016-04-06T10:28:42Z</time></trkpt>
<trkpt lat="25.163806" lon="101.938823">
<time>2016-04-06T10:28:43Z</time></trkpt>
<trkpt lat="25.164066" lon="101.939033">
<time>2016-04-06T10:28:44Z</time></trkpt>
<trkpt lat="25.164176" lon="101.939102">
<time>2016-04-06T10:28:45Z</time></trkpt>
<trkpt lat="25.164246" lon="101.939142">
<time>2016-04-06T10:28:46Z</time></trkpt>
<trkpt lat="25.164325" lon="101.939182">
<time>2016-04-06T10:28:47Z</time></trkpt>
<trkpt lat="25.164405" lon="101.939212">
<time>2016-04-06T10:28:48Z</time></trkpt>
<trkpt lat="25.164495" lon="101.939232">
<time>2016-04-06T10:28:49Z</time></trkpt>
<trkpt lat="25.164635" lon="101.939242">
<time>2016-04-06T10:28:50Z</time></trkpt>
<trkpt lat="25.164805" lon="101.939252">
<time>2016-04-06T10:28:51Z</time></trkpt>
<trkpt lat="25.164975" lon="101.939252">
<time>2016-04-06T10:28:52Z</time></trkpt>
<trkpt lat="25.165125" lon="101.939232">
<time>2016-04-06T10:28:53Z</time></trkpt>
<trkpt lat="25.165275" lon="101.939192">
<time>2016-04-06T10:28:54Z</time></trkpt>
<trkpt lat="25.165416" lon="101.939112">
<time>2016-04-06T10:28:55Z</time></trkpt>
<trkpt lat="25.165526" lon="101.939023">
<time>2016-04-06T10:28:56Z</time></trkpt>
<trkpt lat="25.165636" lon="101.938913">
<time>2016-04-06T10:28:57Z</time></trkpt>
<trkpt lat="25.165696" lon="101.938793">
<time>2016-04-06T10:28:58Z</time></trkpt>
<trkpt lat="25.165766" lon="101.938633">
<time>2016-04-06T10:28:59Z</time></trkpt>
<trkpt lat="25.165797" lon="101.938453">
<time>2016-04-06T10:29:00Z</time></trkpt>
<trkpt lat="25.165807" lon="101.938244">
<time>2016-04-06T10:29:01Z</time></trkpt>
<trkpt lat="25.165787" lon="101.938034">
<time>2016-04-06T10:29:02Z</time></trkpt>
<trkpt lat="25.165748" lon="101.937854">
<time>2016-04-06T10:29:03Z</time></trkpt>
<trkpt lat="25.165698" lon="101.937705">
<time>2016-04-06T10:29:04Z</time></trkpt>
<trkpt lat="25.165638" lon="101.937575">
<time>2016-04-06T10:29:05Z</time></trkpt>
<trkpt lat="25.165548" lon="101.937425">
<time>2016-04-06T10:29:06Z</time></trkpt>
<trkpt lat="25.165379" lon="101.937185">
<time>2016-04-06T10:29:07Z</time></trkpt>
<trkpt lat="25.165089" lon="101.936806">
<time>2016-04-06T10:29:08Z</time></trkpt>
<trkpt lat="25.16487" lon="101.936496">
<time>2016-04-06T10:29:09Z</time></trkpt>
<trkpt lat="25.16478" lon="101.936347">
<time>2016-04-06T10:29:10Z</time></trkpt>
<trkpt lat="25.16472" lon="101.936197">
<time>2016-04-06T10:29:11Z</time></trkpt>
<trkpt lat="25.164671" lon="101.935977">
<time>2016-04-06T10:29:12Z</time></trkpt>
<trkpt lat="25.164641" lon="101.935797">
<time>2016-04-06T10:29:13Z</time></trkpt>
<trkpt lat="25.164572" lon="101.935358">
<time>2016-04-06T10:29:14Z</time></trkpt>
<trkpt lat="25.164512" lon="101.935108">
<time>2016-04-06T10:29:15Z</time></trkpt>
<trkpt lat="25.164432" lon="101.934929">
<time>2016-04-06T10:29:16Z</time></trkpt>
<trkpt lat="25.164323" lon="101.934779">
<time>2016-04-06T10:29:17Z</time></trkpt>
<trkpt lat="25.164123" lon="101.934559">
<time>2016-04-06T10:29:18Z</time></trkpt>
<trkpt lat="25.163913" lon="101.934289">
<time>2016-04-06T10:29:19Z</time></trkpt>
<trkpt lat="25.163843" lon="101.93418">
<time>2016-04-06T10:29:20Z</time></trkpt>
<trkpt lat="25.163804" lon="101.9341">
<time>2016-04-06T10:29:21Z</time></trkpt>
<trkpt lat="25.163764" lon="101.93401">
<time>2016-04-06T10:29:22Z</time></trkpt>
<trkpt lat="25.163744" lon="101.93394">
<time>2016-04-06T10:29:23Z</time></trkpt>
<trkpt lat="25.163734" lon="101.93383">
<time>2016-04-06T10:29:24Z</time></trkpt>
<trkpt lat="25.163724" lon="101.93374">
<time>2016-04-06T10:29:25Z</time></trkpt>
<trkpt lat="25.163724" lon="101.93364">
<time>2016-04-06T10:29:26Z</time></trkpt>
<trkpt lat="25.163734" lon="101.93357">
<time>2016-04-06T10:29:27Z</time></trkpt>
<trkpt lat="25.163744" lon="101.93351">
<time>2016-04-06T10:29:28Z</time></trkpt>
<trkpt lat="25.163765" lon="101.93344">
<time>2016-04-06T10:29:29Z</time></trkpt>
<trkpt lat="25.163775" lon="101.933371">
<time>2016-04-06T10:29:30Z</time></trkpt>
<trkpt lat="25.163795" lon="101.933311">
<time>2016-04-06T10:29:31Z</time></trkpt>
<trkpt lat="25.163825" lon="101.933241">
<time>2016-04-06T10:29:32Z</time></trkpt>
<trkpt lat="25.163845" lon="101.933191">
<time>2016-04-06T10:29:33Z</time></trkpt>
<trkpt lat="25.163895" lon="101.933111">
<time>2016-04-06T10:29:34Z</time></trkpt>
<trkpt lat="25.163935" lon="101.933041">
<time>2016-04-06T10:29:35Z</time></trkpt>
<trkpt lat="25.163995" lon="101.932971">
<time>2016-04-06T10:29:36Z</time></trkpt>
<trkpt lat="25.164055" lon="101.932901">
<time>2016-04-06T10:29:37Z</time></trkpt>
<trkpt lat="25.164115" lon="101.932851">
<time>2016-04-06T10:29:38Z</time></trkpt>
<trkpt lat="25.164175" lon="101.932801">
<time>2016-04-06T10:29:39Z</time></trkpt>
<trkpt lat="25.164226" lon="101.932771">
<time>2016-04-06T10:29:40Z</time></trkpt>
<trkpt lat="25.164306" lon="101.932731">
<time>2016-04-06T10:29:41Z</time></trkpt>
<trkpt lat="25.164366" lon="101.932701">
<time>2016-04-06T10:29:42Z</time></trkpt>
<trkpt lat="25.164436" lon="101.932671">
<time>2016-04-06T10:29:43Z</time></trkpt>
<trkpt lat="25.164526" lon="101.932651">
<time>2016-04-06T10:29:44Z</time></trkpt>
<trkpt lat="25.164606" lon="101.932641">
<time>2016-04-06T10:29:45Z</time></trkpt>
<trkpt lat="25.164686" lon="101.932622">
<time>2016-04-06T10:29:46Z</time></trkpt>
<trkpt lat="25.164796" lon="101.932612">
<time>2016-04-06T10:29:47Z</time></trkpt>
<trkpt lat="25.165016" lon="101.932592">
<time>2016-04-06T10:29:48Z</time></trkpt>
<trkpt lat="25.165306" lon="101.932562">
<time>2016-04-06T10:29:49Z</time></trkpt>
<trkpt lat="25.165616" lon="101.932522">
<time>2016-04-06T10:29:50Z</time></trkpt>
<trkpt lat="25.165716" lon="101.932502">
<time>2016-04-06T10:29:51Z</time></trkpt>
<trkpt lat="25.165816" lon="101.932472">
<time>2016-04-06T10:29:52Z</time></trkpt>
<trkpt lat="25.165876" lon="101.932452">
<time>2016-04-06T10:29:53Z</time></trkpt>
<trkpt lat="25.165936" lon="101.932432">
<time>2016-04-06T10:29:54Z</time></trkpt>
<trkpt lat="25.166006" lon="101.932402">
<time>2016-04-06T10:29:55Z</time></trkpt>
<trkpt lat="25.166056" lon="101.932372">
<time>2016-04-06T10:29:56Z</time></trkpt>
<trkpt lat="25.166106" lon="101.932342">
<time>2016-04-06T10:29:57Z</time></trkpt>
<trkpt lat="25.166146" lon="101.932312">
<time>2016-04-06T10:29:58Z</time></trkpt>
<trkpt lat="25.166166" lon="101.932302">
<time>2016-04-06T10:29:59Z</time></trkpt>
<trkpt lat="25.166216" lon="101.932262">
<time>2016-04-06T10:30:00Z</time></trkpt>
<trkpt lat="25.166286" lon="101.932192">
<time>2016-04-06T10:30:01Z</time></trkpt>
<trkpt lat="25.166356" lon="101.932112">
<time>2016-04-06T10:30:02Z</time></trkpt>
<trkpt lat="25.166386" lon="101.932082">
<time>2016-04-06T10:30:03Z</time></trkpt>
<trkpt lat="25.166396" lon="101.932072">
<time>2016-04-06T10:30:04Z</time></trkpt>
<trkpt lat="25.166437" lon="101.932012">
<time>2016-04-06T10:30:05Z</time></trkpt>
<trkpt lat="25.166477" lon="101.931952">
<time>2016-04-06T10:30:06Z</time></trkpt>
<trkpt lat="25.166507" lon="101.931902">
<time>2016-04-06T10:30:07Z</time></trkpt>
<trkpt lat="25.166547" lon="101.931822">
<time>2016-04-06T10:30:08Z</time></trkpt>
<trkpt lat="25.166587" lon="101.931733">
<time>2016-04-06T10:30:09Z</time></trkpt>
<trkpt lat="25.166617" lon="101.931633">
<time>2016-04-06T10:30:10Z</time></trkpt>
<trkpt lat="25.166637" lon="101.931543">
<time>2016-04-06T10:30:11Z</time></trkpt>
<trkpt lat="25.166657" lon="101.931483">
<time>2016-04-06T10:30:12Z</time></trkpt>
<trkpt lat="25.166667" lon="101.931413">
<time>2016-04-06T10:30:13Z</time></trkpt>
<trkpt lat="25.166677" lon="101.931363">
<time>2016-04-06T10:30:14Z</time></trkpt>
<trkpt lat="25.166687" lon="101.931323">
<time>2016-04-06T10:30:15Z</time></trkpt>
<trkpt lat="25.166698" lon="101.931253">
<time>2016-04-06T10:30:16Z</time></trkpt>
<trkpt lat="25.166698" lon="101.931213">
<time>2016-04-06T10:30:17Z</time></trkpt>
<trkpt lat="25.166698" lon="101.931183">
<time>2016-04-06T10:30:18Z</time></trkpt>
<trkpt lat="25.166708" lon="101.931133">
<time>2016-04-06T10:30:19Z</time></trkpt>
<trkpt lat="25.166698" lon="101.931093">
<time>2016-04-06T10:30:20Z</time></trkpt>
<trkpt lat="25.166698" lon="101.931043">
<time>2016-04-06T10:30:21Z</time></trkpt>
<trkpt lat="25.166698" lon="101.931003">
<time>2016-04-06T10:30:22Z</time></trkpt>
<trkpt lat="25.166698" lon="101.930973">
<time>2016-04-06T10:30:23Z</time></trkpt>
<trkpt lat="25.166688" lon="101.930924">
<time>2016-04-06T10:30:24Z</time></trkpt>
<trkpt lat="25.166678" lon="101.930894">
<time>2016-04-06T10:30:25Z</time></trkpt>
<trkpt lat="25.166678" lon="101.930884">
<time>2016-04-06T10:30:26Z</time></trkpt>
<trkpt lat="25.166648" lon="101.930764">
<time>2016-04-06T10:30:27Z</time></trkpt>
<trkpt lat="25.166628" lon="101.930664">
<time>2016-04-06T10:30:28Z</time></trkpt>
<trkpt lat="25.166608" lon="101.930624">
<time>2016-04-06T10:30:29Z</time></trkpt>
<trkpt lat="25.166588" lon="101.930574">
<time>2016-04-06T10:30:30Z</time></trkpt>
<trkpt lat="25.166549" lon="101.930504">
<time>2016-04-06T10:30:31Z</time></trkpt>
<trkpt lat="25.166509" lon="101.930434">
<time>2016-04-06T10:30:32Z</time></trkpt>
<trkpt lat="25.166449" lon="101.930354">
<time>2016-04-06T10:30:33Z</time></trkpt>
<trkpt lat="25.166349" lon="101.930254">
<time>2016-04-06T10:30:34Z</time></trkpt>
<trkpt lat="25.166279" lon="101.930194">
<time>2016-04-06T10:30:35Z</time></trkpt>
<trkpt lat="25.166159" lon="101.930104">
<time>2016-04-06T10:30:36Z</time></trkpt>
<trkpt lat="25.165899" lon="101.929925">
<time>2016-04-06T10:30:37Z</time></trkpt>
<trkpt lat="25.16547" lon="101.929625">
<time>2016-04-06T10:30:38Z</time></trkpt>
<trkpt lat="25.16517" lon="101.929415">
<time>2016-04-06T10:30:39Z</time></trkpt>
<trkpt lat="25.164581" lon="101.929006">
<time>2016-04-06T10:30:40Z</time></trkpt>
<trkpt lat="25.164201" lon="101.928686">
<time>2016-04-06T10:30:41Z</time></trkpt>
<trkpt lat="25.163971" lon="101.928476">
<time>2016-04-06T10:30:42Z</time></trkpt>
<trkpt lat="25.163632" lon="101.928107">
<time>2016-04-06T10:30:43Z</time></trkpt>
<trkpt lat="25.163242" lon="101.927657">
<time>2016-04-06T10:30:44Z</time></trkpt>
<trkpt lat="25.162613" lon="101.926968">
<time>2016-04-06T10:30:45Z</time></trkpt>
<trkpt lat="25.162224" lon="101.926528">
<time>2016-04-06T10:30:46Z</time></trkpt>
<trkpt lat="25.161834" lon="101.926099">
<time>2016-04-06T10:30:47Z</time></trkpt>
<trkpt lat="25.161625" lon="101.925839">
<time>2016-04-06T10:30:48Z</time></trkpt>
<trkpt lat="25.161455" lon="101.925609">
<time>2016-04-06T10:30:49Z</time></trkpt>
<trkpt lat="25.161295" lon="101.925379">
<time>2016-04-06T10:30:50Z</time></trkpt>
<trkpt lat="25.161066" lon="101.92499">
<time>2016-04-06T10:30:51Z</time></trkpt>
<trkpt lat="25.160936" lon="101.92478">
<time>2016-04-06T10:30:52Z</time></trkpt>
<trkpt lat="25.160776" lon="101.92453">
<time>2016-04-06T10:30:53Z</time></trkpt>
<trkpt lat="25.160736" lon="101.92444">
<time>2016-04-06T10:30:54Z</time></trkpt>
<trkpt lat="25.160716" lon="101.92439">
<time>2016-04-06T10:30:55Z</time></trkpt>
<trkpt lat="25.160666" lon="101.92426">
<time>2016-04-06T10:30:56Z</time></trkpt>
<trkpt lat="25.160637" lon="101.924111">
<time>2016-04-06T10:30:57Z</time></trkpt>
<trkpt lat="25.160627" lon="101.923981">
<time>2016-04-06T10:30:58Z</time></trkpt>
<trkpt lat="25.160627" lon="101.923871">
<time>2016-04-06T10:30:59Z</time></trkpt>
<trkpt lat="25.160627" lon="101.923781">
<time>2016-04-06T10:31:00Z</time></trkpt>
<trkpt lat="25.160637" lon="101.923721">
<time>2016-04-06T10:31:01Z</time></trkpt>
<trkpt lat="25.160667" lon="101.923621">
<time>2016-04-06T10:31:02Z</time></trkpt>
<trkpt lat="25.160697" lon="101.923531">
<time>2016-04-06T10:31:03Z</time></trkpt>
<trkpt lat="25.160737" lon="101.923431">
<time>2016-04-06T10:31:04Z</time></trkpt>
<trkpt lat="25.160787" lon="101.923341">
<time>2016-04-06T10:31:05Z</time></trkpt>
<trkpt lat="25.160857" lon="101.923241">
<time>2016-04-06T10:31:06Z</time></trkpt>
<trkpt lat="25.160938" lon="101.923141">
<time>2016-04-06T10:31:07Z</time></trkpt>
<trkpt lat="25.161018" lon="101.923051">
<time>2016-04-06T10:31:08Z</time></trkpt>
<trkpt lat="25.161108" lon="101.922991">
<time>2016-04-06T10:31:09Z</time></trkpt>
<trkpt lat="25.161188" lon="101.922941">
<time>2016-04-06T10:31:10Z</time></trkpt>
<trkpt lat="25.161268" lon="101.922901">
<time>2016-04-06T10:31:11Z</time></trkpt>
<trkpt lat="25.161278" lon="101.922901">
<time>2016-04-06T10:31:12Z</time></trkpt>
<trkpt lat="25.161338" lon="101.922882">
<time>2016-04-06T10:31:13Z</time></trkpt>
<trkpt lat="25.161438" lon="101.922852">
<time>2016-04-06T10:31:14Z</time></trkpt>
<trkpt lat="25.161528" lon="101.922842">
<time>2016-04-06T10:31:15Z</time></trkpt>
<trkpt lat="25.161658" lon="101.922842">
<time>2016-04-06T10:31:16Z</time></trkpt>
<trkpt lat="25.161938" lon="101.922852">
<time>2016-04-06T10:31:17Z</time></trkpt>
<trkpt lat="25.162208" lon="101.922871">
<time>2016-04-06T10:31:18Z</time></trkpt>
<trkpt lat="25.162408" lon="101.922881">
<time>2016-04-06T10:31:19Z</time></trkpt>
<trkpt lat="25.162538" lon="101.922881">
<time>2016-04-06T10:31:20Z</time></trkpt>
<trkpt lat="25.162658" lon="101.922861">
<time>2016-04-06T10:31:21Z</time></trkpt>
<trkpt lat="25.162738" lon="101.922842">
<time>2016-04-06T10:31:22Z</time></trkpt>
<trkpt lat="25.162838" lon="101.922802">
<time>2016-04-06T10:31:23Z</time></trkpt>
<trkpt lat="25.162908" lon="101.922732">
<time>2016-04-06T10:31:24Z</time></trkpt>
<trkpt lat="25.162978" lon="101.922662">
<time>2016-04-06T10:31:25Z</time></trkpt>
<trkpt lat="25.163038" lon="101.922592">
<time>2016-04-06T10:31:26Z</time></trkpt>
<trkpt lat="25.163088" lon="101.922532">
<time>2016-04-06T10:31:27Z</time></trkpt>
<trkpt lat="25.163148" lon="101.922442">
<time>2016-04-06T10:31:28Z</time></trkpt>
<trkpt lat="25.163178" lon="101.922402">
<time>2016-04-06T10:31:29Z</time></trkpt>
<trkpt lat="25.163208" lon="101.922352">
<time>2016-04-06T10:31:30Z</time></trkpt>
<trkpt lat="25.163238" lon="101.922292">
<time>2016-04-06T10:31:31Z</time></trkpt>
<trkpt lat="25.163278" lon="101.922232">
<time>2016-04-06T10:31:32Z</time></trkpt>
<trkpt lat="25.163288" lon="101.922192">
<time>2016-04-06T10:31:33Z</time></trkpt>
<trkpt lat="25.163298" lon="101.922162">
<time>2016-04-06T10:31:34Z</time></trkpt>
<trkpt lat="25.163328" lon="101.922102">
<time>2016-04-06T10:31:35Z</time></trkpt>
<trkpt lat="25.163338" lon="101.922072">
<time>2016-04-06T10:31:36Z</time></trkpt>
<trkpt lat="25.163359" lon="101.921992">
<time>2016-04-06T10:31:37Z</time></trkpt>
<trkpt lat="25.163369" lon="101.921952">
<time>2016-04-06T10:31:38Z</time></trkpt>
<trkpt lat="25.163369" lon="101.921922">
<time>2016-04-06T10:31:39Z</time></trkpt>
<trkpt lat="25.163379" lon="101.921892">
<time>2016-04-06T10:31:40Z</time></trkpt>
<trkpt lat="25.163379" lon="101.921822">
<time>2016-04-06T10:31:41Z</time></trkpt>
<trkpt lat="25.163389" lon="101.921662">
<time>2016-04-06T10:31:42Z</time></trkpt>
<trkpt lat="25.163379" lon="101.921522">
<time>2016-04-06T10:31:43Z</time></trkpt>
<trkpt lat="25.163349" lon="101.921313">
<time>2016-04-06T10:31:44Z</time></trkpt>
<trkpt lat="25.163299" lon="101.921003">
<time>2016-04-06T10:31:45Z</time></trkpt>
<trkpt lat="25.16325" lon="101.920663">
<time>2016-04-06T10:31:46Z</time></trkpt>
<trkpt lat="25.16322" lon="101.920383">
<time>2016-04-06T10:31:47Z</time></trkpt>
<trkpt lat="25.16317" lon="101.920153">
<time>2016-04-06T10:31:48Z</time></trkpt>
<trkpt lat="25.163101" lon="101.919804">
<time>2016-04-06T10:31:49Z</time></trkpt>
<trkpt lat="25.163051" lon="101.919614">
<time>2016-04-06T10:31:50Z</time></trkpt>
<trkpt lat="25.162991" lon="101.919414">
<time>2016-04-06T10:31:51Z</time></trkpt>
<trkpt lat="25.162891" lon="101.919024">
<time>2016-04-06T10:31:52Z</time></trkpt>
<trkpt lat="25.162811" lon="101.918694">
<time>2016-04-06T10:31:53Z</time></trkpt>
<trkpt lat="25.162772" lon="101.918574">
<time>2016-04-06T10:31:54Z</time></trkpt>
<trkpt lat="25.162702" lon="101.918365">
<time>2016-04-06T10:31:55Z</time></trkpt>
<trkpt lat="25.162582" lon="101.918025">
<time>2016-04-06T10:31:56Z</time></trkpt>
<trkpt lat="25.162522" lon="101.917865">
<time>2016-04-06T10:31:57Z</time></trkpt>
<trkpt lat="25.162442" lon="101.917615">
<time>2016-04-06T10:31:58Z</time></trkpt>
<trkpt lat="25.162392" lon="101.917445">
<time>2016-04-06T10:31:59Z</time></trkpt>
<trkpt lat="25.162333" lon="101.917125">
<time>2016-04-06T10:32:00Z</time></trkpt>
<trkpt lat="25.162283" lon="101.916795">
<time>2016-04-06T10:32:01Z</time></trkpt>
<trkpt lat="25.162263" lon="101.916475">
<time>2016-04-06T10:32:02Z</time></trkpt>
<trkpt lat="25.162233" lon="101.916196">
<time>2016-04-06T10:32:03Z</time></trkpt>
<trkpt lat="25.162214" lon="101.916026">
<time>2016-04-06T10:32:04Z</time></trkpt>
<trkpt lat="25.162194" lon="101.915906">
<time>2016-04-06T10:32:05Z</time></trkpt>
<trkpt lat="25.162144" lon="101.915696">
<time>2016-04-06T10:32:06Z</time></trkpt>
<trkpt lat="25.162024" lon="101.915216">
<time>2016-04-06T10:32:07Z</time></trkpt>
<trkpt lat="25.161954" lon="101.914906">
<time>2016-04-06T10:32:08Z</time></trkpt>
<trkpt lat="25.161885" lon="101.914566">
<time>2016-04-06T10:32:09Z</time></trkpt>
<trkpt lat="25.161805" lon="101.914216">
<time>2016-04-06T10:32:10Z</time></trkpt>
<trkpt lat="25.161755" lon="101.913927">
<time>2016-04-06T10:32:11Z</time></trkpt>
<trkpt lat="25.161735" lon="101.913777">
<time>2016-04-06T10:32:12Z</time></trkpt>
<trkpt lat="25.161735" lon="101.913707">
<time>2016-04-06T10:32:13Z</time></trkpt>
<trkpt lat="25.161745" lon="101.913597">
<time>2016-04-06T10:32:14Z</time></trkpt>
<trkpt lat="25.161755" lon="101.913497">
<time>2016-04-06T10:32:15Z</time></trkpt>
<trkpt lat="25.161795" lon="101.913367">
<time>2016-04-06T10:32:16Z</time></trkpt>
<trkpt lat="25.161905" lon="101.913037">
<time>2016-04-06T10:32:17Z</time></trkpt>
<trkpt lat="25.161996" lon="101.912737">
<time>2016-04-06T10:32:18Z</time></trkpt>
<trkpt lat="25.162076" lon="101.912437">
<time>2016-04-06T10:32:19Z</time></trkpt>
<trkpt lat="25.162146" lon="101.912207">
<time>2016-04-06T10:32:20Z</time></trkpt>
<trkpt lat="25.162196" lon="101.912037">
<time>2016-04-06T10:32:21Z</time></trkpt>
<trkpt lat="25.162286" lon="101.911757">
<time>2016-04-06T10:32:22Z</time></trkpt>
<trkpt lat="25.162316" lon="101.911647">
<time>2016-04-06T10:32:23Z</time></trkpt>
<trkpt lat="25.162376" lon="101.911477">
<time>2016-04-06T10:32:24Z</time></trkpt>
<trkpt lat="25.162416" lon="101.911377">
<time>2016-04-06T10:32:25Z</time></trkpt>
<trkpt lat="25.162466" lon="101.911257">
<time>2016-04-06T10:32:26Z</time></trkpt>
<trkpt lat="25.162546" lon="101.911107">
<time>2016-04-06T10:32:27Z</time></trkpt>
<trkpt lat="25.162616" lon="101.910977">
<time>2016-04-06T10:32:28Z</time></trkpt>
<trkpt lat="25.162747" lon="101.910727">
<time>2016-04-06T10:32:29Z</time></trkpt>
<trkpt lat="25.162757" lon="101.910717">
<time>2016-04-06T10:32:30Z</time></trkpt>
<trkpt lat="25.162837" lon="101.910557">
<time>2016-04-06T10:32:31Z</time></trkpt>
<trkpt lat="25.162937" lon="101.910357">
<time>2016-04-06T10:32:32Z</time></trkpt>
<trkpt lat="25.163007" lon="101.910217">
<time>2016-04-06T10:32:33Z</time></trkpt>
<trkpt lat="25.163027" lon="101.910147">
<time>2016-04-06T10:32:34Z</time></trkpt>
<trkpt lat="25.163047" lon="101.910097">
<time>2016-04-06T10:32:35Z</time></trkpt>
<trkpt lat="25.163077" lon="101.909947">
<time>2016-04-06T10:32:36Z</time></trkpt>
<trkpt lat="25.163097" lon="101.909817">
<time>2016-04-06T10:32:37Z</time></trkpt>
<trkpt lat="25.163087" lon="101.909648">
<time>2016-04-06T10:32:38Z</time></trkpt>
<trkpt lat="25.163067" lon="101.909528">
<time>2016-04-06T10:32:39Z</time></trkpt>
<trkpt lat="25.163017" lon="101.909388">
<time>2016-04-06T10:32:40Z</time></trkpt>
<trkpt lat="25.162947" lon="101.909248">
<time>2016-04-06T10:32:41Z</time></trkpt>
<trkpt lat="25.162867" lon="101.909148">
<time>2016-04-06T10:32:42Z</time></trkpt>
<trkpt lat="25.162727" lon="101.909018">
<time>2016-04-06T10:32:43Z</time></trkpt>
<trkpt lat="25.162627" lon="101.908948">
<time>2016-04-06T10:32:44Z</time></trkpt>
<trkpt lat="25.162517" lon="101.908888">
<time>2016-04-06T10:32:45Z</time></trkpt>
<trkpt lat="25.162257" lon="101.908808">
<time>2016-04-06T10:32:46Z</time></trkpt>
<trkpt lat="25.162017" lon="101.908738">
<time>2016-04-06T10:32:47Z</time></trkpt>
<trkpt lat="25.161837" lon="101.908678">
<time>2016-04-06T10:32:48Z</time></trkpt>
<trkpt lat="25.161667" lon="101.908588">
<time>2016-04-06T10:32:49Z</time></trkpt>
<trkpt lat="25.161557" lon="101.908518">
<time>2016-04-06T10:32:50Z</time></trkpt>
<trkpt lat="25.161508" lon="101.908478">
<time>2016-04-06T10:32:51Z</time></trkpt>
<trkpt lat="25.161448" lon="101.908428">
<time>2016-04-06T10:32:52Z</time></trkpt>
<trkpt lat="25.161428" lon="101.908388">
<time>2016-04-06T10:32:53Z</time></trkpt>
<trkpt lat="25.161398" lon="101.908338">
<time>2016-04-06T10:32:54Z</time></trkpt>
<trkpt lat="25.161388" lon="101.908288">
<time>2016-04-06T10:32:55Z</time></trkpt>
<trkpt lat="25.161378" lon="101.908238">
<time>2016-04-06T10:32:56Z</time></trkpt>
<trkpt lat="25.161368" lon="101.908198">
<time>2016-04-06T10:32:57Z</time></trkpt>
<trkpt lat="25.161378" lon="101.908148">
<time>2016-04-06T10:32:58Z</time></trkpt>
<trkpt lat="25.161388" lon="101.908108">
<time>2016-04-06T10:32:59Z</time></trkpt>
<trkpt lat="25.161398" lon="101.908048">
<time>2016-04-06T10:33:00Z</time></trkpt>
<trkpt lat="25.161418" lon="101.907998">
<time>2016-04-06T10:33:01Z</time></trkpt>
<trkpt lat="25.161478" lon="101.907888">
<time>2016-04-06T10:33:02Z</time></trkpt>
<trkpt lat="25.161548" lon="101.907758">
<time>2016-04-06T10:33:03Z</time></trkpt>
<trkpt lat="25.161658" lon="101.907588">
<time>2016-04-06T10:33:04Z</time></trkpt>
<trkpt lat="25.161758" lon="101.907438">
<time>2016-04-06T10:33:05Z</time></trkpt>
<trkpt lat="25.161888" lon="101.907218">
<time>2016-04-06T10:33:06Z</time></trkpt>
<trkpt lat="25.161998" lon="101.907038">
<time>2016-04-06T10:33:07Z</time></trkpt>
<trkpt lat="25.162048" lon="101.906938">
<time>2016-04-06T10:33:08Z</time></trkpt>
<trkpt lat="25.162088" lon="101.906858">
<time>2016-04-06T10:33:09Z</time></trkpt>
<trkpt lat="25.162108" lon="101.906778">
<time>2016-04-06T10:33:10Z</time></trkpt>
<trkpt lat="25.162128" lon="101.906718">
<time>2016-04-06T10:33:11Z</time></trkpt>
<trkpt lat="25.162148" lon="101.906618">
<time>2016-04-06T10:33:12Z</time></trkpt>
<trkpt lat="25.162148" lon="101.906548">
<time>2016-04-06T10:33:13Z</time></trkpt>
<trkpt lat="25.162158" lon="101.906338">
<time>2016-04-06T10:33:14Z</time></trkpt>
<trkpt lat="25.162138" lon="101.906158">
<time>2016-04-06T10:33:15Z</time></trkpt>
<trkpt lat="25.162128" lon="101.906068">
<time>2016-04-06T10:33:16Z</time></trkpt>
<trkpt lat="25.162118" lon="101.905968">
<time>2016-04-06T10:33:17Z</time></trkpt>
<trkpt lat="25.162098" lon="101.905848">
<time>2016-04-06T10:33:18Z</time></trkpt>
<trkpt lat="25.162068" lon="101.905708">
<time>2016-04-06T10:33:19Z</time></trkpt>
<trkpt lat="25.162048" lon="101.905628">
<time>2016-04-06T10:33:20Z</time></trkpt>
<trkpt lat="25.162028" lon="101.905558">
<time>2016-04-06T10:33:21Z</time></trkpt>
<trkpt lat="25.162008" lon="101.905498">
<time>2016-04-06T10:33:22Z</time></trkpt>
<trkpt lat="25.161978" lon="101.905418">
<time>2016-04-06T10:33:23Z</time></trkpt>
<trkpt lat="25.161898" lon="101.905258">
<time>2016-04-06T10:33:24Z</time></trkpt>
<trkpt lat="25.161898" lon="101.905258">
<time>2016-04-06T10:33:25Z</time></trkpt>
<trkpt lat="25.161858" lon="101.905178">
<time>2016-04-06T10:33:26Z</time></trkpt>
<trkpt lat="25.161808" lon="101.905018">
<time>2016-04-06T10:33:27Z</time></trkpt>
<trkpt lat="25.161798" lon="101.904938">
<time>2016-04-06T10:33:28Z</time></trkpt>
<trkpt lat="25.161788" lon="101.904858">
<time>2016-04-06T10:33:29Z</time></trkpt>
<trkpt lat="25.161788" lon="101.904798">
<time>2016-04-06T10:33:30Z</time></trkpt>
<trkpt lat="25.161799" lon="101.904678">
<time>2016-04-06T10:33:31Z</time></trkpt>
<trkpt lat="25.161819" lon="101.904588">
<time>2016-04-06T10:33:32Z</time></trkpt>
<trkpt lat="25.161849" lon="101.904498">
<time>2016-04-06T10:33:33Z</time></trkpt>
<trkpt lat="25.162149" lon="101.904098">
<time>2016-04-06T10:33:34Z</time></trkpt>
<trkpt lat="25.162309" lon="101.903847">
<time>2016-04-06T10:33:35Z</time></trkpt>
<trkpt lat="25.162309" lon="101.903847">
<time>2016-04-06T10:33:36Z</time></trkpt>
<trkpt lat="25.161629" lon="101.903447">
<time>2016-04-06T10:33:37Z</time></trkpt>
<trkpt lat="25.161129" lon="101.903087">
<time>2016-04-06T10:33:38Z</time></trkpt>
<trkpt lat="25.160539" lon="101.902617">
<time>2016-04-06T10:33:39Z</time></trkpt>
<trkpt lat="25.160539" lon="101.902617">
<time>2016-04-06T10:33:40Z</time></trkpt>
<trkpt lat="25.161429" lon="101.901367">
<time>2016-04-06T10:33:41Z</time></trkpt>
<trkpt lat="25.161429" lon="101.901367">
<time>2016-04-06T10:33:42Z</time></trkpt>
<trkpt lat="25.161049" lon="101.901007">
<time>2016-04-06T10:33:43Z</time></trkpt>
<trkpt lat="25.161049" lon="101.901007">
<time>2016-04-06T10:33:44Z</time></trkpt>
<trkpt lat="25.161109" lon="101.900987">
<time>2016-04-06T10:33:45Z</time></trkpt>
<trkpt lat="25.161399" lon="101.900837">
<time>2016-04-06T10:33:46Z</time></trkpt>
<trkpt lat="25.161529" lon="101.900767">
<time>2016-04-06T10:33:47Z</time></trkpt>
<trkpt lat="25.161649" lon="101.900687">
<time>2016-04-06T10:33:48Z</time></trkpt>
<trkpt lat="25.161749" lon="101.900597">
<time>2016-04-06T10:33:49Z</time></trkpt>
<trkpt lat="25.161859" lon="101.900507">
<time>2016-04-06T10:33:50Z</time></trkpt>
<trkpt lat="25.162049" lon="101.900307">
<time>2016-04-06T10:33:51Z</time></trkpt>
<trkpt lat="25.162339" lon="101.899997">
<time>2016-04-06T10:33:52Z</time></trkpt>
<trkpt lat="25.162739" lon="101.899516">
<time>2016-04-06T10:33:53Z</time></trkpt>
<trkpt lat="25.162879" lon="101.899356">
<time>2016-04-06T10:33:54Z</time></trkpt>
<trkpt lat="25.163059" lon="101.899146">
<time>2016-04-06T10:33:55Z</time></trkpt>
<trkpt lat="25.163169" lon="101.899036">
<time>2016-04-06T10:33:56Z</time></trkpt>
<trkpt lat="25.163229" lon="101.898966">
<time>2016-04-06T10:33:57Z</time></trkpt>
<trkpt lat="25.163309" lon="101.898896">
<time>2016-04-06T10:33:58Z</time></trkpt>
<trkpt lat="25.163439" lon="101.898776">
<time>2016-04-06T10:33:59Z</time></trkpt>
<trkpt lat="25.163639" lon="101.898646">
<time>2016-04-06T10:34:00Z</time></trkpt>
<trkpt lat="25.163729" lon="101.898596">
<time>2016-04-06T10:34:01Z</time></trkpt>
<trkpt lat="25.163809" lon="101.898526">
<time>2016-04-06T10:34:02Z</time></trkpt>
<trkpt lat="25.163849" lon="101.898486">
<time>2016-04-06T10:34:03Z</time></trkpt>
<trkpt lat="25.163889" lon="101.898426">
<time>2016-04-06T10:34:04Z</time></trkpt>
<trkpt lat="25.163929" lon="101.898356">
<time>2016-04-06T10:34:05Z</time></trkpt>
<trkpt lat="25.163939" lon="101.898306">
<time>2016-04-06T10:34:06Z</time></trkpt>
<trkpt lat="25.163949" lon="101.898256">
<time>2016-04-06T10:34:07Z</time></trkpt>
<trkpt lat="25.163929" lon="101.898176">
<time>2016-04-06T10:34:08Z</time></trkpt>
<trkpt lat="25.163909" lon="101.898106">
<time>2016-04-06T10:34:09Z</time></trkpt>
<trkpt lat="25.163879" lon="101.898026">
<time>2016-04-06T10:34:10Z</time></trkpt>
<trkpt lat="25.163839" lon="101.897946">
<time>2016-04-06T10:34:11Z</time></trkpt>
<trkpt lat="25.163699" lon="101.897756">
<time>2016-04-06T10:34:12Z</time></trkpt>
<trkpt lat="25.163559" lon="101.897586">
<time>2016-04-06T10:34:13Z</time></trkpt>
<trkpt lat="25.163499" lon="101.897506">
<time>2016-04-06T10:34:14Z</time></trkpt>
<trkpt lat="25.163469" lon="101.897445">
<time>2016-04-06T10:34:15Z</time></trkpt>
<trkpt lat="25.163439" lon="101.897355">
<time>2016-04-06T10:34:16Z</time></trkpt>
<trkpt lat="25.163419" lon="101.897285">
<time>2016-04-06T10:34:17Z</time></trkpt>
<trkpt lat="25.163419" lon="101.897205">
<time>2016-04-06T10:34:18Z</time></trkpt>
<trkpt lat="25.163429" lon="101.897135">
<time>2016-04-06T10:34:19Z</time></trkpt>
<trkpt lat="25.163449" lon="101.897065">
<time>2016-04-06T10:34:20Z</time></trkpt>
<trkpt lat="25.163469" lon="101.897005">
<time>2016-04-06T10:34:21Z</time></trkpt>
<trkpt lat="25.163509" lon="101.896935">
<time>2016-04-06T10:34:22Z</time></trkpt>
<trkpt lat="25.163559" lon="101.896875">
<time>2016-04-06T10:34:23Z</time></trkpt>
<trkpt lat="25.163638" lon="101.896815">
<time>2016-04-06T10:34:24Z</time></trkpt>
<trkpt lat="25.163758" lon="101.896725">
<time>2016-04-06T10:34:25Z</time></trkpt>
<trkpt lat="25.163908" lon="101.896635">
<time>2016-04-06T10:34:26Z</time></trkpt>
<trkpt lat="25.164078" lon="101.896545">
<time>2016-04-06T10:34:27Z</time></trkpt>
<trkpt lat="25.164178" lon="101.896495">
<time>2016-04-06T10:34:28Z</time></trkpt>
<trkpt lat="25.164358" lon="101.896415">
<time>2016-04-06T10:34:29Z</time></trkpt>
<trkpt lat="25.164588" lon="101.896315">
<time>2016-04-06T10:34:30Z</time></trkpt>
<trkpt lat="25.164818" lon="101.896215">
<time>2016-04-06T10:34:31Z</time></trkpt>
<trkpt lat="25.164928" lon="101.896165">
<time>2016-04-06T10:34:32Z</time></trkpt>
<trkpt lat="25.165008" lon="101.896125">
<time>2016-04-06T10:34:33Z</time></trkpt>
<trkpt lat="25.165078" lon="101.896085">
<time>2016-04-06T10:34:34Z</time></trkpt>
<trkpt lat="25.165148" lon="101.896035">
<time>2016-04-06T10:34:35Z</time></trkpt>
<trkpt lat="25.165198" lon="101.895975">
<time>2016-04-06T10:34:36Z</time></trkpt>
<trkpt lat="25.165248" lon="101.895905">
<time>2016-04-06T10:34:37Z</time></trkpt>
<trkpt lat="25.165258" lon="101.895865">
<time>2016-04-06T10:34:38Z</time></trkpt>
<trkpt lat="25.165278" lon="101.895805">
<time>2016-04-06T10:34:39Z</time></trkpt>
<trkpt lat="25.165288" lon="101.895755">
<time>2016-04-06T10:34:40Z</time></trkpt>
<trkpt lat="25.165278" lon="101.895685">
<time>2016-04-06T10:34:41Z</time></trkpt>
<trkpt lat="25.165268" lon="101.895625">
<time>2016-04-06T10:34:42Z</time></trkpt>
<trkpt lat="25.165258" lon="101.895584">
<time>2016-04-06T10:34:43Z</time></trkpt>
<trkpt lat="25.165238" lon="101.895514">
<time>2016-04-06T10:34:44Z</time></trkpt>
<trkpt lat="25.165208" lon="101.895464">
<time>2016-04-06T10:34:45Z</time></trkpt>
<trkpt lat="25.165178" lon="101.895424">
<time>2016-04-06T10:34:46Z</time></trkpt>
<trkpt lat="25.165138" lon="101.895374">
<time>2016-04-06T10:34:47Z</time></trkpt>
<trkpt lat="25.165088" lon="101.895324">
<time>2016-04-06T10:34:48Z</time></trkpt>
<trkpt lat="25.165008" lon="101.895264">
<time>2016-04-06T10:34:49Z</time></trkpt>
<trkpt lat="25.164838" lon="101.895164">
<time>2016-04-06T10:34:50Z</time></trkpt>
<trkpt lat="25.164658" lon="101.895084">
<time>2016-04-06T10:34:51Z</time></trkpt>
<trkpt lat="25.164488" lon="101.894994">
<time>2016-04-06T10:34:52Z</time></trkpt>
<trkpt lat="25.164338" lon="101.894924">
<time>2016-04-06T10:34:53Z</time></trkpt>
<trkpt lat="25.164248" lon="101.894874">
<time>2016-04-06T10:34:54Z</time></trkpt>
<trkpt lat="25.164148" lon="101.894804">
<time>2016-04-06T10:34:55Z</time></trkpt>
<trkpt lat="25.164078" lon="101.894744">
<time>2016-04-06T10:34:56Z</time></trkpt>
<trkpt lat="25.164018" lon="101.894684">
<time>2016-04-06T10:34:57Z</time></trkpt>
<trkpt lat="25.163958" lon="101.894604">
<time>2016-04-06T10:34:58Z</time></trkpt>
<trkpt lat="25.163898" lon="101.894524">
<time>2016-04-06T10:34:59Z</time></trkpt>
<trkpt lat="25.163848" lon="101.894424">
<time>2016-04-06T10:35:00Z</time></trkpt>
<trkpt lat="25.163788" lon="101.894304">
<time>2016-04-06T10:35:01Z</time></trkpt>
<trkpt lat="25.163708" lon="101.894104">
<time>2016-04-06T10:35:02Z</time></trkpt>
<trkpt lat="25.163578" lon="101.893773">
<time>2016-04-06T10:35:03Z</time></trkpt>
<trkpt lat="25.163408" lon="101.893433">
<time>2016-04-06T10:35:04Z</time></trkpt>
<trkpt lat="25.163228" lon="101.893023">
<time>2016-04-06T10:35:05Z</time></trkpt>
<trkpt lat="25.163118" lon="101.892773">
<time>2016-04-06T10:35:06Z</time></trkpt>
<trkpt lat="25.163037" lon="101.892663">
<time>2016-04-06T10:35:07Z</time></trkpt>
<trkpt lat="25.162957" lon="101.892583">
<time>2016-04-06T10:35:08Z</time></trkpt>
<trkpt lat="25.162907" lon="101.892533">
<time>2016-04-06T10:35:09Z</time></trkpt>
<trkpt lat="25.162837" lon="101.892483">
<time>2016-04-06T10:35:10Z</time></trkpt>
<trkpt lat="25.162767" lon="101.892453">
<time>2016-04-06T10:35:11Z</time></trkpt>
<trkpt lat="25.162647" lon="101.892433">
<time>2016-04-06T10:35:12Z</time></trkpt>
<trkpt lat="25.162507" lon="101.892413">
<time>2016-04-06T10:35:13Z</time></trkpt>
<trkpt lat="25.162367" lon="101.892403">
<time>2016-04-06T10:35:14Z</time></trkpt>
<trkpt lat="25.162257" lon="101.892403">
<time>2016-04-06T10:35:15Z</time></trkpt>
<trkpt lat="25.162017" lon="101.892413">
<time>2016-04-06T10:35:16Z</time></trkpt>
<trkpt lat="25.161807" lon="101.892413">
<time>2016-04-06T10:35:17Z</time></trkpt>
<trkpt lat="25.161677" lon="101.892403">
<time>2016-04-06T10:35:18Z</time></trkpt>
<trkpt lat="25.161567" lon="101.892393">
<time>2016-04-06T10:35:19Z</time></trkpt>
<trkpt lat="25.161487" lon="101.892363">
<time>2016-04-06T10:35:20Z</time></trkpt>
<trkpt lat="25.161397" lon="101.892323">
<time>2016-04-06T10:35:21Z</time></trkpt>
<trkpt lat="25.161317" lon="101.892283">
<time>2016-04-06T10:35:22Z</time></trkpt>
<trkpt lat="25.161237" lon="101.892233">
<time>2016-04-06T10:35:23Z</time></trkpt>
<trkpt lat="25.161177" lon="101.892172">
<time>2016-04-06T10:35:24Z</time></trkpt>
<trkpt lat="25.161107" lon="101.892102">
<time>2016-04-06T10:35:25Z</time></trkpt>
<trkpt lat="25.161047" lon="101.892022">
<time>2016-04-06T10:35:26Z</time></trkpt>
<trkpt lat="25.160997" lon="101.891952">
<time>2016-04-06T10:35:27Z</time></trkpt>
<trkpt lat="25.160947" lon="101.891872">
<time>2016-04-06T10:35:28Z</time></trkpt>
<trkpt lat="25.160897" lon="101.891782">
<time>2016-04-06T10:35:29Z</time></trkpt>
<trkpt lat="25.160857" lon="101.891692">
<time>2016-04-06T10:35:30Z</time></trkpt>
<trkpt lat="25.160837" lon="101.891612">
<time>2016-04-06T10:35:31Z</time></trkpt>
<trkpt lat="25.160817" lon="101.891522">
<time>2016-04-06T10:35:32Z</time></trkpt>
<trkpt lat="25.160797" lon="101.891362">
<time>2016-04-06T10:35:33Z</time></trkpt>
<trkpt lat="25.160767" lon="101.891162">
<time>2016-04-06T10:35:34Z</time></trkpt>
<trkpt lat="25.160757" lon="101.890992">
<time>2016-04-06T10:35:35Z</time></trkpt>
<trkpt lat="25.160727" lon="101.890852">
<time>2016-04-06T10:35:36Z</time></trkpt>
<trkpt lat="25.160677" lon="101.890741">
<time>2016-04-06T10:35:37Z</time></trkpt>
<trkpt lat="25.160627" lon="101.890641">
<time>2016-04-06T10:35:38Z</time></trkpt>
<trkpt lat="25.160537" lon="101.890541">
<time>2016-04-06T10:35:39Z</time></trkpt>
<trkpt lat="25.160477" lon="101.890481">
<time>2016-04-06T10:35:40Z</time></trkpt>
<trkpt lat="25.160317" lon="101.890371">
<time>2016-04-06T10:35:41Z</time></trkpt>
<trkpt lat="25.160037" lon="101.890201">
<time>2016-04-06T10:35:42Z</time></trkpt>
<trkpt lat="25.159907" lon="101.890101">
<time>2016-04-06T10:35:43Z</time></trkpt>
<trkpt lat="25.159777" lon="101.889991">
<time>2016-04-06T10:35:44Z</time></trkpt>
<trkpt lat="25.159657" lon="101.889851">
<time>2016-04-06T10:35:45Z</time></trkpt>
<trkpt lat="25.159556" lon="101.889711">
<time>2016-04-06T10:35:46Z</time></trkpt>
<trkpt lat="25.159506" lon="101.889591">
<time>2016-04-06T10:35:47Z</time></trkpt>
<trkpt lat="25.159456" lon="101.88946">
<time>2016-04-06T10:35:48Z</time></trkpt>
<trkpt lat="25.159436" lon="101.88935">
<time>2016-04-06T10:35:49Z</time></trkpt>
<trkpt lat="25.159416" lon="101.88917">
<time>2016-04-06T10:35:50Z</time></trkpt>
<trkpt lat="25.159406" lon="101.88891">
<time>2016-04-06T10:35:51Z</time></trkpt>
<trkpt lat="25.159396" lon="101.8887">
<time>2016-04-06T10:35:52Z</time></trkpt>
<trkpt lat="25.159396" lon="101.8885">
<time>2016-04-06T10:35:53Z</time></trkpt>
<trkpt lat="25.159406" lon="101.88837">
<time>2016-04-06T10:35:54Z</time></trkpt>
<trkpt lat="25.159426" lon="101.888249">
<time>2016-04-06T10:35:55Z</time></trkpt>
<trkpt lat="25.159446" lon="101.888089">
<time>2016-04-06T10:35:56Z</time></trkpt>
<trkpt lat="25.159476" lon="101.887909">
<time>2016-04-06T10:35:57Z</time></trkpt>
<trkpt lat="25.159486" lon="101.887779">
<time>2016-04-06T10:35:58Z</time></trkpt>
<trkpt lat="25.159495" lon="101.887659">
<time>2016-04-06T10:35:59Z</time></trkpt>
<trkpt lat="25.159485" lon="101.887549">
<time>2016-04-06T10:36:00Z</time></trkpt>
<trkpt lat="25.159455" lon="101.887459">
<time>2016-04-06T10:36:01Z</time></trkpt>
<trkpt lat="25.159435" lon="101.887379">
<time>2016-04-06T10:36:02Z</time></trkpt>
<trkpt lat="25.159395" lon="101.887299">
<time>2016-04-06T10:36:03Z</time></trkpt>
<trkpt lat="25.159345" lon="101.887208">
<time>2016-04-06T10:36:04Z</time></trkpt>
<trkpt lat="25.159285" lon="101.887138">
<time>2016-04-06T10:36:05Z</time></trkpt>
<trkpt lat="25.159225" lon="101.887068">
<time>2016-04-06T10:36:06Z</time></trkpt>
<trkpt lat="25.159155" lon="101.886988">
<time>2016-04-06T10:36:07Z</time></trkpt>
<trkpt lat="25.159055" lon="101.886898">
<time>2016-04-06T10:36:08Z</time></trkpt>
<trkpt lat="25.158945" lon="101.886788">
<time>2016-04-06T10:36:09Z</time></trkpt>
<trkpt lat="25.158805" lon="101.886658">
<time>2016-04-06T10:36:10Z</time></trkpt>
<trkpt lat="25.158725" lon="101.886568">
<time>2016-04-06T10:36:11Z</time></trkpt>
<trkpt lat="25.158675" lon="101.886498">
<time>2016-04-06T10:36:12Z</time></trkpt>
<trkpt lat="25.158625" lon="101.886408">
<time>2016-04-06T10:36:13Z</time></trkpt>
<trkpt lat="25.158535" lon="101.886218">
<time>2016-04-06T10:36:14Z</time></trkpt>
<trkpt lat="25.158374" lon="101.885827">
<time>2016-04-06T10:36:15Z</time></trkpt>
<trkpt lat="25.158274" lon="101.885537">
<time>2016-04-06T10:36:16Z</time></trkpt>
<trkpt lat="25.158224" lon="101.885347">
<time>2016-04-06T10:36:17Z</time></trkpt>
<trkpt lat="25.158194" lon="101.885207">
<time>2016-04-06T10:36:18Z</time></trkpt>
<trkpt lat="25.158184" lon="101.885117">
<time>2016-04-06T10:36:19Z</time></trkpt>
<trkpt lat="25.158184" lon="101.885016">
<time>2016-04-06T10:36:20Z</time></trkpt>
<trkpt lat="25.158184" lon="101.884936">
<time>2016-04-06T10:36:21Z</time></trkpt>
<trkpt lat="25.158184" lon="101.884636">
<time>2016-04-06T10:36:22Z</time></trkpt>
<trkpt lat="25.158193" lon="101.884286">
<time>2016-04-06T10:36:23Z</time></trkpt>
<trkpt lat="25.158203" lon="101.883975">
<time>2016-04-06T10:36:24Z</time></trkpt>
<trkpt lat="25.158223" lon="101.883755">
<time>2016-04-06T10:36:25Z</time></trkpt>
<trkpt lat="25.158223" lon="101.883605">
<time>2016-04-06T10:36:26Z</time></trkpt>
<trkpt lat="25.158223" lon="101.883495">
<time>2016-04-06T10:36:27Z</time></trkpt>
<trkpt lat="25.158213" lon="101.883405">
<time>2016-04-06T10:36:28Z</time></trkpt>
<trkpt lat="25.158193" lon="101.883315">
<time>2016-04-06T10:36:29Z</time></trkpt>
<trkpt lat="25.158163" lon="101.883255">
<time>2016-04-06T10:36:30Z</time></trkpt>
<trkpt lat="25.158133" lon="101.883194">
<time>2016-04-06T10:36:31Z</time></trkpt>
<trkpt lat="25.158133" lon="101.883184">
<time>2016-04-06T10:36:32Z</time></trkpt>
<trkpt lat="25.158083" lon="101.883114">
<time>2016-04-06T10:36:33Z</time></trkpt>
<trkpt lat="25.158033" lon="101.883054">
<time>2016-04-06T10:36:34Z</time></trkpt>
<trkpt lat="25.157963" lon="101.882984">
<time>2016-04-06T10:36:35Z</time></trkpt>
<trkpt lat="25.157883" lon="101.882934">
<time>2016-04-06T10:36:36Z</time></trkpt>
<trkpt lat="25.157813" lon="101.882904">
<time>2016-04-06T10:36:37Z</time></trkpt>
<trkpt lat="25.157763" lon="101.882884">
<time>2016-04-06T10:36:38Z</time></trkpt>
<trkpt lat="25.157673" lon="101.882884">
<time>2016-04-06T10:36:39Z</time></trkpt>
<trkpt lat="25.157583" lon="101.882894">
<time>2016-04-06T10:36:40Z</time></trkpt>
<trkpt lat="25.157483" lon="101.882914">
<time>2016-04-06T10:36:41Z</time></trkpt>
<trkpt lat="25.157423" lon="101.882934">
<time>2016-04-06T10:36:42Z</time></trkpt>
<trkpt lat="25.157373" lon="101.882964">
<time>2016-04-06T10:36:43Z</time></trkpt>
<trkpt lat="25.157323" lon="101.883014">
<time>2016-04-06T10:36:44Z</time></trkpt>
<trkpt lat="25.157263" lon="101.883054">
<time>2016-04-06T10:36:45Z</time></trkpt>
<trkpt lat="25.157183" lon="101.883144">
<time>2016-04-06T10:36:46Z</time></trkpt>
<trkpt lat="25.156963" lon="101.883415">
<time>2016-04-06T10:36:47Z</time></trkpt>
<trkpt lat="25.156763" lon="101.883635">
<time>2016-04-06T10:36:48Z</time></trkpt>
<trkpt lat="25.156613" lon="101.883815">
<time>2016-04-06T10:36:49Z</time></trkpt>
<trkpt lat="25.156363" lon="101.884106">
<time>2016-04-06T10:36:50Z</time></trkpt>
<trkpt lat="25.156294" lon="101.884176">
<time>2016-04-06T10:36:51Z</time></trkpt>
<trkpt lat="25.156194" lon="101.884276">
<time>2016-04-06T10:36:52Z</time></trkpt>
<trkpt lat="25.156124" lon="101.884346">
<time>2016-04-06T10:36:53Z</time></trkpt>
<trkpt lat="25.156064" lon="101.884396">
<time>2016-04-06T10:36:54Z</time></trkpt>
<trkpt lat="25.155994" lon="101.884436">
<time>2016-04-06T10:36:55Z</time></trkpt>
<trkpt lat="25.155924" lon="101.884456">
<time>2016-04-06T10:36:56Z</time></trkpt>
<trkpt lat="25.155854" lon="101.884456">
<time>2016-04-06T10:36:57Z</time></trkpt>
<trkpt lat="25.155804" lon="101.884466">
<time>2016-04-06T10:36:58Z</time></trkpt>
<trkpt lat="25.155734" lon="101.884446">
<time>2016-04-06T10:36:59Z</time></trkpt>
<trkpt lat="25.155614" lon="101.884416">
<time>2016-04-06T10:37:00Z</time></trkpt>
<trkpt lat="25.155344" lon="101.884316">
<time>2016-04-06T10:37:01Z</time></trkpt>
<trkpt lat="25.155074" lon="101.884206">
<time>2016-04-06T10:37:02Z</time></trkpt>
<trkpt lat="25.154824" lon="101.884106">
<time>2016-04-06T10:37:03Z</time></trkpt>
<trkpt lat="25.154603" lon="101.884005">
<time>2016-04-06T10:37:04Z</time></trkpt>
<trkpt lat="25.154393" lon="101.883915">
<time>2016-04-06T10:37:05Z</time></trkpt>
<trkpt lat="25.154263" lon="101.883845">
<time>2016-04-06T10:37:06Z</time></trkpt>
<trkpt lat="25.154143" lon="101.883765">
<time>2016-04-06T10:37:07Z</time></trkpt>
<trkpt lat="25.154043" lon="101.883675">
<time>2016-04-06T10:37:08Z</time></trkpt>
<trkpt lat="25.153973" lon="101.883605">
<time>2016-04-06T10:37:09Z</time></trkpt>
<trkpt lat="25.153903" lon="101.883515">
<time>2016-04-06T10:37:10Z</time></trkpt>
<trkpt lat="25.153853" lon="101.883425">
<time>2016-04-06T10:37:11Z</time></trkpt>
<trkpt lat="25.153803" lon="101.883325">
<time>2016-04-06T10:37:12Z</time></trkpt>
<trkpt lat="25.153763" lon="101.883215">
<time>2016-04-06T10:37:13Z</time></trkpt>
<trkpt lat="25.153733" lon="101.883054">
<time>2016-04-06T10:37:14Z</time></trkpt>
<trkpt lat="25.153673" lon="101.882734">
<time>2016-04-06T10:37:15Z</time></trkpt>
<trkpt lat="25.153622" lon="101.882474">
<time>2016-04-06T10:37:16Z</time></trkpt>
<trkpt lat="25.153592" lon="101.882354">
<time>2016-04-06T10:37:17Z</time></trkpt>
<trkpt lat="25.153562" lon="101.882254">
<time>2016-04-06T10:37:18Z</time></trkpt>
<trkpt lat="25.153522" lon="101.882153">
<time>2016-04-06T10:37:19Z</time></trkpt>
<trkpt lat="25.153482" lon="101.882083">
<time>2016-04-06T10:37:20Z</time></trkpt>
<trkpt lat="25.153462" lon="101.882023">
<time>2016-04-06T10:37:21Z</time></trkpt>
<trkpt lat="25.153412" lon="101.881973">
<time>2016-04-06T10:37:22Z</time></trkpt>
<trkpt lat="25.153332" lon="101.881883">
<time>2016-04-06T10:37:23Z</time></trkpt>
<trkpt lat="25.153232" lon="101.881773">
<time>2016-04-06T10:37:24Z</time></trkpt>
<trkpt lat="25.153102" lon="101.881663">
<time>2016-04-06T10:37:25Z</time></trkpt>
<trkpt lat="25.152972" lon="101.881543">
<time>2016-04-06T10:37:26Z</time></trkpt>
<trkpt lat="25.152882" lon="101.881473">
<time>2016-04-06T10:37:27Z</time></trkpt>
<trkpt lat="25.152832" lon="101.881443">
<time>2016-04-06T10:37:28Z</time></trkpt>
<trkpt lat="25.152802" lon="101.881423">
<time>2016-04-06T10:37:29Z</time></trkpt>
<trkpt lat="25.152782" lon="101.881423">
<time>2016-04-06T10:37:30Z</time></trkpt>
<trkpt lat="25.152752" lon="101.881413">
<time>2016-04-06T10:37:31Z</time></trkpt>
<trkpt lat="25.152702" lon="101.881413">
<time>2016-04-06T10:37:32Z</time></trkpt>
<trkpt lat="25.152662" lon="101.881423">
<time>2016-04-06T10:37:33Z</time></trkpt>
<trkpt lat="25.152622" lon="101.881433">
<time>2016-04-06T10:37:34Z</time></trkpt>
<trkpt lat="25.152572" lon="101.881453">
<time>2016-04-06T10:37:35Z</time></trkpt>
<trkpt lat="25.152542" lon="101.881473">
<time>2016-04-06T10:37:36Z</time></trkpt>
<trkpt lat="25.152502" lon="101.881513">
<time>2016-04-06T10:37:37Z</time></trkpt>
<trkpt lat="25.152462" lon="101.881553">
<time>2016-04-06T10:37:38Z</time></trkpt>
<trkpt lat="25.152352" lon="101.881663">
<time>2016-04-06T10:37:39Z</time></trkpt>
<trkpt lat="25.152172" lon="101.881863">
<time>2016-04-06T10:37:40Z</time></trkpt>
<trkpt lat="25.152012" lon="101.882033">
<time>2016-04-06T10:37:41Z</time></trkpt>
<trkpt lat="25.151822" lon="101.882234">
<time>2016-04-06T10:37:42Z</time></trkpt>
<trkpt lat="25.151663" lon="101.882414">
<time>2016-04-06T10:37:43Z</time></trkpt>
<trkpt lat="25.151523" lon="101.882564">
<time>2016-04-06T10:37:44Z</time></trkpt>
<trkpt lat="25.151433" lon="101.882644">
<time>2016-04-06T10:37:45Z</time></trkpt>
<trkpt lat="25.151293" lon="101.882744">
<time>2016-04-06T10:37:46Z</time></trkpt>
<trkpt lat="25.151123" lon="101.882844">
<time>2016-04-06T10:37:47Z</time></trkpt>
<trkpt lat="25.150973" lon="101.882934">
<time>2016-04-06T10:37:48Z</time></trkpt>
<trkpt lat="25.150843" lon="101.883004">
<time>2016-04-06T10:37:49Z</time></trkpt>
<trkpt lat="25.150693" lon="101.883075">
<time>2016-04-06T10:37:50Z</time></trkpt>
<trkpt lat="25.150513" lon="101.883135">
<time>2016-04-06T10:37:51Z</time></trkpt>
<trkpt lat="25.150333" lon="101.883185">
<time>2016-04-06T10:37:52Z</time></trkpt>
<trkpt lat="25.150223" lon="101.883215">
<time>2016-04-06T10:37:53Z</time></trkpt>
<trkpt lat="25.150143" lon="101.883215">
<time>2016-04-06T10:37:54Z</time></trkpt>
<trkpt lat="25.150053" lon="101.883195">
<time>2016-04-06T10:37:55Z</time></trkpt>
<trkpt lat="25.149993" lon="101.883175">
<time>2016-04-06T10:37:56Z</time></trkpt>
<trkpt lat="25.149953" lon="101.883155">
<time>2016-04-06T10:37:57Z</time></trkpt>
<trkpt lat="25.149903" lon="101.883115">
<time>2016-04-06T10:37:58Z</time></trkpt>
<trkpt lat="25.149843" lon="101.883055">
<time>2016-04-06T10:37:59Z</time></trkpt>
<trkpt lat="25.149783" lon="101.882994">
<time>2016-04-06T10:38:00Z</time></trkpt>
<trkpt lat="25.149713" lon="101.882894">
<time>2016-04-06T10:38:01Z</time></trkpt>
<trkpt lat="25.149503" lon="101.882604">
<time>2016-04-06T10:38:02Z</time></trkpt>
<trkpt lat="25.149343" lon="101.882404">
<time>2016-04-06T10:38:03Z</time></trkpt>
<trkpt lat="25.149142" lon="101.882134">
<time>2016-04-06T10:38:04Z</time></trkpt>
<trkpt lat="25.149042" lon="101.881983">
<time>2016-04-06T10:38:05Z</time></trkpt>
<trkpt lat="25.148942" lon="101.881793">
<time>2016-04-06T10:38:06Z</time></trkpt>
<trkpt lat="25.148862" lon="101.881643">
<time>2016-04-06T10:38:07Z</time></trkpt>
<trkpt lat="25.148742" lon="101.881393">
<time>2016-04-06T10:38:08Z</time></trkpt>
<trkpt lat="25.148672" lon="101.881263">
<time>2016-04-06T10:38:09Z</time></trkpt>
<trkpt lat="25.148612" lon="101.881152">
<time>2016-04-06T10:38:10Z</time></trkpt>
<trkpt lat="25.148502" lon="101.880992">
<time>2016-04-06T10:38:11Z</time></trkpt>
<trkpt lat="25.148371" lon="101.880822">
<time>2016-04-06T10:38:12Z</time></trkpt>
<trkpt lat="25.148311" lon="101.880742">
<time>2016-04-06T10:38:13Z</time></trkpt>
<trkpt lat="25.148241" lon="101.880672">
<time>2016-04-06T10:38:14Z</time></trkpt>
<trkpt lat="25.148201" lon="101.880632">
<time>2016-04-06T10:38:15Z</time></trkpt>
<trkpt lat="25.148111" lon="101.880552">
<time>2016-04-06T10:38:16Z</time></trkpt>
<trkpt lat="25.148031" lon="101.880502">
<time>2016-04-06T10:38:17Z</time></trkpt>
<trkpt lat="25.147981" lon="101.880472">
<time>2016-04-06T10:38:18Z</time></trkpt>
<trkpt lat="25.147921" lon="101.880452">
<time>2016-04-06T10:38:19Z</time></trkpt>
<trkpt lat="25.147851" lon="101.880432">
<time>2016-04-06T10:38:20Z</time></trkpt>
<trkpt lat="25.147761" lon="101.880412">
<time>2016-04-06T10:38:21Z</time></trkpt>
<trkpt lat="25.147591" lon="101.880382">
<time>2016-04-06T10:38:22Z</time></trkpt>
<trkpt lat="25.147451" lon="101.880352">
<time>2016-04-06T10:38:23Z</time></trkpt>
<trkpt lat="25.147371" lon="101.880331">
<time>2016-04-06T10:38:24Z</time></trkpt>
<trkpt lat="25.147281" lon="101.880291">
<time>2016-04-06T10:38:25Z</time></trkpt>
<trkpt lat="25.147211" lon="101.880261">
<time>2016-04-06T10:38:26Z</time></trkpt>
<trkpt lat="25.147171" lon="101.880231">
<time>2016-04-06T10:38:27Z</time></trkpt>
<trkpt lat="25.147131" lon="101.880211">
<time>2016-04-06T10:38:28Z</time></trkpt>
<trkpt lat="25.147091" lon="101.880161">
<time>2016-04-06T10:38:29Z</time></trkpt>
<trkpt lat="25.147001" lon="101.880071">
<time>2016-04-06T10:38:30Z</time></trkpt>
<trkpt lat="25.146901" lon="101.879971">
<time>2016-04-06T10:38:31Z</time></trkpt>
<trkpt lat="25.146851" lon="101.879911">
<time>2016-04-06T10:38:32Z</time></trkpt>
<trkpt lat="25.146761" lon="101.879861">
<time>2016-04-06T10:38:33Z</time></trkpt>
<trkpt lat="25.146691" lon="101.879811">
<time>2016-04-06T10:38:34Z</time></trkpt>
<trkpt lat="25.146591" lon="101.879771">
<time>2016-04-06T10:38:35Z</time></trkpt>
<trkpt lat="25.146481" lon="101.879731">
<time>2016-04-06T10:38:36Z</time></trkpt>
<trkpt lat="25.146361" lon="101.879701">
<time>2016-04-06T10:38:37Z</time></trkpt>
<trkpt lat="25.146251" lon="101.879681">
<time>2016-04-06T10:38:38Z</time></trkpt>
<trkpt lat="25.146171" lon="101.879681">
<time>2016-04-06T10:38:39Z</time></trkpt>
<trkpt lat="25.146001" lon="101.879661">
<time>2016-04-06T10:38:40Z</time></trkpt>
<trkpt lat="25.145831" lon="101.879661">
<time>2016-04-06T10:38:41Z</time></trkpt>
<trkpt lat="25.145721" lon="101.879651">
<time>2016-04-06T10:38:42Z</time></trkpt>
<trkpt lat="25.145591" lon="101.879651">
<time>2016-04-06T10:38:43Z</time></trkpt>
<trkpt lat="25.145491" lon="101.879641">
<time>2016-04-06T10:38:44Z</time></trkpt>
<trkpt lat="25.145421" lon="101.879631">
<time>2016-04-06T10:38:45Z</time></trkpt>
<trkpt lat="25.145341" lon="101.879601">
<time>2016-04-06T10:38:46Z</time></trkpt>
<trkpt lat="25.145271" lon="101.879581">
<time>2016-04-06T10:38:47Z</time></trkpt>
<trkpt lat="25.145191" lon="101.879541">
<time>2016-04-06T10:38:48Z</time></trkpt>
<trkpt lat="25.145081" lon="101.879491">
<time>2016-04-06T10:38:49Z</time></trkpt>
<trkpt lat="25.144981" lon="101.87943">
<time>2016-04-06T10:38:50Z</time></trkpt>
<trkpt lat="25.144931" lon="101.8794">
<time>2016-04-06T10:38:51Z</time></trkpt>
<trkpt lat="25.14483" lon="101.87933">
<time>2016-04-06T10:38:52Z</time></trkpt>
<trkpt lat="25.14473" lon="101.87924">
<time>2016-04-06T10:38:53Z</time></trkpt>
<trkpt lat="25.14467" lon="101.87917">
<time>2016-04-06T10:38:54Z</time></trkpt>
<trkpt lat="25.14461" lon="101.87911">
<time>2016-04-06T10:38:55Z</time></trkpt>
<trkpt lat="25.14455" lon="101.87902">
<time>2016-04-06T10:38:56Z</time></trkpt>
<trkpt lat="25.1445" lon="101.87894">
<time>2016-04-06T10:38:57Z</time></trkpt>
<trkpt lat="25.14444" lon="101.87881">
<time>2016-04-06T10:38:58Z</time></trkpt>
<trkpt lat="25.14441" lon="101.87872">
<time>2016-04-06T10:38:59Z</time></trkpt>
<trkpt lat="25.14439" lon="101.878649">
<time>2016-04-06T10:39:00Z</time></trkpt>
<trkpt lat="25.14438" lon="101.878589">
<time>2016-04-06T10:39:01Z</time></trkpt>
<trkpt lat="25.14437" lon="101.878509">
<time>2016-04-06T10:39:02Z</time></trkpt>
<trkpt lat="25.14437" lon="101.878439">
<time>2016-04-06T10:39:03Z</time></trkpt>
<trkpt lat="25.14437" lon="101.878379">
<time>2016-04-06T10:39:04Z</time></trkpt>
<trkpt lat="25.14438" lon="101.878299">
<time>2016-04-06T10:39:05Z</time></trkpt>
<trkpt lat="25.144399" lon="101.878209">
<time>2016-04-06T10:39:06Z</time></trkpt>
<trkpt lat="25.144409" lon="101.878139">
<time>2016-04-06T10:39:07Z</time></trkpt>
<trkpt lat="25.144419" lon="101.878069">
<time>2016-04-06T10:39:08Z</time></trkpt>
<trkpt lat="25.144419" lon="101.878009">
<time>2016-04-06T10:39:09Z</time></trkpt>
<trkpt lat="25.144409" lon="101.877969">
<time>2016-04-06T10:39:10Z</time></trkpt>
<trkpt lat="25.144409" lon="101.877919">
<time>2016-04-06T10:39:11Z</time></trkpt>
<trkpt lat="25.144399" lon="101.877868">
<time>2016-04-06T10:39:12Z</time></trkpt>
<trkpt lat="25.144379" lon="101.877798">
<time>2016-04-06T10:39:13Z</time></trkpt>
<trkpt lat="25.144349" lon="101.877718">
<time>2016-04-06T10:39:14Z</time></trkpt>
<trkpt lat="25.144319" lon="101.877638">
<time>2016-04-06T10:39:15Z</time></trkpt>
<trkpt lat="25.144289" lon="101.877568">
<time>2016-04-06T10:39:16Z</time></trkpt>
<trkpt lat="25.144249" lon="101.877478">
<time>2016-04-06T10:39:17Z</time></trkpt>
<trkpt lat="25.144179" lon="101.877378">
<time>2016-04-06T10:39:18Z</time></trkpt>
<trkpt lat="25.144109" lon="101.877288">
<time>2016-04-06T10:39:19Z</time></trkpt>
<trkpt lat="25.144049" lon="101.877208">
<time>2016-04-06T10:39:20Z</time></trkpt>
<trkpt lat="25.143979" lon="101.877138">
<time>2016-04-06T10:39:21Z</time></trkpt>
<trkpt lat="25.143888" lon="101.877047">
<time>2016-04-06T10:39:22Z</time></trkpt>
<trkpt lat="25.143688" lon="101.876837">
<time>2016-04-06T10:39:23Z</time></trkpt>
<trkpt lat="25.143468" lon="101.876607">
<time>2016-04-06T10:39:24Z</time></trkpt>
<trkpt lat="25.143398" lon="101.876517">
<time>2016-04-06T10:39:25Z</time></trkpt>
<trkpt lat="25.143368" lon="101.876457">
<time>2016-04-06T10:39:26Z</time></trkpt>
<trkpt lat="25.143328" lon="101.876387">
<time>2016-04-06T10:39:27Z</time></trkpt>
<trkpt lat="25.143308" lon="101.876326">
<time>2016-04-06T10:39:28Z</time></trkpt>
<trkpt lat="25.143288" lon="101.876276">
<time>2016-04-06T10:39:29Z</time></trkpt>
<trkpt lat="25.143268" lon="101.876206">
<time>2016-04-06T10:39:30Z</time></trkpt>
<trkpt lat="25.143268" lon="101.876136">
<time>2016-04-06T10:39:31Z</time></trkpt>
<trkpt lat="25.143268" lon="101.876046">
<time>2016-04-06T10:39:32Z</time></trkpt>
<trkpt lat="25.143267" lon="101.875996">
<time>2016-04-06T10:39:33Z</time></trkpt>
<trkpt lat="25.143297" lon="101.875896">
<time>2016-04-06T10:39:34Z</time></trkpt>
<trkpt lat="25.143317" lon="101.875816">
<time>2016-04-06T10:39:35Z</time></trkpt>
<trkpt lat="25.143367" lon="101.875686">
<time>2016-04-06T10:39:36Z</time></trkpt>
<trkpt lat="25.143437" lon="101.875515">
<time>2016-04-06T10:39:37Z</time></trkpt>
<trkpt lat="25.143537" lon="101.875275">
<time>2016-04-06T10:39:38Z</time></trkpt>
<trkpt lat="25.143656" lon="101.875015">
<time>2016-04-06T10:39:39Z</time></trkpt>
<trkpt lat="25.143856" lon="101.874534">
<time>2016-04-06T10:39:40Z</time></trkpt>
<trkpt lat="25.143916" lon="101.874394">
<time>2016-04-06T10:39:41Z</time></trkpt>
<trkpt lat="25.143976" lon="101.874233">
<time>2016-04-06T10:39:42Z</time></trkpt>
<trkpt lat="25.143996" lon="101.874153">
<time>2016-04-06T10:39:43Z</time></trkpt>
<trkpt lat="25.144035" lon="101.874033">
<time>2016-04-06T10:39:44Z</time></trkpt>
<trkpt lat="25.144055" lon="101.873913">
<time>2016-04-06T10:39:45Z</time></trkpt>
<trkpt lat="25.144065" lon="101.873813">
<time>2016-04-06T10:39:46Z</time></trkpt>
<trkpt lat="25.144065" lon="101.873683">
<time>2016-04-06T10:39:47Z</time></trkpt>
<trkpt lat="25.144055" lon="101.873542">
<time>2016-04-06T10:39:48Z</time></trkpt>
<trkpt lat="25.144035" lon="101.873362">
<time>2016-04-06T10:39:49Z</time></trkpt>
<trkpt lat="25.144015" lon="101.873172">
<time>2016-04-06T10:39:50Z</time></trkpt>
<trkpt lat="25.143994" lon="101.872932">
<time>2016-04-06T10:39:51Z</time></trkpt>
<trkpt lat="25.143954" lon="101.872671">
<time>2016-04-06T10:39:52Z</time></trkpt>
<trkpt lat="25.143934" lon="101.872561">
<time>2016-04-06T10:39:53Z</time></trkpt>
<trkpt lat="25.143904" lon="101.872441">
<time>2016-04-06T10:39:54Z</time></trkpt>
<trkpt lat="25.143864" lon="101.872341">
<time>2016-04-06T10:39:55Z</time></trkpt>
<trkpt lat="25.143804" lon="101.872231">
<time>2016-04-06T10:39:56Z</time></trkpt>
<trkpt lat="25.143753" lon="101.87217">
<time>2016-04-06T10:39:57Z</time></trkpt>
<trkpt lat="25.143603" lon="101.87202">
<time>2016-04-06T10:39:58Z</time></trkpt>
<trkpt lat="25.143503" lon="101.87193">
<time>2016-04-06T10:39:59Z</time></trkpt>
<trkpt lat="25.143383" lon="101.87183">
<time>2016-04-06T10:40:00Z</time></trkpt>
<trkpt lat="25.143283" lon="101.87174">
<time>2016-04-06T10:40:01Z</time></trkpt>
<trkpt lat="25.143213" lon="101.87169">
<time>2016-04-06T10:40:02Z</time></trkpt>
<trkpt lat="25.143113" lon="101.87162">
<time>2016-04-06T10:40:03Z</time></trkpt>
<trkpt lat="25.143063" lon="101.8716">
<time>2016-04-06T10:40:04Z</time></trkpt>
<trkpt lat="25.143023" lon="101.87158">
<time>2016-04-06T10:40:05Z</time></trkpt>
<trkpt lat="25.142983" lon="101.87157">
<time>2016-04-06T10:40:06Z</time></trkpt>
<trkpt lat="25.142943" lon="101.87157">
<time>2016-04-06T10:40:07Z</time></trkpt>
<trkpt lat="25.142903" lon="101.87157">
<time>2016-04-06T10:40:08Z</time></trkpt>
<trkpt lat="25.142853" lon="101.87158">
<time>2016-04-06T10:40:09Z</time></trkpt>
<trkpt lat="25.142793" lon="101.8716">
<time>2016-04-06T10:40:10Z</time></trkpt>
<trkpt lat="25.142753" lon="101.87162">
<time>2016-04-06T10:40:11Z</time></trkpt>
<trkpt lat="25.142713" lon="101.87164">
<time>2016-04-06T10:40:12Z</time></trkpt>
<trkpt lat="25.142673" lon="101.87168">
<time>2016-04-06T10:40:13Z</time></trkpt>
<trkpt lat="25.142623" lon="101.87174">
<time>2016-04-06T10:40:14Z</time></trkpt>
<trkpt lat="25.142493" lon="101.87189">
<time>2016-04-06T10:40:15Z</time></trkpt>
<trkpt lat="25.142383" lon="101.87203">
<time>2016-04-06T10:40:16Z</time></trkpt>
<trkpt lat="25.142264" lon="101.87218">
<time>2016-04-06T10:40:17Z</time></trkpt>
<trkpt lat="25.142054" lon="101.872381">
<time>2016-04-06T10:40:18Z</time></trkpt>
<trkpt lat="25.142004" lon="101.872441">
<time>2016-04-06T10:40:19Z</time></trkpt>
<trkpt lat="25.141954" lon="101.872471">
<time>2016-04-06T10:40:20Z</time></trkpt>
<trkpt lat="25.141904" lon="101.872501">
<time>2016-04-06T10:40:21Z</time></trkpt>
<trkpt lat="25.141834" lon="101.872521">
<time>2016-04-06T10:40:22Z</time></trkpt>
<trkpt lat="25.141784" lon="101.872531">
<time>2016-04-06T10:40:23Z</time></trkpt>
<trkpt lat="25.141744" lon="101.872531">
<time>2016-04-06T10:40:24Z</time></trkpt>
<trkpt lat="25.141684" lon="101.872521">
<time>2016-04-06T10:40:25Z</time></trkpt>
<trkpt lat="25.141644" lon="101.872511">
<time>2016-04-06T10:40:26Z</time></trkpt>
<trkpt lat="25.141584" lon="101.872491">
<time>2016-04-06T10:40:27Z</time></trkpt>
<trkpt lat="25.141504" lon="101.872451">
<time>2016-04-06T10:40:28Z</time></trkpt>
<trkpt lat="25.141454" lon="101.872411">
<time>2016-04-06T10:40:29Z</time></trkpt>
<trkpt lat="25.141384" lon="101.872341">
<time>2016-04-06T10:40:30Z</time></trkpt>
<trkpt lat="25.141304" lon="101.872241">
<time>2016-04-06T10:40:31Z</time></trkpt>
<trkpt lat="25.141173" lon="101.87206">
<time>2016-04-06T10:40:32Z</time></trkpt>
<trkpt lat="25.141053" lon="101.87187">
<time>2016-04-06T10:40:33Z</time></trkpt>
<trkpt lat="25.140863" lon="101.87161">
<time>2016-04-06T10:40:34Z</time></trkpt>
<trkpt lat="25.140633" lon="101.871289">
<time>2016-04-06T10:40:35Z</time></trkpt>
<trkpt lat="25.140422" lon="101.870969">
<time>2016-04-06T10:40:36Z</time></trkpt>
<trkpt lat="25.140152" lon="101.870548">
<time>2016-04-06T10:40:37Z</time></trkpt>
<trkpt lat="25.140012" lon="101.870338">
<time>2016-04-06T10:40:38Z</time></trkpt>
<trkpt lat="25.139942" lon="101.870258">
<time>2016-04-06T10:40:39Z</time></trkpt>
<trkpt lat="25.139871" lon="101.870167">
<time>2016-04-06T10:40:40Z</time></trkpt>
<trkpt lat="25.139761" lon="101.870067">
<time>2016-04-06T10:40:41Z</time></trkpt>
<trkpt lat="25.139681" lon="101.869997">
<time>2016-04-06T10:40:42Z</time></trkpt>
<trkpt lat="25.139591" lon="101.869937">
<time>2016-04-06T10:40:43Z</time></trkpt>
<trkpt lat="25.139501" lon="101.869887">
<time>2016-04-06T10:40:44Z</time></trkpt>
<trkpt lat="25.139401" lon="101.869827">
<time>2016-04-06T10:40:45Z</time></trkpt>
<trkpt lat="25.139251" lon="101.869747">
<time>2016-04-06T10:40:46Z</time></trkpt>
<trkpt lat="25.139081" lon="101.869667">
<time>2016-04-06T10:40:47Z</time></trkpt>
<trkpt lat="25.138851" lon="101.869556">
<time>2016-04-06T10:40:48Z</time></trkpt>
<trkpt lat="25.138631" lon="101.869446">
<time>2016-04-06T10:40:49Z</time></trkpt>
<trkpt lat="25.138451" lon="101.869356">
<time>2016-04-06T10:40:50Z</time></trkpt>
<trkpt lat="25.13816" lon="101.869186">
<time>2016-04-06T10:40:51Z</time></trkpt>
<trkpt lat="25.13792" lon="101.869056">
<time>2016-04-06T10:40:52Z</time></trkpt>
<trkpt lat="25.13767" lon="101.868936">
<time>2016-04-06T10:40:53Z</time></trkpt>
<trkpt lat="25.13737" lon="101.868765">
<time>2016-04-06T10:40:54Z</time></trkpt>
<trkpt lat="25.13717" lon="101.868645">
<time>2016-04-06T10:40:55Z</time></trkpt>
<trkpt lat="25.13704" lon="101.868565">
<time>2016-04-06T10:40:56Z</time></trkpt>
<trkpt lat="25.13689" lon="101.868465">
<time>2016-04-06T10:40:57Z</time></trkpt>
<trkpt lat="25.136759" lon="101.868375">
<time>2016-04-06T10:40:58Z</time></trkpt>
<trkpt lat="25.136639" lon="101.868274">
<time>2016-04-06T10:40:59Z</time></trkpt>
<trkpt lat="25.136559" lon="101.868194">
<time>2016-04-06T10:41:00Z</time></trkpt>
<trkpt lat="25.136519" lon="101.868144">
<time>2016-04-06T10:41:01Z</time></trkpt>
<trkpt lat="25.136479" lon="101.868084">
<time>2016-04-06T10:41:02Z</time></trkpt>
<trkpt lat="25.136449" lon="101.868014">
<time>2016-04-06T10:41:03Z</time></trkpt>
<trkpt lat="25.136419" lon="101.867924">
<time>2016-04-06T10:41:04Z</time></trkpt>
<trkpt lat="25.136399" lon="101.867864">
<time>2016-04-06T10:41:05Z</time></trkpt>
<trkpt lat="25.136389" lon="101.867724">
<time>2016-04-06T10:41:06Z</time></trkpt>
<trkpt lat="25.136379" lon="101.867603">
<time>2016-04-06T10:41:07Z</time></trkpt>
<trkpt lat="25.136388" lon="101.867443">
<time>2016-04-06T10:41:08Z</time></trkpt>
<trkpt lat="25.136408" lon="101.867293">
<time>2016-04-06T10:41:09Z</time></trkpt>
<trkpt lat="25.136418" lon="101.867203">
<time>2016-04-06T10:41:10Z</time></trkpt>
<trkpt lat="25.136428" lon="101.867143">
<time>2016-04-06T10:41:11Z</time></trkpt>
<trkpt lat="25.136448" lon="101.867062">
<time>2016-04-06T10:41:12Z</time></trkpt>
<trkpt lat="25.136478" lon="101.867012">
<time>2016-04-06T10:41:13Z</time></trkpt>
<trkpt lat="25.136518" lon="101.866942">
<time>2016-04-06T10:41:14Z</time></trkpt>
<trkpt lat="25.136578" lon="101.866872">
<time>2016-04-06T10:41:15Z</time></trkpt>
<trkpt lat="25.136638" lon="101.866822">
<time>2016-04-06T10:41:16Z</time></trkpt>
<trkpt lat="25.136757" lon="101.866732">
<time>2016-04-06T10:41:17Z</time></trkpt>
<trkpt lat="25.136927" lon="101.866622">
<time>2016-04-06T10:41:18Z</time></trkpt>
<trkpt lat="25.137167" lon="101.866471">
<time>2016-04-06T10:41:19Z</time></trkpt>
<trkpt lat="25.137367" lon="101.866331">
<time>2016-04-06T10:41:20Z</time></trkpt>
<trkpt lat="25.137607" lon="101.866171">
<time>2016-04-06T10:41:21Z</time></trkpt>
<trkpt lat="25.137866" lon="101.865981">
<time>2016-04-06T10:41:22Z</time></trkpt>
<trkpt lat="25.138246" lon="101.86572">
<time>2016-04-06T10:41:23Z</time></trkpt>
<trkpt lat="25.138516" lon="101.86554">
<time>2016-04-06T10:41:24Z</time></trkpt>
<trkpt lat="25.138606" lon="101.86546">
<time>2016-04-06T10:41:25Z</time></trkpt>
<trkpt lat="25.138666" lon="101.8654">
<time>2016-04-06T10:41:26Z</time></trkpt>
<trkpt lat="25.138725" lon="101.865339">
<time>2016-04-06T10:41:27Z</time></trkpt>
<trkpt lat="25.138765" lon="101.865269">
<time>2016-04-06T10:41:28Z</time></trkpt>
<trkpt lat="25.138805" lon="101.865199">
<time>2016-04-06T10:41:29Z</time></trkpt>
<trkpt lat="25.138835" lon="101.865129">
<time>2016-04-06T10:41:30Z</time></trkpt>
<trkpt lat="25.138855" lon="101.865029">
<time>2016-04-06T10:41:31Z</time></trkpt>
<trkpt lat="25.138875" lon="101.864939">
<time>2016-04-06T10:41:32Z</time></trkpt>
<trkpt lat="25.138875" lon="101.864818">
<time>2016-04-06T10:41:33Z</time></trkpt>
<trkpt lat="25.138875" lon="101.864718">
<time>2016-04-06T10:41:34Z</time></trkpt>
<trkpt lat="25.138854" lon="101.864538">
<time>2016-04-06T10:41:35Z</time></trkpt>
<trkpt lat="25.138844" lon="101.864448">
<time>2016-04-06T10:41:36Z</time></trkpt>
<trkpt lat="25.138824" lon="101.864328">
<time>2016-04-06T10:41:37Z</time></trkpt>
<trkpt lat="25.138794" lon="101.864227">
<time>2016-04-06T10:41:38Z</time></trkpt>
<trkpt lat="25.138734" lon="101.863997">
<time>2016-04-06T10:41:39Z</time></trkpt>
<trkpt lat="25.138693" lon="101.863857">
<time>2016-04-06T10:41:40Z</time></trkpt>
<trkpt lat="25.138603" lon="101.863586">
<time>2016-04-06T10:41:41Z</time></trkpt>
<trkpt lat="25.138533" lon="101.863376">
<time>2016-04-06T10:41:42Z</time></trkpt>
<trkpt lat="25.138513" lon="101.863276">
<time>2016-04-06T10:41:43Z</time></trkpt>
<trkpt lat="25.138493" lon="101.863196">
<time>2016-04-06T10:41:44Z</time></trkpt>
<trkpt lat="25.138483" lon="101.863136">
<time>2016-04-06T10:41:45Z</time></trkpt>
<trkpt lat="25.138472" lon="101.863055">
<time>2016-04-06T10:41:46Z</time></trkpt>
<trkpt lat="25.138482" lon="101.862975">
<time>2016-04-06T10:41:47Z</time></trkpt>
<trkpt lat="25.138492" lon="101.862895">
<time>2016-04-06T10:41:48Z</time></trkpt>
<trkpt lat="25.138502" lon="101.862825">
<time>2016-04-06T10:41:49Z</time></trkpt>
<trkpt lat="25.138532" lon="101.862735">
<time>2016-04-06T10:41:50Z</time></trkpt>
<trkpt lat="25.138572" lon="101.862645">
<time>2016-04-06T10:41:51Z</time></trkpt>
<trkpt lat="25.138632" lon="101.862544">
<time>2016-04-06T10:41:52Z</time></trkpt>
<trkpt lat="25.138662" lon="101.862504">
<time>2016-04-06T10:41:53Z</time></trkpt>
<trkpt lat="25.138712" lon="101.862464">
<time>2016-04-06T10:41:54Z</time></trkpt>
<trkpt lat="25.138791" lon="101.862394">
<time>2016-04-06T10:41:55Z</time></trkpt>
<trkpt lat="25.138921" lon="101.862314">
<time>2016-04-06T10:41:56Z</time></trkpt>
<trkpt lat="25.139061" lon="101.862224">
<time>2016-04-06T10:41:57Z</time></trkpt>
<trkpt lat="25.139151" lon="101.862144">
<time>2016-04-06T10:41:58Z</time></trkpt>
<trkpt lat="25.139231" lon="101.862064">
<time>2016-04-06T10:41:59Z</time></trkpt>
<trkpt lat="25.139341" lon="101.861913">
<time>2016-04-06T10:42:00Z</time></trkpt>
<trkpt lat="25.139421" lon="101.861803">
<time>2016-04-06T10:42:01Z</time></trkpt>
<trkpt lat="25.13952" lon="101.861643">
<time>2016-04-06T10:42:02Z</time></trkpt>
<trkpt lat="25.13968" lon="101.861412">
<time>2016-04-06T10:42:03Z</time></trkpt>
<trkpt lat="25.13984" lon="101.861182">
<time>2016-04-06T10:42:04Z</time></trkpt>
<trkpt lat="25.139959" lon="101.861012">
<time>2016-04-06T10:42:05Z</time></trkpt>
<trkpt lat="25.140239" lon="101.860651">
<time>2016-04-06T10:42:06Z</time></trkpt>
<trkpt lat="25.140399" lon="101.86042">
<time>2016-04-06T10:42:07Z</time></trkpt>
<trkpt lat="25.140608" lon="101.86014">
<time>2016-04-06T10:42:08Z</time></trkpt>
<trkpt lat="25.140758" lon="101.859909">
<time>2016-04-06T10:42:09Z</time></trkpt>
<trkpt lat="25.140927" lon="101.859629">
<time>2016-04-06T10:42:10Z</time></trkpt>
<trkpt lat="25.141107" lon="101.859328">
<time>2016-04-06T10:42:11Z</time></trkpt>
<trkpt lat="25.141296" lon="101.859018">
<time>2016-04-06T10:42:12Z</time></trkpt>
<trkpt lat="25.141506" lon="101.858657">
<time>2016-04-06T10:42:13Z</time></trkpt>
<trkpt lat="25.141586" lon="101.858517">
<time>2016-04-06T10:42:14Z</time></trkpt>
<trkpt lat="25.141665" lon="101.858356">
<time>2016-04-06T10:42:15Z</time></trkpt>
<trkpt lat="25.141685" lon="101.858296">
<time>2016-04-06T10:42:16Z</time></trkpt>
<trkpt lat="25.141715" lon="101.858216">
<time>2016-04-06T10:42:17Z</time></trkpt>
<trkpt lat="25.141725" lon="101.858156">
<time>2016-04-06T10:42:18Z</time></trkpt>
<trkpt lat="25.141735" lon="101.858076">
<time>2016-04-06T10:42:19Z</time></trkpt>
<trkpt lat="25.141735" lon="101.857996">
<time>2016-04-06T10:42:20Z</time></trkpt>
<trkpt lat="25.141725" lon="101.857926">
<time>2016-04-06T10:42:21Z</time></trkpt>
<trkpt lat="25.141715" lon="101.857855">
<time>2016-04-06T10:42:22Z</time></trkpt>
<trkpt lat="25.141695" lon="101.857785">
<time>2016-04-06T10:42:23Z</time></trkpt>
<trkpt lat="25.141664" lon="101.857705">
<time>2016-04-06T10:42:24Z</time></trkpt>
<trkpt lat="25.141604" lon="101.857595">
<time>2016-04-06T10:42:25Z</time></trkpt>
<trkpt lat="25.141554" lon="101.857505">
<time>2016-04-06T10:42:26Z</time></trkpt>
<trkpt lat="25.141444" lon="101.857324">
<time>2016-04-06T10:42:27Z</time></trkpt>
<trkpt lat="25.141374" lon="101.857234">
<time>2016-04-06T10:42:28Z</time></trkpt>
<trkpt lat="25.141284" lon="101.857144">
<time>2016-04-06T10:42:29Z</time></trkpt>
<trkpt lat="25.141183" lon="101.857044">
<time>2016-04-06T10:42:30Z</time></trkpt>
<trkpt lat="25.141063" lon="101.856964">
<time>2016-04-06T10:42:31Z</time></trkpt>
<trkpt lat="25.140873" lon="101.856813">
<time>2016-04-06T10:42:32Z</time></trkpt>
<trkpt lat="25.140753" lon="101.856733">
<time>2016-04-06T10:42:33Z</time></trkpt>
<trkpt lat="25.140523" lon="101.856583">
<time>2016-04-06T10:42:34Z</time></trkpt>
<trkpt lat="25.140403" lon="101.856513">
<time>2016-04-06T10:42:35Z</time></trkpt>
<trkpt lat="25.140273" lon="101.856453">
<time>2016-04-06T10:42:36Z</time></trkpt>
<trkpt lat="25.140203" lon="101.856433">
<time>2016-04-06T10:42:37Z</time></trkpt>
<trkpt lat="25.140143" lon="101.856423">
<time>2016-04-06T10:42:38Z</time></trkpt>
<trkpt lat="25.140083" lon="101.856413">
<time>2016-04-06T10:42:39Z</time></trkpt>
<trkpt lat="25.140003" lon="101.856403">
<time>2016-04-06T10:42:40Z</time></trkpt>
<trkpt lat="25.139933" lon="101.856403">
<time>2016-04-06T10:42:41Z</time></trkpt>
<trkpt lat="25.139843" lon="101.856403">
<time>2016-04-06T10:42:42Z</time></trkpt>
<trkpt lat="25.139663" lon="101.856423">
<time>2016-04-06T10:42:43Z</time></trkpt>
<trkpt lat="25.139503" lon="101.856443">
<time>2016-04-06T10:42:44Z</time></trkpt>
<trkpt lat="25.139363" lon="101.856483">
<time>2016-04-06T10:42:45Z</time></trkpt>
<trkpt lat="25.139083" lon="101.856553">
<time>2016-04-06T10:42:46Z</time></trkpt>
<trkpt lat="25.138893" lon="101.856583">
<time>2016-04-06T10:42:47Z</time></trkpt>
<trkpt lat="25.138693" lon="101.856613">
<time>2016-04-06T10:42:48Z</time></trkpt>
<trkpt lat="25.138453" lon="101.856633">
<time>2016-04-06T10:42:49Z</time></trkpt>
<trkpt lat="25.138313" lon="101.856623">
<time>2016-04-06T10:42:50Z</time></trkpt>
<trkpt lat="25.138263" lon="101.856613">
<time>2016-04-06T10:42:51Z</time></trkpt>
<trkpt lat="25.138203" lon="101.856603">
<time>2016-04-06T10:42:52Z</time></trkpt>
<trkpt lat="25.138153" lon="101.856593">
<time>2016-04-06T10:42:53Z</time></trkpt>
<trkpt lat="25.138113" lon="101.856573">
<time>2016-04-06T10:42:54Z</time></trkpt>
<trkpt lat="25.138053" lon="101.856523">
<time>2016-04-06T10:42:55Z</time></trkpt>
<trkpt lat="25.138003" lon="101.856473">
<time>2016-04-06T10:42:56Z</time></trkpt>
<trkpt lat="25.137963" lon="101.856423">
<time>2016-04-06T10:42:57Z</time></trkpt>
<trkpt lat="25.137903" lon="101.856313">
<time>2016-04-06T10:42:58Z</time></trkpt>
<trkpt lat="25.137822" lon="101.856142">
<time>2016-04-06T10:42:59Z</time></trkpt>
<trkpt lat="25.137752" lon="101.855992">
<time>2016-04-06T10:43:00Z</time></trkpt>
<trkpt lat="25.137642" lon="101.855791">
<time>2016-04-06T10:43:01Z</time></trkpt>
<trkpt lat="25.137521" lon="101.855591">
<time>2016-04-06T10:43:02Z</time></trkpt>
<trkpt lat="25.137401" lon="101.855421">
<time>2016-04-06T10:43:03Z</time></trkpt>
<trkpt lat="25.137251" lon="101.85519">
<time>2016-04-06T10:43:04Z</time></trkpt>
<trkpt lat="25.137111" lon="101.855">
<time>2016-04-06T10:43:05Z</time></trkpt>
<trkpt lat="25.13694" lon="101.854769">
<time>2016-04-06T10:43:06Z</time></trkpt>
<trkpt lat="25.13681" lon="101.854609">
<time>2016-04-06T10:43:07Z</time></trkpt>
<trkpt lat="25.13667" lon="101.854449">
<time>2016-04-06T10:43:08Z</time></trkpt>
<trkpt lat="25.13657" lon="101.854359">
<time>2016-04-06T10:43:09Z</time></trkpt>
<trkpt lat="25.136459" lon="101.854268">
<time>2016-04-06T10:43:10Z</time></trkpt>
<trkpt lat="25.136389" lon="101.854218">
<time>2016-04-06T10:43:11Z</time></trkpt>
<trkpt lat="25.136279" lon="101.854158">
<time>2016-04-06T10:43:12Z</time></trkpt>
<trkpt lat="25.136199" lon="101.854128">
<time>2016-04-06T10:43:13Z</time></trkpt>
<trkpt lat="25.136039" lon="101.854078">
<time>2016-04-06T10:43:14Z</time></trkpt>
<trkpt lat="25.135919" lon="101.854048">
<time>2016-04-06T10:43:15Z</time></trkpt>
<trkpt lat="25.135679" lon="101.853998">
<time>2016-04-06T10:43:16Z</time></trkpt>
<trkpt lat="25.135409" lon="101.853948">
<time>2016-04-06T10:43:17Z</time></trkpt>
<trkpt lat="25.135149" lon="101.853908">
<time>2016-04-06T10:43:18Z</time></trkpt>
<trkpt lat="25.134669" lon="101.853838">
<time>2016-04-06T10:43:19Z</time></trkpt>
<trkpt lat="25.134119" lon="101.853747">
<time>2016-04-06T10:43:20Z</time></trkpt>
<trkpt lat="25.133589" lon="101.853597">
<time>2016-04-06T10:43:21Z</time></trkpt>
<trkpt lat="25.133388" lon="101.853547">
<time>2016-04-06T10:43:22Z</time></trkpt>
<trkpt lat="25.132868" lon="101.853407">
<time>2016-04-06T10:43:23Z</time></trkpt>
<trkpt lat="25.132628" lon="101.853327">
<time>2016-04-06T10:43:24Z</time></trkpt>
<trkpt lat="25.132258" lon="101.853196">
<time>2016-04-06T10:43:25Z</time></trkpt>
<trkpt lat="25.131928" lon="101.853086">
<time>2016-04-06T10:43:26Z</time></trkpt>
<trkpt lat="25.131738" lon="101.853006">
<time>2016-04-06T10:43:27Z</time></trkpt>
<trkpt lat="25.131458" lon="101.852886">
<time>2016-04-06T10:43:28Z</time></trkpt>
<trkpt lat="25.131207" lon="101.852776">
<time>2016-04-06T10:43:29Z</time></trkpt>
<trkpt lat="25.130797" lon="101.852555">
<time>2016-04-06T10:43:30Z</time></trkpt>
<trkpt lat="25.130257" lon="101.852264">
<time>2016-04-06T10:43:31Z</time></trkpt>
<trkpt lat="25.130016" lon="101.852134">
<time>2016-04-06T10:43:32Z</time></trkpt>
<trkpt lat="25.129766" lon="101.851984">
<time>2016-04-06T10:43:33Z</time></trkpt>
<trkpt lat="25.129496" lon="101.851763">
<time>2016-04-06T10:43:34Z</time></trkpt>
<trkpt lat="25.129246" lon="101.851553">
<time>2016-04-06T10:43:35Z</time></trkpt>
<trkpt lat="25.128955" lon="101.851303">
<time>2016-04-06T10:43:36Z</time></trkpt>
<trkpt lat="25.128625" lon="101.851012">
<time>2016-04-06T10:43:37Z</time></trkpt>
<trkpt lat="25.128374" lon="101.850801">
<time>2016-04-06T10:43:38Z</time></trkpt>
<trkpt lat="25.128194" lon="101.850671">
<time>2016-04-06T10:43:39Z</time></trkpt>
<trkpt lat="25.128114" lon="101.850621">
<time>2016-04-06T10:43:40Z</time></trkpt>
<trkpt lat="25.128004" lon="101.850561">
<time>2016-04-06T10:43:41Z</time></trkpt>
<trkpt lat="25.127954" lon="101.850541">
<time>2016-04-06T10:43:42Z</time></trkpt>
<trkpt lat="25.127904" lon="101.850521">
<time>2016-04-06T10:43:43Z</time></trkpt>
<trkpt lat="25.127784" lon="101.850471">
<time>2016-04-06T10:43:44Z</time></trkpt>
<trkpt lat="25.127684" lon="101.850451">
<time>2016-04-06T10:43:45Z</time></trkpt>
<trkpt lat="25.127594" lon="101.850431">
<time>2016-04-06T10:43:46Z</time></trkpt>
<trkpt lat="25.127434" lon="101.850411">
<time>2016-04-06T10:43:47Z</time></trkpt>
<trkpt lat="25.127284" lon="101.850391">
<time>2016-04-06T10:43:48Z</time></trkpt>
<trkpt lat="25.127184" lon="101.850391">
<time>2016-04-06T10:43:49Z</time></trkpt>
<trkpt lat="25.126794" lon="101.850381">
<time>2016-04-06T10:43:50Z</time></trkpt>
<trkpt lat="25.126424" lon="101.850391">
<time>2016-04-06T10:43:51Z</time></trkpt>
<trkpt lat="25.126294" lon="101.850391">
<time>2016-04-06T10:43:52Z</time></trkpt>
<trkpt lat="25.126124" lon="101.850381">
<time>2016-04-06T10:43:53Z</time></trkpt>
<trkpt lat="25.126024" lon="101.850361">
<time>2016-04-06T10:43:54Z</time></trkpt>
<trkpt lat="25.125934" lon="101.850351">
<time>2016-04-06T10:43:55Z</time></trkpt>
<trkpt lat="25.125804" lon="101.85029">
<time>2016-04-06T10:43:56Z</time></trkpt>
<trkpt lat="25.125704" lon="101.85024">
<time>2016-04-06T10:43:57Z</time></trkpt>
<trkpt lat="25.125513" lon="101.85013">
<time>2016-04-06T10:43:58Z</time></trkpt>
<trkpt lat="25.125273" lon="101.84998">
<time>2016-04-06T10:43:59Z</time></trkpt>
<trkpt lat="25.124983" lon="101.849789">
<time>2016-04-06T10:44:00Z</time></trkpt>
<trkpt lat="25.124763" lon="101.849629">
<time>2016-04-06T10:44:01Z</time></trkpt>
<trkpt lat="25.124642" lon="101.849509">
<time>2016-04-06T10:44:02Z</time></trkpt>
<trkpt lat="25.124542" lon="101.849409">
<time>2016-04-06T10:44:03Z</time></trkpt>
<trkpt lat="25.124442" lon="101.849288">
<time>2016-04-06T10:44:04Z</time></trkpt>
<trkpt lat="25.124342" lon="101.849128">
<time>2016-04-06T10:44:05Z</time></trkpt>
<trkpt lat="25.124211" lon="101.848888">
<time>2016-04-06T10:44:06Z</time></trkpt>
<trkpt lat="25.124011" lon="101.848527">
<time>2016-04-06T10:44:07Z</time></trkpt>
<trkpt lat="25.123901" lon="101.848316">
<time>2016-04-06T10:44:08Z</time></trkpt>
<trkpt lat="25.12382" lon="101.848146">
<time>2016-04-06T10:44:09Z</time></trkpt>
<trkpt lat="25.12378" lon="101.848046">
<time>2016-04-06T10:44:10Z</time></trkpt>
<trkpt lat="25.12376" lon="101.847976">
<time>2016-04-06T10:44:11Z</time></trkpt>
<trkpt lat="25.12375" lon="101.847885">
<time>2016-04-06T10:44:12Z</time></trkpt>
<trkpt lat="25.12374" lon="101.847815">
<time>2016-04-06T10:44:13Z</time></trkpt>
<trkpt lat="25.123739" lon="101.847695">
<time>2016-04-06T10:44:14Z</time></trkpt>
<trkpt lat="25.123769" lon="101.847474">
<time>2016-04-06T10:44:15Z</time></trkpt>
<trkpt lat="25.123799" lon="101.847284">
<time>2016-04-06T10:44:16Z</time></trkpt>
<trkpt lat="25.123858" lon="101.847064">
<time>2016-04-06T10:44:17Z</time></trkpt>
<trkpt lat="25.123878" lon="101.846993">
<time>2016-04-06T10:44:18Z</time></trkpt>
<trkpt lat="25.123908" lon="101.846913">
<time>2016-04-06T10:44:19Z</time></trkpt>
<trkpt lat="25.123948" lon="101.846823">
<time>2016-04-06T10:44:20Z</time></trkpt>
<trkpt lat="25.124008" lon="101.846723">
<time>2016-04-06T10:44:21Z</time></trkpt>
<trkpt lat="25.124147" lon="101.846532">
<time>2016-04-06T10:44:22Z</time></trkpt>
<trkpt lat="25.124297" lon="101.846342">
<time>2016-04-06T10:44:23Z</time></trkpt>
<trkpt lat="25.124407" lon="101.846242">
<time>2016-04-06T10:44:24Z</time></trkpt>
<trkpt lat="25.124527" lon="101.846121">
<time>2016-04-06T10:44:25Z</time></trkpt>
<trkpt lat="25.124736" lon="101.845951">
<time>2016-04-06T10:44:26Z</time></trkpt>
<trkpt lat="25.125046" lon="101.845701">
<time>2016-04-06T10:44:27Z</time></trkpt>
<trkpt lat="25.125146" lon="101.84559">
<time>2016-04-06T10:44:28Z</time></trkpt>
<trkpt lat="25.125246" lon="101.84548">
<time>2016-04-06T10:44:29Z</time></trkpt>
<trkpt lat="25.125415" lon="101.84526">
<time>2016-04-06T10:44:30Z</time></trkpt>
<trkpt lat="25.125655" lon="101.844949">
<time>2016-04-06T10:44:31Z</time></trkpt>
<trkpt lat="25.125884" lon="101.844658">
<time>2016-04-06T10:44:32Z</time></trkpt>
<trkpt lat="25.125974" lon="101.844508">
<time>2016-04-06T10:44:33Z</time></trkpt>
<trkpt lat="25.126014" lon="101.844428">
<time>2016-04-06T10:44:34Z</time></trkpt>
<trkpt lat="25.126053" lon="101.844327">
<time>2016-04-06T10:44:35Z</time></trkpt>
<trkpt lat="25.126093" lon="101.844217">
<time>2016-04-06T10:44:36Z</time></trkpt>
<trkpt lat="25.126123" lon="101.844117">
<time>2016-04-06T10:44:37Z</time></trkpt>
<trkpt lat="25.126163" lon="101.843977">
<time>2016-04-06T10:44:38Z</time></trkpt>
<trkpt lat="25.126202" lon="101.843786">
<time>2016-04-06T10:44:39Z</time></trkpt>
<trkpt lat="25.126222" lon="101.843636">
<time>2016-04-06T10:44:40Z</time></trkpt>
<trkpt lat="25.126222" lon="101.843516">
<time>2016-04-06T10:44:41Z</time></trkpt>
<trkpt lat="25.126222" lon="101.843456">
<time>2016-04-06T10:44:42Z</time></trkpt>
<trkpt lat="25.126212" lon="101.843365">
<time>2016-04-06T10:44:43Z</time></trkpt>
<trkpt lat="25.126202" lon="101.843305">
<time>2016-04-06T10:44:44Z</time></trkpt>
<trkpt lat="25.126182" lon="101.843265">
<time>2016-04-06T10:44:45Z</time></trkpt>
<trkpt lat="25.126151" lon="101.843225">
<time>2016-04-06T10:44:46Z</time></trkpt>
<trkpt lat="25.126121" lon="101.843165">
<time>2016-04-06T10:44:47Z</time></trkpt>
<trkpt lat="25.126081" lon="101.843115">
<time>2016-04-06T10:44:48Z</time></trkpt>
<trkpt lat="25.126031" lon="101.843065">
<time>2016-04-06T10:44:49Z</time></trkpt>
<trkpt lat="25.125951" lon="101.842984">
<time>2016-04-06T10:44:50Z</time></trkpt>
<trkpt lat="25.125741" lon="101.842834">
<time>2016-04-06T10:44:51Z</time></trkpt>
<trkpt lat="25.125501" lon="101.842694">
<time>2016-04-06T10:44:52Z</time></trkpt>
<trkpt lat="25.12537" lon="101.842634">
<time>2016-04-06T10:44:53Z</time></trkpt>
<trkpt lat="25.12514" lon="101.842554">
<time>2016-04-06T10:44:54Z</time></trkpt>
<trkpt lat="25.12489" lon="101.842473">
<time>2016-04-06T10:44:55Z</time></trkpt>
<trkpt lat="25.12453" lon="101.842383">
<time>2016-04-06T10:44:56Z</time></trkpt>
<trkpt lat="25.12424" lon="101.842323">
<time>2016-04-06T10:44:57Z</time></trkpt>
<trkpt lat="25.12378" lon="101.842233">
<time>2016-04-06T10:44:58Z</time></trkpt>
<trkpt lat="25.12352" lon="101.842173">
<time>2016-04-06T10:44:59Z</time></trkpt>
<trkpt lat="25.12342" lon="101.842143">
<time>2016-04-06T10:45:00Z</time></trkpt>
<trkpt lat="25.12324" lon="101.842093">
<time>2016-04-06T10:45:01Z</time></trkpt>
<trkpt lat="25.123009" lon="101.841982">
<time>2016-04-06T10:45:02Z</time></trkpt>
<trkpt lat="25.122899" lon="101.841932">
<time>2016-04-06T10:45:03Z</time></trkpt>
<trkpt lat="25.122559" lon="101.841742">
<time>2016-04-06T10:45:04Z</time></trkpt>
<trkpt lat="25.122449" lon="101.841672">
<time>2016-04-06T10:45:05Z</time></trkpt>
<trkpt lat="25.122379" lon="101.841632">
<time>2016-04-06T10:45:06Z</time></trkpt>
<trkpt lat="25.122309" lon="101.841571">
<time>2016-04-06T10:45:07Z</time></trkpt>
<trkpt lat="25.122229" lon="101.841481">
<time>2016-04-06T10:45:08Z</time></trkpt>
<trkpt lat="25.122189" lon="101.841421">
<time>2016-04-06T10:45:09Z</time></trkpt>
<trkpt lat="25.122128" lon="101.841341">
<time>2016-04-06T10:45:10Z</time></trkpt>
<trkpt lat="25.122098" lon="101.841271">
<time>2016-04-06T10:45:11Z</time></trkpt>
<trkpt lat="25.122048" lon="101.84114">
<time>2016-04-06T10:45:12Z</time></trkpt>
<trkpt lat="25.121998" lon="101.84098">
<time>2016-04-06T10:45:13Z</time></trkpt>
<trkpt lat="25.121927" lon="101.84076">
<time>2016-04-06T10:45:14Z</time></trkpt>
<trkpt lat="25.121897" lon="101.840689">
<time>2016-04-06T10:45:15Z</time></trkpt>
<trkpt lat="25.121877" lon="101.840619">
<time>2016-04-06T10:45:16Z</time></trkpt>
<trkpt lat="25.121817" lon="101.840519">
<time>2016-04-06T10:45:17Z</time></trkpt>
<trkpt lat="25.121787" lon="101.840469">
<time>2016-04-06T10:45:18Z</time></trkpt>
<trkpt lat="25.121737" lon="101.840419">
<time>2016-04-06T10:45:19Z</time></trkpt>
<trkpt lat="25.121687" lon="101.840379">
<time>2016-04-06T10:45:20Z</time></trkpt>
<trkpt lat="25.121637" lon="101.840339">
<time>2016-04-06T10:45:21Z</time></trkpt>
<trkpt lat="25.121557" lon="101.840309">
<time>2016-04-06T10:45:22Z</time></trkpt>
<trkpt lat="25.121416" lon="101.840258">
<time>2016-04-06T10:45:23Z</time></trkpt>
<trkpt lat="25.121196" lon="101.840208">
<time>2016-04-06T10:45:24Z</time></trkpt>
<trkpt lat="25.120836" lon="101.840148">
<time>2016-04-06T10:45:25Z</time></trkpt>
<trkpt lat="25.120686" lon="101.840118">
<time>2016-04-06T10:45:26Z</time></trkpt>
<trkpt lat="25.120546" lon="101.840078">
<time>2016-04-06T10:45:27Z</time></trkpt>
<trkpt lat="25.120476" lon="101.840048">
<time>2016-04-06T10:45:28Z</time></trkpt>
<trkpt lat="25.120406" lon="101.840008">
<time>2016-04-06T10:45:29Z</time></trkpt>
<trkpt lat="25.120356" lon="101.839978">
<time>2016-04-06T10:45:30Z</time></trkpt>
<trkpt lat="25.120306" lon="101.839928">
<time>2016-04-06T10:45:31Z</time></trkpt>
<trkpt lat="25.120226" lon="101.839827">
<time>2016-04-06T10:45:32Z</time></trkpt>
<trkpt lat="25.120156" lon="101.839737">
<time>2016-04-06T10:45:33Z</time></trkpt>
<trkpt lat="25.120105" lon="101.839637">
<time>2016-04-06T10:45:34Z</time></trkpt>
<trkpt lat="25.120015" lon="101.839457">
<time>2016-04-06T10:45:35Z</time></trkpt>
<trkpt lat="25.119945" lon="101.839306">
<time>2016-04-06T10:45:36Z</time></trkpt>
<trkpt lat="25.119895" lon="101.839156">
<time>2016-04-06T10:45:37Z</time></trkpt>
<trkpt lat="25.119864" lon="101.839066">
<time>2016-04-06T10:45:38Z</time></trkpt>
<trkpt lat="25.119834" lon="101.838966">
<time>2016-04-06T10:45:39Z</time></trkpt>
<trkpt lat="25.119824" lon="101.838895">
<time>2016-04-06T10:45:40Z</time></trkpt>
<trkpt lat="25.119814" lon="101.838805">
<time>2016-04-06T10:45:41Z</time></trkpt>
<trkpt lat="25.119814" lon="101.838695">
<time>2016-04-06T10:45:42Z</time></trkpt>
<trkpt lat="25.119824" lon="101.838595">
<time>2016-04-06T10:45:43Z</time></trkpt>
<trkpt lat="25.119843" lon="101.838454">
<time>2016-04-06T10:45:44Z</time></trkpt>
<trkpt lat="25.119883" lon="101.838284">
<time>2016-04-06T10:45:45Z</time></trkpt>
<trkpt lat="25.119913" lon="101.838154">
<time>2016-04-06T10:45:46Z</time></trkpt>
<trkpt lat="25.119953" lon="101.838023">
<time>2016-04-06T10:45:47Z</time></trkpt>
<trkpt lat="25.120072" lon="101.837703">
<time>2016-04-06T10:45:48Z</time></trkpt>
<trkpt lat="25.120181" lon="101.837422">
<time>2016-04-06T10:45:49Z</time></trkpt>
<trkpt lat="25.120301" lon="101.837171">
<time>2016-04-06T10:45:50Z</time></trkpt>
<trkpt lat="25.120361" lon="101.836991">
<time>2016-04-06T10:45:51Z</time></trkpt>
<trkpt lat="25.12039" lon="101.836891">
<time>2016-04-06T10:45:52Z</time></trkpt>
<trkpt lat="25.12041" lon="101.836801">
<time>2016-04-06T10:45:53Z</time></trkpt>
<trkpt lat="25.12041" lon="101.83674">
<time>2016-04-06T10:45:54Z</time></trkpt>
<trkpt lat="25.12041" lon="101.83669">
<time>2016-04-06T10:45:55Z</time></trkpt>
<trkpt lat="25.1204" lon="101.83664">
<time>2016-04-06T10:45:56Z</time></trkpt>
<trkpt lat="25.12038" lon="101.83659">
<time>2016-04-06T10:45:57Z</time></trkpt>
<trkpt lat="25.12035" lon="101.83654">
<time>2016-04-06T10:45:58Z</time></trkpt>
<trkpt lat="25.12029" lon="101.83647">
<time>2016-04-06T10:45:59Z</time></trkpt>
<trkpt lat="25.12022" lon="101.83641">
<time>2016-04-06T10:46:00Z</time></trkpt>
<trkpt lat="25.120189" lon="101.8364">
<time>2016-04-06T10:46:01Z</time></trkpt>
<trkpt lat="25.120019" lon="101.836289">
<time>2016-04-06T10:46:02Z</time></trkpt>
<trkpt lat="25.119539" lon="101.836019">
<time>2016-04-06T10:46:03Z</time></trkpt>
<trkpt lat="25.119118" lon="101.835768">
<time>2016-04-06T10:46:04Z</time></trkpt>
<trkpt lat="25.118868" lon="101.835598">
<time>2016-04-06T10:46:05Z</time></trkpt>
<trkpt lat="25.118768" lon="101.835508">
<time>2016-04-06T10:46:06Z</time></trkpt>
<trkpt lat="25.118628" lon="101.835367">
<time>2016-04-06T10:46:07Z</time></trkpt>
<trkpt lat="25.118517" lon="101.835257">
<time>2016-04-06T10:46:08Z</time></trkpt>
<trkpt lat="25.118427" lon="101.835117">
<time>2016-04-06T10:46:09Z</time></trkpt>
<trkpt lat="25.118347" lon="101.835006">
<time>2016-04-06T10:46:10Z</time></trkpt>
<trkpt lat="25.118237" lon="101.834796">
<time>2016-04-06T10:46:11Z</time></trkpt>
<trkpt lat="25.118206" lon="101.834696">
<time>2016-04-06T10:46:12Z</time></trkpt>
<trkpt lat="25.118116" lon="101.834445">
<time>2016-04-06T10:46:13Z</time></trkpt>
<trkpt lat="25.118005" lon="101.834134">
<time>2016-04-06T10:46:14Z</time></trkpt>
<trkpt lat="25.117895" lon="101.833814">
<time>2016-04-06T10:46:15Z</time></trkpt>
<trkpt lat="25.117784" lon="101.833473">
<time>2016-04-06T10:46:16Z</time></trkpt>
<trkpt lat="25.117573" lon="101.832831">
<time>2016-04-06T10:46:17Z</time></trkpt>
<trkpt lat="25.117442" lon="101.83244">
<time>2016-04-06T10:46:18Z</time></trkpt>
<trkpt lat="25.117291" lon="101.831979">
<time>2016-04-06T10:46:19Z</time></trkpt>
<trkpt lat="25.117201" lon="101.831739">
<time>2016-04-06T10:46:20Z</time></trkpt>
<trkpt lat="25.117141" lon="101.831629">
<time>2016-04-06T10:46:21Z</time></trkpt>
<trkpt lat="25.11703" lon="101.831408">
<time>2016-04-06T10:46:22Z</time></trkpt>
<trkpt lat="25.11691" lon="101.831238">
<time>2016-04-06T10:46:23Z</time></trkpt>
<trkpt lat="25.11683" lon="101.831147">
<time>2016-04-06T10:46:24Z</time></trkpt>
<trkpt lat="25.11674" lon="101.831067">
<time>2016-04-06T10:46:25Z</time></trkpt>
<trkpt lat="25.11664" lon="101.830997">
<time>2016-04-06T10:46:26Z</time></trkpt>
<trkpt lat="25.11657" lon="101.830947">
<time>2016-04-06T10:46:27Z</time></trkpt>
<trkpt lat="25.11649" lon="101.830907">
<time>2016-04-06T10:46:28Z</time></trkpt>
<trkpt lat="25.116419" lon="101.830887">
<time>2016-04-06T10:46:29Z</time></trkpt>
<trkpt lat="25.116329" lon="101.830857">
<time>2016-04-06T10:46:30Z</time></trkpt>
<trkpt lat="25.116219" lon="101.830847">
<time>2016-04-06T10:46:31Z</time></trkpt>
<trkpt lat="25.116079" lon="101.830837">
<time>2016-04-06T10:46:32Z</time></trkpt>
<trkpt lat="25.115739" lon="101.830827">
<time>2016-04-06T10:46:33Z</time></trkpt>
<trkpt lat="25.115469" lon="101.830797">
<time>2016-04-06T10:46:34Z</time></trkpt>
<trkpt lat="25.115379" lon="101.830797">
<time>2016-04-06T10:46:35Z</time></trkpt>
<trkpt lat="25.115289" lon="101.830777">
<time>2016-04-06T10:46:36Z</time></trkpt>
<trkpt lat="25.115169" lon="101.830757">
<time>2016-04-06T10:46:37Z</time></trkpt>
<trkpt lat="25.115069" lon="101.830737">
<time>2016-04-06T10:46:38Z</time></trkpt>
<trkpt lat="25.114949" lon="101.830696">
<time>2016-04-06T10:46:39Z</time></trkpt>
<trkpt lat="25.114859" lon="101.830656">
<time>2016-04-06T10:46:40Z</time></trkpt>
<trkpt lat="25.114749" lon="101.830606">
<time>2016-04-06T10:46:41Z</time></trkpt>
<trkpt lat="25.114669" lon="101.830546">
<time>2016-04-06T10:46:42Z</time></trkpt>
<trkpt lat="25.114589" lon="101.830476">
<time>2016-04-06T10:46:43Z</time></trkpt>
<trkpt lat="25.114519" lon="101.830406">
<time>2016-04-06T10:46:44Z</time></trkpt>
<trkpt lat="25.114449" lon="101.830316">
<time>2016-04-06T10:46:45Z</time></trkpt>
<trkpt lat="25.114408" lon="101.830255">
<time>2016-04-06T10:46:46Z</time></trkpt>
<trkpt lat="25.114368" lon="101.830175">
<time>2016-04-06T10:46:47Z</time></trkpt>
<trkpt lat="25.114338" lon="101.830105">
<time>2016-04-06T10:46:48Z</time></trkpt>
<trkpt lat="25.114308" lon="101.830005">
<time>2016-04-06T10:46:49Z</time></trkpt>
<trkpt lat="25.114278" lon="101.829915">
<time>2016-04-06T10:46:50Z</time></trkpt>
<trkpt lat="25.114268" lon="101.829814">
<time>2016-04-06T10:46:51Z</time></trkpt>
<trkpt lat="25.114257" lon="101.829674">
<time>2016-04-06T10:46:52Z</time></trkpt>
<trkpt lat="25.114267" lon="101.829554">
<time>2016-04-06T10:46:53Z</time></trkpt>
<trkpt lat="25.114287" lon="101.829494">
<time>2016-04-06T10:46:54Z</time></trkpt>
<trkpt lat="25.114327" lon="101.829353">
<time>2016-04-06T10:46:55Z</time></trkpt>
<trkpt lat="25.114416" lon="101.829143">
<time>2016-04-06T10:46:56Z</time></trkpt>
<trkpt lat="25.114586" lon="101.828872">
<time>2016-04-06T10:46:57Z</time></trkpt>
<trkpt lat="25.114725" lon="101.828662">
<time>2016-04-06T10:46:58Z</time></trkpt>
<trkpt lat="25.114865" lon="101.828471">
<time>2016-04-06T10:46:59Z</time></trkpt>
<trkpt lat="25.115065" lon="101.828211">
<time>2016-04-06T10:47:00Z</time></trkpt>
<trkpt lat="25.115184" lon="101.82803">
<time>2016-04-06T10:47:01Z</time></trkpt>
<trkpt lat="25.115264" lon="101.82786">
<time>2016-04-06T10:47:02Z</time></trkpt>
<trkpt lat="25.115344" lon="101.827709">
<time>2016-04-06T10:47:03Z</time></trkpt>
<trkpt lat="25.115393" lon="101.827529">
<time>2016-04-06T10:47:04Z</time></trkpt>
<trkpt lat="25.115403" lon="101.827439">
<time>2016-04-06T10:47:05Z</time></trkpt>
<trkpt lat="25.115373" lon="101.827339">
<time>2016-04-06T10:47:06Z</time></trkpt>
<trkpt lat="25.115333" lon="101.827278">
<time>2016-04-06T10:47:07Z</time></trkpt>
<trkpt lat="25.115263" lon="101.827198">
<time>2016-04-06T10:47:08Z</time></trkpt>
<trkpt lat="25.115192" lon="101.827128">
<time>2016-04-06T10:47:09Z</time></trkpt>
<trkpt lat="25.115072" lon="101.827078">
<time>2016-04-06T10:47:10Z</time></trkpt>
<trkpt lat="25.114932" lon="101.827028">
<time>2016-04-06T10:47:11Z</time></trkpt>
<trkpt lat="25.114802" lon="101.826988">
<time>2016-04-06T10:47:12Z</time></trkpt>
<trkpt lat="25.114662" lon="101.826968">
<time>2016-04-06T10:47:13Z</time></trkpt>
<trkpt lat="25.114522" lon="101.826948">
<time>2016-04-06T10:47:14Z</time></trkpt>
<trkpt lat="25.114362" lon="101.826948">
<time>2016-04-06T10:47:15Z</time></trkpt>
<trkpt lat="25.114272" lon="101.826958">
<time>2016-04-06T10:47:16Z</time></trkpt>
<trkpt lat="25.114142" lon="101.827008">
<time>2016-04-06T10:47:17Z</time></trkpt>
<trkpt lat="25.114022" lon="101.827068">
<time>2016-04-06T10:47:18Z</time></trkpt>
<trkpt lat="25.113853" lon="101.827218">
<time>2016-04-06T10:47:19Z</time></trkpt>
<trkpt lat="25.113733" lon="101.827319">
<time>2016-04-06T10:47:20Z</time></trkpt>
<trkpt lat="25.113573" lon="101.827469">
<time>2016-04-06T10:47:21Z</time></trkpt>
<trkpt lat="25.113424" lon="101.827589">
<time>2016-04-06T10:47:22Z</time></trkpt>
<trkpt lat="25.113364" lon="101.827609">
<time>2016-04-06T10:47:23Z</time></trkpt>
<trkpt lat="25.113314" lon="101.827629">
<time>2016-04-06T10:47:24Z</time></trkpt>
<trkpt lat="25.113244" lon="101.827649">
<time>2016-04-06T10:47:25Z</time></trkpt>
<trkpt lat="25.113174" lon="101.827639">
<time>2016-04-06T10:47:26Z</time></trkpt>
<trkpt lat="25.113104" lon="101.827629">
<time>2016-04-06T10:47:27Z</time></trkpt>
<trkpt lat="25.113054" lon="101.827599">
<time>2016-04-06T10:47:28Z</time></trkpt>
<trkpt lat="25.112993" lon="101.827559">
<time>2016-04-06T10:47:29Z</time></trkpt>
<trkpt lat="25.112953" lon="101.827509">
<time>2016-04-06T10:47:30Z</time></trkpt>
<trkpt lat="25.112913" lon="101.827459">
<time>2016-04-06T10:47:31Z</time></trkpt>
<trkpt lat="25.112883" lon="101.827409">
<time>2016-04-06T10:47:32Z</time></trkpt>
<trkpt lat="25.112863" lon="101.827339">
<time>2016-04-06T10:47:33Z</time></trkpt>
<trkpt lat="25.112833" lon="101.827218">
<time>2016-04-06T10:47:34Z</time></trkpt>
<trkpt lat="25.112802" lon="101.826948">
<time>2016-04-06T10:47:35Z</time></trkpt>
<trkpt lat="25.112792" lon="101.826557">
<time>2016-04-06T10:47:36Z</time></trkpt>
<trkpt lat="25.112771" lon="101.826326">
<time>2016-04-06T10:47:37Z</time></trkpt>
<trkpt lat="25.112731" lon="101.826186">
<time>2016-04-06T10:47:38Z</time></trkpt>
<trkpt lat="25.112661" lon="101.826056">
<time>2016-04-06T10:47:39Z</time></trkpt>
<trkpt lat="25.112601" lon="101.825965">
<time>2016-04-06T10:47:40Z</time></trkpt>
<trkpt lat="25.11247" lon="101.825835">
<time>2016-04-06T10:47:41Z</time></trkpt>
<trkpt lat="25.11231" lon="101.825705">
<time>2016-04-06T10:47:42Z</time></trkpt>
<trkpt lat="25.11208" lon="101.825544">
<time>2016-04-06T10:47:43Z</time></trkpt>
<trkpt lat="25.1119" lon="101.825454">
<time>2016-04-06T10:47:44Z</time></trkpt>
<trkpt lat="25.111699" lon="101.825364">
<time>2016-04-06T10:47:45Z</time></trkpt>
<trkpt lat="25.111429" lon="101.825244">
<time>2016-04-06T10:47:46Z</time></trkpt>
<trkpt lat="25.110949" lon="101.825073">
<time>2016-04-06T10:47:47Z</time></trkpt>
<trkpt lat="25.110709" lon="101.824973">
<time>2016-04-06T10:47:48Z</time></trkpt>
<trkpt lat="25.110439" lon="101.824823">
<time>2016-04-06T10:47:49Z</time></trkpt>
<trkpt lat="25.110258" lon="101.824693">
<time>2016-04-06T10:47:50Z</time></trkpt>
<trkpt lat="25.110088" lon="101.824532">
<time>2016-04-06T10:47:51Z</time></trkpt>
<trkpt lat="25.109878" lon="101.824322">
<time>2016-04-06T10:47:52Z</time></trkpt>
<trkpt lat="25.109667" lon="101.824101">
<time>2016-04-06T10:47:53Z</time></trkpt>
<trkpt lat="25.109547" lon="101.823971">
<time>2016-04-06T10:47:54Z</time></trkpt>
<trkpt lat="25.109457" lon="101.82381">
<time>2016-04-06T10:47:55Z</time></trkpt>
<trkpt lat="25.109376" lon="101.82364">
<time>2016-04-06T10:47:56Z</time></trkpt>
<trkpt lat="25.109286" lon="101.82345">
<time>2016-04-06T10:47:57Z</time></trkpt>
<trkpt lat="25.109226" lon="101.823299">
<time>2016-04-06T10:47:58Z</time></trkpt>
<trkpt lat="25.109165" lon="101.823099">
<time>2016-04-06T10:47:59Z</time></trkpt>
<trkpt lat="25.109155" lon="101.822908">
<time>2016-04-06T10:48:00Z</time></trkpt>
<trkpt lat="25.109165" lon="101.822698">
<time>2016-04-06T10:48:01Z</time></trkpt>
<trkpt lat="25.109214" lon="101.822467">
<time>2016-04-06T10:48:02Z</time></trkpt>
<trkpt lat="25.109284" lon="101.822227">
<time>2016-04-06T10:48:03Z</time></trkpt>
<trkpt lat="25.109303" lon="101.822086">
<time>2016-04-06T10:48:04Z</time></trkpt>
<trkpt lat="25.109303" lon="101.821976">
<time>2016-04-06T10:48:05Z</time></trkpt>
<trkpt lat="25.109293" lon="101.821866">
<time>2016-04-06T10:48:06Z</time></trkpt>
<trkpt lat="25.109233" lon="101.821766">
<time>2016-04-06T10:48:07Z</time></trkpt>
<trkpt lat="25.109153" lon="101.821706">
<time>2016-04-06T10:48:08Z</time></trkpt>
<trkpt lat="25.109063" lon="101.821676">
<time>2016-04-06T10:48:09Z</time></trkpt>
<trkpt lat="25.108953" lon="101.821676">
<time>2016-04-06T10:48:10Z</time></trkpt>
<trkpt lat="25.108763" lon="101.821696">
<time>2016-04-06T10:48:11Z</time></trkpt>
<trkpt lat="25.108613" lon="101.821716">
<time>2016-04-06T10:48:12Z</time></trkpt>
<trkpt lat="25.108463" lon="101.821726">
<time>2016-04-06T10:48:13Z</time></trkpt>
<trkpt lat="25.108333" lon="101.821716">
<time>2016-04-06T10:48:14Z</time></trkpt>
<trkpt lat="25.108223" lon="101.821686">
<time>2016-04-06T10:48:15Z</time></trkpt>
<trkpt lat="25.108123" lon="101.821625">
<time>2016-04-06T10:48:16Z</time></trkpt>
<trkpt lat="25.108013" lon="101.821515">
<time>2016-04-06T10:48:17Z</time></trkpt>
<trkpt lat="25.107922" lon="101.821415">
<time>2016-04-06T10:48:18Z</time></trkpt>
<trkpt lat="25.107752" lon="101.821124">
<time>2016-04-06T10:48:19Z</time></trkpt>
<trkpt lat="25.107431" lon="101.820483">
<time>2016-04-06T10:48:20Z</time></trkpt>
<trkpt lat="25.1073" lon="101.820192">
<time>2016-04-06T10:48:21Z</time></trkpt>
<trkpt lat="25.10722" lon="101.819952">
<time>2016-04-06T10:48:22Z</time></trkpt>
<trkpt lat="25.107189" lon="101.819811">
<time>2016-04-06T10:48:23Z</time></trkpt>
<trkpt lat="25.107179" lon="101.819641">
<time>2016-04-06T10:48:24Z</time></trkpt>
<trkpt lat="25.107179" lon="101.81938">
<time>2016-04-06T10:48:25Z</time></trkpt>
<trkpt lat="25.107178" lon="101.81926">
<time>2016-04-06T10:48:26Z</time></trkpt>
<trkpt lat="25.107168" lon="101.81916">
<time>2016-04-06T10:48:27Z</time></trkpt>
<trkpt lat="25.107138" lon="101.819029">
<time>2016-04-06T10:48:28Z</time></trkpt>
<trkpt lat="25.107108" lon="101.818929">
<time>2016-04-06T10:48:29Z</time></trkpt>
<trkpt lat="25.107058" lon="101.818849">
<time>2016-04-06T10:48:30Z</time></trkpt>
<trkpt lat="25.106997" lon="101.818779">
<time>2016-04-06T10:48:31Z</time></trkpt>
<trkpt lat="25.106907" lon="101.818709">
<time>2016-04-06T10:48:32Z</time></trkpt>
<trkpt lat="25.106747" lon="101.818608">
<time>2016-04-06T10:48:33Z</time></trkpt>
<trkpt lat="25.106547" lon="101.818498">
<time>2016-04-06T10:48:34Z</time></trkpt>
<trkpt lat="25.106407" lon="101.818448">
<time>2016-04-06T10:48:35Z</time></trkpt>
<trkpt lat="25.106277" lon="101.818418">
<time>2016-04-06T10:48:36Z</time></trkpt>
<trkpt lat="25.106167" lon="101.818388">
<time>2016-04-06T10:48:37Z</time></trkpt>
<trkpt lat="25.106047" lon="101.818378">
<time>2016-04-06T10:48:38Z</time></trkpt>
<trkpt lat="25.105877" lon="101.818378">
<time>2016-04-06T10:48:39Z</time></trkpt>
<trkpt lat="25.105727" lon="101.818368">
<time>2016-04-06T10:48:40Z</time></trkpt>
<trkpt lat="25.105647" lon="101.818358">
<time>2016-04-06T10:48:41Z</time></trkpt>
<trkpt lat="25.105577" lon="101.818348">
<time>2016-04-06T10:48:42Z</time></trkpt>
<trkpt lat="25.105507" lon="101.818318">
<time>2016-04-06T10:48:43Z</time></trkpt>
<trkpt lat="25.105427" lon="101.818278">
<time>2016-04-06T10:48:44Z</time></trkpt>
<trkpt lat="25.105327" lon="101.818188">
<time>2016-04-06T10:48:45Z</time></trkpt>
<trkpt lat="25.105276" lon="101.818127">
<time>2016-04-06T10:48:46Z</time></trkpt>
<trkpt lat="25.105236" lon="101.818047">
<time>2016-04-06T10:48:47Z</time></trkpt>
<trkpt lat="25.105206" lon="101.817947">
<time>2016-04-06T10:48:48Z</time></trkpt>
<trkpt lat="25.105186" lon="101.817827">
<time>2016-04-06T10:48:49Z</time></trkpt>
<trkpt lat="25.105176" lon="101.817716">
<time>2016-04-06T10:48:50Z</time></trkpt>
<trkpt lat="25.105175" lon="101.817466">
<time>2016-04-06T10:48:51Z</time></trkpt>
<trkpt lat="25.105195" lon="101.817346">
<time>2016-04-06T10:48:52Z</time></trkpt>
<trkpt lat="25.105245" lon="101.817155">
<time>2016-04-06T10:48:53Z</time></trkpt>
<trkpt lat="25.105284" lon="101.816995">
<time>2016-04-06T10:48:54Z</time></trkpt>
<trkpt lat="25.105344" lon="101.816834">
<time>2016-04-06T10:48:55Z</time></trkpt>
<trkpt lat="25.105404" lon="101.816684">
<time>2016-04-06T10:48:56Z</time></trkpt>
<trkpt lat="25.105513" lon="101.816464">
<time>2016-04-06T10:48:57Z</time></trkpt>
<trkpt lat="25.105613" lon="101.816263">
<time>2016-04-06T10:48:58Z</time></trkpt>
<trkpt lat="25.105683" lon="101.816143">
<time>2016-04-06T10:48:59Z</time></trkpt>
<trkpt lat="25.105742" lon="101.816033">
<time>2016-04-06T10:49:00Z</time></trkpt>
<trkpt lat="25.105772" lon="101.815952">
<time>2016-04-06T10:49:01Z</time></trkpt>
<trkpt lat="25.105812" lon="101.815852">
<time>2016-04-06T10:49:02Z</time></trkpt>
<trkpt lat="25.105842" lon="101.815762">
<time>2016-04-06T10:49:03Z</time></trkpt>
<trkpt lat="25.105852" lon="101.815692">
<time>2016-04-06T10:49:04Z</time></trkpt>
<trkpt lat="25.105862" lon="101.815632">
<time>2016-04-06T10:49:05Z</time></trkpt>
<trkpt lat="25.105862" lon="101.815571">
<time>2016-04-06T10:49:06Z</time></trkpt>
<trkpt lat="25.105852" lon="101.815501">
<time>2016-04-06T10:49:07Z</time></trkpt>
<trkpt lat="25.105821" lon="101.815431">
<time>2016-04-06T10:49:08Z</time></trkpt>
<trkpt lat="25.105771" lon="101.815341">
<time>2016-04-06T10:49:09Z</time></trkpt>
<trkpt lat="25.105711" lon="101.815261">
<time>2016-04-06T10:49:10Z</time></trkpt>
<trkpt lat="25.105641" lon="101.815181">
<time>2016-04-06T10:49:11Z</time></trkpt>
<trkpt lat="25.105521" lon="101.81504">
<time>2016-04-06T10:49:12Z</time></trkpt>
<trkpt lat="25.105471" lon="101.81498">
<time>2016-04-06T10:49:13Z</time></trkpt>
<trkpt lat="25.10534" lon="101.81483">
<time>2016-04-06T10:49:14Z</time></trkpt>
<trkpt lat="25.10514" lon="101.814609">
<time>2016-04-06T10:49:15Z</time></trkpt>
<trkpt lat="25.10497" lon="101.814419">
<time>2016-04-06T10:49:16Z</time></trkpt>
<trkpt lat="25.104739" lon="101.814148">
<time>2016-04-06T10:49:17Z</time></trkpt>
<trkpt lat="25.104649" lon="101.814018">
<time>2016-04-06T10:49:18Z</time></trkpt>
<trkpt lat="25.104619" lon="101.813968">
<time>2016-04-06T10:49:19Z</time></trkpt>
<trkpt lat="25.104579" lon="101.813898">
<time>2016-04-06T10:49:20Z</time></trkpt>
<trkpt lat="25.104529" lon="101.813808">
<time>2016-04-06T10:49:21Z</time></trkpt>
<trkpt lat="25.104508" lon="101.813737">
<time>2016-04-06T10:49:22Z</time></trkpt>
<trkpt lat="25.104488" lon="101.813687">
<time>2016-04-06T10:49:23Z</time></trkpt>
<trkpt lat="25.104478" lon="101.813597">
<time>2016-04-06T10:49:24Z</time></trkpt>
<trkpt lat="25.104448" lon="101.813497">
<time>2016-04-06T10:49:25Z</time></trkpt>
<trkpt lat="25.104418" lon="101.813336">
<time>2016-04-06T10:49:26Z</time></trkpt>
<trkpt lat="25.104397" lon="101.813206">
<time>2016-04-06T10:49:27Z</time></trkpt>
<trkpt lat="25.104367" lon="101.813026">
<time>2016-04-06T10:49:28Z</time></trkpt>
<trkpt lat="25.104337" lon="101.812865">
<time>2016-04-06T10:49:29Z</time></trkpt>
<trkpt lat="25.104306" lon="101.812685">
<time>2016-04-06T10:49:30Z</time></trkpt>
<trkpt lat="25.104266" lon="101.812454">
<time>2016-04-06T10:49:31Z</time></trkpt>
<trkpt lat="25.104216" lon="101.812264">
<time>2016-04-06T10:49:32Z</time></trkpt>
<trkpt lat="25.104206" lon="101.812224">
<time>2016-04-06T10:49:33Z</time></trkpt>
<trkpt lat="25.104155" lon="101.811993">
<time>2016-04-06T10:49:34Z</time></trkpt>
<trkpt lat="25.104115" lon="101.811863">
<time>2016-04-06T10:49:35Z</time></trkpt>
<trkpt lat="25.104055" lon="101.811693">
<time>2016-04-06T10:49:36Z</time></trkpt>
<trkpt lat="25.104004" lon="101.811542">
<time>2016-04-06T10:49:37Z</time></trkpt>
<trkpt lat="25.103964" lon="101.811432">
<time>2016-04-06T10:49:38Z</time></trkpt>
<trkpt lat="25.103924" lon="101.811302">
<time>2016-04-06T10:49:39Z</time></trkpt>
<trkpt lat="25.103834" lon="101.811081">
<time>2016-04-06T10:49:40Z</time></trkpt>
<trkpt lat="25.103773" lon="101.810921">
<time>2016-04-06T10:49:41Z</time></trkpt>
<trkpt lat="25.103743" lon="101.810831">
<time>2016-04-06T10:49:42Z</time></trkpt>
<trkpt lat="25.103663" lon="101.81062">
<time>2016-04-06T10:49:43Z</time></trkpt>
<trkpt lat="25.103552" lon="101.81033">
<time>2016-04-06T10:49:44Z</time></trkpt>
<trkpt lat="25.103442" lon="101.810029">
<time>2016-04-06T10:49:45Z</time></trkpt>
<trkpt lat="25.103372" lon="101.809889">
<time>2016-04-06T10:49:46Z</time></trkpt>
<trkpt lat="25.103271" lon="101.809688">
<time>2016-04-06T10:49:47Z</time></trkpt>
<trkpt lat="25.103191" lon="101.809528">
<time>2016-04-06T10:49:48Z</time></trkpt>
<trkpt lat="25.10305" lon="101.809267">
<time>2016-04-06T10:49:49Z</time></trkpt>
<trkpt lat="25.10294" lon="101.809087">
<time>2016-04-06T10:49:50Z</time></trkpt>
<trkpt lat="25.10285" lon="101.808957">
<time>2016-04-06T10:49:51Z</time></trkpt>
<trkpt lat="25.10278" lon="101.808887">
<time>2016-04-06T10:49:52Z</time></trkpt>
<trkpt lat="25.10273" lon="101.808846">
<time>2016-04-06T10:49:53Z</time></trkpt>
<trkpt lat="25.10267" lon="101.808806">
<time>2016-04-06T10:49:54Z</time></trkpt>
<trkpt lat="25.1026" lon="101.808776">
<time>2016-04-06T10:49:55Z</time></trkpt>
<trkpt lat="25.10253" lon="101.808766">
<time>2016-04-06T10:49:56Z</time></trkpt>
<trkpt lat="25.10245" lon="101.808756">
<time>2016-04-06T10:49:57Z</time></trkpt>
<trkpt lat="25.10237" lon="101.808756">
<time>2016-04-06T10:49:58Z</time></trkpt>
<trkpt lat="25.10223" lon="101.808766">
<time>2016-04-06T10:49:59Z</time></trkpt>
<trkpt lat="25.102" lon="101.808776">
<time>2016-04-06T10:50:00Z</time></trkpt>
<trkpt lat="25.10174" lon="101.808806">
<time>2016-04-06T10:50:01Z</time></trkpt>
<trkpt lat="25.1015" lon="101.808826">
<time>2016-04-06T10:50:02Z</time></trkpt>
<trkpt lat="25.10136" lon="101.808847">
<time>2016-04-06T10:50:03Z</time></trkpt>
<trkpt lat="25.10128" lon="101.808847">
<time>2016-04-06T10:50:04Z</time></trkpt>
<trkpt lat="25.10121" lon="101.808847">
<time>2016-04-06T10:50:05Z</time></trkpt>
<trkpt lat="25.10109" lon="101.808826">
<time>2016-04-06T10:50:06Z</time></trkpt>
<trkpt lat="25.10094" lon="101.808796">
<time>2016-04-06T10:50:07Z</time></trkpt>
<trkpt lat="25.10087" lon="101.808776">
<time>2016-04-06T10:50:08Z</time></trkpt>
<trkpt lat="25.10078" lon="101.808756">
<time>2016-04-06T10:50:09Z</time></trkpt>
<trkpt lat="25.10039" lon="101.808686">
<time>2016-04-06T10:50:10Z</time></trkpt>
<trkpt lat="25.10023" lon="101.808636">
<time>2016-04-06T10:50:11Z</time></trkpt>
<trkpt lat="25.10017" lon="101.808616">
<time>2016-04-06T10:50:12Z</time></trkpt>
<trkpt lat="25.10013" lon="101.808596">
<time>2016-04-06T10:50:13Z</time></trkpt>
<trkpt lat="25.100059" lon="101.808556">
<time>2016-04-06T10:50:14Z</time></trkpt>
<trkpt lat="25.099959" lon="101.808476">
<time>2016-04-06T10:50:15Z</time></trkpt>
<trkpt lat="25.099889" lon="101.808396">
<time>2016-04-06T10:50:16Z</time></trkpt>
<trkpt lat="25.099839" lon="101.808305">
<time>2016-04-06T10:50:17Z</time></trkpt>
<trkpt lat="25.099789" lon="101.808205">
<time>2016-04-06T10:50:18Z</time></trkpt>
<trkpt lat="25.099739" lon="101.808095">
<time>2016-04-06T10:50:19Z</time></trkpt>
<trkpt lat="25.099709" lon="101.807995">
<time>2016-04-06T10:50:20Z</time></trkpt>
<trkpt lat="25.099688" lon="101.807894">
<time>2016-04-06T10:50:21Z</time></trkpt>
<trkpt lat="25.099668" lon="101.807744">
<time>2016-04-06T10:50:22Z</time></trkpt>
<trkpt lat="25.099638" lon="101.807574">
<time>2016-04-06T10:50:23Z</time></trkpt>
<trkpt lat="25.099607" lon="101.807333">
<time>2016-04-06T10:50:24Z</time></trkpt>
<trkpt lat="25.099577" lon="101.807063">
<time>2016-04-06T10:50:25Z</time></trkpt>
<trkpt lat="25.099536" lon="101.806802">
<time>2016-04-06T10:50:26Z</time></trkpt>
<trkpt lat="25.099496" lon="101.806662">
<time>2016-04-06T10:50:27Z</time></trkpt>
<trkpt lat="25.099476" lon="101.806612">
<time>2016-04-06T10:50:28Z</time></trkpt>
<trkpt lat="25.099456" lon="101.806542">
<time>2016-04-06T10:50:29Z</time></trkpt>
<trkpt lat="25.099416" lon="101.806481">
<time>2016-04-06T10:50:30Z</time></trkpt>
<trkpt lat="25.099376" lon="101.806421">
<time>2016-04-06T10:50:31Z</time></trkpt>
<trkpt lat="25.099316" lon="101.806341">
<time>2016-04-06T10:50:32Z</time></trkpt>
<trkpt lat="25.099246" lon="101.806251">
<time>2016-04-06T10:50:33Z</time></trkpt>
<trkpt lat="25.099115" lon="101.806081">
<time>2016-04-06T10:50:34Z</time></trkpt>
<trkpt lat="25.098935" lon="101.80581">
<time>2016-04-06T10:50:35Z</time></trkpt>
<trkpt lat="25.098824" lon="101.80562">
<time>2016-04-06T10:50:36Z</time></trkpt>
<trkpt lat="25.098744" lon="101.805509">
<time>2016-04-06T10:50:37Z</time></trkpt>
<trkpt lat="25.098684" lon="101.805409">
<time>2016-04-06T10:50:38Z</time></trkpt>
<trkpt lat="25.098634" lon="101.805349">
<time>2016-04-06T10:50:39Z</time></trkpt>
<trkpt lat="25.098564" lon="101.805269">
<time>2016-04-06T10:50:40Z</time></trkpt>
<trkpt lat="25.098474" lon="101.805189">
<time>2016-04-06T10:50:41Z</time></trkpt>
<trkpt lat="25.098394" lon="101.805129">
<time>2016-04-06T10:50:42Z</time></trkpt>
<trkpt lat="25.098304" lon="101.805058">
<time>2016-04-06T10:50:43Z</time></trkpt>
<trkpt lat="25.098213" lon="101.805008">
<time>2016-04-06T10:50:44Z</time></trkpt>
<trkpt lat="25.098093" lon="101.804938">
<time>2016-04-06T10:50:45Z</time></trkpt>
<trkpt lat="25.097863" lon="101.804798">
<time>2016-04-06T10:50:46Z</time></trkpt>
<trkpt lat="25.097633" lon="101.804648">
<time>2016-04-06T10:50:47Z</time></trkpt>
<trkpt lat="25.097453" lon="101.804537">
<time>2016-04-06T10:50:48Z</time></trkpt>
<trkpt lat="25.097273" lon="101.804427">
<time>2016-04-06T10:50:49Z</time></trkpt>
<trkpt lat="25.097022" lon="101.804267">
<time>2016-04-06T10:50:50Z</time></trkpt>
<trkpt lat="25.096862" lon="101.804167">
<time>2016-04-06T10:50:51Z</time></trkpt>
<trkpt lat="25.096572" lon="101.803986">
<time>2016-04-06T10:50:52Z</time></trkpt>
<trkpt lat="25.096462" lon="101.803916">
<time>2016-04-06T10:50:53Z</time></trkpt>
<trkpt lat="25.096392" lon="101.803856">
<time>2016-04-06T10:50:54Z</time></trkpt>
<trkpt lat="25.096332" lon="101.803796">
<time>2016-04-06T10:50:55Z</time></trkpt>
<trkpt lat="25.096251" lon="101.803716">
<time>2016-04-06T10:50:56Z</time></trkpt>
<trkpt lat="25.096191" lon="101.803645">
<time>2016-04-06T10:50:57Z</time></trkpt>
<trkpt lat="25.096131" lon="101.803545">
<time>2016-04-06T10:50:58Z</time></trkpt>
<trkpt lat="25.096061" lon="101.803415">
<time>2016-04-06T10:50:59Z</time></trkpt>
<trkpt lat="25.095991" lon="101.803285">
<time>2016-04-06T10:51:00Z</time></trkpt>
<trkpt lat="25.095901" lon="101.803134">
<time>2016-04-06T10:51:01Z</time></trkpt>
<trkpt lat="25.09583" lon="101.803004">
<time>2016-04-06T10:51:02Z</time></trkpt>
<trkpt lat="25.09577" lon="101.802904">
<time>2016-04-06T10:51:03Z</time></trkpt>
<trkpt lat="25.09572" lon="101.802834">
<time>2016-04-06T10:51:04Z</time></trkpt>
<trkpt lat="25.09568" lon="101.802784">
<time>2016-04-06T10:51:05Z</time></trkpt>
<trkpt lat="25.09564" lon="101.802734">
<time>2016-04-06T10:51:06Z</time></trkpt>
<trkpt lat="25.0956" lon="101.802683">
<time>2016-04-06T10:51:07Z</time></trkpt>
<trkpt lat="25.09554" lon="101.802633">
<time>2016-04-06T10:51:08Z</time></trkpt>
<trkpt lat="25.0955" lon="101.802603">
<time>2016-04-06T10:51:09Z</time></trkpt>
<trkpt lat="25.09546" lon="101.802573">
<time>2016-04-06T10:51:10Z</time></trkpt>
<trkpt lat="25.09542" lon="101.802543">
<time>2016-04-06T10:51:11Z</time></trkpt>
<trkpt lat="25.09536" lon="101.802513">
<time>2016-04-06T10:51:12Z</time></trkpt>
<trkpt lat="25.095279" lon="101.802473">
<time>2016-04-06T10:51:13Z</time></trkpt>
<trkpt lat="25.095179" lon="101.802423">
<time>2016-04-06T10:51:14Z</time></trkpt>
<trkpt lat="25.095029" lon="101.802363">
<time>2016-04-06T10:51:15Z</time></trkpt>
<trkpt lat="25.094889" lon="101.802293">
<time>2016-04-06T10:51:16Z</time></trkpt>
<trkpt lat="25.094759" lon="101.802243">
<time>2016-04-06T10:51:17Z</time></trkpt>
<trkpt lat="25.094569" lon="101.802162">
<time>2016-04-06T10:51:18Z</time></trkpt>
<trkpt lat="25.094409" lon="101.802102">
<time>2016-04-06T10:51:19Z</time></trkpt>
<trkpt lat="25.094279" lon="101.802052">
<time>2016-04-06T10:51:20Z</time></trkpt>
<trkpt lat="25.093869" lon="101.801902">
<time>2016-04-06T10:51:21Z</time></trkpt>
<trkpt lat="25.093669" lon="101.801842">
<time>2016-04-06T10:51:22Z</time></trkpt>
<trkpt lat="25.093488" lon="101.801762">
<time>2016-04-06T10:51:23Z</time></trkpt>
<trkpt lat="25.093388" lon="101.801711">
<time>2016-04-06T10:51:24Z</time></trkpt>
<trkpt lat="25.093318" lon="101.801681">
<time>2016-04-06T10:51:25Z</time></trkpt>
<trkpt lat="25.093248" lon="101.801641">
<time>2016-04-06T10:51:26Z</time></trkpt>
<trkpt lat="25.093168" lon="101.801581">
<time>2016-04-06T10:51:27Z</time></trkpt>
<trkpt lat="25.092968" lon="101.801411">
<time>2016-04-06T10:51:28Z</time></trkpt>
<trkpt lat="25.092768" lon="101.80122">
<time>2016-04-06T10:51:29Z</time></trkpt>
<trkpt lat="25.092617" lon="101.80109">
<time>2016-04-06T10:51:30Z</time></trkpt>
<trkpt lat="25.092547" lon="101.80104">
<time>2016-04-06T10:51:31Z</time></trkpt>
<trkpt lat="25.092397" lon="101.80093">
<time>2016-04-06T10:51:32Z</time></trkpt>
<trkpt lat="25.092337" lon="101.80089">
<time>2016-04-06T10:51:33Z</time></trkpt>
<trkpt lat="25.092257" lon="101.80084">
<time>2016-04-06T10:51:34Z</time></trkpt>
<trkpt lat="25.092167" lon="101.80081">
<time>2016-04-06T10:51:35Z</time></trkpt>
<trkpt lat="25.092047" lon="101.80076">
<time>2016-04-06T10:51:36Z</time></trkpt>
<trkpt lat="25.091977" lon="101.80074">
<time>2016-04-06T10:51:37Z</time></trkpt>
<trkpt lat="25.091787" lon="101.800689">
<time>2016-04-06T10:51:38Z</time></trkpt>
<trkpt lat="25.091637" lon="101.800659">
<time>2016-04-06T10:51:39Z</time></trkpt>
<trkpt lat="25.091257" lon="101.800569">
<time>2016-04-06T10:51:40Z</time></trkpt>
<trkpt lat="25.090617" lon="101.800449">
<time>2016-04-06T10:51:41Z</time></trkpt>
<trkpt lat="25.090547" lon="101.800439">
<time>2016-04-06T10:51:42Z</time></trkpt>
<trkpt lat="25.090407" lon="101.800399">
<time>2016-04-06T10:51:43Z</time></trkpt>
<trkpt lat="25.090306" lon="101.800379">
<time>2016-04-06T10:51:44Z</time></trkpt>
<trkpt lat="25.090216" lon="101.800349">
<time>2016-04-06T10:51:45Z</time></trkpt>
<trkpt lat="25.090036" lon="101.800299">
<time>2016-04-06T10:51:46Z</time></trkpt>
<trkpt lat="25.089856" lon="101.800239">
<time>2016-04-06T10:51:47Z</time></trkpt>
<trkpt lat="25.089726" lon="101.800188">
<time>2016-04-06T10:51:48Z</time></trkpt>
<trkpt lat="25.089636" lon="101.800148">
<time>2016-04-06T10:51:49Z</time></trkpt>
<trkpt lat="25.089516" lon="101.800078">
<time>2016-04-06T10:51:50Z</time></trkpt>
<trkpt lat="25.089436" lon="101.800028">
<time>2016-04-06T10:51:51Z</time></trkpt>
<trkpt lat="25.089346" lon="101.799948">
<time>2016-04-06T10:51:52Z</time></trkpt>
<trkpt lat="25.089266" lon="101.799868">
<time>2016-04-06T10:51:53Z</time></trkpt>
<trkpt lat="25.089096" lon="101.799708">
<time>2016-04-06T10:51:54Z</time></trkpt>
<trkpt lat="25.089005" lon="101.799637">
<time>2016-04-06T10:51:55Z</time></trkpt>
<trkpt lat="25.088915" lon="101.799567">
<time>2016-04-06T10:51:56Z</time></trkpt>
<trkpt lat="25.088835" lon="101.799507">
<time>2016-04-06T10:51:57Z</time></trkpt>
<trkpt lat="25.088735" lon="101.799437">
<time>2016-04-06T10:51:58Z</time></trkpt>
<trkpt lat="25.088625" lon="101.799387">
<time>2016-04-06T10:51:59Z</time></trkpt>
<trkpt lat="25.088555" lon="101.799357">
<time>2016-04-06T10:52:00Z</time></trkpt>
<trkpt lat="25.088445" lon="101.799327">
<time>2016-04-06T10:52:01Z</time></trkpt>
<trkpt lat="25.088355" lon="101.799307">
<time>2016-04-06T10:52:02Z</time></trkpt>
<trkpt lat="25.088285" lon="101.799307">
<time>2016-04-06T10:52:03Z</time></trkpt>
<trkpt lat="25.088205" lon="101.799307">
<time>2016-04-06T10:52:04Z</time></trkpt>
<trkpt lat="25.088125" lon="101.799317">
<time>2016-04-06T10:52:05Z</time></trkpt>
<trkpt lat="25.088065" lon="101.799317">
<time>2016-04-06T10:52:06Z</time></trkpt>
<trkpt lat="25.087995" lon="101.799327">
<time>2016-04-06T10:52:07Z</time></trkpt>
<trkpt lat="25.087905" lon="101.799347">
<time>2016-04-06T10:52:08Z</time></trkpt>
<trkpt lat="25.087775" lon="101.799387">
<time>2016-04-06T10:52:09Z</time></trkpt>
<trkpt lat="25.087565" lon="101.799457">
<time>2016-04-06T10:52:10Z</time></trkpt>
<trkpt lat="25.087315" lon="101.799537">
<time>2016-04-06T10:52:11Z</time></trkpt>
<trkpt lat="25.087156" lon="101.799587">
<time>2016-04-06T10:52:12Z</time></trkpt>
<trkpt lat="25.087006" lon="101.799647">
<time>2016-04-06T10:52:13Z</time></trkpt>
<trkpt lat="25.086916" lon="101.799698">
<time>2016-04-06T10:52:14Z</time></trkpt>
<trkpt lat="25.086836" lon="101.799758">
<time>2016-04-06T10:52:15Z</time></trkpt>
<trkpt lat="25.086736" lon="101.799838">
<time>2016-04-06T10:52:16Z</time></trkpt>
<trkpt lat="25.086646" lon="101.799938">
<time>2016-04-06T10:52:17Z</time></trkpt>
<trkpt lat="25.086566" lon="101.800048">
<time>2016-04-06T10:52:18Z</time></trkpt>
<trkpt lat="25.086427" lon="101.800249">
<time>2016-04-06T10:52:19Z</time></trkpt>
<trkpt lat="25.086337" lon="101.800389">
<time>2016-04-06T10:52:20Z</time></trkpt>
<trkpt lat="25.086018" lon="101.80089">
<time>2016-04-06T10:52:21Z</time></trkpt>
<trkpt lat="25.085808" lon="101.801231">
<time>2016-04-06T10:52:22Z</time></trkpt>
<trkpt lat="25.085559" lon="101.801612">
<time>2016-04-06T10:52:23Z</time></trkpt>
<trkpt lat="25.085449" lon="101.801762">
<time>2016-04-06T10:52:24Z</time></trkpt>
<trkpt lat="25.085399" lon="101.801832">
<time>2016-04-06T10:52:25Z</time></trkpt>
<trkpt lat="25.085349" lon="101.801892">
<time>2016-04-06T10:52:26Z</time></trkpt>
<trkpt lat="25.0853" lon="101.801932">
<time>2016-04-06T10:52:27Z</time></trkpt>
<trkpt lat="25.08526" lon="101.801962">
<time>2016-04-06T10:52:28Z</time></trkpt>
<trkpt lat="25.08521" lon="101.801992">
<time>2016-04-06T10:52:29Z</time></trkpt>
<trkpt lat="25.08518" lon="101.802002">
<time>2016-04-06T10:52:30Z</time></trkpt>
<trkpt lat="25.08512" lon="101.802012">
<time>2016-04-06T10:52:31Z</time></trkpt>
<trkpt lat="25.08507" lon="101.802012">
<time>2016-04-06T10:52:32Z</time></trkpt>
<trkpt lat="25.08501" lon="101.802012">
<time>2016-04-06T10:52:33Z</time></trkpt>
<trkpt lat="25.0849" lon="101.802002">
<time>2016-04-06T10:52:34Z</time></trkpt>
<trkpt lat="25.08479" lon="101.801992">
<time>2016-04-06T10:52:35Z</time></trkpt>
<trkpt lat="25.08468" lon="101.801972">
<time>2016-04-06T10:52:36Z</time></trkpt>
<trkpt lat="25.08463" lon="101.801972">
<time>2016-04-06T10:52:37Z</time></trkpt>
<trkpt lat="25.08458" lon="101.801972">
<time>2016-04-06T10:52:38Z</time></trkpt>
<trkpt lat="25.0845" lon="101.801982">
<time>2016-04-06T10:52:39Z</time></trkpt>
<trkpt lat="25.08439" lon="101.802002">
<time>2016-04-06T10:52:40Z</time></trkpt>
<trkpt lat="25.08421" lon="101.802052">
<time>2016-04-06T10:52:41Z</time></trkpt>
<trkpt lat="25.08402" lon="101.802103">
<time>2016-04-06T10:52:42Z</time></trkpt>
<trkpt lat="25.08387" lon="101.802143">
<time>2016-04-06T10:52:43Z</time></trkpt>
<trkpt lat="25.08375" lon="101.802183">
<time>2016-04-06T10:52:44Z</time></trkpt>
<trkpt lat="25.08361" lon="101.802213">
<time>2016-04-06T10:52:45Z</time></trkpt>
<trkpt lat="25.08353" lon="101.802233">
<time>2016-04-06T10:52:46Z</time></trkpt>
<trkpt lat="25.08342" lon="101.802253">
<time>2016-04-06T10:52:47Z</time></trkpt>
<trkpt lat="25.08335" lon="101.802263">
<time>2016-04-06T10:52:48Z</time></trkpt>
<trkpt lat="25.08312" lon="101.802293">
<time>2016-04-06T10:52:49Z</time></trkpt>
<trkpt lat="25.08299" lon="101.802303">
<time>2016-04-06T10:52:50Z</time></trkpt>
<trkpt lat="25.08285" lon="101.802293">
<time>2016-04-06T10:52:51Z</time></trkpt>
<trkpt lat="25.08274" lon="101.802293">
<time>2016-04-06T10:52:52Z</time></trkpt>
<trkpt lat="25.08259" lon="101.802263">
<time>2016-04-06T10:52:53Z</time></trkpt>
<trkpt lat="25.08247" lon="101.802223">
<time>2016-04-06T10:52:54Z</time></trkpt>
<trkpt lat="25.0823" lon="101.802133">
<time>2016-04-06T10:52:55Z</time></trkpt>
<trkpt lat="25.08191" lon="101.801872">
<time>2016-04-06T10:52:56Z</time></trkpt>
<trkpt lat="25.081199" lon="101.801401">
<time>2016-04-06T10:52:57Z</time></trkpt>
<trkpt lat="25.081109" lon="101.801331">
<time>2016-04-06T10:52:58Z</time></trkpt>
<trkpt lat="25.081029" lon="101.801251">
<time>2016-04-06T10:52:59Z</time></trkpt>
<trkpt lat="25.080949" lon="101.801161">
<time>2016-04-06T10:53:00Z</time></trkpt>
<trkpt lat="25.080899" lon="101.801071">
<time>2016-04-06T10:53:01Z</time></trkpt>
<trkpt lat="25.080858" lon="101.80098">
<time>2016-04-06T10:53:02Z</time></trkpt>
<trkpt lat="25.080768" lon="101.80075">
<time>2016-04-06T10:53:03Z</time></trkpt>
<trkpt lat="25.080658" lon="101.800479">
<time>2016-04-06T10:53:04Z</time></trkpt>
<trkpt lat="25.080527" lon="101.800259">
<time>2016-04-06T10:53:05Z</time></trkpt>
<trkpt lat="25.080377" lon="101.800099">
<time>2016-04-06T10:53:06Z</time></trkpt>
<trkpt lat="25.080067" lon="101.799928">
<time>2016-04-06T10:53:07Z</time></trkpt>
<trkpt lat="25.079877" lon="101.799808">
<time>2016-04-06T10:53:08Z</time></trkpt>
<trkpt lat="25.079686" lon="101.799678">
<time>2016-04-06T10:53:09Z</time></trkpt>
<trkpt lat="25.079476" lon="101.799497">
<time>2016-04-06T10:53:10Z</time></trkpt>
<trkpt lat="25.078665" lon="101.798746">
<time>2016-04-06T10:53:11Z</time></trkpt>
<trkpt lat="25.078485" lon="101.798616">
<time>2016-04-06T10:53:12Z</time></trkpt>
<trkpt lat="25.078255" lon="101.798475">
<time>2016-04-06T10:53:13Z</time></trkpt>
<trkpt lat="25.078004" lon="101.798375">
<time>2016-04-06T10:53:14Z</time></trkpt>
<trkpt lat="25.077734" lon="101.798285">
<time>2016-04-06T10:53:15Z</time></trkpt>
<trkpt lat="25.077424" lon="101.798165">
<time>2016-04-06T10:53:16Z</time></trkpt>
<trkpt lat="25.076824" lon="101.797844">
<time>2016-04-06T10:53:17Z</time></trkpt>
<trkpt lat="25.076383" lon="101.797604">
<time>2016-04-06T10:53:18Z</time></trkpt>
<trkpt lat="25.076273" lon="101.797554">
<time>2016-04-06T10:53:19Z</time></trkpt>
<trkpt lat="25.076153" lon="101.797503">
<time>2016-04-06T10:53:20Z</time></trkpt>
<trkpt lat="25.076083" lon="101.797483">
<time>2016-04-06T10:53:21Z</time></trkpt>
<trkpt lat="25.076003" lon="101.797463">
<time>2016-04-06T10:53:22Z</time></trkpt>
<trkpt lat="25.075933" lon="101.797453">
<time>2016-04-06T10:53:23Z</time></trkpt>
<trkpt lat="25.075853" lon="101.797453">
<time>2016-04-06T10:53:24Z</time></trkpt>
<trkpt lat="25.075803" lon="101.797453">
<time>2016-04-06T10:53:25Z</time></trkpt>
<trkpt lat="25.075753" lon="101.797463">
<time>2016-04-06T10:53:26Z</time></trkpt>
<trkpt lat="25.075673" lon="101.797483">
<time>2016-04-06T10:53:27Z</time></trkpt>
<trkpt lat="25.075573" lon="101.797514">
<time>2016-04-06T10:53:28Z</time></trkpt>
<trkpt lat="25.075393" lon="101.797574">
<time>2016-04-06T10:53:29Z</time></trkpt>
<trkpt lat="25.075124" lon="101.797684">
<time>2016-04-06T10:53:30Z</time></trkpt>
<trkpt lat="25.075004" lon="101.797734">
<time>2016-04-06T10:53:31Z</time></trkpt>
<trkpt lat="25.074814" lon="101.797834">
<time>2016-04-06T10:53:32Z</time></trkpt>
<trkpt lat="25.074694" lon="101.797954">
<time>2016-04-06T10:53:33Z</time></trkpt>
<trkpt lat="25.074594" lon="101.798105">
<time>2016-04-06T10:53:34Z</time></trkpt>
<trkpt lat="25.074475" lon="101.798275">
<time>2016-04-06T10:53:35Z</time></trkpt>
<trkpt lat="25.074305" lon="101.798465">
<time>2016-04-06T10:53:36Z</time></trkpt>
<trkpt lat="25.074125" lon="101.798616">
<time>2016-04-06T10:53:37Z</time></trkpt>
<trkpt lat="25.073985" lon="101.798686">
<time>2016-04-06T10:53:38Z</time></trkpt>
<trkpt lat="25.073845" lon="101.798746">
<time>2016-04-06T10:53:39Z</time></trkpt>
<trkpt lat="25.073716" lon="101.798786">
<time>2016-04-06T10:53:40Z</time></trkpt>
<trkpt lat="25.073606" lon="101.798806">
<time>2016-04-06T10:53:41Z</time></trkpt>
<trkpt lat="25.073496" lon="101.798816">
<time>2016-04-06T10:53:42Z</time></trkpt>
<trkpt lat="25.073396" lon="101.798816">
<time>2016-04-06T10:53:43Z</time></trkpt>
<trkpt lat="25.073226" lon="101.798796">
<time>2016-04-06T10:53:44Z</time></trkpt>
<trkpt lat="25.073126" lon="101.798776">
<time>2016-04-06T10:53:45Z</time></trkpt>
<trkpt lat="25.072986" lon="101.798716">
<time>2016-04-06T10:53:46Z</time></trkpt>
<trkpt lat="25.072825" lon="101.798596">
<time>2016-04-06T10:53:47Z</time></trkpt>
<trkpt lat="25.072535" lon="101.798365">
<time>2016-04-06T10:53:48Z</time></trkpt>
<trkpt lat="25.072275" lon="101.798125">
<time>2016-04-06T10:53:49Z</time></trkpt>
<trkpt lat="25.072044" lon="101.797914">
<time>2016-04-06T10:53:50Z</time></trkpt>
<trkpt lat="25.071944" lon="101.797824">
<time>2016-04-06T10:53:51Z</time></trkpt>
<trkpt lat="25.071854" lon="101.797714">
<time>2016-04-06T10:53:52Z</time></trkpt>
<trkpt lat="25.071784" lon="101.797574">
<time>2016-04-06T10:53:53Z</time></trkpt>
<trkpt lat="25.071754" lon="101.797433">
<time>2016-04-06T10:53:54Z</time></trkpt>
<trkpt lat="25.071743" lon="101.797273">
<time>2016-04-06T10:53:55Z</time></trkpt>
<trkpt lat="25.071743" lon="101.797133">
<time>2016-04-06T10:53:56Z</time></trkpt>
<trkpt lat="25.07185" lon="101.795089">
<time>2016-04-06T10:53:57Z</time></trkpt>
<trkpt lat="25.071908" lon="101.793987">
<time>2016-04-06T10:53:58Z</time></trkpt>
<trkpt lat="25.071957" lon="101.793376">
<time>2016-04-06T10:53:59Z</time></trkpt>
<trkpt lat="25.072007" lon="101.793085">
<time>2016-04-06T10:54:00Z</time></trkpt>
<trkpt lat="25.072057" lon="101.792825">
<time>2016-04-06T10:54:01Z</time></trkpt>
<trkpt lat="25.072076" lon="101.792734">
<time>2016-04-06T10:54:02Z</time></trkpt>
<trkpt lat="25.072096" lon="101.792634">
<time>2016-04-06T10:54:03Z</time></trkpt>
<trkpt lat="25.072106" lon="101.792584">
<time>2016-04-06T10:54:04Z</time></trkpt>
<trkpt lat="25.072106" lon="101.792524">
<time>2016-04-06T10:54:05Z</time></trkpt>
<trkpt lat="25.072106" lon="101.792474">
<time>2016-04-06T10:54:06Z</time></trkpt>
<trkpt lat="25.072096" lon="101.792404">
<time>2016-04-06T10:54:07Z</time></trkpt>
<trkpt lat="25.072056" lon="101.792314">
<time>2016-04-06T10:54:08Z</time></trkpt>
<trkpt lat="25.072006" lon="101.792234">
<time>2016-04-06T10:54:09Z</time></trkpt>
<trkpt lat="25.071946" lon="101.792143">
<time>2016-04-06T10:54:10Z</time></trkpt>
<trkpt lat="25.071805" lon="101.791993">
<time>2016-04-06T10:54:11Z</time></trkpt>
<trkpt lat="25.071615" lon="101.791803">
<time>2016-04-06T10:54:12Z</time></trkpt>
<trkpt lat="25.071205" lon="101.791402">
<time>2016-04-06T10:54:13Z</time></trkpt>
<trkpt lat="25.070974" lon="101.791152">
<time>2016-04-06T10:54:14Z</time></trkpt>
<trkpt lat="25.070804" lon="101.790891">
<time>2016-04-06T10:54:15Z</time></trkpt>
<trkpt lat="25.070654" lon="101.790671">
<time>2016-04-06T10:54:16Z</time></trkpt>
<trkpt lat="25.070423" lon="101.79038">
<time>2016-04-06T10:54:17Z</time></trkpt>
<trkpt lat="25.070153" lon="101.79012">
<time>2016-04-06T10:54:18Z</time></trkpt>
<trkpt lat="25.069893" lon="101.789859">
<time>2016-04-06T10:54:19Z</time></trkpt>
<trkpt lat="25.069672" lon="101.789659">
<time>2016-04-06T10:54:20Z</time></trkpt>
<trkpt lat="25.069352" lon="101.789368">
<time>2016-04-06T10:54:21Z</time></trkpt>
<trkpt lat="25.069152" lon="101.789208">
<time>2016-04-06T10:54:22Z</time></trkpt>
<trkpt lat="25.068842" lon="101.789008">
<time>2016-04-06T10:54:23Z</time></trkpt>
<trkpt lat="25.068591" lon="101.788888">
<time>2016-04-06T10:54:24Z</time></trkpt>
<trkpt lat="25.068301" lon="101.788747">
<time>2016-04-06T10:54:25Z</time></trkpt>
<trkpt lat="25.068011" lon="101.788607">
<time>2016-04-06T10:54:26Z</time></trkpt>
<trkpt lat="25.067701" lon="101.788477">
<time>2016-04-06T10:54:27Z</time></trkpt>
<trkpt lat="25.067481" lon="101.788367">
<time>2016-04-06T10:54:28Z</time></trkpt>
<trkpt lat="25.067361" lon="101.788307">
<time>2016-04-06T10:54:29Z</time></trkpt>
<trkpt lat="25.067211" lon="101.788196">
<time>2016-04-06T10:54:30Z</time></trkpt>
<trkpt lat="25.06706" lon="101.788006">
<time>2016-04-06T10:54:31Z</time></trkpt>
<trkpt lat="25.06683" lon="101.787676">
<time>2016-04-06T10:54:32Z</time></trkpt>
<trkpt lat="25.0667" lon="101.787475">
<time>2016-04-06T10:54:33Z</time></trkpt>
<trkpt lat="25.066589" lon="101.787295">
<time>2016-04-06T10:54:34Z</time></trkpt>
<trkpt lat="25.066509" lon="101.787065">
<time>2016-04-06T10:54:35Z</time></trkpt>
<trkpt lat="25.066469" lon="101.786894">
<time>2016-04-06T10:54:36Z</time></trkpt>
<trkpt lat="25.066419" lon="101.786694">
<time>2016-04-06T10:54:37Z</time></trkpt>
<trkpt lat="25.066348" lon="101.786474">
<time>2016-04-06T10:54:38Z</time></trkpt>
<trkpt lat="25.066288" lon="101.786383">
<time>2016-04-06T10:54:39Z</time></trkpt>
<trkpt lat="25.066238" lon="101.786323">
<time>2016-04-06T10:54:40Z</time></trkpt>
<trkpt lat="25.066198" lon="101.786273">
<time>2016-04-06T10:54:41Z</time></trkpt>
<trkpt lat="25.066118" lon="101.786233">
<time>2016-04-06T10:54:42Z</time></trkpt>
<trkpt lat="25.066028" lon="101.786213">
<time>2016-04-06T10:54:43Z</time></trkpt>
<trkpt lat="25.065958" lon="101.786193">
<time>2016-04-06T10:54:44Z</time></trkpt>
<trkpt lat="25.065848" lon="101.786183">
<time>2016-04-06T10:54:45Z</time></trkpt>
<trkpt lat="25.065748" lon="101.786163">
<time>2016-04-06T10:54:46Z</time></trkpt>
<trkpt lat="25.065658" lon="101.786143">
<time>2016-04-06T10:54:47Z</time></trkpt>
<trkpt lat="25.065548" lon="101.786113">
<time>2016-04-06T10:54:48Z</time></trkpt>
<trkpt lat="25.065458" lon="101.786073">
<time>2016-04-06T10:54:49Z</time></trkpt>
<trkpt lat="25.065348" lon="101.785983">
<time>2016-04-06T10:54:50Z</time></trkpt>
<trkpt lat="25.065258" lon="101.785883">
<time>2016-04-06T10:54:51Z</time></trkpt>
<trkpt lat="25.065188" lon="101.785782">
<time>2016-04-06T10:54:52Z</time></trkpt>
<trkpt lat="25.065098" lon="101.785682">
<time>2016-04-06T10:54:53Z</time></trkpt>
<trkpt lat="25.065017" lon="101.785572">
<time>2016-04-06T10:54:54Z</time></trkpt>
<trkpt lat="25.064957" lon="101.785502">
<time>2016-04-06T10:54:55Z</time></trkpt>
<trkpt lat="25.064907" lon="101.785412">
<time>2016-04-06T10:54:56Z</time></trkpt>
<trkpt lat="25.064887" lon="101.785342">
<time>2016-04-06T10:54:57Z</time></trkpt>
<trkpt lat="25.064877" lon="101.785282">
<time>2016-04-06T10:54:58Z</time></trkpt>
<trkpt lat="25.064877" lon="101.785192">
<time>2016-04-06T10:54:59Z</time></trkpt>
<trkpt lat="25.064887" lon="101.785071">
<time>2016-04-06T10:55:00Z</time></trkpt>
<trkpt lat="25.064897" lon="101.784951">
<time>2016-04-06T10:55:01Z</time></trkpt>
<trkpt lat="25.064896" lon="101.784831">
<time>2016-04-06T10:55:02Z</time></trkpt>
<trkpt lat="25.064886" lon="101.784741">
<time>2016-04-06T10:55:03Z</time></trkpt>
<trkpt lat="25.064856" lon="101.784651">
<time>2016-04-06T10:55:04Z</time></trkpt>
<trkpt lat="25.064806" lon="101.784571">
<time>2016-04-06T10:55:05Z</time></trkpt>
<trkpt lat="25.064696" lon="101.78442">
<time>2016-04-06T10:55:06Z</time></trkpt>
<trkpt lat="25.064626" lon="101.78436">
<time>2016-04-06T10:55:07Z</time></trkpt>
<trkpt lat="25.064516" lon="101.78427">
<time>2016-04-06T10:55:08Z</time></trkpt>
<trkpt lat="25.064436" lon="101.78422">
<time>2016-04-06T10:55:09Z</time></trkpt>
<trkpt lat="25.064306" lon="101.78415">
<time>2016-04-06T10:55:10Z</time></trkpt>
<trkpt lat="25.064136" lon="101.78408">
<time>2016-04-06T10:55:11Z</time></trkpt>
<trkpt lat="25.063946" lon="101.78402">
<time>2016-04-06T10:55:12Z</time></trkpt>
<trkpt lat="25.063826" lon="101.78398">
<time>2016-04-06T10:55:13Z</time></trkpt>
<trkpt lat="25.063735" lon="101.78393">
<time>2016-04-06T10:55:14Z</time></trkpt>
<trkpt lat="25.063635" lon="101.783859">
<time>2016-04-06T10:55:15Z</time></trkpt>
<trkpt lat="25.063595" lon="101.783809">
<time>2016-04-06T10:55:16Z</time></trkpt>
<trkpt lat="25.063545" lon="101.783719">
<time>2016-04-06T10:55:17Z</time></trkpt>
<trkpt lat="25.063495" lon="101.783589">
<time>2016-04-06T10:55:18Z</time></trkpt>
<trkpt lat="25.063445" lon="101.783439">
<time>2016-04-06T10:55:19Z</time></trkpt>
<trkpt lat="25.063365" lon="101.783118">
<time>2016-04-06T10:55:20Z</time></trkpt>
<trkpt lat="25.063204" lon="101.782527">
<time>2016-04-06T10:55:21Z</time></trkpt>
<trkpt lat="25.063114" lon="101.782297">
<time>2016-04-06T10:55:22Z</time></trkpt>
<trkpt lat="25.063033" lon="101.782137">
<time>2016-04-06T10:55:23Z</time></trkpt>
<trkpt lat="25.062993" lon="101.782057">
<time>2016-04-06T10:55:24Z</time></trkpt>
<trkpt lat="25.062913" lon="101.781936">
<time>2016-04-06T10:55:25Z</time></trkpt>
<trkpt lat="25.062843" lon="101.781866">
<time>2016-04-06T10:55:26Z</time></trkpt>
<trkpt lat="25.062763" lon="101.781806">
<time>2016-04-06T10:55:27Z</time></trkpt>
<trkpt lat="25.062703" lon="101.781766">
<time>2016-04-06T10:55:28Z</time></trkpt>
<trkpt lat="25.062653" lon="101.781736">
<time>2016-04-06T10:55:29Z</time></trkpt>
<trkpt lat="25.062593" lon="101.781706">
<time>2016-04-06T10:55:30Z</time></trkpt>
<trkpt lat="25.062353" lon="101.781626">
<time>2016-04-06T10:55:31Z</time></trkpt>
<trkpt lat="25.062063" lon="101.781526">
<time>2016-04-06T10:55:32Z</time></trkpt>
<trkpt lat="25.061743" lon="101.781426">
<time>2016-04-06T10:55:33Z</time></trkpt>
<trkpt lat="25.061453" lon="101.781346">
<time>2016-04-06T10:55:34Z</time></trkpt>
<trkpt lat="25.061243" lon="101.781225">
<time>2016-04-06T10:55:35Z</time></trkpt>
<trkpt lat="25.061092" lon="101.781075">
<time>2016-04-06T10:55:36Z</time></trkpt>
<trkpt lat="25.060922" lon="101.780875">
<time>2016-04-06T10:55:37Z</time></trkpt>
<trkpt lat="25.060782" lon="101.780715">
<time>2016-04-06T10:55:38Z</time></trkpt>
<trkpt lat="25.060682" lon="101.780625">
<time>2016-04-06T10:55:39Z</time></trkpt>
<trkpt lat="25.060562" lon="101.780524">
<time>2016-04-06T10:55:40Z</time></trkpt>
<trkpt lat="25.060292" lon="101.780364">
<time>2016-04-06T10:55:41Z</time></trkpt>
<trkpt lat="25.060122" lon="101.780294">
<time>2016-04-06T10:55:42Z</time></trkpt>
<trkpt lat="25.059892" lon="101.780224">
<time>2016-04-06T10:55:43Z</time></trkpt>
<trkpt lat="25.059631" lon="101.780164">
<time>2016-04-06T10:55:44Z</time></trkpt>
<trkpt lat="25.059251" lon="101.780054">
<time>2016-04-06T10:55:45Z</time></trkpt>
<trkpt lat="25.059091" lon="101.780014">
<time>2016-04-06T10:55:46Z</time></trkpt>
<trkpt lat="25.058981" lon="101.779994">
<time>2016-04-06T10:55:47Z</time></trkpt>
<trkpt lat="25.058851" lon="101.779964">
<time>2016-04-06T10:55:48Z</time></trkpt>
<trkpt lat="25.058691" lon="101.779944">
<time>2016-04-06T10:55:49Z</time></trkpt>
<trkpt lat="25.058411" lon="101.779944">
<time>2016-04-06T10:55:50Z</time></trkpt>
<trkpt lat="25.058241" lon="101.779934">
<time>2016-04-06T10:55:51Z</time></trkpt>
<trkpt lat="25.058131" lon="101.779914">
<time>2016-04-06T10:55:52Z</time></trkpt>
<trkpt lat="25.058041" lon="101.779894">
<time>2016-04-06T10:55:53Z</time></trkpt>
<trkpt lat="25.057971" lon="101.779874">
<time>2016-04-06T10:55:54Z</time></trkpt>
<trkpt lat="25.057911" lon="101.779853">
<time>2016-04-06T10:55:55Z</time></trkpt>
<trkpt lat="25.057841" lon="101.779813">
<time>2016-04-06T10:55:56Z</time></trkpt>
<trkpt lat="25.057771" lon="101.779753">
<time>2016-04-06T10:55:57Z</time></trkpt>
<trkpt lat="25.057681" lon="101.779643">
<time>2016-04-06T10:55:58Z</time></trkpt>
<trkpt lat="25.057531" lon="101.779453">
<time>2016-04-06T10:55:59Z</time></trkpt>
<trkpt lat="25.057431" lon="101.779323">
<time>2016-04-06T10:56:00Z</time></trkpt>
<trkpt lat="25.057331" lon="101.779203">
<time>2016-04-06T10:56:01Z</time></trkpt>
<trkpt lat="25.057241" lon="101.779132">
<time>2016-04-06T10:56:02Z</time></trkpt>
<trkpt lat="25.057131" lon="101.779062">
<time>2016-04-06T10:56:03Z</time></trkpt>
<trkpt lat="25.05702" lon="101.778992">
<time>2016-04-06T10:56:04Z</time></trkpt>
<trkpt lat="25.05688" lon="101.778912">
<time>2016-04-06T10:56:05Z</time></trkpt>
<trkpt lat="25.0568" lon="101.778862">
<time>2016-04-06T10:56:06Z</time></trkpt>
<trkpt lat="25.0567" lon="101.778782">
<time>2016-04-06T10:56:07Z</time></trkpt>
<trkpt lat="25.05658" lon="101.778662">
<time>2016-04-06T10:56:08Z</time></trkpt>
<trkpt lat="25.05651" lon="101.778572">
<time>2016-04-06T10:56:09Z</time></trkpt>
<trkpt lat="25.05642" lon="101.778472">
<time>2016-04-06T10:56:10Z</time></trkpt>
<trkpt lat="25.05633" lon="101.778341">
<time>2016-04-06T10:56:11Z</time></trkpt>
<trkpt lat="25.05627" lon="101.778241">
<time>2016-04-06T10:56:12Z</time></trkpt>
<trkpt lat="25.05622" lon="101.778131">
<time>2016-04-06T10:56:13Z</time></trkpt>
<trkpt lat="25.05619" lon="101.778051">
<time>2016-04-06T10:56:14Z</time></trkpt>
<trkpt lat="25.056189" lon="101.777961">
<time>2016-04-06T10:56:15Z</time></trkpt>
<trkpt lat="25.056189" lon="101.777821">
<time>2016-04-06T10:56:16Z</time></trkpt>
<trkpt lat="25.056209" lon="101.77764">
<time>2016-04-06T10:56:17Z</time></trkpt>
<trkpt lat="25.056219" lon="101.77744">
<time>2016-04-06T10:56:18Z</time></trkpt>
<trkpt lat="25.056219" lon="101.77734">
<time>2016-04-06T10:56:19Z</time></trkpt>
<trkpt lat="25.056209" lon="101.77728">
<time>2016-04-06T10:56:20Z</time></trkpt>
<trkpt lat="25.056199" lon="101.77723">
<time>2016-04-06T10:56:21Z</time></trkpt>
<trkpt lat="25.056189" lon="101.77719">
<time>2016-04-06T10:56:22Z</time></trkpt>
<trkpt lat="25.056169" lon="101.77715">
<time>2016-04-06T10:56:23Z</time></trkpt>
<trkpt lat="25.056139" lon="101.77711">
<time>2016-04-06T10:56:24Z</time></trkpt>
<trkpt lat="25.056109" lon="101.77708">
<time>2016-04-06T10:56:25Z</time></trkpt>
<trkpt lat="25.056089" lon="101.77705">
<time>2016-04-06T10:56:26Z</time></trkpt>
<trkpt lat="25.056049" lon="101.77702">
<time>2016-04-06T10:56:27Z</time></trkpt>
<trkpt lat="25.055938" lon="101.776919">
<time>2016-04-06T10:56:28Z</time></trkpt>
<trkpt lat="25.055748" lon="101.776809">
<time>2016-04-06T10:56:29Z</time></trkpt>
<trkpt lat="25.054998" lon="101.776409">
<time>2016-04-06T10:56:30Z</time></trkpt>
<trkpt lat="25.054858" lon="101.776329">
<time>2016-04-06T10:56:31Z</time></trkpt>
<trkpt lat="25.054668" lon="101.776178">
<time>2016-04-06T10:56:32Z</time></trkpt>
<trkpt lat="25.054468" lon="101.775948">
<time>2016-04-06T10:56:33Z</time></trkpt>
<trkpt lat="25.054277" lon="101.775658">
<time>2016-04-06T10:56:34Z</time></trkpt>
<trkpt lat="25.054087" lon="101.775407">
<time>2016-04-06T10:56:35Z</time></trkpt>
<trkpt lat="25.053657" lon="101.774797">
<time>2016-04-06T10:56:36Z</time></trkpt>
<trkpt lat="25.053496" lon="101.774616">
<time>2016-04-06T10:56:37Z</time></trkpt>
<trkpt lat="25.053296" lon="101.774456">
<time>2016-04-06T10:56:38Z</time></trkpt>
<trkpt lat="25.053076" lon="101.774316">
<time>2016-04-06T10:56:39Z</time></trkpt>
<trkpt lat="25.052836" lon="101.774236">
<time>2016-04-06T10:56:40Z</time></trkpt>
<trkpt lat="25.052316" lon="101.774096">
<time>2016-04-06T10:56:41Z</time></trkpt>
<trkpt lat="25.052046" lon="101.774036">
<time>2016-04-06T10:56:42Z</time></trkpt>
<trkpt lat="25.051816" lon="101.773976">
<time>2016-04-06T10:56:43Z</time></trkpt>
<trkpt lat="25.051436" lon="101.773826">
<time>2016-04-06T10:56:44Z</time></trkpt>
<trkpt lat="25.051386" lon="101.773796">
<time>2016-04-06T10:56:45Z</time></trkpt>
<trkpt lat="25.051266" lon="101.773735">
<time>2016-04-06T10:56:46Z</time></trkpt>
<trkpt lat="25.051146" lon="101.773665">
<time>2016-04-06T10:56:47Z</time></trkpt>
<trkpt lat="25.050966" lon="101.773545">
<time>2016-04-06T10:56:48Z</time></trkpt>
<trkpt lat="25.050826" lon="101.773415">
<time>2016-04-06T10:56:49Z</time></trkpt>
<trkpt lat="25.050716" lon="101.773275">
<time>2016-04-06T10:56:50Z</time></trkpt>
<trkpt lat="25.050635" lon="101.773175">
<time>2016-04-06T10:56:51Z</time></trkpt>
<trkpt lat="25.050545" lon="101.773055">
<time>2016-04-06T10:56:52Z</time></trkpt>
<trkpt lat="25.050355" lon="101.772834">
<time>2016-04-06T10:56:53Z</time></trkpt>
<trkpt lat="25.050245" lon="101.772714">
<time>2016-04-06T10:56:54Z</time></trkpt>
<trkpt lat="25.050105" lon="101.772614">
<time>2016-04-06T10:56:55Z</time></trkpt>
<trkpt lat="25.049985" lon="101.772524">
<time>2016-04-06T10:56:56Z</time></trkpt>
<trkpt lat="25.049915" lon="101.772464">
<time>2016-04-06T10:56:57Z</time></trkpt>
<trkpt lat="25.049865" lon="101.772404">
<time>2016-04-06T10:56:58Z</time></trkpt>
<trkpt lat="25.049815" lon="101.772344">
<time>2016-04-06T10:56:59Z</time></trkpt>
<trkpt lat="25.049775" lon="101.772294">
<time>2016-04-06T10:57:00Z</time></trkpt>
<trkpt lat="25.049735" lon="101.772204">
<time>2016-04-06T10:57:01Z</time></trkpt>
<trkpt lat="25.049715" lon="101.772134">
<time>2016-04-06T10:57:02Z</time></trkpt>
<trkpt lat="25.049715" lon="101.772084">
<time>2016-04-06T10:57:03Z</time></trkpt>
<trkpt lat="25.049725" lon="101.772003">
<time>2016-04-06T10:57:04Z</time></trkpt>
<trkpt lat="25.049734" lon="101.771883">
<time>2016-04-06T10:57:05Z</time></trkpt>
<trkpt lat="25.049764" lon="101.771743">
<time>2016-04-06T10:57:06Z</time></trkpt>
<trkpt lat="25.049794" lon="101.771543">
<time>2016-04-06T10:57:07Z</time></trkpt>
<trkpt lat="25.049784" lon="101.771343">
<time>2016-04-06T10:57:08Z</time></trkpt>
<trkpt lat="25.049764" lon="101.771182">
<time>2016-04-06T10:57:09Z</time></trkpt>
<trkpt lat="25.049724" lon="101.770962">
<time>2016-04-06T10:57:10Z</time></trkpt>
<trkpt lat="25.049713" lon="101.770782">
<time>2016-04-06T10:57:11Z</time></trkpt>
<trkpt lat="25.049713" lon="101.770562">
<time>2016-04-06T10:57:12Z</time></trkpt>
<trkpt lat="25.049733" lon="101.770352">
<time>2016-04-06T10:57:13Z</time></trkpt>
<trkpt lat="25.049713" lon="101.770191">
<time>2016-04-06T10:57:14Z</time></trkpt>
<trkpt lat="25.049663" lon="101.770031">
<time>2016-04-06T10:57:15Z</time></trkpt>
<trkpt lat="25.049603" lon="101.769871">
<time>2016-04-06T10:57:16Z</time></trkpt>
<trkpt lat="25.049523" lon="101.769711">
<time>2016-04-06T10:57:17Z</time></trkpt>
<trkpt lat="25.049402" lon="101.769471">
<time>2016-04-06T10:57:18Z</time></trkpt>
<trkpt lat="25.049282" lon="101.76925">
<time>2016-04-06T10:57:19Z</time></trkpt>
<trkpt lat="25.049132" lon="101.76904">
<time>2016-04-06T10:57:20Z</time></trkpt>
<trkpt lat="25.048902" lon="101.7688">
<time>2016-04-06T10:57:21Z</time></trkpt>
<trkpt lat="25.048662" lon="101.76858">
<time>2016-04-06T10:57:22Z</time></trkpt>
<trkpt lat="25.048342" lon="101.768309">
<time>2016-04-06T10:57:23Z</time></trkpt>
<trkpt lat="25.048212" lon="101.768179">
<time>2016-04-06T10:57:24Z</time></trkpt>
<trkpt lat="25.048092" lon="101.768019">
<time>2016-04-06T10:57:25Z</time></trkpt>
<trkpt lat="25.047921" lon="101.767709">
<time>2016-04-06T10:57:26Z</time></trkpt>
<trkpt lat="25.047631" lon="101.767148">
<time>2016-04-06T10:57:27Z</time></trkpt>
<trkpt lat="25.047471" lon="101.766808">
<time>2016-04-06T10:57:28Z</time></trkpt>
<trkpt lat="25.047341" lon="101.766468">
<time>2016-04-06T10:57:29Z</time></trkpt>
<trkpt lat="25.04724" lon="101.766077">
<time>2016-04-06T10:57:30Z</time></trkpt>
<trkpt lat="25.04711" lon="101.765437">
<time>2016-04-06T10:57:31Z</time></trkpt>
<trkpt lat="25.04685" lon="101.764686">
<time>2016-04-06T10:57:32Z</time></trkpt>
<trkpt lat="25.046839" lon="101.764616">
<time>2016-04-06T10:57:33Z</time></trkpt>
<trkpt lat="25.046829" lon="101.764536">
<time>2016-04-06T10:57:34Z</time></trkpt>
<trkpt lat="25.046829" lon="101.764486">
<time>2016-04-06T10:57:35Z</time></trkpt>
<trkpt lat="25.046839" lon="101.764436">
<time>2016-04-06T10:57:36Z</time></trkpt>
<trkpt lat="25.046849" lon="101.764396">
<time>2016-04-06T10:57:37Z</time></trkpt>
<trkpt lat="25.046859" lon="101.764376">
<time>2016-04-06T10:57:38Z</time></trkpt>
<trkpt lat="25.046899" lon="101.764336">
<time>2016-04-06T10:57:39Z</time></trkpt>
<trkpt lat="25.046929" lon="101.764306">
<time>2016-04-06T10:57:40Z</time></trkpt>
<trkpt lat="25.046979" lon="101.764276">
<time>2016-04-06T10:57:41Z</time></trkpt>
<trkpt lat="25.047009" lon="101.764256">
<time>2016-04-06T10:57:42Z</time></trkpt>
<trkpt lat="25.047049" lon="101.764236">
<time>2016-04-06T10:57:43Z</time></trkpt>
<trkpt lat="25.047109" lon="101.764216">
<time>2016-04-06T10:57:44Z</time></trkpt>
<trkpt lat="25.047219" lon="101.764186">
<time>2016-04-06T10:57:45Z</time></trkpt>
<trkpt lat="25.047309" lon="101.764156">
<time>2016-04-06T10:57:46Z</time></trkpt>
<trkpt lat="25.047389" lon="101.764115">
<time>2016-04-06T10:57:47Z</time></trkpt>
<trkpt lat="25.047439" lon="101.764085">
<time>2016-04-06T10:57:48Z</time></trkpt>
<trkpt lat="25.047519" lon="101.764035">
<time>2016-04-06T10:57:49Z</time></trkpt>
<trkpt lat="25.047549" lon="101.763995">
<time>2016-04-06T10:57:50Z</time></trkpt>
<trkpt lat="25.047589" lon="101.763945">
<time>2016-04-06T10:57:51Z</time></trkpt>
<trkpt lat="25.047609" lon="101.763895">
<time>2016-04-06T10:57:52Z</time></trkpt>
<trkpt lat="25.047629" lon="101.763825">
<time>2016-04-06T10:57:53Z</time></trkpt>
<trkpt lat="25.047639" lon="101.763755">
<time>2016-04-06T10:57:54Z</time></trkpt>
<trkpt lat="25.047649" lon="101.763695">
<time>2016-04-06T10:57:55Z</time></trkpt>
<trkpt lat="25.047639" lon="101.763605">
<time>2016-04-06T10:57:56Z</time></trkpt>
<trkpt lat="25.047639" lon="101.763555">
<time>2016-04-06T10:57:57Z</time></trkpt>
<trkpt lat="25.047619" lon="101.763495">
<time>2016-04-06T10:57:58Z</time></trkpt>
<trkpt lat="25.047599" lon="101.763455">
<time>2016-04-06T10:57:59Z</time></trkpt>
<trkpt lat="25.047579" lon="101.763405">
<time>2016-04-06T10:58:00Z</time></trkpt>
<trkpt lat="25.047539" lon="101.763345">
<time>2016-04-06T10:58:01Z</time></trkpt>
<trkpt lat="25.047489" lon="101.763295">
<time>2016-04-06T10:58:02Z</time></trkpt>
<trkpt lat="25.047429" lon="101.763265">
<time>2016-04-06T10:58:03Z</time></trkpt>
<trkpt lat="25.047359" lon="101.763235">
<time>2016-04-06T10:58:04Z</time></trkpt>
<trkpt lat="25.047319" lon="101.763215">
<time>2016-04-06T10:58:05Z</time></trkpt>
<trkpt lat="25.047249" lon="101.763205">
<time>2016-04-06T10:58:06Z</time></trkpt>
<trkpt lat="25.047169" lon="101.763195">
<time>2016-04-06T10:58:07Z</time></trkpt>
<trkpt lat="25.047039" lon="101.763185">
<time>2016-04-06T10:58:08Z</time></trkpt>
<trkpt lat="25.046849" lon="101.763205">
<time>2016-04-06T10:58:09Z</time></trkpt>
<trkpt lat="25.046749" lon="101.763205">
<time>2016-04-06T10:58:10Z</time></trkpt>
<trkpt lat="25.046649" lon="101.763185">
<time>2016-04-06T10:58:11Z</time></trkpt>
<trkpt lat="25.046559" lon="101.763135">
<time>2016-04-06T10:58:12Z</time></trkpt>
<trkpt lat="25.046439" lon="101.763055">
<time>2016-04-06T10:58:13Z</time></trkpt>
<trkpt lat="25.046309" lon="101.762935">
<time>2016-04-06T10:58:14Z</time></trkpt>
<trkpt lat="25.046179" lon="101.762834">
<time>2016-04-06T10:58:15Z</time></trkpt>
<trkpt lat="25.046069" lon="101.762754">
<time>2016-04-06T10:58:16Z</time></trkpt>
<trkpt lat="25.045989" lon="101.762704">
<time>2016-04-06T10:58:17Z</time></trkpt>
<trkpt lat="25.045908" lon="101.762674">
<time>2016-04-06T10:58:18Z</time></trkpt>
<trkpt lat="25.045848" lon="101.762654">
<time>2016-04-06T10:58:19Z</time></trkpt>
<trkpt lat="25.045768" lon="101.762644">
<time>2016-04-06T10:58:20Z</time></trkpt>
<trkpt lat="25.045669" lon="101.762654">
<time>2016-04-06T10:58:21Z</time></trkpt>
<trkpt lat="25.045509" lon="101.762684">
<time>2016-04-06T10:58:22Z</time></trkpt>
<trkpt lat="25.045279" lon="101.762744">
<time>2016-04-06T10:58:23Z</time></trkpt>
<trkpt lat="25.045109" lon="101.762764">
<time>2016-04-06T10:58:24Z</time></trkpt>
<trkpt lat="25.044999" lon="101.762764">
<time>2016-04-06T10:58:25Z</time></trkpt>
<trkpt lat="25.044889" lon="101.762734">
<time>2016-04-06T10:58:26Z</time></trkpt>
<trkpt lat="25.044789" lon="101.762694">
<time>2016-04-06T10:58:27Z</time></trkpt>
<trkpt lat="25.044679" lon="101.762604">
<time>2016-04-06T10:58:28Z</time></trkpt>
<trkpt lat="25.044589" lon="101.762484">
<time>2016-04-06T10:58:29Z</time></trkpt>
<trkpt lat="25.044488" lon="101.762304">
<time>2016-04-06T10:58:30Z</time></trkpt>
<trkpt lat="25.044418" lon="101.762114">
<time>2016-04-06T10:58:31Z</time></trkpt>
<trkpt lat="25.044368" lon="101.761904">
<time>2016-04-06T10:58:32Z</time></trkpt>
<trkpt lat="25.044278" lon="101.761624">
<time>2016-04-06T10:58:33Z</time></trkpt>
<trkpt lat="25.044148" lon="101.761353">
<time>2016-04-06T10:58:34Z</time></trkpt>
<trkpt lat="25.044038" lon="101.761153">
<time>2016-04-06T10:58:35Z</time></trkpt>
<trkpt lat="25.042937" lon="101.759842">
<time>2016-04-06T10:58:36Z</time></trkpt>
<trkpt lat="25.042767" lon="101.759582">
<time>2016-04-06T10:58:37Z</time></trkpt>
<trkpt lat="25.042647" lon="101.759312">
<time>2016-04-06T10:58:38Z</time></trkpt>
<trkpt lat="25.042497" lon="101.759022">
<time>2016-04-06T10:58:39Z</time></trkpt>
<trkpt lat="25.042327" lon="101.758812">
<time>2016-04-06T10:58:40Z</time></trkpt>
<trkpt lat="25.042077" lon="101.758481">
<time>2016-04-06T10:58:41Z</time></trkpt>
<trkpt lat="25.041927" lon="101.758261">
<time>2016-04-06T10:58:42Z</time></trkpt>
<trkpt lat="25.041847" lon="101.758151">
<time>2016-04-06T10:58:43Z</time></trkpt>
<trkpt lat="25.041757" lon="101.758051">
<time>2016-04-06T10:58:44Z</time></trkpt>
<trkpt lat="25.041617" lon="101.757941">
<time>2016-04-06T10:58:45Z</time></trkpt>
<trkpt lat="25.041487" lon="101.757841">
<time>2016-04-06T10:58:46Z</time></trkpt>
<trkpt lat="25.041277" lon="101.757731">
<time>2016-04-06T10:58:47Z</time></trkpt>
<trkpt lat="25.041137" lon="101.757631">
<time>2016-04-06T10:58:48Z</time></trkpt>
<trkpt lat="25.041077" lon="101.757571">
<time>2016-04-06T10:58:49Z</time></trkpt>
<trkpt lat="25.041027" lon="101.757501">
<time>2016-04-06T10:58:50Z</time></trkpt>
<trkpt lat="25.040987" lon="101.757421">
<time>2016-04-06T10:58:51Z</time></trkpt>
<trkpt lat="25.040947" lon="101.757311">
<time>2016-04-06T10:58:52Z</time></trkpt>
<trkpt lat="25.040917" lon="101.757211">
<time>2016-04-06T10:58:53Z</time></trkpt>
<trkpt lat="25.040887" lon="101.757081">
<time>2016-04-06T10:58:54Z</time></trkpt>
<trkpt lat="25.040847" lon="101.756971">
<time>2016-04-06T10:58:55Z</time></trkpt>
<trkpt lat="25.040797" lon="101.756851">
<time>2016-04-06T10:58:56Z</time></trkpt>
<trkpt lat="25.040727" lon="101.75675">
<time>2016-04-06T10:58:57Z</time></trkpt>
<trkpt lat="25.040617" lon="101.75662">
<time>2016-04-06T10:58:58Z</time></trkpt>
<trkpt lat="25.040577" lon="101.75657">
<time>2016-04-06T10:58:59Z</time></trkpt>
<trkpt lat="25.040527" lon="101.75653">
<time>2016-04-06T10:59:00Z</time></trkpt>
<trkpt lat="25.040407" lon="101.75643">
<time>2016-04-06T10:59:01Z</time></trkpt>
<trkpt lat="25.040237" lon="101.75629">
<time>2016-04-06T10:59:02Z</time></trkpt>
<trkpt lat="25.040077" lon="101.75613">
<time>2016-04-06T10:59:03Z</time></trkpt>
<trkpt lat="25.039906" lon="101.75598">
<time>2016-04-06T10:59:04Z</time></trkpt>
<trkpt lat="25.039826" lon="101.75592">
<time>2016-04-06T10:59:05Z</time></trkpt>
<trkpt lat="25.039746" lon="101.75587">
<time>2016-04-06T10:59:06Z</time></trkpt>
<trkpt lat="25.039686" lon="101.75584">
<time>2016-04-06T10:59:07Z</time></trkpt>
<trkpt lat="25.039536" lon="101.7558">
<time>2016-04-06T10:59:08Z</time></trkpt>
<trkpt lat="25.039197" lon="101.75572">
<time>2016-04-06T10:59:09Z</time></trkpt>
<trkpt lat="25.039017" lon="101.75568">
<time>2016-04-06T10:59:10Z</time></trkpt>
<trkpt lat="25.038867" lon="101.75568">
<time>2016-04-06T10:59:11Z</time></trkpt>
<trkpt lat="25.038777" lon="101.75569">
<time>2016-04-06T10:59:12Z</time></trkpt>
<trkpt lat="25.038707" lon="101.7557">
<time>2016-04-06T10:59:13Z</time></trkpt>
<trkpt lat="25.038557" lon="101.75576">
<time>2016-04-06T10:59:14Z</time></trkpt>
<trkpt lat="25.038347" lon="101.75586">
<time>2016-04-06T10:59:15Z</time></trkpt>
<trkpt lat="25.038067" lon="101.75598">
<time>2016-04-06T10:59:16Z</time></trkpt>
<trkpt lat="25.037907" lon="101.75603">
<time>2016-04-06T10:59:17Z</time></trkpt>
<trkpt lat="25.037747" lon="101.75607">
<time>2016-04-06T10:59:18Z</time></trkpt>
<trkpt lat="25.037627" lon="101.75611">
<time>2016-04-06T10:59:19Z</time></trkpt>
<trkpt lat="25.037487" lon="101.75614">
<time>2016-04-06T10:59:20Z</time></trkpt>
<trkpt lat="25.037347" lon="101.75615">
<time>2016-04-06T10:59:21Z</time></trkpt>
<trkpt lat="25.037217" lon="101.75613">
<time>2016-04-06T10:59:22Z</time></trkpt>
<trkpt lat="25.037097" lon="101.75608">
<time>2016-04-06T10:59:23Z</time></trkpt>
<trkpt lat="25.036937" lon="101.75601">
<time>2016-04-06T10:59:24Z</time></trkpt>
<trkpt lat="25.036887" lon="101.75598">
<time>2016-04-06T10:59:25Z</time></trkpt>
<trkpt lat="25.036827" lon="101.75596">
<time>2016-04-06T10:59:26Z</time></trkpt>
<trkpt lat="25.036767" lon="101.75593">
<time>2016-04-06T10:59:27Z</time></trkpt>
<trkpt lat="25.036697" lon="101.75591">
<time>2016-04-06T10:59:28Z</time></trkpt>
<trkpt lat="25.036647" lon="101.7559">
<time>2016-04-06T10:59:29Z</time></trkpt>
<trkpt lat="25.036577" lon="101.7559">
<time>2016-04-06T10:59:30Z</time></trkpt>
<trkpt lat="25.036537" lon="101.75591">
<time>2016-04-06T10:59:31Z</time></trkpt>
<trkpt lat="25.036477" lon="101.75592">
<time>2016-04-06T10:59:32Z</time></trkpt>
<trkpt lat="25.036417" lon="101.75593">
<time>2016-04-06T10:59:33Z</time></trkpt>
<trkpt lat="25.036337" lon="101.75596">
<time>2016-04-06T10:59:34Z</time></trkpt>
<trkpt lat="25.035827" lon="101.75622">
<time>2016-04-06T10:59:35Z</time></trkpt>
<trkpt lat="25.035637" lon="101.75634">
<time>2016-04-06T10:59:36Z</time></trkpt>
<trkpt lat="25.035537" lon="101.75641">
<time>2016-04-06T10:59:37Z</time></trkpt>
<trkpt lat="25.035487" lon="101.75644">
<time>2016-04-06T10:59:38Z</time></trkpt>
<trkpt lat="25.035367" lon="101.756511">
<time>2016-04-06T10:59:39Z</time></trkpt>
<trkpt lat="25.035327" lon="101.756531">
<time>2016-04-06T10:59:40Z</time></trkpt>
<trkpt lat="25.035297" lon="101.756541">
<time>2016-04-06T10:59:41Z</time></trkpt>
<trkpt lat="25.035257" lon="101.756551">
<time>2016-04-06T10:59:42Z</time></trkpt>
<trkpt lat="25.035217" lon="101.756561">
<time>2016-04-06T10:59:43Z</time></trkpt>
<trkpt lat="25.035177" lon="101.756561">
<time>2016-04-06T10:59:44Z</time></trkpt>
<trkpt lat="25.035137" lon="101.756561">
<time>2016-04-06T10:59:45Z</time></trkpt>
<trkpt lat="25.035097" lon="101.756551">
<time>2016-04-06T10:59:46Z</time></trkpt>
<trkpt lat="25.035057" lon="101.756531">
<time>2016-04-06T10:59:47Z</time></trkpt>
<trkpt lat="25.035017" lon="101.756501">
<time>2016-04-06T10:59:48Z</time></trkpt>
<trkpt lat="25.034967" lon="101.75645">
<time>2016-04-06T10:59:49Z</time></trkpt>
<trkpt lat="25.034837" lon="101.75633">
<time>2016-04-06T10:59:50Z</time></trkpt>
<trkpt lat="25.034717" lon="101.7562">
<time>2016-04-06T10:59:51Z</time></trkpt>
<trkpt lat="25.034597" lon="101.75608">
<time>2016-04-06T10:59:52Z</time></trkpt>
<trkpt lat="25.034537" lon="101.75601">
<time>2016-04-06T10:59:53Z</time></trkpt>
<trkpt lat="25.034467" lon="101.75592">
<time>2016-04-06T10:59:54Z</time></trkpt>
<trkpt lat="25.034397" lon="101.75581">
<time>2016-04-06T10:59:55Z</time></trkpt>
<trkpt lat="25.034347" lon="101.75567">
<time>2016-04-06T10:59:56Z</time></trkpt>
<trkpt lat="25.034317" lon="101.75556">
<time>2016-04-06T10:59:57Z</time></trkpt>
<trkpt lat="25.034297" lon="101.75545">
<time>2016-04-06T10:59:58Z</time></trkpt>
<trkpt lat="25.034307" lon="101.75534">
<time>2016-04-06T10:59:59Z</time></trkpt>
<trkpt lat="25.034327" lon="101.75522">
<time>2016-04-06T11:00:00Z</time></trkpt>
<trkpt lat="25.034367" lon="101.75509">
<time>2016-04-06T11:00:01Z</time></trkpt>
<trkpt lat="25.034407" lon="101.75498">
<time>2016-04-06T11:00:02Z</time></trkpt>
<trkpt lat="25.034467" lon="101.75485">
<time>2016-04-06T11:00:03Z</time></trkpt>
<trkpt lat="25.034507" lon="101.75474">
<time>2016-04-06T11:00:04Z</time></trkpt>
<trkpt lat="25.034537" lon="101.75466">
<time>2016-04-06T11:00:05Z</time></trkpt>
<trkpt lat="25.034547" lon="101.75457">
<time>2016-04-06T11:00:06Z</time></trkpt>
<trkpt lat="25.034547" lon="101.75449">
<time>2016-04-06T11:00:07Z</time></trkpt>
<trkpt lat="25.034537" lon="101.754409">
<time>2016-04-06T11:00:08Z</time></trkpt>
<trkpt lat="25.034507" lon="101.754339">
<time>2016-04-06T11:00:09Z</time></trkpt>
<trkpt lat="25.034487" lon="101.754279">
<time>2016-04-06T11:00:10Z</time></trkpt>
<trkpt lat="25.034437" lon="101.754179">
<time>2016-04-06T11:00:11Z</time></trkpt>
<trkpt lat="25.034347" lon="101.754039">
<time>2016-04-06T11:00:12Z</time></trkpt>
<trkpt lat="25.034237" lon="101.753869">
<time>2016-04-06T11:00:13Z</time></trkpt>
<trkpt lat="25.034157" lon="101.753739">
<time>2016-04-06T11:00:14Z</time></trkpt>
<trkpt lat="25.034097" lon="101.753639">
<time>2016-04-06T11:00:15Z</time></trkpt>
<trkpt lat="25.034077" lon="101.753589">
<time>2016-04-06T11:00:16Z</time></trkpt>
<trkpt lat="25.034067" lon="101.753549">
<time>2016-04-06T11:00:17Z</time></trkpt>
<trkpt lat="25.034047" lon="101.753519">
<time>2016-04-06T11:00:18Z</time></trkpt>
<trkpt lat="25.034047" lon="101.753479">
<time>2016-04-06T11:00:19Z</time></trkpt>
<trkpt lat="25.034037" lon="101.753439">
<time>2016-04-06T11:00:20Z</time></trkpt>
<trkpt lat="25.034047" lon="101.753409">
<time>2016-04-06T11:00:21Z</time></trkpt>
<trkpt lat="25.034047" lon="101.753369">
<time>2016-04-06T11:00:22Z</time></trkpt>
<trkpt lat="25.034057" lon="101.753329">
<time>2016-04-06T11:00:23Z</time></trkpt>
<trkpt lat="25.034067" lon="101.753279">
<time>2016-04-06T11:00:24Z</time></trkpt>
<trkpt lat="25.034087" lon="101.753239">
<time>2016-04-06T11:00:25Z</time></trkpt>
<trkpt lat="25.034127" lon="101.753179">
<time>2016-04-06T11:00:26Z</time></trkpt>
<trkpt lat="25.034187" lon="101.753109">
<time>2016-04-06T11:00:27Z</time></trkpt>
<trkpt lat="25.034256" lon="101.753049">
<time>2016-04-06T11:00:28Z</time></trkpt>
<trkpt lat="25.034466" lon="101.752869">
<time>2016-04-06T11:00:29Z</time></trkpt>
<trkpt lat="25.034656" lon="101.752699">
<time>2016-04-06T11:00:30Z</time></trkpt>
<trkpt lat="25.034766" lon="101.752579">
<time>2016-04-06T11:00:31Z</time></trkpt>
<trkpt lat="25.034876" lon="101.752399">
<time>2016-04-06T11:00:32Z</time></trkpt>
<trkpt lat="25.034956" lon="101.752279">
<time>2016-04-06T11:00:33Z</time></trkpt>
<trkpt lat="25.035006" lon="101.752189">
<time>2016-04-06T11:00:34Z</time></trkpt>
<trkpt lat="25.035056" lon="101.752099">
<time>2016-04-06T11:00:35Z</time></trkpt>
<trkpt lat="25.035076" lon="101.752059">
<time>2016-04-06T11:00:36Z</time></trkpt>
<trkpt lat="25.035086" lon="101.752009">
<time>2016-04-06T11:00:37Z</time></trkpt>
<trkpt lat="25.035086" lon="101.751958">
<time>2016-04-06T11:00:38Z</time></trkpt>
<trkpt lat="25.035086" lon="101.751908">
<time>2016-04-06T11:00:39Z</time></trkpt>
<trkpt lat="25.035076" lon="101.751848">
<time>2016-04-06T11:00:40Z</time></trkpt>
<trkpt lat="25.035056" lon="101.751798">
<time>2016-04-06T11:00:41Z</time></trkpt>
<trkpt lat="25.035026" lon="101.751758">
<time>2016-04-06T11:00:42Z</time></trkpt>
<trkpt lat="25.034996" lon="101.751718">
<time>2016-04-06T11:00:43Z</time></trkpt>
<trkpt lat="25.034966" lon="101.751688">
<time>2016-04-06T11:00:44Z</time></trkpt>
<trkpt lat="25.034926" lon="101.751668">
<time>2016-04-06T11:00:45Z</time></trkpt>
<trkpt lat="25.034886" lon="101.751648">
<time>2016-04-06T11:00:46Z</time></trkpt>
<trkpt lat="25.034806" lon="101.751618">
<time>2016-04-06T11:00:47Z</time></trkpt>
<trkpt lat="25.034726" lon="101.751598">
<time>2016-04-06T11:00:48Z</time></trkpt>
<trkpt lat="25.034596" lon="101.751558">
<time>2016-04-06T11:00:49Z</time></trkpt>
<trkpt lat="25.034486" lon="101.751528">
<time>2016-04-06T11:00:50Z</time></trkpt>
<trkpt lat="25.034396" lon="101.751518">
<time>2016-04-06T11:00:51Z</time></trkpt>
<trkpt lat="25.034326" lon="101.751508">
<time>2016-04-06T11:00:52Z</time></trkpt>
<trkpt lat="25.034226" lon="101.751508">
<time>2016-04-06T11:00:53Z</time></trkpt>
<trkpt lat="25.034016" lon="101.751528">
<time>2016-04-06T11:00:54Z</time></trkpt>
<trkpt lat="25.033836" lon="101.751558">
<time>2016-04-06T11:00:55Z</time></trkpt>
<trkpt lat="25.033506" lon="101.751598">
<time>2016-04-06T11:00:56Z</time></trkpt>
<trkpt lat="25.033396" lon="101.751608">
<time>2016-04-06T11:00:57Z</time></trkpt>
<trkpt lat="25.033306" lon="101.751608">
<time>2016-04-06T11:00:58Z</time></trkpt>
<trkpt lat="25.033196" lon="101.751608">
<time>2016-04-06T11:00:59Z</time></trkpt>
<trkpt lat="25.033116" lon="101.751598">
<time>2016-04-06T11:01:00Z</time></trkpt>
<trkpt lat="25.033036" lon="101.751588">
<time>2016-04-06T11:01:01Z</time></trkpt>
<trkpt lat="25.032956" lon="101.751558">
<time>2016-04-06T11:01:02Z</time></trkpt>
<trkpt lat="25.032886" lon="101.751518">
<time>2016-04-06T11:01:03Z</time></trkpt>
<trkpt lat="25.032816" lon="101.751478">
<time>2016-04-06T11:01:04Z</time></trkpt>
<trkpt lat="25.032766" lon="101.751428">
<time>2016-04-06T11:01:05Z</time></trkpt>
<trkpt lat="25.032716" lon="101.751368">
<time>2016-04-06T11:01:06Z</time></trkpt>
<trkpt lat="25.032666" lon="101.751288">
<time>2016-04-06T11:01:07Z</time></trkpt>
<trkpt lat="25.032606" lon="101.751178">
<time>2016-04-06T11:01:08Z</time></trkpt>
<trkpt lat="25.032466" lon="101.750888">
<time>2016-04-06T11:01:09Z</time></trkpt>
<trkpt lat="25.032306" lon="101.750508">
<time>2016-04-06T11:01:10Z</time></trkpt>
<trkpt lat="25.032116" lon="101.750018">
<time>2016-04-06T11:01:11Z</time></trkpt>
<trkpt lat="25.032106" lon="101.749968">
<time>2016-04-06T11:01:12Z</time></trkpt>
<trkpt lat="25.032096" lon="101.749928">
<time>2016-04-06T11:01:13Z</time></trkpt>
<trkpt lat="25.032086" lon="101.749878">
<time>2016-04-06T11:01:14Z</time></trkpt>
<trkpt lat="25.032076" lon="101.749828">
<time>2016-04-06T11:01:15Z</time></trkpt>
<trkpt lat="25.032066" lon="101.749758">
<time>2016-04-06T11:01:16Z</time></trkpt>
<trkpt lat="25.032066" lon="101.749688">
<time>2016-04-06T11:01:17Z</time></trkpt>
<trkpt lat="25.032076" lon="101.749598">
<time>2016-04-06T11:01:18Z</time></trkpt>
<trkpt lat="25.032096" lon="101.749518">
<time>2016-04-06T11:01:19Z</time></trkpt>
<trkpt lat="25.032136" lon="101.749378">
<time>2016-04-06T11:01:20Z</time></trkpt>
<trkpt lat="25.032176" lon="101.749258">
<time>2016-04-06T11:01:21Z</time></trkpt>
<trkpt lat="25.032206" lon="101.749158">
<time>2016-04-06T11:01:22Z</time></trkpt>
<trkpt lat="25.032226" lon="101.749038">
<time>2016-04-06T11:01:23Z</time></trkpt>
<trkpt lat="25.032226" lon="101.748898">
<time>2016-04-06T11:01:24Z</time></trkpt>
<trkpt lat="25.032226" lon="101.748798">
<time>2016-04-06T11:01:25Z</time></trkpt>
<trkpt lat="25.032226" lon="101.748648">
<time>2016-04-06T11:01:26Z</time></trkpt>
<trkpt lat="25.032226" lon="101.748578">
<time>2016-04-06T11:01:27Z</time></trkpt>
<trkpt lat="25.032246" lon="101.748488">
<time>2016-04-06T11:01:28Z</time></trkpt>
<trkpt lat="25.032266" lon="101.748378">
<time>2016-04-06T11:01:29Z</time></trkpt>
<trkpt lat="25.032316" lon="101.748198">
<time>2016-04-06T11:01:30Z</time></trkpt>
<trkpt lat="25.032356" lon="101.748038">
<time>2016-04-06T11:01:31Z</time></trkpt>
<trkpt lat="25.032386" lon="101.747877">
<time>2016-04-06T11:01:32Z</time></trkpt>
<trkpt lat="25.032386" lon="101.747727">
<time>2016-04-06T11:01:33Z</time></trkpt>
<trkpt lat="25.032406" lon="101.747427">
<time>2016-04-06T11:01:34Z</time></trkpt>
<trkpt lat="25.032406" lon="101.747237">
<time>2016-04-06T11:01:35Z</time></trkpt>
<trkpt lat="25.032406" lon="101.747177">
<time>2016-04-06T11:01:36Z</time></trkpt>
<trkpt lat="25.032396" lon="101.747127">
<time>2016-04-06T11:01:37Z</time></trkpt>
<trkpt lat="25.032386" lon="101.747077">
<time>2016-04-06T11:01:38Z</time></trkpt>
<trkpt lat="25.032366" lon="101.747017">
<time>2016-04-06T11:01:39Z</time></trkpt>
<trkpt lat="25.032336" lon="101.746957">
<time>2016-04-06T11:01:40Z</time></trkpt>
<trkpt lat="25.032276" lon="101.746837">
<time>2016-04-06T11:01:41Z</time></trkpt>
<trkpt lat="25.032176" lon="101.746637">
<time>2016-04-06T11:01:42Z</time></trkpt>
<trkpt lat="25.032106" lon="101.746517">
<time>2016-04-06T11:01:43Z</time></trkpt>
<trkpt lat="25.032046" lon="101.746327">
<time>2016-04-06T11:01:44Z</time></trkpt>
<trkpt lat="25.032027" lon="101.746237">
<time>2016-04-06T11:01:45Z</time></trkpt>
<trkpt lat="25.032007" lon="101.746077">
<time>2016-04-06T11:01:46Z</time></trkpt>
<trkpt lat="25.031997" lon="101.745987">
<time>2016-04-06T11:01:47Z</time></trkpt>
<trkpt lat="25.031957" lon="101.745847">
<time>2016-04-06T11:01:48Z</time></trkpt>
<trkpt lat="25.031917" lon="101.745697">
<time>2016-04-06T11:01:49Z</time></trkpt>
<trkpt lat="25.031877" lon="101.745577">
<time>2016-04-06T11:01:50Z</time></trkpt>
<trkpt lat="25.031847" lon="101.745457">
<time>2016-04-06T11:01:51Z</time></trkpt>
<trkpt lat="25.031847" lon="101.745377">
<time>2016-04-06T11:01:52Z</time></trkpt>
<trkpt lat="25.031847" lon="101.745307">
<time>2016-04-06T11:01:53Z</time></trkpt>
<trkpt lat="25.031867" lon="101.745227">
<time>2016-04-06T11:01:54Z</time></trkpt>
<trkpt lat="25.031897" lon="101.745157">
<time>2016-04-06T11:01:55Z</time></trkpt>
<trkpt lat="25.031927" lon="101.745107">
<time>2016-04-06T11:01:56Z</time></trkpt>
<trkpt lat="25.031967" lon="101.745057">
<time>2016-04-06T11:01:57Z</time></trkpt>
<trkpt lat="25.032017" lon="101.745007">
<time>2016-04-06T11:01:58Z</time></trkpt>
<trkpt lat="25.032077" lon="101.744977">
<time>2016-04-06T11:01:59Z</time></trkpt>
<trkpt lat="25.032137" lon="101.744947">
<time>2016-04-06T11:02:00Z</time></trkpt>
<trkpt lat="25.032247" lon="101.744917">
<time>2016-04-06T11:02:01Z</time></trkpt>
<trkpt lat="25.032367" lon="101.744887">
<time>2016-04-06T11:02:02Z</time></trkpt>
<trkpt lat="25.032477" lon="101.744847">
<time>2016-04-06T11:02:03Z</time></trkpt>
<trkpt lat="25.032587" lon="101.744787">
<time>2016-04-06T11:02:04Z</time></trkpt>
<trkpt lat="25.032677" lon="101.744747">
<time>2016-04-06T11:02:05Z</time></trkpt>
<trkpt lat="25.032767" lon="101.744717">
<time>2016-04-06T11:02:06Z</time></trkpt>
<trkpt lat="25.032867" lon="101.744677">
<time>2016-04-06T11:02:07Z</time></trkpt>
<trkpt lat="25.032917" lon="101.744667">
<time>2016-04-06T11:02:08Z</time></trkpt>
<trkpt lat="25.032987" lon="101.744657">
<time>2016-04-06T11:02:09Z</time></trkpt>
<trkpt lat="25.033197" lon="101.744637">
<time>2016-04-06T11:02:10Z</time></trkpt>
<trkpt lat="25.033337" lon="101.744627">
<time>2016-04-06T11:02:11Z</time></trkpt>
<trkpt lat="25.033457" lon="101.744597">
<time>2016-04-06T11:02:12Z</time></trkpt>
<trkpt lat="25.033537" lon="101.744577">
<time>2016-04-06T11:02:13Z</time></trkpt>
<trkpt lat="25.033607" lon="101.744547">
<time>2016-04-06T11:02:14Z</time></trkpt>
<trkpt lat="25.033677" lon="101.744507">
<time>2016-04-06T11:02:15Z</time></trkpt>
<trkpt lat="25.033827" lon="101.744427">
<time>2016-04-06T11:02:16Z</time></trkpt>
<trkpt lat="25.034037" lon="101.744297">
<time>2016-04-06T11:02:17Z</time></trkpt>
<trkpt lat="25.034197" lon="101.744227">
<time>2016-04-06T11:02:18Z</time></trkpt>
<trkpt lat="25.034287" lon="101.744177">
<time>2016-04-06T11:02:19Z</time></trkpt>
<trkpt lat="25.034337" lon="101.744147">
<time>2016-04-06T11:02:20Z</time></trkpt>
<trkpt lat="25.034407" lon="101.744077">
<time>2016-04-06T11:02:21Z</time></trkpt>
<trkpt lat="25.034477" lon="101.743997">
<time>2016-04-06T11:02:22Z</time></trkpt>
<trkpt lat="25.034507" lon="101.743937">
<time>2016-04-06T11:02:23Z</time></trkpt>
<trkpt lat="25.034527" lon="101.743867">
<time>2016-04-06T11:02:24Z</time></trkpt>
<trkpt lat="25.034537" lon="101.743807">
<time>2016-04-06T11:02:25Z</time></trkpt>
<trkpt lat="25.034537" lon="101.743737">
<time>2016-04-06T11:02:26Z</time></trkpt>
<trkpt lat="25.034517" lon="101.743677">
<time>2016-04-06T11:02:27Z</time></trkpt>
<trkpt lat="25.034497" lon="101.743607">
<time>2016-04-06T11:02:28Z</time></trkpt>
<trkpt lat="25.034467" lon="101.743557">
<time>2016-04-06T11:02:29Z</time></trkpt>
<trkpt lat="25.034367" lon="101.743407">
<time>2016-04-06T11:02:30Z</time></trkpt>
<trkpt lat="25.034267" lon="101.743307">
<time>2016-04-06T11:02:31Z</time></trkpt>
<trkpt lat="25.034167" lon="101.743217">
<time>2016-04-06T11:02:32Z</time></trkpt>
<trkpt lat="25.033957" lon="101.743057">
<time>2016-04-06T11:02:33Z</time></trkpt>
<trkpt lat="25.033697" lon="101.742857">
<time>2016-04-06T11:02:34Z</time></trkpt>
<trkpt lat="25.033447" lon="101.742657">
<time>2016-04-06T11:02:35Z</time></trkpt>
<trkpt lat="25.033277" lon="101.742517">
<time>2016-04-06T11:02:36Z</time></trkpt>
<trkpt lat="25.033147" lon="101.742407">
<time>2016-04-06T11:02:37Z</time></trkpt>
<trkpt lat="25.032927" lon="101.742237">
<time>2016-04-06T11:02:38Z</time></trkpt>
<trkpt lat="25.032737" lon="101.742107">
<time>2016-04-06T11:02:39Z</time></trkpt>
<trkpt lat="25.032597" lon="101.742007">
<time>2016-04-06T11:02:40Z</time></trkpt>
<trkpt lat="25.032477" lon="101.741927">
<time>2016-04-06T11:02:41Z</time></trkpt>
<trkpt lat="25.032287" lon="101.741797">
<time>2016-04-06T11:02:42Z</time></trkpt>
<trkpt lat="25.032107" lon="101.741667">
<time>2016-04-06T11:02:43Z</time></trkpt>
<trkpt lat="25.031977" lon="101.741587">
<time>2016-04-06T11:02:44Z</time></trkpt>
<trkpt lat="25.031907" lon="101.741527">
<time>2016-04-06T11:02:45Z</time></trkpt>
<trkpt lat="25.031817" lon="101.741447">
<time>2016-04-06T11:02:46Z</time></trkpt>
<trkpt lat="25.031727" lon="101.741347">
<time>2016-04-06T11:02:47Z</time></trkpt>
<trkpt lat="25.031647" lon="101.741227">
<time>2016-04-06T11:02:48Z</time></trkpt>
<trkpt lat="25.031588" lon="101.741107">
<time>2016-04-06T11:02:49Z</time></trkpt>
<trkpt lat="25.031518" lon="101.740967">
<time>2016-04-06T11:02:50Z</time></trkpt>
<trkpt lat="25.031418" lon="101.740717">
<time>2016-04-06T11:02:51Z</time></trkpt>
<trkpt lat="25.031358" lon="101.740497">
<time>2016-04-06T11:02:52Z</time></trkpt>
<trkpt lat="25.031338" lon="101.740377">
<time>2016-04-06T11:02:53Z</time></trkpt>
<trkpt lat="25.031308" lon="101.740217">
<time>2016-04-06T11:02:54Z</time></trkpt>
<trkpt lat="25.031298" lon="101.740117">
<time>2016-04-06T11:02:55Z</time></trkpt>
<trkpt lat="25.031298" lon="101.740007">
<time>2016-04-06T11:02:56Z</time></trkpt>
<trkpt lat="25.031308" lon="101.739917">
<time>2016-04-06T11:02:57Z</time></trkpt>
<trkpt lat="25.031328" lon="101.739807">
<time>2016-04-06T11:02:58Z</time></trkpt>
<trkpt lat="25.031358" lon="101.739698">
<time>2016-04-06T11:02:59Z</time></trkpt>
<trkpt lat="25.031418" lon="101.739578">
<time>2016-04-06T11:03:00Z</time></trkpt>
<trkpt lat="25.031478" lon="101.739458">
<time>2016-04-06T11:03:01Z</time></trkpt>
<trkpt lat="25.031608" lon="101.739248">
<time>2016-04-06T11:03:02Z</time></trkpt>
<trkpt lat="25.031708" lon="101.739108">
<time>2016-04-06T11:03:03Z</time></trkpt>
<trkpt lat="25.031838" lon="101.738958">
<time>2016-04-06T11:03:04Z</time></trkpt>
<trkpt lat="25.031928" lon="101.738878">
<time>2016-04-06T11:03:05Z</time></trkpt>
<trkpt lat="25.031988" lon="101.738828">
<time>2016-04-06T11:03:06Z</time></trkpt>
<trkpt lat="25.032058" lon="101.738798">
<time>2016-04-06T11:03:07Z</time></trkpt>
<trkpt lat="25.032158" lon="101.738778">
<time>2016-04-06T11:03:08Z</time></trkpt>
<trkpt lat="25.032238" lon="101.738758">
<time>2016-04-06T11:03:09Z</time></trkpt>
<trkpt lat="25.032348" lon="101.738748">
<time>2016-04-06T11:03:10Z</time></trkpt>
<trkpt lat="25.032468" lon="101.738738">
<time>2016-04-06T11:03:11Z</time></trkpt>
<trkpt lat="25.032568" lon="101.738728">
<time>2016-04-06T11:03:12Z</time></trkpt>
<trkpt lat="25.032648" lon="101.738708">
<time>2016-04-06T11:03:13Z</time></trkpt>
<trkpt lat="25.032728" lon="101.738678">
<time>2016-04-06T11:03:14Z</time></trkpt>
<trkpt lat="25.032798" lon="101.738638">
<time>2016-04-06T11:03:15Z</time></trkpt>
<trkpt lat="25.032898" lon="101.738568">
<time>2016-04-06T11:03:16Z</time></trkpt>
<trkpt lat="25.033078" lon="101.738418">
<time>2016-04-06T11:03:17Z</time></trkpt>
<trkpt lat="25.033298" lon="101.738218">
<time>2016-04-06T11:03:18Z</time></trkpt>
<trkpt lat="25.033518" lon="101.738018">
<time>2016-04-06T11:03:19Z</time></trkpt>
<trkpt lat="25.033658" lon="101.737898">
<time>2016-04-06T11:03:20Z</time></trkpt>
<trkpt lat="25.033718" lon="101.737848">
<time>2016-04-06T11:03:21Z</time></trkpt>
<trkpt lat="25.033778" lon="101.737768">
<time>2016-04-06T11:03:22Z</time></trkpt>
<trkpt lat="25.033818" lon="101.737708">
<time>2016-04-06T11:03:23Z</time></trkpt>
<trkpt lat="25.033838" lon="101.737648">
<time>2016-04-06T11:03:24Z</time></trkpt>
<trkpt lat="25.033849" lon="101.737598">
<time>2016-04-06T11:03:25Z</time></trkpt>
<trkpt lat="25.033849" lon="101.737548">
<time>2016-04-06T11:03:26Z</time></trkpt>
<trkpt lat="25.033849" lon="101.737488">
<time>2016-04-06T11:03:27Z</time></trkpt>
<trkpt lat="25.033829" lon="101.737428">
<time>2016-04-06T11:03:28Z</time></trkpt>
<trkpt lat="25.033799" lon="101.737358">
<time>2016-04-06T11:03:29Z</time></trkpt>
<trkpt lat="25.033769" lon="101.737318">
<time>2016-04-06T11:03:30Z</time></trkpt>
<trkpt lat="25.033739" lon="101.737268">
<time>2016-04-06T11:03:31Z</time></trkpt>
<trkpt lat="25.033699" lon="101.737218">
<time>2016-04-06T11:03:32Z</time></trkpt>
<trkpt lat="25.033659" lon="101.737168">
<time>2016-04-06T11:03:33Z</time></trkpt>
<trkpt lat="25.033559" lon="101.737098">
<time>2016-04-06T11:03:34Z</time></trkpt>
<trkpt lat="25.033479" lon="101.737048">
<time>2016-04-06T11:03:35Z</time></trkpt>
<trkpt lat="25.033419" lon="101.737028">
<time>2016-04-06T11:03:36Z</time></trkpt>
<trkpt lat="25.033309" lon="101.736998">
<time>2016-04-06T11:03:37Z</time></trkpt>
<trkpt lat="25.033119" lon="101.736958">
<time>2016-04-06T11:03:38Z</time></trkpt>
<trkpt lat="25.032859" lon="101.736918">
<time>2016-04-06T11:03:39Z</time></trkpt>
<trkpt lat="25.032599" lon="101.736868">
<time>2016-04-06T11:03:40Z</time></trkpt>
<trkpt lat="25.032399" lon="101.736828">
<time>2016-04-06T11:03:41Z</time></trkpt>
<trkpt lat="25.032299" lon="101.736788">
<time>2016-04-06T11:03:42Z</time></trkpt>
<trkpt lat="25.032229" lon="101.736748">
<time>2016-04-06T11:03:43Z</time></trkpt>
<trkpt lat="25.032189" lon="101.736718">
<time>2016-04-06T11:03:44Z</time></trkpt>
<trkpt lat="25.032129" lon="101.736658">
<time>2016-04-06T11:03:45Z</time></trkpt>
<trkpt lat="25.032099" lon="101.736578">
<time>2016-04-06T11:03:46Z</time></trkpt>
<trkpt lat="25.032079" lon="101.736508">
<time>2016-04-06T11:03:47Z</time></trkpt>
<trkpt lat="25.032069" lon="101.736438">
<time>2016-04-06T11:03:48Z</time></trkpt>
<trkpt lat="25.032079" lon="101.736348">
<time>2016-04-06T11:03:49Z</time></trkpt>
<trkpt lat="25.032129" lon="101.736198">
<time>2016-04-06T11:03:50Z</time></trkpt>
<trkpt lat="25.032189" lon="101.736068">
<time>2016-04-06T11:03:51Z</time></trkpt>
<trkpt lat="25.032209" lon="101.735968">
<time>2016-04-06T11:03:52Z</time></trkpt>
<trkpt lat="25.032219" lon="101.735878">
<time>2016-04-06T11:03:53Z</time></trkpt>
<trkpt lat="25.03223" lon="101.735818">
<time>2016-04-06T11:03:54Z</time></trkpt>
<trkpt lat="25.03223" lon="101.735718">
<time>2016-04-06T11:03:55Z</time></trkpt>
<trkpt lat="25.03221" lon="101.735639">
<time>2016-04-06T11:03:56Z</time></trkpt>
<trkpt lat="25.03215" lon="101.735379">
<time>2016-04-06T11:03:57Z</time></trkpt>
<trkpt lat="25.0321" lon="101.735189">
<time>2016-04-06T11:03:58Z</time></trkpt>
<trkpt lat="25.03208" lon="101.735029">
<time>2016-04-06T11:03:59Z</time></trkpt>
<trkpt lat="25.03209" lon="101.734919">
<time>2016-04-06T11:04:00Z</time></trkpt>
<trkpt lat="25.03211" lon="101.734839">
<time>2016-04-06T11:04:01Z</time></trkpt>
<trkpt lat="25.03216" lon="101.734729">
<time>2016-04-06T11:04:02Z</time></trkpt>
<trkpt lat="25.03223" lon="101.734589">
<time>2016-04-06T11:04:03Z</time></trkpt>
<trkpt lat="25.03234" lon="101.734379">
<time>2016-04-06T11:04:04Z</time></trkpt>
<trkpt lat="25.03242" lon="101.734149">
<time>2016-04-06T11:04:05Z</time></trkpt>
<trkpt lat="25.03248" lon="101.734019">
<time>2016-04-06T11:04:06Z</time></trkpt>
<trkpt lat="25.03254" lon="101.733909">
<time>2016-04-06T11:04:07Z</time></trkpt>
<trkpt lat="25.032611" lon="101.733799">
<time>2016-04-06T11:04:08Z</time></trkpt>
<trkpt lat="25.032841" lon="101.733519">
<time>2016-04-06T11:04:09Z</time></trkpt>
<trkpt lat="25.032891" lon="101.733459">
<time>2016-04-06T11:04:10Z</time></trkpt>
<trkpt lat="25.032951" lon="101.733369">
<time>2016-04-06T11:04:11Z</time></trkpt>
<trkpt lat="25.032971" lon="101.733329">
<time>2016-04-06T11:04:12Z</time></trkpt>
<trkpt lat="25.033041" lon="101.733199">
<time>2016-04-06T11:04:13Z</time></trkpt>
<trkpt lat="25.033161" lon="101.73291">
<time>2016-04-06T11:04:14Z</time></trkpt>
<trkpt lat="25.033261" lon="101.73268">
<time>2016-04-06T11:04:15Z</time></trkpt>
<trkpt lat="25.033361" lon="101.73242">
<time>2016-04-06T11:04:16Z</time></trkpt>
<trkpt lat="25.033441" lon="101.73225">
<time>2016-04-06T11:04:17Z</time></trkpt>
<trkpt lat="25.033491" lon="101.73215">
<time>2016-04-06T11:04:18Z</time></trkpt>
<trkpt lat="25.033551" lon="101.73204">
<time>2016-04-06T11:04:19Z</time></trkpt>
<trkpt lat="25.033591" lon="101.73197">
<time>2016-04-06T11:04:20Z</time></trkpt>
<trkpt lat="25.033632" lon="101.73191">
<time>2016-04-06T11:04:21Z</time></trkpt>
<trkpt lat="25.033662" lon="101.73186">
<time>2016-04-06T11:04:22Z</time></trkpt>
<trkpt lat="25.033712" lon="101.73181">
<time>2016-04-06T11:04:23Z</time></trkpt>
<trkpt lat="25.033792" lon="101.73173">
<time>2016-04-06T11:04:24Z</time></trkpt>
<trkpt lat="25.033872" lon="101.73166">
<time>2016-04-06T11:04:25Z</time></trkpt>
<trkpt lat="25.033982" lon="101.73157">
<time>2016-04-06T11:04:26Z</time></trkpt>
<trkpt lat="25.034062" lon="101.73151">
<time>2016-04-06T11:04:27Z</time></trkpt>
<trkpt lat="25.034132" lon="101.73143">
<time>2016-04-06T11:04:28Z</time></trkpt>
<trkpt lat="25.034172" lon="101.73139">
<time>2016-04-06T11:04:29Z</time></trkpt>
<trkpt lat="25.034192" lon="101.73133">
<time>2016-04-06T11:04:30Z</time></trkpt>
<trkpt lat="25.034212" lon="101.73128">
<time>2016-04-06T11:04:31Z</time></trkpt>
<trkpt lat="25.034222" lon="101.73121">
<time>2016-04-06T11:04:32Z</time></trkpt>
<trkpt lat="25.034242" lon="101.73113">
<time>2016-04-06T11:04:33Z</time></trkpt>
<trkpt lat="25.034252" lon="101.730951">
<time>2016-04-06T11:04:34Z</time></trkpt>
<trkpt lat="25.034252" lon="101.730871">
<time>2016-04-06T11:04:35Z</time></trkpt>
<trkpt lat="25.034272" lon="101.730811">
<time>2016-04-06T11:04:36Z</time></trkpt>
<trkpt lat="25.034302" lon="101.730741">
<time>2016-04-06T11:04:37Z</time></trkpt>
<trkpt lat="25.034322" lon="101.730691">
<time>2016-04-06T11:04:38Z</time></trkpt>
<trkpt lat="25.034352" lon="101.730651">
<time>2016-04-06T11:04:39Z</time></trkpt>
<trkpt lat="25.034392" lon="101.730621">
<time>2016-04-06T11:04:40Z</time></trkpt>
<trkpt lat="25.034422" lon="101.730601">
<time>2016-04-06T11:04:41Z</time></trkpt>
<trkpt lat="25.034472" lon="101.730591">
<time>2016-04-06T11:04:42Z</time></trkpt>
<trkpt lat="25.034582" lon="101.730561">
<time>2016-04-06T11:04:43Z</time></trkpt>
<trkpt lat="25.034652" lon="101.730551">
<time>2016-04-06T11:04:44Z</time></trkpt>
<trkpt lat="25.034742" lon="101.730521">
<time>2016-04-06T11:04:45Z</time></trkpt>
<trkpt lat="25.034802" lon="101.730501">
<time>2016-04-06T11:04:46Z</time></trkpt>
<trkpt lat="25.034852" lon="101.730471">
<time>2016-04-06T11:04:47Z</time></trkpt>
<trkpt lat="25.034932" lon="101.730411">
<time>2016-04-06T11:04:48Z</time></trkpt>
<trkpt lat="25.034992" lon="101.730351">
<time>2016-04-06T11:04:49Z</time></trkpt>
<trkpt lat="25.035062" lon="101.730271">
<time>2016-04-06T11:04:50Z</time></trkpt>
<trkpt lat="25.035162" lon="101.730161">
<time>2016-04-06T11:04:51Z</time></trkpt>
<trkpt lat="25.035243" lon="101.730081">
<time>2016-04-06T11:04:52Z</time></trkpt>
<trkpt lat="25.035343" lon="101.729921">
<time>2016-04-06T11:04:53Z</time></trkpt>
<trkpt lat="25.035503" lon="101.729661">
<time>2016-04-06T11:04:54Z</time></trkpt>
<trkpt lat="25.035643" lon="101.729411">
<time>2016-04-06T11:04:55Z</time></trkpt>
<trkpt lat="25.035843" lon="101.729042">
<time>2016-04-06T11:04:56Z</time></trkpt>
<trkpt lat="25.035923" lon="101.728912">
<time>2016-04-06T11:04:57Z</time></trkpt>
<trkpt lat="25.035983" lon="101.728812">
<time>2016-04-06T11:04:58Z</time></trkpt>
<trkpt lat="25.036053" lon="101.728702">
<time>2016-04-06T11:04:59Z</time></trkpt>
<trkpt lat="25.036093" lon="101.728652">
<time>2016-04-06T11:05:00Z</time></trkpt>
<trkpt lat="25.036113" lon="101.728622">
<time>2016-04-06T11:05:01Z</time></trkpt>
<trkpt lat="25.036143" lon="101.728602">
<time>2016-04-06T11:05:02Z</time></trkpt>
<trkpt lat="25.036183" lon="101.728592">
<time>2016-04-06T11:05:03Z</time></trkpt>
<trkpt lat="25.036223" lon="101.728592">
<time>2016-04-06T11:05:04Z</time></trkpt>
<trkpt lat="25.036263" lon="101.728582">
<time>2016-04-06T11:05:05Z</time></trkpt>
<trkpt lat="25.036303" lon="101.728582">
<time>2016-04-06T11:05:06Z</time></trkpt>
<trkpt lat="25.036353" lon="101.728602">
<time>2016-04-06T11:05:07Z</time></trkpt>
<trkpt lat="25.036393" lon="101.728622">
<time>2016-04-06T11:05:08Z</time></trkpt>
<trkpt lat="25.036433" lon="101.728642">
<time>2016-04-06T11:05:09Z</time></trkpt>
<trkpt lat="25.036503" lon="101.728712">
<time>2016-04-06T11:05:10Z</time></trkpt>
<trkpt lat="25.036593" lon="101.728812">
<time>2016-04-06T11:05:11Z</time></trkpt>
<trkpt lat="25.036653" lon="101.728862">
<time>2016-04-06T11:05:12Z</time></trkpt>
<trkpt lat="25.036713" lon="101.728902">
<time>2016-04-06T11:05:13Z</time></trkpt>
<trkpt lat="25.036743" lon="101.728922">
<time>2016-04-06T11:05:14Z</time></trkpt>
<trkpt lat="25.036783" lon="101.728932">
<time>2016-04-06T11:05:15Z</time></trkpt>
<trkpt lat="25.036843" lon="101.728942">
<time>2016-04-06T11:05:16Z</time></trkpt>
<trkpt lat="25.036873" lon="101.728952">
<time>2016-04-06T11:05:17Z</time></trkpt>
<trkpt lat="25.036913" lon="101.728952">
<time>2016-04-06T11:05:18Z</time></trkpt>
<trkpt lat="25.036963" lon="101.728942">
<time>2016-04-06T11:05:19Z</time></trkpt>
<trkpt lat="25.037003" lon="101.728922">
<time>2016-04-06T11:05:20Z</time></trkpt>
<trkpt lat="25.037043" lon="101.728892">
<time>2016-04-06T11:05:21Z</time></trkpt>
<trkpt lat="25.037083" lon="101.728862">
<time>2016-04-06T11:05:22Z</time></trkpt>
<trkpt lat="25.037123" lon="101.728802">
<time>2016-04-06T11:05:23Z</time></trkpt>
<trkpt lat="25.037173" lon="101.728702">
<time>2016-04-06T11:05:24Z</time></trkpt>
<trkpt lat="25.037314" lon="101.728382">
<time>2016-04-06T11:05:25Z</time></trkpt>
<trkpt lat="25.037384" lon="101.728192">
<time>2016-04-06T11:05:26Z</time></trkpt>
<trkpt lat="25.037494" lon="101.727922">
<time>2016-04-06T11:05:27Z</time></trkpt>
<trkpt lat="25.037604" lon="101.727642">
<time>2016-04-06T11:05:28Z</time></trkpt>
<trkpt lat="25.037754" lon="101.727353">
<time>2016-04-06T11:05:29Z</time></trkpt>
<trkpt lat="25.037824" lon="101.727233">
<time>2016-04-06T11:05:30Z</time></trkpt>
<trkpt lat="25.037974" lon="101.727023">
<time>2016-04-06T11:05:31Z</time></trkpt>
<trkpt lat="25.038125" lon="101.726833">
<time>2016-04-06T11:05:32Z</time></trkpt>
<trkpt lat="25.038365" lon="101.726543">
<time>2016-04-06T11:05:33Z</time></trkpt>
<trkpt lat="25.038615" lon="101.726233">
<time>2016-04-06T11:05:34Z</time></trkpt>
<trkpt lat="25.038815" lon="101.726013">
<time>2016-04-06T11:05:35Z</time></trkpt>
<trkpt lat="25.038955" lon="101.725854">
<time>2016-04-06T11:05:36Z</time></trkpt>
<trkpt lat="25.039115" lon="101.725714">
<time>2016-04-06T11:05:37Z</time></trkpt>
<trkpt lat="25.039456" lon="101.725464">
<time>2016-04-06T11:05:38Z</time></trkpt>
<trkpt lat="25.039766" lon="101.725214">
<time>2016-04-06T11:05:39Z</time></trkpt>
<trkpt lat="25.039976" lon="101.725034">
<time>2016-04-06T11:05:40Z</time></trkpt>
<trkpt lat="25.040066" lon="101.724954">
<time>2016-04-06T11:05:41Z</time></trkpt>
<trkpt lat="25.040156" lon="101.724864">
<time>2016-04-06T11:05:42Z</time></trkpt>
<trkpt lat="25.040216" lon="101.724774">
<time>2016-04-06T11:05:43Z</time></trkpt>
<trkpt lat="25.040246" lon="101.724724">
<time>2016-04-06T11:05:44Z</time></trkpt>
<trkpt lat="25.040286" lon="101.724615">
<time>2016-04-06T11:05:45Z</time></trkpt>
<trkpt lat="25.040326" lon="101.724515">
<time>2016-04-06T11:05:46Z</time></trkpt>
<trkpt lat="25.040366" lon="101.724385">
<time>2016-04-06T11:05:47Z</time></trkpt>
<trkpt lat="25.040397" lon="101.724265">
<time>2016-04-06T11:05:48Z</time></trkpt>
<trkpt lat="25.040457" lon="101.724085">
<time>2016-04-06T11:05:49Z</time></trkpt>
<trkpt lat="25.040497" lon="101.723955">
<time>2016-04-06T11:05:50Z</time></trkpt>
<trkpt lat="25.040547" lon="101.723835">
<time>2016-04-06T11:05:51Z</time></trkpt>
<trkpt lat="25.040577" lon="101.723765">
<time>2016-04-06T11:05:52Z</time></trkpt>
<trkpt lat="25.040627" lon="101.723675">
<time>2016-04-06T11:05:53Z</time></trkpt>
<trkpt lat="25.040677" lon="101.723625">
<time>2016-04-06T11:05:54Z</time></trkpt>
<trkpt lat="25.040747" lon="101.723575">
<time>2016-04-06T11:05:55Z</time></trkpt>
<trkpt lat="25.040797" lon="101.723545">
<time>2016-04-06T11:05:56Z</time></trkpt>
<trkpt lat="25.040857" lon="101.723525">
<time>2016-04-06T11:05:57Z</time></trkpt>
<trkpt lat="25.040947" lon="101.723495">
<time>2016-04-06T11:05:58Z</time></trkpt>
<trkpt lat="25.041177" lon="101.723445">
<time>2016-04-06T11:05:59Z</time></trkpt>
<trkpt lat="25.041327" lon="101.723405">
<time>2016-04-06T11:06:00Z</time></trkpt>
<trkpt lat="25.041537" lon="101.723326">
<time>2016-04-06T11:06:01Z</time></trkpt>
<trkpt lat="25.041657" lon="101.723286">
<time>2016-04-06T11:06:02Z</time></trkpt>
<trkpt lat="25.041727" lon="101.723266">
<time>2016-04-06T11:06:03Z</time></trkpt>
<trkpt lat="25.041797" lon="101.723256">
<time>2016-04-06T11:06:04Z</time></trkpt>
<trkpt lat="25.041847" lon="101.723246">
<time>2016-04-06T11:06:05Z</time></trkpt>
<trkpt lat="25.041927" lon="101.723246">
<time>2016-04-06T11:06:06Z</time></trkpt>
<trkpt lat="25.041987" lon="101.723246">
<time>2016-04-06T11:06:07Z</time></trkpt>
<trkpt lat="25.042047" lon="101.723256">
<time>2016-04-06T11:06:08Z</time></trkpt>
<trkpt lat="25.042077" lon="101.723266">
<time>2016-04-06T11:06:09Z</time></trkpt>
<trkpt lat="25.042147" lon="101.723286">
<time>2016-04-06T11:06:10Z</time></trkpt>
<trkpt lat="25.042187" lon="101.723315">
<time>2016-04-06T11:06:11Z</time></trkpt>
<trkpt lat="25.042227" lon="101.723335">
<time>2016-04-06T11:06:12Z</time></trkpt>
<trkpt lat="25.042287" lon="101.723375">
<time>2016-04-06T11:06:13Z</time></trkpt>
<trkpt lat="25.042377" lon="101.723455">
<time>2016-04-06T11:06:14Z</time></trkpt>
<trkpt lat="25.042417" lon="101.723505">
<time>2016-04-06T11:06:15Z</time></trkpt>
<trkpt lat="25.042557" lon="101.723645">
<time>2016-04-06T11:06:16Z</time></trkpt>
<trkpt lat="25.042647" lon="101.723725">
<time>2016-04-06T11:06:17Z</time></trkpt>
<trkpt lat="25.042777" lon="101.723835">
<time>2016-04-06T11:06:18Z</time></trkpt>
<trkpt lat="25.042957" lon="101.723965">
<time>2016-04-06T11:06:19Z</time></trkpt>
<trkpt lat="25.043346" lon="101.724235">
<time>2016-04-06T11:06:20Z</time></trkpt>
<trkpt lat="25.043726" lon="101.724485">
<time>2016-04-06T11:06:21Z</time></trkpt>
<trkpt lat="25.043956" lon="101.724644">
<time>2016-04-06T11:06:22Z</time></trkpt>
<trkpt lat="25.044176" lon="101.724814">
<time>2016-04-06T11:06:23Z</time></trkpt>
<trkpt lat="25.044356" lon="101.724914">
<time>2016-04-06T11:06:24Z</time></trkpt>
<trkpt lat="25.044426" lon="101.724944">
<time>2016-04-06T11:06:25Z</time></trkpt>
<trkpt lat="25.044485" lon="101.724954">
<time>2016-04-06T11:06:26Z</time></trkpt>
<trkpt lat="25.044545" lon="101.724954">
<time>2016-04-06T11:06:27Z</time></trkpt>
<trkpt lat="25.044595" lon="101.724954">
<time>2016-04-06T11:06:28Z</time></trkpt>
<trkpt lat="25.044645" lon="101.724934">
<time>2016-04-06T11:06:29Z</time></trkpt>
<trkpt lat="25.044675" lon="101.724914">
<time>2016-04-06T11:06:30Z</time></trkpt>
<trkpt lat="25.044716" lon="101.724884">
<time>2016-04-06T11:06:31Z</time></trkpt>
<trkpt lat="25.044756" lon="101.724854">
<time>2016-04-06T11:06:32Z</time></trkpt>
<trkpt lat="25.044776" lon="101.724814">
<time>2016-04-06T11:06:33Z</time></trkpt>
<trkpt lat="25.044786" lon="101.724764">
<time>2016-04-06T11:06:34Z</time></trkpt>
<trkpt lat="25.044806" lon="101.724704">
<time>2016-04-06T11:06:35Z</time></trkpt>
<trkpt lat="25.044806" lon="101.724654">
<time>2016-04-06T11:06:36Z</time></trkpt>
<trkpt lat="25.044806" lon="101.724574">
<time>2016-04-06T11:06:37Z</time></trkpt>
<trkpt lat="25.044796" lon="101.724504">
<time>2016-04-06T11:06:38Z</time></trkpt>
<trkpt lat="25.044776" lon="101.724415">
<time>2016-04-06T11:06:39Z</time></trkpt>
<trkpt lat="25.044736" lon="101.724245">
<time>2016-04-06T11:06:40Z</time></trkpt>
<trkpt lat="25.044716" lon="101.724145">
<time>2016-04-06T11:06:41Z</time></trkpt>
<trkpt lat="25.044676" lon="101.724035">
<time>2016-04-06T11:06:42Z</time></trkpt>
<trkpt lat="25.044656" lon="101.723965">
<time>2016-04-06T11:06:43Z</time></trkpt>
<trkpt lat="25.044626" lon="101.723885">
<time>2016-04-06T11:06:44Z</time></trkpt>
<trkpt lat="25.044557" lon="101.723685">
<time>2016-04-06T11:06:45Z</time></trkpt>
<trkpt lat="25.044497" lon="101.723525">
<time>2016-04-06T11:06:46Z</time></trkpt>
<trkpt lat="25.044477" lon="101.723425">
<time>2016-04-06T11:06:47Z</time></trkpt>
<trkpt lat="25.044427" lon="101.723226">
<time>2016-04-06T11:06:48Z</time></trkpt>
<trkpt lat="25.044357" lon="101.722836">
<time>2016-04-06T11:06:49Z</time></trkpt>
<trkpt lat="25.044328" lon="101.722706">
<time>2016-04-06T11:06:50Z</time></trkpt>
<trkpt lat="25.044278" lon="101.722526">
<time>2016-04-06T11:06:51Z</time></trkpt>
<trkpt lat="25.044248" lon="101.722416">
<time>2016-04-06T11:06:52Z</time></trkpt>
<trkpt lat="25.044218" lon="101.722336">
<time>2016-04-06T11:06:53Z</time></trkpt>
<trkpt lat="25.044188" lon="101.722266">
<time>2016-04-06T11:06:54Z</time></trkpt>
<trkpt lat="25.044148" lon="101.722186">
<time>2016-04-06T11:06:55Z</time></trkpt>
<trkpt lat="25.044098" lon="101.722106">
<time>2016-04-06T11:06:56Z</time></trkpt>
<trkpt lat="25.044028" lon="101.722017">
<time>2016-04-06T11:06:57Z</time></trkpt>
<trkpt lat="25.043958" lon="101.721927">
<time>2016-04-06T11:06:58Z</time></trkpt>
<trkpt lat="25.043918" lon="101.721867">
<time>2016-04-06T11:06:59Z</time></trkpt>
<trkpt lat="25.043898" lon="101.721817">
<time>2016-04-06T11:07:00Z</time></trkpt>
<trkpt lat="25.043879" lon="101.721757">
<time>2016-04-06T11:07:01Z</time></trkpt>
<trkpt lat="25.043869" lon="101.721677">
<time>2016-04-06T11:07:02Z</time></trkpt>
<trkpt lat="25.043869" lon="101.721617">
<time>2016-04-06T11:07:03Z</time></trkpt>
<trkpt lat="25.043889" lon="101.721547">
<time>2016-04-06T11:07:04Z</time></trkpt>
<trkpt lat="25.043899" lon="101.721477">
<time>2016-04-06T11:07:05Z</time></trkpt>
<trkpt lat="25.043949" lon="101.721397">
<time>2016-04-06T11:07:06Z</time></trkpt>
<trkpt lat="25.043999" lon="101.721317">
<time>2016-04-06T11:07:07Z</time></trkpt>
<trkpt lat="25.044079" lon="101.721227">
<time>2016-04-06T11:07:08Z</time></trkpt>
<trkpt lat="25.044149" lon="101.721147">
<time>2016-04-06T11:07:09Z</time></trkpt>
<trkpt lat="25.044229" lon="101.721067">
<time>2016-04-06T11:07:10Z</time></trkpt>
<trkpt lat="25.044369" lon="101.720967">
<time>2016-04-06T11:07:11Z</time></trkpt>
<trkpt lat="25.044459" lon="101.720908">
<time>2016-04-06T11:07:12Z</time></trkpt>
<trkpt lat="25.044539" lon="101.720848">
<time>2016-04-06T11:07:13Z</time></trkpt>
<trkpt lat="25.044579" lon="101.720798">
<time>2016-04-06T11:07:14Z</time></trkpt>
<trkpt lat="25.044619" lon="101.720748">
<time>2016-04-06T11:07:15Z</time></trkpt>
<trkpt lat="25.044639" lon="101.720698">
<time>2016-04-06T11:07:16Z</time></trkpt>
<trkpt lat="25.04464" lon="101.720638">
<time>2016-04-06T11:07:17Z</time></trkpt>
<trkpt lat="25.04463" lon="101.720608">
<time>2016-04-06T11:07:18Z</time></trkpt>
<trkpt lat="25.04462" lon="101.720558">
<time>2016-04-06T11:07:19Z</time></trkpt>
<trkpt lat="25.0446" lon="101.720508">
<time>2016-04-06T11:07:20Z</time></trkpt>
<trkpt lat="25.04457" lon="101.720458">
<time>2016-04-06T11:07:21Z</time></trkpt>
<trkpt lat="25.04454" lon="101.720428">
<time>2016-04-06T11:07:22Z</time></trkpt>
<trkpt lat="25.04447" lon="101.720368">
<time>2016-04-06T11:07:23Z</time></trkpt>
<trkpt lat="25.04442" lon="101.720338">
<time>2016-04-06T11:07:24Z</time></trkpt>
<trkpt lat="25.04438" lon="101.720318">
<time>2016-04-06T11:07:25Z</time></trkpt>
<trkpt lat="25.04427" lon="101.720278">
<time>2016-04-06T11:07:26Z</time></trkpt>
<trkpt lat="25.04416" lon="101.720238">
<time>2016-04-06T11:07:27Z</time></trkpt>
<trkpt lat="25.04396" lon="101.720188">
<time>2016-04-06T11:07:28Z</time></trkpt>
<trkpt lat="25.04383" lon="101.720148">
<time>2016-04-06T11:07:29Z</time></trkpt>
<trkpt lat="25.04369" lon="101.720108">
<time>2016-04-06T11:07:30Z</time></trkpt>
<trkpt lat="25.04361" lon="101.720078">
<time>2016-04-06T11:07:31Z</time></trkpt>
<trkpt lat="25.0435" lon="101.720028">
<time>2016-04-06T11:07:32Z</time></trkpt>
<trkpt lat="25.04341" lon="101.719978">
<time>2016-04-06T11:07:33Z</time></trkpt>
<trkpt lat="25.04334" lon="101.719938">
<time>2016-04-06T11:07:34Z</time></trkpt>
<trkpt lat="25.04327" lon="101.719889">
<time>2016-04-06T11:07:35Z</time></trkpt>
<trkpt lat="25.043151" lon="101.719799">
<time>2016-04-06T11:07:36Z</time></trkpt>
<trkpt lat="25.043071" lon="101.719719">
<time>2016-04-06T11:07:37Z</time></trkpt>
<trkpt lat="25.042991" lon="101.719639">
<time>2016-04-06T11:07:38Z</time></trkpt>
<trkpt lat="25.042941" lon="101.719589">
<time>2016-04-06T11:07:39Z</time></trkpt>
<trkpt lat="25.042891" lon="101.719519">
<time>2016-04-06T11:07:40Z</time></trkpt>
<trkpt lat="25.042861" lon="101.719459">
<time>2016-04-06T11:07:41Z</time></trkpt>
<trkpt lat="25.042831" lon="101.719399">
<time>2016-04-06T11:07:42Z</time></trkpt>
<trkpt lat="25.042791" lon="101.719319">
<time>2016-04-06T11:07:43Z</time></trkpt>
<trkpt lat="25.042771" lon="101.719259">
<time>2016-04-06T11:07:44Z</time></trkpt>
<trkpt lat="25.042721" lon="101.719099">
<time>2016-04-06T11:07:45Z</time></trkpt>
<trkpt lat="25.042582" lon="101.71864">
<time>2016-04-06T11:07:46Z</time></trkpt>
<trkpt lat="25.042482" lon="101.71834">
<time>2016-04-06T11:07:47Z</time></trkpt>
<trkpt lat="25.042373" lon="101.71804">
<time>2016-04-06T11:07:48Z</time></trkpt>
<trkpt lat="25.042283" lon="101.717751">
<time>2016-04-06T11:07:49Z</time></trkpt>
<trkpt lat="25.042203" lon="101.717491">
<time>2016-04-06T11:07:50Z</time></trkpt>
<trkpt lat="25.042173" lon="101.717381">
<time>2016-04-06T11:07:51Z</time></trkpt>
<trkpt lat="25.042153" lon="101.717261">
<time>2016-04-06T11:07:52Z</time></trkpt>
<trkpt lat="25.042154" lon="101.717181">
<time>2016-04-06T11:07:53Z</time></trkpt>
<trkpt lat="25.042154" lon="101.717091">
<time>2016-04-06T11:07:54Z</time></trkpt>
<trkpt lat="25.042174" lon="101.717031">
<time>2016-04-06T11:07:55Z</time></trkpt>
<trkpt lat="25.042194" lon="101.716962">
<time>2016-04-06T11:07:56Z</time></trkpt>
<trkpt lat="25.042254" lon="101.716812">
<time>2016-04-06T11:07:57Z</time></trkpt>
<trkpt lat="25.042424" lon="101.716492">
<time>2016-04-06T11:07:58Z</time></trkpt>
<trkpt lat="25.042565" lon="101.716232">
<time>2016-04-06T11:07:59Z</time></trkpt>
<trkpt lat="25.042665" lon="101.716033">
<time>2016-04-06T11:08:00Z</time></trkpt>
<trkpt lat="25.042765" lon="101.715853">
<time>2016-04-06T11:08:01Z</time></trkpt>
<trkpt lat="25.042865" lon="101.715683">
<time>2016-04-06T11:08:02Z</time></trkpt>
<trkpt lat="25.042985" lon="101.715513">
<time>2016-04-06T11:08:03Z</time></trkpt>
<trkpt lat="25.043025" lon="101.715463">
<time>2016-04-06T11:08:04Z</time></trkpt>
<trkpt lat="25.043075" lon="101.715423">
<time>2016-04-06T11:08:05Z</time></trkpt>
<trkpt lat="25.043145" lon="101.715373">
<time>2016-04-06T11:08:06Z</time></trkpt>
<trkpt lat="25.043186" lon="101.715353">
<time>2016-04-06T11:08:07Z</time></trkpt>
<trkpt lat="25.043246" lon="101.715343">
<time>2016-04-06T11:08:08Z</time></trkpt>
<trkpt lat="25.043286" lon="101.715333">
<time>2016-04-06T11:08:09Z</time></trkpt>
<trkpt lat="25.043366" lon="101.715323">
<time>2016-04-06T11:08:10Z</time></trkpt>
<trkpt lat="25.043466" lon="101.715313">
<time>2016-04-06T11:08:11Z</time></trkpt>
<trkpt lat="25.043596" lon="101.715313">
<time>2016-04-06T11:08:12Z</time></trkpt>
<trkpt lat="25.043656" lon="101.715303">
<time>2016-04-06T11:08:13Z</time></trkpt>
<trkpt lat="25.043706" lon="101.715283">
<time>2016-04-06T11:08:14Z</time></trkpt>
<trkpt lat="25.043756" lon="101.715263">
<time>2016-04-06T11:08:15Z</time></trkpt>
<trkpt lat="25.043796" lon="101.715253">
<time>2016-04-06T11:08:16Z</time></trkpt>
<trkpt lat="25.043846" lon="101.715223">
<time>2016-04-06T11:08:17Z</time></trkpt>
<trkpt lat="25.043886" lon="101.715183">
<time>2016-04-06T11:08:18Z</time></trkpt>
<trkpt lat="25.043926" lon="101.715153">
<time>2016-04-06T11:08:19Z</time></trkpt>
<trkpt lat="25.043986" lon="101.715074">
<time>2016-04-06T11:08:20Z</time></trkpt>
<trkpt lat="25.044036" lon="101.714994">
<time>2016-04-06T11:08:21Z</time></trkpt>
<trkpt lat="25.044086" lon="101.714894">
<time>2016-04-06T11:08:22Z</time></trkpt>
<trkpt lat="25.044126" lon="101.714794">
<time>2016-04-06T11:08:23Z</time></trkpt>
<trkpt lat="25.044216" lon="101.714554">
<time>2016-04-06T11:08:24Z</time></trkpt>
<trkpt lat="25.044297" lon="101.714324">
<time>2016-04-06T11:08:25Z</time></trkpt>
<trkpt lat="25.044347" lon="101.714205">
<time>2016-04-06T11:08:26Z</time></trkpt>
<trkpt lat="25.044427" lon="101.714045">
<time>2016-04-06T11:08:27Z</time></trkpt>
<trkpt lat="25.044527" lon="101.713885">
<time>2016-04-06T11:08:28Z</time></trkpt>
<trkpt lat="25.044697" lon="101.713645">
<time>2016-04-06T11:08:29Z</time></trkpt>
<trkpt lat="25.044808" lon="101.713415">
<time>2016-04-06T11:08:30Z</time></trkpt>
<trkpt lat="25.044918" lon="101.713166">
<time>2016-04-06T11:08:31Z</time></trkpt>
<trkpt lat="25.044978" lon="101.712976">
<time>2016-04-06T11:08:32Z</time></trkpt>
<trkpt lat="25.045038" lon="101.712766">
<time>2016-04-06T11:08:33Z</time></trkpt>
<trkpt lat="25.045049" lon="101.712686">
<time>2016-04-06T11:08:34Z</time></trkpt>
<trkpt lat="25.045049" lon="101.712606">
<time>2016-04-06T11:08:35Z</time></trkpt>
<trkpt lat="25.045029" lon="101.712546">
<time>2016-04-06T11:08:36Z</time></trkpt>
<trkpt lat="25.045019" lon="101.712487">
<time>2016-04-06T11:08:37Z</time></trkpt>
<trkpt lat="25.044999" lon="101.712447">
<time>2016-04-06T11:08:38Z</time></trkpt>
<trkpt lat="25.044969" lon="101.712397">
<time>2016-04-06T11:08:39Z</time></trkpt>
<trkpt lat="25.044929" lon="101.712357">
<time>2016-04-06T11:08:40Z</time></trkpt>
<trkpt lat="25.044889" lon="101.712317">
<time>2016-04-06T11:08:41Z</time></trkpt>
<trkpt lat="25.044849" lon="101.712297">
<time>2016-04-06T11:08:42Z</time></trkpt>
<trkpt lat="25.044799" lon="101.712287">
<time>2016-04-06T11:08:43Z</time></trkpt>
<trkpt lat="25.044759" lon="101.712287">
<time>2016-04-06T11:08:44Z</time></trkpt>
<trkpt lat="25.044699" lon="101.712297">
<time>2016-04-06T11:08:45Z</time></trkpt>
<trkpt lat="25.044599" lon="101.712327">
<time>2016-04-06T11:08:46Z</time></trkpt>
<trkpt lat="25.044509" lon="101.712357">
<time>2016-04-06T11:08:47Z</time></trkpt>
<trkpt lat="25.044369" lon="101.712397">
<time>2016-04-06T11:08:48Z</time></trkpt>
<trkpt lat="25.044299" lon="101.712397">
<time>2016-04-06T11:08:49Z</time></trkpt>
<trkpt lat="25.044239" lon="101.712377">
<time>2016-04-06T11:08:50Z</time></trkpt>
<trkpt lat="25.044179" lon="101.712357">
<time>2016-04-06T11:08:51Z</time></trkpt>
<trkpt lat="25.044109" lon="101.712307">
<time>2016-04-06T11:08:52Z</time></trkpt>
<trkpt lat="25.044059" lon="101.712257">
<time>2016-04-06T11:08:53Z</time></trkpt>
<trkpt lat="25.044019" lon="101.712217">
<time>2016-04-06T11:08:54Z</time></trkpt>
<trkpt lat="25.043939" lon="101.712137">
<time>2016-04-06T11:08:55Z</time></trkpt>
<trkpt lat="25.043839" lon="101.712057">
<time>2016-04-06T11:08:56Z</time></trkpt>
<trkpt lat="25.04373" lon="101.711957">
<time>2016-04-06T11:08:57Z</time></trkpt>
<trkpt lat="25.04365" lon="101.711907">
<time>2016-04-06T11:08:58Z</time></trkpt>
<trkpt lat="25.04357" lon="101.711867">
<time>2016-04-06T11:08:59Z</time></trkpt>
<trkpt lat="25.04346" lon="101.711817">
<time>2016-04-06T11:09:00Z</time></trkpt>
<trkpt lat="25.04337" lon="101.711787">
<time>2016-04-06T11:09:01Z</time></trkpt>
<trkpt lat="25.04327" lon="101.711747">
<time>2016-04-06T11:09:02Z</time></trkpt>
<trkpt lat="25.04322" lon="101.711718">
<time>2016-04-06T11:09:03Z</time></trkpt>
<trkpt lat="25.04319" lon="101.711708">
<time>2016-04-06T11:09:04Z</time></trkpt>
<trkpt lat="25.04315" lon="101.711678">
<time>2016-04-06T11:09:05Z</time></trkpt>
<trkpt lat="25.04312" lon="101.711658">
<time>2016-04-06T11:09:06Z</time></trkpt>
<trkpt lat="25.04309" lon="101.711628">
<time>2016-04-06T11:09:07Z</time></trkpt>
<trkpt lat="25.04308" lon="101.711598">
<time>2016-04-06T11:09:08Z</time></trkpt>
<trkpt lat="25.04306" lon="101.711558">
<time>2016-04-06T11:09:09Z</time></trkpt>
<trkpt lat="25.04305" lon="101.711528">
<time>2016-04-06T11:09:10Z</time></trkpt>
<trkpt lat="25.04304" lon="101.711478">
<time>2016-04-06T11:09:11Z</time></trkpt>
<trkpt lat="25.04304" lon="101.711438">
<time>2016-04-06T11:09:12Z</time></trkpt>
<trkpt lat="25.04304" lon="101.711428">
<time>2016-04-06T11:09:13Z</time></trkpt>
<trkpt lat="25.04304" lon="101.711378">
<time>2016-04-06T11:09:14Z</time></trkpt>
<trkpt lat="25.04304" lon="101.711338">
<time>2016-04-06T11:09:15Z</time></trkpt>
<trkpt lat="25.043061" lon="101.711278">
<time>2016-04-06T11:09:16Z</time></trkpt>
<trkpt lat="25.043071" lon="101.711238">
<time>2016-04-06T11:09:17Z</time></trkpt>
<trkpt lat="25.043091" lon="101.711188">
<time>2016-04-06T11:09:18Z</time></trkpt>
<trkpt lat="25.043111" lon="101.711158">
<time>2016-04-06T11:09:19Z</time></trkpt>
<trkpt lat="25.043151" lon="101.711088">
<time>2016-04-06T11:09:20Z</time></trkpt>
<trkpt lat="25.043201" lon="101.710998">
<time>2016-04-06T11:09:21Z</time></trkpt>
<trkpt lat="25.043291" lon="101.710899">
<time>2016-04-06T11:09:22Z</time></trkpt>
<trkpt lat="25.043431" lon="101.710669">
<time>2016-04-06T11:09:23Z</time></trkpt>
<trkpt lat="25.043522" lon="101.710509">
<time>2016-04-06T11:09:24Z</time></trkpt>
<trkpt lat="25.043612" lon="101.710359">
<time>2016-04-06T11:09:25Z</time></trkpt>
<trkpt lat="25.043662" lon="101.710249">
<time>2016-04-06T11:09:26Z</time></trkpt>
<trkpt lat="25.043732" lon="101.71012">
<time>2016-04-06T11:09:27Z</time></trkpt>
<trkpt lat="25.043772" lon="101.71001">
<time>2016-04-06T11:09:28Z</time></trkpt>
<trkpt lat="25.043792" lon="101.70992">
<time>2016-04-06T11:09:29Z</time></trkpt>
<trkpt lat="25.043853" lon="101.70971">
<time>2016-04-06T11:09:30Z</time></trkpt>
<trkpt lat="25.043893" lon="101.70951">
<time>2016-04-06T11:09:31Z</time></trkpt>
<trkpt lat="25.043963" lon="101.709191">
<time>2016-04-06T11:09:32Z</time></trkpt>
<trkpt lat="25.044054" lon="101.708681">
<time>2016-04-06T11:09:33Z</time></trkpt>
<trkpt lat="25.044134" lon="101.708312">
<time>2016-04-06T11:09:34Z</time></trkpt>
<trkpt lat="25.044175" lon="101.708162">
<time>2016-04-06T11:09:35Z</time></trkpt>
<trkpt lat="25.044235" lon="101.708012">
<time>2016-04-06T11:09:36Z</time></trkpt>
<trkpt lat="25.044285" lon="101.707892">
<time>2016-04-06T11:09:37Z</time></trkpt>
<trkpt lat="25.044325" lon="101.707813">
<time>2016-04-06T11:09:38Z</time></trkpt>
<trkpt lat="25.044425" lon="101.707653">
<time>2016-04-06T11:09:39Z</time></trkpt>
<trkpt lat="25.044525" lon="101.707533">
<time>2016-04-06T11:09:40Z</time></trkpt>
<trkpt lat="25.044736" lon="101.707273">
<time>2016-04-06T11:09:41Z</time></trkpt>
<trkpt lat="25.044986" lon="101.707004">
<time>2016-04-06T11:09:42Z</time></trkpt>
<trkpt lat="25.045327" lon="101.706634">
<time>2016-04-06T11:09:43Z</time></trkpt>
<trkpt lat="25.045617" lon="101.706315">
<time>2016-04-06T11:09:44Z</time></trkpt>
<trkpt lat="25.045887" lon="101.706025">
<time>2016-04-06T11:09:45Z</time></trkpt>
<trkpt lat="25.046158" lon="101.705735">
<time>2016-04-06T11:09:46Z</time></trkpt>
<trkpt lat="25.046458" lon="101.705406">
<time>2016-04-06T11:09:47Z</time></trkpt>
<trkpt lat="25.046588" lon="101.705266">
<time>2016-04-06T11:09:48Z</time></trkpt>
<trkpt lat="25.046709" lon="101.705116">
<time>2016-04-06T11:09:49Z</time></trkpt>
<trkpt lat="25.046769" lon="101.705046">
<time>2016-04-06T11:09:50Z</time></trkpt>
<trkpt lat="25.046819" lon="101.704957">
<time>2016-04-06T11:09:51Z</time></trkpt>
<trkpt lat="25.046859" lon="101.704897">
<time>2016-04-06T11:09:52Z</time></trkpt>
<trkpt lat="25.046879" lon="101.704817">
<time>2016-04-06T11:09:53Z</time></trkpt>
<trkpt lat="25.046899" lon="101.704747">
<time>2016-04-06T11:09:54Z</time></trkpt>
<trkpt lat="25.046909" lon="101.704637">
<time>2016-04-06T11:09:55Z</time></trkpt>
<trkpt lat="25.0469" lon="101.704297">
<time>2016-04-06T11:09:56Z</time></trkpt>
<trkpt lat="25.0469" lon="101.704108">
<time>2016-04-06T11:09:57Z</time></trkpt>
<trkpt lat="25.046911" lon="101.703858">
<time>2016-04-06T11:09:58Z</time></trkpt>
<trkpt lat="25.046931" lon="101.703579">
<time>2016-04-06T11:09:59Z</time></trkpt>
<trkpt lat="25.046961" lon="101.703269">
<time>2016-04-06T11:10:00Z</time></trkpt>
<trkpt lat="25.047022" lon="101.70286">
<time>2016-04-06T11:10:01Z</time></trkpt>
<trkpt lat="25.047103" lon="101.70241">
<time>2016-04-06T11:10:02Z</time></trkpt>
<trkpt lat="25.047183" lon="101.702051">
<time>2016-04-06T11:10:03Z</time></trkpt>
<trkpt lat="25.047274" lon="101.701671">
<time>2016-04-06T11:10:04Z</time></trkpt>
<trkpt lat="25.047364" lon="101.701342">
<time>2016-04-06T11:10:05Z</time></trkpt>
<trkpt lat="25.047405" lon="101.701192">
<time>2016-04-06T11:10:06Z</time></trkpt>
<trkpt lat="25.047445" lon="101.701072">
<time>2016-04-06T11:10:07Z</time></trkpt>
<trkpt lat="25.047495" lon="101.700982">
<time>2016-04-06T11:10:08Z</time></trkpt>
<trkpt lat="25.047575" lon="101.700843">
<time>2016-04-06T11:10:09Z</time></trkpt>
<trkpt lat="25.047635" lon="101.700763">
<time>2016-04-06T11:10:10Z</time></trkpt>
<trkpt lat="25.047705" lon="101.700683">
<time>2016-04-06T11:10:11Z</time></trkpt>
<trkpt lat="25.047825" lon="101.700563">
<time>2016-04-06T11:10:12Z</time></trkpt>
<trkpt lat="25.047956" lon="101.700423">
<time>2016-04-06T11:10:13Z</time></trkpt>
<trkpt lat="25.048136" lon="101.700244">
<time>2016-04-06T11:10:14Z</time></trkpt>
<trkpt lat="25.048236" lon="101.700124">
<time>2016-04-06T11:10:15Z</time></trkpt>
<trkpt lat="25.048316" lon="101.700004">
<time>2016-04-06T11:10:16Z</time></trkpt>
<trkpt lat="25.048407" lon="101.699784">
<time>2016-04-06T11:10:17Z</time></trkpt>
<trkpt lat="25.048467" lon="101.699605">
<time>2016-04-06T11:10:18Z</time></trkpt>
<trkpt lat="25.048638" lon="101.699045">
<time>2016-04-06T11:10:19Z</time></trkpt>
<trkpt lat="25.048758" lon="101.698646">
<time>2016-04-06T11:10:20Z</time></trkpt>
<trkpt lat="25.048839" lon="101.698307">
<time>2016-04-06T11:10:21Z</time></trkpt>
<trkpt lat="25.048879" lon="101.698147">
<time>2016-04-06T11:10:22Z</time></trkpt>
<trkpt lat="25.04895" lon="101.697867">
<time>2016-04-06T11:10:23Z</time></trkpt>
<trkpt lat="25.04897" lon="101.697718">
<time>2016-04-06T11:10:24Z</time></trkpt>
<trkpt lat="25.04899" lon="101.697568">
<time>2016-04-06T11:10:25Z</time></trkpt>
<trkpt lat="25.049001" lon="101.697298">
<time>2016-04-06T11:10:26Z</time></trkpt>
<trkpt lat="25.049011" lon="101.696899">
<time>2016-04-06T11:10:27Z</time></trkpt>
<trkpt lat="25.049012" lon="101.69653">
<time>2016-04-06T11:10:28Z</time></trkpt>
<trkpt lat="25.049022" lon="101.69647">
<time>2016-04-06T11:10:29Z</time></trkpt>
<trkpt lat="25.049023" lon="101.69612">
<time>2016-04-06T11:10:30Z</time></trkpt>
<trkpt lat="25.049023" lon="101.695681">
<time>2016-04-06T11:10:31Z</time></trkpt>
<trkpt lat="25.049034" lon="101.695252">
<time>2016-04-06T11:10:32Z</time></trkpt>
<trkpt lat="25.049035" lon="101.694832">
<time>2016-04-06T11:10:33Z</time></trkpt>
<trkpt lat="25.049025" lon="101.694533">
<time>2016-04-06T11:10:34Z</time></trkpt>
<trkpt lat="25.049005" lon="101.694423">
<time>2016-04-06T11:10:35Z</time></trkpt>
<trkpt lat="25.048986" lon="101.694303">
<time>2016-04-06T11:10:36Z</time></trkpt>
<trkpt lat="25.048946" lon="101.694144">
<time>2016-04-06T11:10:37Z</time></trkpt>
<trkpt lat="25.048906" lon="101.694024">
<time>2016-04-06T11:10:38Z</time></trkpt>
<trkpt lat="25.048856" lon="101.693924">
<time>2016-04-06T11:10:39Z</time></trkpt>
<trkpt lat="25.048816" lon="101.693834">
<time>2016-04-06T11:10:40Z</time></trkpt>
<trkpt lat="25.048776" lon="101.693774">
<time>2016-04-06T11:10:41Z</time></trkpt>
<trkpt lat="25.048727" lon="101.693684">
<time>2016-04-06T11:10:42Z</time></trkpt>
<trkpt lat="25.048637" lon="101.693545">
<time>2016-04-06T11:10:43Z</time></trkpt>
<trkpt lat="25.048427" lon="101.693225">
<time>2016-04-06T11:10:44Z</time></trkpt>
<trkpt lat="25.048368" lon="101.693105">
<time>2016-04-06T11:10:45Z</time></trkpt>
<trkpt lat="25.048318" lon="101.692986">
<time>2016-04-06T11:10:46Z</time></trkpt>
<trkpt lat="25.048288" lon="101.692916">
<time>2016-04-06T11:10:47Z</time></trkpt>
<trkpt lat="25.048268" lon="101.692856">
<time>2016-04-06T11:10:48Z</time></trkpt>
<trkpt lat="25.048258" lon="101.692786">
<time>2016-04-06T11:10:49Z</time></trkpt>
<trkpt lat="25.048258" lon="101.692726">
<time>2016-04-06T11:10:50Z</time></trkpt>
<trkpt lat="25.048258" lon="101.692656">
<time>2016-04-06T11:10:51Z</time></trkpt>
<trkpt lat="25.048259" lon="101.692586">
<time>2016-04-06T11:10:52Z</time></trkpt>
<trkpt lat="25.048279" lon="101.692496">
<time>2016-04-06T11:10:53Z</time></trkpt>
<trkpt lat="25.048329" lon="101.692287">
<time>2016-04-06T11:10:54Z</time></trkpt>
<trkpt lat="25.04843" lon="101.691887">
<time>2016-04-06T11:10:55Z</time></trkpt>
<trkpt lat="25.04845" lon="101.691748">
<time>2016-04-06T11:10:56Z</time></trkpt>
<trkpt lat="25.04848" lon="101.691608">
<time>2016-04-06T11:10:57Z</time></trkpt>
<trkpt lat="25.048511" lon="101.691378">
<time>2016-04-06T11:10:58Z</time></trkpt>
<trkpt lat="25.048431" lon="101.691318">
<time>2016-04-06T11:10:59Z</time></trkpt>
<trkpt lat="25.048361" lon="101.691259">
<time>2016-04-06T11:11:00Z</time></trkpt>
<trkpt lat="25.048261" lon="101.691189">
<time>2016-04-06T11:11:01Z</time></trkpt>
<trkpt lat="25.048011" lon="101.691089">
<time>2016-04-06T11:11:02Z</time></trkpt>
<trkpt lat="25.047741" lon="101.690979">
<time>2016-04-06T11:11:03Z</time></trkpt>
<trkpt lat="25.047562" lon="101.690899">
<time>2016-04-06T11:11:04Z</time></trkpt>
<trkpt lat="25.047402" lon="101.690829">
<time>2016-04-06T11:11:05Z</time></trkpt>
<trkpt lat="25.047232" lon="101.690759">
<time>2016-04-06T11:11:06Z</time></trkpt>
<trkpt lat="25.047142" lon="101.69071">
<time>2016-04-06T11:11:07Z</time></trkpt>
<trkpt lat="25.047072" lon="101.69066">
<time>2016-04-06T11:11:08Z</time></trkpt>
<trkpt lat="25.046972" lon="101.69058">
<time>2016-04-06T11:11:09Z</time></trkpt>
<trkpt lat="25.046892" lon="101.6905">
<time>2016-04-06T11:11:10Z</time></trkpt>
<trkpt lat="25.046823" lon="101.69042">
<time>2016-04-06T11:11:11Z</time></trkpt>
<trkpt lat="25.046693" lon="101.69026">
<time>2016-04-06T11:11:12Z</time></trkpt>
<trkpt lat="25.046463" lon="101.689971">
<time>2016-04-06T11:11:13Z</time></trkpt>
<trkpt lat="25.046184" lon="101.689632">
<time>2016-04-06T11:11:14Z</time></trkpt>
<trkpt lat="25.046184" lon="101.689622">
<time>2016-04-06T11:11:15Z</time></trkpt>
<trkpt lat="25.046084" lon="101.689472">
<time>2016-04-06T11:11:16Z</time></trkpt>
<trkpt lat="25.046034" lon="101.689382">
<time>2016-04-06T11:11:17Z</time></trkpt>
<trkpt lat="25.045995" lon="101.689272">
<time>2016-04-06T11:11:18Z</time></trkpt>
<trkpt lat="25.045945" lon="101.689132">
<time>2016-04-06T11:11:19Z</time></trkpt>
<trkpt lat="25.045915" lon="101.688973">
<time>2016-04-06T11:11:20Z</time></trkpt>
<trkpt lat="25.045876" lon="101.688623">
<time>2016-04-06T11:11:21Z</time></trkpt>
<trkpt lat="25.045876" lon="101.688494">
<time>2016-04-06T11:11:22Z</time></trkpt>
<trkpt lat="25.045896" lon="101.688404">
<time>2016-04-06T11:11:23Z</time></trkpt>
<trkpt lat="25.045916" lon="101.688314">
<time>2016-04-06T11:11:24Z</time></trkpt>
<trkpt lat="25.045967" lon="101.688224">
<time>2016-04-06T11:11:25Z</time></trkpt>
<trkpt lat="25.046017" lon="101.688144">
<time>2016-04-06T11:11:26Z</time></trkpt>
<trkpt lat="25.046087" lon="101.688074">
<time>2016-04-06T11:11:27Z</time></trkpt>
<trkpt lat="25.046177" lon="101.687975">
<time>2016-04-06T11:11:28Z</time></trkpt>
<trkpt lat="25.046287" lon="101.687895">
<time>2016-04-06T11:11:29Z</time></trkpt>
<trkpt lat="25.046367" lon="101.687835">
<time>2016-04-06T11:11:30Z</time></trkpt>
<trkpt lat="25.046437" lon="101.687805">
<time>2016-04-06T11:11:31Z</time></trkpt>
<trkpt lat="25.046537" lon="101.687765">
<time>2016-04-06T11:11:32Z</time></trkpt>
<trkpt lat="25.046587" lon="101.687745">
<time>2016-04-06T11:11:33Z</time></trkpt>
<trkpt lat="25.046677" lon="101.687735">
<time>2016-04-06T11:11:34Z</time></trkpt>
<trkpt lat="25.046817" lon="101.687725">
<time>2016-04-06T11:11:35Z</time></trkpt>
<trkpt lat="25.047007" lon="101.687725">
<time>2016-04-06T11:11:36Z</time></trkpt>
<trkpt lat="25.047157" lon="101.687715">
<time>2016-04-06T11:11:37Z</time></trkpt>
<trkpt lat="25.047257" lon="101.687705">
<time>2016-04-06T11:11:38Z</time></trkpt>
<trkpt lat="25.047327" lon="101.687685">
<time>2016-04-06T11:11:39Z</time></trkpt>
<trkpt lat="25.047387" lon="101.687655">
<time>2016-04-06T11:11:40Z</time></trkpt>
<trkpt lat="25.047487" lon="101.687605">
<time>2016-04-06T11:11:41Z</time></trkpt>
<trkpt lat="25.047578" lon="101.687545">
<time>2016-04-06T11:11:42Z</time></trkpt>
<trkpt lat="25.047718" lon="101.687415">
<time>2016-04-06T11:11:43Z</time></trkpt>
<trkpt lat="25.047908" lon="101.687236">
<time>2016-04-06T11:11:44Z</time></trkpt>
<trkpt lat="25.048038" lon="101.687096">
<time>2016-04-06T11:11:45Z</time></trkpt>
<trkpt lat="25.048078" lon="101.687056">
<time>2016-04-06T11:11:46Z</time></trkpt>
<trkpt lat="25.048219" lon="101.686886">
<time>2016-04-06T11:11:47Z</time></trkpt>
<trkpt lat="25.048359" lon="101.686687">
<time>2016-04-06T11:11:48Z</time></trkpt>
<trkpt lat="25.048369" lon="101.686687">
<time>2016-04-06T11:11:49Z</time></trkpt>
<trkpt lat="25.048389" lon="101.686607">
<time>2016-04-06T11:11:50Z</time></trkpt>
<trkpt lat="25.04843" lon="101.686397">
<time>2016-04-06T11:11:51Z</time></trkpt>
<trkpt lat="25.04847" lon="101.686178">
<time>2016-04-06T11:11:52Z</time></trkpt>
<trkpt lat="25.048501" lon="101.685808">
<time>2016-04-06T11:11:53Z</time></trkpt>
<trkpt lat="25.048501" lon="101.685739">
<time>2016-04-06T11:11:54Z</time></trkpt>
<trkpt lat="25.048552" lon="101.68518">
<time>2016-04-06T11:11:55Z</time></trkpt>
<trkpt lat="25.048562" lon="101.6849">
<time>2016-04-06T11:11:56Z</time></trkpt>
<trkpt lat="25.048583" lon="101.684511">
<time>2016-04-06T11:11:57Z</time></trkpt>
<trkpt lat="25.048573" lon="101.684391">
<time>2016-04-06T11:11:58Z</time></trkpt>
<trkpt lat="25.048563" lon="101.684251">
<time>2016-04-06T11:11:59Z</time></trkpt>
<trkpt lat="25.048544" lon="101.684142">
<time>2016-04-06T11:12:00Z</time></trkpt>
<trkpt lat="25.048514" lon="101.684052">
<time>2016-04-06T11:12:01Z</time></trkpt>
<trkpt lat="25.048474" lon="101.683952">
<time>2016-04-06T11:12:02Z</time></trkpt>
<trkpt lat="25.048434" lon="101.683882">
<time>2016-04-06T11:12:03Z</time></trkpt>
<trkpt lat="25.048384" lon="101.683792">
<time>2016-04-06T11:12:04Z</time></trkpt>
<trkpt lat="25.048255" lon="101.683593">
<time>2016-04-06T11:12:05Z</time></trkpt>
<trkpt lat="25.048135" lon="101.683383">
<time>2016-04-06T11:12:06Z</time></trkpt>
<trkpt lat="25.048075" lon="101.683263">
<time>2016-04-06T11:12:07Z</time></trkpt>
<trkpt lat="25.048026" lon="101.683143">
<time>2016-04-06T11:12:08Z</time></trkpt>
<trkpt lat="25.047986" lon="101.683024">
<time>2016-04-06T11:12:09Z</time></trkpt>
<trkpt lat="25.047946" lon="101.682884">
<time>2016-04-06T11:12:10Z</time></trkpt>
<trkpt lat="25.047916" lon="101.682714">
<time>2016-04-06T11:12:11Z</time></trkpt>
<trkpt lat="25.047887" lon="101.682515">
<time>2016-04-06T11:12:12Z</time></trkpt>
<trkpt lat="25.047877" lon="101.682365">
<time>2016-04-06T11:12:13Z</time></trkpt>
<trkpt lat="25.047857" lon="101.682165">
<time>2016-04-06T11:12:14Z</time></trkpt>
<trkpt lat="25.047848" lon="101.682065">
<time>2016-04-06T11:12:15Z</time></trkpt>
<trkpt lat="25.047828" lon="101.681836">
<time>2016-04-06T11:12:16Z</time></trkpt>
<trkpt lat="25.047828" lon="101.681836">
<time>2016-04-06T11:12:17Z</time></trkpt>
<trkpt lat="25.048148" lon="101.681806">
<time>2016-04-06T11:12:18Z</time></trkpt>
<trkpt lat="25.048348" lon="101.681736">
<time>2016-04-06T11:12:19Z</time></trkpt>
<trkpt lat="25.048578" lon="101.681566">
<time>2016-04-06T11:12:20Z</time></trkpt>
<trkpt lat="25.048869" lon="101.681417">
<time>2016-04-06T11:12:21Z</time></trkpt>
<trkpt lat="25.049019" lon="101.681377">
<time>2016-04-06T11:12:22Z</time></trkpt>
<trkpt lat="25.049129" lon="101.681437">
<time>2016-04-06T11:12:23Z</time></trkpt>
<trkpt lat="25.049129" lon="101.681437">
<time>2016-04-06T11:12:24Z</time></trkpt>
<trkpt lat="25.049149" lon="101.681407">
<time>2016-04-06T11:12:25Z</time></trkpt>
<trkpt lat="25.04933" lon="101.680688">
<time>2016-04-06T11:12:26Z</time></trkpt>
<trkpt lat="25.049481" lon="101.680139">
<time>2016-04-06T11:12:27Z</time></trkpt>
<trkpt lat="25.049985" lon="101.677993">
<time>2016-04-06T11:12:28Z</time></trkpt>
<trkpt lat="25.050337" lon="101.676806">
<time>2016-04-06T11:12:29Z</time></trkpt>
<trkpt lat="25.050458" lon="101.676536">
<time>2016-04-06T11:12:30Z</time></trkpt>
<trkpt lat="25.0511" lon="101.675139">
<time>2016-04-06T11:12:31Z</time></trkpt>
<trkpt lat="25.0511" lon="101.675139">
<time>2016-04-06T11:12:32Z</time></trkpt>
<trkpt lat="25.05111" lon="101.675139">
<time>2016-04-06T11:12:33Z</time></trkpt>
<trkpt lat="25.05124" lon="101.675109">
<time>2016-04-06T11:12:34Z</time></trkpt>
<trkpt lat="25.05135" lon="101.675069">
<time>2016-04-06T11:12:35Z</time></trkpt>
<trkpt lat="25.05147" lon="101.675009">
<time>2016-04-06T11:12:36Z</time></trkpt>
<trkpt lat="25.051561" lon="101.674939">
<time>2016-04-06T11:12:37Z</time></trkpt>
<trkpt lat="25.051671" lon="101.674849">
<time>2016-04-06T11:12:38Z</time></trkpt>
<trkpt lat="25.051751" lon="101.674769">
<time>2016-04-06T11:12:39Z</time></trkpt>
<trkpt lat="25.051931" lon="101.67456">
<time>2016-04-06T11:12:40Z</time></trkpt>
<trkpt lat="25.052342" lon="101.674061">
<time>2016-04-06T11:12:41Z</time></trkpt>
<trkpt lat="25.052743" lon="101.673572">
<time>2016-04-06T11:12:42Z</time></trkpt>
<trkpt lat="25.053164" lon="101.673043">
<time>2016-04-06T11:12:43Z</time></trkpt>
<trkpt lat="25.053334" lon="101.672843">
<time>2016-04-06T11:12:44Z</time></trkpt>
<trkpt lat="25.053555" lon="101.672564">
<time>2016-04-06T11:12:45Z</time></trkpt>
<trkpt lat="25.053896" lon="101.672155">
<time>2016-04-06T11:12:46Z</time></trkpt>
<trkpt lat="25.053956" lon="101.672095">
<time>2016-04-06T11:12:47Z</time></trkpt>
<trkpt lat="25.054347" lon="101.671616">
<time>2016-04-06T11:12:48Z</time></trkpt>
<trkpt lat="25.054717" lon="101.671157">
<time>2016-04-06T11:12:49Z</time></trkpt>
<trkpt lat="25.054998" lon="101.670827">
<time>2016-04-06T11:12:50Z</time></trkpt>
<trkpt lat="25.055068" lon="101.670737">
<time>2016-04-06T11:12:51Z</time></trkpt>
<trkpt lat="25.055188" lon="101.670598">
<time>2016-04-06T11:12:52Z</time></trkpt>
<trkpt lat="25.055409" lon="101.670318">
<time>2016-04-06T11:12:53Z</time></trkpt>
<trkpt lat="25.055489" lon="101.670208">
<time>2016-04-06T11:12:54Z</time></trkpt>
<trkpt lat="25.05568" lon="101.669949">
<time>2016-04-06T11:12:55Z</time></trkpt>
<trkpt lat="25.05589" lon="101.669629">
<time>2016-04-06T11:12:56Z</time></trkpt>
<trkpt lat="25.056061" lon="101.66937">
<time>2016-04-06T11:12:57Z</time></trkpt>
<trkpt lat="25.056181" lon="101.6692">
<time>2016-04-06T11:12:58Z</time></trkpt>
<trkpt lat="25.056452" lon="101.668781">
<time>2016-04-06T11:12:59Z</time></trkpt>
<trkpt lat="25.056753" lon="101.668322">
<time>2016-04-06T11:13:00Z</time></trkpt>
<trkpt lat="25.057074" lon="101.667853">
<time>2016-04-06T11:13:01Z</time></trkpt>
<trkpt lat="25.057535" lon="101.667154">
<time>2016-04-06T11:13:02Z</time></trkpt>
<trkpt lat="25.057936" lon="101.666546">
<time>2016-04-06T11:13:03Z</time></trkpt>
<trkpt lat="25.058327" lon="101.665957">
<time>2016-04-06T11:13:04Z</time></trkpt>
<trkpt lat="25.058638" lon="101.665508">
<time>2016-04-06T11:13:05Z</time></trkpt>
<trkpt lat="25.059059" lon="101.664969">
<time>2016-04-06T11:13:06Z</time></trkpt>
<trkpt lat="25.059139" lon="101.664869">
<time>2016-04-06T11:13:07Z</time></trkpt>
<trkpt lat="25.05949" lon="101.66442">
<time>2016-04-06T11:13:08Z</time></trkpt>
<trkpt lat="25.060151" lon="101.663561">
<time>2016-04-06T11:13:09Z</time></trkpt>
<trkpt lat="25.060693" lon="101.662883">
<time>2016-04-06T11:13:10Z</time></trkpt>
<trkpt lat="25.061154" lon="101.662304">
<time>2016-04-06T11:13:11Z</time></trkpt>
<trkpt lat="25.061224" lon="101.662224">
<time>2016-04-06T11:13:12Z</time></trkpt>
<trkpt lat="25.061555" lon="101.661805">
<time>2016-04-06T11:13:13Z</time></trkpt>
<trkpt lat="25.061845" lon="101.661435">
<time>2016-04-06T11:13:14Z</time></trkpt>
<trkpt lat="25.061885" lon="101.661395">
<time>2016-04-06T11:13:15Z</time></trkpt>
<trkpt lat="25.062176" lon="101.661026">
<time>2016-04-06T11:13:16Z</time></trkpt>
<trkpt lat="25.062376" lon="101.660757">
<time>2016-04-06T11:13:17Z</time></trkpt>
<trkpt lat="25.062787" lon="101.660228">
<time>2016-04-06T11:13:18Z</time></trkpt>
<trkpt lat="25.062978" lon="101.659978">
<time>2016-04-06T11:13:19Z</time></trkpt>
<trkpt lat="25.063158" lon="101.659749">
<time>2016-04-06T11:13:20Z</time></trkpt>
<trkpt lat="25.063289" lon="101.659589">
<time>2016-04-06T11:13:21Z</time></trkpt>
<trkpt lat="25.063419" lon="101.659449">
<time>2016-04-06T11:13:22Z</time></trkpt>
<trkpt lat="25.063619" lon="101.65924">
<time>2016-04-06T11:13:23Z</time></trkpt>
<trkpt lat="25.063719" lon="101.65916">
<time>2016-04-06T11:13:24Z</time></trkpt>
<trkpt lat="25.06395" lon="101.65897">
<time>2016-04-06T11:13:25Z</time></trkpt>
<trkpt lat="25.06408" lon="101.65887">
<time>2016-04-06T11:13:26Z</time></trkpt>
<trkpt lat="25.0642" lon="101.65878">
<time>2016-04-06T11:13:27Z</time></trkpt>
<trkpt lat="25.06462" lon="101.658481">
<time>2016-04-06T11:13:28Z</time></trkpt>
<trkpt lat="25.065411" lon="101.657912">
<time>2016-04-06T11:13:29Z</time></trkpt>
<trkpt lat="25.065922" lon="101.657543">
<time>2016-04-06T11:13:30Z</time></trkpt>
<trkpt lat="25.066353" lon="101.657223">
<time>2016-04-06T11:13:31Z</time></trkpt>
<trkpt lat="25.066553" lon="101.657074">
<time>2016-04-06T11:13:32Z</time></trkpt>
<trkpt lat="25.067013" lon="101.656754">
<time>2016-04-06T11:13:33Z</time></trkpt>
<trkpt lat="25.067334" lon="101.656505">
<time>2016-04-06T11:13:34Z</time></trkpt>
<trkpt lat="25.067394" lon="101.656465">
<time>2016-04-06T11:13:35Z</time></trkpt>
<trkpt lat="25.067694" lon="101.656245">
<time>2016-04-06T11:13:36Z</time></trkpt>
<trkpt lat="25.067824" lon="101.656155">
<time>2016-04-06T11:13:37Z</time></trkpt>
<trkpt lat="25.068115" lon="101.655936">
<time>2016-04-06T11:13:38Z</time></trkpt>
<trkpt lat="25.068375" lon="101.655746">
<time>2016-04-06T11:13:39Z</time></trkpt>
<trkpt lat="25.068515" lon="101.655636">
<time>2016-04-06T11:13:40Z</time></trkpt>
<trkpt lat="25.068625" lon="101.655567">
<time>2016-04-06T11:13:41Z</time></trkpt>
<trkpt lat="25.068956" lon="101.655317">
<time>2016-04-06T11:13:42Z</time></trkpt>
<trkpt lat="25.069276" lon="101.655067">
<time>2016-04-06T11:13:43Z</time></trkpt>
<trkpt lat="25.069286" lon="101.655057">
<time>2016-04-06T11:13:44Z</time></trkpt>
<trkpt lat="25.069587" lon="101.654858">
<time>2016-04-06T11:13:45Z</time></trkpt>
<trkpt lat="25.069967" lon="101.654568">
<time>2016-04-06T11:13:46Z</time></trkpt>
<trkpt lat="25.070358" lon="101.654289">
<time>2016-04-06T11:13:47Z</time></trkpt>
<trkpt lat="25.070778" lon="101.653989">
<time>2016-04-06T11:13:48Z</time></trkpt>
<trkpt lat="25.071239" lon="101.65365">
<time>2016-04-06T11:13:49Z</time></trkpt>
<trkpt lat="25.071529" lon="101.65345">
<time>2016-04-06T11:13:50Z</time></trkpt>
<trkpt lat="25.071679" lon="101.653341">
<time>2016-04-06T11:13:51Z</time></trkpt>
<trkpt lat="25.071879" lon="101.653191">
<time>2016-04-06T11:13:52Z</time></trkpt>
<trkpt lat="25.07226" lon="101.652911">
<time>2016-04-06T11:13:53Z</time></trkpt>
<trkpt lat="25.07273" lon="101.652572">
<time>2016-04-06T11:13:54Z</time></trkpt>
<trkpt lat="25.073091" lon="101.652263">
<time>2016-04-06T11:13:55Z</time></trkpt>
<trkpt lat="25.073101" lon="101.652253">
<time>2016-04-06T11:13:56Z</time></trkpt>
<trkpt lat="25.073291" lon="101.652103">
<time>2016-04-06T11:13:57Z</time></trkpt>
<trkpt lat="25.073421" lon="101.652003">
<time>2016-04-06T11:13:58Z</time></trkpt>
<trkpt lat="25.073622" lon="101.651823">
<time>2016-04-06T11:13:59Z</time></trkpt>
<trkpt lat="25.074042" lon="101.651464">
<time>2016-04-06T11:14:00Z</time></trkpt>
<trkpt lat="25.074453" lon="101.651115">
<time>2016-04-06T11:14:01Z</time></trkpt>
<trkpt lat="25.074643" lon="101.650955">
<time>2016-04-06T11:14:02Z</time></trkpt>
<trkpt lat="25.074873" lon="101.650765">
<time>2016-04-06T11:14:03Z</time></trkpt>
<trkpt lat="25.075044" lon="101.650606">
<time>2016-04-06T11:14:04Z</time></trkpt>
<trkpt lat="25.075164" lon="101.650476">
<time>2016-04-06T11:14:05Z</time></trkpt>
<trkpt lat="25.075254" lon="101.650386">
<time>2016-04-06T11:14:06Z</time></trkpt>
<trkpt lat="25.075304" lon="101.650306">
<time>2016-04-06T11:14:07Z</time></trkpt>
<trkpt lat="25.075374" lon="101.650206">
<time>2016-04-06T11:14:08Z</time></trkpt>
<trkpt lat="25.075444" lon="101.650087">
<time>2016-04-06T11:14:09Z</time></trkpt>
<trkpt lat="25.075485" lon="101.649987">
<time>2016-04-06T11:14:10Z</time></trkpt>
<trkpt lat="25.075505" lon="101.649897">
<time>2016-04-06T11:14:11Z</time></trkpt>
<trkpt lat="25.075525" lon="101.649857">
<time>2016-04-06T11:14:12Z</time></trkpt>
<trkpt lat="25.075545" lon="101.649717">
<time>2016-04-06T11:14:13Z</time></trkpt>
<trkpt lat="25.075555" lon="101.649567">
<time>2016-04-06T11:14:14Z</time></trkpt>
<trkpt lat="25.075566" lon="101.649418">
<time>2016-04-06T11:14:15Z</time></trkpt>
<trkpt lat="25.075587" lon="101.648879">
<time>2016-04-06T11:14:16Z</time></trkpt>
<trkpt lat="25.075607" lon="101.64835">
<time>2016-04-06T11:14:17Z</time></trkpt>
<trkpt lat="25.075628" lon="101.647841">
<time>2016-04-06T11:14:18Z</time></trkpt>
<trkpt lat="25.075639" lon="101.647292">
<time>2016-04-06T11:14:19Z</time></trkpt>
<trkpt lat="25.07565" lon="101.647032">
<time>2016-04-06T11:14:20Z</time></trkpt>
<trkpt lat="25.07566" lon="101.646792">
<time>2016-04-06T11:14:21Z</time></trkpt>
<trkpt lat="25.075681" lon="101.646273">
<time>2016-04-06T11:14:22Z</time></trkpt>
<trkpt lat="25.075702" lon="101.645764">
<time>2016-04-06T11:14:23Z</time></trkpt>
<trkpt lat="25.075713" lon="101.645255">
<time>2016-04-06T11:14:24Z</time></trkpt>
<trkpt lat="25.075723" lon="101.645035">
<time>2016-04-06T11:14:25Z</time></trkpt>
<trkpt lat="25.075724" lon="101.644756">
<time>2016-04-06T11:14:26Z</time></trkpt>
<trkpt lat="25.075734" lon="101.644367">
<time>2016-04-06T11:14:27Z</time></trkpt>
<trkpt lat="25.075744" lon="101.644277">
<time>2016-04-06T11:14:28Z</time></trkpt>
<trkpt lat="25.075755" lon="101.644017">
<time>2016-04-06T11:14:29Z</time></trkpt>
<trkpt lat="25.075765" lon="101.643798">
<time>2016-04-06T11:14:30Z</time></trkpt>
<trkpt lat="25.075765" lon="101.643728">
<time>2016-04-06T11:14:31Z</time></trkpt>
<trkpt lat="25.075785" lon="101.643568">
<time>2016-04-06T11:14:32Z</time></trkpt>
<trkpt lat="25.075806" lon="101.643438">
<time>2016-04-06T11:14:33Z</time></trkpt>
<trkpt lat="25.075806" lon="101.643398">
<time>2016-04-06T11:14:34Z</time></trkpt>
<trkpt lat="25.075846" lon="101.643239">
<time>2016-04-06T11:14:35Z</time></trkpt>
<trkpt lat="25.075886" lon="101.643079">
<time>2016-04-06T11:14:36Z</time></trkpt>
<trkpt lat="25.075926" lon="101.642959">
<time>2016-04-06T11:14:37Z</time></trkpt>
<trkpt lat="25.075947" lon="101.642879">
<time>2016-04-06T11:14:38Z</time></trkpt>
<trkpt lat="25.076007" lon="101.642689">
<time>2016-04-06T11:14:39Z</time></trkpt>
<trkpt lat="25.076017" lon="101.642669">
<time>2016-04-06T11:14:40Z</time></trkpt>
<trkpt lat="25.076137" lon="101.64233">
<time>2016-04-06T11:14:41Z</time></trkpt>
<trkpt lat="25.076338" lon="101.641711">
<time>2016-04-06T11:14:42Z</time></trkpt>
<trkpt lat="25.076489" lon="101.641302">
<time>2016-04-06T11:14:43Z</time></trkpt>
<trkpt lat="25.076569" lon="101.641062">
<time>2016-04-06T11:14:44Z</time></trkpt>
<trkpt lat="25.07665" lon="101.640852">
<time>2016-04-06T11:14:45Z</time></trkpt>
<trkpt lat="25.07675" lon="101.640583">
<time>2016-04-06T11:14:46Z</time></trkpt>
<trkpt lat="25.07685" lon="101.640363">
<time>2016-04-06T11:14:47Z</time></trkpt>
<trkpt lat="25.076851" lon="101.640353">
<time>2016-04-06T11:14:48Z</time></trkpt>
<trkpt lat="25.076941" lon="101.640164">
<time>2016-04-06T11:14:49Z</time></trkpt>
<trkpt lat="25.077041" lon="101.640014">
<time>2016-04-06T11:14:50Z</time></trkpt>
<trkpt lat="25.077171" lon="101.639834">
<time>2016-04-06T11:14:51Z</time></trkpt>
<trkpt lat="25.077302" lon="101.639644">
<time>2016-04-06T11:14:52Z</time></trkpt>
<trkpt lat="25.077692" lon="101.639145">
<time>2016-04-06T11:14:53Z</time></trkpt>
<trkpt lat="25.078173" lon="101.638516">
<time>2016-04-06T11:14:54Z</time></trkpt>
<trkpt lat="25.078434" lon="101.638197">
<time>2016-04-06T11:14:55Z</time></trkpt>
<trkpt lat="25.078614" lon="101.637967">
<time>2016-04-06T11:14:56Z</time></trkpt>
<trkpt lat="25.078925" lon="101.637558">
<time>2016-04-06T11:14:57Z</time></trkpt>
<trkpt lat="25.079085" lon="101.637318">
<time>2016-04-06T11:14:58Z</time></trkpt>
<trkpt lat="25.079175" lon="101.637168">
<time>2016-04-06T11:14:59Z</time></trkpt>
<trkpt lat="25.079305" lon="101.636959">
<time>2016-04-06T11:15:00Z</time></trkpt>
<trkpt lat="25.079496" lon="101.636599">
<time>2016-04-06T11:15:01Z</time></trkpt>
<trkpt lat="25.079646" lon="101.636339">
<time>2016-04-06T11:15:02Z</time></trkpt>
<trkpt lat="25.079847" lon="101.63596">
<time>2016-04-06T11:15:03Z</time></trkpt>
<trkpt lat="25.080007" lon="101.635641">
<time>2016-04-06T11:15:04Z</time></trkpt>
<trkpt lat="25.080087" lon="101.635501">
<time>2016-04-06T11:15:05Z</time></trkpt>
<trkpt lat="25.080148" lon="101.635361">
<time>2016-04-06T11:15:06Z</time></trkpt>
<trkpt lat="25.080208" lon="101.635201">
<time>2016-04-06T11:15:07Z</time></trkpt>
<trkpt lat="25.080228" lon="101.635091">
<time>2016-04-06T11:15:08Z</time></trkpt>
<trkpt lat="25.080248" lon="101.635001">
<time>2016-04-06T11:15:09Z</time></trkpt>
<trkpt lat="25.080268" lon="101.634872">
<time>2016-04-06T11:15:10Z</time></trkpt>
<trkpt lat="25.080268" lon="101.634762">
<time>2016-04-06T11:15:11Z</time></trkpt>
<trkpt lat="25.080279" lon="101.634572">
<time>2016-04-06T11:15:12Z</time></trkpt>
<trkpt lat="25.080279" lon="101.634233">
<time>2016-04-06T11:15:13Z</time></trkpt>
<trkpt lat="25.080279" lon="101.634113">
<time>2016-04-06T11:15:14Z</time></trkpt>
<trkpt lat="25.08027" lon="101.633504">
<time>2016-04-06T11:15:15Z</time></trkpt>
<trkpt lat="25.080271" lon="101.633044">
<time>2016-04-06T11:15:16Z</time></trkpt>
<trkpt lat="25.080271" lon="101.632885">
<time>2016-04-06T11:15:17Z</time></trkpt>
<trkpt lat="25.080262" lon="101.632285">
<time>2016-04-06T11:15:18Z</time></trkpt>
<trkpt lat="25.080233" lon="101.631676">
<time>2016-04-06T11:15:19Z</time></trkpt>
<trkpt lat="25.080243" lon="101.631656">
<time>2016-04-06T11:15:20Z</time></trkpt>
<trkpt lat="25.080253" lon="101.631287">
<time>2016-04-06T11:15:21Z</time></trkpt>
<trkpt lat="25.080254" lon="101.631087">
<time>2016-04-06T11:15:22Z</time></trkpt>
<trkpt lat="25.080264" lon="101.630977">
<time>2016-04-06T11:15:23Z</time></trkpt>
<trkpt lat="25.080294" lon="101.630857">
<time>2016-04-06T11:15:24Z</time></trkpt>
<trkpt lat="25.080324" lon="101.630767">
<time>2016-04-06T11:15:25Z</time></trkpt>
<trkpt lat="25.080394" lon="101.630598">
<time>2016-04-06T11:15:26Z</time></trkpt>
<trkpt lat="25.080745" lon="101.629899">
<time>2016-04-06T11:15:27Z</time></trkpt>
<trkpt lat="25.080815" lon="101.629749">
<time>2016-04-06T11:15:28Z</time></trkpt>
<trkpt lat="25.081086" lon="101.629209">
<time>2016-04-06T11:15:29Z</time></trkpt>
<trkpt lat="25.081156" lon="101.62908">
<time>2016-04-06T11:15:30Z</time></trkpt>
<trkpt lat="25.081226" lon="101.62892">
<time>2016-04-06T11:15:31Z</time></trkpt>
<trkpt lat="25.081477" lon="101.628381">
<time>2016-04-06T11:15:32Z</time></trkpt>
<trkpt lat="25.081768" lon="101.627771">
<time>2016-04-06T11:15:33Z</time></trkpt>
<trkpt lat="25.081868" lon="101.627522">
<time>2016-04-06T11:15:34Z</time></trkpt>
<trkpt lat="25.081978" lon="101.627202">
<time>2016-04-06T11:15:35Z</time></trkpt>
<trkpt lat="25.081998" lon="101.627132">
<time>2016-04-06T11:15:36Z</time></trkpt>
<trkpt lat="25.082099" lon="101.626803">
<time>2016-04-06T11:15:37Z</time></trkpt>
<trkpt lat="25.082149" lon="101.626583">
<time>2016-04-06T11:15:38Z</time></trkpt>
<trkpt lat="25.082179" lon="101.626443">
<time>2016-04-06T11:15:39Z</time></trkpt>
<trkpt lat="25.082179" lon="101.626313">
<time>2016-04-06T11:15:40Z</time></trkpt>
<trkpt lat="25.082179" lon="101.626213">
<time>2016-04-06T11:15:41Z</time></trkpt>
<trkpt lat="25.082159" lon="101.626123">
<time>2016-04-06T11:15:42Z</time></trkpt>
<trkpt lat="25.08212" lon="101.626023">
<time>2016-04-06T11:15:43Z</time></trkpt>
<trkpt lat="25.08208" lon="101.625924">
<time>2016-04-06T11:15:44Z</time></trkpt>
<trkpt lat="25.08202" lon="101.625804">
<time>2016-04-06T11:15:45Z</time></trkpt>
<trkpt lat="25.08191" lon="101.625654">
<time>2016-04-06T11:15:46Z</time></trkpt>
<trkpt lat="25.0819" lon="101.625634">
<time>2016-04-06T11:15:47Z</time></trkpt>
<trkpt lat="25.0817" lon="101.625354">
<time>2016-04-06T11:15:48Z</time></trkpt>
<trkpt lat="25.081451" lon="101.625015">
<time>2016-04-06T11:15:49Z</time></trkpt>
<trkpt lat="25.081361" lon="101.624955">
<time>2016-04-06T11:15:50Z</time></trkpt>
<trkpt lat="25.081321" lon="101.624915">
<time>2016-04-06T11:15:51Z</time></trkpt>
<trkpt lat="25.081241" lon="101.624845">
<time>2016-04-06T11:15:52Z</time></trkpt>
<trkpt lat="25.081201" lon="101.624815">
<time>2016-04-06T11:15:53Z</time></trkpt>
<trkpt lat="25.081141" lon="101.624785">
<time>2016-04-06T11:15:54Z</time></trkpt>
<trkpt lat="25.081091" lon="101.624745">
<time>2016-04-06T11:15:55Z</time></trkpt>
<trkpt lat="25.081031" lon="101.624725">
<time>2016-04-06T11:15:56Z</time></trkpt>
<trkpt lat="25.080931" lon="101.624695">
<time>2016-04-06T11:15:57Z</time></trkpt>
<trkpt lat="25.080801" lon="101.624665">
<time>2016-04-06T11:15:58Z</time></trkpt>
<trkpt lat="25.080641" lon="101.624645">
<time>2016-04-06T11:15:59Z</time></trkpt>
<trkpt lat="25.080451" lon="101.624615">
<time>2016-04-06T11:16:00Z</time></trkpt>
<trkpt lat="25.080351" lon="101.624615">
<time>2016-04-06T11:16:01Z</time></trkpt>
<trkpt lat="25.080251" lon="101.624615">
<time>2016-04-06T11:16:02Z</time></trkpt>
<trkpt lat="25.080181" lon="101.624625">
<time>2016-04-06T11:16:03Z</time></trkpt>
<trkpt lat="25.080101" lon="101.624645">
<time>2016-04-06T11:16:04Z</time></trkpt>
<trkpt lat="25.080021" lon="101.624685">
<time>2016-04-06T11:16:05Z</time></trkpt>
<trkpt lat="25.079951" lon="101.624725">
<time>2016-04-06T11:16:06Z</time></trkpt>
<trkpt lat="25.079831" lon="101.624825">
<time>2016-04-06T11:16:07Z</time></trkpt>
<trkpt lat="25.079641" lon="101.625015">
<time>2016-04-06T11:16:08Z</time></trkpt>
<trkpt lat="25.079441" lon="101.625254">
<time>2016-04-06T11:16:09Z</time></trkpt>
<trkpt lat="25.079341" lon="101.625354">
<time>2016-04-06T11:16:10Z</time></trkpt>
<trkpt lat="25.079271" lon="101.625404">
<time>2016-04-06T11:16:11Z</time></trkpt>
<trkpt lat="25.079191" lon="101.625444">
<time>2016-04-06T11:16:12Z</time></trkpt>
<trkpt lat="25.079151" lon="101.625454">
<time>2016-04-06T11:16:13Z</time></trkpt>
<trkpt lat="25.079111" lon="101.625454">
<time>2016-04-06T11:16:14Z</time></trkpt>
<trkpt lat="25.079071" lon="101.625454">
<time>2016-04-06T11:16:15Z</time></trkpt>
<trkpt lat="25.079031" lon="101.625454">
<time>2016-04-06T11:16:16Z</time></trkpt>
<trkpt lat="25.079011" lon="101.625454">
<time>2016-04-06T11:16:17Z</time></trkpt>
<trkpt lat="25.078971" lon="101.625444">
<time>2016-04-06T11:16:18Z</time></trkpt>
<trkpt lat="25.078911" lon="101.625424">
<time>2016-04-06T11:16:19Z</time></trkpt>
<trkpt lat="25.078851" lon="101.625384">
<time>2016-04-06T11:16:20Z</time></trkpt>
<trkpt lat="25.078741" lon="101.625324">
<time>2016-04-06T11:16:21Z</time></trkpt>
<trkpt lat="25.078711" lon="101.625304">
<time>2016-04-06T11:16:22Z</time></trkpt>
<trkpt lat="25.078621" lon="101.625244">
<time>2016-04-06T11:16:23Z</time></trkpt>
<trkpt lat="25.078561" lon="101.625205">
<time>2016-04-06T11:16:24Z</time></trkpt>
<trkpt lat="25.078471" lon="101.625135">
<time>2016-04-06T11:16:25Z</time></trkpt>
<trkpt lat="25.078391" lon="101.625075">
<time>2016-04-06T11:16:26Z</time></trkpt>
<trkpt lat="25.078331" lon="101.625015">
<time>2016-04-06T11:16:27Z</time></trkpt>
<trkpt lat="25.078321" lon="101.624995">
<time>2016-04-06T11:16:28Z</time></trkpt>
<trkpt lat="25.078321" lon="101.624985">
<time>2016-04-06T11:16:29Z</time></trkpt>
<trkpt lat="25.078301" lon="101.624955">
<time>2016-04-06T11:16:30Z</time></trkpt>
<trkpt lat="25.078291" lon="101.624935">
<time>2016-04-06T11:16:31Z</time></trkpt>
<trkpt lat="25.078281" lon="101.624905">
<time>2016-04-06T11:16:32Z</time></trkpt>
<trkpt lat="25.078271" lon="101.624875">
<time>2016-04-06T11:16:33Z</time></trkpt>
<trkpt lat="25.078271" lon="101.624855">
<time>2016-04-06T11:16:34Z</time></trkpt>
<trkpt lat="25.078261" lon="101.624825">
<time>2016-04-06T11:16:35Z</time></trkpt>
<trkpt lat="25.078261" lon="101.624775">
<time>2016-04-06T11:16:36Z</time></trkpt>
<trkpt lat="25.078261" lon="101.624755">
<time>2016-04-06T11:16:37Z</time></trkpt>
<trkpt lat="25.078261" lon="101.624725">
<time>2016-04-06T11:16:38Z</time></trkpt>
<trkpt lat="25.078282" lon="101.624665">
<time>2016-04-06T11:16:39Z</time></trkpt>
<trkpt lat="25.078292" lon="101.624615">
<time>2016-04-06T11:16:40Z</time></trkpt>
<trkpt lat="25.078322" lon="101.624565">
<time>2016-04-06T11:16:41Z</time></trkpt>
<trkpt lat="25.078372" lon="101.624505">
<time>2016-04-06T11:16:42Z</time></trkpt>
<trkpt lat="25.078422" lon="101.624445">
<time>2016-04-06T11:16:43Z</time></trkpt>
<trkpt lat="25.078472" lon="101.624395">
<time>2016-04-06T11:16:44Z</time></trkpt>
<trkpt lat="25.078592" lon="101.624296">
<time>2016-04-06T11:16:45Z</time></trkpt>
<trkpt lat="25.078662" lon="101.624216">
<time>2016-04-06T11:16:46Z</time></trkpt>
<trkpt lat="25.078732" lon="101.624126">
<time>2016-04-06T11:16:47Z</time></trkpt>
<trkpt lat="25.078832" lon="101.624006">
<time>2016-04-06T11:16:48Z</time></trkpt>
<trkpt lat="25.079002" lon="101.623746">
<time>2016-04-06T11:16:49Z</time></trkpt>
<trkpt lat="25.079513" lon="101.622977">
<time>2016-04-06T11:16:50Z</time></trkpt>
<trkpt lat="25.079864" lon="101.622448">
<time>2016-04-06T11:16:51Z</time></trkpt>
<trkpt lat="25.080234" lon="101.621888">
<time>2016-04-06T11:16:52Z</time></trkpt>
<trkpt lat="25.080515" lon="101.621459">
<time>2016-04-06T11:16:53Z</time></trkpt>
<trkpt lat="25.080705" lon="101.621169">
<time>2016-04-06T11:16:54Z</time></trkpt>
<trkpt lat="25.080795" lon="101.621009">
<time>2016-04-06T11:16:55Z</time></trkpt>
<trkpt lat="25.080865" lon="101.620869">
<time>2016-04-06T11:16:56Z</time></trkpt>
<trkpt lat="25.080905" lon="101.620759">
<time>2016-04-06T11:16:57Z</time></trkpt>
<trkpt lat="25.080936" lon="101.620619">
<time>2016-04-06T11:16:58Z</time></trkpt>
<trkpt lat="25.080956" lon="101.6205">
<time>2016-04-06T11:16:59Z</time></trkpt>
<trkpt lat="25.080956" lon="101.62033">
<time>2016-04-06T11:17:00Z</time></trkpt>
<trkpt lat="25.080956" lon="101.62016">
<time>2016-04-06T11:17:01Z</time></trkpt>
<trkpt lat="25.080946" lon="101.62">
<time>2016-04-06T11:17:02Z</time></trkpt>
<trkpt lat="25.080936" lon="101.61962">
<time>2016-04-06T11:17:03Z</time></trkpt>
<trkpt lat="25.080917" lon="101.619171">
<time>2016-04-06T11:17:04Z</time></trkpt>
<trkpt lat="25.080927" lon="101.618751">
<time>2016-04-06T11:17:05Z</time></trkpt>
<trkpt lat="25.080927" lon="101.618621">
<time>2016-04-06T11:17:06Z</time></trkpt>
<trkpt lat="25.080938" lon="101.618402">
<time>2016-04-06T11:17:07Z</time></trkpt>
<trkpt lat="25.080948" lon="101.618232">
<time>2016-04-06T11:17:08Z</time></trkpt>
<trkpt lat="25.080948" lon="101.618142">
<time>2016-04-06T11:17:09Z</time></trkpt>
<trkpt lat="25.080958" lon="101.617932">
<time>2016-04-06T11:17:10Z</time></trkpt>
<trkpt lat="25.080988" lon="101.617692">
<time>2016-04-06T11:17:11Z</time></trkpt>
<trkpt lat="25.080978" lon="101.617442">
<time>2016-04-06T11:17:12Z</time></trkpt>
<trkpt lat="25.080959" lon="101.617183">
<time>2016-04-06T11:17:13Z</time></trkpt>
<trkpt lat="25.080879" lon="101.616383">
<time>2016-04-06T11:17:14Z</time></trkpt>
<trkpt lat="25.08082" lon="101.615834">
<time>2016-04-06T11:17:15Z</time></trkpt>
<trkpt lat="25.08076" lon="101.615294">
<time>2016-04-06T11:17:16Z</time></trkpt>
<trkpt lat="25.08072" lon="101.615074">
<time>2016-04-06T11:17:17Z</time></trkpt>
<trkpt lat="25.080671" lon="101.614865">
<time>2016-04-06T11:17:18Z</time></trkpt>
<trkpt lat="25.080601" lon="101.614615">
<time>2016-04-06T11:17:19Z</time></trkpt>
<trkpt lat="25.080511" lon="101.614375">
<time>2016-04-06T11:17:20Z</time></trkpt>
<trkpt lat="25.080371" lon="101.614015">
<time>2016-04-06T11:17:21Z</time></trkpt>
<trkpt lat="25.080301" lon="101.613865">
<time>2016-04-06T11:17:22Z</time></trkpt>
<trkpt lat="25.080231" lon="101.613725">
<time>2016-04-06T11:17:23Z</time></trkpt>
<trkpt lat="25.080191" lon="101.613656">
<time>2016-04-06T11:17:24Z</time></trkpt>
<trkpt lat="25.080132" lon="101.613576">
<time>2016-04-06T11:17:25Z</time></trkpt>
<trkpt lat="25.080012" lon="101.613416">
<time>2016-04-06T11:17:26Z</time></trkpt>
<trkpt lat="25.079852" lon="101.613246">
<time>2016-04-06T11:17:27Z</time></trkpt>
<trkpt lat="25.079732" lon="101.613146">
<time>2016-04-06T11:17:28Z</time></trkpt>
<trkpt lat="25.079652" lon="101.613076">
<time>2016-04-06T11:17:29Z</time></trkpt>
<trkpt lat="25.079532" lon="101.613006">
<time>2016-04-06T11:17:30Z</time></trkpt>
<trkpt lat="25.079392" lon="101.612936">
<time>2016-04-06T11:17:31Z</time></trkpt>
<trkpt lat="25.079262" lon="101.612876">
<time>2016-04-06T11:17:32Z</time></trkpt>
<trkpt lat="25.078812" lon="101.612696">
<time>2016-04-06T11:17:33Z</time></trkpt>
<trkpt lat="25.078512" lon="101.612566">
<time>2016-04-06T11:17:34Z</time></trkpt>
<trkpt lat="25.078312" lon="101.612476">
<time>2016-04-06T11:17:35Z</time></trkpt>
<trkpt lat="25.078143" lon="101.612396">
<time>2016-04-06T11:17:36Z</time></trkpt>
<trkpt lat="25.078073" lon="101.612356">
<time>2016-04-06T11:17:37Z</time></trkpt>
<trkpt lat="25.078013" lon="101.612307">
<time>2016-04-06T11:17:38Z</time></trkpt>
<trkpt lat="25.077953" lon="101.612257">
<time>2016-04-06T11:17:39Z</time></trkpt>
<trkpt lat="25.077903" lon="101.612197">
<time>2016-04-06T11:17:40Z</time></trkpt>
<trkpt lat="25.077843" lon="101.612127">
<time>2016-04-06T11:17:41Z</time></trkpt>
<trkpt lat="25.077793" lon="101.612037">
<time>2016-04-06T11:17:42Z</time></trkpt>
<trkpt lat="25.077703" lon="101.611877">
<time>2016-04-06T11:17:43Z</time></trkpt>
<trkpt lat="25.077633" lon="101.611697">
<time>2016-04-06T11:17:44Z</time></trkpt>
<trkpt lat="25.077543" lon="101.611457">
<time>2016-04-06T11:17:45Z</time></trkpt>
<trkpt lat="25.077453" lon="101.611217">
<time>2016-04-06T11:17:46Z</time></trkpt>
<trkpt lat="25.077364" lon="101.611007">
<time>2016-04-06T11:17:47Z</time></trkpt>
<trkpt lat="25.077234" lon="101.610758">
<time>2016-04-06T11:17:48Z</time></trkpt>
<trkpt lat="25.077054" lon="101.610388">
<time>2016-04-06T11:17:49Z</time></trkpt>
<trkpt lat="25.076824" lon="101.609968">
<time>2016-04-06T11:17:50Z</time></trkpt>
<trkpt lat="25.076714" lon="101.609728">
<time>2016-04-06T11:17:51Z</time></trkpt>
<trkpt lat="25.076624" lon="101.609528">
<time>2016-04-06T11:17:52Z</time></trkpt>
<trkpt lat="25.076605" lon="101.609448">
<time>2016-04-06T11:17:53Z</time></trkpt>
<trkpt lat="25.076585" lon="101.609368">
<time>2016-04-06T11:17:54Z</time></trkpt>
<trkpt lat="25.076575" lon="101.609218">
<time>2016-04-06T11:17:55Z</time></trkpt>
<trkpt lat="25.076575" lon="101.609069">
<time>2016-04-06T11:17:56Z</time></trkpt>
<trkpt lat="25.076585" lon="101.608859">
<time>2016-04-06T11:17:57Z</time></trkpt>
<trkpt lat="25.076625" lon="101.608469">
<time>2016-04-06T11:17:58Z</time></trkpt>
<trkpt lat="25.076655" lon="101.608269">
<time>2016-04-06T11:17:59Z</time></trkpt>
<trkpt lat="25.076735" lon="101.607859">
<time>2016-04-06T11:18:00Z</time></trkpt>
<trkpt lat="25.076785" lon="101.607609">
<time>2016-04-06T11:18:01Z</time></trkpt>
<trkpt lat="25.076806" lon="101.607479">
<time>2016-04-06T11:18:02Z</time></trkpt>
<trkpt lat="25.076816" lon="101.607439">
<time>2016-04-06T11:18:03Z</time></trkpt>
<trkpt lat="25.076836" lon="101.607249">
<time>2016-04-06T11:18:04Z</time></trkpt>
<trkpt lat="25.076856" lon="101.607039">
<time>2016-04-06T11:18:05Z</time></trkpt>
<trkpt lat="25.076856" lon="101.60687">
<time>2016-04-06T11:18:06Z</time></trkpt>
<trkpt lat="25.076856" lon="101.60665">
<time>2016-04-06T11:18:07Z</time></trkpt>
<trkpt lat="25.076816" lon="101.60631">
<time>2016-04-06T11:18:08Z</time></trkpt>
<trkpt lat="25.076756" lon="101.60597">
<time>2016-04-06T11:18:09Z</time></trkpt>
<trkpt lat="25.076666" lon="101.60558">
<time>2016-04-06T11:18:10Z</time></trkpt>
<trkpt lat="25.076557" lon="101.60519">
<time>2016-04-06T11:18:11Z</time></trkpt>
<trkpt lat="25.076507" lon="101.60498">
<time>2016-04-06T11:18:12Z</time></trkpt>
<trkpt lat="25.076467" lon="101.60483">
<time>2016-04-06T11:18:13Z</time></trkpt>
<trkpt lat="25.076387" lon="101.60459">
<time>2016-04-06T11:18:14Z</time></trkpt>
<trkpt lat="25.076327" lon="101.604441">
<time>2016-04-06T11:18:15Z</time></trkpt>
<trkpt lat="25.076187" lon="101.604131">
<time>2016-04-06T11:18:16Z</time></trkpt>
<trkpt lat="25.076027" lon="101.603811">
<time>2016-04-06T11:18:17Z</time></trkpt>
<trkpt lat="25.075847" lon="101.603481">
<time>2016-04-06T11:18:18Z</time></trkpt>
<trkpt lat="25.075557" lon="101.602951">
<time>2016-04-06T11:18:19Z</time></trkpt>
<trkpt lat="25.075188" lon="101.602271">
<time>2016-04-06T11:18:20Z</time></trkpt>
<trkpt lat="25.074818" lon="101.601561">
<time>2016-04-06T11:18:21Z</time></trkpt>
<trkpt lat="25.074498" lon="101.600971">
<time>2016-04-06T11:18:22Z</time></trkpt>
<trkpt lat="25.074188" lon="101.600402">
<time>2016-04-06T11:18:23Z</time></trkpt>
<trkpt lat="25.073948" lon="101.599952">
<time>2016-04-06T11:18:24Z</time></trkpt>
<trkpt lat="25.073758" lon="101.599592">
<time>2016-04-06T11:18:25Z</time></trkpt>
<trkpt lat="25.073638" lon="101.599342">
<time>2016-04-06T11:18:26Z</time></trkpt>
<trkpt lat="25.073548" lon="101.599142">
<time>2016-04-06T11:18:27Z</time></trkpt>
<trkpt lat="25.073428" lon="101.598822">
<time>2016-04-06T11:18:28Z</time></trkpt>
<trkpt lat="25.073268" lon="101.598372">
<time>2016-04-06T11:18:29Z</time></trkpt>
<trkpt lat="25.073198" lon="101.598212">
<time>2016-04-06T11:18:30Z</time></trkpt>
<trkpt lat="25.073128" lon="101.598052">
<time>2016-04-06T11:18:31Z</time></trkpt>
<trkpt lat="25.073068" lon="101.597952">
<time>2016-04-06T11:18:32Z</time></trkpt>
<trkpt lat="25.072988" lon="101.597822">
<time>2016-04-06T11:18:33Z</time></trkpt>
<trkpt lat="25.072829" lon="101.597612">
<time>2016-04-06T11:18:34Z</time></trkpt>
<trkpt lat="25.072719" lon="101.597492">
<time>2016-04-06T11:18:35Z</time></trkpt>
<trkpt lat="25.072619" lon="101.597382">
<time>2016-04-06T11:18:36Z</time></trkpt>
<trkpt lat="25.072489" lon="101.597252">
<time>2016-04-06T11:18:37Z</time></trkpt>
<trkpt lat="25.072359" lon="101.597132">
<time>2016-04-06T11:18:38Z</time></trkpt>
<trkpt lat="25.072249" lon="101.597062">
<time>2016-04-06T11:18:39Z</time></trkpt>
<trkpt lat="25.072119" lon="101.596992">
<time>2016-04-06T11:18:40Z</time></trkpt>
<trkpt lat="25.071999" lon="101.596942">
<time>2016-04-06T11:18:41Z</time></trkpt>
<trkpt lat="25.071819" lon="101.596882">
<time>2016-04-06T11:18:42Z</time></trkpt>
<trkpt lat="25.071509" lon="101.596792">
<time>2016-04-06T11:18:43Z</time></trkpt>
<trkpt lat="25.070849" lon="101.596612">
<time>2016-04-06T11:18:44Z</time></trkpt>
<trkpt lat="25.070239" lon="101.596462">
<time>2016-04-06T11:18:45Z</time></trkpt>
<trkpt lat="25.069789" lon="101.596322">
<time>2016-04-06T11:18:46Z</time></trkpt>
<trkpt lat="25.069669" lon="101.596272">
<time>2016-04-06T11:18:47Z</time></trkpt>
<trkpt lat="25.069549" lon="101.596212">
<time>2016-04-06T11:18:48Z</time></trkpt>
<trkpt lat="25.069439" lon="101.596132">
<time>2016-04-06T11:18:49Z</time></trkpt>
<trkpt lat="25.069329" lon="101.596042">
<time>2016-04-06T11:18:50Z</time></trkpt>
<trkpt lat="25.069249" lon="101.595952">
<time>2016-04-06T11:18:51Z</time></trkpt>
<trkpt lat="25.069169" lon="101.595842">
<time>2016-04-06T11:18:52Z</time></trkpt>
<trkpt lat="25.069079" lon="101.595692">
<time>2016-04-06T11:18:53Z</time></trkpt>
<trkpt lat="25.068929" lon="101.595362">
<time>2016-04-06T11:18:54Z</time></trkpt>
<trkpt lat="25.068459" lon="101.594282">
<time>2016-04-06T11:18:55Z</time></trkpt>
<trkpt lat="25.068229" lon="101.593742">
<time>2016-04-06T11:18:56Z</time></trkpt>
<trkpt lat="25.067989" lon="101.593192">
<time>2016-04-06T11:18:57Z</time></trkpt>
<trkpt lat="25.067809" lon="101.592822">
<time>2016-04-06T11:18:58Z</time></trkpt>
<trkpt lat="25.067729" lon="101.592651">
<time>2016-04-06T11:18:59Z</time></trkpt>
<trkpt lat="25.067499" lon="101.592271">
<time>2016-04-06T11:19:00Z</time></trkpt>
<trkpt lat="25.067249" lon="101.591861">
<time>2016-04-06T11:19:01Z</time></trkpt>
<trkpt lat="25.066859" lon="101.591251">
<time>2016-04-06T11:19:02Z</time></trkpt>
<trkpt lat="25.066428" lon="101.590581">
<time>2016-04-06T11:19:03Z</time></trkpt>
<trkpt lat="25.066008" lon="101.589911">
<time>2016-04-06T11:19:04Z</time></trkpt>
<trkpt lat="25.065628" lon="101.589301">
<time>2016-04-06T11:19:05Z</time></trkpt>
<trkpt lat="25.065128" lon="101.58852">
<time>2016-04-06T11:19:06Z</time></trkpt>
<trkpt lat="25.064828" lon="101.58804">
<time>2016-04-06T11:19:07Z</time></trkpt>
<trkpt lat="25.064658" lon="101.5878">
<time>2016-04-06T11:19:08Z</time></trkpt>
<trkpt lat="25.064648" lon="101.58779">
<time>2016-04-06T11:19:09Z</time></trkpt>
<trkpt lat="25.064428" lon="101.58752">
<time>2016-04-06T11:19:10Z</time></trkpt>
<trkpt lat="25.064218" lon="101.58729">
<time>2016-04-06T11:19:11Z</time></trkpt>
<trkpt lat="25.064148" lon="101.58723">
<time>2016-04-06T11:19:12Z</time></trkpt>
<trkpt lat="25.064098" lon="101.58719">
<time>2016-04-06T11:19:13Z</time></trkpt>
<trkpt lat="25.064048" lon="101.58715">
<time>2016-04-06T11:19:14Z</time></trkpt>
<trkpt lat="25.064008" lon="101.58713">
<time>2016-04-06T11:19:15Z</time></trkpt>
<trkpt lat="25.063968" lon="101.58711">
<time>2016-04-06T11:19:16Z</time></trkpt>
<trkpt lat="25.063918" lon="101.58709">
<time>2016-04-06T11:19:17Z</time></trkpt>
<trkpt lat="25.063878" lon="101.58707">
<time>2016-04-06T11:19:18Z</time></trkpt>
<trkpt lat="25.063838" lon="101.58706">
<time>2016-04-06T11:19:19Z</time></trkpt>
<trkpt lat="25.063798" lon="101.58706">
<time>2016-04-06T11:19:20Z</time></trkpt>
<trkpt lat="25.063758" lon="101.58705">
<time>2016-04-06T11:19:21Z</time></trkpt>
<trkpt lat="25.063718" lon="101.58705">
<time>2016-04-06T11:19:22Z</time></trkpt>
<trkpt lat="25.063688" lon="101.58705">
<time>2016-04-06T11:19:23Z</time></trkpt>
<trkpt lat="25.063638" lon="101.58706">
<time>2016-04-06T11:19:24Z</time></trkpt>
<trkpt lat="25.063608" lon="101.58706">
<time>2016-04-06T11:19:25Z</time></trkpt>
<trkpt lat="25.063568" lon="101.58707">
<time>2016-04-06T11:19:26Z</time></trkpt>
<trkpt lat="25.063528" lon="101.58709">
<time>2016-04-06T11:19:27Z</time></trkpt>
<trkpt lat="25.063478" lon="101.58712">
<time>2016-04-06T11:19:28Z</time></trkpt>
<trkpt lat="25.063428" lon="101.58715">
<time>2016-04-06T11:19:29Z</time></trkpt>
<trkpt lat="25.063398" lon="101.58718">
<time>2016-04-06T11:19:30Z</time></trkpt>
<trkpt lat="25.063328" lon="101.58725">
<time>2016-04-06T11:19:31Z</time></trkpt>
<trkpt lat="25.063258" lon="101.58734">
<time>2016-04-06T11:19:32Z</time></trkpt>
<trkpt lat="25.063198" lon="101.58744">
<time>2016-04-06T11:19:33Z</time></trkpt>
<trkpt lat="25.063108" lon="101.58761">
<time>2016-04-06T11:19:34Z</time></trkpt>
<trkpt lat="25.062998" lon="101.58784">
<time>2016-04-06T11:19:35Z</time></trkpt>
<trkpt lat="25.062838" lon="101.58813">
<time>2016-04-06T11:19:36Z</time></trkpt>
<trkpt lat="25.062758" lon="101.58828">
<time>2016-04-06T11:19:37Z</time></trkpt>
<trkpt lat="25.062618" lon="101.58847">
<time>2016-04-06T11:19:38Z</time></trkpt>
<trkpt lat="25.062338" lon="101.58879">
<time>2016-04-06T11:19:39Z</time></trkpt>
<trkpt lat="25.062009" lon="101.589141">
<time>2016-04-06T11:19:40Z</time></trkpt>
<trkpt lat="25.061739" lon="101.589431">
<time>2016-04-06T11:19:41Z</time></trkpt>
<trkpt lat="25.061679" lon="101.589501">
<time>2016-04-06T11:19:42Z</time></trkpt>
<trkpt lat="25.061579" lon="101.589611">
<time>2016-04-06T11:19:43Z</time></trkpt>
<trkpt lat="25.061389" lon="101.589811">
<time>2016-04-06T11:19:44Z</time></trkpt>
<trkpt lat="25.061289" lon="101.589901">
<time>2016-04-06T11:19:45Z</time></trkpt>
<trkpt lat="25.061189" lon="101.589971">
<time>2016-04-06T11:19:46Z</time></trkpt>
<trkpt lat="25.061099" lon="101.590031">
<time>2016-04-06T11:19:47Z</time></trkpt>
<trkpt lat="25.061019" lon="101.590061">
<time>2016-04-06T11:19:48Z</time></trkpt>
<trkpt lat="25.060929" lon="101.590111">
<time>2016-04-06T11:19:49Z</time></trkpt>
<trkpt lat="25.060819" lon="101.590151">
<time>2016-04-06T11:19:50Z</time></trkpt>
<trkpt lat="25.060669" lon="101.590181">
<time>2016-04-06T11:19:51Z</time></trkpt>
<trkpt lat="25.060529" lon="101.590191">
<time>2016-04-06T11:19:52Z</time></trkpt>
<trkpt lat="25.060429" lon="101.590201">
<time>2016-04-06T11:19:53Z</time></trkpt>
<trkpt lat="25.060269" lon="101.590181">
<time>2016-04-06T11:19:54Z</time></trkpt>
<trkpt lat="25.060129" lon="101.590161">
<time>2016-04-06T11:19:55Z</time></trkpt>
<trkpt lat="25.059999" lon="101.590121">
<time>2016-04-06T11:19:56Z</time></trkpt>
<trkpt lat="25.059899" lon="101.590081">
<time>2016-04-06T11:19:57Z</time></trkpt>
<trkpt lat="25.059779" lon="101.590021">
<time>2016-04-06T11:19:58Z</time></trkpt>
<trkpt lat="25.059369" lon="101.589771">
<time>2016-04-06T11:19:59Z</time></trkpt>
<trkpt lat="25.058949" lon="101.589501">
<time>2016-04-06T11:20:00Z</time></trkpt>
<trkpt lat="25.058679" lon="101.589311">
<time>2016-04-06T11:20:01Z</time></trkpt>
<trkpt lat="25.058379" lon="101.589111">
<time>2016-04-06T11:20:02Z</time></trkpt>
<trkpt lat="25.058149" lon="101.588951">
<time>2016-04-06T11:20:03Z</time></trkpt>
<trkpt lat="25.057839" lon="101.588741">
<time>2016-04-06T11:20:04Z</time></trkpt>
<trkpt lat="25.057549" lon="101.58855">
<time>2016-04-06T11:20:05Z</time></trkpt>
<trkpt lat="25.057399" lon="101.58844">
<time>2016-04-06T11:20:06Z</time></trkpt>
<trkpt lat="25.057079" lon="101.5882">
<time>2016-04-06T11:20:07Z</time></trkpt>
<trkpt lat="25.056639" lon="101.58791">
<time>2016-04-06T11:20:08Z</time></trkpt>
<trkpt lat="25.056419" lon="101.58773">
<time>2016-04-06T11:20:09Z</time></trkpt>
<trkpt lat="25.056349" lon="101.58768">
<time>2016-04-06T11:20:10Z</time></trkpt>
<trkpt lat="25.056299" lon="101.58762">
<time>2016-04-06T11:20:11Z</time></trkpt>
<trkpt lat="25.056249" lon="101.58757">
<time>2016-04-06T11:20:12Z</time></trkpt>
<trkpt lat="25.056219" lon="101.58753">
<time>2016-04-06T11:20:13Z</time></trkpt>
<trkpt lat="25.056199" lon="101.58749">
<time>2016-04-06T11:20:14Z</time></trkpt>
<trkpt lat="25.056179" lon="101.58745">
<time>2016-04-06T11:20:15Z</time></trkpt>
<trkpt lat="25.056169" lon="101.5874">
<time>2016-04-06T11:20:16Z</time></trkpt>
<trkpt lat="25.056148" lon="101.58734">
<time>2016-04-06T11:20:17Z</time></trkpt>
<trkpt lat="25.056148" lon="101.58728">
<time>2016-04-06T11:20:18Z</time></trkpt>
<trkpt lat="25.056138" lon="101.58722">
<time>2016-04-06T11:20:19Z</time></trkpt>
<trkpt lat="25.056138" lon="101.58708">
<time>2016-04-06T11:20:20Z</time></trkpt>
<trkpt lat="25.056148" lon="101.58692">
<time>2016-04-06T11:20:21Z</time></trkpt>
<trkpt lat="25.056178" lon="101.58659">
<time>2016-04-06T11:20:22Z</time></trkpt>
<trkpt lat="25.056188" lon="101.58637">
<time>2016-04-06T11:20:23Z</time></trkpt>
<trkpt lat="25.056188" lon="101.586229">
<time>2016-04-06T11:20:24Z</time></trkpt>
<trkpt lat="25.056168" lon="101.586089">
<time>2016-04-06T11:20:25Z</time></trkpt>
<trkpt lat="25.056138" lon="101.585879">
<time>2016-04-06T11:20:26Z</time></trkpt>
<trkpt lat="25.056118" lon="101.585819">
<time>2016-04-06T11:20:27Z</time></trkpt>
<trkpt lat="25.056088" lon="101.585649">
<time>2016-04-06T11:20:28Z</time></trkpt>
<trkpt lat="25.056038" lon="101.585479">
<time>2016-04-06T11:20:29Z</time></trkpt>
<trkpt lat="25.055978" lon="101.585299">
<time>2016-04-06T11:20:30Z</time></trkpt>
<trkpt lat="25.055918" lon="101.585139">
<time>2016-04-06T11:20:31Z</time></trkpt>
<trkpt lat="25.055847" lon="101.584999">
<time>2016-04-06T11:20:32Z</time></trkpt>
<trkpt lat="25.055767" lon="101.584859">
<time>2016-04-06T11:20:33Z</time></trkpt>
<trkpt lat="25.055617" lon="101.584629">
<time>2016-04-06T11:20:34Z</time></trkpt>
<trkpt lat="25.055567" lon="101.584539">
<time>2016-04-06T11:20:35Z</time></trkpt>
<trkpt lat="25.055527" lon="101.584468">
<time>2016-04-06T11:20:36Z</time></trkpt>
<trkpt lat="25.055477" lon="101.584378">
<time>2016-04-06T11:20:37Z</time></trkpt>
<trkpt lat="25.055457" lon="101.584328">
<time>2016-04-06T11:20:38Z</time></trkpt>
<trkpt lat="25.055437" lon="101.584268">
<time>2016-04-06T11:20:39Z</time></trkpt>
<trkpt lat="25.055427" lon="101.584228">
<time>2016-04-06T11:20:40Z</time></trkpt>
<trkpt lat="25.055407" lon="101.584158">
<time>2016-04-06T11:20:41Z</time></trkpt>
<trkpt lat="25.055407" lon="101.584088">
<time>2016-04-06T11:20:42Z</time></trkpt>
<trkpt lat="25.055397" lon="101.584028">
<time>2016-04-06T11:20:43Z</time></trkpt>
<trkpt lat="25.055407" lon="101.583968">
<time>2016-04-06T11:20:44Z</time></trkpt>
<trkpt lat="25.055417" lon="101.583828">
<time>2016-04-06T11:20:45Z</time></trkpt>
<trkpt lat="25.055477" lon="101.583538">
<time>2016-04-06T11:20:46Z</time></trkpt>
<trkpt lat="25.055546" lon="101.583138">
<time>2016-04-06T11:20:47Z</time></trkpt>
<trkpt lat="25.055576" lon="101.582917">
<time>2016-04-06T11:20:48Z</time></trkpt>
<trkpt lat="25.055596" lon="101.582727">
<time>2016-04-06T11:20:49Z</time></trkpt>
<trkpt lat="25.055606" lon="101.582567">
<time>2016-04-06T11:20:50Z</time></trkpt>
<trkpt lat="25.055596" lon="101.582387">
<time>2016-04-06T11:20:51Z</time></trkpt>
<trkpt lat="25.055576" lon="101.582177">
<time>2016-04-06T11:20:52Z</time></trkpt>
<trkpt lat="25.055546" lon="101.582017">
<time>2016-04-06T11:20:53Z</time></trkpt>
<trkpt lat="25.055506" lon="101.581847">
<time>2016-04-06T11:20:54Z</time></trkpt>
<trkpt lat="25.055436" lon="101.581597">
<time>2016-04-06T11:20:55Z</time></trkpt>
<trkpt lat="25.055225" lon="101.580886">
<time>2016-04-06T11:20:56Z</time></trkpt>
<trkpt lat="25.054985" lon="101.580115">
<time>2016-04-06T11:20:57Z</time></trkpt>
<trkpt lat="25.054985" lon="101.580115">
<time>2016-04-06T11:20:58Z</time></trkpt>
<trkpt lat="25.054984" lon="101.580025">
<time>2016-04-06T11:20:59Z</time></trkpt>
<trkpt lat="25.054944" lon="101.579865">
<time>2016-04-06T11:21:00Z</time></trkpt>
<trkpt lat="25.054864" lon="101.579655">
<time>2016-04-06T11:21:01Z</time></trkpt>
<trkpt lat="25.054794" lon="101.579485">
<time>2016-04-06T11:21:02Z</time></trkpt>
<trkpt lat="25.054724" lon="101.579355">
<time>2016-04-06T11:21:03Z</time></trkpt>
<trkpt lat="25.054604" lon="101.579175">
<time>2016-04-06T11:21:04Z</time></trkpt>
<trkpt lat="25.054534" lon="101.579085">
<time>2016-04-06T11:21:05Z</time></trkpt>
<trkpt lat="25.054464" lon="101.579014">
<time>2016-04-06T11:21:06Z</time></trkpt>
<trkpt lat="25.054384" lon="101.578944">
<time>2016-04-06T11:21:07Z</time></trkpt>
<trkpt lat="25.054284" lon="101.578864">
<time>2016-04-06T11:21:08Z</time></trkpt>
<trkpt lat="25.053873" lon="101.578574">
<time>2016-04-06T11:21:09Z</time></trkpt>
<trkpt lat="25.053563" lon="101.578354">
<time>2016-04-06T11:21:10Z</time></trkpt>
<trkpt lat="25.053273" lon="101.578094">
<time>2016-04-06T11:21:11Z</time></trkpt>
<trkpt lat="25.053223" lon="101.578034">
<time>2016-04-06T11:21:12Z</time></trkpt>
<trkpt lat="25.053213" lon="101.578034">
<time>2016-04-06T11:21:13Z</time></trkpt>
<trkpt lat="25.053133" lon="101.577934">
<time>2016-04-06T11:21:14Z</time></trkpt>
<trkpt lat="25.052953" lon="101.577693">
<time>2016-04-06T11:21:15Z</time></trkpt>
<trkpt lat="25.052863" lon="101.577513">
<time>2016-04-06T11:21:16Z</time></trkpt>
<trkpt lat="25.052793" lon="101.577343">
<time>2016-04-06T11:21:17Z</time></trkpt>
<trkpt lat="25.052712" lon="101.577133">
<time>2016-04-06T11:21:18Z</time></trkpt>
<trkpt lat="25.052662" lon="101.576943">
<time>2016-04-06T11:21:19Z</time></trkpt>
<trkpt lat="25.052622" lon="101.576702">
<time>2016-04-06T11:21:20Z</time></trkpt>
<trkpt lat="25.052602" lon="101.576492">
<time>2016-04-06T11:21:21Z</time></trkpt>
<trkpt lat="25.052602" lon="101.576202">
<time>2016-04-06T11:21:22Z</time></trkpt>
<trkpt lat="25.052651" lon="101.575892">
<time>2016-04-06T11:21:23Z</time></trkpt>
<trkpt lat="25.052691" lon="101.575641">
<time>2016-04-06T11:21:24Z</time></trkpt>
<trkpt lat="25.05282" lon="101.575041">
<time>2016-04-06T11:21:25Z</time></trkpt>
<trkpt lat="25.05286" lon="101.57484">
<time>2016-04-06T11:21:26Z</time></trkpt>
<trkpt lat="25.053079" lon="101.573819">
<time>2016-04-06T11:21:27Z</time></trkpt>
<trkpt lat="25.053149" lon="101.573479">
<time>2016-04-06T11:21:28Z</time></trkpt>
<trkpt lat="25.053288" lon="101.572828">
<time>2016-04-06T11:21:29Z</time></trkpt>
<trkpt lat="25.054104" lon="101.569043">
<time>2016-04-06T11:21:30Z</time></trkpt>
<trkpt lat="25.05478" lon="101.565889">
<time>2016-04-06T11:21:31Z</time></trkpt>
<trkpt lat="25.05479" lon="101.565829">
<time>2016-04-06T11:21:32Z</time></trkpt>
<trkpt lat="25.054899" lon="101.565298">
<time>2016-04-06T11:21:33Z</time></trkpt>
<trkpt lat="25.054978" lon="101.564918">
<time>2016-04-06T11:21:34Z</time></trkpt>
<trkpt lat="25.054998" lon="101.564627">
<time>2016-04-06T11:21:35Z</time></trkpt>
<trkpt lat="25.055027" lon="101.564176">
<time>2016-04-06T11:21:36Z</time></trkpt>
<trkpt lat="25.055027" lon="101.563856">
<time>2016-04-06T11:21:37Z</time></trkpt>
<trkpt lat="25.054986" lon="101.563465">
<time>2016-04-06T11:21:38Z</time></trkpt>
<trkpt lat="25.054916" lon="101.563015">
<time>2016-04-06T11:21:39Z</time></trkpt>
<trkpt lat="25.054835" lon="101.562624">
<time>2016-04-06T11:21:40Z</time></trkpt>
<trkpt lat="25.054825" lon="101.562614">
<time>2016-04-06T11:21:41Z</time></trkpt>
<trkpt lat="25.054674" lon="101.562163">
<time>2016-04-06T11:21:42Z</time></trkpt>
<trkpt lat="25.054494" lon="101.561742">
<time>2016-04-06T11:21:43Z</time></trkpt>
<trkpt lat="25.054363" lon="101.561472">
<time>2016-04-06T11:21:44Z</time></trkpt>
<trkpt lat="25.054213" lon="101.561212">
<time>2016-04-06T11:21:45Z</time></trkpt>
<trkpt lat="25.053822" lon="101.560641">
<time>2016-04-06T11:21:46Z</time></trkpt>
<trkpt lat="25.053662" lon="101.56042">
<time>2016-04-06T11:21:47Z</time></trkpt>
<trkpt lat="25.053572" lon="101.56029">
<time>2016-04-06T11:21:48Z</time></trkpt>
<trkpt lat="25.053521" lon="101.56021">
<time>2016-04-06T11:21:49Z</time></trkpt>
<trkpt lat="25.053481" lon="101.56014">
<time>2016-04-06T11:21:50Z</time></trkpt>
<trkpt lat="25.053471" lon="101.56011">
<time>2016-04-06T11:21:51Z</time></trkpt>
<trkpt lat="25.053451" lon="101.56007">
<time>2016-04-06T11:21:52Z</time></trkpt>
<trkpt lat="25.052939" lon="101.558817">
<time>2016-04-06T11:21:53Z</time></trkpt>
<trkpt lat="25.052769" lon="101.558367">
<time>2016-04-06T11:21:54Z</time></trkpt>
<trkpt lat="25.052658" lon="101.558106">
<time>2016-04-06T11:21:55Z</time></trkpt>
<trkpt lat="25.052317" lon="101.557204">
<time>2016-04-06T11:21:56Z</time></trkpt>
<trkpt lat="25.051764" lon="101.555782">
<time>2016-04-06T11:21:57Z</time></trkpt>
<trkpt lat="25.051744" lon="101.555742">
<time>2016-04-06T11:21:58Z</time></trkpt>
<trkpt lat="25.051724" lon="101.555672">
<time>2016-04-06T11:21:59Z</time></trkpt>
<trkpt lat="25.051724" lon="101.555672">
<time>2016-04-06T11:22:00Z</time></trkpt>
<trkpt lat="25.051774" lon="101.555642">
<time>2016-04-06T11:22:01Z</time></trkpt>
<trkpt lat="25.052393" lon="101.555341">
<time>2016-04-06T11:22:02Z</time></trkpt>
<trkpt lat="25.052403" lon="101.555311">
<time>2016-04-06T11:22:03Z</time></trkpt>
<trkpt lat="25.052413" lon="101.555291">
<time>2016-04-06T11:22:04Z</time></trkpt>
<trkpt lat="25.052413" lon="101.555261">
<time>2016-04-06T11:22:05Z</time></trkpt>
<trkpt lat="25.052413" lon="101.555261">
<time>2016-04-06T11:22:06Z</time></trkpt>
<trkpt lat="25.05227" lon="101.553668">
<time>2016-04-06T11:22:07Z</time></trkpt>
<trkpt lat="25.05225" lon="101.553527">
<time>2016-04-06T11:22:08Z</time></trkpt>
<trkpt lat="25.052097" lon="101.551984">
<time>2016-04-06T11:22:09Z</time></trkpt>
<trkpt lat="25.052016" lon="101.551293">
<time>2016-04-06T11:22:10Z</time></trkpt>
<trkpt lat="25.052016" lon="101.551283">
<time>2016-04-06T11:22:11Z</time></trkpt>
<trkpt lat="25.051975" lon="101.550942">
<time>2016-04-06T11:22:12Z</time></trkpt>
<trkpt lat="25.051914" lon="101.550331">
<time>2016-04-06T11:22:13Z</time></trkpt>
<trkpt lat="25.051914" lon="101.550271">
<time>2016-04-06T11:22:14Z</time></trkpt>
<trkpt lat="25.051893" lon="101.55002">
<time>2016-04-06T11:22:15Z</time></trkpt>
<trkpt lat="25.051863" lon="101.549729">
<time>2016-04-06T11:22:16Z</time></trkpt>
<trkpt lat="25.051741" lon="101.548617">
<time>2016-04-06T11:22:17Z</time></trkpt>
<trkpt lat="25.0517" lon="101.548296">
<time>2016-04-06T11:22:18Z</time></trkpt>
<trkpt lat="25.051608" lon="101.547464">
<time>2016-04-06T11:22:19Z</time></trkpt>
<trkpt lat="25.051547" lon="101.546873">
<time>2016-04-06T11:22:20Z</time></trkpt>
<trkpt lat="25.051486" lon="101.546342">
<time>2016-04-06T11:22:21Z</time></trkpt>
<trkpt lat="25.051486" lon="101.546332">
<time>2016-04-06T11:22:22Z</time></trkpt>
<trkpt lat="25.051384" lon="101.54537">
<time>2016-04-06T11:22:23Z</time></trkpt>
<trkpt lat="25.051333" lon="101.544939">
<time>2016-04-06T11:22:24Z</time></trkpt>
<trkpt lat="25.051179" lon="101.543405">
<time>2016-04-06T11:22:25Z</time></trkpt>
<trkpt lat="25.051169" lon="101.543345">
<time>2016-04-06T11:22:26Z</time></trkpt>
<trkpt lat="25.051016" lon="101.541931">
<time>2016-04-06T11:22:27Z</time></trkpt>
<trkpt lat="25.050996" lon="101.541711">
<time>2016-04-06T11:22:28Z</time></trkpt>
<trkpt lat="25.050832" lon="101.540257">
<time>2016-04-06T11:22:29Z</time></trkpt>
<trkpt lat="25.050812" lon="101.540137">
<time>2016-04-06T11:22:30Z</time></trkpt>
<trkpt lat="25.050761" lon="101.539596">
<time>2016-04-06T11:22:31Z</time></trkpt>
<trkpt lat="25.050659" lon="101.538673">
<time>2016-04-06T11:22:32Z</time></trkpt>
<trkpt lat="25.050659" lon="101.538663">
<time>2016-04-06T11:22:33Z</time></trkpt>
<trkpt lat="25.050648" lon="101.538533">
<time>2016-04-06T11:22:34Z</time></trkpt>
<trkpt lat="25.050536" lon="101.53755">
<time>2016-04-06T11:22:35Z</time></trkpt>
<trkpt lat="25.050474" lon="101.536909">
<time>2016-04-06T11:22:36Z</time></trkpt>
<trkpt lat="25.050372" lon="101.535926">
<time>2016-04-06T11:22:37Z</time></trkpt>
<trkpt lat="25.05028" lon="101.535134">
<time>2016-04-06T11:22:38Z</time></trkpt>
<trkpt lat="25.050137" lon="101.534021">
<time>2016-04-06T11:22:39Z</time></trkpt>
<trkpt lat="25.050076" lon="101.533459">
<time>2016-04-06T11:22:40Z</time></trkpt>
<trkpt lat="25.049984" lon="101.532597">
<time>2016-04-06T11:22:41Z</time></trkpt>
<trkpt lat="25.049933" lon="101.532126">
<time>2016-04-06T11:22:42Z</time></trkpt>
<trkpt lat="25.049892" lon="101.531685">
<time>2016-04-06T11:22:43Z</time></trkpt>
<trkpt lat="25.049759" lon="101.530612">
<time>2016-04-06T11:22:44Z</time></trkpt>
<trkpt lat="25.049748" lon="101.530451">
<time>2016-04-06T11:22:45Z</time></trkpt>
<trkpt lat="25.049717" lon="101.5301">
<time>2016-04-06T11:22:46Z</time></trkpt>
<trkpt lat="25.049686" lon="101.529629">
<time>2016-04-06T11:22:47Z</time></trkpt>
<trkpt lat="25.049655" lon="101.529318">
<time>2016-04-06T11:22:48Z</time></trkpt>
<trkpt lat="25.049675" lon="101.529077">
<time>2016-04-06T11:22:49Z</time></trkpt>
<trkpt lat="25.049693" lon="101.528516">
<time>2016-04-06T11:22:50Z</time></trkpt>
<trkpt lat="25.049703" lon="101.528496">
<time>2016-04-06T11:22:51Z</time></trkpt>
<trkpt lat="25.049771" lon="101.527814">
<time>2016-04-06T11:22:52Z</time></trkpt>
<trkpt lat="25.04986" lon="101.527262">
<time>2016-04-06T11:22:53Z</time></trkpt>
<trkpt lat="25.04988" lon="101.527142">
<time>2016-04-06T11:22:54Z</time></trkpt>
<trkpt lat="25.04988" lon="101.527142">
<time>2016-04-06T11:22:55Z</time></trkpt>
<trkpt lat="25.049968" lon="101.526711">
<time>2016-04-06T11:22:56Z</time></trkpt>
<trkpt lat="25.050137" lon="101.526099">
<time>2016-04-06T11:22:57Z</time></trkpt>
<trkpt lat="25.050256" lon="101.525738">
<time>2016-04-06T11:22:58Z</time></trkpt>
<trkpt lat="25.050286" lon="101.525647">
<time>2016-04-06T11:22:59Z</time></trkpt>
<trkpt lat="25.050415" lon="101.525296">
<time>2016-04-06T11:23:00Z</time></trkpt>
<trkpt lat="25.050633" lon="101.524795">
<time>2016-04-06T11:23:01Z</time></trkpt>
<trkpt lat="25.050802" lon="101.524404">
<time>2016-04-06T11:23:02Z</time></trkpt>
<trkpt lat="25.051389" lon="101.52319">
<time>2016-04-06T11:23:03Z</time></trkpt>
<trkpt lat="25.051607" lon="101.522759">
<time>2016-04-06T11:23:04Z</time></trkpt>
<trkpt lat="25.051995" lon="101.521967">
<time>2016-04-06T11:23:05Z</time></trkpt>
<trkpt lat="25.052512" lon="101.520893">
<time>2016-04-06T11:23:06Z</time></trkpt>
<trkpt lat="25.05291" lon="101.520071">
<time>2016-04-06T11:23:07Z</time></trkpt>
<trkpt lat="25.053119" lon="101.51966">
<time>2016-04-06T11:23:08Z</time></trkpt>
<trkpt lat="25.054381" lon="101.517122">
<time>2016-04-06T11:23:09Z</time></trkpt>
<trkpt lat="25.05464" lon="101.51656">
<time>2016-04-06T11:23:10Z</time></trkpt>
<trkpt lat="25.054868" lon="101.516089">
<time>2016-04-06T11:23:11Z</time></trkpt>
<trkpt lat="25.054878" lon="101.516069">
<time>2016-04-06T11:23:12Z</time></trkpt>
<trkpt lat="25.055127" lon="101.515537">
<time>2016-04-06T11:23:13Z</time></trkpt>
<trkpt lat="25.055147" lon="101.515497">
<time>2016-04-06T11:23:14Z</time></trkpt>
<trkpt lat="25.055147" lon="101.515487">
<time>2016-04-06T11:23:15Z</time></trkpt>
<trkpt lat="25.055246" lon="101.515266">
<time>2016-04-06T11:23:16Z</time></trkpt>
<trkpt lat="25.055315" lon="101.515035">
<time>2016-04-06T11:23:17Z</time></trkpt>
<trkpt lat="25.055374" lon="101.514795">
<time>2016-04-06T11:23:18Z</time></trkpt>
<trkpt lat="25.055384" lon="101.514694">
<time>2016-04-06T11:23:19Z</time></trkpt>
<trkpt lat="25.055384" lon="101.514674">
<time>2016-04-06T11:23:20Z</time></trkpt>
<trkpt lat="25.055404" lon="101.514514">
<time>2016-04-06T11:23:21Z</time></trkpt>
<trkpt lat="25.055403" lon="101.514233">
<time>2016-04-06T11:23:22Z</time></trkpt>
<trkpt lat="25.055362" lon="101.514012">
<time>2016-04-06T11:23:23Z</time></trkpt>
<trkpt lat="25.055352" lon="101.513982">
<time>2016-04-06T11:23:24Z</time></trkpt>
<trkpt lat="25.05522" lon="101.51324">
<time>2016-04-06T11:23:25Z</time></trkpt>
<trkpt lat="25.05518" lon="101.513079">
<time>2016-04-06T11:23:26Z</time></trkpt>
<trkpt lat="25.055078" lon="101.512598">
<time>2016-04-06T11:23:27Z</time></trkpt>
<trkpt lat="25.055078" lon="101.512598">
<time>2016-04-06T11:23:28Z</time></trkpt>
<trkpt lat="25.055108" lon="101.512397">
<time>2016-04-06T11:23:29Z</time></trkpt>
<trkpt lat="25.055046" lon="101.512026">
<time>2016-04-06T11:23:30Z</time></trkpt>
<trkpt lat="25.054996" lon="101.511765">
<time>2016-04-06T11:23:31Z</time></trkpt>
<trkpt lat="25.054935" lon="101.511404">
<time>2016-04-06T11:23:32Z</time></trkpt>
<trkpt lat="25.054884" lon="101.511173">
<time>2016-04-06T11:23:33Z</time></trkpt>
<trkpt lat="25.054783" lon="101.510702">
<time>2016-04-06T11:23:34Z</time></trkpt>
<trkpt lat="25.054691" lon="101.51028">
<time>2016-04-06T11:23:35Z</time></trkpt>
<trkpt lat="25.054661" lon="101.51014">
<time>2016-04-06T11:23:36Z</time></trkpt>
<trkpt lat="25.05462" lon="101.509889">
<time>2016-04-06T11:23:37Z</time></trkpt>
<trkpt lat="25.0546" lon="101.509769">
<time>2016-04-06T11:23:38Z</time></trkpt>
<trkpt lat="25.054569" lon="101.509538">
<time>2016-04-06T11:23:39Z</time></trkpt>
<trkpt lat="25.054559" lon="101.509478">
<time>2016-04-06T11:23:40Z</time></trkpt>
<trkpt lat="25.054548" lon="101.509297">
<time>2016-04-06T11:23:41Z</time></trkpt>
<trkpt lat="25.054528" lon="101.508996">
<time>2016-04-06T11:23:42Z</time></trkpt>
<trkpt lat="25.054527" lon="101.508665">
<time>2016-04-06T11:23:43Z</time></trkpt>
<trkpt lat="25.054546" lon="101.508374">
<time>2016-04-06T11:23:44Z</time></trkpt>
<trkpt lat="25.054575" lon="101.508114">
<time>2016-04-06T11:23:45Z</time></trkpt>
<trkpt lat="25.054604" lon="101.507953">
<time>2016-04-06T11:23:46Z</time></trkpt>
<trkpt lat="25.054654" lon="101.507712">
<time>2016-04-06T11:23:47Z</time></trkpt>
<trkpt lat="25.054733" lon="101.507411">
<time>2016-04-06T11:23:48Z</time></trkpt>
<trkpt lat="25.054782" lon="101.507231">
<time>2016-04-06T11:23:49Z</time></trkpt>
<trkpt lat="25.054971" lon="101.506699">
<time>2016-04-06T11:23:50Z</time></trkpt>
<trkpt lat="25.055268" lon="101.505967">
<time>2016-04-06T11:23:51Z</time></trkpt>
<trkpt lat="25.055368" lon="101.505716">
<time>2016-04-06T11:23:52Z</time></trkpt>
<trkpt lat="25.055368" lon="101.505696">
<time>2016-04-06T11:23:53Z</time></trkpt>
<trkpt lat="25.055417" lon="101.505585">
<time>2016-04-06T11:23:54Z</time></trkpt>
<trkpt lat="25.055626" lon="101.505034">
<time>2016-04-06T11:23:55Z</time></trkpt>
<trkpt lat="25.055636" lon="101.505024">
<time>2016-04-06T11:23:56Z</time></trkpt>
<trkpt lat="25.055655" lon="101.504963">
<time>2016-04-06T11:23:57Z</time></trkpt>
<trkpt lat="25.055794" lon="101.504612">
<time>2016-04-06T11:23:58Z</time></trkpt>
<trkpt lat="25.055824" lon="101.504522">
<time>2016-04-06T11:23:59Z</time></trkpt>
<trkpt lat="25.055854" lon="101.504452">
<time>2016-04-06T11:24:00Z</time></trkpt>
<trkpt lat="25.056231" lon="101.503509">
<time>2016-04-06T11:24:01Z</time></trkpt>
<trkpt lat="25.05635" lon="101.503188">
<time>2016-04-06T11:24:02Z</time></trkpt>
<trkpt lat="25.0564" lon="101.503067">
<time>2016-04-06T11:24:03Z</time></trkpt>
<trkpt lat="25.056549" lon="101.502736">
<time>2016-04-06T11:24:04Z</time></trkpt>
<trkpt lat="25.056598" lon="101.502626">
<time>2016-04-06T11:24:05Z</time></trkpt>
<trkpt lat="25.056728" lon="101.502385">
<time>2016-04-06T11:24:06Z</time></trkpt>
<trkpt lat="25.056867" lon="101.502154">
<time>2016-04-06T11:24:07Z</time></trkpt>
<trkpt lat="25.057066" lon="101.501874">
<time>2016-04-06T11:24:08Z</time></trkpt>
<trkpt lat="25.057285" lon="101.501593">
<time>2016-04-06T11:24:09Z</time></trkpt>
<trkpt lat="25.057524" lon="101.501342">
<time>2016-04-06T11:24:10Z</time></trkpt>
<trkpt lat="25.057724" lon="101.501151">
<time>2016-04-06T11:24:11Z</time></trkpt>
<trkpt lat="25.057923" lon="101.500981">
<time>2016-04-06T11:24:12Z</time></trkpt>
<trkpt lat="25.058163" lon="101.5008">
<time>2016-04-06T11:24:13Z</time></trkpt>
<trkpt lat="25.058532" lon="101.500509">
<time>2016-04-06T11:24:14Z</time></trkpt>
<trkpt lat="25.05918" lon="101.500028">
<time>2016-04-06T11:24:15Z</time></trkpt>
<trkpt lat="25.0593" lon="101.499927">
<time>2016-04-06T11:24:16Z</time></trkpt>
<trkpt lat="25.059978" lon="101.499375">
<time>2016-04-06T11:24:17Z</time></trkpt>
<trkpt lat="25.060457" lon="101.498984">
<time>2016-04-06T11:24:18Z</time></trkpt>
<trkpt lat="25.060656" lon="101.498824">
<time>2016-04-06T11:24:19Z</time></trkpt>
<trkpt lat="25.061065" lon="101.498483">
<time>2016-04-06T11:24:20Z</time></trkpt>
<trkpt lat="25.061195" lon="101.498332">
<time>2016-04-06T11:24:21Z</time></trkpt>
<trkpt lat="25.061504" lon="101.497971">
<time>2016-04-06T11:24:22Z</time></trkpt>
<trkpt lat="25.062032" lon="101.497218">
<time>2016-04-06T11:24:23Z</time></trkpt>
<trkpt lat="25.062071" lon="101.497148">
<time>2016-04-06T11:24:24Z</time></trkpt>
<trkpt lat="25.062191" lon="101.496958">
<time>2016-04-06T11:24:25Z</time></trkpt>
<trkpt lat="25.06236" lon="101.496667">
<time>2016-04-06T11:24:26Z</time></trkpt>
<trkpt lat="25.062808" lon="101.495954">
<time>2016-04-06T11:24:27Z</time></trkpt>
<trkpt lat="25.063395" lon="101.495062">
<time>2016-04-06T11:24:28Z</time></trkpt>
<trkpt lat="25.063554" lon="101.494851">
<time>2016-04-06T11:24:29Z</time></trkpt>
<trkpt lat="25.063704" lon="101.49465">
<time>2016-04-06T11:24:30Z</time></trkpt>
<trkpt lat="25.063863" lon="101.49444">
<time>2016-04-06T11:24:31Z</time></trkpt>
<trkpt lat="25.064281" lon="101.493918">
<time>2016-04-06T11:24:32Z</time></trkpt>
<trkpt lat="25.064361" lon="101.493818">
<time>2016-04-06T11:24:33Z</time></trkpt>
<trkpt lat="25.06475" lon="101.493386">
<time>2016-04-06T11:24:34Z</time></trkpt>
<trkpt lat="25.064859" lon="101.493266">
<time>2016-04-06T11:24:35Z</time></trkpt>
<trkpt lat="25.064949" lon="101.493165">
<time>2016-04-06T11:24:36Z</time></trkpt>
<trkpt lat="25.065647" lon="101.492453">
<time>2016-04-06T11:24:37Z</time></trkpt>
<trkpt lat="25.066355" lon="101.491731">
<time>2016-04-06T11:24:38Z</time></trkpt>
<trkpt lat="25.066713" lon="101.491309">
<time>2016-04-06T11:24:39Z</time></trkpt>
<trkpt lat="25.066733" lon="101.491279">
<time>2016-04-06T11:24:40Z</time></trkpt>
<trkpt lat="25.066962" lon="101.490998">
<time>2016-04-06T11:24:41Z</time></trkpt>
<trkpt lat="25.067162" lon="101.490798">
<time>2016-04-06T11:24:42Z</time></trkpt>
<trkpt lat="25.067331" lon="101.490607">
<time>2016-04-06T11:24:43Z</time></trkpt>
<trkpt lat="25.068268" lon="101.489654">
<time>2016-04-06T11:24:44Z</time></trkpt>
<trkpt lat="25.068727" lon="101.489193">
<time>2016-04-06T11:24:45Z</time></trkpt>
<trkpt lat="25.069614" lon="101.488169">
<time>2016-04-06T11:24:46Z</time></trkpt>
<trkpt lat="25.069932" lon="101.487788">
<time>2016-04-06T11:24:47Z</time></trkpt>
<trkpt lat="25.069992" lon="101.487708">
<time>2016-04-06T11:24:48Z</time></trkpt>
<trkpt lat="25.070321" lon="101.487287">
<time>2016-04-06T11:24:49Z</time></trkpt>
<trkpt lat="25.07048" lon="101.487076">
<time>2016-04-06T11:24:50Z</time></trkpt>
<trkpt lat="25.070889" lon="101.486534">
<time>2016-04-06T11:24:51Z</time></trkpt>
<trkpt lat="25.072253" lon="101.484709">
<time>2016-04-06T11:24:52Z</time></trkpt>
<trkpt lat="25.072721" lon="101.484087">
<time>2016-04-06T11:24:53Z</time></trkpt>
<trkpt lat="25.073677" lon="101.482793">
<time>2016-04-06T11:24:54Z</time></trkpt>
<trkpt lat="25.073986" lon="101.482301">
<time>2016-04-06T11:24:55Z</time></trkpt>
<trkpt lat="25.074155" lon="101.48201">
<time>2016-04-06T11:24:56Z</time></trkpt>
<trkpt lat="25.074324" lon="101.481729">
<time>2016-04-06T11:24:57Z</time></trkpt>
<trkpt lat="25.074394" lon="101.481599">
<time>2016-04-06T11:24:58Z</time></trkpt>
<trkpt lat="25.074483" lon="101.481428">
<time>2016-04-06T11:24:59Z</time></trkpt>
<trkpt lat="25.074553" lon="101.481318">
<time>2016-04-06T11:25:00Z</time></trkpt>
<trkpt lat="25.07512" lon="101.480295">
<time>2016-04-06T11:25:01Z</time></trkpt>
<trkpt lat="25.075668" lon="101.479442">
<time>2016-04-06T11:25:02Z</time></trkpt>
<trkpt lat="25.075886" lon="101.479071">
<time>2016-04-06T11:25:03Z</time></trkpt>
<trkpt lat="25.076285" lon="101.478399">
<time>2016-04-06T11:25:04Z</time></trkpt>
<trkpt lat="25.076414" lon="101.478169">
<time>2016-04-06T11:25:05Z</time></trkpt>
<trkpt lat="25.076872" lon="101.477386">
<time>2016-04-06T11:25:06Z</time></trkpt>
<trkpt lat="25.077559" lon="101.476423">
<time>2016-04-06T11:25:07Z</time></trkpt>
<trkpt lat="25.078774" lon="101.474899">
<time>2016-04-06T11:25:08Z</time></trkpt>
<trkpt lat="25.079223" lon="101.474287">
<time>2016-04-06T11:25:09Z</time></trkpt>
<trkpt lat="25.079272" lon="101.474197">
<time>2016-04-06T11:25:10Z</time></trkpt>
<trkpt lat="25.079282" lon="101.474167">
<time>2016-04-06T11:25:11Z</time></trkpt>
<trkpt lat="25.07974" lon="101.473314">
<time>2016-04-06T11:25:12Z</time></trkpt>
<trkpt lat="25.080078" lon="101.472602">
<time>2016-04-06T11:25:13Z</time></trkpt>
<trkpt lat="25.080098" lon="101.472542">
<time>2016-04-06T11:25:14Z</time></trkpt>
<trkpt lat="25.080516" lon="101.47174">
<time>2016-04-06T11:25:15Z</time></trkpt>
<trkpt lat="25.080983" lon="101.470817">
<time>2016-04-06T11:25:16Z</time></trkpt>
<trkpt lat="25.081023" lon="101.470727">
<time>2016-04-06T11:25:17Z</time></trkpt>
<trkpt lat="25.081122" lon="101.470496">
<time>2016-04-06T11:25:18Z</time></trkpt>
<trkpt lat="25.081361" lon="101.470015">
<time>2016-04-06T11:25:19Z</time></trkpt>
<trkpt lat="25.08153" lon="101.469694">
<time>2016-04-06T11:25:20Z</time></trkpt>
<trkpt lat="25.081699" lon="101.469403">
<time>2016-04-06T11:25:21Z</time></trkpt>
<trkpt lat="25.081749" lon="101.469323">
<time>2016-04-06T11:25:22Z</time></trkpt>
<trkpt lat="25.081769" lon="101.469283">
<time>2016-04-06T11:25:23Z</time></trkpt>
<trkpt lat="25.081809" lon="101.469182">
<time>2016-04-06T11:25:24Z</time></trkpt>
<trkpt lat="25.082226" lon="101.46834">
<time>2016-04-06T11:25:25Z</time></trkpt>
<trkpt lat="25.082644" lon="101.467528">
<time>2016-04-06T11:25:26Z</time></trkpt>
<trkpt lat="25.082972" lon="101.466896">
<time>2016-04-06T11:25:27Z</time></trkpt>
<trkpt lat="25.083231" lon="101.466375">
<time>2016-04-06T11:25:28Z</time></trkpt>
<trkpt lat="25.08336" lon="101.466094">
<time>2016-04-06T11:25:29Z</time></trkpt>
<trkpt lat="25.083748" lon="101.465292">
<time>2016-04-06T11:25:30Z</time></trkpt>
<trkpt lat="25.084295" lon="101.464189">
<time>2016-04-06T11:25:31Z</time></trkpt>
<trkpt lat="25.084614" lon="101.463547">
<time>2016-04-06T11:25:32Z</time></trkpt>
<trkpt lat="25.084823" lon="101.463116">
<time>2016-04-06T11:25:33Z</time></trkpt>
<trkpt lat="25.085071" lon="101.462615">
<time>2016-04-06T11:25:34Z</time></trkpt>
<trkpt lat="25.08521" lon="101.462264">
<time>2016-04-06T11:25:35Z</time></trkpt>
<trkpt lat="25.08531" lon="101.461953">
<time>2016-04-06T11:25:36Z</time></trkpt>
<trkpt lat="25.085429" lon="101.461542">
<time>2016-04-06T11:25:37Z</time></trkpt>
<trkpt lat="25.085637" lon="101.46083">
<time>2016-04-06T11:25:38Z</time></trkpt>
<trkpt lat="25.085786" lon="101.460359">
<time>2016-04-06T11:25:39Z</time></trkpt>
<trkpt lat="25.085825" lon="101.460188">
<time>2016-04-06T11:25:40Z</time></trkpt>
<trkpt lat="25.085865" lon="101.460028">
<time>2016-04-06T11:25:41Z</time></trkpt>
<trkpt lat="25.085884" lon="101.459878">
<time>2016-04-06T11:25:42Z</time></trkpt>
<trkpt lat="25.085904" lon="101.459727">
<time>2016-04-06T11:25:43Z</time></trkpt>
<trkpt lat="25.085924" lon="101.459637">
<time>2016-04-06T11:25:44Z</time></trkpt>
<trkpt lat="25.085934" lon="101.459487">
<time>2016-04-06T11:25:45Z</time></trkpt>
<trkpt lat="25.085943" lon="101.459296">
<time>2016-04-06T11:25:46Z</time></trkpt>
<trkpt lat="25.085943" lon="101.459106">
<time>2016-04-06T11:25:47Z</time></trkpt>
<trkpt lat="25.085932" lon="101.458785">
<time>2016-04-06T11:25:48Z</time></trkpt>
<trkpt lat="25.085931" lon="101.458514">
<time>2016-04-06T11:25:49Z</time></trkpt>
<trkpt lat="25.085931" lon="101.458454">
<time>2016-04-06T11:25:50Z</time></trkpt>
<trkpt lat="25.085931" lon="101.458414">
<time>2016-04-06T11:25:51Z</time></trkpt>
<trkpt lat="25.085931" lon="101.458374">
<time>2016-04-06T11:25:52Z</time></trkpt>
<trkpt lat="25.085941" lon="101.458334">
<time>2016-04-06T11:25:53Z</time></trkpt>
<trkpt lat="25.085951" lon="101.458294">
<time>2016-04-06T11:25:54Z</time></trkpt>
<trkpt lat="25.085951" lon="101.458274">
<time>2016-04-06T11:25:55Z</time></trkpt>
<trkpt lat="25.085961" lon="101.458243">
<time>2016-04-06T11:25:56Z</time></trkpt>
<trkpt lat="25.085971" lon="101.458213">
<time>2016-04-06T11:25:57Z</time></trkpt>
<trkpt lat="25.08598" lon="101.458193">
<time>2016-04-06T11:25:58Z</time></trkpt>
<trkpt lat="25.08599" lon="101.458173">
<time>2016-04-06T11:25:59Z</time></trkpt>
<trkpt lat="25.08601" lon="101.458153">
<time>2016-04-06T11:26:00Z</time></trkpt>
<trkpt lat="25.08602" lon="101.458143">
<time>2016-04-06T11:26:01Z</time></trkpt>
<trkpt lat="25.08604" lon="101.458123">
<time>2016-04-06T11:26:02Z</time></trkpt>
<trkpt lat="25.08606" lon="101.458113">
<time>2016-04-06T11:26:03Z</time></trkpt>
<trkpt lat="25.08608" lon="101.458093">
<time>2016-04-06T11:26:04Z</time></trkpt>
<trkpt lat="25.08613" lon="101.458063">
<time>2016-04-06T11:26:05Z</time></trkpt>
<trkpt lat="25.08621" lon="101.458023">
<time>2016-04-06T11:26:06Z</time></trkpt>
<trkpt lat="25.08634" lon="101.457973">
<time>2016-04-06T11:26:07Z</time></trkpt>
<trkpt lat="25.08648" lon="101.457933">
<time>2016-04-06T11:26:08Z</time></trkpt>
<trkpt lat="25.08661" lon="101.457903">
<time>2016-04-06T11:26:09Z</time></trkpt>
<trkpt lat="25.08673" lon="101.457893">
<time>2016-04-06T11:26:10Z</time></trkpt>
<trkpt lat="25.08686" lon="101.457883">
<time>2016-04-06T11:26:11Z</time></trkpt>
<trkpt lat="25.087" lon="101.457883">
<time>2016-04-06T11:26:12Z</time></trkpt>
<trkpt lat="25.08712" lon="101.457893">
<time>2016-04-06T11:26:13Z</time></trkpt>
<trkpt lat="25.08725" lon="101.457873">
<time>2016-04-06T11:26:14Z</time></trkpt>
<trkpt lat="25.08734" lon="101.457852">
<time>2016-04-06T11:26:15Z</time></trkpt>
<trkpt lat="25.087439" lon="101.457812">
<time>2016-04-06T11:26:16Z</time></trkpt>
<trkpt lat="25.087519" lon="101.457752">
<time>2016-04-06T11:26:17Z</time></trkpt>
<trkpt lat="25.087609" lon="101.457662">
<time>2016-04-06T11:26:18Z</time></trkpt>
<trkpt lat="25.087669" lon="101.457562">
<time>2016-04-06T11:26:19Z</time></trkpt>
<trkpt lat="25.087719" lon="101.457472">
<time>2016-04-06T11:26:20Z</time></trkpt>
<trkpt lat="25.087758" lon="101.457371">
<time>2016-04-06T11:26:21Z</time></trkpt>
<trkpt lat="25.087788" lon="101.457271">
<time>2016-04-06T11:26:22Z</time></trkpt>
<trkpt lat="25.087808" lon="101.457221">
<time>2016-04-06T11:26:23Z</time></trkpt>
<trkpt lat="25.087858" lon="101.457091">
<time>2016-04-06T11:26:24Z</time></trkpt>
<trkpt lat="25.087927" lon="101.45689">
<time>2016-04-06T11:26:25Z</time></trkpt>
<trkpt lat="25.087977" lon="101.45677">
<time>2016-04-06T11:26:26Z</time></trkpt>
<trkpt lat="25.088047" lon="101.456619">
<time>2016-04-06T11:26:27Z</time></trkpt>
<trkpt lat="25.088096" lon="101.456509">
<time>2016-04-06T11:26:28Z</time></trkpt>
<trkpt lat="25.088186" lon="101.456369">
<time>2016-04-06T11:26:29Z</time></trkpt>
<trkpt lat="25.088286" lon="101.456219">
<time>2016-04-06T11:26:30Z</time></trkpt>
<trkpt lat="25.088465" lon="101.456038">
<time>2016-04-06T11:26:31Z</time></trkpt>
<trkpt lat="25.088834" lon="101.455667">
<time>2016-04-06T11:26:32Z</time></trkpt>
<trkpt lat="25.088854" lon="101.455657">
<time>2016-04-06T11:26:33Z</time></trkpt>
<trkpt lat="25.089373" lon="101.455136">
<time>2016-04-06T11:26:34Z</time></trkpt>
<trkpt lat="25.089852" lon="101.454645">
<time>2016-04-06T11:26:35Z</time></trkpt>
<trkpt lat="25.090141" lon="101.454344">
<time>2016-04-06T11:26:36Z</time></trkpt>
<trkpt lat="25.090351" lon="101.454124">
<time>2016-04-06T11:26:37Z</time></trkpt>
<trkpt lat="25.09046" lon="101.454013">
<time>2016-04-06T11:26:38Z</time></trkpt>
<trkpt lat="25.090919" lon="101.453542">
<time>2016-04-06T11:26:39Z</time></trkpt>
<trkpt lat="25.091099" lon="101.453362">
<time>2016-04-06T11:26:40Z</time></trkpt>
<trkpt lat="25.091249" lon="101.453201">
<time>2016-04-06T11:26:41Z</time></trkpt>
<trkpt lat="25.091568" lon="101.452851">
<time>2016-04-06T11:26:42Z</time></trkpt>
<trkpt lat="25.091618" lon="101.4528">
<time>2016-04-06T11:26:43Z</time></trkpt>
<trkpt lat="25.091957" lon="101.45238">
<time>2016-04-06T11:26:44Z</time></trkpt>
<trkpt lat="25.092256" lon="101.451969">
<time>2016-04-06T11:26:45Z</time></trkpt>
<trkpt lat="25.092904" lon="101.451207">
<time>2016-04-06T11:26:46Z</time></trkpt>
<trkpt lat="25.093173" lon="101.450906">
<time>2016-04-06T11:26:47Z</time></trkpt>
<trkpt lat="25.093233" lon="101.450836">
<time>2016-04-06T11:26:48Z</time></trkpt>
<trkpt lat="25.093702" lon="101.450295">
<time>2016-04-06T11:26:49Z</time></trkpt>
<trkpt lat="25.094231" lon="101.449643">
<time>2016-04-06T11:26:50Z</time></trkpt>
<trkpt lat="25.094271" lon="101.449613">
<time>2016-04-06T11:26:51Z</time></trkpt>
<trkpt lat="25.09444" lon="101.449413">
<time>2016-04-06T11:26:52Z</time></trkpt>
<trkpt lat="25.09452" lon="101.449323">
<time>2016-04-06T11:26:53Z</time></trkpt>
<trkpt lat="25.094799" lon="101.449012">
<time>2016-04-06T11:26:54Z</time></trkpt>
<trkpt lat="25.094909" lon="101.448872">
<time>2016-04-06T11:26:55Z</time></trkpt>
<trkpt lat="25.095009" lon="101.448722">
<time>2016-04-06T11:26:56Z</time></trkpt>
<trkpt lat="25.095048" lon="101.448611">
<time>2016-04-06T11:26:57Z</time></trkpt>
<trkpt lat="25.095068" lon="101.448531">
<time>2016-04-06T11:26:58Z</time></trkpt>
<trkpt lat="25.095078" lon="101.448401">
<time>2016-04-06T11:26:59Z</time></trkpt>
<trkpt lat="25.095068" lon="101.448271">
<time>2016-04-06T11:27:00Z</time></trkpt>
<trkpt lat="25.095017" lon="101.44802">
<time>2016-04-06T11:27:01Z</time></trkpt>
<trkpt lat="25.094957" lon="101.44776">
<time>2016-04-06T11:27:02Z</time></trkpt>
<trkpt lat="25.094906" lon="101.447519">
<time>2016-04-06T11:27:03Z</time></trkpt>
<trkpt lat="25.094886" lon="101.447419">
<time>2016-04-06T11:27:04Z</time></trkpt>
<trkpt lat="25.094866" lon="101.447329">
<time>2016-04-06T11:27:05Z</time></trkpt>
<trkpt lat="25.094835" lon="101.447128">
<time>2016-04-06T11:27:06Z</time></trkpt>
<trkpt lat="25.094815" lon="101.446978">
<time>2016-04-06T11:27:07Z</time></trkpt>
<trkpt lat="25.094805" lon="101.446858">
<time>2016-04-06T11:27:08Z</time></trkpt>
<trkpt lat="25.094794" lon="101.446667">
<time>2016-04-06T11:27:09Z</time></trkpt>
<trkpt lat="25.094794" lon="101.446407">
<time>2016-04-06T11:27:10Z</time></trkpt>
<trkpt lat="25.094804" lon="101.446166">
<time>2016-04-06T11:27:11Z</time></trkpt>
<trkpt lat="25.094813" lon="101.445766">
<time>2016-04-06T11:27:12Z</time></trkpt>
<trkpt lat="25.094812" lon="101.445475">
<time>2016-04-06T11:27:13Z</time></trkpt>
<trkpt lat="25.094802" lon="101.445255">
<time>2016-04-06T11:27:14Z</time></trkpt>
<trkpt lat="25.094761" lon="101.445034">
<time>2016-04-06T11:27:15Z</time></trkpt>
<trkpt lat="25.094691" lon="101.444814">
<time>2016-04-06T11:27:16Z</time></trkpt>
<trkpt lat="25.094621" lon="101.444673">
<time>2016-04-06T11:27:17Z</time></trkpt>
<trkpt lat="25.094601" lon="101.444633">
<time>2016-04-06T11:27:18Z</time></trkpt>
<trkpt lat="25.09452" lon="101.444493">
<time>2016-04-06T11:27:19Z</time></trkpt>
<trkpt lat="25.09446" lon="101.444363">
<time>2016-04-06T11:27:20Z</time></trkpt>
<trkpt lat="25.09441" lon="101.444243">
<time>2016-04-06T11:27:21Z</time></trkpt>
<trkpt lat="25.09438" lon="101.444162">
<time>2016-04-06T11:27:22Z</time></trkpt>
<trkpt lat="25.09437" lon="101.444102">
<time>2016-04-06T11:27:23Z</time></trkpt>
<trkpt lat="25.094369" lon="101.444032">
<time>2016-04-06T11:27:24Z</time></trkpt>
<trkpt lat="25.094379" lon="101.443962">
<time>2016-04-06T11:27:25Z</time></trkpt>
<trkpt lat="25.094399" lon="101.443872">
<time>2016-04-06T11:27:26Z</time></trkpt>
<trkpt lat="25.094429" lon="101.443782">
<time>2016-04-06T11:27:27Z</time></trkpt>
<trkpt lat="25.094528" lon="101.443531">
<time>2016-04-06T11:27:28Z</time></trkpt>
<trkpt lat="25.094638" lon="101.443221">
<time>2016-04-06T11:27:29Z</time></trkpt>
<trkpt lat="25.094658" lon="101.443161">
<time>2016-04-06T11:27:30Z</time></trkpt>
<trkpt lat="25.094727" lon="101.44293">
<time>2016-04-06T11:27:31Z</time></trkpt>
<trkpt lat="25.094797" lon="101.44268">
<time>2016-04-06T11:27:32Z</time></trkpt>
<trkpt lat="25.094936" lon="101.442119">
<time>2016-04-06T11:27:33Z</time></trkpt>
<trkpt lat="25.095035" lon="101.441728">
<time>2016-04-06T11:27:34Z</time></trkpt>
<trkpt lat="25.095075" lon="101.441578">
<time>2016-04-06T11:27:35Z</time></trkpt>
<trkpt lat="25.095164" lon="101.441287">
<time>2016-04-06T11:27:36Z</time></trkpt>
<trkpt lat="25.095254" lon="101.441047">
<time>2016-04-06T11:27:37Z</time></trkpt>
<trkpt lat="25.095364" lon="101.440836">
<time>2016-04-06T11:27:38Z</time></trkpt>
<trkpt lat="25.095443" lon="101.440666">
<time>2016-04-06T11:27:39Z</time></trkpt>
<trkpt lat="25.095583" lon="101.440406">
<time>2016-04-06T11:27:40Z</time></trkpt>
<trkpt lat="25.095682" lon="101.440175">
<time>2016-04-06T11:27:41Z</time></trkpt>
<trkpt lat="25.095772" lon="101.439945">
<time>2016-04-06T11:27:42Z</time></trkpt>
<trkpt lat="25.095891" lon="101.439554">
<time>2016-04-06T11:27:43Z</time></trkpt>
<trkpt lat="25.095981" lon="101.439264">
<time>2016-04-06T11:27:44Z</time></trkpt>
<trkpt lat="25.09607" lon="101.438973">
<time>2016-04-06T11:27:45Z</time></trkpt>
<trkpt lat="25.09616" lon="101.438693">
<time>2016-04-06T11:27:46Z</time></trkpt>
<trkpt lat="25.096249" lon="101.438422">
<time>2016-04-06T11:27:47Z</time></trkpt>
<trkpt lat="25.096309" lon="101.438242">
<time>2016-04-06T11:27:48Z</time></trkpt>
<trkpt lat="25.096379" lon="101.438072">
<time>2016-04-06T11:27:49Z</time></trkpt>
<trkpt lat="25.096448" lon="101.437891">
<time>2016-04-06T11:27:50Z</time></trkpt>
<trkpt lat="25.096528" lon="101.437741">
<time>2016-04-06T11:27:51Z</time></trkpt>
<trkpt lat="25.096628" lon="101.437591">
<time>2016-04-06T11:27:52Z</time></trkpt>
<trkpt lat="25.096768" lon="101.43737">
<time>2016-04-06T11:27:53Z</time></trkpt>
<trkpt lat="25.096927" lon="101.43714">
<time>2016-04-06T11:27:54Z</time></trkpt>
<trkpt lat="25.097197" lon="101.436779">
<time>2016-04-06T11:27:55Z</time></trkpt>
<trkpt lat="25.097366" lon="101.436549">
<time>2016-04-06T11:27:56Z</time></trkpt>
<trkpt lat="25.097486" lon="101.436379">
<time>2016-04-06T11:27:57Z</time></trkpt>
<trkpt lat="25.097636" lon="101.436179">
<time>2016-04-06T11:27:58Z</time></trkpt>
<trkpt lat="25.097785" lon="101.435968">
<time>2016-04-06T11:27:59Z</time></trkpt>
<trkpt lat="25.097935" lon="101.435778">
<time>2016-04-06T11:28:00Z</time></trkpt>
<trkpt lat="25.098125" lon="101.435538">
<time>2016-04-06T11:28:01Z</time></trkpt>
<trkpt lat="25.098164" lon="101.435477">
<time>2016-04-06T11:28:02Z</time></trkpt>
<trkpt lat="25.098244" lon="101.435377">
<time>2016-04-06T11:28:03Z</time></trkpt>
<trkpt lat="25.098554" lon="101.434937">
<time>2016-04-06T11:28:04Z</time></trkpt>
<trkpt lat="25.098663" lon="101.434766">
<time>2016-04-06T11:28:05Z</time></trkpt>
<trkpt lat="25.098723" lon="101.434636">
<time>2016-04-06T11:28:06Z</time></trkpt>
<trkpt lat="25.098763" lon="101.434546">
<time>2016-04-06T11:28:07Z</time></trkpt>
<trkpt lat="25.098773" lon="101.434506">
<time>2016-04-06T11:28:08Z</time></trkpt>
<trkpt lat="25.098823" lon="101.434366">
<time>2016-04-06T11:28:09Z</time></trkpt>
<trkpt lat="25.098852" lon="101.434226">
<time>2016-04-06T11:28:10Z</time></trkpt>
<trkpt lat="25.098892" lon="101.433995">
<time>2016-04-06T11:28:11Z</time></trkpt>
<trkpt lat="25.098902" lon="101.433915">
<time>2016-04-06T11:28:12Z</time></trkpt>
<trkpt lat="25.098932" lon="101.433695">
<time>2016-04-06T11:28:13Z</time></trkpt>
<trkpt lat="25.098961" lon="101.433495">
<time>2016-04-06T11:28:14Z</time></trkpt>
<trkpt lat="25.099011" lon="101.433234">
<time>2016-04-06T11:28:15Z</time></trkpt>
<trkpt lat="25.099051" lon="101.432944">
<time>2016-04-06T11:28:16Z</time></trkpt>
<trkpt lat="25.09909" lon="101.432673">
<time>2016-04-06T11:28:17Z</time></trkpt>
<trkpt lat="25.09913" lon="101.432413">
<time>2016-04-06T11:28:18Z</time></trkpt>
<trkpt lat="25.099179" lon="101.432113">
<time>2016-04-06T11:28:19Z</time></trkpt>
<trkpt lat="25.099229" lon="101.431832">
<time>2016-04-06T11:28:20Z</time></trkpt>
<trkpt lat="25.099279" lon="101.431512">
<time>2016-04-06T11:28:21Z</time></trkpt>
<trkpt lat="25.099318" lon="101.431271">
<time>2016-04-06T11:28:22Z</time></trkpt>
<trkpt lat="25.099358" lon="101.431011">
<time>2016-04-06T11:28:23Z</time></trkpt>
<trkpt lat="25.099388" lon="101.430901">
<time>2016-04-06T11:28:24Z</time></trkpt>
<trkpt lat="25.099408" lon="101.430811">
<time>2016-04-06T11:28:25Z</time></trkpt>
<trkpt lat="25.099447" lon="101.430721">
<time>2016-04-06T11:28:26Z</time></trkpt>
<trkpt lat="25.099517" lon="101.430611">
<time>2016-04-06T11:28:27Z</time></trkpt>
<trkpt lat="25.099607" lon="101.43049">
<time>2016-04-06T11:28:28Z</time></trkpt>
<trkpt lat="25.099787" lon="101.43031">
<time>2016-04-06T11:28:29Z</time></trkpt>
<trkpt lat="25.099997" lon="101.43012">
<time>2016-04-06T11:28:30Z</time></trkpt>
<trkpt lat="25.100386" lon="101.42976">
<time>2016-04-06T11:28:31Z</time></trkpt>
<trkpt lat="25.100516" lon="101.429639">
<time>2016-04-06T11:28:32Z</time></trkpt>
<trkpt lat="25.100816" lon="101.429369">
<time>2016-04-06T11:28:33Z</time></trkpt>
<trkpt lat="25.101185" lon="101.429029">
<time>2016-04-06T11:28:34Z</time></trkpt>
<trkpt lat="25.101555" lon="101.428688">
<time>2016-04-06T11:28:35Z</time></trkpt>
<trkpt lat="25.101854" lon="101.428398">
<time>2016-04-06T11:28:36Z</time></trkpt>
<trkpt lat="25.102064" lon="101.428208">
<time>2016-04-06T11:28:37Z</time></trkpt>
<trkpt lat="25.102304" lon="101.427997">
<time>2016-04-06T11:28:38Z</time></trkpt>
<trkpt lat="25.102603" lon="101.427707">
<time>2016-04-06T11:28:39Z</time></trkpt>
<trkpt lat="25.102733" lon="101.427587">
<time>2016-04-06T11:28:40Z</time></trkpt>
<trkpt lat="25.102873" lon="101.427457">
<time>2016-04-06T11:28:41Z</time></trkpt>
<trkpt lat="25.103043" lon="101.427277">
<time>2016-04-06T11:28:42Z</time></trkpt>
<trkpt lat="25.103203" lon="101.427086">
<time>2016-04-06T11:28:43Z</time></trkpt>
<trkpt lat="25.103382" lon="101.426846">
<time>2016-04-06T11:28:44Z</time></trkpt>
<trkpt lat="25.103512" lon="101.426656">
<time>2016-04-06T11:28:45Z</time></trkpt>
<trkpt lat="25.103582" lon="101.426556">
<time>2016-04-06T11:28:46Z</time></trkpt>
<trkpt lat="25.103702" lon="101.426386">
<time>2016-04-06T11:28:47Z</time></trkpt>
<trkpt lat="25.103762" lon="101.426305">
<time>2016-04-06T11:28:48Z</time></trkpt>
<trkpt lat="25.103841" lon="101.426185">
<time>2016-04-06T11:28:49Z</time></trkpt>
<trkpt lat="25.103911" lon="101.426085">
<time>2016-04-06T11:28:50Z</time></trkpt>
<trkpt lat="25.104011" lon="101.425945">
<time>2016-04-06T11:28:51Z</time></trkpt>
<trkpt lat="25.104101" lon="101.425825">
<time>2016-04-06T11:28:52Z</time></trkpt>
<trkpt lat="25.104181" lon="101.425745">
<time>2016-04-06T11:28:53Z</time></trkpt>
<trkpt lat="25.104271" lon="101.425655">
<time>2016-04-06T11:28:54Z</time></trkpt>
<trkpt lat="25.104351" lon="101.425585">
<time>2016-04-06T11:28:55Z</time></trkpt>
<trkpt lat="25.104481" lon="101.425495">
<time>2016-04-06T11:28:56Z</time></trkpt>
<trkpt lat="25.1046" lon="101.425424">
<time>2016-04-06T11:28:57Z</time></trkpt>
<trkpt lat="25.10471" lon="101.425374">
<time>2016-04-06T11:28:58Z</time></trkpt>
<trkpt lat="25.10485" lon="101.425314">
<time>2016-04-06T11:28:59Z</time></trkpt>
<trkpt lat="25.10499" lon="101.425254">
<time>2016-04-06T11:29:00Z</time></trkpt>
<trkpt lat="25.10519" lon="101.425174">
<time>2016-04-06T11:29:01Z</time></trkpt>
<trkpt lat="25.10537" lon="101.425094">
<time>2016-04-06T11:29:02Z</time></trkpt>
<trkpt lat="25.10561" lon="101.425004">
<time>2016-04-06T11:29:03Z</time></trkpt>
<trkpt lat="25.10579" lon="101.424924">
<time>2016-04-06T11:29:04Z</time></trkpt>
<trkpt lat="25.10597" lon="101.424844">
<time>2016-04-06T11:29:05Z</time></trkpt>
<trkpt lat="25.10623" lon="101.424734">
<time>2016-04-06T11:29:06Z</time></trkpt>
<trkpt lat="25.106419" lon="101.424644">
<time>2016-04-06T11:29:07Z</time></trkpt>
<trkpt lat="25.106559" lon="101.424574">
<time>2016-04-06T11:29:08Z</time></trkpt>
<trkpt lat="25.106769" lon="101.424493">
<time>2016-04-06T11:29:09Z</time></trkpt>
<trkpt lat="25.106959" lon="101.424423">
<time>2016-04-06T11:29:10Z</time></trkpt>
<trkpt lat="25.107189" lon="101.424323">
<time>2016-04-06T11:29:11Z</time></trkpt>
<trkpt lat="25.107309" lon="101.424273">
<time>2016-04-06T11:29:12Z</time></trkpt>
<trkpt lat="25.107449" lon="101.424193">
<time>2016-04-06T11:29:13Z</time></trkpt>
<trkpt lat="25.107579" lon="101.424103">
<time>2016-04-06T11:29:14Z</time></trkpt>
<trkpt lat="25.107759" lon="101.423943">
<time>2016-04-06T11:29:15Z</time></trkpt>
<trkpt lat="25.107908" lon="101.423813">
<time>2016-04-06T11:29:16Z</time></trkpt>
<trkpt lat="25.108038" lon="101.423693">
<time>2016-04-06T11:29:17Z</time></trkpt>
<trkpt lat="25.108188" lon="101.423563">
<time>2016-04-06T11:29:18Z</time></trkpt>
<trkpt lat="25.108368" lon="101.423412">
<time>2016-04-06T11:29:19Z</time></trkpt>
<trkpt lat="25.108488" lon="101.423292">
<time>2016-04-06T11:29:20Z</time></trkpt>
<trkpt lat="25.108588" lon="101.423202">
<time>2016-04-06T11:29:21Z</time></trkpt>
<trkpt lat="25.108728" lon="101.423052">
<time>2016-04-06T11:29:22Z</time></trkpt>
<trkpt lat="25.108807" lon="101.422942">
<time>2016-04-06T11:29:23Z</time></trkpt>
<trkpt lat="25.108917" lon="101.422772">
<time>2016-04-06T11:29:24Z</time></trkpt>
<trkpt lat="25.109007" lon="101.422582">
<time>2016-04-06T11:29:25Z</time></trkpt>
<trkpt lat="25.109107" lon="101.422261">
<time>2016-04-06T11:29:26Z</time></trkpt>
<trkpt lat="25.109256" lon="101.421791">
<time>2016-04-06T11:29:27Z</time></trkpt>
<trkpt lat="25.109376" lon="101.421421">
<time>2016-04-06T11:29:28Z</time></trkpt>
<trkpt lat="25.109456" lon="101.42116">
<time>2016-04-06T11:29:29Z</time></trkpt>
<trkpt lat="25.109575" lon="101.42081">
<time>2016-04-06T11:29:30Z</time></trkpt>
<trkpt lat="25.109715" lon="101.42041">
<time>2016-04-06T11:29:31Z</time></trkpt>
<trkpt lat="25.109875" lon="101.419989">
<time>2016-04-06T11:29:32Z</time></trkpt>
<trkpt lat="25.110004" lon="101.419619">
<time>2016-04-06T11:29:33Z</time></trkpt>
<trkpt lat="25.110064" lon="101.419439">
<time>2016-04-06T11:29:34Z</time></trkpt>
<trkpt lat="25.110114" lon="101.419259">
<time>2016-04-06T11:29:35Z</time></trkpt>
<trkpt lat="25.110134" lon="101.419099">
<time>2016-04-06T11:29:36Z</time></trkpt>
<trkpt lat="25.110134" lon="101.418919">
<time>2016-04-06T11:29:37Z</time></trkpt>
<trkpt lat="25.110114" lon="101.418779">
<time>2016-04-06T11:29:38Z</time></trkpt>
<trkpt lat="25.110073" lon="101.418528">
<time>2016-04-06T11:29:39Z</time></trkpt>
<trkpt lat="25.109923" lon="101.417978">
<time>2016-04-06T11:29:40Z</time></trkpt>
<trkpt lat="25.109893" lon="101.417868">
<time>2016-04-06T11:29:41Z</time></trkpt>
<trkpt lat="25.109833" lon="101.417688">
<time>2016-04-06T11:29:42Z</time></trkpt>
<trkpt lat="25.109752" lon="101.417378">
<time>2016-04-06T11:29:43Z</time></trkpt>
<trkpt lat="25.109712" lon="101.417218">
<time>2016-04-06T11:29:44Z</time></trkpt>
<trkpt lat="25.109682" lon="101.417067">
<time>2016-04-06T11:29:45Z</time></trkpt>
<trkpt lat="25.109672" lon="101.416947">
<time>2016-04-06T11:29:46Z</time></trkpt>
<trkpt lat="25.109682" lon="101.416807">
<time>2016-04-06T11:29:47Z</time></trkpt>
<trkpt lat="25.109732" lon="101.416667">
<time>2016-04-06T11:29:48Z</time></trkpt>
<trkpt lat="25.109802" lon="101.416517">
<time>2016-04-06T11:29:49Z</time></trkpt>
<trkpt lat="25.109922" lon="101.416307">
<time>2016-04-06T11:29:50Z</time></trkpt>
<trkpt lat="25.110181" lon="101.415887">
<time>2016-04-06T11:29:51Z</time></trkpt>
<trkpt lat="25.110371" lon="101.415597">
<time>2016-04-06T11:29:52Z</time></trkpt>
<trkpt lat="25.110511" lon="101.415386">
<time>2016-04-06T11:29:53Z</time></trkpt>
<trkpt lat="25.110641" lon="101.415166">
<time>2016-04-06T11:29:54Z</time></trkpt>
<trkpt lat="25.110761" lon="101.414956">
<time>2016-04-06T11:29:55Z</time></trkpt>
<trkpt lat="25.111" lon="101.414566">
<time>2016-04-06T11:29:56Z</time></trkpt>
<trkpt lat="25.11122" lon="101.414246">
<time>2016-04-06T11:29:57Z</time></trkpt>
<trkpt lat="25.11159" lon="101.413676">
<time>2016-04-06T11:29:58Z</time></trkpt>
<trkpt lat="25.11192" lon="101.413225">
<time>2016-04-06T11:29:59Z</time></trkpt>
<trkpt lat="25.112359" lon="101.412595">
<time>2016-04-06T11:30:00Z</time></trkpt>
<trkpt lat="25.112609" lon="101.412235">
<time>2016-04-06T11:30:01Z</time></trkpt>
<trkpt lat="25.112839" lon="101.411925">
<time>2016-04-06T11:30:02Z</time></trkpt>
<trkpt lat="25.113408" lon="101.411105">
<time>2016-04-06T11:30:03Z</time></trkpt>
<trkpt lat="25.113788" lon="101.410554">
<time>2016-04-06T11:30:04Z</time></trkpt>
<trkpt lat="25.113928" lon="101.410354">
<time>2016-04-06T11:30:05Z</time></trkpt>
<trkpt lat="25.114028" lon="101.410184">
<time>2016-04-06T11:30:06Z</time></trkpt>
<trkpt lat="25.114088" lon="101.410054">
<time>2016-04-06T11:30:07Z</time></trkpt>
<trkpt lat="25.114118" lon="101.409954">
<time>2016-04-06T11:30:08Z</time></trkpt>
<trkpt lat="25.114138" lon="101.409834">
<time>2016-04-06T11:30:09Z</time></trkpt>
<trkpt lat="25.114138" lon="101.409684">
<time>2016-04-06T11:30:10Z</time></trkpt>
<trkpt lat="25.114128" lon="101.409514">
<time>2016-04-06T11:30:11Z</time></trkpt>
<trkpt lat="25.114077" lon="101.409294">
<time>2016-04-06T11:30:12Z</time></trkpt>
<trkpt lat="25.113947" lon="101.408664">
<time>2016-04-06T11:30:13Z</time></trkpt>
<trkpt lat="25.113847" lon="101.408234">
<time>2016-04-06T11:30:14Z</time></trkpt>
<trkpt lat="25.113807" lon="101.408024">
<time>2016-04-06T11:30:15Z</time></trkpt>
<trkpt lat="25.113737" lon="101.407764">
<time>2016-04-06T11:30:16Z</time></trkpt>
<trkpt lat="25.113697" lon="101.407584">
<time>2016-04-06T11:30:17Z</time></trkpt>
<trkpt lat="25.113687" lon="101.407494">
<time>2016-04-06T11:30:18Z</time></trkpt>
<trkpt lat="25.113677" lon="101.407424">
<time>2016-04-06T11:30:19Z</time></trkpt>
<trkpt lat="25.113677" lon="101.407354">
<time>2016-04-06T11:30:20Z</time></trkpt>
<trkpt lat="25.113677" lon="101.407344">
<time>2016-04-06T11:30:21Z</time></trkpt>
<trkpt lat="25.113687" lon="101.407294">
<time>2016-04-06T11:30:22Z</time></trkpt>
<trkpt lat="25.113707" lon="101.407224">
<time>2016-04-06T11:30:23Z</time></trkpt>
<trkpt lat="25.113747" lon="101.407164">
<time>2016-04-06T11:30:24Z</time></trkpt>
<trkpt lat="25.113787" lon="101.407104">
<time>2016-04-06T11:30:25Z</time></trkpt>
<trkpt lat="25.113857" lon="101.407044">
<time>2016-04-06T11:30:26Z</time></trkpt>
<trkpt lat="25.113867" lon="101.407034">
<time>2016-04-06T11:30:27Z</time></trkpt>
<trkpt lat="25.113927" lon="101.406994">
<time>2016-04-06T11:30:28Z</time></trkpt>
<trkpt lat="25.114067" lon="101.406934">
<time>2016-04-06T11:30:29Z</time></trkpt>
<trkpt lat="25.114227" lon="101.406854">
<time>2016-04-06T11:30:30Z</time></trkpt>
<trkpt lat="25.114317" lon="101.406814">
<time>2016-04-06T11:30:31Z</time></trkpt>
<trkpt lat="25.114637" lon="101.406674">
<time>2016-04-06T11:30:32Z</time></trkpt>
<trkpt lat="25.114827" lon="101.406584">
<time>2016-04-06T11:30:33Z</time></trkpt>
<trkpt lat="25.114987" lon="101.406504">
<time>2016-04-06T11:30:34Z</time></trkpt>
<trkpt lat="25.115186" lon="101.406414">
<time>2016-04-06T11:30:35Z</time></trkpt>
<trkpt lat="25.115426" lon="101.406304">
<time>2016-04-06T11:30:36Z</time></trkpt>
<trkpt lat="25.115676" lon="101.406174">
<time>2016-04-06T11:30:37Z</time></trkpt>
<trkpt lat="25.115746" lon="101.406144">
<time>2016-04-06T11:30:38Z</time></trkpt>
<trkpt lat="25.115876" lon="101.406064">
<time>2016-04-06T11:30:39Z</time></trkpt>
<trkpt lat="25.115926" lon="101.406034">
<time>2016-04-06T11:30:40Z</time></trkpt>
<trkpt lat="25.115986" lon="101.405994">
<time>2016-04-06T11:30:41Z</time></trkpt>
<trkpt lat="25.116156" lon="101.405854">
<time>2016-04-06T11:30:42Z</time></trkpt>
<trkpt lat="25.116286" lon="101.405744">
<time>2016-04-06T11:30:43Z</time></trkpt>
<trkpt lat="25.116386" lon="101.405634">
<time>2016-04-06T11:30:44Z</time></trkpt>
<trkpt lat="25.116506" lon="101.405494">
<time>2016-04-06T11:30:45Z</time></trkpt>
<trkpt lat="25.116656" lon="101.405274">
<time>2016-04-06T11:30:46Z</time></trkpt>
<trkpt lat="25.116806" lon="101.405074">
<time>2016-04-06T11:30:47Z</time></trkpt>
<trkpt lat="25.116896" lon="101.404974">
<time>2016-04-06T11:30:48Z</time></trkpt>
<trkpt lat="25.116996" lon="101.404854">
<time>2016-04-06T11:30:49Z</time></trkpt>
<trkpt lat="25.117156" lon="101.404694">
<time>2016-04-06T11:30:50Z</time></trkpt>
<trkpt lat="25.117356" lon="101.404514">
<time>2016-04-06T11:30:51Z</time></trkpt>
<trkpt lat="25.118466" lon="101.403594">
<time>2016-04-06T11:30:52Z</time></trkpt>
<trkpt lat="25.118906" lon="101.403234">
<time>2016-04-06T11:30:53Z</time></trkpt>
<trkpt lat="25.119206" lon="101.402984">
<time>2016-04-06T11:30:54Z</time></trkpt>
<trkpt lat="25.119345" lon="101.402874">
<time>2016-04-06T11:30:55Z</time></trkpt>
<trkpt lat="25.119525" lon="101.402724">
<time>2016-04-06T11:30:56Z</time></trkpt>
<trkpt lat="25.119865" lon="101.402434">
<time>2016-04-06T11:30:57Z</time></trkpt>
<trkpt lat="25.120155" lon="101.402194">
<time>2016-04-06T11:30:58Z</time></trkpt>
<trkpt lat="25.120315" lon="101.402064">
<time>2016-04-06T11:30:59Z</time></trkpt>
<trkpt lat="25.120545" lon="101.401904">
<time>2016-04-06T11:31:00Z</time></trkpt>
<trkpt lat="25.120675" lon="101.401824">
<time>2016-04-06T11:31:01Z</time></trkpt>
<trkpt lat="25.120805" lon="101.401754">
<time>2016-04-06T11:31:02Z</time></trkpt>
<trkpt lat="25.120855" lon="101.401724">
<time>2016-04-06T11:31:03Z</time></trkpt>
<trkpt lat="25.121335" lon="101.401474">
<time>2016-04-06T11:31:04Z</time></trkpt>
<trkpt lat="25.122015" lon="101.401114">
<time>2016-04-06T11:31:05Z</time></trkpt>
<trkpt lat="25.122825" lon="101.400664">
<time>2016-04-06T11:31:06Z</time></trkpt>
<trkpt lat="25.123175" lon="101.400474">
<time>2016-04-06T11:31:07Z</time></trkpt>
<trkpt lat="25.123365" lon="101.400384">
<time>2016-04-06T11:31:08Z</time></trkpt>
<trkpt lat="25.123615" lon="101.400254">
<time>2016-04-06T11:31:09Z</time></trkpt>
<trkpt lat="25.123895" lon="101.400104">
<time>2016-04-06T11:31:10Z</time></trkpt>
<trkpt lat="25.124225" lon="101.399904">
<time>2016-04-06T11:31:11Z</time></trkpt>
<trkpt lat="25.124295" lon="101.399854">
<time>2016-04-06T11:31:12Z</time></trkpt>
<trkpt lat="25.124375" lon="101.399794">
<time>2016-04-06T11:31:13Z</time></trkpt>
<trkpt lat="25.124495" lon="101.399684">
<time>2016-04-06T11:31:14Z</time></trkpt>
<trkpt lat="25.124615" lon="101.399564">
<time>2016-04-06T11:31:15Z</time></trkpt>
<trkpt lat="25.124725" lon="101.399424">
<time>2016-04-06T11:31:16Z</time></trkpt>
<trkpt lat="25.124795" lon="101.399324">
<time>2016-04-06T11:31:17Z</time></trkpt>
<trkpt lat="25.124865" lon="101.399204">
<time>2016-04-06T11:31:18Z</time></trkpt>
<trkpt lat="25.124935" lon="101.399024">
<time>2016-04-06T11:31:19Z</time></trkpt>
<trkpt lat="25.125055" lon="101.398674">
<time>2016-04-06T11:31:20Z</time></trkpt>
<trkpt lat="25.125115" lon="101.398514">
<time>2016-04-06T11:31:21Z</time></trkpt>
<trkpt lat="25.125325" lon="101.397885">
<time>2016-04-06T11:31:22Z</time></trkpt>
<trkpt lat="25.125535" lon="101.397275">
<time>2016-04-06T11:31:23Z</time></trkpt>
<trkpt lat="25.125675" lon="101.396845">
<time>2016-04-06T11:31:24Z</time></trkpt>
<trkpt lat="25.125755" lon="101.396605">
<time>2016-04-06T11:31:25Z</time></trkpt>
<trkpt lat="25.125815" lon="101.396465">
<time>2016-04-06T11:31:26Z</time></trkpt>
<trkpt lat="25.125835" lon="101.396405">
<time>2016-04-06T11:31:27Z</time></trkpt>
<trkpt lat="25.125855" lon="101.396365">
<time>2016-04-06T11:31:28Z</time></trkpt>
<trkpt lat="25.125905" lon="101.396275">
<time>2016-04-06T11:31:29Z</time></trkpt>
<trkpt lat="25.125975" lon="101.396185">
<time>2016-04-06T11:31:30Z</time></trkpt>
<trkpt lat="25.126055" lon="101.396115">
<time>2016-04-06T11:31:31Z</time></trkpt>
<trkpt lat="25.126135" lon="101.396045">
<time>2016-04-06T11:31:32Z</time></trkpt>
<trkpt lat="25.126275" lon="101.395955">
<time>2016-04-06T11:31:33Z</time></trkpt>
<trkpt lat="25.126405" lon="101.395865">
<time>2016-04-06T11:31:34Z</time></trkpt>
<trkpt lat="25.126495" lon="101.395785">
<time>2016-04-06T11:31:35Z</time></trkpt>
<trkpt lat="25.126615" lon="101.395676">
<time>2016-04-06T11:31:36Z</time></trkpt>
<trkpt lat="25.126705" lon="101.395566">
<time>2016-04-06T11:31:37Z</time></trkpt>
<trkpt lat="25.126765" lon="101.395476">
<time>2016-04-06T11:31:38Z</time></trkpt>
<trkpt lat="25.126815" lon="101.395366">
<time>2016-04-06T11:31:39Z</time></trkpt>
<trkpt lat="25.126855" lon="101.395266">
<time>2016-04-06T11:31:40Z</time></trkpt>
<trkpt lat="25.126885" lon="101.395096">
<time>2016-04-06T11:31:41Z</time></trkpt>
<trkpt lat="25.126925" lon="101.394826">
<time>2016-04-06T11:31:42Z</time></trkpt>
<trkpt lat="25.126946" lon="101.394506">
<time>2016-04-06T11:31:43Z</time></trkpt>
<trkpt lat="25.126986" lon="101.394056">
<time>2016-04-06T11:31:44Z</time></trkpt>
<trkpt lat="25.126996" lon="101.393846">
<time>2016-04-06T11:31:45Z</time></trkpt>
<trkpt lat="25.126996" lon="101.393697">
<time>2016-04-06T11:31:46Z</time></trkpt>
<trkpt lat="25.126966" lon="101.393477">
<time>2016-04-06T11:31:47Z</time></trkpt>
<trkpt lat="25.126856" lon="101.392967">
<time>2016-04-06T11:31:48Z</time></trkpt>
<trkpt lat="25.126766" lon="101.392567">
<time>2016-04-06T11:31:49Z</time></trkpt>
<trkpt lat="25.126716" lon="101.392297">
<time>2016-04-06T11:31:50Z</time></trkpt>
<trkpt lat="25.126596" lon="101.391658">
<time>2016-04-06T11:31:51Z</time></trkpt>
<trkpt lat="25.126557" lon="101.391358">
<time>2016-04-06T11:31:52Z</time></trkpt>
<trkpt lat="25.126547" lon="101.391068">
<time>2016-04-06T11:31:53Z</time></trkpt>
<trkpt lat="25.126567" lon="101.390828">
<time>2016-04-06T11:31:54Z</time></trkpt>
<trkpt lat="25.126587" lon="101.390569">
<time>2016-04-06T11:31:55Z</time></trkpt>
<trkpt lat="25.126637" lon="101.390199">
<time>2016-04-06T11:31:56Z</time></trkpt>
<trkpt lat="25.126677" lon="101.390009">
<time>2016-04-06T11:31:57Z</time></trkpt>
<trkpt lat="25.126717" lon="101.389879">
<time>2016-04-06T11:31:58Z</time></trkpt>
<trkpt lat="25.126777" lon="101.389749">
<time>2016-04-06T11:31:59Z</time></trkpt>
<trkpt lat="25.126887" lon="101.389559">
<time>2016-04-06T11:32:00Z</time></trkpt>
<trkpt lat="25.127128" lon="101.3892">
<time>2016-04-06T11:32:01Z</time></trkpt>
<trkpt lat="25.127448" lon="101.38873">
<time>2016-04-06T11:32:02Z</time></trkpt>
<trkpt lat="25.127618" lon="101.38848">
<time>2016-04-06T11:32:03Z</time></trkpt>
<trkpt lat="25.128038" lon="101.387861">
<time>2016-04-06T11:32:04Z</time></trkpt>
<trkpt lat="25.128238" lon="101.387581">
<time>2016-04-06T11:32:05Z</time></trkpt>
<trkpt lat="25.128288" lon="101.387521">
<time>2016-04-06T11:32:06Z</time></trkpt>
<trkpt lat="25.128348" lon="101.387471">
<time>2016-04-06T11:32:07Z</time></trkpt>
<trkpt lat="25.128408" lon="101.387421">
<time>2016-04-06T11:32:08Z</time></trkpt>
<trkpt lat="25.128498" lon="101.387371">
<time>2016-04-06T11:32:09Z</time></trkpt>
<trkpt lat="25.128588" lon="101.387341">
<time>2016-04-06T11:32:10Z</time></trkpt>
<trkpt lat="25.128738" lon="101.387301">
<time>2016-04-06T11:32:11Z</time></trkpt>
<trkpt lat="25.128878" lon="101.387281">
<time>2016-04-06T11:32:12Z</time></trkpt>
<trkpt lat="25.129128" lon="101.387241">
<time>2016-04-06T11:32:13Z</time></trkpt>
<trkpt lat="25.129748" lon="101.387151">
<time>2016-04-06T11:32:14Z</time></trkpt>
<trkpt lat="25.130128" lon="101.387091">
<time>2016-04-06T11:32:15Z</time></trkpt>
<trkpt lat="25.130348" lon="101.387051">
<time>2016-04-06T11:32:16Z</time></trkpt>
<trkpt lat="25.130498" lon="101.387021">
<time>2016-04-06T11:32:17Z</time></trkpt>
<trkpt lat="25.130588" lon="101.386991">
<time>2016-04-06T11:32:18Z</time></trkpt>
<trkpt lat="25.130638" lon="101.386951">
<time>2016-04-06T11:32:19Z</time></trkpt>
<trkpt lat="25.130698" lon="101.386911">
<time>2016-04-06T11:32:20Z</time></trkpt>
<trkpt lat="25.130738" lon="101.386861">
<time>2016-04-06T11:32:21Z</time></trkpt>
<trkpt lat="25.130769" lon="101.386811">
<time>2016-04-06T11:32:22Z</time></trkpt>
<trkpt lat="25.130799" lon="101.386751">
<time>2016-04-06T11:32:23Z</time></trkpt>
<trkpt lat="25.130819" lon="101.386682">
<time>2016-04-06T11:32:24Z</time></trkpt>
<trkpt lat="25.130819" lon="101.386612">
<time>2016-04-06T11:32:25Z</time></trkpt>
<trkpt lat="25.130819" lon="101.386562">
<time>2016-04-06T11:32:26Z</time></trkpt>
<trkpt lat="25.130809" lon="101.386512">
<time>2016-04-06T11:32:27Z</time></trkpt>
<trkpt lat="25.130789" lon="101.386432">
<time>2016-04-06T11:32:28Z</time></trkpt>
<trkpt lat="25.130749" lon="101.386352">
<time>2016-04-06T11:32:29Z</time></trkpt>
<trkpt lat="25.130589" lon="101.386062">
<time>2016-04-06T11:32:30Z</time></trkpt>
<trkpt lat="25.130389" lon="101.385772">
<time>2016-04-06T11:32:31Z</time></trkpt>
<trkpt lat="25.130229" lon="101.385493">
<time>2016-04-06T11:32:32Z</time></trkpt>
<trkpt lat="25.130109" lon="101.385293">
<time>2016-04-06T11:32:33Z</time></trkpt>
<trkpt lat="25.12998" lon="101.385083">
<time>2016-04-06T11:32:34Z</time></trkpt>
<trkpt lat="25.12992" lon="101.385003">
<time>2016-04-06T11:32:35Z</time></trkpt>
<trkpt lat="25.12992" lon="101.385003">
<time>2016-04-06T11:32:36Z</time></trkpt>
<trkpt lat="25.13005" lon="101.384683">
<time>2016-04-06T11:32:37Z</time></trkpt>
<trkpt lat="25.13018" lon="101.384384">
<time>2016-04-06T11:32:38Z</time></trkpt>
<trkpt lat="25.13035" lon="101.384014">
<time>2016-04-06T11:32:39Z</time></trkpt>
<trkpt lat="25.130471" lon="101.383724">
<time>2016-04-06T11:32:40Z</time></trkpt>
<trkpt lat="25.130501" lon="101.383594">
<time>2016-04-06T11:32:41Z</time></trkpt>
<trkpt lat="25.130531" lon="101.383405">
<time>2016-04-06T11:32:42Z</time></trkpt>
<trkpt lat="25.130541" lon="101.383175">
<time>2016-04-06T11:32:43Z</time></trkpt>
<trkpt lat="25.130551" lon="101.382965">
<time>2016-04-06T11:32:44Z</time></trkpt>
<trkpt lat="25.130541" lon="101.382576">
<time>2016-04-06T11:32:45Z</time></trkpt>
<trkpt lat="25.130542" lon="101.382286">
<time>2016-04-06T11:32:46Z</time></trkpt>
<trkpt lat="25.130542" lon="101.382156">
<time>2016-04-06T11:32:47Z</time></trkpt>
<trkpt lat="25.130552" lon="101.382126">
<time>2016-04-06T11:32:48Z</time></trkpt>
<trkpt lat="25.130552" lon="101.382056">
<time>2016-04-06T11:32:49Z</time></trkpt>
<trkpt lat="25.130572" lon="101.381996">
<time>2016-04-06T11:32:50Z</time></trkpt>
<trkpt lat="25.130602" lon="101.381916">
<time>2016-04-06T11:32:51Z</time></trkpt>
<trkpt lat="25.130632" lon="101.381856">
<time>2016-04-06T11:32:52Z</time></trkpt>
<trkpt lat="25.130712" lon="101.381756">
<time>2016-04-06T11:32:53Z</time></trkpt>
<trkpt lat="25.130782" lon="101.381667">
<time>2016-04-06T11:32:54Z</time></trkpt>
<trkpt lat="25.130952" lon="101.381507">
<time>2016-04-06T11:32:55Z</time></trkpt>
<trkpt lat="25.131122" lon="101.381347">
<time>2016-04-06T11:32:56Z</time></trkpt>
<trkpt lat="25.131252" lon="101.381227">
<time>2016-04-06T11:32:57Z</time></trkpt>
<trkpt lat="25.131312" lon="101.381157">
<time>2016-04-06T11:32:58Z</time></trkpt>
<trkpt lat="25.131382" lon="101.381087">
<time>2016-04-06T11:32:59Z</time></trkpt>
<trkpt lat="25.131422" lon="101.381027">
<time>2016-04-06T11:33:00Z</time></trkpt>
<trkpt lat="25.131452" lon="101.380987">
<time>2016-04-06T11:33:01Z</time></trkpt>
<trkpt lat="25.131523" lon="101.380887">
<time>2016-04-06T11:33:02Z</time></trkpt>
<trkpt lat="25.131613" lon="101.380768">
<time>2016-04-06T11:33:03Z</time></trkpt>
<trkpt lat="25.131823" lon="101.380458">
<time>2016-04-06T11:33:04Z</time></trkpt>
<trkpt lat="25.131993" lon="101.380178">
<time>2016-04-06T11:33:05Z</time></trkpt>
<trkpt lat="25.132093" lon="101.380038">
<time>2016-04-06T11:33:06Z</time></trkpt>
<trkpt lat="25.132213" lon="101.379879">
<time>2016-04-06T11:33:07Z</time></trkpt>
<trkpt lat="25.132434" lon="101.379569">
<time>2016-04-06T11:33:08Z</time></trkpt>
<trkpt lat="25.132504" lon="101.379489">
<time>2016-04-06T11:33:09Z</time></trkpt>
<trkpt lat="25.132544" lon="101.379449">
<time>2016-04-06T11:33:10Z</time></trkpt>
<trkpt lat="25.132614" lon="101.379389">
<time>2016-04-06T11:33:11Z</time></trkpt>
<trkpt lat="25.132674" lon="101.379349">
<time>2016-04-06T11:33:12Z</time></trkpt>
<trkpt lat="25.132744" lon="101.379309">
<time>2016-04-06T11:33:13Z</time></trkpt>
<trkpt lat="25.132794" lon="101.379289">
<time>2016-04-06T11:33:14Z</time></trkpt>
<trkpt lat="25.133044" lon="101.379229">
<time>2016-04-06T11:33:15Z</time></trkpt>
<trkpt lat="25.133304" lon="101.379189">
<time>2016-04-06T11:33:16Z</time></trkpt>
<trkpt lat="25.133614" lon="101.379119">
<time>2016-04-06T11:33:17Z</time></trkpt>
<trkpt lat="25.133654" lon="101.379109">
<time>2016-04-06T11:33:18Z</time></trkpt>
<trkpt lat="25.134084" lon="101.37901">
<time>2016-04-06T11:33:19Z</time></trkpt>
<trkpt lat="25.134164" lon="101.37899">
<time>2016-04-06T11:33:20Z</time></trkpt>
<trkpt lat="25.134354" lon="101.37895">
<time>2016-04-06T11:33:21Z</time></trkpt>
<trkpt lat="25.134614" lon="101.37891">
<time>2016-04-06T11:33:22Z</time></trkpt>
<trkpt lat="25.134874" lon="101.37886">
<time>2016-04-06T11:33:23Z</time></trkpt>
<trkpt lat="25.135054" lon="101.37881">
<time>2016-04-06T11:33:24Z</time></trkpt>
<trkpt lat="25.135164" lon="101.37878">
<time>2016-04-06T11:33:25Z</time></trkpt>
<trkpt lat="25.135244" lon="101.37876">
<time>2016-04-06T11:33:26Z</time></trkpt>
<trkpt lat="25.135364" lon="101.37871">
<time>2016-04-06T11:33:27Z</time></trkpt>
<trkpt lat="25.135474" lon="101.37866">
<time>2016-04-06T11:33:28Z</time></trkpt>
<trkpt lat="25.135574" lon="101.37859">
<time>2016-04-06T11:33:29Z</time></trkpt>
<trkpt lat="25.135704" lon="101.37848">
<time>2016-04-06T11:33:30Z</time></trkpt>
<trkpt lat="25.135814" lon="101.37839">
<time>2016-04-06T11:33:31Z</time></trkpt>
<trkpt lat="25.136305" lon="101.378021">
<time>2016-04-06T11:33:32Z</time></trkpt>
<trkpt lat="25.136625" lon="101.377741">
<time>2016-04-06T11:33:33Z</time></trkpt>
<trkpt lat="25.136825" lon="101.377511">
<time>2016-04-06T11:33:34Z</time></trkpt>
<trkpt lat="25.137025" lon="101.377262">
<time>2016-04-06T11:33:35Z</time></trkpt>
<trkpt lat="25.137326" lon="101.376792">
<time>2016-04-06T11:33:36Z</time></trkpt>
<trkpt lat="25.137436" lon="101.376563">
<time>2016-04-06T11:33:37Z</time></trkpt>
<trkpt lat="25.137556" lon="101.376253">
<time>2016-04-06T11:33:38Z</time></trkpt>
<trkpt lat="25.137667" lon="101.375933">
<time>2016-04-06T11:33:39Z</time></trkpt>
<trkpt lat="25.137787" lon="101.375614">
<time>2016-04-06T11:33:40Z</time></trkpt>
<trkpt lat="25.137887" lon="101.375354">
<time>2016-04-06T11:33:41Z</time></trkpt>
<trkpt lat="25.137967" lon="101.375105">
<time>2016-04-06T11:33:42Z</time></trkpt>
<trkpt lat="25.137997" lon="101.375015">
<time>2016-04-06T11:33:43Z</time></trkpt>
<trkpt lat="25.138058" lon="101.374875">
<time>2016-04-06T11:33:44Z</time></trkpt>
<trkpt lat="25.138118" lon="101.374735">
<time>2016-04-06T11:33:45Z</time></trkpt>
<trkpt lat="25.138188" lon="101.374635">
<time>2016-04-06T11:33:46Z</time></trkpt>
<trkpt lat="25.138268" lon="101.374575">
<time>2016-04-06T11:33:47Z</time></trkpt>
<trkpt lat="25.138358" lon="101.374555">
<time>2016-04-06T11:33:48Z</time></trkpt>
<trkpt lat="25.138438" lon="101.374555">
<time>2016-04-06T11:33:49Z</time></trkpt>
<trkpt lat="25.138528" lon="101.374585">
<time>2016-04-06T11:33:50Z</time></trkpt>
<trkpt lat="25.138618" lon="101.374645">
<time>2016-04-06T11:33:51Z</time></trkpt>
<trkpt lat="25.138718" lon="101.374755">
<time>2016-04-06T11:33:52Z</time></trkpt>
<trkpt lat="25.138808" lon="101.374855">
<time>2016-04-06T11:33:53Z</time></trkpt>
<trkpt lat="25.138838" lon="101.374905">
<time>2016-04-06T11:33:54Z</time></trkpt>
<trkpt lat="25.138917" lon="101.375015">
<time>2016-04-06T11:33:55Z</time></trkpt>
<trkpt lat="25.138997" lon="101.375184">
<time>2016-04-06T11:33:56Z</time></trkpt>
<trkpt lat="25.139007" lon="101.375234">
<time>2016-04-06T11:33:57Z</time></trkpt>
<trkpt lat="25.139007" lon="101.375274">
<time>2016-04-06T11:33:58Z</time></trkpt>
<trkpt lat="25.139007" lon="101.375314">
<time>2016-04-06T11:33:59Z</time></trkpt>
<trkpt lat="25.138997" lon="101.375364">
<time>2016-04-06T11:34:00Z</time></trkpt>
<trkpt lat="25.138967" lon="101.375444">
<time>2016-04-06T11:34:01Z</time></trkpt>
<trkpt lat="25.138927" lon="101.375514">
<time>2016-04-06T11:34:02Z</time></trkpt>
<trkpt lat="25.138787" lon="101.375724">
<time>2016-04-06T11:34:03Z</time></trkpt>
<trkpt lat="25.138677" lon="101.375933">
<time>2016-04-06T11:34:04Z</time></trkpt>
<trkpt lat="25.138616" lon="101.376133">
<time>2016-04-06T11:34:05Z</time></trkpt>
<trkpt lat="25.138556" lon="101.376423">
<time>2016-04-06T11:34:06Z</time></trkpt>
<trkpt lat="25.138546" lon="101.376583">
<time>2016-04-06T11:34:07Z</time></trkpt>
<trkpt lat="25.138536" lon="101.376662">
<time>2016-04-06T11:34:08Z</time></trkpt>
<trkpt lat="25.138546" lon="101.376742">
<time>2016-04-06T11:34:09Z</time></trkpt>
<trkpt lat="25.138576" lon="101.376822">
<time>2016-04-06T11:34:10Z</time></trkpt>
<trkpt lat="25.138616" lon="101.376892">
<time>2016-04-06T11:34:11Z</time></trkpt>
<trkpt lat="25.138656" lon="101.376952">
<time>2016-04-06T11:34:12Z</time></trkpt>
<trkpt lat="25.138706" lon="101.376992">
<time>2016-04-06T11:34:13Z</time></trkpt>
<trkpt lat="25.138775" lon="101.377042">
<time>2016-04-06T11:34:14Z</time></trkpt>
<trkpt lat="25.138865" lon="101.377082">
<time>2016-04-06T11:34:15Z</time></trkpt>
<trkpt lat="25.139085" lon="101.377112">
<time>2016-04-06T11:34:16Z</time></trkpt>
<trkpt lat="25.139245" lon="101.377102">
<time>2016-04-06T11:34:17Z</time></trkpt>
<trkpt lat="25.139395" lon="101.377062">
<time>2016-04-06T11:34:18Z</time></trkpt>
<trkpt lat="25.139595" lon="101.377012">
<time>2016-04-06T11:34:19Z</time></trkpt>
<trkpt lat="25.140066" lon="101.376872">
<time>2016-04-06T11:34:20Z</time></trkpt>
<trkpt lat="25.140976" lon="101.376542">
<time>2016-04-06T11:34:21Z</time></trkpt>
<trkpt lat="25.141126" lon="101.376493">
<time>2016-04-06T11:34:22Z</time></trkpt>
<trkpt lat="25.141286" lon="101.376443">
<time>2016-04-06T11:34:23Z</time></trkpt>
<trkpt lat="25.141456" lon="101.376393">
<time>2016-04-06T11:34:24Z</time></trkpt>
<trkpt lat="25.141616" lon="101.376343">
<time>2016-04-06T11:34:25Z</time></trkpt>
<trkpt lat="25.141786" lon="101.376293">
<time>2016-04-06T11:34:26Z</time></trkpt>
<trkpt lat="25.141966" lon="101.376253">
<time>2016-04-06T11:34:27Z</time></trkpt>
<trkpt lat="25.142146" lon="101.376213">
<time>2016-04-06T11:34:28Z</time></trkpt>
<trkpt lat="25.142326" lon="101.376163">
<time>2016-04-06T11:34:29Z</time></trkpt>
<trkpt lat="25.142496" lon="101.376113">
<time>2016-04-06T11:34:30Z</time></trkpt>
<trkpt lat="25.142656" lon="101.376043">
<time>2016-04-06T11:34:31Z</time></trkpt>
<trkpt lat="25.142806" lon="101.375973">
<time>2016-04-06T11:34:32Z</time></trkpt>
<trkpt lat="25.142946" lon="101.375883">
<time>2016-04-06T11:34:33Z</time></trkpt>
<trkpt lat="25.143076" lon="101.375803">
<time>2016-04-06T11:34:34Z</time></trkpt>
<trkpt lat="25.143196" lon="101.375724">
<time>2016-04-06T11:34:35Z</time></trkpt>
<trkpt lat="25.143317" lon="101.375634">
<time>2016-04-06T11:34:36Z</time></trkpt>
<trkpt lat="25.143457" lon="101.375534">
<time>2016-04-06T11:34:37Z</time></trkpt>
<trkpt lat="25.143647" lon="101.375354">
<time>2016-04-06T11:34:38Z</time></trkpt>
<trkpt lat="25.143767" lon="101.375214">
<time>2016-04-06T11:34:39Z</time></trkpt>
<trkpt lat="25.143857" lon="101.375114">
<time>2016-04-06T11:34:40Z</time></trkpt>
<trkpt lat="25.143957" lon="101.375024">
<time>2016-04-06T11:34:41Z</time></trkpt>
<trkpt lat="25.143967" lon="101.375014">
<time>2016-04-06T11:34:42Z</time></trkpt>
<trkpt lat="25.144047" lon="101.374985">
<time>2016-04-06T11:34:43Z</time></trkpt>
<trkpt lat="25.144097" lon="101.374965">
<time>2016-04-06T11:34:44Z</time></trkpt>
<trkpt lat="25.144117" lon="101.374955">
<time>2016-04-06T11:34:45Z</time></trkpt>
<trkpt lat="25.144117" lon="101.374955">
<time>2016-04-06T11:34:46Z</time></trkpt>
<trkpt lat="25.143828" lon="101.374355">
<time>2016-04-06T11:34:47Z</time></trkpt>
<trkpt lat="25.143648" lon="101.373886">
<time>2016-04-06T11:34:48Z</time></trkpt>
<trkpt lat="25.143648" lon="101.373886">
<time>2016-04-06T11:34:49Z</time></trkpt>
<trkpt lat="25.143748" lon="101.373836">
<time>2016-04-06T11:34:50Z</time></trkpt>
<trkpt lat="25.143959" lon="101.373656">
<time>2016-04-06T11:34:51Z</time></trkpt>
<trkpt lat="25.143989" lon="101.373626">
<time>2016-04-06T11:34:52Z</time></trkpt>
<trkpt lat="25.143989" lon="101.373596">
<time>2016-04-06T11:34:53Z</time></trkpt>
<trkpt lat="25.143989" lon="101.373567">
<time>2016-04-06T11:34:54Z</time></trkpt>
<trkpt lat="25.143919" lon="101.373417">
<time>2016-04-06T11:34:55Z</time></trkpt>
<trkpt lat="25.143899" lon="101.373317">
<time>2016-04-06T11:34:56Z</time></trkpt>
<trkpt lat="25.143889" lon="101.373257">
<time>2016-04-06T11:34:57Z</time></trkpt>
<trkpt lat="25.143899" lon="101.373017">
<time>2016-04-06T11:34:58Z</time></trkpt>
<trkpt lat="25.143899" lon="101.372828">
<time>2016-04-06T11:34:59Z</time></trkpt>
<trkpt lat="25.143899" lon="101.372798">
<time>2016-04-06T11:35:00Z</time></trkpt>
<trkpt lat="25.14388" lon="101.372648">
<time>2016-04-06T11:35:01Z</time></trkpt>
<trkpt lat="25.14378" lon="101.372458">
<time>2016-04-06T11:35:02Z</time></trkpt>
<trkpt lat="25.14366" lon="101.372238">
<time>2016-04-06T11:35:03Z</time></trkpt>
<trkpt lat="25.14361" lon="101.372099">
<time>2016-04-06T11:35:04Z</time></trkpt>
<trkpt lat="25.14361" lon="101.371889">
<time>2016-04-06T11:35:05Z</time></trkpt>
<trkpt lat="25.143621" lon="101.371739">
<time>2016-04-06T11:35:06Z</time></trkpt>
<trkpt lat="25.143661" lon="101.371569">
<time>2016-04-06T11:35:07Z</time></trkpt>
<trkpt lat="25.143791" lon="101.37126">
<time>2016-04-06T11:35:08Z</time></trkpt>
<trkpt lat="25.143831" lon="101.3712">
<time>2016-04-06T11:35:09Z</time></trkpt>
<trkpt lat="25.143841" lon="101.37118">
<time>2016-04-06T11:35:10Z</time></trkpt>
<trkpt lat="25.143861" lon="101.37114">
<time>2016-04-06T11:35:11Z</time></trkpt>
<trkpt lat="25.143881" lon="101.37109">
<time>2016-04-06T11:35:12Z</time></trkpt>
<trkpt lat="25.143901" lon="101.37102">
<time>2016-04-06T11:35:13Z</time></trkpt>
<trkpt lat="25.143911" lon="101.37099">
<time>2016-04-06T11:35:14Z</time></trkpt>
<trkpt lat="25.143911" lon="101.37099">
<time>2016-04-06T11:35:15Z</time></trkpt>
<trkpt lat="25.144091" lon="101.37116">
<time>2016-04-06T11:35:16Z</time></trkpt>
<trkpt lat="25.144231" lon="101.371669">
<time>2016-04-06T11:35:17Z</time></trkpt>
<trkpt lat="25.1443" lon="101.371969">
<time>2016-04-06T11:35:18Z</time></trkpt>
<trkpt lat="25.14446" lon="101.372228">
<time>2016-04-06T11:35:19Z</time></trkpt>
<trkpt lat="25.14469" lon="101.372608">
<time>2016-04-06T11:35:20Z</time></trkpt>
<trkpt lat="25.14489" lon="101.372638">
<time>2016-04-06T11:35:21Z</time></trkpt>
<trkpt lat="25.14596" lon="101.372059">
<time>2016-04-06T11:35:22Z</time></trkpt>
<trkpt lat="25.14646" lon="101.371779">
<time>2016-04-06T11:35:23Z</time></trkpt>
<trkpt lat="25.14654" lon="101.371739">
<time>2016-04-06T11:35:24Z</time></trkpt>
<trkpt lat="25.146871" lon="101.37146">
<time>2016-04-06T11:35:25Z</time></trkpt>
<trkpt lat="25.146931" lon="101.37141">
<time>2016-04-06T11:35:26Z</time></trkpt>
<trkpt lat="25.147591" lon="101.37101">
<time>2016-04-06T11:35:27Z</time></trkpt>
<trkpt lat="25.148092" lon="101.370601">
<time>2016-04-06T11:35:28Z</time></trkpt>
<trkpt lat="25.148582" lon="101.370341">
<time>2016-04-06T11:35:29Z</time></trkpt>
<trkpt lat="25.148862" lon="101.370611">
<time>2016-04-06T11:35:30Z</time></trkpt>
<trkpt lat="25.149302" lon="101.370681">
<time>2016-04-06T11:35:31Z</time></trkpt>
<trkpt lat="25.149302" lon="101.370681">
<time>2016-04-06T11:35:32Z</time></trkpt>
<trkpt lat="25.149322" lon="101.370511">
<time>2016-04-06T11:35:33Z</time></trkpt>
<trkpt lat="25.149322" lon="101.370361">
<time>2016-04-06T11:35:34Z</time></trkpt>
<trkpt lat="25.149312" lon="101.370191">
<time>2016-04-06T11:35:35Z</time></trkpt>
<trkpt lat="25.149352" lon="101.369912">
<time>2016-04-06T11:35:36Z</time></trkpt>
<trkpt lat="25.149443" lon="101.369522">
<time>2016-04-06T11:35:37Z</time></trkpt>
<trkpt lat="25.149614" lon="101.368754">
<time>2016-04-06T11:35:38Z</time></trkpt>
<trkpt lat="25.149755" lon="101.368035">
<time>2016-04-06T11:35:39Z</time></trkpt>
<trkpt lat="25.149745" lon="101.367725">
<time>2016-04-06T11:35:40Z</time></trkpt>
<trkpt lat="25.149705" lon="101.367496">
<time>2016-04-06T11:35:41Z</time></trkpt>
<trkpt lat="25.149606" lon="101.367236">
<time>2016-04-06T11:35:42Z</time></trkpt>
<trkpt lat="25.149466" lon="101.366917">
<time>2016-04-06T11:35:43Z</time></trkpt>
<trkpt lat="25.149426" lon="101.366797">
<time>2016-04-06T11:35:44Z</time></trkpt>
<trkpt lat="25.149436" lon="101.366737">
<time>2016-04-06T11:35:45Z</time></trkpt>
<trkpt lat="25.149456" lon="101.366677">
<time>2016-04-06T11:35:46Z</time></trkpt>
<trkpt lat="25.149476" lon="101.366627">
<time>2016-04-06T11:35:47Z</time></trkpt>
<trkpt lat="25.149517" lon="101.366567">
<time>2016-04-06T11:35:48Z</time></trkpt>
<trkpt lat="25.150808" lon="101.365549">
<time>2016-04-06T11:35:49Z</time></trkpt>
<trkpt lat="25.151759" lon="101.36479">
<time>2016-04-06T11:35:50Z</time></trkpt>
<trkpt lat="25.15254" lon="101.364191">
<time>2016-04-06T11:35:51Z</time></trkpt>
<trkpt lat="25.15261" lon="101.364122">
<time>2016-04-06T11:35:52Z</time></trkpt>
<trkpt lat="25.15264" lon="101.364022">
<time>2016-04-06T11:35:53Z</time></trkpt>
<trkpt lat="25.15274" lon="101.363872">
<time>2016-04-06T11:35:54Z</time></trkpt>
<trkpt lat="25.15293" lon="101.363592">
<time>2016-04-06T11:35:55Z</time></trkpt>
<trkpt lat="25.153151" lon="101.363223">
<time>2016-04-06T11:35:56Z</time></trkpt>
<trkpt lat="25.153341" lon="101.362904">
<time>2016-04-06T11:35:57Z</time></trkpt>
<trkpt lat="25.153462" lon="101.362714">
<time>2016-04-06T11:35:58Z</time></trkpt>
<trkpt lat="25.153562" lon="101.362594">
<time>2016-04-06T11:35:59Z</time></trkpt>
<trkpt lat="25.153572" lon="101.362584">
<time>2016-04-06T11:36:00Z</time></trkpt>
<trkpt lat="25.153572" lon="101.362584">
<time>2016-04-06T11:36:01Z</time></trkpt>
<trkpt lat="25.153222" lon="101.362245">
<time>2016-04-06T11:36:02Z</time></trkpt>
<trkpt lat="25.153072" lon="101.362095">
<time>2016-04-06T11:36:03Z</time></trkpt>
<trkpt lat="25.152863" lon="101.361826">
<time>2016-04-06T11:36:04Z</time></trkpt>
<trkpt lat="25.152673" lon="101.361726">
<time>2016-04-06T11:36:05Z</time></trkpt>
<trkpt lat="25.152573" lon="101.361626">
<time>2016-04-06T11:36:06Z</time></trkpt>
<trkpt lat="25.152553" lon="101.361566">
<time>2016-04-06T11:36:07Z</time></trkpt>
<trkpt lat="25.152563" lon="101.361416">
<time>2016-04-06T11:36:08Z</time></trkpt>
<trkpt lat="25.152364" lon="101.361057">
<time>2016-04-06T11:36:09Z</time></trkpt>
<trkpt lat="25.151605" lon="101.360209">
<time>2016-04-06T11:36:10Z</time></trkpt>
<trkpt lat="25.151276" lon="101.359989">
<time>2016-04-06T11:36:11Z</time></trkpt>
<trkpt lat="25.150846" lon="101.35964">
<time>2016-04-06T11:36:12Z</time></trkpt>
<trkpt lat="25.150766" lon="101.35951">
<time>2016-04-06T11:36:13Z</time></trkpt>
<trkpt lat="25.150766" lon="101.35951">
<time>2016-04-06T11:36:14Z</time></trkpt>
<trkpt lat="25.150767" lon="101.35938">
<time>2016-04-06T11:36:15Z</time></trkpt>
<trkpt lat="25.150847" lon="101.359261">
<time>2016-04-06T11:36:16Z</time></trkpt>
<trkpt lat="25.150867" lon="101.359131">
<time>2016-04-06T11:36:17Z</time></trkpt>
<trkpt lat="25.150817" lon="101.358901">
<time>2016-04-06T11:36:18Z</time></trkpt>
<trkpt lat="25.150778" lon="101.358372">
<time>2016-04-06T11:36:19Z</time></trkpt>
<trkpt lat="25.150769" lon="101.357823">
<time>2016-04-06T11:36:20Z</time></trkpt>
<trkpt lat="25.15074" lon="101.357344">
<time>2016-04-06T11:36:21Z</time></trkpt>
<trkpt lat="25.15079" lon="101.357125">
<time>2016-04-06T11:36:22Z</time></trkpt>
<trkpt lat="25.15087" lon="101.356875">
<time>2016-04-06T11:36:23Z</time></trkpt>
<trkpt lat="25.150901" lon="101.356606">
<time>2016-04-06T11:36:24Z</time></trkpt>
<trkpt lat="25.151082" lon="101.355987">
<time>2016-04-06T11:36:25Z</time></trkpt>
<trkpt lat="25.151182" lon="101.355907">
<time>2016-04-06T11:36:26Z</time></trkpt>
<trkpt lat="25.151222" lon="101.355907">
<time>2016-04-06T11:36:27Z</time></trkpt>
<trkpt lat="25.151222" lon="101.355907">
<time>2016-04-06T11:36:28Z</time></trkpt>
<trkpt lat="25.151212" lon="101.355897">
<time>2016-04-06T11:36:29Z</time></trkpt>
<trkpt lat="25.151162" lon="101.355867">
<time>2016-04-06T11:36:30Z</time></trkpt>
<trkpt lat="25.151052" lon="101.355728">
<time>2016-04-06T11:36:31Z</time></trkpt>
<trkpt lat="25.150992" lon="101.355578">
<time>2016-04-06T11:36:32Z</time></trkpt>
<trkpt lat="25.150992" lon="101.355568">
<time>2016-04-06T11:36:33Z</time></trkpt>
<trkpt lat="25.151023" lon="101.355239">
<time>2016-04-06T11:36:34Z</time></trkpt>
<trkpt lat="25.151084" lon="101.354799">
<time>2016-04-06T11:36:35Z</time></trkpt>
<trkpt lat="25.151134" lon="101.35445">
<time>2016-04-06T11:36:36Z</time></trkpt>
<trkpt lat="25.151134" lon="101.35429">
<time>2016-04-06T11:36:37Z</time></trkpt>
<trkpt lat="25.151085" lon="101.354101">
<time>2016-04-06T11:36:38Z</time></trkpt>
<trkpt lat="25.151115" lon="101.353961">
<time>2016-04-06T11:36:39Z</time></trkpt>
<trkpt lat="25.151215" lon="101.353712">
<time>2016-04-06T11:36:40Z</time></trkpt>
<trkpt lat="25.151376" lon="101.353303">
<time>2016-04-06T11:36:41Z</time></trkpt>
<trkpt lat="25.151667" lon="101.352654">
<time>2016-04-06T11:36:42Z</time></trkpt>
<trkpt lat="25.152038" lon="101.351856">
<time>2016-04-06T11:36:43Z</time></trkpt>
<trkpt lat="25.152149" lon="101.351606">
<time>2016-04-06T11:36:44Z</time></trkpt>
<trkpt lat="25.152179" lon="101.351337">
<time>2016-04-06T11:36:45Z</time></trkpt>
<trkpt lat="25.152169" lon="101.351237">
<time>2016-04-06T11:36:46Z</time></trkpt>
<trkpt lat="25.15216" lon="101.351107">
<time>2016-04-06T11:36:47Z</time></trkpt>
<trkpt lat="25.15214" lon="101.350997">
<time>2016-04-06T11:36:48Z</time></trkpt>
<trkpt lat="25.15217" lon="101.350898">
<time>2016-04-06T11:36:49Z</time></trkpt>
<trkpt lat="25.152501" lon="101.350139">
<time>2016-04-06T11:36:50Z</time></trkpt>
<trkpt lat="25.152812" lon="101.349411">
<time>2016-04-06T11:36:51Z</time></trkpt>
<trkpt lat="25.152963" lon="101.349052">
<time>2016-04-06T11:36:52Z</time></trkpt>
<trkpt lat="25.153053" lon="101.348822">
<time>2016-04-06T11:36:53Z</time></trkpt>
<trkpt lat="25.153064" lon="101.348712">
<time>2016-04-06T11:36:54Z</time></trkpt>
<trkpt lat="25.153114" lon="101.348443">
<time>2016-04-06T11:36:55Z</time></trkpt>
<trkpt lat="25.153154" lon="101.348343">
<time>2016-04-06T11:36:56Z</time></trkpt>
<trkpt lat="25.153195" lon="101.348034">
<time>2016-04-06T11:36:57Z</time></trkpt>
<trkpt lat="25.153215" lon="101.347934">
<time>2016-04-06T11:36:58Z</time></trkpt>
<trkpt lat="25.153245" lon="101.347884">
<time>2016-04-06T11:36:59Z</time></trkpt>
<trkpt lat="25.153305" lon="101.347854">
<time>2016-04-06T11:37:00Z</time></trkpt>
<trkpt lat="25.153355" lon="101.347824">
<time>2016-04-06T11:37:01Z</time></trkpt>
<trkpt lat="25.153375" lon="101.347774">
<time>2016-04-06T11:37:02Z</time></trkpt>
<trkpt lat="25.153365" lon="101.347665">
<time>2016-04-06T11:37:03Z</time></trkpt>
<trkpt lat="25.153346" lon="101.347395">
<time>2016-04-06T11:37:04Z</time></trkpt>
<trkpt lat="25.153326" lon="101.347265">
<time>2016-04-06T11:37:05Z</time></trkpt>
<trkpt lat="25.153286" lon="101.347146">
<time>2016-04-06T11:37:06Z</time></trkpt>
<trkpt lat="25.153256" lon="101.347036">
<time>2016-04-06T11:37:07Z</time></trkpt>
<trkpt lat="25.153207" lon="101.346896">
<time>2016-04-06T11:37:08Z</time></trkpt>
<trkpt lat="25.153207" lon="101.346747">
<time>2016-04-06T11:37:09Z</time></trkpt>
<trkpt lat="25.153247" lon="101.346507">
<time>2016-04-06T11:37:10Z</time></trkpt>
<trkpt lat="25.153288" lon="101.346367">
<time>2016-04-06T11:37:11Z</time></trkpt>
<trkpt lat="25.153488" lon="101.345978">
<time>2016-04-06T11:37:12Z</time></trkpt>
<trkpt lat="25.153619" lon="101.345799">
<time>2016-04-06T11:37:13Z</time></trkpt>
<trkpt lat="25.153739" lon="101.345669">
<time>2016-04-06T11:37:14Z</time></trkpt>
<trkpt lat="25.153839" lon="101.345599">
<time>2016-04-06T11:37:15Z</time></trkpt>
<trkpt lat="25.153959" lon="101.345469">
<time>2016-04-06T11:37:16Z</time></trkpt>
<trkpt lat="25.154029" lon="101.34534">
<time>2016-04-06T11:37:17Z</time></trkpt>
<trkpt lat="25.15415" lon="101.34514">
<time>2016-04-06T11:37:18Z</time></trkpt>
<trkpt lat="25.15422" lon="101.344971">
<time>2016-04-06T11:37:19Z</time></trkpt>
<trkpt lat="25.15426" lon="101.344771">
<time>2016-04-06T11:37:20Z</time></trkpt>
<trkpt lat="25.154301" lon="101.344571">
<time>2016-04-06T11:37:21Z</time></trkpt>
<trkpt lat="25.154371" lon="101.344372">
<time>2016-04-06T11:37:22Z</time></trkpt>
<trkpt lat="25.154441" lon="101.344262">
<time>2016-04-06T11:37:23Z</time></trkpt>
<trkpt lat="25.154572" lon="101.344113">
<time>2016-04-06T11:37:24Z</time></trkpt>
<trkpt lat="25.154712" lon="101.343953">
<time>2016-04-06T11:37:25Z</time></trkpt>
<trkpt lat="25.154872" lon="101.343843">
<time>2016-04-06T11:37:26Z</time></trkpt>
<trkpt lat="25.154982" lon="101.343743">
<time>2016-04-06T11:37:27Z</time></trkpt>
<trkpt lat="25.155313" lon="101.343254">
<time>2016-04-06T11:37:28Z</time></trkpt>
<trkpt lat="25.155494" lon="101.343005">
<time>2016-04-06T11:37:29Z</time></trkpt>
<trkpt lat="25.155594" lon="101.342895">
<time>2016-04-06T11:37:30Z</time></trkpt>
<trkpt lat="25.155704" lon="101.342815">
<time>2016-04-06T11:37:31Z</time></trkpt>
<trkpt lat="25.155944" lon="101.342586">
<time>2016-04-06T11:37:32Z</time></trkpt>
<trkpt lat="25.156345" lon="101.342217">
<time>2016-04-06T11:37:33Z</time></trkpt>
<trkpt lat="25.156535" lon="101.341987">
<time>2016-04-06T11:37:34Z</time></trkpt>
<trkpt lat="25.156586" lon="101.341838">
<time>2016-04-06T11:37:35Z</time></trkpt>
<trkpt lat="25.156596" lon="101.341558">
<time>2016-04-06T11:37:36Z</time></trkpt>
<trkpt lat="25.156637" lon="101.341279">
<time>2016-04-06T11:37:37Z</time></trkpt>
<trkpt lat="25.156637" lon="101.341279">
<time>2016-04-06T11:37:38Z</time></trkpt>
<trkpt lat="25.156627" lon="101.341189">
<time>2016-04-06T11:37:39Z</time></trkpt>
<trkpt lat="25.156547" lon="101.341059">
<time>2016-04-06T11:37:40Z</time></trkpt>
<trkpt lat="25.156507" lon="101.34102">
<time>2016-04-06T11:37:41Z</time></trkpt>
<trkpt lat="25.156407" lon="101.34094">
<time>2016-04-06T11:37:42Z</time></trkpt>
<trkpt lat="25.156357" lon="101.34091">
<time>2016-04-06T11:37:43Z</time></trkpt>
<trkpt lat="25.156267" lon="101.34089">
<time>2016-04-06T11:37:44Z</time></trkpt>
<trkpt lat="25.156107" lon="101.3409">
<time>2016-04-06T11:37:45Z</time></trkpt>
<trkpt lat="25.155777" lon="101.34086">
<time>2016-04-06T11:37:46Z</time></trkpt>
<trkpt lat="25.155628" lon="101.34076">
<time>2016-04-06T11:37:47Z</time></trkpt>
<trkpt lat="25.155508" lon="101.34064">
<time>2016-04-06T11:37:48Z</time></trkpt>
<trkpt lat="25.155478" lon="101.340471">
<time>2016-04-06T11:37:49Z</time></trkpt>
<trkpt lat="25.155488" lon="101.340291">
<time>2016-04-06T11:37:50Z</time></trkpt>
<trkpt lat="25.155519" lon="101.340132">
<time>2016-04-06T11:37:51Z</time></trkpt>
<trkpt lat="25.15571" lon="101.339643">
<time>2016-04-06T11:37:52Z</time></trkpt>
<trkpt lat="25.15585" lon="101.339334">
<time>2016-04-06T11:37:53Z</time></trkpt>
<trkpt lat="25.15596" lon="101.339214">
<time>2016-04-06T11:37:54Z</time></trkpt>
<trkpt lat="25.156121" lon="101.339144">
<time>2016-04-06T11:37:55Z</time></trkpt>
<trkpt lat="25.15628" lon="101.339174">
<time>2016-04-06T11:37:56Z</time></trkpt>
<trkpt lat="25.15644" lon="101.339234">
<time>2016-04-06T11:37:57Z</time></trkpt>
<trkpt lat="25.15676" lon="101.339284">
<time>2016-04-06T11:37:58Z</time></trkpt>
<trkpt lat="25.15691" lon="101.339343">
<time>2016-04-06T11:37:59Z</time></trkpt>
<trkpt lat="25.15704" lon="101.339443">
<time>2016-04-06T11:38:00Z</time></trkpt>
<trkpt lat="25.157439" lon="101.339733">
<time>2016-04-06T11:38:01Z</time></trkpt>
<trkpt lat="25.157519" lon="101.339762">
<time>2016-04-06T11:38:02Z</time></trkpt>
<trkpt lat="25.157579" lon="101.339752">
<time>2016-04-06T11:38:03Z</time></trkpt>
<trkpt lat="25.157609" lon="101.339742">
<time>2016-04-06T11:38:04Z</time></trkpt>
<trkpt lat="25.15765" lon="101.339663">
<time>2016-04-06T11:38:05Z</time></trkpt>
<trkpt lat="25.15766" lon="101.339593">
<time>2016-04-06T11:38:06Z</time></trkpt>
<trkpt lat="25.15762" lon="101.339463">
<time>2016-04-06T11:38:07Z</time></trkpt>
<trkpt lat="25.15754" lon="101.339343">
<time>2016-04-06T11:38:08Z</time></trkpt>
<trkpt lat="25.15741" lon="101.339154">
<time>2016-04-06T11:38:09Z</time></trkpt>
<trkpt lat="25.157391" lon="101.338974">
<time>2016-04-06T11:38:10Z</time></trkpt>
<trkpt lat="25.157401" lon="101.338924">
<time>2016-04-06T11:38:11Z</time></trkpt>
<trkpt lat="25.157411" lon="101.338875">
<time>2016-04-06T11:38:12Z</time></trkpt>
<trkpt lat="25.157451" lon="101.338745">
<time>2016-04-06T11:38:13Z</time></trkpt>
<trkpt lat="25.157451" lon="101.338745">
<time>2016-04-06T11:38:14Z</time></trkpt>
<trkpt lat="25.157541" lon="101.338705">
<time>2016-04-06T11:38:15Z</time></trkpt>
<trkpt lat="25.157621" lon="101.338665">
<time>2016-04-06T11:38:16Z</time></trkpt>
<trkpt lat="25.157772" lon="101.338575">
<time>2016-04-06T11:38:17Z</time></trkpt>
<trkpt lat="25.158112" lon="101.338336">
<time>2016-04-06T11:38:18Z</time></trkpt>
<trkpt lat="25.158442" lon="101.338076">
<time>2016-04-06T11:38:19Z</time></trkpt>
<trkpt lat="25.158793" lon="101.337847">
<time>2016-04-06T11:38:20Z</time></trkpt>
<trkpt lat="25.159013" lon="101.337737">
<time>2016-04-06T11:38:21Z</time></trkpt>
<trkpt lat="25.159203" lon="101.337657">
<time>2016-04-06T11:38:22Z</time></trkpt>
<trkpt lat="25.159363" lon="101.337617">
<time>2016-04-06T11:38:23Z</time></trkpt>
<trkpt lat="25.159583" lon="101.337587">
<time>2016-04-06T11:38:24Z</time></trkpt>
<trkpt lat="25.159963" lon="101.337558">
<time>2016-04-06T11:38:25Z</time></trkpt>
<trkpt lat="25.160173" lon="101.337558">
<time>2016-04-06T11:38:26Z</time></trkpt>
<trkpt lat="25.160513" lon="101.337568">
<time>2016-04-06T11:38:27Z</time></trkpt>
<trkpt lat="25.160713" lon="101.337597">
<time>2016-04-06T11:38:28Z</time></trkpt>
<trkpt lat="25.160933" lon="101.337637">
<time>2016-04-06T11:38:29Z</time></trkpt>
<trkpt lat="25.161113" lon="101.337697">
<time>2016-04-06T11:38:30Z</time></trkpt>
<trkpt lat="25.161633" lon="101.337877">
<time>2016-04-06T11:38:31Z</time></trkpt>
<trkpt lat="25.162232" lon="101.338166">
<time>2016-04-06T11:38:32Z</time></trkpt>
<trkpt lat="25.162812" lon="101.338435">
<time>2016-04-06T11:38:33Z</time></trkpt>
<trkpt lat="25.163221" lon="101.338605">
<time>2016-04-06T11:38:34Z</time></trkpt>
<trkpt lat="25.163421" lon="101.338675">
<time>2016-04-06T11:38:35Z</time></trkpt>
<trkpt lat="25.163621" lon="101.338715">
<time>2016-04-06T11:38:36Z</time></trkpt>
<trkpt lat="25.163801" lon="101.338745">
<time>2016-04-06T11:38:37Z</time></trkpt>
<trkpt lat="25.163941" lon="101.338745">
<time>2016-04-06T11:38:38Z</time></trkpt>
<trkpt lat="25.164081" lon="101.338745">
<time>2016-04-06T11:38:39Z</time></trkpt>
<trkpt lat="25.164201" lon="101.338735">
<time>2016-04-06T11:38:40Z</time></trkpt>
<trkpt lat="25.164291" lon="101.338715">
<time>2016-04-06T11:38:41Z</time></trkpt>
<trkpt lat="25.164391" lon="101.338685">
<time>2016-04-06T11:38:42Z</time></trkpt>
<trkpt lat="25.164451" lon="101.338655">
<time>2016-04-06T11:38:43Z</time></trkpt>
<trkpt lat="25.164511" lon="101.338615">
<time>2016-04-06T11:38:44Z</time></trkpt>
<trkpt lat="25.164571" lon="101.338565">
<time>2016-04-06T11:38:45Z</time></trkpt>
<trkpt lat="25.164621" lon="101.338485">
<time>2016-04-06T11:38:46Z</time></trkpt>
<trkpt lat="25.164672" lon="101.338375">
<time>2016-04-06T11:38:47Z</time></trkpt>
<trkpt lat="25.164742" lon="101.338216">
<time>2016-04-06T11:38:48Z</time></trkpt>
<trkpt lat="25.164832" lon="101.338006">
<time>2016-04-06T11:38:49Z</time></trkpt>
<trkpt lat="25.165264" lon="101.336999">
<time>2016-04-06T11:38:50Z</time></trkpt>
<trkpt lat="25.165716" lon="101.335752">
<time>2016-04-06T11:38:51Z</time></trkpt>
<trkpt lat="25.166048" lon="101.334904">
<time>2016-04-06T11:38:52Z</time></trkpt>
<trkpt lat="25.166169" lon="101.334594">
<time>2016-04-06T11:38:53Z</time></trkpt>
<trkpt lat="25.166681" lon="101.333527">
<time>2016-04-06T11:38:54Z</time></trkpt>
<trkpt lat="25.167404" lon="101.331751">
<time>2016-04-06T11:38:55Z</time></trkpt>
<trkpt lat="25.167575" lon="101.331352">
<time>2016-04-06T11:38:56Z</time></trkpt>
<trkpt lat="25.167655" lon="101.331183">
<time>2016-04-06T11:38:57Z</time></trkpt>
<trkpt lat="25.167745" lon="101.331043">
<time>2016-04-06T11:38:58Z</time></trkpt>
<trkpt lat="25.167855" lon="101.330893">
<time>2016-04-06T11:38:59Z</time></trkpt>
<trkpt lat="25.167926" lon="101.330823">
<time>2016-04-06T11:39:00Z</time></trkpt>
<trkpt lat="25.168076" lon="101.330654">
<time>2016-04-06T11:39:01Z</time></trkpt>
<trkpt lat="25.168286" lon="101.330424">
<time>2016-04-06T11:39:02Z</time></trkpt>
<trkpt lat="25.168477" lon="101.330225">
<time>2016-04-06T11:39:03Z</time></trkpt>
<trkpt lat="25.168868" lon="101.329776">
<time>2016-04-06T11:39:04Z</time></trkpt>
<trkpt lat="25.169399" lon="101.329147">
<time>2016-04-06T11:39:05Z</time></trkpt>
<trkpt lat="25.16999" lon="101.328469">
<time>2016-04-06T11:39:06Z</time></trkpt>
<trkpt lat="25.170872" lon="101.327452">
<time>2016-04-06T11:39:07Z</time></trkpt>
<trkpt lat="25.171193" lon="101.327043">
<time>2016-04-06T11:39:08Z</time></trkpt>
<trkpt lat="25.171273" lon="101.326913">
<time>2016-04-06T11:39:09Z</time></trkpt>
<trkpt lat="25.171333" lon="101.326833">
<time>2016-04-06T11:39:10Z</time></trkpt>
<trkpt lat="25.171403" lon="101.326703">
<time>2016-04-06T11:39:11Z</time></trkpt>
<trkpt lat="25.171423" lon="101.326673">
<time>2016-04-06T11:39:12Z</time></trkpt>
<trkpt lat="25.171474" lon="101.326584">
<time>2016-04-06T11:39:13Z</time></trkpt>
<trkpt lat="25.171514" lon="101.326494">
<time>2016-04-06T11:39:14Z</time></trkpt>
<trkpt lat="25.171554" lon="101.326414">
<time>2016-04-06T11:39:15Z</time></trkpt>
<trkpt lat="25.171644" lon="101.326195">
<time>2016-04-06T11:39:16Z</time></trkpt>
<trkpt lat="25.171745" lon="101.325935">
<time>2016-04-06T11:39:17Z</time></trkpt>
<trkpt lat="25.171866" lon="101.325546">
<time>2016-04-06T11:39:18Z</time></trkpt>
<trkpt lat="25.171936" lon="101.325327">
<time>2016-04-06T11:39:19Z</time></trkpt>
<trkpt lat="25.171976" lon="101.325237">
<time>2016-04-06T11:39:20Z</time></trkpt>
<trkpt lat="25.172006" lon="101.325147">
<time>2016-04-06T11:39:21Z</time></trkpt>
<trkpt lat="25.172097" lon="101.324938">
<time>2016-04-06T11:39:22Z</time></trkpt>
<trkpt lat="25.172187" lon="101.324748">
<time>2016-04-06T11:39:23Z</time></trkpt>
<trkpt lat="25.172277" lon="101.324569">
<time>2016-04-06T11:39:24Z</time></trkpt>
<trkpt lat="25.172297" lon="101.324519">
<time>2016-04-06T11:39:25Z</time></trkpt>
<trkpt lat="25.17283" lon="101.323322">
<time>2016-04-06T11:39:26Z</time></trkpt>
<trkpt lat="25.173543" lon="101.321765">
<time>2016-04-06T11:39:27Z</time></trkpt>
<trkpt lat="25.173693" lon="101.321456">
<time>2016-04-06T11:39:28Z</time></trkpt>
<trkpt lat="25.174888" lon="101.318753">
<time>2016-04-06T11:39:29Z</time></trkpt>
<trkpt lat="25.175511" lon="101.317316">
<time>2016-04-06T11:39:30Z</time></trkpt>
<trkpt lat="25.175772" lon="101.316737">
<time>2016-04-06T11:39:31Z</time></trkpt>
<trkpt lat="25.176224" lon="101.31584">
<time>2016-04-06T11:39:32Z</time></trkpt>
<trkpt lat="25.176535" lon="101.315301">
<time>2016-04-06T11:39:33Z</time></trkpt>
<trkpt lat="25.176635" lon="101.315131">
<time>2016-04-06T11:39:34Z</time></trkpt>
<trkpt lat="25.176675" lon="101.315071">
<time>2016-04-06T11:39:35Z</time></trkpt>
<trkpt lat="25.176695" lon="101.315041">
<time>2016-04-06T11:39:36Z</time></trkpt>
<trkpt lat="25.176715" lon="101.315011">
<time>2016-04-06T11:39:37Z</time></trkpt>
<trkpt lat="25.176735" lon="101.314982">
<time>2016-04-06T11:39:38Z</time></trkpt>
<trkpt lat="25.176755" lon="101.314972">
<time>2016-04-06T11:39:39Z</time></trkpt>
<trkpt lat="25.176775" lon="101.314952">
<time>2016-04-06T11:39:40Z</time></trkpt>
<trkpt lat="25.176795" lon="101.314932">
<time>2016-04-06T11:39:41Z</time></trkpt>
<trkpt lat="25.176825" lon="101.314922">
<time>2016-04-06T11:39:42Z</time></trkpt>
<trkpt lat="25.176876" lon="101.314892">
<time>2016-04-06T11:39:43Z</time></trkpt>
<trkpt lat="25.176916" lon="101.314872">
<time>2016-04-06T11:39:44Z</time></trkpt>
<trkpt lat="25.176986" lon="101.314842">
<time>2016-04-06T11:39:45Z</time></trkpt>
<trkpt lat="25.177076" lon="101.314812">
<time>2016-04-06T11:39:46Z</time></trkpt>
<trkpt lat="25.177116" lon="101.314802">
<time>2016-04-06T11:39:47Z</time></trkpt>
<trkpt lat="25.177176" lon="101.314782">
<time>2016-04-06T11:39:48Z</time></trkpt>
<trkpt lat="25.178306" lon="101.314443">
<time>2016-04-06T11:39:49Z</time></trkpt>
<trkpt lat="25.179657" lon="101.314024">
<time>2016-04-06T11:39:50Z</time></trkpt>
<trkpt lat="25.179757" lon="101.313984">
<time>2016-04-06T11:39:51Z</time></trkpt>
<trkpt lat="25.179857" lon="101.313944">
<time>2016-04-06T11:39:52Z</time></trkpt>
<trkpt lat="25.179947" lon="101.313884">
<time>2016-04-06T11:39:53Z</time></trkpt>
<trkpt lat="25.180037" lon="101.313804">
<time>2016-04-06T11:39:54Z</time></trkpt>
<trkpt lat="25.180138" lon="101.313714">
<time>2016-04-06T11:39:55Z</time></trkpt>
<trkpt lat="25.180228" lon="101.313595">
<time>2016-04-06T11:39:56Z</time></trkpt>
<trkpt lat="25.180308" lon="101.313465">
<time>2016-04-06T11:39:57Z</time></trkpt>
<trkpt lat="25.180378" lon="101.313345">
<time>2016-04-06T11:39:58Z</time></trkpt>
<trkpt lat="25.180428" lon="101.313236">
<time>2016-04-06T11:39:59Z</time></trkpt>
<trkpt lat="25.180509" lon="101.313046">
<time>2016-04-06T11:40:00Z</time></trkpt>
<trkpt lat="25.180569" lon="101.312886">
<time>2016-04-06T11:40:01Z</time></trkpt>
<trkpt lat="25.180599" lon="101.312767">
<time>2016-04-06T11:40:02Z</time></trkpt>
<trkpt lat="25.18061" lon="101.312647">
<time>2016-04-06T11:40:03Z</time></trkpt>
<trkpt lat="25.18062" lon="101.312577">
<time>2016-04-06T11:40:04Z</time></trkpt>
<trkpt lat="25.18062" lon="101.312497">
<time>2016-04-06T11:40:05Z</time></trkpt>
<trkpt lat="25.18062" lon="101.312437">
<time>2016-04-06T11:40:06Z</time></trkpt>
<trkpt lat="25.18061" lon="101.312388">
<time>2016-04-06T11:40:07Z</time></trkpt>
<trkpt lat="25.1806" lon="101.312328">
<time>2016-04-06T11:40:08Z</time></trkpt>
<trkpt lat="25.18059" lon="101.312278">
<time>2016-04-06T11:40:09Z</time></trkpt>
<trkpt lat="25.18057" lon="101.312218">
<time>2016-04-06T11:40:10Z</time></trkpt>
<trkpt lat="25.18054" lon="101.312148">
<time>2016-04-06T11:40:11Z</time></trkpt>
<trkpt lat="25.180511" lon="101.312078">
<time>2016-04-06T11:40:12Z</time></trkpt>
<trkpt lat="25.180461" lon="101.311999">
<time>2016-04-06T11:40:13Z</time></trkpt>
<trkpt lat="25.180411" lon="101.311919">
<time>2016-04-06T11:40:14Z</time></trkpt>
<trkpt lat="25.180131" lon="101.311589">
<time>2016-04-06T11:40:15Z</time></trkpt>
<trkpt lat="25.180042" lon="101.31147">
<time>2016-04-06T11:40:16Z</time></trkpt>
<trkpt lat="25.179972" lon="101.31138">
<time>2016-04-06T11:40:17Z</time></trkpt>
<trkpt lat="25.179942" lon="101.31131">
<time>2016-04-06T11:40:18Z</time></trkpt>
<trkpt lat="25.179912" lon="101.31124">
<time>2016-04-06T11:40:19Z</time></trkpt>
<trkpt lat="25.179892" lon="101.31119">
<time>2016-04-06T11:40:20Z</time></trkpt>
<trkpt lat="25.179882" lon="101.311151">
<time>2016-04-06T11:40:21Z</time></trkpt>
<trkpt lat="25.179872" lon="101.311091">
<time>2016-04-06T11:40:22Z</time></trkpt>
<trkpt lat="25.179863" lon="101.311031">
<time>2016-04-06T11:40:23Z</time></trkpt>
<trkpt lat="25.179853" lon="101.310971">
<time>2016-04-06T11:40:24Z</time></trkpt>
<trkpt lat="25.179853" lon="101.310911">
<time>2016-04-06T11:40:25Z</time></trkpt>
<trkpt lat="25.179863" lon="101.310851">
<time>2016-04-06T11:40:26Z</time></trkpt>
<trkpt lat="25.179873" lon="101.310791">
<time>2016-04-06T11:40:27Z</time></trkpt>
<trkpt lat="25.179893" lon="101.310732">
<time>2016-04-06T11:40:28Z</time></trkpt>
<trkpt lat="25.179923" lon="101.310652">
<time>2016-04-06T11:40:29Z</time></trkpt>
<trkpt lat="25.179963" lon="101.310572">
<time>2016-04-06T11:40:30Z</time></trkpt>
<trkpt lat="25.180305" lon="101.309923">
<time>2016-04-06T11:40:31Z</time></trkpt>
<trkpt lat="25.180485" lon="101.309584">
<time>2016-04-06T11:40:32Z</time></trkpt>
<trkpt lat="25.180616" lon="101.309315">
<time>2016-04-06T11:40:33Z</time></trkpt>
<trkpt lat="25.180636" lon="101.309265">
<time>2016-04-06T11:40:34Z</time></trkpt>
<trkpt lat="25.180806" lon="101.308906">
<time>2016-04-06T11:40:35Z</time></trkpt>
<trkpt lat="25.181198" lon="101.307828">
<time>2016-04-06T11:40:36Z</time></trkpt>
<trkpt lat="25.181349" lon="101.307439">
<time>2016-04-06T11:40:37Z</time></trkpt>
<trkpt lat="25.181449" lon="101.30717">
<time>2016-04-06T11:40:38Z</time></trkpt>
<trkpt lat="25.18153" lon="101.30686">
<time>2016-04-06T11:40:39Z</time></trkpt>
<trkpt lat="25.1816" lon="101.306601">
<time>2016-04-06T11:40:40Z</time></trkpt>
<trkpt lat="25.181801" lon="101.306002">
<time>2016-04-06T11:40:41Z</time></trkpt>
<trkpt lat="25.182083" lon="101.305334">
<time>2016-04-06T11:40:42Z</time></trkpt>
<trkpt lat="25.183318" lon="101.30242">
<time>2016-04-06T11:40:43Z</time></trkpt>
<trkpt lat="25.183468" lon="101.302071">
<time>2016-04-06T11:40:44Z</time></trkpt>
<trkpt lat="25.184603" lon="101.299397">
<time>2016-04-06T11:40:45Z</time></trkpt>
<trkpt lat="25.185064" lon="101.298279">
<time>2016-04-06T11:40:46Z</time></trkpt>
<trkpt lat="25.185084" lon="101.298239">
<time>2016-04-06T11:40:47Z</time></trkpt>
<trkpt lat="25.185145" lon="101.29807">
<time>2016-04-06T11:40:48Z</time></trkpt>
<trkpt lat="25.185205" lon="101.29788">
<time>2016-04-06T11:40:49Z</time></trkpt>
<trkpt lat="25.185265" lon="101.297621">
<time>2016-04-06T11:40:50Z</time></trkpt>
<trkpt lat="25.185488" lon="101.296114">
<time>2016-04-06T11:40:51Z</time></trkpt>
<trkpt lat="25.185619" lon="101.295306">
<time>2016-04-06T11:40:52Z</time></trkpt>
<trkpt lat="25.185811" lon="101.294048">
<time>2016-04-06T11:40:53Z</time></trkpt>
<trkpt lat="25.186084" lon="101.292242">
<time>2016-04-06T11:40:54Z</time></trkpt>
<trkpt lat="25.186104" lon="101.292092">
<time>2016-04-06T11:40:55Z</time></trkpt>
<trkpt lat="25.186104" lon="101.292092">
<time>2016-04-06T11:40:56Z</time></trkpt>
<trkpt lat="25.186195" lon="101.291453">
<time>2016-04-06T11:40:57Z</time></trkpt>
<trkpt lat="25.186276" lon="101.290934">
<time>2016-04-06T11:40:58Z</time></trkpt>
<trkpt lat="25.186427" lon="101.289986">
<time>2016-04-06T11:40:59Z</time></trkpt>
<trkpt lat="25.186599" lon="101.288778">
<time>2016-04-06T11:41:00Z</time></trkpt>
<trkpt lat="25.186639" lon="101.288589">
<time>2016-04-06T11:41:01Z</time></trkpt>
<trkpt lat="25.186699" lon="101.288379">
<time>2016-04-06T11:41:02Z</time></trkpt>
<trkpt lat="25.186749" lon="101.28818">
<time>2016-04-06T11:41:03Z</time></trkpt>
<trkpt lat="25.18688" lon="101.28793">
<time>2016-04-06T11:41:04Z</time></trkpt>
<trkpt lat="25.187" lon="101.28773">
<time>2016-04-06T11:41:05Z</time></trkpt>
<trkpt lat="25.187531" lon="101.286942">
<time>2016-04-06T11:41:06Z</time></trkpt>
<trkpt lat="25.188443" lon="101.285604">
<time>2016-04-06T11:41:07Z</time></trkpt>
<trkpt lat="25.188673" lon="101.285225">
<time>2016-04-06T11:41:08Z</time></trkpt>
<trkpt lat="25.188834" lon="101.284935">
<time>2016-04-06T11:41:09Z</time></trkpt>
<trkpt lat="25.188964" lon="101.284706">
<time>2016-04-06T11:41:10Z</time></trkpt>
<trkpt lat="25.189094" lon="101.284456">
<time>2016-04-06T11:41:11Z</time></trkpt>
<trkpt lat="25.189435" lon="101.283827">
<time>2016-04-06T11:41:12Z</time></trkpt>
<trkpt lat="25.189806" lon="101.283149">
<time>2016-04-06T11:41:13Z</time></trkpt>
<trkpt lat="25.190898" lon="101.281182">
<time>2016-04-06T11:41:14Z</time></trkpt>
<trkpt lat="25.191048" lon="101.280922">
<time>2016-04-06T11:41:15Z</time></trkpt>
<trkpt lat="25.191149" lon="101.280603">
<time>2016-04-06T11:41:16Z</time></trkpt>
<trkpt lat="25.191129" lon="101.280583">
<time>2016-04-06T11:41:17Z</time></trkpt>
<trkpt lat="25.191119" lon="101.280573">
<time>2016-04-06T11:41:18Z</time></trkpt>
<trkpt lat="25.191109" lon="101.280553">
<time>2016-04-06T11:41:19Z</time></trkpt>
<trkpt lat="25.191099" lon="101.280523">
<time>2016-04-06T11:41:20Z</time></trkpt>
<trkpt lat="25.191079" lon="101.280483">
<time>2016-04-06T11:41:21Z</time></trkpt>
<trkpt lat="25.191079" lon="101.280453">
<time>2016-04-06T11:41:22Z</time></trkpt>
<trkpt lat="25.191079" lon="101.280433">
<time>2016-04-06T11:41:23Z</time></trkpt>
<trkpt lat="25.191079" lon="101.280403">
<time>2016-04-06T11:41:24Z</time></trkpt>
<trkpt lat="25.191079" lon="101.280373">
<time>2016-04-06T11:41:25Z</time></trkpt>
<trkpt lat="25.191089" lon="101.280343">
<time>2016-04-06T11:41:26Z</time></trkpt>
<trkpt lat="25.191099" lon="101.280313">
<time>2016-04-06T11:41:27Z</time></trkpt>
<trkpt lat="25.191109" lon="101.280283">
<time>2016-04-06T11:41:28Z</time></trkpt>
<trkpt lat="25.191129" lon="101.280263">
<time>2016-04-06T11:41:29Z</time></trkpt>
<trkpt lat="25.191149" lon="101.280243">
<time>2016-04-06T11:41:30Z</time></trkpt>
<trkpt lat="25.191169" lon="101.280223">
<time>2016-04-06T11:41:31Z</time></trkpt>
<trkpt lat="25.191189" lon="101.280204">
<time>2016-04-06T11:41:32Z</time></trkpt>
<trkpt lat="25.191219" lon="101.280194">
<time>2016-04-06T11:41:33Z</time></trkpt>
<trkpt lat="25.191239" lon="101.280184">
<time>2016-04-06T11:41:34Z</time></trkpt>
<trkpt lat="25.19152" lon="101.279924">
<time>2016-04-06T11:41:35Z</time></trkpt>
<trkpt lat="25.19164" lon="101.279764">
<time>2016-04-06T11:41:36Z</time></trkpt>
<trkpt lat="25.19191" lon="101.279265">
<time>2016-04-06T11:41:37Z</time></trkpt>
<trkpt lat="25.192982" lon="101.277328">
<time>2016-04-06T11:41:38Z</time></trkpt>
<trkpt lat="25.193093" lon="101.277168">
<time>2016-04-06T11:41:39Z</time></trkpt>
<trkpt lat="25.193123" lon="101.277128">
<time>2016-04-06T11:41:40Z</time></trkpt>
<trkpt lat="25.193253" lon="101.276969">
<time>2016-04-06T11:41:41Z</time></trkpt>
<trkpt lat="25.193253" lon="101.276969">
<time>2016-04-06T11:41:42Z</time></trkpt>
<trkpt lat="25.192883" lon="101.276629">
<time>2016-04-06T11:41:43Z</time></trkpt>
<trkpt lat="25.192643" lon="101.276409">
<time>2016-04-06T11:41:44Z</time></trkpt>
<trkpt lat="25.192384" lon="101.2762">
<time>2016-04-06T11:41:45Z</time></trkpt>
<trkpt lat="25.192014" lon="101.27593">
<time>2016-04-06T11:41:46Z</time></trkpt>
<trkpt lat="25.192014" lon="101.27593">
<time>2016-04-06T11:41:47Z</time></trkpt>
<trkpt lat="25.192535" lon="101.275181">
<time>2016-04-06T11:41:48Z</time></trkpt>
<trkpt lat="25.192935" lon="101.274632">
<time>2016-04-06T11:41:49Z</time></trkpt>
<trkpt lat="25.193115" lon="101.274392">
<time>2016-04-06T11:41:50Z</time></trkpt>
<trkpt lat="25.193296" lon="101.274163">
<time>2016-04-06T11:41:51Z</time></trkpt>
<trkpt lat="25.193576" lon="101.273783">
<time>2016-04-06T11:41:52Z</time></trkpt>
<trkpt lat="25.193616" lon="101.273733">
<time>2016-04-06T11:41:53Z</time></trkpt>
<trkpt lat="25.193846" lon="101.273424">
<time>2016-04-06T11:41:54Z</time></trkpt>
<trkpt lat="25.193996" lon="101.273224">
<time>2016-04-06T11:41:55Z</time></trkpt>
<trkpt lat="25.194177" lon="101.272984">
<time>2016-04-06T11:41:56Z</time></trkpt>
<trkpt lat="25.194357" lon="101.272775">
<time>2016-04-06T11:41:57Z</time></trkpt>
<trkpt lat="25.194857" lon="101.272235">
<time>2016-04-06T11:41:58Z</time></trkpt>
<trkpt lat="25.194857" lon="101.272235">
<time>2016-04-06T11:41:59Z</time></trkpt>
<trkpt lat="25.194937" lon="101.272145">
<time>2016-04-06T11:42:00Z</time></trkpt>
<trkpt lat="25.195067" lon="101.271996">
<time>2016-04-06T11:42:01Z</time></trkpt>
<trkpt lat="25.195168" lon="101.271866">
<time>2016-04-06T11:42:02Z</time></trkpt>
<trkpt lat="25.195328" lon="101.271666">
<time>2016-04-06T11:42:03Z</time></trkpt>
<trkpt lat="25.196008" lon="101.270807">
<time>2016-04-06T11:42:04Z</time></trkpt>
<trkpt lat="25.196279" lon="101.270488">
<time>2016-04-06T11:42:05Z</time></trkpt>
<trkpt lat="25.196449" lon="101.270268">
<time>2016-04-06T11:42:06Z</time></trkpt>
<trkpt lat="25.196669" lon="101.269968">
<time>2016-04-06T11:42:07Z</time></trkpt>
<trkpt lat="25.196809" lon="101.269759">
<time>2016-04-06T11:42:08Z</time></trkpt>
<trkpt lat="25.196939" lon="101.269519">
<time>2016-04-06T11:42:09Z</time></trkpt>
<trkpt lat="25.19702" lon="101.269349">
<time>2016-04-06T11:42:10Z</time></trkpt>
<trkpt lat="25.19732" lon="101.26863">
<time>2016-04-06T11:42:11Z</time></trkpt>
<trkpt lat="25.19754" lon="101.26818">
<time>2016-04-06T11:42:12Z</time></trkpt>
<trkpt lat="25.198322" lon="101.266193">
<time>2016-04-06T11:42:13Z</time></trkpt>
<trkpt lat="25.198452" lon="101.266003">
<time>2016-04-06T11:42:14Z</time></trkpt>
<trkpt lat="25.199052" lon="101.265474">
<time>2016-04-06T11:42:15Z</time></trkpt>
<trkpt lat="25.199242" lon="101.265244">
<time>2016-04-06T11:42:16Z</time></trkpt>
<trkpt lat="25.199893" lon="101.264145">
<time>2016-04-06T11:42:17Z</time></trkpt>
<trkpt lat="25.200424" lon="101.263016">
<time>2016-04-06T11:42:18Z</time></trkpt>
<trkpt lat="25.200774" lon="101.262537">
<time>2016-04-06T11:42:19Z</time></trkpt>
<trkpt lat="25.201094" lon="101.262217">
<time>2016-04-06T11:42:20Z</time></trkpt>
<trkpt lat="25.201494" lon="101.262107">
<time>2016-04-06T11:42:21Z</time></trkpt>
<trkpt lat="25.202004" lon="101.262097">
<time>2016-04-06T11:42:22Z</time></trkpt>
<trkpt lat="25.202404" lon="101.262057">
<time>2016-04-06T11:42:23Z</time></trkpt>
<trkpt lat="25.202864" lon="101.261887">
<time>2016-04-06T11:42:24Z</time></trkpt>
<trkpt lat="25.203184" lon="101.261687">
<time>2016-04-06T11:42:25Z</time></trkpt>
<trkpt lat="25.203465" lon="101.261388">
<time>2016-04-06T11:42:26Z</time></trkpt>
<trkpt lat="25.203815" lon="101.260658">
<time>2016-04-06T11:42:27Z</time></trkpt>
<trkpt lat="25.204115" lon="101.260269">
<time>2016-04-06T11:42:28Z</time></trkpt>
<trkpt lat="25.204235" lon="101.260039">
<time>2016-04-06T11:42:29Z</time></trkpt>
<trkpt lat="25.204385" lon="101.259629">
<time>2016-04-06T11:42:30Z</time></trkpt>
<trkpt lat="25.204455" lon="101.25926">
<time>2016-04-06T11:42:31Z</time></trkpt>
<trkpt lat="25.204526" lon="101.25875">
<time>2016-04-06T11:42:32Z</time></trkpt>
<trkpt lat="25.204756" lon="101.25822">
<time>2016-04-06T11:42:33Z</time></trkpt>
<trkpt lat="25.205406" lon="101.257291">
<time>2016-04-06T11:42:34Z</time></trkpt>
<trkpt lat="25.205416" lon="101.257291">
<time>2016-04-06T11:42:35Z</time></trkpt>
<trkpt lat="25.205436" lon="101.257261">
<time>2016-04-06T11:42:36Z</time></trkpt>
<trkpt lat="25.205606" lon="101.257131">
<time>2016-04-06T11:42:37Z</time></trkpt>
<trkpt lat="25.205726" lon="101.257051">
<time>2016-04-06T11:42:38Z</time></trkpt>
<trkpt lat="25.207027" lon="101.256062">
<time>2016-04-06T11:42:39Z</time></trkpt>
<trkpt lat="25.207837" lon="101.255303">
<time>2016-04-06T11:42:40Z</time></trkpt>
<trkpt lat="25.208027" lon="101.255073">
<time>2016-04-06T11:42:41Z</time></trkpt>
<trkpt lat="25.208277" lon="101.254593">
<time>2016-04-06T11:42:42Z</time></trkpt>
<trkpt lat="25.208507" lon="101.254403">
<time>2016-04-06T11:42:43Z</time></trkpt>
<trkpt lat="25.208657" lon="101.254213">
<time>2016-04-06T11:42:44Z</time></trkpt>
<trkpt lat="25.208817" lon="101.253823">
<time>2016-04-06T11:42:45Z</time></trkpt>
<trkpt lat="25.209787" lon="101.252564">
<time>2016-04-06T11:42:46Z</time></trkpt>
<trkpt lat="25.209987" lon="101.252284">
<time>2016-04-06T11:42:47Z</time></trkpt>
<trkpt lat="25.210007" lon="101.252244">
<time>2016-04-06T11:42:48Z</time></trkpt>
<trkpt lat="25.210107" lon="101.252015">
<time>2016-04-06T11:42:49Z</time></trkpt>
<trkpt lat="25.210348" lon="101.250735">
<time>2016-04-06T11:42:50Z</time></trkpt>
<trkpt lat="25.210418" lon="101.250435">
<time>2016-04-06T11:42:51Z</time></trkpt>
<trkpt lat="25.210708" lon="101.250016">
<time>2016-04-06T11:42:52Z</time></trkpt>
<trkpt lat="25.211038" lon="101.249546">
<time>2016-04-06T11:42:53Z</time></trkpt>
<trkpt lat="25.211198" lon="101.249076">
<time>2016-04-06T11:42:54Z</time></trkpt>
<trkpt lat="25.211398" lon="101.248836">
<time>2016-04-06T11:42:55Z</time></trkpt>
<trkpt lat="25.211418" lon="101.248586">
<time>2016-04-06T11:42:56Z</time></trkpt>
<trkpt lat="25.211318" lon="101.247777">
<time>2016-04-06T11:42:57Z</time></trkpt>
<trkpt lat="25.211408" lon="101.247427">
<time>2016-04-06T11:42:58Z</time></trkpt>
<trkpt lat="25.211408" lon="101.247427">
<time>2016-04-06T11:42:59Z</time></trkpt>
<trkpt lat="25.211378" lon="101.247337">
<time>2016-04-06T11:43:00Z</time></trkpt>
<trkpt lat="25.211348" lon="101.247177">
<time>2016-04-06T11:43:01Z</time></trkpt>
<trkpt lat="25.211328" lon="101.247007">
<time>2016-04-06T11:43:02Z</time></trkpt>
<trkpt lat="25.211328" lon="101.246967">
<time>2016-04-06T11:43:03Z</time></trkpt>
<trkpt lat="25.211258" lon="101.246047">
<time>2016-04-06T11:43:04Z</time></trkpt>
<trkpt lat="25.211228" lon="101.245507">
<time>2016-04-06T11:43:05Z</time></trkpt>
<trkpt lat="25.211237" lon="101.245317">
<time>2016-04-06T11:43:06Z</time></trkpt>
<trkpt lat="25.211287" lon="101.245147">
<time>2016-04-06T11:43:07Z</time></trkpt>
<trkpt lat="25.211377" lon="101.244968">
<time>2016-04-06T11:43:08Z</time></trkpt>
<trkpt lat="25.211607" lon="101.244698">
<time>2016-04-06T11:43:09Z</time></trkpt>
<trkpt lat="25.212197" lon="101.244108">
<time>2016-04-06T11:43:10Z</time></trkpt>
<trkpt lat="25.212277" lon="101.244028">
<time>2016-04-06T11:43:11Z</time></trkpt>
<trkpt lat="25.212317" lon="101.243948">
<time>2016-04-06T11:43:12Z</time></trkpt>
<trkpt lat="25.212367" lon="101.243848">
<time>2016-04-06T11:43:13Z</time></trkpt>
<trkpt lat="25.212387" lon="101.243758">
<time>2016-04-06T11:43:14Z</time></trkpt>
<trkpt lat="25.212397" lon="101.243738">
<time>2016-04-06T11:43:15Z</time></trkpt>
<trkpt lat="25.212417" lon="101.243578">
<time>2016-04-06T11:43:16Z</time></trkpt>
<trkpt lat="25.212427" lon="101.243388">
<time>2016-04-06T11:43:17Z</time></trkpt>
<trkpt lat="25.212447" lon="101.242448">
<time>2016-04-06T11:43:18Z</time></trkpt>
<trkpt lat="25.212496" lon="101.240158">
<time>2016-04-06T11:43:19Z</time></trkpt>
<trkpt lat="25.212506" lon="101.239878">
<time>2016-04-06T11:43:20Z</time></trkpt>
<trkpt lat="25.212506" lon="101.239738">
<time>2016-04-06T11:43:21Z</time></trkpt>
<trkpt lat="25.212496" lon="101.239608">
<time>2016-04-06T11:43:22Z</time></trkpt>
<trkpt lat="25.212466" lon="101.239458">
<time>2016-04-06T11:43:23Z</time></trkpt>
<trkpt lat="25.212426" lon="101.239318">
<time>2016-04-06T11:43:24Z</time></trkpt>
<trkpt lat="25.212326" lon="101.239098">
<time>2016-04-06T11:43:25Z</time></trkpt>
<trkpt lat="25.212246" lon="101.238968">
<time>2016-04-06T11:43:26Z</time></trkpt>
<trkpt lat="25.211696" lon="101.238069">
<time>2016-04-06T11:43:27Z</time></trkpt>
<trkpt lat="25.211596" lon="101.237899">
<time>2016-04-06T11:43:28Z</time></trkpt>
<trkpt lat="25.211526" lon="101.237769">
<time>2016-04-06T11:43:29Z</time></trkpt>
<trkpt lat="25.211235" lon="101.237189">
<time>2016-04-06T11:43:30Z</time></trkpt>
<trkpt lat="25.211175" lon="101.237059">
<time>2016-04-06T11:43:31Z</time></trkpt>
<trkpt lat="25.211165" lon="101.237059">
<time>2016-04-06T11:43:32Z</time></trkpt>
<trkpt lat="25.211125" lon="101.236858">
<time>2016-04-06T11:43:33Z</time></trkpt>
<trkpt lat="25.211045" lon="101.236448">
<time>2016-04-06T11:43:34Z</time></trkpt>
<trkpt lat="25.210945" lon="101.236178">
<time>2016-04-06T11:43:35Z</time></trkpt>
<trkpt lat="25.210785" lon="101.235938">
<time>2016-04-06T11:43:36Z</time></trkpt>
<trkpt lat="25.210485" lon="101.235558">
<time>2016-04-06T11:43:37Z</time></trkpt>
<trkpt lat="25.209484" lon="101.234288">
<time>2016-04-06T11:43:38Z</time></trkpt>
<trkpt lat="25.209384" lon="101.234128">
<time>2016-04-06T11:43:39Z</time></trkpt>
<trkpt lat="25.209284" lon="101.233898">
<time>2016-04-06T11:43:40Z</time></trkpt>
<trkpt lat="25.209174" lon="101.233648">
<time>2016-04-06T11:43:41Z</time></trkpt>
<trkpt lat="25.209114" lon="101.233488">
<time>2016-04-06T11:43:42Z</time></trkpt>
<trkpt lat="25.208783" lon="101.232568">
<time>2016-04-06T11:43:43Z</time></trkpt>
<trkpt lat="25.208643" lon="101.232168">
<time>2016-04-06T11:43:44Z</time></trkpt>
<trkpt lat="25.208613" lon="101.231998">
<time>2016-04-06T11:43:45Z</time></trkpt>
<trkpt lat="25.208583" lon="101.231818">
<time>2016-04-06T11:43:46Z</time></trkpt>
<trkpt lat="25.208502" lon="101.230838">
<time>2016-04-06T11:43:47Z</time></trkpt>
<trkpt lat="25.208472" lon="101.230397">
<time>2016-04-06T11:43:48Z</time></trkpt>
<trkpt lat="25.208452" lon="101.230157">
<time>2016-04-06T11:43:49Z</time></trkpt>
<trkpt lat="25.208461" lon="101.229967">
<time>2016-04-06T11:43:50Z</time></trkpt>
<trkpt lat="25.208551" lon="101.229477">
<time>2016-04-06T11:43:51Z</time></trkpt>
<trkpt lat="25.208581" lon="101.229267">
<time>2016-04-06T11:43:52Z</time></trkpt>
<trkpt lat="25.209507" lon="101.224755">
<time>2016-04-06T11:43:53Z</time></trkpt>
<trkpt lat="25.209846" lon="101.222984">
<time>2016-04-06T11:43:54Z</time></trkpt>
<trkpt lat="25.209925" lon="101.222564">
<time>2016-04-06T11:43:55Z</time></trkpt>
<trkpt lat="25.210005" lon="101.222294">
<time>2016-04-06T11:43:56Z</time></trkpt>
<trkpt lat="25.210105" lon="101.222054">
<time>2016-04-06T11:43:57Z</time></trkpt>
<trkpt lat="25.210255" lon="101.221814">
<time>2016-04-06T11:43:58Z</time></trkpt>
<trkpt lat="25.210484" lon="101.221483">
<time>2016-04-06T11:43:59Z</time></trkpt>
<trkpt lat="25.211363" lon="101.220182">
<time>2016-04-06T11:44:00Z</time></trkpt>
<trkpt lat="25.211533" lon="101.219912">
<time>2016-04-06T11:44:01Z</time></trkpt>
<trkpt lat="25.211603" lon="101.219762">
<time>2016-04-06T11:44:02Z</time></trkpt>
<trkpt lat="25.211652" lon="101.219622">
<time>2016-04-06T11:44:03Z</time></trkpt>
<trkpt lat="25.211682" lon="101.219512">
<time>2016-04-06T11:44:04Z</time></trkpt>
<trkpt lat="25.211692" lon="101.219372">
<time>2016-04-06T11:44:05Z</time></trkpt>
<trkpt lat="25.211692" lon="101.219222">
<time>2016-04-06T11:44:06Z</time></trkpt>
<trkpt lat="25.211702" lon="101.218781">
<time>2016-04-06T11:44:07Z</time></trkpt>
<trkpt lat="25.211731" lon="101.217771">
<time>2016-04-06T11:44:08Z</time></trkpt>
<trkpt lat="25.21175" lon="101.217631">
<time>2016-04-06T11:44:09Z</time></trkpt>
<trkpt lat="25.2118" lon="101.217481">
<time>2016-04-06T11:44:10Z</time></trkpt>
<trkpt lat="25.21186" lon="101.21737">
<time>2016-04-06T11:44:11Z</time></trkpt>
<trkpt lat="25.21192" lon="101.21727">
<time>2016-04-06T11:44:12Z</time></trkpt>
<trkpt lat="25.21198" lon="101.21721">
<time>2016-04-06T11:44:13Z</time></trkpt>
<trkpt lat="25.21201" lon="101.21718">
<time>2016-04-06T11:44:14Z</time></trkpt>
<trkpt lat="25.2121" lon="101.21711">
<time>2016-04-06T11:44:15Z</time></trkpt>
<trkpt lat="25.2122" lon="101.21704">
<time>2016-04-06T11:44:16Z</time></trkpt>
<trkpt lat="25.212699" lon="101.21682">
<time>2016-04-06T11:44:17Z</time></trkpt>
<trkpt lat="25.212849" lon="101.21672">
<time>2016-04-06T11:44:18Z</time></trkpt>
<trkpt lat="25.212999" lon="101.21656">
<time>2016-04-06T11:44:19Z</time></trkpt>
<trkpt lat="25.214467" lon="101.214718">
<time>2016-04-06T11:44:20Z</time></trkpt>
<trkpt lat="25.216004" lon="101.212486">
<time>2016-04-06T11:44:21Z</time></trkpt>
<trkpt lat="25.216513" lon="101.211756">
<time>2016-04-06T11:44:22Z</time></trkpt>
<trkpt lat="25.216573" lon="101.211665">
<time>2016-04-06T11:44:23Z</time></trkpt>
<trkpt lat="25.216623" lon="101.211615">
<time>2016-04-06T11:44:24Z</time></trkpt>
<trkpt lat="25.216683" lon="101.211565">
<time>2016-04-06T11:44:25Z</time></trkpt>
<trkpt lat="25.216733" lon="101.211535">
<time>2016-04-06T11:44:26Z</time></trkpt>
<trkpt lat="25.216793" lon="101.211505">
<time>2016-04-06T11:44:27Z</time></trkpt>
<trkpt lat="25.216843" lon="101.211495">
<time>2016-04-06T11:44:28Z</time></trkpt>
<trkpt lat="25.216903" lon="101.211485">
<time>2016-04-06T11:44:29Z</time></trkpt>
<trkpt lat="25.216963" lon="101.211485">
<time>2016-04-06T11:44:30Z</time></trkpt>
<trkpt lat="25.217043" lon="101.211505">
<time>2016-04-06T11:44:31Z</time></trkpt>
<trkpt lat="25.217103" lon="101.211535">
<time>2016-04-06T11:44:32Z</time></trkpt>
<trkpt lat="25.217173" lon="101.211585">
<time>2016-04-06T11:44:33Z</time></trkpt>
<trkpt lat="25.217263" lon="101.211655">
<time>2016-04-06T11:44:34Z</time></trkpt>
<trkpt lat="25.217333" lon="101.211735">
<time>2016-04-06T11:44:35Z</time></trkpt>
<trkpt lat="25.217393" lon="101.211836">
<time>2016-04-06T11:44:36Z</time></trkpt>
<trkpt lat="25.217424" lon="101.211876">
<time>2016-04-06T11:44:37Z</time></trkpt>
<trkpt lat="25.217534" lon="101.212036">
<time>2016-04-06T11:44:38Z</time></trkpt>
<trkpt lat="25.217604" lon="101.212126">
<time>2016-04-06T11:44:39Z</time></trkpt>
<trkpt lat="25.217654" lon="101.212166">
<time>2016-04-06T11:44:40Z</time></trkpt>
<trkpt lat="25.217704" lon="101.212186">
<time>2016-04-06T11:44:41Z</time></trkpt>
<trkpt lat="25.217784" lon="101.212216">
<time>2016-04-06T11:44:42Z</time></trkpt>
<trkpt lat="25.217824" lon="101.212236">
<time>2016-04-06T11:44:43Z</time></trkpt>
<trkpt lat="25.217844" lon="101.212246">
<time>2016-04-06T11:44:44Z</time></trkpt>
<trkpt lat="25.218044" lon="101.212296">
<time>2016-04-06T11:44:45Z</time></trkpt>
<trkpt lat="25.218334" lon="101.212386">
<time>2016-04-06T11:44:46Z</time></trkpt>
<trkpt lat="25.218574" lon="101.212506">
<time>2016-04-06T11:44:47Z</time></trkpt>
<trkpt lat="25.219005" lon="101.212706">
<time>2016-04-06T11:44:48Z</time></trkpt>
<trkpt lat="25.219095" lon="101.212736">
<time>2016-04-06T11:44:49Z</time></trkpt>
<trkpt lat="25.219145" lon="101.212746">
<time>2016-04-06T11:44:50Z</time></trkpt>
<trkpt lat="25.219185" lon="101.212756">
<time>2016-04-06T11:44:51Z</time></trkpt>
<trkpt lat="25.219225" lon="101.212756">
<time>2016-04-06T11:44:52Z</time></trkpt>
<trkpt lat="25.219265" lon="101.212756">
<time>2016-04-06T11:44:53Z</time></trkpt>
<trkpt lat="25.219325" lon="101.212756">
<time>2016-04-06T11:44:54Z</time></trkpt>
<trkpt lat="25.219355" lon="101.212746">
<time>2016-04-06T11:44:55Z</time></trkpt>
<trkpt lat="25.219385" lon="101.212736">
<time>2016-04-06T11:44:56Z</time></trkpt>
<trkpt lat="25.219425" lon="101.212726">
<time>2016-04-06T11:44:57Z</time></trkpt>
<trkpt lat="25.219475" lon="101.212696">
<time>2016-04-06T11:44:58Z</time></trkpt>
<trkpt lat="25.219544" lon="101.212646">
<time>2016-04-06T11:44:59Z</time></trkpt>
<trkpt lat="25.219644" lon="101.212566">
<time>2016-04-06T11:45:00Z</time></trkpt>
<trkpt lat="25.219724" lon="101.212496">
<time>2016-04-06T11:45:01Z</time></trkpt>
<trkpt lat="25.220533" lon="101.211725">
<time>2016-04-06T11:45:02Z</time></trkpt>
<trkpt lat="25.220743" lon="101.211535">
<time>2016-04-06T11:45:03Z</time></trkpt>
<trkpt lat="25.222211" lon="101.210214">
<time>2016-04-06T11:45:04Z</time></trkpt>
<trkpt lat="25.222391" lon="101.210014">
<time>2016-04-06T11:45:05Z</time></trkpt>
<trkpt lat="25.222521" lon="101.209844">
<time>2016-04-06T11:45:06Z</time></trkpt>
<trkpt lat="25.222621" lon="101.209683">
<time>2016-04-06T11:45:07Z</time></trkpt>
<trkpt lat="25.22298" lon="101.209063">
<time>2016-04-06T11:45:08Z</time></trkpt>
<trkpt lat="25.223359" lon="101.208402">
<time>2016-04-06T11:45:09Z</time></trkpt>
<trkpt lat="25.224646" lon="101.20621">
<time>2016-04-06T11:45:10Z</time></trkpt>
<trkpt lat="25.225055" lon="101.205449">
<time>2016-04-06T11:45:11Z</time></trkpt>
<trkpt lat="25.225334" lon="101.204828">
<time>2016-04-06T11:45:12Z</time></trkpt>
<trkpt lat="25.225523" lon="101.204368">
<time>2016-04-06T11:45:13Z</time></trkpt>
<trkpt lat="25.225573" lon="101.204247">
<time>2016-04-06T11:45:14Z</time></trkpt>
<trkpt lat="25.225623" lon="101.204147">
<time>2016-04-06T11:45:15Z</time></trkpt>
<trkpt lat="25.225663" lon="101.204057">
<time>2016-04-06T11:45:16Z</time></trkpt>
<trkpt lat="25.225693" lon="101.203967">
<time>2016-04-06T11:45:17Z</time></trkpt>
<trkpt lat="25.225703" lon="101.203867">
<time>2016-04-06T11:45:18Z</time></trkpt>
<trkpt lat="25.225712" lon="101.203747">
<time>2016-04-06T11:45:19Z</time></trkpt>
<trkpt lat="25.225692" lon="101.203597">
<time>2016-04-06T11:45:20Z</time></trkpt>
<trkpt lat="25.225662" lon="101.203467">
<time>2016-04-06T11:45:21Z</time></trkpt>
<trkpt lat="25.225642" lon="101.203346">
<time>2016-04-06T11:45:22Z</time></trkpt>
<trkpt lat="25.225581" lon="101.203066">
<time>2016-04-06T11:45:23Z</time></trkpt>
<trkpt lat="25.22542" lon="101.202405">
<time>2016-04-06T11:45:24Z</time></trkpt>
<trkpt lat="25.225149" lon="101.201604">
<time>2016-04-06T11:45:25Z</time></trkpt>
<trkpt lat="25.225059" lon="101.201414">
<time>2016-04-06T11:45:26Z</time></trkpt>
<trkpt lat="25.224989" lon="101.201284">
<time>2016-04-06T11:45:27Z</time></trkpt>
<trkpt lat="25.224908" lon="101.201174">
<time>2016-04-06T11:45:28Z</time></trkpt>
<trkpt lat="25.224788" lon="101.201054">
<time>2016-04-06T11:45:29Z</time></trkpt>
<trkpt lat="25.224588" lon="101.200883">
<time>2016-04-06T11:45:30Z</time></trkpt>
<trkpt lat="25.224078" lon="101.200553">
<time>2016-04-06T11:45:31Z</time></trkpt>
<trkpt lat="25.222916" lon="101.199782">
<time>2016-04-06T11:45:32Z</time></trkpt>
<trkpt lat="25.222816" lon="101.199702">
<time>2016-04-06T11:45:33Z</time></trkpt>
<trkpt lat="25.222716" lon="101.199602">
<time>2016-04-06T11:45:34Z</time></trkpt>
<trkpt lat="25.222606" lon="101.199472">
<time>2016-04-06T11:45:35Z</time></trkpt>
<trkpt lat="25.222466" lon="101.199292">
<time>2016-04-06T11:45:36Z</time></trkpt>
<trkpt lat="25.222275" lon="101.199041">
<time>2016-04-06T11:45:37Z</time></trkpt>
<trkpt lat="25.221854" lon="101.1984">
<time>2016-04-06T11:45:38Z</time></trkpt>
<trkpt lat="25.221784" lon="101.19825">
<time>2016-04-06T11:45:39Z</time></trkpt>
<trkpt lat="25.221744" lon="101.19817">
<time>2016-04-06T11:45:40Z</time></trkpt>
<trkpt lat="25.221714" lon="101.19806">
<time>2016-04-06T11:45:41Z</time></trkpt>
<trkpt lat="25.221673" lon="101.19789">
<time>2016-04-06T11:45:42Z</time></trkpt>
<trkpt lat="25.221643" lon="101.19772">
<time>2016-04-06T11:45:43Z</time></trkpt>
<trkpt lat="25.221603" lon="101.197489">
<time>2016-04-06T11:45:44Z</time></trkpt>
<trkpt lat="25.221582" lon="101.197319">
<time>2016-04-06T11:45:45Z</time></trkpt>
<trkpt lat="25.221582" lon="101.197289">
<time>2016-04-06T11:45:46Z</time></trkpt>
<trkpt lat="25.221572" lon="101.197109">
<time>2016-04-06T11:45:47Z</time></trkpt>
<trkpt lat="25.221562" lon="101.196939">
<time>2016-04-06T11:45:48Z</time></trkpt>
<trkpt lat="25.221572" lon="101.196798">
<time>2016-04-06T11:45:49Z</time></trkpt>
<trkpt lat="25.221572" lon="101.196778">
<time>2016-04-06T11:45:50Z</time></trkpt>
<trkpt lat="25.221591" lon="101.196648">
<time>2016-04-06T11:45:51Z</time></trkpt>
<trkpt lat="25.221611" lon="101.196518">
<time>2016-04-06T11:45:52Z</time></trkpt>
<trkpt lat="25.22176" lon="101.195767">
<time>2016-04-06T11:45:53Z</time></trkpt>
<trkpt lat="25.2218" lon="101.195547">
<time>2016-04-06T11:45:54Z</time></trkpt>
<trkpt lat="25.221879" lon="101.195186">
<time>2016-04-06T11:45:55Z</time></trkpt>
<trkpt lat="25.221959" lon="101.194966">
<time>2016-04-06T11:45:56Z</time></trkpt>
<trkpt lat="25.222048" lon="101.194786">
<time>2016-04-06T11:45:57Z</time></trkpt>
<trkpt lat="25.222158" lon="101.194615">
<time>2016-04-06T11:45:58Z</time></trkpt>
<trkpt lat="25.222258" lon="101.194475">
<time>2016-04-06T11:45:59Z</time></trkpt>
<trkpt lat="25.222467" lon="101.194215">
<time>2016-04-06T11:46:00Z</time></trkpt>
<trkpt lat="25.222637" lon="101.194035">
<time>2016-04-06T11:46:01Z</time></trkpt>
<trkpt lat="25.222787" lon="101.193924">
<time>2016-04-06T11:46:02Z</time></trkpt>
<trkpt lat="25.223007" lon="101.193784">
<time>2016-04-06T11:46:03Z</time></trkpt>
<trkpt lat="25.223196" lon="101.193664">
<time>2016-04-06T11:46:04Z</time></trkpt>
<trkpt lat="25.223436" lon="101.193514">
<time>2016-04-06T11:46:05Z</time></trkpt>
<trkpt lat="25.223586" lon="101.193414">
<time>2016-04-06T11:46:06Z</time></trkpt>
<trkpt lat="25.223726" lon="101.193294">
<time>2016-04-06T11:46:07Z</time></trkpt>
<trkpt lat="25.223836" lon="101.193153">
<time>2016-04-06T11:46:08Z</time></trkpt>
<trkpt lat="25.223925" lon="101.193033">
<time>2016-04-06T11:46:09Z</time></trkpt>
<trkpt lat="25.224324" lon="101.192352">
<time>2016-04-06T11:46:10Z</time></trkpt>
<trkpt lat="25.224414" lon="101.192182">
<time>2016-04-06T11:46:11Z</time></trkpt>
<trkpt lat="25.224474" lon="101.192032">
<time>2016-04-06T11:46:12Z</time></trkpt>
<trkpt lat="25.224503" lon="101.191922">
<time>2016-04-06T11:46:13Z</time></trkpt>
<trkpt lat="25.224523" lon="101.191791">
<time>2016-04-06T11:46:14Z</time></trkpt>
<trkpt lat="25.224533" lon="101.191691">
<time>2016-04-06T11:46:15Z</time></trkpt>
<trkpt lat="25.224513" lon="101.191511">
<time>2016-04-06T11:46:16Z</time></trkpt>
<trkpt lat="25.224371" lon="101.19051">
<time>2016-04-06T11:46:17Z</time></trkpt>
<trkpt lat="25.224341" lon="101.190259">
<time>2016-04-06T11:46:18Z</time></trkpt>
<trkpt lat="25.22434" lon="101.190019">
<time>2016-04-06T11:46:19Z</time></trkpt>
<trkpt lat="25.22435" lon="101.189759">
<time>2016-04-06T11:46:20Z</time></trkpt>
<trkpt lat="25.22436" lon="101.189718">
<time>2016-04-06T11:46:21Z</time></trkpt>
<trkpt lat="25.224379" lon="101.189488">
<time>2016-04-06T11:46:22Z</time></trkpt>
<trkpt lat="25.224409" lon="101.189308">
<time>2016-04-06T11:46:23Z</time></trkpt>
<trkpt lat="25.224449" lon="101.189148">
<time>2016-04-06T11:46:24Z</time></trkpt>
<trkpt lat="25.224488" lon="101.189017">
<time>2016-04-06T11:46:25Z</time></trkpt>
<trkpt lat="25.224558" lon="101.188877">
<time>2016-04-06T11:46:26Z</time></trkpt>
<trkpt lat="25.224648" lon="101.188747">
<time>2016-04-06T11:46:27Z</time></trkpt>
<trkpt lat="25.225736" lon="101.187505">
<time>2016-04-06T11:46:28Z</time></trkpt>
<trkpt lat="25.225796" lon="101.187445">
<time>2016-04-06T11:46:29Z</time></trkpt>
<trkpt lat="25.225846" lon="101.187405">
<time>2016-04-06T11:46:30Z</time></trkpt>
<trkpt lat="25.225915" lon="101.187375">
<time>2016-04-06T11:46:31Z</time></trkpt>
<trkpt lat="25.225975" lon="101.187355">
<time>2016-04-06T11:46:32Z</time></trkpt>
<trkpt lat="25.226035" lon="101.187335">
<time>2016-04-06T11:46:33Z</time></trkpt>
<trkpt lat="25.226115" lon="101.187335">
<time>2016-04-06T11:46:34Z</time></trkpt>
<trkpt lat="25.226255" lon="101.187345">
<time>2016-04-06T11:46:35Z</time></trkpt>
<trkpt lat="25.228586" lon="101.187535">
<time>2016-04-06T11:46:36Z</time></trkpt>
<trkpt lat="25.228826" lon="101.187565">
<time>2016-04-06T11:46:37Z</time></trkpt>
<trkpt lat="25.228926" lon="101.187575">
<time>2016-04-06T11:46:38Z</time></trkpt>
<trkpt lat="25.229026" lon="101.187595">
<time>2016-04-06T11:46:39Z</time></trkpt>
<trkpt lat="25.229096" lon="101.187615">
<time>2016-04-06T11:46:40Z</time></trkpt>
<trkpt lat="25.229166" lon="101.187645">
<time>2016-04-06T11:46:41Z</time></trkpt>
<trkpt lat="25.229226" lon="101.187675">
<time>2016-04-06T11:46:42Z</time></trkpt>
<trkpt lat="25.229276" lon="101.187705">
<time>2016-04-06T11:46:43Z</time></trkpt>
<trkpt lat="25.229336" lon="101.187745">
<time>2016-04-06T11:46:44Z</time></trkpt>
<trkpt lat="25.229396" lon="101.187796">
<time>2016-04-06T11:46:45Z</time></trkpt>
<trkpt lat="25.229446" lon="101.187866">
<time>2016-04-06T11:46:46Z</time></trkpt>
<trkpt lat="25.229486" lon="101.187916">
<time>2016-04-06T11:46:47Z</time></trkpt>
<trkpt lat="25.229527" lon="101.187986">
<time>2016-04-06T11:46:48Z</time></trkpt>
<trkpt lat="25.229637" lon="101.188216">
<time>2016-04-06T11:46:49Z</time></trkpt>
<trkpt lat="25.229757" lon="101.188436">
<time>2016-04-06T11:46:50Z</time></trkpt>
<trkpt lat="25.229848" lon="101.188567">
<time>2016-04-06T11:46:51Z</time></trkpt>
<trkpt lat="25.229918" lon="101.188647">
<time>2016-04-06T11:46:52Z</time></trkpt>
<trkpt lat="25.229988" lon="101.188727">
<time>2016-04-06T11:46:53Z</time></trkpt>
<trkpt lat="25.230088" lon="101.188817">
<time>2016-04-06T11:46:54Z</time></trkpt>
<trkpt lat="25.230519" lon="101.189188">
<time>2016-04-06T11:46:55Z</time></trkpt>
<trkpt lat="25.231009" lon="101.189628">
<time>2016-04-06T11:46:56Z</time></trkpt>
<trkpt lat="25.23112" lon="101.189698">
<time>2016-04-06T11:46:57Z</time></trkpt>
<trkpt lat="25.23126" lon="101.189758">
<time>2016-04-06T11:46:58Z</time></trkpt>
<trkpt lat="25.23142" lon="101.189788">
<time>2016-04-06T11:46:59Z</time></trkpt>
<trkpt lat="25.23166" lon="101.189828">
<time>2016-04-06T11:47:00Z</time></trkpt>
<trkpt lat="25.23185" lon="101.189848">
<time>2016-04-06T11:47:01Z</time></trkpt>
<trkpt lat="25.232" lon="101.189848">
<time>2016-04-06T11:47:02Z</time></trkpt>
<trkpt lat="25.23212" lon="101.189828">
<time>2016-04-06T11:47:03Z</time></trkpt>
<trkpt lat="25.23221" lon="101.189788">
<time>2016-04-06T11:47:04Z</time></trkpt>
<trkpt lat="25.23223" lon="101.189778">
<time>2016-04-06T11:47:05Z</time></trkpt>
<trkpt lat="25.2323" lon="101.189698">
<time>2016-04-06T11:47:06Z</time></trkpt>
<trkpt lat="25.232349" lon="101.189598">
<time>2016-04-06T11:47:07Z</time></trkpt>
<trkpt lat="25.232389" lon="101.189488">
<time>2016-04-06T11:47:08Z</time></trkpt>
<trkpt lat="25.232409" lon="101.189388">
<time>2016-04-06T11:47:09Z</time></trkpt>
<trkpt lat="25.232419" lon="101.189278">
<time>2016-04-06T11:47:10Z</time></trkpt>
<trkpt lat="25.232419" lon="101.189157">
<time>2016-04-06T11:47:11Z</time></trkpt>
<trkpt lat="25.232418" lon="101.188957">
<time>2016-04-06T11:47:12Z</time></trkpt>
<trkpt lat="25.232388" lon="101.188757">
<time>2016-04-06T11:47:13Z</time></trkpt>
<trkpt lat="25.232358" lon="101.188587">
<time>2016-04-06T11:47:14Z</time></trkpt>
<trkpt lat="25.232277" lon="101.188256">
<time>2016-04-06T11:47:15Z</time></trkpt>
<trkpt lat="25.232257" lon="101.188136">
<time>2016-04-06T11:47:16Z</time></trkpt>
<trkpt lat="25.232257" lon="101.188036">
<time>2016-04-06T11:47:17Z</time></trkpt>
<trkpt lat="25.232267" lon="101.187936">
<time>2016-04-06T11:47:18Z</time></trkpt>
<trkpt lat="25.232286" lon="101.187815">
<time>2016-04-06T11:47:19Z</time></trkpt>
<trkpt lat="25.232326" lon="101.187715">
<time>2016-04-06T11:47:20Z</time></trkpt>
<trkpt lat="25.232366" lon="101.187635">
<time>2016-04-06T11:47:21Z</time></trkpt>
<trkpt lat="25.232745" lon="101.187144">
<time>2016-04-06T11:47:22Z</time></trkpt>
<trkpt lat="25.232815" lon="101.187004">
<time>2016-04-06T11:47:23Z</time></trkpt>
<trkpt lat="25.232865" lon="101.186864">
<time>2016-04-06T11:47:24Z</time></trkpt>
<trkpt lat="25.232904" lon="101.186714">
<time>2016-04-06T11:47:25Z</time></trkpt>
<trkpt lat="25.233121" lon="101.184731">
<time>2016-04-06T11:47:26Z</time></trkpt>
<trkpt lat="25.233278" lon="101.183329">
<time>2016-04-06T11:47:27Z</time></trkpt>
<trkpt lat="25.233338" lon="101.182978">
<time>2016-04-06T11:47:28Z</time></trkpt>
<trkpt lat="25.233367" lon="101.182858">
<time>2016-04-06T11:47:29Z</time></trkpt>
<trkpt lat="25.233417" lon="101.182738">
<time>2016-04-06T11:47:30Z</time></trkpt>
<trkpt lat="25.233457" lon="101.182618">
<time>2016-04-06T11:47:31Z</time></trkpt>
<trkpt lat="25.233517" lon="101.182507">
<time>2016-04-06T11:47:32Z</time></trkpt>
<trkpt lat="25.233587" lon="101.182387">
<time>2016-04-06T11:47:33Z</time></trkpt>
<trkpt lat="25.233666" lon="101.182277">
<time>2016-04-06T11:47:34Z</time></trkpt>
<trkpt lat="25.234175" lon="101.181536">
<time>2016-04-06T11:47:35Z</time></trkpt>
<trkpt lat="25.234215" lon="101.181476">
<time>2016-04-06T11:47:36Z</time></trkpt>
<trkpt lat="25.234534" lon="101.181055">
<time>2016-04-06T11:47:37Z</time></trkpt>
<trkpt lat="25.234883" lon="101.180645">
<time>2016-04-06T11:47:38Z</time></trkpt>
<trkpt lat="25.235282" lon="101.180194">
<time>2016-04-06T11:47:39Z</time></trkpt>
<trkpt lat="25.236301" lon="101.179122">
<time>2016-04-06T11:47:40Z</time></trkpt>
<trkpt lat="25.23674" lon="101.178621">
<time>2016-04-06T11:47:41Z</time></trkpt>
<trkpt lat="25.236839" lon="101.178511">
<time>2016-04-06T11:47:42Z</time></trkpt>
<trkpt lat="25.236909" lon="101.178421">
<time>2016-04-06T11:47:43Z</time></trkpt>
<trkpt lat="25.236959" lon="101.178321">
<time>2016-04-06T11:47:44Z</time></trkpt>
<trkpt lat="25.237009" lon="101.178211">
<time>2016-04-06T11:47:45Z</time></trkpt>
<trkpt lat="25.237049" lon="101.178111">
<time>2016-04-06T11:47:46Z</time></trkpt>
<trkpt lat="25.237059" lon="101.1781">
<time>2016-04-06T11:47:47Z</time></trkpt>
<trkpt lat="25.237098" lon="101.17793">
<time>2016-04-06T11:47:48Z</time></trkpt>
<trkpt lat="25.237257" lon="101.177259">
<time>2016-04-06T11:47:49Z</time></trkpt>
<trkpt lat="25.237336" lon="101.176768">
<time>2016-04-06T11:47:50Z</time></trkpt>
<trkpt lat="25.237356" lon="101.176558">
<time>2016-04-06T11:47:51Z</time></trkpt>
<trkpt lat="25.237335" lon="101.176358">
<time>2016-04-06T11:47:52Z</time></trkpt>
<trkpt lat="25.237265" lon="101.175927">
<time>2016-04-06T11:47:53Z</time></trkpt>
<trkpt lat="25.237183" lon="101.175356">
<time>2016-04-06T11:47:54Z</time></trkpt>
<trkpt lat="25.237143" lon="101.175116">
<time>2016-04-06T11:47:55Z</time></trkpt>
<trkpt lat="25.237112" lon="101.174805">
<time>2016-04-06T11:47:56Z</time></trkpt>
<trkpt lat="25.237102" lon="101.174575">
<time>2016-04-06T11:47:57Z</time></trkpt>
<trkpt lat="25.237102" lon="101.174325">
<time>2016-04-06T11:47:58Z</time></trkpt>
<trkpt lat="25.237121" lon="101.174044">
<time>2016-04-06T11:47:59Z</time></trkpt>
<trkpt lat="25.23716" lon="101.173563">
<time>2016-04-06T11:48:00Z</time></trkpt>
<trkpt lat="25.23716" lon="101.173393">
<time>2016-04-06T11:48:01Z</time></trkpt>
<trkpt lat="25.237139" lon="101.173223">
<time>2016-04-06T11:48:02Z</time></trkpt>
<trkpt lat="25.237139" lon="101.173213">
<time>2016-04-06T11:48:03Z</time></trkpt>
<trkpt lat="25.237079" lon="101.172962">
<time>2016-04-06T11:48:04Z</time></trkpt>
<trkpt lat="25.236999" lon="101.172732">
<time>2016-04-06T11:48:05Z</time></trkpt>
<trkpt lat="25.236908" lon="101.172502">
<time>2016-04-06T11:48:06Z</time></trkpt>
<trkpt lat="25.236838" lon="101.172271">
<time>2016-04-06T11:48:07Z</time></trkpt>
<trkpt lat="25.236838" lon="101.172251">
<time>2016-04-06T11:48:08Z</time></trkpt>
<trkpt lat="25.236807" lon="101.172111">
<time>2016-04-06T11:48:09Z</time></trkpt>
<trkpt lat="25.236777" lon="101.171951">
<time>2016-04-06T11:48:10Z</time></trkpt>
<trkpt lat="25.236767" lon="101.17166">
<time>2016-04-06T11:48:11Z</time></trkpt>
<trkpt lat="25.236734" lon="101.170388">
<time>2016-04-06T11:48:12Z</time></trkpt>
<trkpt lat="25.236744" lon="101.170208">
<time>2016-04-06T11:48:13Z</time></trkpt>
<trkpt lat="25.236753" lon="101.170058">
<time>2016-04-06T11:48:14Z</time></trkpt>
<trkpt lat="25.236793" lon="101.169797">
<time>2016-04-06T11:48:15Z</time></trkpt>
<trkpt lat="25.236823" lon="101.169577">
<time>2016-04-06T11:48:16Z</time></trkpt>
<trkpt lat="25.236823" lon="101.169567">
<time>2016-04-06T11:48:17Z</time></trkpt>
<trkpt lat="25.236842" lon="101.169357">
<time>2016-04-06T11:48:18Z</time></trkpt>
<trkpt lat="25.236841" lon="101.168836">
<time>2016-04-06T11:48:19Z</time></trkpt>
<trkpt lat="25.236841" lon="101.168786">
<time>2016-04-06T11:48:20Z</time></trkpt>
<trkpt lat="25.236851" lon="101.168746">
<time>2016-04-06T11:48:21Z</time></trkpt>
<trkpt lat="25.236871" lon="101.168706">
<time>2016-04-06T11:48:22Z</time></trkpt>
<trkpt lat="25.236891" lon="101.168666">
<time>2016-04-06T11:48:23Z</time></trkpt>
<trkpt lat="25.236911" lon="101.168636">
<time>2016-04-06T11:48:24Z</time></trkpt>
<trkpt lat="25.236941" lon="101.168595">
<time>2016-04-06T11:48:25Z</time></trkpt>
<trkpt lat="25.236961" lon="101.168565">
<time>2016-04-06T11:48:26Z</time></trkpt>
<trkpt lat="25.236991" lon="101.168545">
<time>2016-04-06T11:48:27Z</time></trkpt>
<trkpt lat="25.237001" lon="101.168545">
<time>2016-04-06T11:48:28Z</time></trkpt>
<trkpt lat="25.237061" lon="101.168505">
<time>2016-04-06T11:48:29Z</time></trkpt>
<trkpt lat="25.23751" lon="101.168205">
<time>2016-04-06T11:48:30Z</time></trkpt>
<trkpt lat="25.237439" lon="101.167734">
<time>2016-04-06T11:48:31Z</time></trkpt>
<trkpt lat="25.237318" lon="101.167203">
<time>2016-04-06T11:48:32Z</time></trkpt>
<trkpt lat="25.236926" lon="101.166041">
<time>2016-04-06T11:48:33Z</time></trkpt>
<trkpt lat="25.236886" lon="101.165931">
<time>2016-04-06T11:48:34Z</time></trkpt>
<trkpt lat="25.236855" lon="101.165821">
<time>2016-04-06T11:48:35Z</time></trkpt>
<trkpt lat="25.236825" lon="101.165671">
<time>2016-04-06T11:48:36Z</time></trkpt>
<trkpt lat="25.236805" lon="101.165531">
<time>2016-04-06T11:48:37Z</time></trkpt>
<trkpt lat="25.236785" lon="101.1653">
<time>2016-04-06T11:48:38Z</time></trkpt>
<trkpt lat="25.236754" lon="101.16503">
<time>2016-04-06T11:48:39Z</time></trkpt>
<trkpt lat="25.236733" lon="101.164579">
<time>2016-04-06T11:48:40Z</time></trkpt>
<trkpt lat="25.236733" lon="101.164289">
<time>2016-04-06T11:48:41Z</time></trkpt>
<trkpt lat="25.236742" lon="101.164158">
<time>2016-04-06T11:48:42Z</time></trkpt>
<trkpt lat="25.236752" lon="101.164028">
<time>2016-04-06T11:48:43Z</time></trkpt>
<trkpt lat="25.236782" lon="101.163918">
<time>2016-04-06T11:48:44Z</time></trkpt>
<trkpt lat="25.236812" lon="101.163788">
<time>2016-04-06T11:48:45Z</time></trkpt>
<trkpt lat="25.236931" lon="101.163407">
<time>2016-04-06T11:48:46Z</time></trkpt>
<trkpt lat="25.237557" lon="101.161524">
<time>2016-04-06T11:48:47Z</time></trkpt>
<trkpt lat="25.237895" lon="101.160332">
<time>2016-04-06T11:48:48Z</time></trkpt>
<trkpt lat="25.238104" lon="101.159511">
<time>2016-04-06T11:48:49Z</time></trkpt>
<trkpt lat="25.238223" lon="101.15885">
<time>2016-04-06T11:48:50Z</time></trkpt>
<trkpt lat="25.238252" lon="101.15872">
<time>2016-04-06T11:48:51Z</time></trkpt>
<trkpt lat="25.238302" lon="101.15857">
<time>2016-04-06T11:48:52Z</time></trkpt>
<trkpt lat="25.238352" lon="101.15844">
<time>2016-04-06T11:48:53Z</time></trkpt>
<trkpt lat="25.238392" lon="101.158349">
<time>2016-04-06T11:48:54Z</time></trkpt>
<trkpt lat="25.238451" lon="101.158239">
<time>2016-04-06T11:48:55Z</time></trkpt>
<trkpt lat="25.238531" lon="101.158129">
<time>2016-04-06T11:48:56Z</time></trkpt>
<trkpt lat="25.238611" lon="101.158019">
<time>2016-04-06T11:48:57Z</time></trkpt>
<trkpt lat="25.238671" lon="101.157959">
<time>2016-04-06T11:48:58Z</time></trkpt>
<trkpt lat="25.238671" lon="101.157959">
<time>2016-04-06T11:48:59Z</time></trkpt>
<trkpt lat="25.238661" lon="101.157879">
<time>2016-04-06T11:49:00Z</time></trkpt>
<trkpt lat="25.238661" lon="101.157849">
<time>2016-04-06T11:49:01Z</time></trkpt>
<trkpt lat="25.238711" lon="101.157769">
<time>2016-04-06T11:49:02Z</time></trkpt>
<trkpt lat="25.23888" lon="101.157478">
<time>2016-04-06T11:49:03Z</time></trkpt>
<trkpt lat="25.23892" lon="101.157358">
<time>2016-04-06T11:49:04Z</time></trkpt>
<trkpt lat="25.23894" lon="101.157258">
<time>2016-04-06T11:49:05Z</time></trkpt>
<trkpt lat="25.23894" lon="101.157198">
<time>2016-04-06T11:49:06Z</time></trkpt>
<trkpt lat="25.238939" lon="101.157148">
<time>2016-04-06T11:49:07Z</time></trkpt>
<trkpt lat="25.238919" lon="101.157118">
<time>2016-04-06T11:49:08Z</time></trkpt>
<trkpt lat="25.238899" lon="101.157078">
<time>2016-04-06T11:49:09Z</time></trkpt>
<trkpt lat="25.238769" lon="101.156957">
<time>2016-04-06T11:49:10Z</time></trkpt>
<trkpt lat="25.238729" lon="101.156937">
<time>2016-04-06T11:49:11Z</time></trkpt>
<trkpt lat="25.238689" lon="101.156917">
<time>2016-04-06T11:49:12Z</time></trkpt>
<trkpt lat="25.238599" lon="101.156907">
<time>2016-04-06T11:49:13Z</time></trkpt>
<trkpt lat="25.238489" lon="101.156887">
<time>2016-04-06T11:49:14Z</time></trkpt>
<trkpt lat="25.238329" lon="101.156847">
<time>2016-04-06T11:49:15Z</time></trkpt>
<trkpt lat="25.238199" lon="101.156827">
<time>2016-04-06T11:49:16Z</time></trkpt>
<trkpt lat="25.238089" lon="101.156807">
<time>2016-04-06T11:49:17Z</time></trkpt>
<trkpt lat="25.237999" lon="101.156797">
<time>2016-04-06T11:49:18Z</time></trkpt>
<trkpt lat="25.237979" lon="101.156787">
<time>2016-04-06T11:49:19Z</time></trkpt>
<trkpt lat="25.237959" lon="101.156767">
<time>2016-04-06T11:49:20Z</time></trkpt>
<trkpt lat="25.237949" lon="101.156727">
<time>2016-04-06T11:49:21Z</time></trkpt>
<trkpt lat="25.237959" lon="101.156667">
<time>2016-04-06T11:49:22Z</time></trkpt>
<trkpt lat="25.237988" lon="101.156487">
<time>2016-04-06T11:49:23Z</time></trkpt>
<trkpt lat="25.238028" lon="101.156286">
<time>2016-04-06T11:49:24Z</time></trkpt>
<trkpt lat="25.238078" lon="101.156146">
<time>2016-04-06T11:49:25Z</time></trkpt>
<trkpt lat="25.238137" lon="101.155946">
<time>2016-04-06T11:49:26Z</time></trkpt>
<trkpt lat="25.238227" lon="101.155555">
<time>2016-04-06T11:49:27Z</time></trkpt>
<trkpt lat="25.238346" lon="101.155165">
<time>2016-04-06T11:49:28Z</time></trkpt>
<trkpt lat="25.238485" lon="101.154824">
<time>2016-04-06T11:49:29Z</time></trkpt>
<trkpt lat="25.238525" lon="101.154744">
<time>2016-04-06T11:49:30Z</time></trkpt>
<trkpt lat="25.238535" lon="101.154704">
<time>2016-04-06T11:49:31Z</time></trkpt>
<trkpt lat="25.238525" lon="101.154674">
<time>2016-04-06T11:49:32Z</time></trkpt>
<trkpt lat="25.238494" lon="101.154233">
<time>2016-04-06T11:49:33Z</time></trkpt>
<trkpt lat="25.238494" lon="101.154103">
<time>2016-04-06T11:49:34Z</time></trkpt>
<trkpt lat="25.238514" lon="101.154003">
<time>2016-04-06T11:49:35Z</time></trkpt>
<trkpt lat="25.238593" lon="101.153733">
<time>2016-04-06T11:49:36Z</time></trkpt>
<trkpt lat="25.238623" lon="101.153662">
<time>2016-04-06T11:49:37Z</time></trkpt>
<trkpt lat="25.238673" lon="101.153602">
<time>2016-04-06T11:49:38Z</time></trkpt>
<trkpt lat="25.238733" lon="101.153552">
<time>2016-04-06T11:49:39Z</time></trkpt>
<trkpt lat="25.238853" lon="101.153462">
<time>2016-04-06T11:49:40Z</time></trkpt>
<trkpt lat="25.239182" lon="101.153242">
<time>2016-04-06T11:49:41Z</time></trkpt>
<trkpt lat="25.239302" lon="101.153162">
<time>2016-04-06T11:49:42Z</time></trkpt>
<trkpt lat="25.239432" lon="101.153042">
<time>2016-04-06T11:49:43Z</time></trkpt>
<trkpt lat="25.239482" lon="101.152961">
<time>2016-04-06T11:49:44Z</time></trkpt>
<trkpt lat="25.2401" lon="101.15209">
<time>2016-04-06T11:49:45Z</time></trkpt>
<trkpt lat="25.24013" lon="101.15202">
<time>2016-04-06T11:49:46Z</time></trkpt>
<trkpt lat="25.24014" lon="101.15196">
<time>2016-04-06T11:49:47Z</time></trkpt>
<trkpt lat="25.24014" lon="101.1519">
<time>2016-04-06T11:49:48Z</time></trkpt>
<trkpt lat="25.24011" lon="101.15173">
<time>2016-04-06T11:49:49Z</time></trkpt>
<trkpt lat="25.24007" lon="101.151609">
<time>2016-04-06T11:49:50Z</time></trkpt>
<trkpt lat="25.239999" lon="101.151459">
<time>2016-04-06T11:49:51Z</time></trkpt>
<trkpt lat="25.239889" lon="101.151289">
<time>2016-04-06T11:49:52Z</time></trkpt>
<trkpt lat="25.239729" lon="101.151039">
<time>2016-04-06T11:49:53Z</time></trkpt>
<trkpt lat="25.239478" lon="101.150668">
<time>2016-04-06T11:49:54Z</time></trkpt>
<trkpt lat="25.239107" lon="101.150097">
<time>2016-04-06T11:49:55Z</time></trkpt>
<trkpt lat="25.238916" lon="101.149817">
<time>2016-04-06T11:49:56Z</time></trkpt>
<trkpt lat="25.238756" lon="101.149547">
<time>2016-04-06T11:49:57Z</time></trkpt>
<trkpt lat="25.238596" lon="101.149316">
<time>2016-04-06T11:49:58Z</time></trkpt>
<trkpt lat="25.238575" lon="101.149276">
<time>2016-04-06T11:49:59Z</time></trkpt>
<trkpt lat="25.238295" lon="101.148876">
<time>2016-04-06T11:50:00Z</time></trkpt>
<trkpt lat="25.238174" lon="101.148695">
<time>2016-04-06T11:50:01Z</time></trkpt>
<trkpt lat="25.238054" lon="101.148485">
<time>2016-04-06T11:50:02Z</time></trkpt>
<trkpt lat="25.237994" lon="101.148335">
<time>2016-04-06T11:50:03Z</time></trkpt>
<trkpt lat="25.237954" lon="101.148185">
<time>2016-04-06T11:50:04Z</time></trkpt>
<trkpt lat="25.237913" lon="101.147954">
<time>2016-04-06T11:50:05Z</time></trkpt>
<trkpt lat="25.237873" lon="101.147814">
<time>2016-04-06T11:50:06Z</time></trkpt>
<trkpt lat="25.237833" lon="101.147734">
<time>2016-04-06T11:50:07Z</time></trkpt>
<trkpt lat="25.237783" lon="101.147654">
<time>2016-04-06T11:50:08Z</time></trkpt>
<trkpt lat="25.237733" lon="101.147604">
<time>2016-04-06T11:50:09Z</time></trkpt>
<trkpt lat="25.237733" lon="101.147604">
<time>2016-04-06T11:50:10Z</time></trkpt>
<trkpt lat="25.237762" lon="101.147384">
<time>2016-04-06T11:50:11Z</time></trkpt>
<trkpt lat="25.237822" lon="101.147073">
<time>2016-04-06T11:50:12Z</time></trkpt>
<trkpt lat="25.237891" lon="101.146823">
<time>2016-04-06T11:50:13Z</time></trkpt>
<trkpt lat="25.237971" lon="101.146633">
<time>2016-04-06T11:50:14Z</time></trkpt>
<trkpt lat="25.238101" lon="101.146422">
<time>2016-04-06T11:50:15Z</time></trkpt>
<trkpt lat="25.2383" lon="101.146162">
<time>2016-04-06T11:50:16Z</time></trkpt>
<trkpt lat="25.23845" lon="101.145902">
<time>2016-04-06T11:50:17Z</time></trkpt>
<trkpt lat="25.2385" lon="101.145772">
<time>2016-04-06T11:50:18Z</time></trkpt>
<trkpt lat="25.238519" lon="101.145631">
<time>2016-04-06T11:50:19Z</time></trkpt>
<trkpt lat="25.238549" lon="101.145401">
<time>2016-04-06T11:50:20Z</time></trkpt>
<trkpt lat="25.238549" lon="101.145371">
<time>2016-04-06T11:50:21Z</time></trkpt>
<trkpt lat="25.238549" lon="101.145371">
<time>2016-04-06T11:50:22Z</time></trkpt>
<trkpt lat="25.238617" lon="101.14429">
<time>2016-04-06T11:50:23Z</time></trkpt>
<trkpt lat="25.238667" lon="101.144029">
<time>2016-04-06T11:50:24Z</time></trkpt>
<trkpt lat="25.238736" lon="101.143729">
<time>2016-04-06T11:50:25Z</time></trkpt>
<trkpt lat="25.238856" lon="101.143348">
<time>2016-04-06T11:50:26Z</time></trkpt>
<trkpt lat="25.238905" lon="101.143118">
<time>2016-04-06T11:50:27Z</time></trkpt>
<trkpt lat="25.238935" lon="101.142898">
<time>2016-04-06T11:50:28Z</time></trkpt>
<trkpt lat="25.238935" lon="101.142718">
<time>2016-04-06T11:50:29Z</time></trkpt>
<trkpt lat="25.238924" lon="101.142658">
<time>2016-04-06T11:50:30Z</time></trkpt>
<trkpt lat="25.238884" lon="101.142507">
<time>2016-04-06T11:50:31Z</time></trkpt>
<trkpt lat="25.238864" lon="101.142377">
<time>2016-04-06T11:50:32Z</time></trkpt>
<trkpt lat="25.238864" lon="101.142177">
<time>2016-04-06T11:50:33Z</time></trkpt>
<trkpt lat="25.238874" lon="101.142087">
<time>2016-04-06T11:50:34Z</time></trkpt>
<trkpt lat="25.238893" lon="101.141997">
<time>2016-04-06T11:50:35Z</time></trkpt>
<trkpt lat="25.238943" lon="101.141917">
<time>2016-04-06T11:50:36Z</time></trkpt>
<trkpt lat="25.238983" lon="101.141867">
<time>2016-04-06T11:50:37Z</time></trkpt>
<trkpt lat="25.239023" lon="101.141827">
<time>2016-04-06T11:50:38Z</time></trkpt>
<trkpt lat="25.239143" lon="101.141636">
<time>2016-04-06T11:50:39Z</time></trkpt>
<trkpt lat="25.239253" lon="101.141446">
<time>2016-04-06T11:50:40Z</time></trkpt>
<trkpt lat="25.239273" lon="101.141436">
<time>2016-04-06T11:50:41Z</time></trkpt>
<trkpt lat="25.239492" lon="101.141266">
<time>2016-04-06T11:50:42Z</time></trkpt>
<trkpt lat="25.239722" lon="101.141116">
<time>2016-04-06T11:50:43Z</time></trkpt>
<trkpt lat="25.240122" lon="101.140885">
<time>2016-04-06T11:50:44Z</time></trkpt>
<trkpt lat="25.240611" lon="101.140585">
<time>2016-04-06T11:50:45Z</time></trkpt>
<trkpt lat="25.240791" lon="101.140485">
<time>2016-04-06T11:50:46Z</time></trkpt>
<trkpt lat="25.241191" lon="101.140285">
<time>2016-04-06T11:50:47Z</time></trkpt>
<trkpt lat="25.24189" lon="101.139894">
<time>2016-04-06T11:50:48Z</time></trkpt>
<trkpt lat="25.24214" lon="101.139754">
<time>2016-04-06T11:50:49Z</time></trkpt>
<trkpt lat="25.24239" lon="101.139634">
<time>2016-04-06T11:50:50Z</time></trkpt>
<trkpt lat="25.24256" lon="101.139524">
<time>2016-04-06T11:50:51Z</time></trkpt>
<trkpt lat="25.242769" lon="101.139333">
<time>2016-04-06T11:50:52Z</time></trkpt>
<trkpt lat="25.242849" lon="101.139233">
<time>2016-04-06T11:50:53Z</time></trkpt>
<trkpt lat="25.242989" lon="101.139003">
<time>2016-04-06T11:50:54Z</time></trkpt>
<trkpt lat="25.243069" lon="101.138823">
<time>2016-04-06T11:50:55Z</time></trkpt>
<trkpt lat="25.243118" lon="101.138633">
<time>2016-04-06T11:50:56Z</time></trkpt>
<trkpt lat="25.243148" lon="101.138492">
<time>2016-04-06T11:50:57Z</time></trkpt>
<trkpt lat="25.243178" lon="101.138332">
<time>2016-04-06T11:50:58Z</time></trkpt>
<trkpt lat="25.243197" lon="101.138052">
<time>2016-04-06T11:50:59Z</time></trkpt>
<trkpt lat="25.243207" lon="101.137852">
<time>2016-04-06T11:51:00Z</time></trkpt>
<trkpt lat="25.243247" lon="101.137481">
<time>2016-04-06T11:51:01Z</time></trkpt>
<trkpt lat="25.243306" lon="101.137081">
<time>2016-04-06T11:51:02Z</time></trkpt>
<trkpt lat="25.243365" lon="101.13653">
<time>2016-04-06T11:51:03Z</time></trkpt>
<trkpt lat="25.243405" lon="101.13618">
<time>2016-04-06T11:51:04Z</time></trkpt>
<trkpt lat="25.243444" lon="101.13586">
<time>2016-04-06T11:51:05Z</time></trkpt>
<trkpt lat="25.243504" lon="101.135509">
<time>2016-04-06T11:51:06Z</time></trkpt>
<trkpt lat="25.243543" lon="101.135279">
<time>2016-04-06T11:51:07Z</time></trkpt>
<trkpt lat="25.243573" lon="101.135209">
<time>2016-04-06T11:51:08Z</time></trkpt>
<trkpt lat="25.243593" lon="101.135169">
<time>2016-04-06T11:51:09Z</time></trkpt>
<trkpt lat="25.243893" lon="101.135029">
<time>2016-04-06T11:51:10Z</time></trkpt>
<trkpt lat="25.243913" lon="101.135029">
<time>2016-04-06T11:51:11Z</time></trkpt>
<trkpt lat="25.243933" lon="101.135039">
<time>2016-04-06T11:51:12Z</time></trkpt>
<trkpt lat="25.243993" lon="101.135099">
<time>2016-04-06T11:51:13Z</time></trkpt>
<trkpt lat="25.243993" lon="101.135099">
<time>2016-04-06T11:51:14Z</time></trkpt>
<trkpt lat="25.244013" lon="101.135069">
<time>2016-04-06T11:51:15Z</time></trkpt>
<trkpt lat="25.244043" lon="101.135029">
<time>2016-04-06T11:51:16Z</time></trkpt>
<trkpt lat="25.244183" lon="101.134839">
<time>2016-04-06T11:51:17Z</time></trkpt>
<trkpt lat="25.244263" lon="101.134728">
<time>2016-04-06T11:51:18Z</time></trkpt>
<trkpt lat="25.244333" lon="101.134618">
<time>2016-04-06T11:51:19Z</time></trkpt>
<trkpt lat="25.244392" lon="101.134518">
<time>2016-04-06T11:51:20Z</time></trkpt>
<trkpt lat="25.244452" lon="101.134428">
<time>2016-04-06T11:51:21Z</time></trkpt>
<trkpt lat="25.244502" lon="101.134378">
<time>2016-04-06T11:51:22Z</time></trkpt>
<trkpt lat="25.244542" lon="101.134338">
<time>2016-04-06T11:51:23Z</time></trkpt>
<trkpt lat="25.244572" lon="101.134318">
<time>2016-04-06T11:51:24Z</time></trkpt>
<trkpt lat="25.244612" lon="101.134288">
<time>2016-04-06T11:51:25Z</time></trkpt>
<trkpt lat="25.244652" lon="101.134258">
<time>2016-04-06T11:51:26Z</time></trkpt>
<trkpt lat="25.244692" lon="101.134248">
<time>2016-04-06T11:51:27Z</time></trkpt>
<trkpt lat="25.244722" lon="101.134238">
<time>2016-04-06T11:51:28Z</time></trkpt>
<trkpt lat="25.244762" lon="101.134238">
<time>2016-04-06T11:51:29Z</time></trkpt>
<trkpt lat="25.244792" lon="101.134238">
<time>2016-04-06T11:51:30Z</time></trkpt>
<trkpt lat="25.244862" lon="101.134248">
<time>2016-04-06T11:51:31Z</time></trkpt>
<trkpt lat="25.244942" lon="101.134258">
<time>2016-04-06T11:51:32Z</time></trkpt>
<trkpt lat="25.245022" lon="101.134278">
<time>2016-04-06T11:51:33Z</time></trkpt>
<trkpt lat="25.245132" lon="101.134318">
<time>2016-04-06T11:51:34Z</time></trkpt>
<trkpt lat="25.245582" lon="101.134478">
<time>2016-04-06T11:51:35Z</time></trkpt>
<trkpt lat="25.245692" lon="101.134498">
<time>2016-04-06T11:51:36Z</time></trkpt>
<trkpt lat="25.245802" lon="101.134518">
<time>2016-04-06T11:51:37Z</time></trkpt>
<trkpt lat="25.245882" lon="101.134518">
<time>2016-04-06T11:51:38Z</time></trkpt>
<trkpt lat="25.245982" lon="101.134508">
<time>2016-04-06T11:51:39Z</time></trkpt>
<trkpt lat="25.246082" lon="101.134478">
<time>2016-04-06T11:51:40Z</time></trkpt>
<trkpt lat="25.246442" lon="101.134338">
<time>2016-04-06T11:51:41Z</time></trkpt>
<trkpt lat="25.246762" lon="101.134248">
<time>2016-04-06T11:51:42Z</time></trkpt>
<trkpt lat="25.247062" lon="101.134188">
<time>2016-04-06T11:51:43Z</time></trkpt>
<trkpt lat="25.247212" lon="101.134168">
<time>2016-04-06T11:51:44Z</time></trkpt>
<trkpt lat="25.247412" lon="101.134138">
<time>2016-04-06T11:51:45Z</time></trkpt>
<trkpt lat="25.247552" lon="101.134108">
<time>2016-04-06T11:51:46Z</time></trkpt>
<trkpt lat="25.247682" lon="101.134078">
<time>2016-04-06T11:51:47Z</time></trkpt>
<trkpt lat="25.247802" lon="101.134048">
<time>2016-04-06T11:51:48Z</time></trkpt>
<trkpt lat="25.247912" lon="101.134018">
<time>2016-04-06T11:51:49Z</time></trkpt>
<trkpt lat="25.248102" lon="101.133948">
<time>2016-04-06T11:51:50Z</time></trkpt>
<trkpt lat="25.248272" lon="101.133877">
<time>2016-04-06T11:51:51Z</time></trkpt>
<trkpt lat="25.248381" lon="101.133807">
<time>2016-04-06T11:51:52Z</time></trkpt>
<trkpt lat="25.248471" lon="101.133747">
<time>2016-04-06T11:51:53Z</time></trkpt>
<trkpt lat="25.248531" lon="101.133697">
<time>2016-04-06T11:51:54Z</time></trkpt>
<trkpt lat="25.248611" lon="101.133627">
<time>2016-04-06T11:51:55Z</time></trkpt>
<trkpt lat="25.248671" lon="101.133557">
<time>2016-04-06T11:51:56Z</time></trkpt>
<trkpt lat="25.248721" lon="101.133497">
<time>2016-04-06T11:51:57Z</time></trkpt>
<trkpt lat="25.248761" lon="101.133437">
<time>2016-04-06T11:51:58Z</time></trkpt>
<trkpt lat="25.248801" lon="101.133377">
<time>2016-04-06T11:51:59Z</time></trkpt>
<trkpt lat="25.248951" lon="101.133097">
<time>2016-04-06T11:52:00Z</time></trkpt>
<trkpt lat="25.24917" lon="101.132676">
<time>2016-04-06T11:52:01Z</time></trkpt>
<trkpt lat="25.24927" lon="101.132466">
<time>2016-04-06T11:52:02Z</time></trkpt>
<trkpt lat="25.249379" lon="101.132296">
<time>2016-04-06T11:52:03Z</time></trkpt>
<trkpt lat="25.249459" lon="101.132156">
<time>2016-04-06T11:52:04Z</time></trkpt>
<trkpt lat="25.249549" lon="101.132036">
<time>2016-04-06T11:52:05Z</time></trkpt>
<trkpt lat="25.249649" lon="101.131895">
<time>2016-04-06T11:52:06Z</time></trkpt>
<trkpt lat="25.249799" lon="101.131705">
<time>2016-04-06T11:52:07Z</time></trkpt>
<trkpt lat="25.249929" lon="101.131575">
<time>2016-04-06T11:52:08Z</time></trkpt>
<trkpt lat="25.249958" lon="101.131545">
<time>2016-04-06T11:52:09Z</time></trkpt>
<trkpt lat="25.250018" lon="101.131495">
<time>2016-04-06T11:52:10Z</time></trkpt>
<trkpt lat="25.250048" lon="101.131455">
<time>2016-04-06T11:52:11Z</time></trkpt>
<trkpt lat="25.250138" lon="101.131385">
<time>2016-04-06T11:52:12Z</time></trkpt>
<trkpt lat="25.250288" lon="101.131285">
<time>2016-04-06T11:52:13Z</time></trkpt>
<trkpt lat="25.250548" lon="101.131125">
<time>2016-04-06T11:52:14Z</time></trkpt>
<trkpt lat="25.250868" lon="101.130955">
<time>2016-04-06T11:52:15Z</time></trkpt>
<trkpt lat="25.251397" lon="101.130684">
<time>2016-04-06T11:52:16Z</time></trkpt>
<trkpt lat="25.252057" lon="101.130324">
<time>2016-04-06T11:52:17Z</time></trkpt>
<trkpt lat="25.252357" lon="101.130164">
<time>2016-04-06T11:52:18Z</time></trkpt>
<trkpt lat="25.252587" lon="101.130024">
<time>2016-04-06T11:52:19Z</time></trkpt>
<trkpt lat="25.252776" lon="101.129904">
<time>2016-04-06T11:52:20Z</time></trkpt>
<trkpt lat="25.253096" lon="101.129683">
<time>2016-04-06T11:52:21Z</time></trkpt>
<trkpt lat="25.253146" lon="101.129653">
<time>2016-04-06T11:52:22Z</time></trkpt>
<trkpt lat="25.253446" lon="101.129463">
<time>2016-04-06T11:52:23Z</time></trkpt>
<trkpt lat="25.253726" lon="101.129283">
<time>2016-04-06T11:52:24Z</time></trkpt>
<trkpt lat="25.253985" lon="101.129093">
<time>2016-04-06T11:52:25Z</time></trkpt>
<trkpt lat="25.254255" lon="101.128883">
<time>2016-04-06T11:52:26Z</time></trkpt>
<trkpt lat="25.254615" lon="101.128602">
<time>2016-04-06T11:52:27Z</time></trkpt>
<trkpt lat="25.255474" lon="101.127902">
<time>2016-04-06T11:52:28Z</time></trkpt>
<trkpt lat="25.255844" lon="101.127602">
<time>2016-04-06T11:52:29Z</time></trkpt>
<trkpt lat="25.255934" lon="101.127522">
<time>2016-04-06T11:52:30Z</time></trkpt>
<trkpt lat="25.256023" lon="101.127451">
<time>2016-04-06T11:52:31Z</time></trkpt>
<trkpt lat="25.256093" lon="101.127361">
<time>2016-04-06T11:52:32Z</time></trkpt>
<trkpt lat="25.256163" lon="101.127281">
<time>2016-04-06T11:52:33Z</time></trkpt>
<trkpt lat="25.256213" lon="101.127221">
<time>2016-04-06T11:52:34Z</time></trkpt>
<trkpt lat="25.256253" lon="101.127161">
<time>2016-04-06T11:52:35Z</time></trkpt>
<trkpt lat="25.256293" lon="101.127111">
<time>2016-04-06T11:52:36Z</time></trkpt>
<trkpt lat="25.256323" lon="101.127041">
<time>2016-04-06T11:52:37Z</time></trkpt>
<trkpt lat="25.256363" lon="101.126961">
<time>2016-04-06T11:52:38Z</time></trkpt>
<trkpt lat="25.256383" lon="101.126881">
<time>2016-04-06T11:52:39Z</time></trkpt>
<trkpt lat="25.256423" lon="101.126771">
<time>2016-04-06T11:52:40Z</time></trkpt>
<trkpt lat="25.256443" lon="101.126621">
<time>2016-04-06T11:52:41Z</time></trkpt>
<trkpt lat="25.256462" lon="101.126401">
<time>2016-04-06T11:52:42Z</time></trkpt>
<trkpt lat="25.256462" lon="101.126281">
<time>2016-04-06T11:52:43Z</time></trkpt>
<trkpt lat="25.256481" lon="101.12567">
<time>2016-04-06T11:52:44Z</time></trkpt>
<trkpt lat="25.256501" lon="101.12502">
<time>2016-04-06T11:52:45Z</time></trkpt>
<trkpt lat="25.256559" lon="101.123238">
<time>2016-04-06T11:52:46Z</time></trkpt>
<trkpt lat="25.256588" lon="101.122308">
<time>2016-04-06T11:52:47Z</time></trkpt>
<trkpt lat="25.256597" lon="101.121738">
<time>2016-04-06T11:52:48Z</time></trkpt>
<trkpt lat="25.256587" lon="101.121487">
<time>2016-04-06T11:52:49Z</time></trkpt>
<trkpt lat="25.256587" lon="101.121477">
<time>2016-04-06T11:52:50Z</time></trkpt>
<trkpt lat="25.256577" lon="101.121317">
<time>2016-04-06T11:52:51Z</time></trkpt>
<trkpt lat="25.256517" lon="101.121017">
<time>2016-04-06T11:52:52Z</time></trkpt>
<trkpt lat="25.256486" lon="101.120837">
<time>2016-04-06T11:52:53Z</time></trkpt>
<trkpt lat="25.256476" lon="101.120687">
<time>2016-04-06T11:52:54Z</time></trkpt>
<trkpt lat="25.256506" lon="101.120547">
<time>2016-04-06T11:52:55Z</time></trkpt>
<trkpt lat="25.256546" lon="101.120457">
<time>2016-04-06T11:52:56Z</time></trkpt>
<trkpt lat="25.256706" lon="101.120167">
<time>2016-04-06T11:52:57Z</time></trkpt>
<trkpt lat="25.258623" lon="101.116775">
<time>2016-04-06T11:52:58Z</time></trkpt>
<trkpt lat="25.258772" lon="101.116455">
<time>2016-04-06T11:52:59Z</time></trkpt>
<trkpt lat="25.258932" lon="101.116075">
<time>2016-04-06T11:53:00Z</time></trkpt>
<trkpt lat="25.25978" lon="101.113604">
<time>2016-04-06T11:53:01Z</time></trkpt>
<trkpt lat="25.26017" lon="101.112424">
<time>2016-04-06T11:53:02Z</time></trkpt>
<trkpt lat="25.260239" lon="101.112194">
<time>2016-04-06T11:53:03Z</time></trkpt>
<trkpt lat="25.260259" lon="101.112024">
<time>2016-04-06T11:53:04Z</time></trkpt>
<trkpt lat="25.260249" lon="101.111824">
<time>2016-04-06T11:53:05Z</time></trkpt>
<trkpt lat="25.260219" lon="101.111654">
<time>2016-04-06T11:53:06Z</time></trkpt>
<trkpt lat="25.260179" lon="101.111504">
<time>2016-04-06T11:53:07Z</time></trkpt>
<trkpt lat="25.260119" lon="101.111384">
<time>2016-04-06T11:53:08Z</time></trkpt>
<trkpt lat="25.260029" lon="101.111234">
<time>2016-04-06T11:53:09Z</time></trkpt>
<trkpt lat="25.258988" lon="101.109753">
<time>2016-04-06T11:53:10Z</time></trkpt>
<trkpt lat="25.258938" lon="101.109643">
<time>2016-04-06T11:53:11Z</time></trkpt>
<trkpt lat="25.258908" lon="101.109553">
<time>2016-04-06T11:53:12Z</time></trkpt>
<trkpt lat="25.258888" lon="101.109473">
<time>2016-04-06T11:53:13Z</time></trkpt>
<trkpt lat="25.258888" lon="101.109383">
<time>2016-04-06T11:53:14Z</time></trkpt>
<trkpt lat="25.258898" lon="101.109283">
<time>2016-04-06T11:53:15Z</time></trkpt>
<trkpt lat="25.258928" lon="101.109193">
<time>2016-04-06T11:53:16Z</time></trkpt>
<trkpt lat="25.258968" lon="101.109093">
<time>2016-04-06T11:53:17Z</time></trkpt>
<trkpt lat="25.259417" lon="101.108413">
<time>2016-04-06T11:53:18Z</time></trkpt>
<trkpt lat="25.259477" lon="101.108343">
<time>2016-04-06T11:53:19Z</time></trkpt>
<trkpt lat="25.260027" lon="101.107713">
<time>2016-04-06T11:53:20Z</time></trkpt>
<trkpt lat="25.260187" lon="101.107543">
<time>2016-04-06T11:53:21Z</time></trkpt>
<trkpt lat="25.260377" lon="101.107383">
<time>2016-04-06T11:53:22Z</time></trkpt>
<trkpt lat="25.260557" lon="101.107263">
<time>2016-04-06T11:53:23Z</time></trkpt>
<trkpt lat="25.260947" lon="101.107063">
<time>2016-04-06T11:53:24Z</time></trkpt>
<trkpt lat="25.261357" lon="101.106853">
<time>2016-04-06T11:53:25Z</time></trkpt>
<trkpt lat="25.261456" lon="101.106813">
<time>2016-04-06T11:53:26Z</time></trkpt>
<trkpt lat="25.261526" lon="101.106773">
<time>2016-04-06T11:53:27Z</time></trkpt>
<trkpt lat="25.261586" lon="101.106763">
<time>2016-04-06T11:53:28Z</time></trkpt>
<trkpt lat="25.261656" lon="101.106743">
<time>2016-04-06T11:53:29Z</time></trkpt>
<trkpt lat="25.261736" lon="101.106733">
<time>2016-04-06T11:53:30Z</time></trkpt>
<trkpt lat="25.261816" lon="101.106723">
<time>2016-04-06T11:53:31Z</time></trkpt>
<trkpt lat="25.262716" lon="101.106633">
<time>2016-04-06T11:53:32Z</time></trkpt>
<trkpt lat="25.262846" lon="101.106603">
<time>2016-04-06T11:53:33Z</time></trkpt>
<trkpt lat="25.262946" lon="101.106573">
<time>2016-04-06T11:53:34Z</time></trkpt>
<trkpt lat="25.263036" lon="101.106533">
<time>2016-04-06T11:53:35Z</time></trkpt>
<trkpt lat="25.263116" lon="101.106463">
<time>2016-04-06T11:53:36Z</time></trkpt>
<trkpt lat="25.263196" lon="101.106383">
<time>2016-04-06T11:53:37Z</time></trkpt>
<trkpt lat="25.263306" lon="101.106253">
<time>2016-04-06T11:53:38Z</time></trkpt>
<trkpt lat="25.263406" lon="101.106113">
<time>2016-04-06T11:53:39Z</time></trkpt>
<trkpt lat="25.264995" lon="101.103444">
<time>2016-04-06T11:53:40Z</time></trkpt>
<trkpt lat="25.265065" lon="101.103344">
<time>2016-04-06T11:53:41Z</time></trkpt>
<trkpt lat="25.265455" lon="101.102844">
<time>2016-04-06T11:53:42Z</time></trkpt>
<trkpt lat="25.265625" lon="101.102634">
<time>2016-04-06T11:53:43Z</time></trkpt>
<trkpt lat="25.265805" lon="101.102454">
<time>2016-04-06T11:53:44Z</time></trkpt>
<trkpt lat="25.265995" lon="101.102304">
<time>2016-04-06T11:53:45Z</time></trkpt>
<trkpt lat="25.266285" lon="101.102094">
<time>2016-04-06T11:53:46Z</time></trkpt>
<trkpt lat="25.266835" lon="101.101754">
<time>2016-04-06T11:53:47Z</time></trkpt>
<trkpt lat="25.267135" lon="101.101614">
<time>2016-04-06T11:53:48Z</time></trkpt>
<trkpt lat="25.267255" lon="101.101554">
<time>2016-04-06T11:53:49Z</time></trkpt>
<trkpt lat="25.267355" lon="101.101474">
<time>2016-04-06T11:53:50Z</time></trkpt>
<trkpt lat="25.267505" lon="101.101324">
<time>2016-04-06T11:53:51Z</time></trkpt>
<trkpt lat="25.267885" lon="101.100904">
<time>2016-04-06T11:53:52Z</time></trkpt>
<trkpt lat="25.268275" lon="101.100414">
<time>2016-04-06T11:53:53Z</time></trkpt>
<trkpt lat="25.268465" lon="101.100105">
<time>2016-04-06T11:53:54Z</time></trkpt>
<trkpt lat="25.268605" lon="101.099845">
<time>2016-04-06T11:53:55Z</time></trkpt>
<trkpt lat="25.268725" lon="101.099555">
<time>2016-04-06T11:53:56Z</time></trkpt>
<trkpt lat="25.268795" lon="101.099295">
<time>2016-04-06T11:53:57Z</time></trkpt>
<trkpt lat="25.268885" lon="101.098945">
<time>2016-04-06T11:53:58Z</time></trkpt>
<trkpt lat="25.268935" lon="101.098705">
<time>2016-04-06T11:53:59Z</time></trkpt>
<trkpt lat="25.268985" lon="101.098555">
<time>2016-04-06T11:54:00Z</time></trkpt>
<trkpt lat="25.269035" lon="101.098455">
<time>2016-04-06T11:54:01Z</time></trkpt>
<trkpt lat="25.269105" lon="101.098335">
<time>2016-04-06T11:54:02Z</time></trkpt>
<trkpt lat="25.269385" lon="101.098025">
<time>2016-04-06T11:54:03Z</time></trkpt>
<trkpt lat="25.269935" lon="101.097406">
<time>2016-04-06T11:54:04Z</time></trkpt>
<trkpt lat="25.270065" lon="101.097236">
<time>2016-04-06T11:54:05Z</time></trkpt>
<trkpt lat="25.270165" lon="101.097066">
<time>2016-04-06T11:54:06Z</time></trkpt>
<trkpt lat="25.270325" lon="101.096746">
<time>2016-04-06T11:54:07Z</time></trkpt>
<trkpt lat="25.270415" lon="101.096546">
<time>2016-04-06T11:54:08Z</time></trkpt>
<trkpt lat="25.270495" lon="101.096406">
<time>2016-04-06T11:54:09Z</time></trkpt>
<trkpt lat="25.270555" lon="101.096286">
<time>2016-04-06T11:54:10Z</time></trkpt>
<trkpt lat="25.270625" lon="101.096186">
<time>2016-04-06T11:54:11Z</time></trkpt>
<trkpt lat="25.270675" lon="101.096126">
<time>2016-04-06T11:54:12Z</time></trkpt>
<trkpt lat="25.270755" lon="101.096066">
<time>2016-04-06T11:54:13Z</time></trkpt>
<trkpt lat="25.270825" lon="101.096036">
<time>2016-04-06T11:54:14Z</time></trkpt>
<trkpt lat="25.270875" lon="101.096026">
<time>2016-04-06T11:54:15Z</time></trkpt>
<trkpt lat="25.270925" lon="101.096016">
<time>2016-04-06T11:54:16Z</time></trkpt>
<trkpt lat="25.271005" lon="101.096016">
<time>2016-04-06T11:54:17Z</time></trkpt>
<trkpt lat="25.271075" lon="101.096026">
<time>2016-04-06T11:54:18Z</time></trkpt>
<trkpt lat="25.271185" lon="101.096046">
<time>2016-04-06T11:54:19Z</time></trkpt>
<trkpt lat="25.271195" lon="101.096056">
<time>2016-04-06T11:54:20Z</time></trkpt>
<trkpt lat="25.271435" lon="101.096126">
<time>2016-04-06T11:54:21Z</time></trkpt>
<trkpt lat="25.271655" lon="101.096176">
<time>2016-04-06T11:54:22Z</time></trkpt>
<trkpt lat="25.271785" lon="101.096196">
<time>2016-04-06T11:54:23Z</time></trkpt>
<trkpt lat="25.271935" lon="101.096196">
<time>2016-04-06T11:54:24Z</time></trkpt>
<trkpt lat="25.272205" lon="101.096186">
<time>2016-04-06T11:54:25Z</time></trkpt>
<trkpt lat="25.273015" lon="101.096046">
<time>2016-04-06T11:54:26Z</time></trkpt>
<trkpt lat="25.273395" lon="101.095956">
<time>2016-04-06T11:54:27Z</time></trkpt>
<trkpt lat="25.274085" lon="101.095726">
<time>2016-04-06T11:54:28Z</time></trkpt>
<trkpt lat="25.274675" lon="101.095507">
<time>2016-04-06T11:54:29Z</time></trkpt>
<trkpt lat="25.274825" lon="101.095437">
<time>2016-04-06T11:54:30Z</time></trkpt>
<trkpt lat="25.274925" lon="101.095377">
<time>2016-04-06T11:54:31Z</time></trkpt>
<trkpt lat="25.275005" lon="101.095307">
<time>2016-04-06T11:54:32Z</time></trkpt>
<trkpt lat="25.275135" lon="101.095197">
<time>2016-04-06T11:54:33Z</time></trkpt>
<trkpt lat="25.275305" lon="101.094997">
<time>2016-04-06T11:54:34Z</time></trkpt>
<trkpt lat="25.275365" lon="101.094927">
<time>2016-04-06T11:54:35Z</time></trkpt>
<trkpt lat="25.275515" lon="101.094747">
<time>2016-04-06T11:54:36Z</time></trkpt>
<trkpt lat="25.276005" lon="101.094107">
<time>2016-04-06T11:54:37Z</time></trkpt>
<trkpt lat="25.276065" lon="101.094017">
<time>2016-04-06T11:54:38Z</time></trkpt>
<trkpt lat="25.276105" lon="101.093948">
<time>2016-04-06T11:54:39Z</time></trkpt>
<trkpt lat="25.276155" lon="101.093838">
<time>2016-04-06T11:54:40Z</time></trkpt>
<trkpt lat="25.276265" lon="101.093558">
<time>2016-04-06T11:54:41Z</time></trkpt>
<trkpt lat="25.276365" lon="101.093268">
<time>2016-04-06T11:54:42Z</time></trkpt>
<trkpt lat="25.276385" lon="101.093218">
<time>2016-04-06T11:54:43Z</time></trkpt>
<trkpt lat="25.276415" lon="101.093158">
<time>2016-04-06T11:54:44Z</time></trkpt>
<trkpt lat="25.276445" lon="101.093118">
<time>2016-04-06T11:54:45Z</time></trkpt>
<trkpt lat="25.276485" lon="101.093068">
<time>2016-04-06T11:54:46Z</time></trkpt>
<trkpt lat="25.276535" lon="101.093038">
<time>2016-04-06T11:54:47Z</time></trkpt>
<trkpt lat="25.276575" lon="101.092998">
<time>2016-04-06T11:54:48Z</time></trkpt>
<trkpt lat="25.276665" lon="101.092948">
<time>2016-04-06T11:54:49Z</time></trkpt>
<trkpt lat="25.276755" lon="101.092908">
<time>2016-04-06T11:54:50Z</time></trkpt>
<trkpt lat="25.276855" lon="101.092878">
<time>2016-04-06T11:54:51Z</time></trkpt>
<trkpt lat="25.276935" lon="101.092848">
<time>2016-04-06T11:54:52Z</time></trkpt>
<trkpt lat="25.276995" lon="101.092838">
<time>2016-04-06T11:54:53Z</time></trkpt>
<trkpt lat="25.277065" lon="101.092828">
<time>2016-04-06T11:54:54Z</time></trkpt>
<trkpt lat="25.277125" lon="101.092818">
<time>2016-04-06T11:54:55Z</time></trkpt>
<trkpt lat="25.277185" lon="101.092818">
<time>2016-04-06T11:54:56Z</time></trkpt>
<trkpt lat="25.277255" lon="101.092828">
<time>2016-04-06T11:54:57Z</time></trkpt>
<trkpt lat="25.277325" lon="101.092848">
<time>2016-04-06T11:54:58Z</time></trkpt>
<trkpt lat="25.277435" lon="101.092878">
<time>2016-04-06T11:54:59Z</time></trkpt>
<trkpt lat="25.277765" lon="101.092948">
<time>2016-04-06T11:55:00Z</time></trkpt>
<trkpt lat="25.278085" lon="101.092998">
<time>2016-04-06T11:55:01Z</time></trkpt>
<trkpt lat="25.278515" lon="101.093068">
<time>2016-04-06T11:55:02Z</time></trkpt>
<trkpt lat="25.279045" lon="101.093148">
<time>2016-04-06T11:55:03Z</time></trkpt>
<trkpt lat="25.279585" lon="101.093238">
<time>2016-04-06T11:55:04Z</time></trkpt>
<trkpt lat="25.279695" lon="101.093258">
<time>2016-04-06T11:55:05Z</time></trkpt>
<trkpt lat="25.279805" lon="101.093258">
<time>2016-04-06T11:55:06Z</time></trkpt>
<trkpt lat="25.279935" lon="101.093248">
<time>2016-04-06T11:55:07Z</time></trkpt>
<trkpt lat="25.280085" lon="101.093228">
<time>2016-04-06T11:55:08Z</time></trkpt>
<trkpt lat="25.280225" lon="101.093188">
<time>2016-04-06T11:55:09Z</time></trkpt>
<trkpt lat="25.280435" lon="101.093118">
<time>2016-04-06T11:55:10Z</time></trkpt>
<trkpt lat="25.280745" lon="101.092988">
<time>2016-04-06T11:55:11Z</time></trkpt>
<trkpt lat="25.280905" lon="101.092908">
<time>2016-04-06T11:55:12Z</time></trkpt>
<trkpt lat="25.281125" lon="101.092778">
<time>2016-04-06T11:55:13Z</time></trkpt>
<trkpt lat="25.281365" lon="101.092608">
<time>2016-04-06T11:55:14Z</time></trkpt>
<trkpt lat="25.281636" lon="101.092408">
<time>2016-04-06T11:55:15Z</time></trkpt>
<trkpt lat="25.281766" lon="101.092319">
<time>2016-04-06T11:55:16Z</time></trkpt>
<trkpt lat="25.281856" lon="101.092239">
<time>2016-04-06T11:55:17Z</time></trkpt>
<trkpt lat="25.281926" lon="101.092179">
<time>2016-04-06T11:55:18Z</time></trkpt>
<trkpt lat="25.281996" lon="101.092099">
<time>2016-04-06T11:55:19Z</time></trkpt>
<trkpt lat="25.282056" lon="101.091999">
<time>2016-04-06T11:55:20Z</time></trkpt>
<trkpt lat="25.282106" lon="101.091879">
<time>2016-04-06T11:55:21Z</time></trkpt>
<trkpt lat="25.282186" lon="101.091689">
<time>2016-04-06T11:55:22Z</time></trkpt>
<trkpt lat="25.282266" lon="101.091459">
<time>2016-04-06T11:55:23Z</time></trkpt>
<trkpt lat="25.282296" lon="101.091359">
<time>2016-04-06T11:55:24Z</time></trkpt>
<trkpt lat="25.282316" lon="101.091219">
<time>2016-04-06T11:55:25Z</time></trkpt>
<trkpt lat="25.282356" lon="101.091">
<time>2016-04-06T11:55:26Z</time></trkpt>
<trkpt lat="25.282416" lon="101.09056">
<time>2016-04-06T11:55:27Z</time></trkpt>
<trkpt lat="25.282416" lon="101.09049">
<time>2016-04-06T11:55:28Z</time></trkpt>
<trkpt lat="25.282436" lon="101.09043">
<time>2016-04-06T11:55:29Z</time></trkpt>
<trkpt lat="25.282446" lon="101.09038">
<time>2016-04-06T11:55:30Z</time></trkpt>
<trkpt lat="25.282466" lon="101.09034">
<time>2016-04-06T11:55:31Z</time></trkpt>
<trkpt lat="25.282486" lon="101.09029">
<time>2016-04-06T11:55:32Z</time></trkpt>
<trkpt lat="25.282506" lon="101.09026">
<time>2016-04-06T11:55:33Z</time></trkpt>
<trkpt lat="25.282536" lon="101.09024">
<time>2016-04-06T11:55:34Z</time></trkpt>
<trkpt lat="25.282566" lon="101.09021">
<time>2016-04-06T11:55:35Z</time></trkpt>
<trkpt lat="25.282586" lon="101.09019">
<time>2016-04-06T11:55:36Z</time></trkpt>
<trkpt lat="25.282616" lon="101.09018">
<time>2016-04-06T11:55:37Z</time></trkpt>
<trkpt lat="25.282656" lon="101.09017">
<time>2016-04-06T11:55:38Z</time></trkpt>
<trkpt lat="25.282706" lon="101.09015">
<time>2016-04-06T11:55:39Z</time></trkpt>
<trkpt lat="25.282766" lon="101.09014">
<time>2016-04-06T11:55:40Z</time></trkpt>
<trkpt lat="25.282916" lon="101.09011">
<time>2016-04-06T11:55:41Z</time></trkpt>
<trkpt lat="25.283006" lon="101.09009">
<time>2016-04-06T11:55:42Z</time></trkpt>
<trkpt lat="25.283086" lon="101.09007">
<time>2016-04-06T11:55:43Z</time></trkpt>
<trkpt lat="25.283156" lon="101.09004">
<time>2016-04-06T11:55:44Z</time></trkpt>
<trkpt lat="25.283236" lon="101.09001">
<time>2016-04-06T11:55:45Z</time></trkpt>
<trkpt lat="25.283286" lon="101.08997">
<time>2016-04-06T11:55:46Z</time></trkpt>
<trkpt lat="25.283326" lon="101.08994">
<time>2016-04-06T11:55:47Z</time></trkpt>
<trkpt lat="25.283366" lon="101.08992">
<time>2016-04-06T11:55:48Z</time></trkpt>
<trkpt lat="25.283406" lon="101.08989">
<time>2016-04-06T11:55:49Z</time></trkpt>
<trkpt lat="25.283456" lon="101.08985">
<time>2016-04-06T11:55:50Z</time></trkpt>
<trkpt lat="25.283486" lon="101.089811">
<time>2016-04-06T11:55:51Z</time></trkpt>
<trkpt lat="25.283836" lon="101.089441">
<time>2016-04-06T11:55:52Z</time></trkpt>
<trkpt lat="25.283886" lon="101.089411">
<time>2016-04-06T11:55:53Z</time></trkpt>
<trkpt lat="25.283936" lon="101.089381">
<time>2016-04-06T11:55:54Z</time></trkpt>
<trkpt lat="25.283986" lon="101.089361">
<time>2016-04-06T11:55:55Z</time></trkpt>
<trkpt lat="25.284026" lon="101.089351">
<time>2016-04-06T11:55:56Z</time></trkpt>
<trkpt lat="25.284076" lon="101.089341">
<time>2016-04-06T11:55:57Z</time></trkpt>
<trkpt lat="25.284116" lon="101.089331">
<time>2016-04-06T11:55:58Z</time></trkpt>
<trkpt lat="25.284156" lon="101.089341">
<time>2016-04-06T11:55:59Z</time></trkpt>
<trkpt lat="25.284216" lon="101.089361">
<time>2016-04-06T11:56:00Z</time></trkpt>
<trkpt lat="25.284266" lon="101.089381">
<time>2016-04-06T11:56:01Z</time></trkpt>
<trkpt lat="25.284316" lon="101.089401">
<time>2016-04-06T11:56:02Z</time></trkpt>
<trkpt lat="25.284366" lon="101.089441">
<time>2016-04-06T11:56:03Z</time></trkpt>
<trkpt lat="25.284546" lon="101.089541">
<time>2016-04-06T11:56:04Z</time></trkpt>
<trkpt lat="25.284606" lon="101.089561">
<time>2016-04-06T11:56:05Z</time></trkpt>
<trkpt lat="25.284666" lon="101.089581">
<time>2016-04-06T11:56:06Z</time></trkpt>
<trkpt lat="25.284726" lon="101.089601">
<time>2016-04-06T11:56:07Z</time></trkpt>
<trkpt lat="25.284816" lon="101.089611">
<time>2016-04-06T11:56:08Z</time></trkpt>
<trkpt lat="25.284906" lon="101.089611">
<time>2016-04-06T11:56:09Z</time></trkpt>
<trkpt lat="25.285336" lon="101.089611">
<time>2016-04-06T11:56:10Z</time></trkpt>
<trkpt lat="25.285466" lon="101.089621">
<time>2016-04-06T11:56:11Z</time></trkpt>
<trkpt lat="25.285586" lon="101.089631">
<time>2016-04-06T11:56:12Z</time></trkpt>
<trkpt lat="25.286116" lon="101.08975">
<time>2016-04-06T11:56:13Z</time></trkpt>
<trkpt lat="25.286196" lon="101.08975">
<time>2016-04-06T11:56:14Z</time></trkpt>
<trkpt lat="25.286256" lon="101.08975">
<time>2016-04-06T11:56:15Z</time></trkpt>
<trkpt lat="25.286326" lon="101.08974">
<time>2016-04-06T11:56:16Z</time></trkpt>
<trkpt lat="25.286376" lon="101.089721">
<time>2016-04-06T11:56:17Z</time></trkpt>
<trkpt lat="25.286396" lon="101.089711">
<time>2016-04-06T11:56:18Z</time></trkpt>
<trkpt lat="25.286436" lon="101.089681">
<time>2016-04-06T11:56:19Z</time></trkpt>
<trkpt lat="25.286496" lon="101.089651">
<time>2016-04-06T11:56:20Z</time></trkpt>
<trkpt lat="25.287017" lon="101.089251">
<time>2016-04-06T11:56:21Z</time></trkpt>
<trkpt lat="25.287417" lon="101.088981">
<time>2016-04-06T11:56:22Z</time></trkpt>
<trkpt lat="25.287567" lon="101.088891">
<time>2016-04-06T11:56:23Z</time></trkpt>
<trkpt lat="25.287787" lon="101.088751">
<time>2016-04-06T11:56:24Z</time></trkpt>
<trkpt lat="25.287847" lon="101.088721">
<time>2016-04-06T11:56:25Z</time></trkpt>
<trkpt lat="25.287907" lon="101.088661">
<time>2016-04-06T11:56:26Z</time></trkpt>
<trkpt lat="25.287957" lon="101.088601">
<time>2016-04-06T11:56:27Z</time></trkpt>
<trkpt lat="25.288007" lon="101.088542">
<time>2016-04-06T11:56:28Z</time></trkpt>
<trkpt lat="25.288047" lon="101.088482">
<time>2016-04-06T11:56:29Z</time></trkpt>
<trkpt lat="25.288227" lon="101.088152">
<time>2016-04-06T11:56:30Z</time></trkpt>
<trkpt lat="25.288337" lon="101.087932">
<time>2016-04-06T11:56:31Z</time></trkpt>
<trkpt lat="25.288387" lon="101.087852">
<time>2016-04-06T11:56:32Z</time></trkpt>
<trkpt lat="25.288427" lon="101.087792">
<time>2016-04-06T11:56:33Z</time></trkpt>
<trkpt lat="25.288487" lon="101.087732">
<time>2016-04-06T11:56:34Z</time></trkpt>
<trkpt lat="25.288557" lon="101.087672">
<time>2016-04-06T11:56:35Z</time></trkpt>
<trkpt lat="25.289318" lon="101.086963">
<time>2016-04-06T11:56:36Z</time></trkpt>
<trkpt lat="25.289378" lon="101.086913">
<time>2016-04-06T11:56:37Z</time></trkpt>
<trkpt lat="25.289448" lon="101.086843">
<time>2016-04-06T11:56:38Z</time></trkpt>
<trkpt lat="25.289498" lon="101.086783">
<time>2016-04-06T11:56:39Z</time></trkpt>
<trkpt lat="25.289548" lon="101.086713">
<time>2016-04-06T11:56:40Z</time></trkpt>
<trkpt lat="25.289598" lon="101.086633">
<time>2016-04-06T11:56:41Z</time></trkpt>
<trkpt lat="25.289638" lon="101.086533">
<time>2016-04-06T11:56:42Z</time></trkpt>
<trkpt lat="25.289958" lon="101.085574">
<time>2016-04-06T11:56:43Z</time></trkpt>
<trkpt lat="25.290058" lon="101.085285">
<time>2016-04-06T11:56:44Z</time></trkpt>
<trkpt lat="25.290119" lon="101.085125">
<time>2016-04-06T11:56:45Z</time></trkpt>
<trkpt lat="25.290179" lon="101.085025">
<time>2016-04-06T11:56:46Z</time></trkpt>
<trkpt lat="25.290259" lon="101.084915">
<time>2016-04-06T11:56:47Z</time></trkpt>
<trkpt lat="25.290309" lon="101.084835">
<time>2016-04-06T11:56:48Z</time></trkpt>
<trkpt lat="25.290379" lon="101.084765">
<time>2016-04-06T11:56:49Z</time></trkpt>
<trkpt lat="25.290479" lon="101.084685">
<time>2016-04-06T11:56:50Z</time></trkpt>
<trkpt lat="25.291079" lon="101.084256">
<time>2016-04-06T11:56:51Z</time></trkpt>
<trkpt lat="25.291129" lon="101.084226">
<time>2016-04-06T11:56:52Z</time></trkpt>
<trkpt lat="25.291169" lon="101.084216">
<time>2016-04-06T11:56:53Z</time></trkpt>
<trkpt lat="25.291209" lon="101.084206">
<time>2016-04-06T11:56:54Z</time></trkpt>
<trkpt lat="25.291249" lon="101.084196">
<time>2016-04-06T11:56:55Z</time></trkpt>
<trkpt lat="25.291269" lon="101.084206">
<time>2016-04-06T11:56:56Z</time></trkpt>
<trkpt lat="25.291299" lon="101.084206">
<time>2016-04-06T11:56:57Z</time></trkpt>
<trkpt lat="25.291329" lon="101.084216">
<time>2016-04-06T11:56:58Z</time></trkpt>
<trkpt lat="25.291359" lon="101.084226">
<time>2016-04-06T11:56:59Z</time></trkpt>
<trkpt lat="25.291389" lon="101.084246">
<time>2016-04-06T11:57:00Z</time></trkpt>
<trkpt lat="25.291409" lon="101.084256">
<time>2016-04-06T11:57:01Z</time></trkpt>
<trkpt lat="25.291429" lon="101.084276">
<time>2016-04-06T11:57:02Z</time></trkpt>
<trkpt lat="25.291449" lon="101.084306">
<time>2016-04-06T11:57:03Z</time></trkpt>
<trkpt lat="25.291469" lon="101.084336">
<time>2016-04-06T11:57:04Z</time></trkpt>
<trkpt lat="25.291479" lon="101.084356">
<time>2016-04-06T11:57:05Z</time></trkpt>
<trkpt lat="25.291489" lon="101.084386">
<time>2016-04-06T11:57:06Z</time></trkpt>
<trkpt lat="25.291509" lon="101.084416">
<time>2016-04-06T11:57:07Z</time></trkpt>
<trkpt lat="25.291509" lon="101.084466">
<time>2016-04-06T11:57:08Z</time></trkpt>
<trkpt lat="25.291509" lon="101.084486">
<time>2016-04-06T11:57:09Z</time></trkpt>
<trkpt lat="25.291519" lon="101.084506">
<time>2016-04-06T11:57:10Z</time></trkpt>
<trkpt lat="25.291509" lon="101.084536">
<time>2016-04-06T11:57:11Z</time></trkpt>
<trkpt lat="25.291509" lon="101.084566">
<time>2016-04-06T11:57:12Z</time></trkpt>
<trkpt lat="25.291499" lon="101.084586">
<time>2016-04-06T11:57:13Z</time></trkpt>
<trkpt lat="25.291339" lon="101.085195">
<time>2016-04-06T11:57:14Z</time></trkpt>
<trkpt lat="25.291329" lon="101.085285">
<time>2016-04-06T11:57:15Z</time></trkpt>
<trkpt lat="25.291308" lon="101.085385">
<time>2016-04-06T11:57:16Z</time></trkpt>
<trkpt lat="25.291288" lon="101.085544">
<time>2016-04-06T11:57:17Z</time></trkpt>
<trkpt lat="25.291288" lon="101.085654">
<time>2016-04-06T11:57:18Z</time></trkpt>
<trkpt lat="25.291288" lon="101.085724">
<time>2016-04-06T11:57:19Z</time></trkpt>
<trkpt lat="25.291308" lon="101.085774">
<time>2016-04-06T11:57:20Z</time></trkpt>
<trkpt lat="25.291328" lon="101.085814">
<time>2016-04-06T11:57:21Z</time></trkpt>
<trkpt lat="25.291358" lon="101.085844">
<time>2016-04-06T11:57:22Z</time></trkpt>
<trkpt lat="25.291388" lon="101.085864">
<time>2016-04-06T11:57:23Z</time></trkpt>
<trkpt lat="25.291418" lon="101.085874">
<time>2016-04-06T11:57:24Z</time></trkpt>
<trkpt lat="25.291448" lon="101.085884">
<time>2016-04-06T11:57:25Z</time></trkpt>
<trkpt lat="25.291478" lon="101.085884">
<time>2016-04-06T11:57:26Z</time></trkpt>
<trkpt lat="25.291518" lon="101.085884">
<time>2016-04-06T11:57:27Z</time></trkpt>
<trkpt lat="25.291548" lon="101.085874">
<time>2016-04-06T11:57:28Z</time></trkpt>
<trkpt lat="25.291578" lon="101.085854">
<time>2016-04-06T11:57:29Z</time></trkpt>
<trkpt lat="25.291608" lon="101.085834">
<time>2016-04-06T11:57:30Z</time></trkpt>
<trkpt lat="25.291628" lon="101.085814">
<time>2016-04-06T11:57:31Z</time></trkpt>
<trkpt lat="25.291658" lon="101.085764">
<time>2016-04-06T11:57:32Z</time></trkpt>
<trkpt lat="25.291698" lon="101.085694">
<time>2016-04-06T11:57:33Z</time></trkpt>
<trkpt lat="25.291718" lon="101.085614">
<time>2016-04-06T11:57:34Z</time></trkpt>
<trkpt lat="25.291839" lon="101.085255">
<time>2016-04-06T11:57:35Z</time></trkpt>
<trkpt lat="25.291889" lon="101.085135">
<time>2016-04-06T11:57:36Z</time></trkpt>
<trkpt lat="25.291979" lon="101.084975">
<time>2016-04-06T11:57:37Z</time></trkpt>
<trkpt lat="25.292059" lon="101.084865">
<time>2016-04-06T11:57:38Z</time></trkpt>
<trkpt lat="25.292139" lon="101.084795">
<time>2016-04-06T11:57:39Z</time></trkpt>
<trkpt lat="25.292269" lon="101.084705">
<time>2016-04-06T11:57:40Z</time></trkpt>
<trkpt lat="25.292549" lon="101.084566">
<time>2016-04-06T11:57:41Z</time></trkpt>
<trkpt lat="25.292599" lon="101.084526">
<time>2016-04-06T11:57:42Z</time></trkpt>
<trkpt lat="25.292649" lon="101.084486">
<time>2016-04-06T11:57:43Z</time></trkpt>
<trkpt lat="25.292679" lon="101.084436">
<time>2016-04-06T11:57:44Z</time></trkpt>
<trkpt lat="25.292709" lon="101.084376">
<time>2016-04-06T11:57:45Z</time></trkpt>
<trkpt lat="25.292719" lon="101.084326">
<time>2016-04-06T11:57:46Z</time></trkpt>
<trkpt lat="25.292769" lon="101.083976">
<time>2016-04-06T11:57:47Z</time></trkpt>
<trkpt lat="25.292779" lon="101.083896">
<time>2016-04-06T11:57:48Z</time></trkpt>
<trkpt lat="25.292799" lon="101.083816">
<time>2016-04-06T11:57:49Z</time></trkpt>
<trkpt lat="25.292819" lon="101.083756">
<time>2016-04-06T11:57:50Z</time></trkpt>
<trkpt lat="25.292839" lon="101.083697">
<time>2016-04-06T11:57:51Z</time></trkpt>
<trkpt lat="25.29287" lon="101.083647">
<time>2016-04-06T11:57:52Z</time></trkpt>
<trkpt lat="25.29292" lon="101.083597">
<time>2016-04-06T11:57:53Z</time></trkpt>
<trkpt lat="25.29299" lon="101.083537">
<time>2016-04-06T11:57:54Z</time></trkpt>
<trkpt lat="25.29307" lon="101.083467">
<time>2016-04-06T11:57:55Z</time></trkpt>
<trkpt lat="25.29322" lon="101.083367">
<time>2016-04-06T11:57:56Z</time></trkpt>
<trkpt lat="25.29369" lon="101.083067">
<time>2016-04-06T11:57:57Z</time></trkpt>
<trkpt lat="25.29384" lon="101.082997">
<time>2016-04-06T11:57:58Z</time></trkpt>
<trkpt lat="25.29395" lon="101.082977">
<time>2016-04-06T11:57:59Z</time></trkpt>
<trkpt lat="25.29404" lon="101.082977">
<time>2016-04-06T11:58:00Z</time></trkpt>
<trkpt lat="25.29414" lon="101.083007">
<time>2016-04-06T11:58:01Z</time></trkpt>
<trkpt lat="25.29423" lon="101.083077">
<time>2016-04-06T11:58:02Z</time></trkpt>
<trkpt lat="25.29431" lon="101.083177">
<time>2016-04-06T11:58:03Z</time></trkpt>
<trkpt lat="25.29437" lon="101.083317">
<time>2016-04-06T11:58:04Z</time></trkpt>
<trkpt lat="25.294529" lon="101.083936">
<time>2016-04-06T11:58:05Z</time></trkpt>
<trkpt lat="25.294559" lon="101.084056">
<time>2016-04-06T11:58:06Z</time></trkpt>
<trkpt lat="25.294579" lon="101.084126">
<time>2016-04-06T11:58:07Z</time></trkpt>
<trkpt lat="25.294609" lon="101.084196">
<time>2016-04-06T11:58:08Z</time></trkpt>
<trkpt lat="25.294629" lon="101.084256">
<time>2016-04-06T11:58:09Z</time></trkpt>
<trkpt lat="25.294659" lon="101.084306">
<time>2016-04-06T11:58:10Z</time></trkpt>
<trkpt lat="25.294699" lon="101.084356">
<time>2016-04-06T11:58:11Z</time></trkpt>
<trkpt lat="25.294739" lon="101.084396">
<time>2016-04-06T11:58:12Z</time></trkpt>
<trkpt lat="25.294779" lon="101.084416">
<time>2016-04-06T11:58:13Z</time></trkpt>
<trkpt lat="25.294809" lon="101.084436">
<time>2016-04-06T11:58:14Z</time></trkpt>
<trkpt lat="25.294839" lon="101.084436">
<time>2016-04-06T11:58:15Z</time></trkpt>
<trkpt lat="25.294869" lon="101.084436">
<time>2016-04-06T11:58:16Z</time></trkpt>
<trkpt lat="25.294909" lon="101.084436">
<time>2016-04-06T11:58:17Z</time></trkpt>
<trkpt lat="25.294949" lon="101.084416">
<time>2016-04-06T11:58:18Z</time></trkpt>
<trkpt lat="25.294979" lon="101.084406">
<time>2016-04-06T11:58:19Z</time></trkpt>
<trkpt lat="25.295019" lon="101.084376">
<time>2016-04-06T11:58:20Z</time></trkpt>
<trkpt lat="25.295039" lon="101.084346">
<time>2016-04-06T11:58:21Z</time></trkpt>
<trkpt lat="25.295069" lon="101.084306">
<time>2016-04-06T11:58:22Z</time></trkpt>
<trkpt lat="25.295089" lon="101.084276">
<time>2016-04-06T11:58:23Z</time></trkpt>
<trkpt lat="25.295109" lon="101.084196">
<time>2016-04-06T11:58:24Z</time></trkpt>
<trkpt lat="25.295129" lon="101.084106">
<time>2016-04-06T11:58:25Z</time></trkpt>
<trkpt lat="25.295139" lon="101.084006">
<time>2016-04-06T11:58:26Z</time></trkpt>
<trkpt lat="25.29516" lon="101.083417">
<time>2016-04-06T11:58:27Z</time></trkpt>
<trkpt lat="25.29519" lon="101.083257">
<time>2016-04-06T11:58:28Z</time></trkpt>
<trkpt lat="25.29523" lon="101.083117">
<time>2016-04-06T11:58:29Z</time></trkpt>
<trkpt lat="25.29529" lon="101.082997">
<time>2016-04-06T11:58:30Z</time></trkpt>
<trkpt lat="25.29539" lon="101.082907">
<time>2016-04-06T11:58:31Z</time></trkpt>
<trkpt lat="25.29548" lon="101.082828">
<time>2016-04-06T11:58:32Z</time></trkpt>
<trkpt lat="25.29556" lon="101.082748">
<time>2016-04-06T11:58:33Z</time></trkpt>
<trkpt lat="25.29561" lon="101.082698">
<time>2016-04-06T11:58:34Z</time></trkpt>
<trkpt lat="25.29563" lon="101.082658">
<time>2016-04-06T11:58:35Z</time></trkpt>
<trkpt lat="25.29565" lon="101.082628">
<time>2016-04-06T11:58:36Z</time></trkpt>
<trkpt lat="25.29566" lon="101.082578">
<time>2016-04-06T11:58:37Z</time></trkpt>
<trkpt lat="25.29567" lon="101.082528">
<time>2016-04-06T11:58:38Z</time></trkpt>
<trkpt lat="25.29568" lon="101.082458">
<time>2016-04-06T11:58:39Z</time></trkpt>
<trkpt lat="25.295671" lon="101.082198">
<time>2016-04-06T11:58:40Z</time></trkpt>
<trkpt lat="25.295641" lon="101.081819">
<time>2016-04-06T11:58:41Z</time></trkpt>
<trkpt lat="25.295621" lon="101.081709">
<time>2016-04-06T11:58:42Z</time></trkpt>
<trkpt lat="25.295621" lon="101.081669">
<time>2016-04-06T11:58:43Z</time></trkpt>
<trkpt lat="25.295621" lon="101.081619">
<time>2016-04-06T11:58:44Z</time></trkpt>
<trkpt lat="25.295621" lon="101.081579">
<time>2016-04-06T11:58:45Z</time></trkpt>
<trkpt lat="25.295631" lon="101.081539">
<time>2016-04-06T11:58:46Z</time></trkpt>
<trkpt lat="25.295631" lon="101.081499">
<time>2016-04-06T11:58:47Z</time></trkpt>
<trkpt lat="25.295631" lon="101.081459">
<time>2016-04-06T11:58:48Z</time></trkpt>
<trkpt lat="25.295651" lon="101.081419">
<time>2016-04-06T11:58:49Z</time></trkpt>
<trkpt lat="25.295661" lon="101.081389">
<time>2016-04-06T11:58:50Z</time></trkpt>
<trkpt lat="25.295681" lon="101.081369">
<time>2016-04-06T11:58:51Z</time></trkpt>
<trkpt lat="25.295691" lon="101.081349">
<time>2016-04-06T11:58:52Z</time></trkpt>
<trkpt lat="25.295711" lon="101.081339">
<time>2016-04-06T11:58:53Z</time></trkpt>
<trkpt lat="25.295721" lon="101.081329">
<time>2016-04-06T11:58:54Z</time></trkpt>
<trkpt lat="25.295741" lon="101.081319">
<time>2016-04-06T11:58:55Z</time></trkpt>
<trkpt lat="25.295761" lon="101.081319">
<time>2016-04-06T11:58:56Z</time></trkpt>
<trkpt lat="25.295781" lon="101.081309">
<time>2016-04-06T11:58:57Z</time></trkpt>
<trkpt lat="25.295801" lon="101.081309">
<time>2016-04-06T11:58:58Z</time></trkpt>
<trkpt lat="25.295821" lon="101.081309">
<time>2016-04-06T11:58:59Z</time></trkpt>
<trkpt lat="25.295851" lon="101.081309">
<time>2016-04-06T11:59:00Z</time></trkpt>
<trkpt lat="25.295871" lon="101.081309">
<time>2016-04-06T11:59:01Z</time></trkpt>
<trkpt lat="25.295891" lon="101.081319">
<time>2016-04-06T11:59:02Z</time></trkpt>
<trkpt lat="25.295911" lon="101.081329">
<time>2016-04-06T11:59:03Z</time></trkpt>
<trkpt lat="25.295931" lon="101.081329">
<time>2016-04-06T11:59:04Z</time></trkpt>
<trkpt lat="25.295951" lon="101.081339">
<time>2016-04-06T11:59:05Z</time></trkpt>
<trkpt lat="25.296251" lon="101.081489">
<time>2016-04-06T11:59:06Z</time></trkpt>
<trkpt lat="25.296331" lon="101.081509">
<time>2016-04-06T11:59:07Z</time></trkpt>
<trkpt lat="25.296431" lon="101.081529">
<time>2016-04-06T11:59:08Z</time></trkpt>
<trkpt lat="25.296511" lon="101.081519">
<time>2016-04-06T11:59:09Z</time></trkpt>
<trkpt lat="25.296591" lon="101.081489">
<time>2016-04-06T11:59:10Z</time></trkpt>
<trkpt lat="25.296641" lon="101.081459">
<time>2016-04-06T11:59:11Z</time></trkpt>
<trkpt lat="25.296671" lon="101.081429">
<time>2016-04-06T11:59:12Z</time></trkpt>
<trkpt lat="25.296721" lon="101.081369">
<time>2016-04-06T11:59:13Z</time></trkpt>
<trkpt lat="25.296751" lon="101.081319">
<time>2016-04-06T11:59:14Z</time></trkpt>
<trkpt lat="25.296781" lon="101.081239">
<time>2016-04-06T11:59:15Z</time></trkpt>
<trkpt lat="25.296791" lon="101.08118">
<time>2016-04-06T11:59:16Z</time></trkpt>
<trkpt lat="25.296791" lon="101.08111">
<time>2016-04-06T11:59:17Z</time></trkpt>
<trkpt lat="25.296781" lon="101.08106">
<time>2016-04-06T11:59:18Z</time></trkpt>
<trkpt lat="25.296732" lon="101.08081">
<time>2016-04-06T11:59:19Z</time></trkpt>
<trkpt lat="25.296722" lon="101.08071">
<time>2016-04-06T11:59:20Z</time></trkpt>
<trkpt lat="25.296732" lon="101.08064">
<time>2016-04-06T11:59:21Z</time></trkpt>
<trkpt lat="25.296742" lon="101.08057">
<time>2016-04-06T11:59:22Z</time></trkpt>
<trkpt lat="25.296762" lon="101.08053">
<time>2016-04-06T11:59:23Z</time></trkpt>
<trkpt lat="25.296902" lon="101.080271">
<time>2016-04-06T11:59:24Z</time></trkpt>
<trkpt lat="25.296922" lon="101.080221">
<time>2016-04-06T11:59:25Z</time></trkpt>
<trkpt lat="25.296942" lon="101.080171">
<time>2016-04-06T11:59:26Z</time></trkpt>
<trkpt lat="25.296952" lon="101.080131">
<time>2016-04-06T11:59:27Z</time></trkpt>
<trkpt lat="25.296962" lon="101.080101">
<time>2016-04-06T11:59:28Z</time></trkpt>
<trkpt lat="25.296962" lon="101.080061">
<time>2016-04-06T11:59:29Z</time></trkpt>
<trkpt lat="25.296962" lon="101.080011">
<time>2016-04-06T11:59:30Z</time></trkpt>
<trkpt lat="25.296952" lon="101.079961">
<time>2016-04-06T11:59:31Z</time></trkpt>
<trkpt lat="25.296922" lon="101.079831">
<time>2016-04-06T11:59:32Z</time></trkpt>
<trkpt lat="25.296892" lon="101.079732">
<time>2016-04-06T11:59:33Z</time></trkpt>
<trkpt lat="25.296882" lon="101.079672">
<time>2016-04-06T11:59:34Z</time></trkpt>
<trkpt lat="25.296882" lon="101.079622">
<time>2016-04-06T11:59:35Z</time></trkpt>
<trkpt lat="25.296883" lon="101.079572">
<time>2016-04-06T11:59:36Z</time></trkpt>
<trkpt lat="25.296893" lon="101.079522">
<time>2016-04-06T11:59:37Z</time></trkpt>
<trkpt lat="25.296913" lon="101.079452">
<time>2016-04-06T11:59:38Z</time></trkpt>
<trkpt lat="25.296933" lon="101.079382">
<time>2016-04-06T11:59:39Z</time></trkpt>
<trkpt lat="25.297243" lon="101.078813">
<time>2016-04-06T11:59:40Z</time></trkpt>
<trkpt lat="25.297273" lon="101.078773">
<time>2016-04-06T11:59:41Z</time></trkpt>
<trkpt lat="25.297303" lon="101.078733">
<time>2016-04-06T11:59:42Z</time></trkpt>
<trkpt lat="25.297333" lon="101.078703">
<time>2016-04-06T11:59:43Z</time></trkpt>
<trkpt lat="25.297373" lon="101.078673">
<time>2016-04-06T11:59:44Z</time></trkpt>
<trkpt lat="25.297403" lon="101.078663">
<time>2016-04-06T11:59:45Z</time></trkpt>
<trkpt lat="25.297433" lon="101.078653">
<time>2016-04-06T11:59:46Z</time></trkpt>
<trkpt lat="25.297473" lon="101.078643">
<time>2016-04-06T11:59:47Z</time></trkpt>
<trkpt lat="25.297503" lon="101.078653">
<time>2016-04-06T11:59:48Z</time></trkpt>
<trkpt lat="25.297533" lon="101.078663">
<time>2016-04-06T11:59:49Z</time></trkpt>
<trkpt lat="25.297563" lon="101.078673">
<time>2016-04-06T11:59:50Z</time></trkpt>
<trkpt lat="25.297583" lon="101.078693">
<time>2016-04-06T11:59:51Z</time></trkpt>
<trkpt lat="25.297603" lon="101.078713">
<time>2016-04-06T11:59:52Z</time></trkpt>
<trkpt lat="25.297633" lon="101.078753">
<time>2016-04-06T11:59:53Z</time></trkpt>
<trkpt lat="25.297663" lon="101.078793">
<time>2016-04-06T11:59:54Z</time></trkpt>
<trkpt lat="25.297733" lon="101.078923">
<time>2016-04-06T11:59:55Z</time></trkpt>
<trkpt lat="25.297803" lon="101.079112">
<time>2016-04-06T11:59:56Z</time></trkpt>
<trkpt lat="25.297873" lon="101.079312">
<time>2016-04-06T11:59:57Z</time></trkpt>
<trkpt lat="25.297923" lon="101.079402">
<time>2016-04-06T11:59:58Z</time></trkpt>
<trkpt lat="25.297973" lon="101.079462">
<time>2016-04-06T11:59:59Z</time></trkpt>
<trkpt lat="25.298013" lon="101.079482">
<time>2016-04-06T12:00:00Z</time></trkpt>
<trkpt lat="25.298063" lon="101.079492">
<time>2016-04-06T12:00:01Z</time></trkpt>
<trkpt lat="25.298093" lon="101.079492">
<time>2016-04-06T12:00:02Z</time></trkpt>
<trkpt lat="25.298143" lon="101.079492">
<time>2016-04-06T12:00:03Z</time></trkpt>
<trkpt lat="25.298173" lon="101.079482">
<time>2016-04-06T12:00:04Z</time></trkpt>
<trkpt lat="25.298213" lon="101.079472">
<time>2016-04-06T12:00:05Z</time></trkpt>
<trkpt lat="25.298253" lon="101.079452">
<time>2016-04-06T12:00:06Z</time></trkpt>
<trkpt lat="25.298283" lon="101.079422">
<time>2016-04-06T12:00:07Z</time></trkpt>
<trkpt lat="25.298313" lon="101.079392">
<time>2016-04-06T12:00:08Z</time></trkpt>
<trkpt lat="25.298343" lon="101.079352">
<time>2016-04-06T12:00:09Z</time></trkpt>
<trkpt lat="25.298363" lon="101.079322">
<time>2016-04-06T12:00:10Z</time></trkpt>
<trkpt lat="25.298383" lon="101.079272">
<time>2016-04-06T12:00:11Z</time></trkpt>
<trkpt lat="25.298393" lon="101.079232">
<time>2016-04-06T12:00:12Z</time></trkpt>
<trkpt lat="25.298413" lon="101.079142">
<time>2016-04-06T12:00:13Z</time></trkpt>
<trkpt lat="25.298423" lon="101.078953">
<time>2016-04-06T12:00:14Z</time></trkpt>
<trkpt lat="25.298443" lon="101.078853">
<time>2016-04-06T12:00:15Z</time></trkpt>
<trkpt lat="25.298473" lon="101.078773">
<time>2016-04-06T12:00:16Z</time></trkpt>
<trkpt lat="25.298513" lon="101.078693">
<time>2016-04-06T12:00:17Z</time></trkpt>
<trkpt lat="25.298573" lon="101.078603">
<time>2016-04-06T12:00:18Z</time></trkpt>
<trkpt lat="25.298764" lon="101.078383">
<time>2016-04-06T12:00:19Z</time></trkpt>
<trkpt lat="25.298844" lon="101.078274">
<time>2016-04-06T12:00:20Z</time></trkpt>
<trkpt lat="25.298904" lon="101.078164">
<time>2016-04-06T12:00:21Z</time></trkpt>
<trkpt lat="25.299044" lon="101.077714">
<time>2016-04-06T12:00:22Z</time></trkpt>
<trkpt lat="25.299074" lon="101.077624">
<time>2016-04-06T12:00:23Z</time></trkpt>
<trkpt lat="25.299114" lon="101.077565">
<time>2016-04-06T12:00:24Z</time></trkpt>
<trkpt lat="25.299134" lon="101.077525">
<time>2016-04-06T12:00:25Z</time></trkpt>
<trkpt lat="25.299164" lon="101.077495">
<time>2016-04-06T12:00:26Z</time></trkpt>
<trkpt lat="25.299204" lon="101.077465">
<time>2016-04-06T12:00:27Z</time></trkpt>
<trkpt lat="25.299264" lon="101.077435">
<time>2016-04-06T12:00:28Z</time></trkpt>
<trkpt lat="25.299334" lon="101.077415">
<time>2016-04-06T12:00:29Z</time></trkpt>
<trkpt lat="25.299394" lon="101.077405">
<time>2016-04-06T12:00:30Z</time></trkpt>
<trkpt lat="25.299745" lon="101.077375">
<time>2016-04-06T12:00:31Z</time></trkpt>
<trkpt lat="25.299945" lon="101.077375">
<time>2016-04-06T12:00:32Z</time></trkpt>
<trkpt lat="25.300065" lon="101.077385">
<time>2016-04-06T12:00:33Z</time></trkpt>
<trkpt lat="25.300165" lon="101.077405">
<time>2016-04-06T12:00:34Z</time></trkpt>
<trkpt lat="25.300265" lon="101.077435">
<time>2016-04-06T12:00:35Z</time></trkpt>
<trkpt lat="25.300564" lon="101.077574">
<time>2016-04-06T12:00:36Z</time></trkpt>
<trkpt lat="25.300864" lon="101.077734">
<time>2016-04-06T12:00:37Z</time></trkpt>
<trkpt lat="25.301024" lon="101.077834">
<time>2016-04-06T12:00:38Z</time></trkpt>
<trkpt lat="25.301114" lon="101.077884">
<time>2016-04-06T12:00:39Z</time></trkpt>
<trkpt lat="25.301174" lon="101.077904">
<time>2016-04-06T12:00:40Z</time></trkpt>
<trkpt lat="25.301224" lon="101.077914">
<time>2016-04-06T12:00:41Z</time></trkpt>
<trkpt lat="25.301284" lon="101.077904">
<time>2016-04-06T12:00:42Z</time></trkpt>
<trkpt lat="25.301334" lon="101.077884">
<time>2016-04-06T12:00:43Z</time></trkpt>
<trkpt lat="25.301374" lon="101.077854">
<time>2016-04-06T12:00:44Z</time></trkpt>
<trkpt lat="25.301414" lon="101.077814">
<time>2016-04-06T12:00:45Z</time></trkpt>
<trkpt lat="25.301444" lon="101.077764">
<time>2016-04-06T12:00:46Z</time></trkpt>
<trkpt lat="25.301474" lon="101.077714">
<time>2016-04-06T12:00:47Z</time></trkpt>
<trkpt lat="25.301494" lon="101.077644">
<time>2016-04-06T12:00:48Z</time></trkpt>
<trkpt lat="25.301504" lon="101.077574">
<time>2016-04-06T12:00:49Z</time></trkpt>
<trkpt lat="25.301495" lon="101.077485">
<time>2016-04-06T12:00:50Z</time></trkpt>
<trkpt lat="25.301395" lon="101.077055">
<time>2016-04-06T12:00:51Z</time></trkpt>
<trkpt lat="25.301385" lon="101.076965">
<time>2016-04-06T12:00:52Z</time></trkpt>
<trkpt lat="25.301385" lon="101.076876">
<time>2016-04-06T12:00:53Z</time></trkpt>
<trkpt lat="25.301395" lon="101.076816">
<time>2016-04-06T12:00:54Z</time></trkpt>
<trkpt lat="25.301415" lon="101.076736">
<time>2016-04-06T12:00:55Z</time></trkpt>
<trkpt lat="25.301445" lon="101.076676">
<time>2016-04-06T12:00:56Z</time></trkpt>
<trkpt lat="25.301485" lon="101.076616">
<time>2016-04-06T12:00:57Z</time></trkpt>
<trkpt lat="25.301535" lon="101.076586">
<time>2016-04-06T12:00:58Z</time></trkpt>
<trkpt lat="25.301585" lon="101.076546">
<time>2016-04-06T12:00:59Z</time></trkpt>
<trkpt lat="25.301645" lon="101.076516">
<time>2016-04-06T12:01:00Z</time></trkpt>
<trkpt lat="25.301936" lon="101.076366">
<time>2016-04-06T12:01:01Z</time></trkpt>
<trkpt lat="25.302006" lon="101.076316">
<time>2016-04-06T12:01:02Z</time></trkpt>
<trkpt lat="25.302056" lon="101.076266">
<time>2016-04-06T12:01:03Z</time></trkpt>
<trkpt lat="25.302096" lon="101.076207">
<time>2016-04-06T12:01:04Z</time></trkpt>
<trkpt lat="25.302126" lon="101.076157">
<time>2016-04-06T12:01:05Z</time></trkpt>
<trkpt lat="25.302146" lon="101.076107">
<time>2016-04-06T12:01:06Z</time></trkpt>
<trkpt lat="25.302166" lon="101.076057">
<time>2016-04-06T12:01:07Z</time></trkpt>
<trkpt lat="25.302186" lon="101.075997">
<time>2016-04-06T12:01:08Z</time></trkpt>
<trkpt lat="25.302196" lon="101.075947">
<time>2016-04-06T12:01:09Z</time></trkpt>
<trkpt lat="25.302206" lon="101.075897">
<time>2016-04-06T12:01:10Z</time></trkpt>
<trkpt lat="25.302216" lon="101.075857">
<time>2016-04-06T12:01:11Z</time></trkpt>
<trkpt lat="25.302216" lon="101.075807">
<time>2016-04-06T12:01:12Z</time></trkpt>
<trkpt lat="25.302226" lon="101.075747">
<time>2016-04-06T12:01:13Z</time></trkpt>
<trkpt lat="25.302226" lon="101.075677">
<time>2016-04-06T12:01:14Z</time></trkpt>
<trkpt lat="25.302216" lon="101.075518">
<time>2016-04-06T12:01:15Z</time></trkpt>
<trkpt lat="25.302187" lon="101.075318">
<time>2016-04-06T12:01:16Z</time></trkpt>
<trkpt lat="25.302177" lon="101.075238">
<time>2016-04-06T12:01:17Z</time></trkpt>
<trkpt lat="25.302167" lon="101.075178">
<time>2016-04-06T12:01:18Z</time></trkpt>
<trkpt lat="25.302147" lon="101.075128">
<time>2016-04-06T12:01:19Z</time></trkpt>
<trkpt lat="25.302127" lon="101.075078">
<time>2016-04-06T12:01:20Z</time></trkpt>
<trkpt lat="25.302107" lon="101.075028">
<time>2016-04-06T12:01:21Z</time></trkpt>
<trkpt lat="25.302077" lon="101.074998">
<time>2016-04-06T12:01:22Z</time></trkpt>
<trkpt lat="25.302037" lon="101.074969">
<time>2016-04-06T12:01:23Z</time></trkpt>
<trkpt lat="25.301997" lon="101.074949">
<time>2016-04-06T12:01:24Z</time></trkpt>
<trkpt lat="25.301937" lon="101.074939">
<time>2016-04-06T12:01:25Z</time></trkpt>
<trkpt lat="25.301877" lon="101.074929">
<time>2016-04-06T12:01:26Z</time></trkpt>
<trkpt lat="25.301667" lon="101.074899">
<time>2016-04-06T12:01:27Z</time></trkpt>
<trkpt lat="25.301607" lon="101.074889">
<time>2016-04-06T12:01:28Z</time></trkpt>
<trkpt lat="25.301547" lon="101.074869">
<time>2016-04-06T12:01:29Z</time></trkpt>
<trkpt lat="25.301477" lon="101.074819">
<time>2016-04-06T12:01:30Z</time></trkpt>
<trkpt lat="25.301427" lon="101.074739">
<time>2016-04-06T12:01:31Z</time></trkpt>
<trkpt lat="25.301387" lon="101.074669">
<time>2016-04-06T12:01:32Z</time></trkpt>
<trkpt lat="25.301367" lon="101.074579">
<time>2016-04-06T12:01:33Z</time></trkpt>
<trkpt lat="25.301367" lon="101.074499">
<time>2016-04-06T12:01:34Z</time></trkpt>
<trkpt lat="25.301398" lon="101.07427">
<time>2016-04-06T12:01:35Z</time></trkpt>
<trkpt lat="25.301438" lon="101.07399">
<time>2016-04-06T12:01:36Z</time></trkpt>
<trkpt lat="25.301498" lon="101.073731">
<time>2016-04-06T12:01:37Z</time></trkpt>
<trkpt lat="25.301578" lon="101.073481">
<time>2016-04-06T12:01:38Z</time></trkpt>
<trkpt lat="25.301679" lon="101.073191">
<time>2016-04-06T12:01:39Z</time></trkpt>
<trkpt lat="25.301729" lon="101.073072">
<time>2016-04-06T12:01:40Z</time></trkpt>
<trkpt lat="25.301809" lon="101.072962">
<time>2016-04-06T12:01:41Z</time></trkpt>
<trkpt lat="25.301889" lon="101.072892">
<time>2016-04-06T12:01:42Z</time></trkpt>
<trkpt lat="25.301999" lon="101.072822">
<time>2016-04-06T12:01:43Z</time></trkpt>
<trkpt lat="25.30305" lon="101.072363">
<time>2016-04-06T12:01:44Z</time></trkpt>
<trkpt lat="25.30314" lon="101.072303">
<time>2016-04-06T12:01:45Z</time></trkpt>
<trkpt lat="25.30319" lon="101.072263">
<time>2016-04-06T12:01:46Z</time></trkpt>
<trkpt lat="25.30322" lon="101.072223">
<time>2016-04-06T12:01:47Z</time></trkpt>
<trkpt lat="25.30324" lon="101.072183">
<time>2016-04-06T12:01:48Z</time></trkpt>
<trkpt lat="25.30327" lon="101.072093">
<time>2016-04-06T12:01:49Z</time></trkpt>
<trkpt lat="25.3033" lon="101.071854">
<time>2016-04-06T12:01:50Z</time></trkpt>
<trkpt lat="25.30332" lon="101.071744">
<time>2016-04-06T12:01:51Z</time></trkpt>
<trkpt lat="25.30335" lon="101.071644">
<time>2016-04-06T12:01:52Z</time></trkpt>
<trkpt lat="25.303381" lon="101.071564">
<time>2016-04-06T12:01:53Z</time></trkpt>
<trkpt lat="25.303431" lon="101.071474">
<time>2016-04-06T12:01:54Z</time></trkpt>
<trkpt lat="25.303501" lon="101.071365">
<time>2016-04-06T12:01:55Z</time></trkpt>
<trkpt lat="25.303581" lon="101.071265">
<time>2016-04-06T12:01:56Z</time></trkpt>
<trkpt lat="25.303671" lon="101.071125">
<time>2016-04-06T12:01:57Z</time></trkpt>
<trkpt lat="25.303741" lon="101.071015">
<time>2016-04-06T12:01:58Z</time></trkpt>
<trkpt lat="25.303791" lon="101.070895">
<time>2016-04-06T12:01:59Z</time></trkpt>
<trkpt lat="25.304152" lon="101.070007">
<time>2016-04-06T12:02:00Z</time></trkpt>
<trkpt lat="25.304243" lon="101.069778">
<time>2016-04-06T12:02:01Z</time></trkpt>
<trkpt lat="25.304323" lon="101.069618">
<time>2016-04-06T12:02:02Z</time></trkpt>
<trkpt lat="25.304373" lon="101.069548">
<time>2016-04-06T12:02:03Z</time></trkpt>
<trkpt lat="25.304423" lon="101.069478">
<time>2016-04-06T12:02:04Z</time></trkpt>
<trkpt lat="25.304473" lon="101.069448">
<time>2016-04-06T12:02:05Z</time></trkpt>
<trkpt lat="25.304493" lon="101.069428">
<time>2016-04-06T12:02:06Z</time></trkpt>
<trkpt lat="25.304583" lon="101.069388">
<time>2016-04-06T12:02:07Z</time></trkpt>
<trkpt lat="25.304703" lon="101.069348">
<time>2016-04-06T12:02:08Z</time></trkpt>
<trkpt lat="25.305023" lon="101.069298">
<time>2016-04-06T12:02:09Z</time></trkpt>
<trkpt lat="25.305973" lon="101.069229">
<time>2016-04-06T12:02:10Z</time></trkpt>
<trkpt lat="25.306074" lon="101.069209">
<time>2016-04-06T12:02:11Z</time></trkpt>
<trkpt lat="25.306164" lon="101.069169">
<time>2016-04-06T12:02:12Z</time></trkpt>
<trkpt lat="25.306244" lon="101.069109">
<time>2016-04-06T12:02:13Z</time></trkpt>
<trkpt lat="25.306254" lon="101.069099">
<time>2016-04-06T12:02:14Z</time></trkpt>
<trkpt lat="25.306324" lon="101.069009">
<time>2016-04-06T12:02:15Z</time></trkpt>
<trkpt lat="25.306374" lon="101.068919">
<time>2016-04-06T12:02:16Z</time></trkpt>
<trkpt lat="25.306575" lon="101.06833">
<time>2016-04-06T12:02:17Z</time></trkpt>
<trkpt lat="25.306675" lon="101.068111">
<time>2016-04-06T12:02:18Z</time></trkpt>
<trkpt lat="25.306765" lon="101.067941">
<time>2016-04-06T12:02:19Z</time></trkpt>
<trkpt lat="25.306845" lon="101.067821">
<time>2016-04-06T12:02:20Z</time></trkpt>
<trkpt lat="25.306925" lon="101.067721">
<time>2016-04-06T12:02:21Z</time></trkpt>
<trkpt lat="25.307006" lon="101.067642">
<time>2016-04-06T12:02:22Z</time></trkpt>
<trkpt lat="25.307076" lon="101.067592">
<time>2016-04-06T12:02:23Z</time></trkpt>
<trkpt lat="25.307216" lon="101.067512">
<time>2016-04-06T12:02:24Z</time></trkpt>
<trkpt lat="25.307336" lon="101.067452">
<time>2016-04-06T12:02:25Z</time></trkpt>
<trkpt lat="25.307396" lon="101.067422">
<time>2016-04-06T12:02:26Z</time></trkpt>
<trkpt lat="25.307446" lon="101.067412">
<time>2016-04-06T12:02:27Z</time></trkpt>
<trkpt lat="25.307546" lon="101.067372">
<time>2016-04-06T12:02:28Z</time></trkpt>
<trkpt lat="25.307716" lon="101.067302">
<time>2016-04-06T12:02:29Z</time></trkpt>
<trkpt lat="25.307816" lon="101.067262">
<time>2016-04-06T12:02:30Z</time></trkpt>
<trkpt lat="25.307896" lon="101.067232">
<time>2016-04-06T12:02:31Z</time></trkpt>
<trkpt lat="25.308006" lon="101.067182">
<time>2016-04-06T12:02:32Z</time></trkpt>
<trkpt lat="25.308086" lon="101.067162">
<time>2016-04-06T12:02:33Z</time></trkpt>
<trkpt lat="25.308186" lon="101.067123">
<time>2016-04-06T12:02:34Z</time></trkpt>
<trkpt lat="25.308266" lon="101.067083">
<time>2016-04-06T12:02:35Z</time></trkpt>
<trkpt lat="25.308316" lon="101.067063">
<time>2016-04-06T12:02:36Z</time></trkpt>
<trkpt lat="25.308356" lon="101.067033">
<time>2016-04-06T12:02:37Z</time></trkpt>
<trkpt lat="25.308387" lon="101.067003">
<time>2016-04-06T12:02:38Z</time></trkpt>
<trkpt lat="25.308427" lon="101.066963">
<time>2016-04-06T12:02:39Z</time></trkpt>
<trkpt lat="25.308437" lon="101.066933">
<time>2016-04-06T12:02:40Z</time></trkpt>
<trkpt lat="25.308457" lon="101.066903">
<time>2016-04-06T12:02:41Z</time></trkpt>
<trkpt lat="25.308467" lon="101.066853">
<time>2016-04-06T12:02:42Z</time></trkpt>
<trkpt lat="25.308477" lon="101.066803">
<time>2016-04-06T12:02:43Z</time></trkpt>
<trkpt lat="25.308477" lon="101.066743">
<time>2016-04-06T12:02:44Z</time></trkpt>
<trkpt lat="25.308467" lon="101.066693">
<time>2016-04-06T12:02:45Z</time></trkpt>
<trkpt lat="25.308457" lon="101.066654">
<time>2016-04-06T12:02:46Z</time></trkpt>
<trkpt lat="25.308437" lon="101.066614">
<time>2016-04-06T12:02:47Z</time></trkpt>
<trkpt lat="25.308407" lon="101.066574">
<time>2016-04-06T12:02:48Z</time></trkpt>
<trkpt lat="25.308377" lon="101.066544">
<time>2016-04-06T12:02:49Z</time></trkpt>
<trkpt lat="25.308357" lon="101.066514">
<time>2016-04-06T12:02:50Z</time></trkpt>
<trkpt lat="25.308317" lon="101.066494">
<time>2016-04-06T12:02:51Z</time></trkpt>
<trkpt lat="25.308287" lon="101.066474">
<time>2016-04-06T12:02:52Z</time></trkpt>
<trkpt lat="25.308237" lon="101.066454">
<time>2016-04-06T12:02:53Z</time></trkpt>
<trkpt lat="25.308137" lon="101.066424">
<time>2016-04-06T12:02:54Z</time></trkpt>
<trkpt lat="25.307947" lon="101.066374">
<time>2016-04-06T12:02:55Z</time></trkpt>
<trkpt lat="25.307897" lon="101.066354">
<time>2016-04-06T12:02:56Z</time></trkpt>
<trkpt lat="25.307847" lon="101.066324">
<time>2016-04-06T12:02:57Z</time></trkpt>
<trkpt lat="25.307817" lon="101.066304">
<time>2016-04-06T12:02:58Z</time></trkpt>
<trkpt lat="25.307787" lon="101.066284">
<time>2016-04-06T12:02:59Z</time></trkpt>
<trkpt lat="25.307757" lon="101.066254">
<time>2016-04-06T12:03:00Z</time></trkpt>
<trkpt lat="25.307738" lon="101.066224">
<time>2016-04-06T12:03:01Z</time></trkpt>
<trkpt lat="25.307698" lon="101.066184">
<time>2016-04-06T12:03:02Z</time></trkpt>
<trkpt lat="25.307678" lon="101.066145">
<time>2016-04-06T12:03:03Z</time></trkpt>
<trkpt lat="25.307628" lon="101.066025">
<time>2016-04-06T12:03:04Z</time></trkpt>
<trkpt lat="25.307598" lon="101.065895">
<time>2016-04-06T12:03:05Z</time></trkpt>
<trkpt lat="25.307509" lon="101.065456">
<time>2016-04-06T12:03:06Z</time></trkpt>
<trkpt lat="25.307389" lon="101.064787">
<time>2016-04-06T12:03:07Z</time></trkpt>
<trkpt lat="25.30737" lon="101.064608">
<time>2016-04-06T12:03:08Z</time></trkpt>
<trkpt lat="25.30736" lon="101.064448">
<time>2016-04-06T12:03:09Z</time></trkpt>
<trkpt lat="25.30736" lon="101.064328">
<time>2016-04-06T12:03:10Z</time></trkpt>
<trkpt lat="25.30736" lon="101.064278">
<time>2016-04-06T12:03:11Z</time></trkpt>
<trkpt lat="25.307371" lon="101.064029">
<time>2016-04-06T12:03:12Z</time></trkpt>
<trkpt lat="25.307401" lon="101.06346">
<time>2016-04-06T12:03:13Z</time></trkpt>
<trkpt lat="25.307412" lon="101.063261">
<time>2016-04-06T12:03:14Z</time></trkpt>
<trkpt lat="25.307412" lon="101.063061">
<time>2016-04-06T12:03:15Z</time></trkpt>
<trkpt lat="25.307392" lon="101.062862">
<time>2016-04-06T12:03:16Z</time></trkpt>
<trkpt lat="25.307343" lon="101.062612">
<time>2016-04-06T12:03:17Z</time></trkpt>
<trkpt lat="25.307263" lon="101.062343">
<time>2016-04-06T12:03:18Z</time></trkpt>
<trkpt lat="25.307124" lon="101.061984">
<time>2016-04-06T12:03:19Z</time></trkpt>
<trkpt lat="25.307104" lon="101.061854">
<time>2016-04-06T12:03:20Z</time></trkpt>
<trkpt lat="25.307094" lon="101.061734">
<time>2016-04-06T12:03:21Z</time></trkpt>
<trkpt lat="25.307094" lon="101.061624">
<time>2016-04-06T12:03:22Z</time></trkpt>
<trkpt lat="25.307114" lon="101.061495">
<time>2016-04-06T12:03:23Z</time></trkpt>
<trkpt lat="25.307135" lon="101.061395">
<time>2016-04-06T12:03:24Z</time></trkpt>
<trkpt lat="25.307165" lon="101.061285">
<time>2016-04-06T12:03:25Z</time></trkpt>
<trkpt lat="25.307195" lon="101.061215">
<time>2016-04-06T12:03:26Z</time></trkpt>
<trkpt lat="25.307225" lon="101.061135">
<time>2016-04-06T12:03:27Z</time></trkpt>
<trkpt lat="25.307255" lon="101.061076">
<time>2016-04-06T12:03:28Z</time></trkpt>
<trkpt lat="25.307295" lon="101.061026">
<time>2016-04-06T12:03:29Z</time></trkpt>
<trkpt lat="25.307335" lon="101.060966">
<time>2016-04-06T12:03:30Z</time></trkpt>
<trkpt lat="25.307395" lon="101.060916">
<time>2016-04-06T12:03:31Z</time></trkpt>
<trkpt lat="25.307455" lon="101.060866">
<time>2016-04-06T12:03:32Z</time></trkpt>
<trkpt lat="25.307896" lon="101.060607">
<time>2016-04-06T12:03:33Z</time></trkpt>
<trkpt lat="25.308096" lon="101.060467">
<time>2016-04-06T12:03:34Z</time></trkpt>
<trkpt lat="25.308186" lon="101.060367">
<time>2016-04-06T12:03:35Z</time></trkpt>
<trkpt lat="25.308216" lon="101.060317">
<time>2016-04-06T12:03:36Z</time></trkpt>
<trkpt lat="25.308236" lon="101.060257">
<time>2016-04-06T12:03:37Z</time></trkpt>
<trkpt lat="25.308246" lon="101.060198">
<time>2016-04-06T12:03:38Z</time></trkpt>
<trkpt lat="25.308247" lon="101.060148">
<time>2016-04-06T12:03:39Z</time></trkpt>
<trkpt lat="25.308227" lon="101.060088">
<time>2016-04-06T12:03:40Z</time></trkpt>
<trkpt lat="25.308207" lon="101.060038">
<time>2016-04-06T12:03:41Z</time></trkpt>
<trkpt lat="25.308167" lon="101.059978">
<time>2016-04-06T12:03:42Z</time></trkpt>
<trkpt lat="25.308117" lon="101.059938">
<time>2016-04-06T12:03:43Z</time></trkpt>
<trkpt lat="25.308067" lon="101.059918">
<time>2016-04-06T12:03:44Z</time></trkpt>
<trkpt lat="25.307987" lon="101.059898">
<time>2016-04-06T12:03:45Z</time></trkpt>
<trkpt lat="25.307887" lon="101.059888">
<time>2016-04-06T12:03:46Z</time></trkpt>
<trkpt lat="25.307787" lon="101.059878">
<time>2016-04-06T12:03:47Z</time></trkpt>
<trkpt lat="25.307697" lon="101.059868">
<time>2016-04-06T12:03:48Z</time></trkpt>
<trkpt lat="25.307627" lon="101.059838">
<time>2016-04-06T12:03:49Z</time></trkpt>
<trkpt lat="25.307587" lon="101.059809">
<time>2016-04-06T12:03:50Z</time></trkpt>
<trkpt lat="25.307547" lon="101.059759">
<time>2016-04-06T12:03:51Z</time></trkpt>
<trkpt lat="25.307517" lon="101.059699">
<time>2016-04-06T12:03:52Z</time></trkpt>
<trkpt lat="25.307507" lon="101.059619">
<time>2016-04-06T12:03:53Z</time></trkpt>
<trkpt lat="25.307517" lon="101.059559">
<time>2016-04-06T12:03:54Z</time></trkpt>
<trkpt lat="25.307548" lon="101.059469">
<time>2016-04-06T12:03:55Z</time></trkpt>
<trkpt lat="25.307568" lon="101.05939">
<time>2016-04-06T12:03:56Z</time></trkpt>
<trkpt lat="25.307698" lon="101.05898">
<time>2016-04-06T12:03:57Z</time></trkpt>
<trkpt lat="25.307739" lon="101.058831">
<time>2016-04-06T12:03:58Z</time></trkpt>
<trkpt lat="25.307749" lon="101.058781">
<time>2016-04-06T12:03:59Z</time></trkpt>
<trkpt lat="25.307749" lon="101.058721">
<time>2016-04-06T12:04:00Z</time></trkpt>
<trkpt lat="25.307749" lon="101.058611">
<time>2016-04-06T12:04:01Z</time></trkpt>
<trkpt lat="25.307739" lon="101.058432">
<time>2016-04-06T12:04:02Z</time></trkpt>
<trkpt lat="25.307739" lon="101.058352">
<time>2016-04-06T12:04:03Z</time></trkpt>
<trkpt lat="25.30774" lon="101.058262">
<time>2016-04-06T12:04:04Z</time></trkpt>
<trkpt lat="25.30775" lon="101.058162">
<time>2016-04-06T12:04:05Z</time></trkpt>
<trkpt lat="25.30781" lon="101.057843">
<time>2016-04-06T12:04:06Z</time></trkpt>
<trkpt lat="25.307901" lon="101.057404">
<time>2016-04-06T12:04:07Z</time></trkpt>
<trkpt lat="25.307962" lon="101.057165">
<time>2016-04-06T12:04:08Z</time></trkpt>
<trkpt lat="25.308002" lon="101.057035">
<time>2016-04-06T12:04:09Z</time></trkpt>
<trkpt lat="25.308042" lon="101.056935">
<time>2016-04-06T12:04:10Z</time></trkpt>
<trkpt lat="25.308082" lon="101.056866">
<time>2016-04-06T12:04:11Z</time></trkpt>
<trkpt lat="25.308122" lon="101.056826">
<time>2016-04-06T12:04:12Z</time></trkpt>
<trkpt lat="25.308162" lon="101.056776">
<time>2016-04-06T12:04:13Z</time></trkpt>
<trkpt lat="25.308242" lon="101.056706">
<time>2016-04-06T12:04:14Z</time></trkpt>
<trkpt lat="25.308363" lon="101.056626">
<time>2016-04-06T12:04:15Z</time></trkpt>
<trkpt lat="25.308403" lon="101.056586">
<time>2016-04-06T12:04:16Z</time></trkpt>
<trkpt lat="25.308443" lon="101.056556">
<time>2016-04-06T12:04:17Z</time></trkpt>
<trkpt lat="25.308483" lon="101.056516">
<time>2016-04-06T12:04:18Z</time></trkpt>
<trkpt lat="25.308503" lon="101.056477">
<time>2016-04-06T12:04:19Z</time></trkpt>
<trkpt lat="25.308513" lon="101.056447">
<time>2016-04-06T12:04:20Z</time></trkpt>
<trkpt lat="25.308523" lon="101.056407">
<time>2016-04-06T12:04:21Z</time></trkpt>
<trkpt lat="25.308533" lon="101.056377">
<time>2016-04-06T12:04:22Z</time></trkpt>
<trkpt lat="25.308533" lon="101.056347">
<time>2016-04-06T12:04:23Z</time></trkpt>
<trkpt lat="25.308523" lon="101.056307">
<time>2016-04-06T12:04:24Z</time></trkpt>
<trkpt lat="25.308503" lon="101.056247">
<time>2016-04-06T12:04:25Z</time></trkpt>
<trkpt lat="25.308463" lon="101.056147">
<time>2016-04-06T12:04:26Z</time></trkpt>
<trkpt lat="25.308404" lon="101.055978">
<time>2016-04-06T12:04:27Z</time></trkpt>
<trkpt lat="25.308384" lon="101.055878">
<time>2016-04-06T12:04:28Z</time></trkpt>
<trkpt lat="25.308374" lon="101.055778">
<time>2016-04-06T12:04:29Z</time></trkpt>
<trkpt lat="25.308374" lon="101.055689">
<time>2016-04-06T12:04:30Z</time></trkpt>
<trkpt lat="25.308374" lon="101.055599">
<time>2016-04-06T12:04:31Z</time></trkpt>
<trkpt lat="25.308375" lon="101.055459">
<time>2016-04-06T12:04:32Z</time></trkpt>
<trkpt lat="25.308395" lon="101.055339">
<time>2016-04-06T12:04:33Z</time></trkpt>
<trkpt lat="25.308405" lon="101.05523">
<time>2016-04-06T12:04:34Z</time></trkpt>
<trkpt lat="25.308435" lon="101.05511">
<time>2016-04-06T12:04:35Z</time></trkpt>
<trkpt lat="25.308546" lon="101.054831">
<time>2016-04-06T12:04:36Z</time></trkpt>
<trkpt lat="25.308666" lon="101.054571">
<time>2016-04-06T12:04:37Z</time></trkpt>
<trkpt lat="25.308706" lon="101.054492">
<time>2016-04-06T12:04:38Z</time></trkpt>
<trkpt lat="25.308757" lon="101.054422">
<time>2016-04-06T12:04:39Z</time></trkpt>
<trkpt lat="25.308807" lon="101.054362">
<time>2016-04-06T12:04:40Z</time></trkpt>
<trkpt lat="25.308867" lon="101.054312">
<time>2016-04-06T12:04:41Z</time></trkpt>
<trkpt lat="25.308957" lon="101.054262">
<time>2016-04-06T12:04:42Z</time></trkpt>
<trkpt lat="25.309057" lon="101.054222">
<time>2016-04-06T12:04:43Z</time></trkpt>
<trkpt lat="25.309177" lon="101.054202">
<time>2016-04-06T12:04:44Z</time></trkpt>
<trkpt lat="25.309327" lon="101.054162">
<time>2016-04-06T12:04:45Z</time></trkpt>
<trkpt lat="25.309407" lon="101.054143">
<time>2016-04-06T12:04:46Z</time></trkpt>
<trkpt lat="25.309477" lon="101.054133">
<time>2016-04-06T12:04:47Z</time></trkpt>
<trkpt lat="25.309597" lon="101.054103">
<time>2016-04-06T12:04:48Z</time></trkpt>
<trkpt lat="25.309697" lon="101.054063">
<time>2016-04-06T12:04:49Z</time></trkpt>
<trkpt lat="25.309757" lon="101.054033">
<time>2016-04-06T12:04:50Z</time></trkpt>
<trkpt lat="25.309807" lon="101.053993">
<time>2016-04-06T12:04:51Z</time></trkpt>
<trkpt lat="25.309847" lon="101.053953">
<time>2016-04-06T12:04:52Z</time></trkpt>
<trkpt lat="25.309878" lon="101.053893">
<time>2016-04-06T12:04:53Z</time></trkpt>
<trkpt lat="25.309888" lon="101.053823">
<time>2016-04-06T12:04:54Z</time></trkpt>
<trkpt lat="25.309898" lon="101.053744">
<time>2016-04-06T12:04:55Z</time></trkpt>
<trkpt lat="25.309888" lon="101.053644">
<time>2016-04-06T12:04:56Z</time></trkpt>
<trkpt lat="25.309848" lon="101.053464">
<time>2016-04-06T12:04:57Z</time></trkpt>
<trkpt lat="25.309759" lon="101.053115">
<time>2016-04-06T12:04:58Z</time></trkpt>
<trkpt lat="25.309729" lon="101.052946">
<time>2016-04-06T12:04:59Z</time></trkpt>
<trkpt lat="25.30972" lon="101.052796">
<time>2016-04-06T12:05:00Z</time></trkpt>
<trkpt lat="25.30972" lon="101.052696">
<time>2016-04-06T12:05:01Z</time></trkpt>
<trkpt lat="25.30973" lon="101.052617">
<time>2016-04-06T12:05:02Z</time></trkpt>
<trkpt lat="25.30974" lon="101.052547">
<time>2016-04-06T12:05:03Z</time></trkpt>
<trkpt lat="25.309831" lon="101.052218">
<time>2016-04-06T12:05:04Z</time></trkpt>
<trkpt lat="25.309881" lon="101.052018">
<time>2016-04-06T12:05:05Z</time></trkpt>
<trkpt lat="25.309912" lon="101.051819">
<time>2016-04-06T12:05:06Z</time></trkpt>
<trkpt lat="25.309942" lon="101.051629">
<time>2016-04-06T12:05:07Z</time></trkpt>
<trkpt lat="25.309973" lon="101.05132">
<time>2016-04-06T12:05:08Z</time></trkpt>
<trkpt lat="25.310013" lon="101.050921">
<time>2016-04-06T12:05:09Z</time></trkpt>
<trkpt lat="25.310023" lon="101.050841">
<time>2016-04-06T12:05:10Z</time></trkpt>
<trkpt lat="25.310044" lon="101.050752">
<time>2016-04-06T12:05:11Z</time></trkpt>
<trkpt lat="25.310064" lon="101.050692">
<time>2016-04-06T12:05:12Z</time></trkpt>
<trkpt lat="25.310084" lon="101.050632">
<time>2016-04-06T12:05:13Z</time></trkpt>
<trkpt lat="25.310104" lon="101.050592">
<time>2016-04-06T12:05:14Z</time></trkpt>
<trkpt lat="25.310144" lon="101.050552">
<time>2016-04-06T12:05:15Z</time></trkpt>
<trkpt lat="25.310214" lon="101.050512">
<time>2016-04-06T12:05:16Z</time></trkpt>
<trkpt lat="25.310304" lon="101.050482">
<time>2016-04-06T12:05:17Z</time></trkpt>
<trkpt lat="25.310394" lon="101.050462">
<time>2016-04-06T12:05:18Z</time></trkpt>
<trkpt lat="25.310564" lon="101.050432">
<time>2016-04-06T12:05:19Z</time></trkpt>
<trkpt lat="25.310634" lon="101.050412">
<time>2016-04-06T12:05:20Z</time></trkpt>
<trkpt lat="25.310684" lon="101.050383">
<time>2016-04-06T12:05:21Z</time></trkpt>
<trkpt lat="25.310734" lon="101.050353">
<time>2016-04-06T12:05:22Z</time></trkpt>
<trkpt lat="25.310775" lon="101.050313">
<time>2016-04-06T12:05:23Z</time></trkpt>
<trkpt lat="25.310795" lon="101.050283">
<time>2016-04-06T12:05:24Z</time></trkpt>
<trkpt lat="25.310805" lon="101.050233">
<time>2016-04-06T12:05:25Z</time></trkpt>
<trkpt lat="25.310815" lon="101.050173">
<time>2016-04-06T12:05:26Z</time></trkpt>
<trkpt lat="25.310815" lon="101.050103">
<time>2016-04-06T12:05:27Z</time></trkpt>
<trkpt lat="25.310805" lon="101.050034">
<time>2016-04-06T12:05:28Z</time></trkpt>
<trkpt lat="25.310785" lon="101.049964">
<time>2016-04-06T12:05:29Z</time></trkpt>
<trkpt lat="25.310745" lon="101.049874">
<time>2016-04-06T12:05:30Z</time></trkpt>
<trkpt lat="25.310676" lon="101.049744">
<time>2016-04-06T12:05:31Z</time></trkpt>
<trkpt lat="25.310586" lon="101.049625">
<time>2016-04-06T12:05:32Z</time></trkpt>
<trkpt lat="25.310536" lon="101.049575">
<time>2016-04-06T12:05:33Z</time></trkpt>
<trkpt lat="25.310486" lon="101.049525">
<time>2016-04-06T12:05:34Z</time></trkpt>
<trkpt lat="25.310396" lon="101.049455">
<time>2016-04-06T12:05:35Z</time></trkpt>
<trkpt lat="25.310306" lon="101.049385">
<time>2016-04-06T12:05:36Z</time></trkpt>
<trkpt lat="25.310217" lon="101.049336">
<time>2016-04-06T12:05:37Z</time></trkpt>
<trkpt lat="25.310137" lon="101.049296">
<time>2016-04-06T12:05:38Z</time></trkpt>
<trkpt lat="25.310057" lon="101.049266">
<time>2016-04-06T12:05:39Z</time></trkpt>
<trkpt lat="25.309587" lon="101.049106">
<time>2016-04-06T12:05:40Z</time></trkpt>
<trkpt lat="25.309407" lon="101.049036">
<time>2016-04-06T12:05:41Z</time></trkpt>
<trkpt lat="25.309227" lon="101.048967">
<time>2016-04-06T12:05:42Z</time></trkpt>
<trkpt lat="25.309117" lon="101.048917">
<time>2016-04-06T12:05:43Z</time></trkpt>
<trkpt lat="25.309037" lon="101.048867">
<time>2016-04-06T12:05:44Z</time></trkpt>
<trkpt lat="25.308957" lon="101.048807">
<time>2016-04-06T12:05:45Z</time></trkpt>
<trkpt lat="25.308878" lon="101.048727">
<time>2016-04-06T12:05:46Z</time></trkpt>
<trkpt lat="25.308768" lon="101.048598">
<time>2016-04-06T12:05:47Z</time></trkpt>
<trkpt lat="25.308678" lon="101.048468">
<time>2016-04-06T12:05:48Z</time></trkpt>
<trkpt lat="25.308598" lon="101.048338">
<time>2016-04-06T12:05:49Z</time></trkpt>
<trkpt lat="25.308549" lon="101.048229">
<time>2016-04-06T12:05:50Z</time></trkpt>
<trkpt lat="25.308549" lon="101.048219">
<time>2016-04-06T12:05:51Z</time></trkpt>
<trkpt lat="25.308519" lon="101.048139">
<time>2016-04-06T12:05:52Z</time></trkpt>
<trkpt lat="25.308509" lon="101.048099">
<time>2016-04-06T12:05:53Z</time></trkpt>
<trkpt lat="25.308499" lon="101.048029">
<time>2016-04-06T12:05:54Z</time></trkpt>
<trkpt lat="25.308489" lon="101.04793">
<time>2016-04-06T12:05:55Z</time></trkpt>
<trkpt lat="25.308499" lon="101.04784">
<time>2016-04-06T12:05:56Z</time></trkpt>
<trkpt lat="25.30852" lon="101.04777">
<time>2016-04-06T12:05:57Z</time></trkpt>
<trkpt lat="25.30856" lon="101.04769">
<time>2016-04-06T12:05:58Z</time></trkpt>
<trkpt lat="25.30861" lon="101.04763">
<time>2016-04-06T12:05:59Z</time></trkpt>
<trkpt lat="25.30869" lon="101.047571">
<time>2016-04-06T12:06:00Z</time></trkpt>
<trkpt lat="25.30879" lon="101.047511">
<time>2016-04-06T12:06:01Z</time></trkpt>
<trkpt lat="25.30891" lon="101.047461">
<time>2016-04-06T12:06:02Z</time></trkpt>
<trkpt lat="25.30905" lon="101.047421">
<time>2016-04-06T12:06:03Z</time></trkpt>
<trkpt lat="25.30926" lon="101.047371">
<time>2016-04-06T12:06:04Z</time></trkpt>
<trkpt lat="25.309471" lon="101.047321">
<time>2016-04-06T12:06:05Z</time></trkpt>
<trkpt lat="25.309661" lon="101.047281">
<time>2016-04-06T12:06:06Z</time></trkpt>
<trkpt lat="25.309841" lon="101.047232">
<time>2016-04-06T12:06:07Z</time></trkpt>
<trkpt lat="25.309931" lon="101.047192">
<time>2016-04-06T12:06:08Z</time></trkpt>
<trkpt lat="25.309991" lon="101.047172">
<time>2016-04-06T12:06:09Z</time></trkpt>
<trkpt lat="25.310031" lon="101.047142">
<time>2016-04-06T12:06:10Z</time></trkpt>
<trkpt lat="25.310061" lon="101.047112">
<time>2016-04-06T12:06:11Z</time></trkpt>
<trkpt lat="25.310101" lon="101.047072">
<time>2016-04-06T12:06:12Z</time></trkpt>
<trkpt lat="25.310121" lon="101.047032">
<time>2016-04-06T12:06:13Z</time></trkpt>
<trkpt lat="25.310131" lon="101.046982">
<time>2016-04-06T12:06:14Z</time></trkpt>
<trkpt lat="25.310142" lon="101.046922">
<time>2016-04-06T12:06:15Z</time></trkpt>
<trkpt lat="25.310132" lon="101.046892">
<time>2016-04-06T12:06:16Z</time></trkpt>
<trkpt lat="25.310132" lon="101.046853">
<time>2016-04-06T12:06:17Z</time></trkpt>
<trkpt lat="25.310122" lon="101.046823">
<time>2016-04-06T12:06:18Z</time></trkpt>
<trkpt lat="25.310112" lon="101.046783">
<time>2016-04-06T12:06:19Z</time></trkpt>
<trkpt lat="25.310092" lon="101.046753">
<time>2016-04-06T12:06:20Z</time></trkpt>
<trkpt lat="25.310072" lon="101.046723">
<time>2016-04-06T12:06:21Z</time></trkpt>
<trkpt lat="25.310032" lon="101.046663">
<time>2016-04-06T12:06:22Z</time></trkpt>
<trkpt lat="25.309962" lon="101.046593">
<time>2016-04-06T12:06:23Z</time></trkpt>
<trkpt lat="25.309902" lon="101.046544">
<time>2016-04-06T12:06:24Z</time></trkpt>
<trkpt lat="25.309783" lon="101.046424">
<time>2016-04-06T12:06:25Z</time></trkpt>
<trkpt lat="25.309733" lon="101.046334">
<time>2016-04-06T12:06:26Z</time></trkpt>
<trkpt lat="25.309693" lon="101.046224">
<time>2016-04-06T12:06:27Z</time></trkpt>
<trkpt lat="25.309663" lon="101.046105">
<time>2016-04-06T12:06:28Z</time></trkpt>
<trkpt lat="25.309653" lon="101.045975">
<time>2016-04-06T12:06:29Z</time></trkpt>
<trkpt lat="25.309664" lon="101.045826">
<time>2016-04-06T12:06:30Z</time></trkpt>
<trkpt lat="25.309704" lon="101.045596">
<time>2016-04-06T12:06:31Z</time></trkpt>
<trkpt lat="25.309775" lon="101.045188">
<time>2016-04-06T12:06:32Z</time></trkpt>
<trkpt lat="25.309786" lon="101.045048">
<time>2016-04-06T12:06:33Z</time></trkpt>
<trkpt lat="25.309776" lon="101.044928">
<time>2016-04-06T12:06:34Z</time></trkpt>
<trkpt lat="25.309756" lon="101.044799">
<time>2016-04-06T12:06:35Z</time></trkpt>
<trkpt lat="25.309617" lon="101.04443">
<time>2016-04-06T12:06:36Z</time></trkpt>
<trkpt lat="25.309567" lon="101.04426">
<time>2016-04-06T12:06:37Z</time></trkpt>
<trkpt lat="25.309557" lon="101.044151">
<time>2016-04-06T12:06:38Z</time></trkpt>
<trkpt lat="25.309558" lon="101.044051">
<time>2016-04-06T12:06:39Z</time></trkpt>
<trkpt lat="25.309578" lon="101.043921">
<time>2016-04-06T12:06:40Z</time></trkpt>
<trkpt lat="25.309648" lon="101.043722">
<time>2016-04-06T12:06:41Z</time></trkpt>
<trkpt lat="25.309739" lon="101.043353">
<time>2016-04-06T12:06:42Z</time></trkpt>
<trkpt lat="25.30978" lon="101.042835">
<time>2016-04-06T12:06:43Z</time></trkpt>
<trkpt lat="25.309811" lon="101.042665">
<time>2016-04-06T12:06:44Z</time></trkpt>
<trkpt lat="25.309841" lon="101.042545">
<time>2016-04-06T12:06:45Z</time></trkpt>
<trkpt lat="25.309902" lon="101.042366">
<time>2016-04-06T12:06:46Z</time></trkpt>
<trkpt lat="25.310012" lon="101.042197">
<time>2016-04-06T12:06:47Z</time></trkpt>
<trkpt lat="25.310122" lon="101.042047">
<time>2016-04-06T12:06:48Z</time></trkpt>
<trkpt lat="25.310273" lon="101.041808">
<time>2016-04-06T12:06:49Z</time></trkpt>
<trkpt lat="25.310373" lon="101.041628">
<time>2016-04-06T12:06:50Z</time></trkpt>
<trkpt lat="25.310413" lon="101.041529">
<time>2016-04-06T12:06:51Z</time></trkpt>
<trkpt lat="25.310444" lon="101.041459">
<time>2016-04-06T12:06:52Z</time></trkpt>
<trkpt lat="25.310464" lon="101.041379">
<time>2016-04-06T12:06:53Z</time></trkpt>
<trkpt lat="25.310474" lon="101.041309">
<time>2016-04-06T12:06:54Z</time></trkpt>
<trkpt lat="25.310474" lon="101.04122">
<time>2016-04-06T12:06:55Z</time></trkpt>
<trkpt lat="25.310464" lon="101.04111">
<time>2016-04-06T12:06:56Z</time></trkpt>
<trkpt lat="25.310435" lon="101.040731">
<time>2016-04-06T12:06:57Z</time></trkpt>
<trkpt lat="25.310426" lon="101.040512">
<time>2016-04-06T12:06:58Z</time></trkpt>
<trkpt lat="25.310416" lon="101.040273">
<time>2016-04-06T12:06:59Z</time></trkpt>
<trkpt lat="25.310417" lon="101.040093">
<time>2016-04-06T12:07:00Z</time></trkpt>
<trkpt lat="25.310427" lon="101.039884">
<time>2016-04-06T12:07:01Z</time></trkpt>
<trkpt lat="25.31051" lon="101.038847">
<time>2016-04-06T12:07:02Z</time></trkpt>
<trkpt lat="25.31051" lon="101.038757">
<time>2016-04-06T12:07:03Z</time></trkpt>
<trkpt lat="25.31051" lon="101.038668">
<time>2016-04-06T12:07:04Z</time></trkpt>
<trkpt lat="25.3105" lon="101.038588">
<time>2016-04-06T12:07:05Z</time></trkpt>
<trkpt lat="25.310491" lon="101.038488">
<time>2016-04-06T12:07:06Z</time></trkpt>
<trkpt lat="25.310451" lon="101.038389">
<time>2016-04-06T12:07:07Z</time></trkpt>
<trkpt lat="25.310331" lon="101.038179">
<time>2016-04-06T12:07:08Z</time></trkpt>
<trkpt lat="25.310242" lon="101.03804">
<time>2016-04-06T12:07:09Z</time></trkpt>
<trkpt lat="25.310033" lon="101.037671">
<time>2016-04-06T12:07:10Z</time></trkpt>
<trkpt lat="25.309933" lon="101.037521">
<time>2016-04-06T12:07:11Z</time></trkpt>
<trkpt lat="25.309893" lon="101.037412">
<time>2016-04-06T12:07:12Z</time></trkpt>
<trkpt lat="25.309863" lon="101.037312">
<time>2016-04-06T12:07:13Z</time></trkpt>
<trkpt lat="25.309854" lon="101.037202">
<time>2016-04-06T12:07:14Z</time></trkpt>
<trkpt lat="25.309844" lon="101.037093">
<time>2016-04-06T12:07:15Z</time></trkpt>
<trkpt lat="25.309854" lon="101.036983">
<time>2016-04-06T12:07:16Z</time></trkpt>
<trkpt lat="25.309885" lon="101.036744">
<time>2016-04-06T12:07:17Z</time></trkpt>
<trkpt lat="25.309895" lon="101.036545">
<time>2016-04-06T12:07:18Z</time></trkpt>
<trkpt lat="25.309896" lon="101.036375">
<time>2016-04-06T12:07:19Z</time></trkpt>
<trkpt lat="25.309886" lon="101.036096">
<time>2016-04-06T12:07:20Z</time></trkpt>
<trkpt lat="25.309887" lon="101.035976">
<time>2016-04-06T12:07:21Z</time></trkpt>
<trkpt lat="25.309897" lon="101.035847">
<time>2016-04-06T12:07:22Z</time></trkpt>
<trkpt lat="25.309927" lon="101.035697">
<time>2016-04-06T12:07:23Z</time></trkpt>
<trkpt lat="25.309968" lon="101.035568">
<time>2016-04-06T12:07:24Z</time></trkpt>
<trkpt lat="25.310008" lon="101.035448">
<time>2016-04-06T12:07:25Z</time></trkpt>
<trkpt lat="25.310038" lon="101.035358">
<time>2016-04-06T12:07:26Z</time></trkpt>
<trkpt lat="25.310068" lon="101.035299">
<time>2016-04-06T12:07:27Z</time></trkpt>
<trkpt lat="25.310109" lon="101.035239">
<time>2016-04-06T12:07:28Z</time></trkpt>
<trkpt lat="25.310169" lon="101.035169">
<time>2016-04-06T12:07:29Z</time></trkpt>
<trkpt lat="25.310219" lon="101.035119">
<time>2016-04-06T12:07:30Z</time></trkpt>
<trkpt lat="25.310249" lon="101.035089">
<time>2016-04-06T12:07:31Z</time></trkpt>
<trkpt lat="25.310299" lon="101.035069">
<time>2016-04-06T12:07:32Z</time></trkpt>
<trkpt lat="25.310339" lon="101.035059">
<time>2016-04-06T12:07:33Z</time></trkpt>
<trkpt lat="25.310399" lon="101.035049">
<time>2016-04-06T12:07:34Z</time></trkpt>
<trkpt lat="25.310449" lon="101.035049">
<time>2016-04-06T12:07:35Z</time></trkpt>
<trkpt lat="25.310659" lon="101.035059">
<time>2016-04-06T12:07:36Z</time></trkpt>
<trkpt lat="25.310939" lon="101.035069">
<time>2016-04-06T12:07:37Z</time></trkpt>
<trkpt lat="25.311019" lon="101.035059">
<time>2016-04-06T12:07:38Z</time></trkpt>
<trkpt lat="25.311099" lon="101.035039">
<time>2016-04-06T12:07:39Z</time></trkpt>
<trkpt lat="25.311169" lon="101.035">
<time>2016-04-06T12:07:40Z</time></trkpt>
<trkpt lat="25.311219" lon="101.03496">
<time>2016-04-06T12:07:41Z</time></trkpt>
<trkpt lat="25.311259" lon="101.03492">
<time>2016-04-06T12:07:42Z</time></trkpt>
<trkpt lat="25.31133" lon="101.03483">
<time>2016-04-06T12:07:43Z</time></trkpt>
<trkpt lat="25.311852" lon="101.034113">
<time>2016-04-06T12:07:44Z</time></trkpt>
<trkpt lat="25.312103" lon="101.033734">
<time>2016-04-06T12:07:45Z</time></trkpt>
<trkpt lat="25.312203" lon="101.033534">
<time>2016-04-06T12:07:46Z</time></trkpt>
<trkpt lat="25.312253" lon="101.033425">
<time>2016-04-06T12:07:47Z</time></trkpt>
<trkpt lat="25.312294" lon="101.033305">
<time>2016-04-06T12:07:48Z</time></trkpt>
<trkpt lat="25.312324" lon="101.033186">
<time>2016-04-06T12:07:49Z</time></trkpt>
<trkpt lat="25.312365" lon="101.032966">
<time>2016-04-06T12:07:50Z</time></trkpt>
<trkpt lat="25.312436" lon="101.032558">
<time>2016-04-06T12:07:51Z</time></trkpt>
<trkpt lat="25.312456" lon="101.032448">
<time>2016-04-06T12:07:52Z</time></trkpt>
<trkpt lat="25.312496" lon="101.032339">
<time>2016-04-06T12:07:53Z</time></trkpt>
<trkpt lat="25.312536" lon="101.032249">
<time>2016-04-06T12:07:54Z</time></trkpt>
<trkpt lat="25.312587" lon="101.032159">
<time>2016-04-06T12:07:55Z</time></trkpt>
<trkpt lat="25.312797" lon="101.03184">
<time>2016-04-06T12:07:56Z</time></trkpt>
<trkpt lat="25.312868" lon="101.031711">
<time>2016-04-06T12:07:57Z</time></trkpt>
<trkpt lat="25.312948" lon="101.031561">
<time>2016-04-06T12:07:58Z</time></trkpt>
<trkpt lat="25.313019" lon="101.031382">
<time>2016-04-06T12:07:59Z</time></trkpt>
<trkpt lat="25.31317" lon="101.031003">
<time>2016-04-06T12:08:00Z</time></trkpt>
<trkpt lat="25.313412" lon="101.030296">
<time>2016-04-06T12:08:01Z</time></trkpt>
<trkpt lat="25.313633" lon="101.029688">
<time>2016-04-06T12:08:02Z</time></trkpt>
<trkpt lat="25.313724" lon="101.029498">
<time>2016-04-06T12:08:03Z</time></trkpt>
<trkpt lat="25.313804" lon="101.029349">
<time>2016-04-06T12:08:04Z</time></trkpt>
<trkpt lat="25.313884" lon="101.029219">
<time>2016-04-06T12:08:05Z</time></trkpt>
<trkpt lat="25.313935" lon="101.02913">
<time>2016-04-06T12:08:06Z</time></trkpt>
<trkpt lat="25.314075" lon="101.02896">
<time>2016-04-06T12:08:07Z</time></trkpt>
<trkpt lat="25.314938" lon="101.027944">
<time>2016-04-06T12:08:08Z</time></trkpt>
<trkpt lat="25.315219" lon="101.027615">
<time>2016-04-06T12:08:09Z</time></trkpt>
<trkpt lat="25.316092" lon="101.026638">
<time>2016-04-06T12:08:10Z</time></trkpt>
<trkpt lat="25.316192" lon="101.026509">
<time>2016-04-06T12:08:11Z</time></trkpt>
<trkpt lat="25.316252" lon="101.026409">
<time>2016-04-06T12:08:12Z</time></trkpt>
<trkpt lat="25.316282" lon="101.026359">
<time>2016-04-06T12:08:13Z</time></trkpt>
<trkpt lat="25.316303" lon="101.02631">
<time>2016-04-06T12:08:14Z</time></trkpt>
<trkpt lat="25.316313" lon="101.02626">
<time>2016-04-06T12:08:15Z</time></trkpt>
<trkpt lat="25.316323" lon="101.02622">
<time>2016-04-06T12:08:16Z</time></trkpt>
<trkpt lat="25.316343" lon="101.02615">
<time>2016-04-06T12:08:17Z</time></trkpt>
<trkpt lat="25.316343" lon="101.02605">
<time>2016-04-06T12:08:18Z</time></trkpt>
<trkpt lat="25.316333" lon="101.025961">
<time>2016-04-06T12:08:19Z</time></trkpt>
<trkpt lat="25.316314" lon="101.025861">
<time>2016-04-06T12:08:20Z</time></trkpt>
<trkpt lat="25.316284" lon="101.025791">
<time>2016-04-06T12:08:21Z</time></trkpt>
<trkpt lat="25.316274" lon="101.025761">
<time>2016-04-06T12:08:22Z</time></trkpt>
<trkpt lat="25.316155" lon="101.025473">
<time>2016-04-06T12:08:23Z</time></trkpt>
<trkpt lat="25.316085" lon="101.025273">
<time>2016-04-06T12:08:24Z</time></trkpt>
<trkpt lat="25.316026" lon="101.025114">
<time>2016-04-06T12:08:25Z</time></trkpt>
<trkpt lat="25.316016" lon="101.025064">
<time>2016-04-06T12:08:26Z</time></trkpt>
<trkpt lat="25.316006" lon="101.025014">
<time>2016-04-06T12:08:27Z</time></trkpt>
<trkpt lat="25.316006" lon="101.024954">
<time>2016-04-06T12:08:28Z</time></trkpt>
<trkpt lat="25.316016" lon="101.024895">
<time>2016-04-06T12:08:29Z</time></trkpt>
<trkpt lat="25.316027" lon="101.024845">
<time>2016-04-06T12:08:30Z</time></trkpt>
<trkpt lat="25.316047" lon="101.024765">
<time>2016-04-06T12:08:31Z</time></trkpt>
<trkpt lat="25.316097" lon="101.024626">
<time>2016-04-06T12:08:32Z</time></trkpt>
<trkpt lat="25.316127" lon="101.024546">
<time>2016-04-06T12:08:33Z</time></trkpt>
<trkpt lat="25.316138" lon="101.024476">
<time>2016-04-06T12:08:34Z</time></trkpt>
<trkpt lat="25.316138" lon="101.024436">
<time>2016-04-06T12:08:35Z</time></trkpt>
<trkpt lat="25.316138" lon="101.024376">
<time>2016-04-06T12:08:36Z</time></trkpt>
<trkpt lat="25.316118" lon="101.024317">
<time>2016-04-06T12:08:37Z</time></trkpt>
<trkpt lat="25.316019" lon="101.024028">
<time>2016-04-06T12:08:38Z</time></trkpt>
<trkpt lat="25.315999" lon="101.023958">
<time>2016-04-06T12:08:39Z</time></trkpt>
<trkpt lat="25.315989" lon="101.023888">
<time>2016-04-06T12:08:40Z</time></trkpt>
<trkpt lat="25.315979" lon="101.023819">
<time>2016-04-06T12:08:41Z</time></trkpt>
<trkpt lat="25.31599" lon="101.023749">
<time>2016-04-06T12:08:42Z</time></trkpt>
<trkpt lat="25.31604" lon="101.02349">
<time>2016-04-06T12:08:43Z</time></trkpt>
<trkpt lat="25.316051" lon="101.02331">
<time>2016-04-06T12:08:44Z</time></trkpt>
<trkpt lat="25.316061" lon="101.023171">
<time>2016-04-06T12:08:45Z</time></trkpt>
<trkpt lat="25.316052" lon="101.023041">
<time>2016-04-06T12:08:46Z</time></trkpt>
<trkpt lat="25.316032" lon="101.022802">
<time>2016-04-06T12:08:47Z</time></trkpt>
<trkpt lat="25.316022" lon="101.022693">
<time>2016-04-06T12:08:48Z</time></trkpt>
<trkpt lat="25.315993" lon="101.022573">
<time>2016-04-06T12:08:49Z</time></trkpt>
<trkpt lat="25.315973" lon="101.022493">
<time>2016-04-06T12:08:50Z</time></trkpt>
<trkpt lat="25.315943" lon="101.022424">
<time>2016-04-06T12:08:51Z</time></trkpt>
<trkpt lat="25.315913" lon="101.022364">
<time>2016-04-06T12:08:52Z</time></trkpt>
<trkpt lat="25.315854" lon="101.022304">
<time>2016-04-06T12:08:53Z</time></trkpt>
<trkpt lat="25.315794" lon="101.022244">
<time>2016-04-06T12:08:54Z</time></trkpt>
<trkpt lat="25.315584" lon="101.022065">
<time>2016-04-06T12:08:55Z</time></trkpt>
<trkpt lat="25.315175" lon="101.021736">
<time>2016-04-06T12:08:56Z</time></trkpt>
<trkpt lat="25.315095" lon="101.021666">
<time>2016-04-06T12:08:57Z</time></trkpt>
<trkpt lat="25.315016" lon="101.021587">
<time>2016-04-06T12:08:58Z</time></trkpt>
<trkpt lat="25.314986" lon="101.021547">
<time>2016-04-06T12:08:59Z</time></trkpt>
<trkpt lat="25.314956" lon="101.021497">
<time>2016-04-06T12:09:00Z</time></trkpt>
<trkpt lat="25.314896" lon="101.021387">
<time>2016-04-06T12:09:01Z</time></trkpt>
<trkpt lat="25.314737" lon="101.020969">
<time>2016-04-06T12:09:02Z</time></trkpt>
<trkpt lat="25.314578" lon="101.02061">
<time>2016-04-06T12:09:03Z</time></trkpt>
<trkpt lat="25.314459" lon="101.020381">
<time>2016-04-06T12:09:04Z</time></trkpt>
<trkpt lat="25.314429" lon="101.020321">
<time>2016-04-06T12:09:05Z</time></trkpt>
<trkpt lat="25.314399" lon="101.020262">
<time>2016-04-06T12:09:06Z</time></trkpt>
<trkpt lat="25.314389" lon="101.020232">
<time>2016-04-06T12:09:07Z</time></trkpt>
<trkpt lat="25.314369" lon="101.020192">
<time>2016-04-06T12:09:08Z</time></trkpt>
<trkpt lat="25.31437" lon="101.020162">
<time>2016-04-06T12:09:09Z</time></trkpt>
<trkpt lat="25.31436" lon="101.020132">
<time>2016-04-06T12:09:10Z</time></trkpt>
<trkpt lat="25.31435" lon="101.020072">
<time>2016-04-06T12:09:11Z</time></trkpt>
<trkpt lat="25.31435" lon="101.020032">
<time>2016-04-06T12:09:12Z</time></trkpt>
<trkpt lat="25.31435" lon="101.020003">
<time>2016-04-06T12:09:13Z</time></trkpt>
<trkpt lat="25.31436" lon="101.019983">
<time>2016-04-06T12:09:14Z</time></trkpt>
<trkpt lat="25.31436" lon="101.019963">
<time>2016-04-06T12:09:15Z</time></trkpt>
<trkpt lat="25.31437" lon="101.019943">
<time>2016-04-06T12:09:16Z</time></trkpt>
<trkpt lat="25.31438" lon="101.019923">
<time>2016-04-06T12:09:17Z</time></trkpt>
<trkpt lat="25.31439" lon="101.019903">
<time>2016-04-06T12:09:18Z</time></trkpt>
<trkpt lat="25.31441" lon="101.019873">
<time>2016-04-06T12:09:19Z</time></trkpt>
<trkpt lat="25.31444" lon="101.019833">
<time>2016-04-06T12:09:20Z</time></trkpt>
<trkpt lat="25.314471" lon="101.019813">
<time>2016-04-06T12:09:21Z</time></trkpt>
<trkpt lat="25.314501" lon="101.019783">
<time>2016-04-06T12:09:22Z</time></trkpt>
<trkpt lat="25.314541" lon="101.019763">
<time>2016-04-06T12:09:23Z</time></trkpt>
<trkpt lat="25.314601" lon="101.019734">
<time>2016-04-06T12:09:24Z</time></trkpt>
<trkpt lat="25.314641" lon="101.019714">
<time>2016-04-06T12:09:25Z</time></trkpt>
<trkpt lat="25.314691" lon="101.019704">
<time>2016-04-06T12:09:26Z</time></trkpt>
<trkpt lat="25.314741" lon="101.019694">
<time>2016-04-06T12:09:27Z</time></trkpt>
<trkpt lat="25.314791" lon="101.019684">
<time>2016-04-06T12:09:28Z</time></trkpt>
<trkpt lat="25.314841" lon="101.019684">
<time>2016-04-06T12:09:29Z</time></trkpt>
<trkpt lat="25.314891" lon="101.019684">
<time>2016-04-06T12:09:30Z</time></trkpt>
<trkpt lat="25.315021" lon="101.019684">
<time>2016-04-06T12:09:31Z</time></trkpt>
<trkpt lat="25.315131" lon="101.019684">
<time>2016-04-06T12:09:32Z</time></trkpt>
<trkpt lat="25.315221" lon="101.019674">
<time>2016-04-06T12:09:33Z</time></trkpt>
<trkpt lat="25.315331" lon="101.019654">
<time>2016-04-06T12:09:34Z</time></trkpt>
<trkpt lat="25.315461" lon="101.019624">
<time>2016-04-06T12:09:35Z</time></trkpt>
<trkpt lat="25.315631" lon="101.019574">
<time>2016-04-06T12:09:36Z</time></trkpt>
<trkpt lat="25.315831" lon="101.019544">
<time>2016-04-06T12:09:37Z</time></trkpt>
<trkpt lat="25.315971" lon="101.019514">
<time>2016-04-06T12:09:38Z</time></trkpt>
<trkpt lat="25.316082" lon="101.019484">
<time>2016-04-06T12:09:39Z</time></trkpt>
<trkpt lat="25.316202" lon="101.019445">
<time>2016-04-06T12:09:40Z</time></trkpt>
<trkpt lat="25.316302" lon="101.019405">
<time>2016-04-06T12:09:41Z</time></trkpt>
<trkpt lat="25.316422" lon="101.019345">
<time>2016-04-06T12:09:42Z</time></trkpt>
<trkpt lat="25.316823" lon="101.019136">
<time>2016-04-06T12:09:43Z</time></trkpt>
<trkpt lat="25.316913" lon="101.019086">
<time>2016-04-06T12:09:44Z</time></trkpt>
<trkpt lat="25.316983" lon="101.019036">
<time>2016-04-06T12:09:45Z</time></trkpt>
<trkpt lat="25.317033" lon="101.018996">
<time>2016-04-06T12:09:46Z</time></trkpt>
<trkpt lat="25.317103" lon="101.018927">
<time>2016-04-06T12:09:47Z</time></trkpt>
<trkpt lat="25.317163" lon="101.018867">
<time>2016-04-06T12:09:48Z</time></trkpt>
<trkpt lat="25.317204" lon="101.018817">
<time>2016-04-06T12:09:49Z</time></trkpt>
<trkpt lat="25.317244" lon="101.018757">
<time>2016-04-06T12:09:50Z</time></trkpt>
<trkpt lat="25.317274" lon="101.018697">
<time>2016-04-06T12:09:51Z</time></trkpt>
<trkpt lat="25.317294" lon="101.018658">
<time>2016-04-06T12:09:52Z</time></trkpt>
<trkpt lat="25.317314" lon="101.018618">
<time>2016-04-06T12:09:53Z</time></trkpt>
<trkpt lat="25.317324" lon="101.018568">
<time>2016-04-06T12:09:54Z</time></trkpt>
<trkpt lat="25.317345" lon="101.018498">
<time>2016-04-06T12:09:55Z</time></trkpt>
<trkpt lat="25.317355" lon="101.018448">
<time>2016-04-06T12:09:56Z</time></trkpt>
<trkpt lat="25.317365" lon="101.018369">
<time>2016-04-06T12:09:57Z</time></trkpt>
<trkpt lat="25.317365" lon="101.018299">
<time>2016-04-06T12:09:58Z</time></trkpt>
<trkpt lat="25.317355" lon="101.018229">
<time>2016-04-06T12:09:59Z</time></trkpt>
<trkpt lat="25.317346" lon="101.018159">
<time>2016-04-06T12:10:00Z</time></trkpt>
<trkpt lat="25.317306" lon="101.01788">
<time>2016-04-06T12:10:01Z</time></trkpt>
<trkpt lat="25.317267" lon="101.017671">
<time>2016-04-06T12:10:02Z</time></trkpt>
<trkpt lat="25.317247" lon="101.017582">
<time>2016-04-06T12:10:03Z</time></trkpt>
<trkpt lat="25.317227" lon="101.017512">
<time>2016-04-06T12:10:04Z</time></trkpt>
<trkpt lat="25.317208" lon="101.017452">
<time>2016-04-06T12:10:05Z</time></trkpt>
<trkpt lat="25.317188" lon="101.017412">
<time>2016-04-06T12:10:06Z</time></trkpt>
<trkpt lat="25.317168" lon="101.017382">
<time>2016-04-06T12:10:07Z</time></trkpt>
<trkpt lat="25.317138" lon="101.017342">
<time>2016-04-06T12:10:08Z</time></trkpt>
<trkpt lat="25.317108" lon="101.017303">
<time>2016-04-06T12:10:09Z</time></trkpt>
<trkpt lat="25.317078" lon="101.017273">
<time>2016-04-06T12:10:10Z</time></trkpt>
<trkpt lat="25.317018" lon="101.017213">
<time>2016-04-06T12:10:11Z</time></trkpt>
<trkpt lat="25.316869" lon="101.017073">
<time>2016-04-06T12:10:12Z</time></trkpt>
<trkpt lat="25.316829" lon="101.017034">
<time>2016-04-06T12:10:13Z</time></trkpt>
<trkpt lat="25.316799" lon="101.017004">
<time>2016-04-06T12:10:14Z</time></trkpt>
<trkpt lat="25.316769" lon="101.016974">
<time>2016-04-06T12:10:15Z</time></trkpt>
<trkpt lat="25.316759" lon="101.016944">
<time>2016-04-06T12:10:16Z</time></trkpt>
<trkpt lat="25.316739" lon="101.016924">
<time>2016-04-06T12:10:17Z</time></trkpt>
<trkpt lat="25.316729" lon="101.016904">
<time>2016-04-06T12:10:18Z</time></trkpt>
<trkpt lat="25.316729" lon="101.016874">
<time>2016-04-06T12:10:19Z</time></trkpt>
<trkpt lat="25.316729" lon="101.016864">
<time>2016-04-06T12:10:20Z</time></trkpt>
<trkpt lat="25.316719" lon="101.016844">
<time>2016-04-06T12:10:21Z</time></trkpt>
<trkpt lat="25.316719" lon="101.016824">
<time>2016-04-06T12:10:22Z</time></trkpt>
<trkpt lat="25.316719" lon="101.016795">
<time>2016-04-06T12:10:23Z</time></trkpt>
<trkpt lat="25.316719" lon="101.016775">
<time>2016-04-06T12:10:24Z</time></trkpt>
<trkpt lat="25.31672" lon="101.016745">
<time>2016-04-06T12:10:25Z</time></trkpt>
<trkpt lat="25.31673" lon="101.016725">
<time>2016-04-06T12:10:26Z</time></trkpt>
<trkpt lat="25.31674" lon="101.016695">
<time>2016-04-06T12:10:27Z</time></trkpt>
<trkpt lat="25.31675" lon="101.016675">
<time>2016-04-06T12:10:28Z</time></trkpt>
<trkpt lat="25.31677" lon="101.016645">
<time>2016-04-06T12:10:29Z</time></trkpt>
<trkpt lat="25.31679" lon="101.016615">
<time>2016-04-06T12:10:30Z</time></trkpt>
<trkpt lat="25.3168" lon="101.016605">
<time>2016-04-06T12:10:31Z</time></trkpt>
<trkpt lat="25.31695" lon="101.016516">
<time>2016-04-06T12:10:32Z</time></trkpt>
<trkpt lat="25.31709" lon="101.016436">
<time>2016-04-06T12:10:33Z</time></trkpt>
<trkpt lat="25.317171" lon="101.016386">
<time>2016-04-06T12:10:34Z</time></trkpt>
<trkpt lat="25.317251" lon="101.016316">
<time>2016-04-06T12:10:35Z</time></trkpt>
<trkpt lat="25.317321" lon="101.016247">
<time>2016-04-06T12:10:36Z</time></trkpt>
<trkpt lat="25.317381" lon="101.016167">
<time>2016-04-06T12:10:37Z</time></trkpt>
<trkpt lat="25.317442" lon="101.016067">
<time>2016-04-06T12:10:38Z</time></trkpt>
<trkpt lat="25.317502" lon="101.015978">
<time>2016-04-06T12:10:39Z</time></trkpt>
<trkpt lat="25.317542" lon="101.015908">
<time>2016-04-06T12:10:40Z</time></trkpt>
<trkpt lat="25.317582" lon="101.015828">
<time>2016-04-06T12:10:41Z</time></trkpt>
<trkpt lat="25.317613" lon="101.015739">
<time>2016-04-06T12:10:42Z</time></trkpt>
<trkpt lat="25.317643" lon="101.015669">
<time>2016-04-06T12:10:43Z</time></trkpt>
<trkpt lat="25.317693" lon="101.015499">
<time>2016-04-06T12:10:44Z</time></trkpt>
<trkpt lat="25.317724" lon="101.01535">
<time>2016-04-06T12:10:45Z</time></trkpt>
<trkpt lat="25.317764" lon="101.01522">
<time>2016-04-06T12:10:46Z</time></trkpt>
<trkpt lat="25.317815" lon="101.015061">
<time>2016-04-06T12:10:47Z</time></trkpt>
<trkpt lat="25.317915" lon="101.014762">
<time>2016-04-06T12:10:48Z</time></trkpt>
<trkpt lat="25.318077" lon="101.014304">
<time>2016-04-06T12:10:49Z</time></trkpt>
<trkpt lat="25.318147" lon="101.014135">
<time>2016-04-06T12:10:50Z</time></trkpt>
<trkpt lat="25.318208" lon="101.014025">
<time>2016-04-06T12:10:51Z</time></trkpt>
<trkpt lat="25.318248" lon="101.013935">
<time>2016-04-06T12:10:52Z</time></trkpt>
<trkpt lat="25.318308" lon="101.013866">
<time>2016-04-06T12:10:53Z</time></trkpt>
<trkpt lat="25.318368" lon="101.013796">
<time>2016-04-06T12:10:54Z</time></trkpt>
<trkpt lat="25.318529" lon="101.013637">
<time>2016-04-06T12:10:55Z</time></trkpt>
<trkpt lat="25.31883" lon="101.013328">
<time>2016-04-06T12:10:56Z</time></trkpt>
<trkpt lat="25.319141" lon="101.012969">
<time>2016-04-06T12:10:57Z</time></trkpt>
<trkpt lat="25.319573" lon="101.012391">
<time>2016-04-06T12:10:58Z</time></trkpt>
<trkpt lat="25.319774" lon="101.012043">
<time>2016-04-06T12:10:59Z</time></trkpt>
<trkpt lat="25.319945" lon="101.011714">
<time>2016-04-06T12:11:00Z</time></trkpt>
<trkpt lat="25.320257" lon="101.011066">
<time>2016-04-06T12:11:01Z</time></trkpt>
<trkpt lat="25.320367" lon="101.010837">
<time>2016-04-06T12:11:02Z</time></trkpt>
<trkpt lat="25.320398" lon="101.010767">
<time>2016-04-06T12:11:03Z</time></trkpt>
<trkpt lat="25.320428" lon="101.010688">
<time>2016-04-06T12:11:04Z</time></trkpt>
<trkpt lat="25.320458" lon="101.010598">
<time>2016-04-06T12:11:05Z</time></trkpt>
<trkpt lat="25.320468" lon="101.010578">
<time>2016-04-06T12:11:06Z</time></trkpt>
<trkpt lat="25.320488" lon="101.010499">
<time>2016-04-06T12:11:07Z</time></trkpt>
<trkpt lat="25.320509" lon="101.010439">
<time>2016-04-06T12:11:08Z</time></trkpt>
<trkpt lat="25.320519" lon="101.010359">
<time>2016-04-06T12:11:09Z</time></trkpt>
<trkpt lat="25.3206" lon="101.009861">
<time>2016-04-06T12:11:10Z</time></trkpt>
<trkpt lat="25.320763" lon="101.008825">
<time>2016-04-06T12:11:11Z</time></trkpt>
<trkpt lat="25.320875" lon="101.008138">
<time>2016-04-06T12:11:12Z</time></trkpt>
<trkpt lat="25.320906" lon="101.008018">
<time>2016-04-06T12:11:13Z</time></trkpt>
<trkpt lat="25.320946" lon="101.007889">
<time>2016-04-06T12:11:14Z</time></trkpt>
<trkpt lat="25.320987" lon="101.007749">
<time>2016-04-06T12:11:15Z</time></trkpt>
<trkpt lat="25.321027" lon="101.00765">
<time>2016-04-06T12:11:16Z</time></trkpt>
<trkpt lat="25.321097" lon="101.00747">
<time>2016-04-06T12:11:17Z</time></trkpt>
<trkpt lat="25.321289" lon="101.006962">
<time>2016-04-06T12:11:18Z</time></trkpt>
<trkpt lat="25.32145" lon="101.006504">
<time>2016-04-06T12:11:19Z</time></trkpt>
<trkpt lat="25.321551" lon="101.006255">
<time>2016-04-06T12:11:20Z</time></trkpt>
<trkpt lat="25.321642" lon="101.006006">
<time>2016-04-06T12:11:21Z</time></trkpt>
<trkpt lat="25.321944" lon="101.005448">
<time>2016-04-06T12:11:22Z</time></trkpt>
<trkpt lat="25.322336" lon="101.004761">
<time>2016-04-06T12:11:23Z</time></trkpt>
<trkpt lat="25.322376" lon="101.004681">
<time>2016-04-06T12:11:24Z</time></trkpt>
<trkpt lat="25.322416" lon="101.004591">
<time>2016-04-06T12:11:25Z</time></trkpt>
<trkpt lat="25.322447" lon="101.004502">
<time>2016-04-06T12:11:26Z</time></trkpt>
<trkpt lat="25.322467" lon="101.004432">
<time>2016-04-06T12:11:27Z</time></trkpt>
<trkpt lat="25.322477" lon="101.004362">
<time>2016-04-06T12:11:28Z</time></trkpt>
<trkpt lat="25.322477" lon="101.004313">
<time>2016-04-06T12:11:29Z</time></trkpt>
<trkpt lat="25.322477" lon="101.004213">
<time>2016-04-06T12:11:30Z</time></trkpt>
<trkpt lat="25.322458" lon="101.004024">
<time>2016-04-06T12:11:31Z</time></trkpt>
<trkpt lat="25.322429" lon="101.003755">
<time>2016-04-06T12:11:32Z</time></trkpt>
<trkpt lat="25.322331" lon="101.003028">
<time>2016-04-06T12:11:33Z</time></trkpt>
<trkpt lat="25.322234" lon="101.002141">
<time>2016-04-06T12:11:34Z</time></trkpt>
<trkpt lat="25.322205" lon="101.001773">
<time>2016-04-06T12:11:35Z</time></trkpt>
<trkpt lat="25.322195" lon="101.001663">
<time>2016-04-06T12:11:36Z</time></trkpt>
<trkpt lat="25.322196" lon="101.001543">
<time>2016-04-06T12:11:37Z</time></trkpt>
<trkpt lat="25.322206" lon="101.001444">
<time>2016-04-06T12:11:38Z</time></trkpt>
<trkpt lat="25.322216" lon="101.001334">
<time>2016-04-06T12:11:39Z</time></trkpt>
<trkpt lat="25.322247" lon="101.001165">
<time>2016-04-06T12:11:40Z</time></trkpt>
<trkpt lat="25.322287" lon="101.000966">
<time>2016-04-06T12:11:41Z</time></trkpt>
<trkpt lat="25.322308" lon="101.000846">
<time>2016-04-06T12:11:42Z</time></trkpt>
<trkpt lat="25.322318" lon="101.000727">
<time>2016-04-06T12:11:43Z</time></trkpt>
<trkpt lat="25.322318" lon="101.000637">
<time>2016-04-06T12:11:44Z</time></trkpt>
<trkpt lat="25.322299" lon="101.000557">
<time>2016-04-06T12:11:45Z</time></trkpt>
<trkpt lat="25.322289" lon="101.000507">
<time>2016-04-06T12:11:46Z</time></trkpt>
<trkpt lat="25.322269" lon="101.000458">
<time>2016-04-06T12:11:47Z</time></trkpt>
<trkpt lat="25.322229" lon="101.000398">
<time>2016-04-06T12:11:48Z</time></trkpt>
<trkpt lat="25.322189" lon="101.000338">
<time>2016-04-06T12:11:49Z</time></trkpt>
<trkpt lat="25.322149" lon="101.000298">
<time>2016-04-06T12:11:50Z</time></trkpt>
<trkpt lat="25.322099" lon="101.000258">
<time>2016-04-06T12:11:51Z</time></trkpt>
<trkpt lat="25.32205" lon="101.000219">
<time>2016-04-06T12:11:52Z</time></trkpt>
<trkpt lat="25.32195" lon="101.000159">
<time>2016-04-06T12:11:53Z</time></trkpt>
<trkpt lat="25.32172" lon="101.000009">
<time>2016-04-06T12:11:54Z</time></trkpt>
<trkpt lat="25.32158" lon="100.99992">
<time>2016-04-06T12:11:55Z</time></trkpt>
<trkpt lat="25.321491" lon="100.99986">
<time>2016-04-06T12:11:56Z</time></trkpt>
<trkpt lat="25.321411" lon="100.99979">
<time>2016-04-06T12:11:57Z</time></trkpt>
<trkpt lat="25.321331" lon="100.999711">
<time>2016-04-06T12:11:58Z</time></trkpt>
<trkpt lat="25.321271" lon="100.999651">
<time>2016-04-06T12:11:59Z</time></trkpt>
<trkpt lat="25.320743" lon="100.998993">
<time>2016-04-06T12:12:00Z</time></trkpt>
<trkpt lat="25.320484" lon="100.998665">
<time>2016-04-06T12:12:01Z</time></trkpt>
<trkpt lat="25.320355" lon="100.998515">
<time>2016-04-06T12:12:02Z</time></trkpt>
<trkpt lat="25.320275" lon="100.998436">
<time>2016-04-06T12:12:03Z</time></trkpt>
<trkpt lat="25.320195" lon="100.998376">
<time>2016-04-06T12:12:04Z</time></trkpt>
<trkpt lat="25.320135" lon="100.998326">
<time>2016-04-06T12:12:05Z</time></trkpt>
<trkpt lat="25.320085" lon="100.998286">
<time>2016-04-06T12:12:06Z</time></trkpt>
<trkpt lat="25.320045" lon="100.998266">
<time>2016-04-06T12:12:07Z</time></trkpt>
<trkpt lat="25.319995" lon="100.998246">
<time>2016-04-06T12:12:08Z</time></trkpt>
<trkpt lat="25.319925" lon="100.998217">
<time>2016-04-06T12:12:09Z</time></trkpt>
<trkpt lat="25.319856" lon="100.998197">
<time>2016-04-06T12:12:10Z</time></trkpt>
<trkpt lat="25.319496" lon="100.998097">
<time>2016-04-06T12:12:11Z</time></trkpt>
<trkpt lat="25.319376" lon="100.998057">
<time>2016-04-06T12:12:12Z</time></trkpt>
<trkpt lat="25.317787" lon="100.997619">
<time>2016-04-06T12:12:13Z</time></trkpt>
<trkpt lat="25.317667" lon="100.997599">
<time>2016-04-06T12:12:14Z</time></trkpt>
<trkpt lat="25.317527" lon="100.997579">
<time>2016-04-06T12:12:15Z</time></trkpt>
<trkpt lat="25.317417" lon="100.997569">
<time>2016-04-06T12:12:16Z</time></trkpt>
<trkpt lat="25.317287" lon="100.997559">
<time>2016-04-06T12:12:17Z</time></trkpt>
<trkpt lat="25.317167" lon="100.997559">
<time>2016-04-06T12:12:18Z</time></trkpt>
<trkpt lat="25.316997" lon="100.997569">
<time>2016-04-06T12:12:19Z</time></trkpt>
<trkpt lat="25.316577" lon="100.997619">
<time>2016-04-06T12:12:20Z</time></trkpt>
<trkpt lat="25.316377" lon="100.997649">
<time>2016-04-06T12:12:21Z</time></trkpt>
<trkpt lat="25.316197" lon="100.997689">
<time>2016-04-06T12:12:22Z</time></trkpt>
<trkpt lat="25.315756" lon="100.997798">
<time>2016-04-06T12:12:23Z</time></trkpt>
<trkpt lat="25.315626" lon="100.997818">
<time>2016-04-06T12:12:24Z</time></trkpt>
<trkpt lat="25.315486" lon="100.997838">
<time>2016-04-06T12:12:25Z</time></trkpt>
<trkpt lat="25.315336" lon="100.997838">
<time>2016-04-06T12:12:26Z</time></trkpt>
<trkpt lat="25.315086" lon="100.997838">
<time>2016-04-06T12:12:27Z</time></trkpt>
<trkpt lat="25.314906" lon="100.997838">
<time>2016-04-06T12:12:28Z</time></trkpt>
<trkpt lat="25.314766" lon="100.997838">
<time>2016-04-06T12:12:29Z</time></trkpt>
<trkpt lat="25.314626" lon="100.997868">
<time>2016-04-06T12:12:30Z</time></trkpt>
<trkpt lat="25.314416" lon="100.997918">
<time>2016-04-06T12:12:31Z</time></trkpt>
<trkpt lat="25.314035" lon="100.998047">
<time>2016-04-06T12:12:32Z</time></trkpt>
<trkpt lat="25.313725" lon="100.998137">
<time>2016-04-06T12:12:33Z</time></trkpt>
<trkpt lat="25.313655" lon="100.998147">
<time>2016-04-06T12:12:34Z</time></trkpt>
<trkpt lat="25.313575" lon="100.998147">
<time>2016-04-06T12:12:35Z</time></trkpt>
<trkpt lat="25.313495" lon="100.998137">
<time>2016-04-06T12:12:36Z</time></trkpt>
<trkpt lat="25.313425" lon="100.998127">
<time>2016-04-06T12:12:37Z</time></trkpt>
<trkpt lat="25.313365" lon="100.998107">
<time>2016-04-06T12:12:38Z</time></trkpt>
<trkpt lat="25.313295" lon="100.998077">
<time>2016-04-06T12:12:39Z</time></trkpt>
<trkpt lat="25.313285" lon="100.998077">
<time>2016-04-06T12:12:40Z</time></trkpt>
<trkpt lat="25.313215" lon="100.998037">
<time>2016-04-06T12:12:41Z</time></trkpt>
<trkpt lat="25.313106" lon="100.997988">
<time>2016-04-06T12:12:42Z</time></trkpt>
<trkpt lat="25.312926" lon="100.997898">
<time>2016-04-06T12:12:43Z</time></trkpt>
<trkpt lat="25.312676" lon="100.997769">
<time>2016-04-06T12:12:44Z</time></trkpt>
<trkpt lat="25.312327" lon="100.997589">
<time>2016-04-06T12:12:45Z</time></trkpt>
<trkpt lat="25.312147" lon="100.99748">
<time>2016-04-06T12:12:46Z</time></trkpt>
<trkpt lat="25.312107" lon="100.99745">
<time>2016-04-06T12:12:47Z</time></trkpt>
<trkpt lat="25.311987" lon="100.99735">
<time>2016-04-06T12:12:48Z</time></trkpt>
<trkpt lat="25.311838" lon="100.997221">
<time>2016-04-06T12:12:49Z</time></trkpt>
<trkpt lat="25.311678" lon="100.997061">
<time>2016-04-06T12:12:50Z</time></trkpt>
<trkpt lat="25.31101" lon="100.996334">
<time>2016-04-06T12:12:51Z</time></trkpt>
<trkpt lat="25.310901" lon="100.996215">
<time>2016-04-06T12:12:52Z</time></trkpt>
<trkpt lat="25.310861" lon="100.996175">
<time>2016-04-06T12:12:53Z</time></trkpt>
<trkpt lat="25.310821" lon="100.996145">
<time>2016-04-06T12:12:54Z</time></trkpt>
<trkpt lat="25.310781" lon="100.996115">
<time>2016-04-06T12:12:55Z</time></trkpt>
<trkpt lat="25.310731" lon="100.996085">
<time>2016-04-06T12:12:56Z</time></trkpt>
<trkpt lat="25.310691" lon="100.996065">
<time>2016-04-06T12:12:57Z</time></trkpt>
<trkpt lat="25.310651" lon="100.996055">
<time>2016-04-06T12:12:58Z</time></trkpt>
<trkpt lat="25.310601" lon="100.996035">
<time>2016-04-06T12:12:59Z</time></trkpt>
<trkpt lat="25.310551" lon="100.996025">
<time>2016-04-06T12:13:00Z</time></trkpt>
<trkpt lat="25.310501" lon="100.996025">
<time>2016-04-06T12:13:01Z</time></trkpt>
<trkpt lat="25.310441" lon="100.996025">
<time>2016-04-06T12:13:02Z</time></trkpt>
<trkpt lat="25.310381" lon="100.996025">
<time>2016-04-06T12:13:03Z</time></trkpt>
<trkpt lat="25.310331" lon="100.996035">
<time>2016-04-06T12:13:04Z</time></trkpt>
<trkpt lat="25.310271" lon="100.996045">
<time>2016-04-06T12:13:05Z</time></trkpt>
<trkpt lat="25.310171" lon="100.996065">
<time>2016-04-06T12:13:06Z</time></trkpt>
<trkpt lat="25.310041" lon="100.996105">
<time>2016-04-06T12:13:07Z</time></trkpt>
<trkpt lat="25.309881" lon="100.996165">
<time>2016-04-06T12:13:08Z</time></trkpt>
<trkpt lat="25.30951" lon="100.996294">
<time>2016-04-06T12:13:09Z</time></trkpt>
<trkpt lat="25.30919" lon="100.996404">
<time>2016-04-06T12:13:10Z</time></trkpt>
<trkpt lat="25.309" lon="100.996464">
<time>2016-04-06T12:13:11Z</time></trkpt>
<trkpt lat="25.30892" lon="100.996484">
<time>2016-04-06T12:13:12Z</time></trkpt>
<trkpt lat="25.30884" lon="100.996484">
<time>2016-04-06T12:13:13Z</time></trkpt>
<trkpt lat="25.30874" lon="100.996494">
<time>2016-04-06T12:13:14Z</time></trkpt>
<trkpt lat="25.30867" lon="100.996484">
<time>2016-04-06T12:13:15Z</time></trkpt>
<trkpt lat="25.30855" lon="100.996474">
<time>2016-04-06T12:13:16Z</time></trkpt>
<trkpt lat="25.30844" lon="100.996454">
<time>2016-04-06T12:13:17Z</time></trkpt>
<trkpt lat="25.30833" lon="100.996424">
<time>2016-04-06T12:13:18Z</time></trkpt>
<trkpt lat="25.30823" lon="100.996394">
<time>2016-04-06T12:13:19Z</time></trkpt>
<trkpt lat="25.30815" lon="100.996364">
<time>2016-04-06T12:13:20Z</time></trkpt>
<trkpt lat="25.30806" lon="100.996324">
<time>2016-04-06T12:13:21Z</time></trkpt>
<trkpt lat="25.30797" lon="100.996275">
<time>2016-04-06T12:13:22Z</time></trkpt>
<trkpt lat="25.30789" lon="100.996215">
<time>2016-04-06T12:13:23Z</time></trkpt>
<trkpt lat="25.307831" lon="100.996165">
<time>2016-04-06T12:13:24Z</time></trkpt>
<trkpt lat="25.307751" lon="100.996095">
<time>2016-04-06T12:13:25Z</time></trkpt>
<trkpt lat="25.307681" lon="100.996016">
<time>2016-04-06T12:13:26Z</time></trkpt>
<trkpt lat="25.307601" lon="100.995926">
<time>2016-04-06T12:13:27Z</time></trkpt>
<trkpt lat="25.307512" lon="100.995806">
<time>2016-04-06T12:13:28Z</time></trkpt>
<trkpt lat="25.307452" lon="100.995727">
<time>2016-04-06T12:13:29Z</time></trkpt>
<trkpt lat="25.307392" lon="100.995647">
<time>2016-04-06T12:13:30Z</time></trkpt>
<trkpt lat="25.307352" lon="100.995577">
<time>2016-04-06T12:13:31Z</time></trkpt>
<trkpt lat="25.307333" lon="100.995508">
<time>2016-04-06T12:13:32Z</time></trkpt>
<trkpt lat="25.307313" lon="100.995418">
<time>2016-04-06T12:13:33Z</time></trkpt>
<trkpt lat="25.307303" lon="100.995338">
<time>2016-04-06T12:13:34Z</time></trkpt>
<trkpt lat="25.307303" lon="100.995239">
<time>2016-04-06T12:13:35Z</time></trkpt>
<trkpt lat="25.307304" lon="100.995149">
<time>2016-04-06T12:13:36Z</time></trkpt>
<trkpt lat="25.307315" lon="100.99479">
<time>2016-04-06T12:13:37Z</time></trkpt>
<trkpt lat="25.307305" lon="100.994551">
<time>2016-04-06T12:13:38Z</time></trkpt>
<trkpt lat="25.307286" lon="100.994352">
<time>2016-04-06T12:13:39Z</time></trkpt>
<trkpt lat="25.307256" lon="100.994223">
<time>2016-04-06T12:13:40Z</time></trkpt>
<trkpt lat="25.307227" lon="100.994103">
<time>2016-04-06T12:13:41Z</time></trkpt>
<trkpt lat="25.307197" lon="100.994033">
<time>2016-04-06T12:13:42Z</time></trkpt>
<trkpt lat="25.307177" lon="100.993984">
<time>2016-04-06T12:13:43Z</time></trkpt>
<trkpt lat="25.307147" lon="100.993924">
<time>2016-04-06T12:13:44Z</time></trkpt>
<trkpt lat="25.307118" lon="100.993874">
<time>2016-04-06T12:13:45Z</time></trkpt>
<trkpt lat="25.307068" lon="100.993814">
<time>2016-04-06T12:13:46Z</time></trkpt>
<trkpt lat="25.307018" lon="100.993754">
<time>2016-04-06T12:13:47Z</time></trkpt>
<trkpt lat="25.306948" lon="100.993685">
<time>2016-04-06T12:13:48Z</time></trkpt>
<trkpt lat="25.306679" lon="100.993476">
<time>2016-04-06T12:13:49Z</time></trkpt>
<trkpt lat="25.306609" lon="100.993416">
<time>2016-04-06T12:13:50Z</time></trkpt>
<trkpt lat="25.306579" lon="100.993376">
<time>2016-04-06T12:13:51Z</time></trkpt>
<trkpt lat="25.306549" lon="100.993336">
<time>2016-04-06T12:13:52Z</time></trkpt>
<trkpt lat="25.306529" lon="100.993286">
<time>2016-04-06T12:13:53Z</time></trkpt>
<trkpt lat="25.306509" lon="100.993236">
<time>2016-04-06T12:13:54Z</time></trkpt>
<trkpt lat="25.3065" lon="100.993167">
<time>2016-04-06T12:13:55Z</time></trkpt>
<trkpt lat="25.30649" lon="100.993077">
<time>2016-04-06T12:13:56Z</time></trkpt>
<trkpt lat="25.30648" lon="100.992958">
<time>2016-04-06T12:13:57Z</time></trkpt>
<trkpt lat="25.306461" lon="100.992858">
<time>2016-04-06T12:13:58Z</time></trkpt>
<trkpt lat="25.306431" lon="100.992778">
<time>2016-04-06T12:13:59Z</time></trkpt>
<trkpt lat="25.306391" lon="100.992689">
<time>2016-04-06T12:14:00Z</time></trkpt>
<trkpt lat="25.306242" lon="100.99245">
<time>2016-04-06T12:14:01Z</time></trkpt>
<trkpt lat="25.306053" lon="100.992161">
<time>2016-04-06T12:14:02Z</time></trkpt>
<trkpt lat="25.305774" lon="100.991742">
<time>2016-04-06T12:14:03Z</time></trkpt>
<trkpt lat="25.305465" lon="100.991224">
<time>2016-04-06T12:14:04Z</time></trkpt>
<trkpt lat="25.305247" lon="100.990856">
<time>2016-04-06T12:14:05Z</time></trkpt>
<trkpt lat="25.305077" lon="100.990567">
<time>2016-04-06T12:14:06Z</time></trkpt>
<trkpt lat="25.304848" lon="100.990228">
<time>2016-04-06T12:14:07Z</time></trkpt>
<trkpt lat="25.304789" lon="100.990119">
<time>2016-04-06T12:14:08Z</time></trkpt>
<trkpt lat="25.304759" lon="100.990009">
<time>2016-04-06T12:14:09Z</time></trkpt>
<trkpt lat="25.304729" lon="100.9899">
<time>2016-04-06T12:14:10Z</time></trkpt>
<trkpt lat="25.30471" lon="100.98983">
<time>2016-04-06T12:14:11Z</time></trkpt>
<trkpt lat="25.30469" lon="100.98977">
<time>2016-04-06T12:14:12Z</time></trkpt>
<trkpt lat="25.30467" lon="100.98973">
<time>2016-04-06T12:14:13Z</time></trkpt>
<trkpt lat="25.30465" lon="100.98969">
<time>2016-04-06T12:14:14Z</time></trkpt>
<trkpt lat="25.30462" lon="100.989651">
<time>2016-04-06T12:14:15Z</time></trkpt>
<trkpt lat="25.30458" lon="100.989611">
<time>2016-04-06T12:14:16Z</time></trkpt>
<trkpt lat="25.3045" lon="100.989541">
<time>2016-04-06T12:14:17Z</time></trkpt>
<trkpt lat="25.304391" lon="100.989461">
<time>2016-04-06T12:14:18Z</time></trkpt>
<trkpt lat="25.304271" lon="100.989352">
<time>2016-04-06T12:14:19Z</time></trkpt>
<trkpt lat="25.304211" lon="100.989282">
<time>2016-04-06T12:14:20Z</time></trkpt>
<trkpt lat="25.304161" lon="100.989202">
<time>2016-04-06T12:14:21Z</time></trkpt>
<trkpt lat="25.304102" lon="100.989093">
<time>2016-04-06T12:14:22Z</time></trkpt>
<trkpt lat="25.304052" lon="100.988993">
<time>2016-04-06T12:14:23Z</time></trkpt>
<trkpt lat="25.303982" lon="100.988903">
<time>2016-04-06T12:14:24Z</time></trkpt>
<trkpt lat="25.303933" lon="100.988834">
<time>2016-04-06T12:14:25Z</time></trkpt>
<trkpt lat="25.303863" lon="100.988764">
<time>2016-04-06T12:14:26Z</time></trkpt>
<trkpt lat="25.303763" lon="100.988694">
<time>2016-04-06T12:14:27Z</time></trkpt>
<trkpt lat="25.303643" lon="100.988625">
<time>2016-04-06T12:14:28Z</time></trkpt>
<trkpt lat="25.303194" lon="100.988386">
<time>2016-04-06T12:14:29Z</time></trkpt>
<trkpt lat="25.303044" lon="100.988306">
<time>2016-04-06T12:14:30Z</time></trkpt>
<trkpt lat="25.302944" lon="100.988226">
<time>2016-04-06T12:14:31Z</time></trkpt>
<trkpt lat="25.302884" lon="100.988166">
<time>2016-04-06T12:14:32Z</time></trkpt>
<trkpt lat="25.302835" lon="100.988117">
<time>2016-04-06T12:14:33Z</time></trkpt>
<trkpt lat="25.302785" lon="100.988047">
<time>2016-04-06T12:14:34Z</time></trkpt>
<trkpt lat="25.302745" lon="100.987977">
<time>2016-04-06T12:14:35Z</time></trkpt>
<trkpt lat="25.302715" lon="100.987907">
<time>2016-04-06T12:14:36Z</time></trkpt>
<trkpt lat="25.302695" lon="100.987828">
<time>2016-04-06T12:14:37Z</time></trkpt>
<trkpt lat="25.302656" lon="100.987668">
<time>2016-04-06T12:14:38Z</time></trkpt>
<trkpt lat="25.302636" lon="100.987529">
<time>2016-04-06T12:14:39Z</time></trkpt>
<trkpt lat="25.302616" lon="100.987469">
<time>2016-04-06T12:14:40Z</time></trkpt>
<trkpt lat="25.302597" lon="100.987399">
<time>2016-04-06T12:14:41Z</time></trkpt>
<trkpt lat="25.302557" lon="100.98732">
<time>2016-04-06T12:14:42Z</time></trkpt>
<trkpt lat="25.302497" lon="100.98724">
<time>2016-04-06T12:14:43Z</time></trkpt>
<trkpt lat="25.302437" lon="100.98715">
<time>2016-04-06T12:14:44Z</time></trkpt>
<trkpt lat="25.302358" lon="100.987071">
<time>2016-04-06T12:14:45Z</time></trkpt>
<trkpt lat="25.302238" lon="100.986951">
<time>2016-04-06T12:14:46Z</time></trkpt>
<trkpt lat="25.301939" lon="100.986692">
<time>2016-04-06T12:14:47Z</time></trkpt>
<trkpt lat="25.301889" lon="100.986642">
<time>2016-04-06T12:14:48Z</time></trkpt>
<trkpt lat="25.301849" lon="100.986593">
<time>2016-04-06T12:14:49Z</time></trkpt>
<trkpt lat="25.301839" lon="100.986583">
<time>2016-04-06T12:14:50Z</time></trkpt>
<trkpt lat="25.301829" lon="100.986563">
<time>2016-04-06T12:14:51Z</time></trkpt>
<trkpt lat="25.301829" lon="100.986553">
<time>2016-04-06T12:14:52Z</time></trkpt>
<trkpt lat="25.301819" lon="100.986543">
<time>2016-04-06T12:14:53Z</time></trkpt>
<trkpt lat="25.301799" lon="100.986503">
<time>2016-04-06T12:14:54Z</time></trkpt>
<trkpt lat="25.301789" lon="100.986473">
<time>2016-04-06T12:14:55Z</time></trkpt>
<trkpt lat="25.301789" lon="100.986453">
<time>2016-04-06T12:14:56Z</time></trkpt>
<trkpt lat="25.30178" lon="100.986423">
<time>2016-04-06T12:14:57Z</time></trkpt>
<trkpt lat="25.30178" lon="100.986383">
<time>2016-04-06T12:14:58Z</time></trkpt>
<trkpt lat="25.30177" lon="100.986314">
<time>2016-04-06T12:14:59Z</time></trkpt>
<trkpt lat="25.30178" lon="100.986254">
<time>2016-04-06T12:15:00Z</time></trkpt>
<trkpt lat="25.30179" lon="100.986194">
<time>2016-04-06T12:15:01Z</time></trkpt>
<trkpt lat="25.301811" lon="100.986075">
<time>2016-04-06T12:15:02Z</time></trkpt>
<trkpt lat="25.301892" lon="100.985586">
<time>2016-04-06T12:15:03Z</time></trkpt>
<trkpt lat="25.301943" lon="100.985288">
<time>2016-04-06T12:15:04Z</time></trkpt>
<trkpt lat="25.301984" lon="100.985009">
<time>2016-04-06T12:15:05Z</time></trkpt>
<trkpt lat="25.302004" lon="100.984839">
<time>2016-04-06T12:15:06Z</time></trkpt>
<trkpt lat="25.302066" lon="100.984351">
<time>2016-04-06T12:15:07Z</time></trkpt>
<trkpt lat="25.302097" lon="100.984082">
<time>2016-04-06T12:15:08Z</time></trkpt>
<trkpt lat="25.302117" lon="100.984002">
<time>2016-04-06T12:15:09Z</time></trkpt>
<trkpt lat="25.302127" lon="100.983923">
<time>2016-04-06T12:15:10Z</time></trkpt>
<trkpt lat="25.302137" lon="100.983863">
<time>2016-04-06T12:15:11Z</time></trkpt>
<trkpt lat="25.302147" lon="100.983803">
<time>2016-04-06T12:15:12Z</time></trkpt>
<trkpt lat="25.302157" lon="100.983773">
<time>2016-04-06T12:15:13Z</time></trkpt>
<trkpt lat="25.302178" lon="100.983704">
<time>2016-04-06T12:15:14Z</time></trkpt>
<trkpt lat="25.302218" lon="100.983604">
<time>2016-04-06T12:15:15Z</time></trkpt>
<trkpt lat="25.302258" lon="100.983494">
<time>2016-04-06T12:15:16Z</time></trkpt>
<trkpt lat="25.302309" lon="100.983395">
<time>2016-04-06T12:15:17Z</time></trkpt>
<trkpt lat="25.302359" lon="100.983295">
<time>2016-04-06T12:15:18Z</time></trkpt>
<trkpt lat="25.302419" lon="100.983116">
<time>2016-04-06T12:15:19Z</time></trkpt>
<trkpt lat="25.30248" lon="100.982927">
<time>2016-04-06T12:15:20Z</time></trkpt>
<trkpt lat="25.302601" lon="100.982419">
<time>2016-04-06T12:15:21Z</time></trkpt>
<trkpt lat="25.302682" lon="100.98211">
<time>2016-04-06T12:15:22Z</time></trkpt>
<trkpt lat="25.302743" lon="100.98193">
<time>2016-04-06T12:15:23Z</time></trkpt>
<trkpt lat="25.302783" lon="100.981811">
<time>2016-04-06T12:15:24Z</time></trkpt>
<trkpt lat="25.302804" lon="100.981721">
<time>2016-04-06T12:15:25Z</time></trkpt>
<trkpt lat="25.302814" lon="100.981632">
<time>2016-04-06T12:15:26Z</time></trkpt>
<trkpt lat="25.302814" lon="100.981532">
<time>2016-04-06T12:15:27Z</time></trkpt>
<trkpt lat="25.302804" lon="100.981442">
<time>2016-04-06T12:15:28Z</time></trkpt>
<trkpt lat="25.302785" lon="100.981363">
<time>2016-04-06T12:15:29Z</time></trkpt>
<trkpt lat="25.302725" lon="100.981143">
<time>2016-04-06T12:15:30Z</time></trkpt>
<trkpt lat="25.302656" lon="100.980954">
<time>2016-04-06T12:15:31Z</time></trkpt>
<trkpt lat="25.302477" lon="100.980456">
<time>2016-04-06T12:15:32Z</time></trkpt>
<trkpt lat="25.302448" lon="100.980346">
<time>2016-04-06T12:15:33Z</time></trkpt>
<trkpt lat="25.302388" lon="100.980177">
<time>2016-04-06T12:15:34Z</time></trkpt>
<trkpt lat="25.302358" lon="100.980097">
<time>2016-04-06T12:15:35Z</time></trkpt>
<trkpt lat="25.302348" lon="100.980048">
<time>2016-04-06T12:15:36Z</time></trkpt>
<trkpt lat="25.302329" lon="100.979988">
<time>2016-04-06T12:15:37Z</time></trkpt>
<trkpt lat="25.302309" lon="100.979928">
<time>2016-04-06T12:15:38Z</time></trkpt>
<trkpt lat="25.302309" lon="100.979898">
<time>2016-04-06T12:15:39Z</time></trkpt>
<trkpt lat="25.302299" lon="100.979858">
<time>2016-04-06T12:15:40Z</time></trkpt>
<trkpt lat="25.302289" lon="100.979808">
<time>2016-04-06T12:15:41Z</time></trkpt>
<trkpt lat="25.302289" lon="100.979769">
<time>2016-04-06T12:15:42Z</time></trkpt>
<trkpt lat="25.302279" lon="100.979719">
<time>2016-04-06T12:15:43Z</time></trkpt>
<trkpt lat="25.302279" lon="100.979679">
<time>2016-04-06T12:15:44Z</time></trkpt>
<trkpt lat="25.30227" lon="100.979629">
<time>2016-04-06T12:15:45Z</time></trkpt>
<trkpt lat="25.30228" lon="100.979569">
<time>2016-04-06T12:15:46Z</time></trkpt>
<trkpt lat="25.302291" lon="100.97928">
<time>2016-04-06T12:15:47Z</time></trkpt>
<trkpt lat="25.302301" lon="100.979151">
<time>2016-04-06T12:15:48Z</time></trkpt>
<trkpt lat="25.302313" lon="100.978543">
<time>2016-04-06T12:15:49Z</time></trkpt>
<trkpt lat="25.302324" lon="100.978045">
<time>2016-04-06T12:15:50Z</time></trkpt>
<trkpt lat="25.302334" lon="100.977955">
<time>2016-04-06T12:15:51Z</time></trkpt>
<trkpt lat="25.302345" lon="100.977856">
<time>2016-04-06T12:15:52Z</time></trkpt>
<trkpt lat="25.302345" lon="100.977796">
<time>2016-04-06T12:15:53Z</time></trkpt>
<trkpt lat="25.302355" lon="100.977766">
<time>2016-04-06T12:15:54Z</time></trkpt>
<trkpt lat="25.302365" lon="100.977716">
<time>2016-04-06T12:15:55Z</time></trkpt>
<trkpt lat="25.302365" lon="100.977696">
<time>2016-04-06T12:15:56Z</time></trkpt>
<trkpt lat="25.302375" lon="100.977666">
<time>2016-04-06T12:15:57Z</time></trkpt>
<trkpt lat="25.302395" lon="100.977617">
<time>2016-04-06T12:15:58Z</time></trkpt>
<trkpt lat="25.302415" lon="100.977577">
<time>2016-04-06T12:15:59Z</time></trkpt>
<trkpt lat="25.302426" lon="100.977547">
<time>2016-04-06T12:16:00Z</time></trkpt>
<trkpt lat="25.302446" lon="100.977517">
<time>2016-04-06T12:16:01Z</time></trkpt>
<trkpt lat="25.302476" lon="100.977487">
<time>2016-04-06T12:16:02Z</time></trkpt>
<trkpt lat="25.302496" lon="100.977457">
<time>2016-04-06T12:16:03Z</time></trkpt>
<trkpt lat="25.302526" lon="100.977427">
<time>2016-04-06T12:16:04Z</time></trkpt>
<trkpt lat="25.302586" lon="100.977388">
<time>2016-04-06T12:16:05Z</time></trkpt>
<trkpt lat="25.302776" lon="100.977278">
<time>2016-04-06T12:16:06Z</time></trkpt>
<trkpt lat="25.302816" lon="100.977248">
<time>2016-04-06T12:16:07Z</time></trkpt>
<trkpt lat="25.302847" lon="100.977218">
<time>2016-04-06T12:16:08Z</time></trkpt>
<trkpt lat="25.302877" lon="100.977188">
<time>2016-04-06T12:16:09Z</time></trkpt>
<trkpt lat="25.302897" lon="100.977158">
<time>2016-04-06T12:16:10Z</time></trkpt>
<trkpt lat="25.302917" lon="100.977118">
<time>2016-04-06T12:16:11Z</time></trkpt>
<trkpt lat="25.302927" lon="100.977079">
<time>2016-04-06T12:16:12Z</time></trkpt>
<trkpt lat="25.302947" lon="100.977039">
<time>2016-04-06T12:16:13Z</time></trkpt>
<trkpt lat="25.302957" lon="100.976989">
<time>2016-04-06T12:16:14Z</time></trkpt>
<trkpt lat="25.302968" lon="100.976879">
<time>2016-04-06T12:16:15Z</time></trkpt>
<trkpt lat="25.302988" lon="100.97674">
<time>2016-04-06T12:16:16Z</time></trkpt>
<trkpt lat="25.303008" lon="100.97668">
<time>2016-04-06T12:16:17Z</time></trkpt>
<trkpt lat="25.303028" lon="100.97663">
<time>2016-04-06T12:16:18Z</time></trkpt>
<trkpt lat="25.303048" lon="100.9766">
<time>2016-04-06T12:16:19Z</time></trkpt>
<trkpt lat="25.303068" lon="100.976561">
<time>2016-04-06T12:16:20Z</time></trkpt>
<trkpt lat="25.303109" lon="100.976531">
<time>2016-04-06T12:16:21Z</time></trkpt>
<trkpt lat="25.303229" lon="100.976451">
<time>2016-04-06T12:16:22Z</time></trkpt>
<trkpt lat="25.303359" lon="100.976381">
<time>2016-04-06T12:16:23Z</time></trkpt>
<trkpt lat="25.30386" lon="100.976142">
<time>2016-04-06T12:16:24Z</time></trkpt>
<trkpt lat="25.30394" lon="100.976092">
<time>2016-04-06T12:16:25Z</time></trkpt>
<trkpt lat="25.304" lon="100.976042">
<time>2016-04-06T12:16:26Z</time></trkpt>
<trkpt lat="25.30405" lon="100.975993">
<time>2016-04-06T12:16:27Z</time></trkpt>
<trkpt lat="25.30408" lon="100.975943">
<time>2016-04-06T12:16:28Z</time></trkpt>
<trkpt lat="25.30411" lon="100.975893">
<time>2016-04-06T12:16:29Z</time></trkpt>
<trkpt lat="25.304121" lon="100.975833">
<time>2016-04-06T12:16:30Z</time></trkpt>
<trkpt lat="25.304131" lon="100.975773">
<time>2016-04-06T12:16:31Z</time></trkpt>
<trkpt lat="25.304131" lon="100.975724">
<time>2016-04-06T12:16:32Z</time></trkpt>
<trkpt lat="25.304121" lon="100.975664">
<time>2016-04-06T12:16:33Z</time></trkpt>
<trkpt lat="25.304091" lon="100.975584">
<time>2016-04-06T12:16:34Z</time></trkpt>
<trkpt lat="25.304042" lon="100.975435">
<time>2016-04-06T12:16:35Z</time></trkpt>
<trkpt lat="25.303913" lon="100.975056">
<time>2016-04-06T12:16:36Z</time></trkpt>
<trkpt lat="25.303883" lon="100.974966">
<time>2016-04-06T12:16:37Z</time></trkpt>
<trkpt lat="25.303873" lon="100.974887">
<time>2016-04-06T12:16:38Z</time></trkpt>
<trkpt lat="25.303826" lon="100.97389">
<time>2016-04-06T12:16:39Z</time></trkpt>
<trkpt lat="25.303836" lon="100.973781">
<time>2016-04-06T12:16:40Z</time></trkpt>
<trkpt lat="25.303847" lon="100.973691">
<time>2016-04-06T12:16:41Z</time></trkpt>
<trkpt lat="25.303857" lon="100.973621">
<time>2016-04-06T12:16:42Z</time></trkpt>
<trkpt lat="25.303887" lon="100.973532">
<time>2016-04-06T12:16:43Z</time></trkpt>
<trkpt lat="25.303927" lon="100.973462">
<time>2016-04-06T12:16:44Z</time></trkpt>
<trkpt lat="25.303997" lon="100.973372">
<time>2016-04-06T12:16:45Z</time></trkpt>
<trkpt lat="25.304058" lon="100.973312">
<time>2016-04-06T12:16:46Z</time></trkpt>
<trkpt lat="25.304118" lon="100.973273">
<time>2016-04-06T12:16:47Z</time></trkpt>
<trkpt lat="25.304218" lon="100.973223">
<time>2016-04-06T12:16:48Z</time></trkpt>
<trkpt lat="25.304298" lon="100.973183">
<time>2016-04-06T12:16:49Z</time></trkpt>
<trkpt lat="25.304348" lon="100.973143">
<time>2016-04-06T12:16:50Z</time></trkpt>
<trkpt lat="25.304388" lon="100.973103">
<time>2016-04-06T12:16:51Z</time></trkpt>
<trkpt lat="25.304438" lon="100.973053">
<time>2016-04-06T12:16:52Z</time></trkpt>
<trkpt lat="25.304479" lon="100.972984">
<time>2016-04-06T12:16:53Z</time></trkpt>
<trkpt lat="25.304519" lon="100.972914">
<time>2016-04-06T12:16:54Z</time></trkpt>
<trkpt lat="25.304569" lon="100.972754">
<time>2016-04-06T12:16:55Z</time></trkpt>
<trkpt lat="25.304599" lon="100.972685">
<time>2016-04-06T12:16:56Z</time></trkpt>
<trkpt lat="25.30464" lon="100.972605">
<time>2016-04-06T12:16:57Z</time></trkpt>
<trkpt lat="25.30468" lon="100.972545">
<time>2016-04-06T12:16:58Z</time></trkpt>
<trkpt lat="25.30472" lon="100.972495">
<time>2016-04-06T12:16:59Z</time></trkpt>
<trkpt lat="25.30478" lon="100.972426">
<time>2016-04-06T12:17:00Z</time></trkpt>
<trkpt lat="25.30485" lon="100.972356">
<time>2016-04-06T12:17:01Z</time></trkpt>
<trkpt lat="25.304901" lon="100.972296">
<time>2016-04-06T12:17:02Z</time></trkpt>
<trkpt lat="25.304951" lon="100.972226">
<time>2016-04-06T12:17:03Z</time></trkpt>
<trkpt lat="25.304991" lon="100.972157">
<time>2016-04-06T12:17:04Z</time></trkpt>
<trkpt lat="25.305031" lon="100.972067">
<time>2016-04-06T12:17:05Z</time></trkpt>
<trkpt lat="25.305051" lon="100.971967">
<time>2016-04-06T12:17:06Z</time></trkpt>
<trkpt lat="25.305092" lon="100.971768">
<time>2016-04-06T12:17:07Z</time></trkpt>
<trkpt lat="25.305143" lon="100.971479">
<time>2016-04-06T12:17:08Z</time></trkpt>
<trkpt lat="25.305163" lon="100.971409">
<time>2016-04-06T12:17:09Z</time></trkpt>
<trkpt lat="25.305183" lon="100.97133">
<time>2016-04-06T12:17:10Z</time></trkpt>
<trkpt lat="25.305203" lon="100.97128">
<time>2016-04-06T12:17:11Z</time></trkpt>
<trkpt lat="25.305233" lon="100.97124">
<time>2016-04-06T12:17:12Z</time></trkpt>
<trkpt lat="25.305254" lon="100.97121">
<time>2016-04-06T12:17:13Z</time></trkpt>
<trkpt lat="25.305284" lon="100.97118">
<time>2016-04-06T12:17:14Z</time></trkpt>
<trkpt lat="25.305314" lon="100.97116">
<time>2016-04-06T12:17:15Z</time></trkpt>
<trkpt lat="25.305344" lon="100.97114">
<time>2016-04-06T12:17:16Z</time></trkpt>
<trkpt lat="25.305384" lon="100.97112">
<time>2016-04-06T12:17:17Z</time></trkpt>
<trkpt lat="25.305404" lon="100.97111">
<time>2016-04-06T12:17:18Z</time></trkpt>
<trkpt lat="25.305444" lon="100.97109">
<time>2016-04-06T12:17:19Z</time></trkpt>
<trkpt lat="25.305474" lon="100.97109">
<time>2016-04-06T12:17:20Z</time></trkpt>
<trkpt lat="25.305504" lon="100.97109">
<time>2016-04-06T12:17:21Z</time></trkpt>
<trkpt lat="25.305534" lon="100.97109">
<time>2016-04-06T12:17:22Z</time></trkpt>
<trkpt lat="25.305564" lon="100.97109">
<time>2016-04-06T12:17:23Z</time></trkpt>
<trkpt lat="25.305584" lon="100.9711">
<time>2016-04-06T12:17:24Z</time></trkpt>
<trkpt lat="25.305624" lon="100.97112">
<time>2016-04-06T12:17:25Z</time></trkpt>
<trkpt lat="25.305664" lon="100.97114">
<time>2016-04-06T12:17:26Z</time></trkpt>
<trkpt lat="25.305684" lon="100.97116">
<time>2016-04-06T12:17:27Z</time></trkpt>
<trkpt lat="25.305714" lon="100.97118">
<time>2016-04-06T12:17:28Z</time></trkpt>
<trkpt lat="25.305734" lon="100.97121">
<time>2016-04-06T12:17:29Z</time></trkpt>
<trkpt lat="25.305803" lon="100.9713">
<time>2016-04-06T12:17:30Z</time></trkpt>
<trkpt lat="25.305883" lon="100.971409">
<time>2016-04-06T12:17:31Z</time></trkpt>
<trkpt lat="25.305953" lon="100.971519">
<time>2016-04-06T12:17:32Z</time></trkpt>
<trkpt lat="25.306032" lon="100.971668">
<time>2016-04-06T12:17:33Z</time></trkpt>
<trkpt lat="25.306072" lon="100.971778">
<time>2016-04-06T12:17:34Z</time></trkpt>
<trkpt lat="25.306092" lon="100.971868">
<time>2016-04-06T12:17:35Z</time></trkpt>
<trkpt lat="25.306102" lon="100.971967">
<time>2016-04-06T12:17:36Z</time></trkpt>
<trkpt lat="25.306091" lon="100.972077">
<time>2016-04-06T12:17:37Z</time></trkpt>
<trkpt lat="25.306081" lon="100.972196">
<time>2016-04-06T12:17:38Z</time></trkpt>
<trkpt lat="25.306081" lon="100.972276">
<time>2016-04-06T12:17:39Z</time></trkpt>
<trkpt lat="25.306091" lon="100.972306">
<time>2016-04-06T12:17:40Z</time></trkpt>
<trkpt lat="25.306091" lon="100.972336">
<time>2016-04-06T12:17:41Z</time></trkpt>
<trkpt lat="25.3061" lon="100.972356">
<time>2016-04-06T12:17:42Z</time></trkpt>
<trkpt lat="25.3061" lon="100.972386">
<time>2016-04-06T12:17:43Z</time></trkpt>
<trkpt lat="25.30611" lon="100.972416">
<time>2016-04-06T12:17:44Z</time></trkpt>
<trkpt lat="25.30613" lon="100.972436">
<time>2016-04-06T12:17:45Z</time></trkpt>
<trkpt lat="25.30614" lon="100.972456">
<time>2016-04-06T12:17:46Z</time></trkpt>
<trkpt lat="25.30616" lon="100.972475">
<time>2016-04-06T12:17:47Z</time></trkpt>
<trkpt lat="25.30618" lon="100.972485">
<time>2016-04-06T12:17:48Z</time></trkpt>
<trkpt lat="25.3062" lon="100.972505">
<time>2016-04-06T12:17:49Z</time></trkpt>
<trkpt lat="25.30623" lon="100.972515">
<time>2016-04-06T12:17:50Z</time></trkpt>
<trkpt lat="25.30626" lon="100.972525">
<time>2016-04-06T12:17:51Z</time></trkpt>
<trkpt lat="25.30629" lon="100.972525">
<time>2016-04-06T12:17:52Z</time></trkpt>
<trkpt lat="25.30632" lon="100.972525">
<time>2016-04-06T12:17:53Z</time></trkpt>
<trkpt lat="25.30635" lon="100.972525">
<time>2016-04-06T12:17:54Z</time></trkpt>
<trkpt lat="25.30638" lon="100.972515">
<time>2016-04-06T12:17:55Z</time></trkpt>
<trkpt lat="25.3064" lon="100.972515">
<time>2016-04-06T12:17:56Z</time></trkpt>
<trkpt lat="25.30643" lon="100.972505">
<time>2016-04-06T12:17:57Z</time></trkpt>
<trkpt lat="25.30646" lon="100.972485">
<time>2016-04-06T12:17:58Z</time></trkpt>
<trkpt lat="25.30653" lon="100.972456">
<time>2016-04-06T12:17:59Z</time></trkpt>
<trkpt lat="25.30657" lon="100.972436">
<time>2016-04-06T12:18:00Z</time></trkpt>
<trkpt lat="25.30665" lon="100.972396">
<time>2016-04-06T12:18:01Z</time></trkpt>
<trkpt lat="25.306771" lon="100.972346">
<time>2016-04-06T12:18:02Z</time></trkpt>
<trkpt lat="25.306881" lon="100.972316">
<time>2016-04-06T12:18:03Z</time></trkpt>
<trkpt lat="25.307011" lon="100.972286">
<time>2016-04-06T12:18:04Z</time></trkpt>
<trkpt lat="25.307151" lon="100.972266">
<time>2016-04-06T12:18:05Z</time></trkpt>
<trkpt lat="25.307291" lon="100.972246">
<time>2016-04-06T12:18:06Z</time></trkpt>
<trkpt lat="25.307431" lon="100.972236">
<time>2016-04-06T12:18:07Z</time></trkpt>
<trkpt lat="25.307551" lon="100.972246">
<time>2016-04-06T12:18:08Z</time></trkpt>
<trkpt lat="25.307611" lon="100.972246">
<time>2016-04-06T12:18:09Z</time></trkpt>
<trkpt lat="25.307651" lon="100.972256">
<time>2016-04-06T12:18:10Z</time></trkpt>
<trkpt lat="25.307691" lon="100.972266">
<time>2016-04-06T12:18:11Z</time></trkpt>
<trkpt lat="25.307721" lon="100.972266">
<time>2016-04-06T12:18:12Z</time></trkpt>
<trkpt lat="25.307761" lon="100.972286">
<time>2016-04-06T12:18:13Z</time></trkpt>
<trkpt lat="25.307791" lon="100.972306">
<time>2016-04-06T12:18:14Z</time></trkpt>
<trkpt lat="25.307821" lon="100.972316">
<time>2016-04-06T12:18:15Z</time></trkpt>
<trkpt lat="25.307841" lon="100.972336">
<time>2016-04-06T12:18:16Z</time></trkpt>
<trkpt lat="25.307881" lon="100.972366">
<time>2016-04-06T12:18:17Z</time></trkpt>
<trkpt lat="25.30799" lon="100.972455">
<time>2016-04-06T12:18:18Z</time></trkpt>
<trkpt lat="25.30804" lon="100.972505">
<time>2016-04-06T12:18:19Z</time></trkpt>
<trkpt lat="25.30808" lon="100.972535">
<time>2016-04-06T12:18:20Z</time></trkpt>
<trkpt lat="25.30812" lon="100.972555">
<time>2016-04-06T12:18:21Z</time></trkpt>
<trkpt lat="25.30814" lon="100.972565">
<time>2016-04-06T12:18:22Z</time></trkpt>
<trkpt lat="25.30816" lon="100.972575">
<time>2016-04-06T12:18:23Z</time></trkpt>
<trkpt lat="25.30819" lon="100.972575">
<time>2016-04-06T12:18:24Z</time></trkpt>
<trkpt lat="25.30822" lon="100.972575">
<time>2016-04-06T12:18:25Z</time></trkpt>
<trkpt lat="25.30825" lon="100.972575">
<time>2016-04-06T12:18:26Z</time></trkpt>
<trkpt lat="25.30828" lon="100.972565">
<time>2016-04-06T12:18:27Z</time></trkpt>
<trkpt lat="25.30831" lon="100.972555">
<time>2016-04-06T12:18:28Z</time></trkpt>
<trkpt lat="25.30834" lon="100.972535">
<time>2016-04-06T12:18:29Z</time></trkpt>
<trkpt lat="25.30836" lon="100.972515">
<time>2016-04-06T12:18:30Z</time></trkpt>
<trkpt lat="25.30839" lon="100.972495">
<time>2016-04-06T12:18:31Z</time></trkpt>
<trkpt lat="25.30841" lon="100.972465">
<time>2016-04-06T12:18:32Z</time></trkpt>
<trkpt lat="25.30843" lon="100.972416">
<time>2016-04-06T12:18:33Z</time></trkpt>
<trkpt lat="25.308451" lon="100.972376">
<time>2016-04-06T12:18:34Z</time></trkpt>
<trkpt lat="25.308471" lon="100.972326">
<time>2016-04-06T12:18:35Z</time></trkpt>
<trkpt lat="25.308491" lon="100.972236">
<time>2016-04-06T12:18:36Z</time></trkpt>
<trkpt lat="25.308491" lon="100.972147">
<time>2016-04-06T12:18:37Z</time></trkpt>
<trkpt lat="25.308491" lon="100.972057">
<time>2016-04-06T12:18:38Z</time></trkpt>
<trkpt lat="25.308482" lon="100.971947">
<time>2016-04-06T12:18:39Z</time></trkpt>
<trkpt lat="25.308462" lon="100.971808">
<time>2016-04-06T12:18:40Z</time></trkpt>
<trkpt lat="25.308452" lon="100.971688">
<time>2016-04-06T12:18:41Z</time></trkpt>
<trkpt lat="25.308443" lon="100.971539">
<time>2016-04-06T12:18:42Z</time></trkpt>
<trkpt lat="25.308463" lon="100.971349">
<time>2016-04-06T12:18:43Z</time></trkpt>
<trkpt lat="25.308474" lon="100.97125">
<time>2016-04-06T12:18:44Z</time></trkpt>
<trkpt lat="25.308494" lon="100.97113">
<time>2016-04-06T12:18:45Z</time></trkpt>
<trkpt lat="25.308514" lon="100.971031">
<time>2016-04-06T12:18:46Z</time></trkpt>
<trkpt lat="25.308525" lon="100.970931">
<time>2016-04-06T12:18:47Z</time></trkpt>
<trkpt lat="25.308525" lon="100.970841">
<time>2016-04-06T12:18:48Z</time></trkpt>
<trkpt lat="25.308515" lon="100.970762">
<time>2016-04-06T12:18:49Z</time></trkpt>
<trkpt lat="25.308505" lon="100.970692">
<time>2016-04-06T12:18:50Z</time></trkpt>
<trkpt lat="25.308485" lon="100.970622">
<time>2016-04-06T12:18:51Z</time></trkpt>
<trkpt lat="25.308456" lon="100.970552">
<time>2016-04-06T12:18:52Z</time></trkpt>
<trkpt lat="25.308416" lon="100.970463">
<time>2016-04-06T12:18:53Z</time></trkpt>
<trkpt lat="25.308306" lon="100.970243">
<time>2016-04-06T12:18:54Z</time></trkpt>
<trkpt lat="25.308247" lon="100.970084">
<time>2016-04-06T12:18:55Z</time></trkpt>
<trkpt lat="25.308227" lon="100.970014">
<time>2016-04-06T12:18:56Z</time></trkpt>
<trkpt lat="25.308217" lon="100.969964">
<time>2016-04-06T12:18:57Z</time></trkpt>
<trkpt lat="25.308217" lon="100.969925">
<time>2016-04-06T12:18:58Z</time></trkpt>
<trkpt lat="25.308217" lon="100.969885">
<time>2016-04-06T12:18:59Z</time></trkpt>
<trkpt lat="25.308217" lon="100.969845">
<time>2016-04-06T12:19:00Z</time></trkpt>
<trkpt lat="25.308228" lon="100.969795">
<time>2016-04-06T12:19:01Z</time></trkpt>
<trkpt lat="25.308248" lon="100.969735">
<time>2016-04-06T12:19:02Z</time></trkpt>
<trkpt lat="25.308288" lon="100.969606">
<time>2016-04-06T12:19:03Z</time></trkpt>
<trkpt lat="25.308319" lon="100.969466">
<time>2016-04-06T12:19:04Z</time></trkpt>
<trkpt lat="25.308349" lon="100.969347">
<time>2016-04-06T12:19:05Z</time></trkpt>
<trkpt lat="25.308359" lon="100.969267">
<time>2016-04-06T12:19:06Z</time></trkpt>
<trkpt lat="25.308359" lon="100.969187">
<time>2016-04-06T12:19:07Z</time></trkpt>
<trkpt lat="25.30835" lon="100.969088">
<time>2016-04-06T12:19:08Z</time></trkpt>
<trkpt lat="25.30832" lon="100.968958">
<time>2016-04-06T12:19:09Z</time></trkpt>
<trkpt lat="25.30826" lon="100.968789">
<time>2016-04-06T12:19:10Z</time></trkpt>
<trkpt lat="25.308211" lon="100.968599">
<time>2016-04-06T12:19:11Z</time></trkpt>
<trkpt lat="25.308191" lon="100.9685">
<time>2016-04-06T12:19:12Z</time></trkpt>
<trkpt lat="25.308181" lon="100.96844">
<time>2016-04-06T12:19:13Z</time></trkpt>
<trkpt lat="25.308191" lon="100.96836">
<time>2016-04-06T12:19:14Z</time></trkpt>
<trkpt lat="25.308232" lon="100.96827">
<time>2016-04-06T12:19:15Z</time></trkpt>
<trkpt lat="25.308262" lon="100.968231">
<time>2016-04-06T12:19:16Z</time></trkpt>
<trkpt lat="25.308302" lon="100.968181">
<time>2016-04-06T12:19:17Z</time></trkpt>
<trkpt lat="25.308362" lon="100.968141">
<time>2016-04-06T12:19:18Z</time></trkpt>
<trkpt lat="25.308422" lon="100.968121">
<time>2016-04-06T12:19:19Z</time></trkpt>
<trkpt lat="25.308472" lon="100.968121">
<time>2016-04-06T12:19:20Z</time></trkpt>
<trkpt lat="25.308522" lon="100.968131">
<time>2016-04-06T12:19:21Z</time></trkpt>
<trkpt lat="25.308592" lon="100.968141">
<time>2016-04-06T12:19:22Z</time></trkpt>
<trkpt lat="25.308662" lon="100.968171">
<time>2016-04-06T12:19:23Z</time></trkpt>
<trkpt lat="25.308752" lon="100.968231">
<time>2016-04-06T12:19:24Z</time></trkpt>
<trkpt lat="25.308912" lon="100.96836">
<time>2016-04-06T12:19:25Z</time></trkpt>
<trkpt lat="25.309291" lon="100.968659">
<time>2016-04-06T12:19:26Z</time></trkpt>
<trkpt lat="25.309401" lon="100.968749">
<time>2016-04-06T12:19:27Z</time></trkpt>
<trkpt lat="25.30946" lon="100.968779">
<time>2016-04-06T12:19:28Z</time></trkpt>
<trkpt lat="25.30953" lon="100.968789">
<time>2016-04-06T12:19:29Z</time></trkpt>
<trkpt lat="25.30958" lon="100.968779">
<time>2016-04-06T12:19:30Z</time></trkpt>
<trkpt lat="25.30962" lon="100.968769">
<time>2016-04-06T12:19:31Z</time></trkpt>
<trkpt lat="25.309651" lon="100.968749">
<time>2016-04-06T12:19:32Z</time></trkpt>
<trkpt lat="25.309681" lon="100.968719">
<time>2016-04-06T12:19:33Z</time></trkpt>
<trkpt lat="25.309711" lon="100.968679">
<time>2016-04-06T12:19:34Z</time></trkpt>
<trkpt lat="25.309731" lon="100.968619">
<time>2016-04-06T12:19:35Z</time></trkpt>
<trkpt lat="25.309751" lon="100.968569">
<time>2016-04-06T12:19:36Z</time></trkpt>
<trkpt lat="25.309771" lon="100.96845">
<time>2016-04-06T12:19:37Z</time></trkpt>
<trkpt lat="25.309812" lon="100.96836">
<time>2016-04-06T12:19:38Z</time></trkpt>
<trkpt lat="25.309872" lon="100.968221">
<time>2016-04-06T12:19:39Z</time></trkpt>
<trkpt lat="25.309912" lon="100.968151">
<time>2016-04-06T12:19:40Z</time></trkpt>
<trkpt lat="25.309972" lon="100.968061">
<time>2016-04-06T12:19:41Z</time></trkpt>
<trkpt lat="25.310083" lon="100.967952">
<time>2016-04-06T12:19:42Z</time></trkpt>
<trkpt lat="25.310203" lon="100.967842">
<time>2016-04-06T12:19:43Z</time></trkpt>
<trkpt lat="25.310283" lon="100.967762">
<time>2016-04-06T12:19:44Z</time></trkpt>
<trkpt lat="25.310383" lon="100.967702">
<time>2016-04-06T12:19:45Z</time></trkpt>
<trkpt lat="25.310454" lon="100.967663">
<time>2016-04-06T12:19:46Z</time></trkpt>
<trkpt lat="25.310554" lon="100.967623">
<time>2016-04-06T12:19:47Z</time></trkpt>
<trkpt lat="25.310664" lon="100.967593">
<time>2016-04-06T12:19:48Z</time></trkpt>
<trkpt lat="25.310764" lon="100.967573">
<time>2016-04-06T12:19:49Z</time></trkpt>
<trkpt lat="25.310834" lon="100.967563">
<time>2016-04-06T12:19:50Z</time></trkpt>
<trkpt lat="25.310914" lon="100.967533">
<time>2016-04-06T12:19:51Z</time></trkpt>
<trkpt lat="25.310974" lon="100.967503">
<time>2016-04-06T12:19:52Z</time></trkpt>
<trkpt lat="25.311004" lon="100.967483">
<time>2016-04-06T12:19:53Z</time></trkpt>
<trkpt lat="25.311034" lon="100.967453">
<time>2016-04-06T12:19:54Z</time></trkpt>
<trkpt lat="25.311064" lon="100.967413">
<time>2016-04-06T12:19:55Z</time></trkpt>
<trkpt lat="25.311114" lon="100.967324">
<time>2016-04-06T12:19:56Z</time></trkpt>
<trkpt lat="25.311175" lon="100.967184">
<time>2016-04-06T12:19:57Z</time></trkpt>
<trkpt lat="25.311245" lon="100.967045">
<time>2016-04-06T12:19:58Z</time></trkpt>
<trkpt lat="25.311376" lon="100.966905">
<time>2016-04-06T12:19:59Z</time></trkpt>
<trkpt lat="25.311466" lon="100.966825">
<time>2016-04-06T12:20:00Z</time></trkpt>
<trkpt lat="25.311516" lon="100.966766">
<time>2016-04-06T12:20:01Z</time></trkpt>
<trkpt lat="25.311546" lon="100.966716">
<time>2016-04-06T12:20:02Z</time></trkpt>
<trkpt lat="25.311566" lon="100.966646">
<time>2016-04-06T12:20:03Z</time></trkpt>
<trkpt lat="25.311576" lon="100.966576">
<time>2016-04-06T12:20:04Z</time></trkpt>
<trkpt lat="25.311597" lon="100.966467">
<time>2016-04-06T12:20:05Z</time></trkpt>
<trkpt lat="25.311597" lon="100.966337">
<time>2016-04-06T12:20:06Z</time></trkpt>
<trkpt lat="25.311607" lon="100.966218">
<time>2016-04-06T12:20:07Z</time></trkpt>
<trkpt lat="25.311638" lon="100.966148">
<time>2016-04-06T12:20:08Z</time></trkpt>
<trkpt lat="25.311668" lon="100.966078">
<time>2016-04-06T12:20:09Z</time></trkpt>
<trkpt lat="25.311708" lon="100.966038">
<time>2016-04-06T12:20:10Z</time></trkpt>
<trkpt lat="25.311738" lon="100.966018">
<time>2016-04-06T12:20:11Z</time></trkpt>
<trkpt lat="25.311788" lon="100.965998">
<time>2016-04-06T12:20:12Z</time></trkpt>
<trkpt lat="25.311818" lon="100.965998">
<time>2016-04-06T12:20:13Z</time></trkpt>
<trkpt lat="25.311848" lon="100.965998">
<time>2016-04-06T12:20:14Z</time></trkpt>
<trkpt lat="25.311878" lon="100.965998">
<time>2016-04-06T12:20:15Z</time></trkpt>
<trkpt lat="25.311908" lon="100.966008">
<time>2016-04-06T12:20:16Z</time></trkpt>
<trkpt lat="25.311948" lon="100.966018">
<time>2016-04-06T12:20:17Z</time></trkpt>
<trkpt lat="25.311998" lon="100.966058">
<time>2016-04-06T12:20:18Z</time></trkpt>
<trkpt lat="25.312078" lon="100.966118">
<time>2016-04-06T12:20:19Z</time></trkpt>
<trkpt lat="25.312177" lon="100.966217">
<time>2016-04-06T12:20:20Z</time></trkpt>
<trkpt lat="25.312237" lon="100.966267">
<time>2016-04-06T12:20:21Z</time></trkpt>
<trkpt lat="25.312287" lon="100.966287">
<time>2016-04-06T12:20:22Z</time></trkpt>
<trkpt lat="25.312337" lon="100.966307">
<time>2016-04-06T12:20:23Z</time></trkpt>
<trkpt lat="25.312387" lon="100.966307">
<time>2016-04-06T12:20:24Z</time></trkpt>
<trkpt lat="25.312457" lon="100.966297">
<time>2016-04-06T12:20:25Z</time></trkpt>
<trkpt lat="25.312517" lon="100.966267">
<time>2016-04-06T12:20:26Z</time></trkpt>
<trkpt lat="25.312558" lon="100.966188">
<time>2016-04-06T12:20:27Z</time></trkpt>
<trkpt lat="25.312578" lon="100.966128">
<time>2016-04-06T12:20:28Z</time></trkpt>
<trkpt lat="25.312588" lon="100.966078">
<time>2016-04-06T12:20:29Z</time></trkpt>
<trkpt lat="25.312598" lon="100.965978">
<time>2016-04-06T12:20:30Z</time></trkpt>
<trkpt lat="25.312559" lon="100.965779">
<time>2016-04-06T12:20:31Z</time></trkpt>
<trkpt lat="25.312441" lon="100.965012">
<time>2016-04-06T12:20:32Z</time></trkpt>
<trkpt lat="25.312432" lon="100.964324">
<time>2016-04-06T12:20:33Z</time></trkpt>
<trkpt lat="25.312463" lon="100.964155">
<time>2016-04-06T12:20:34Z</time></trkpt>
<trkpt lat="25.312483" lon="100.964105">
<time>2016-04-06T12:20:35Z</time></trkpt>
<trkpt lat="25.312533" lon="100.964045">
<time>2016-04-06T12:20:36Z</time></trkpt>
<trkpt lat="25.312563" lon="100.964025">
<time>2016-04-06T12:20:37Z</time></trkpt>
<trkpt lat="25.312603" lon="100.963995">
<time>2016-04-06T12:20:38Z</time></trkpt>
<trkpt lat="25.312643" lon="100.963975">
<time>2016-04-06T12:20:39Z</time></trkpt>
<trkpt lat="25.312673" lon="100.963975">
<time>2016-04-06T12:20:40Z</time></trkpt>
<trkpt lat="25.312703" lon="100.963975">
<time>2016-04-06T12:20:41Z</time></trkpt>
<trkpt lat="25.312743" lon="100.963985">
<time>2016-04-06T12:20:42Z</time></trkpt>
<trkpt lat="25.312783" lon="100.964005">
<time>2016-04-06T12:20:43Z</time></trkpt>
<trkpt lat="25.312873" lon="100.964055">
<time>2016-04-06T12:20:44Z</time></trkpt>
<trkpt lat="25.312983" lon="100.964135">
<time>2016-04-06T12:20:45Z</time></trkpt>
<trkpt lat="25.313043" lon="100.964184">
<time>2016-04-06T12:20:46Z</time></trkpt>
<trkpt lat="25.313103" lon="100.964224">
<time>2016-04-06T12:20:47Z</time></trkpt>
<trkpt lat="25.313153" lon="100.964254">
<time>2016-04-06T12:20:48Z</time></trkpt>
<trkpt lat="25.313213" lon="100.964264">
<time>2016-04-06T12:20:49Z</time></trkpt>
<trkpt lat="25.313253" lon="100.964254">
<time>2016-04-06T12:20:50Z</time></trkpt>
<trkpt lat="25.313293" lon="100.964244">
<time>2016-04-06T12:20:51Z</time></trkpt>
<trkpt lat="25.313323" lon="100.964234">
<time>2016-04-06T12:20:52Z</time></trkpt>
<trkpt lat="25.313363" lon="100.964204">
<time>2016-04-06T12:20:53Z</time></trkpt>
<trkpt lat="25.313403" lon="100.964145">
<time>2016-04-06T12:20:54Z</time></trkpt>
<trkpt lat="25.313433" lon="100.964065">
<time>2016-04-06T12:20:55Z</time></trkpt>
<trkpt lat="25.313453" lon="100.964005">
<time>2016-04-06T12:20:56Z</time></trkpt>
<trkpt lat="25.313504" lon="100.963706">
<time>2016-04-06T12:20:57Z</time></trkpt>
<trkpt lat="25.313514" lon="100.963567">
<time>2016-04-06T12:20:58Z</time></trkpt>
<trkpt lat="25.313535" lon="100.963407">
<time>2016-04-06T12:20:59Z</time></trkpt>
<trkpt lat="25.313555" lon="100.963317">
<time>2016-04-06T12:21:00Z</time></trkpt>
<trkpt lat="25.313575" lon="100.963228">
<time>2016-04-06T12:21:01Z</time></trkpt>
<trkpt lat="25.313616" lon="100.963128">
<time>2016-04-06T12:21:02Z</time></trkpt>
<trkpt lat="25.313656" lon="100.963048">
<time>2016-04-06T12:21:03Z</time></trkpt>
<trkpt lat="25.313676" lon="100.963018">
<time>2016-04-06T12:21:04Z</time></trkpt>
<trkpt lat="25.313706" lon="100.962988">
<time>2016-04-06T12:21:05Z</time></trkpt>
<trkpt lat="25.313766" lon="100.962969">
<time>2016-04-06T12:21:06Z</time></trkpt>
<trkpt lat="25.313806" lon="100.962949">
<time>2016-04-06T12:21:07Z</time></trkpt>
<trkpt lat="25.313906" lon="100.962939">
<time>2016-04-06T12:21:08Z</time></trkpt>
<trkpt lat="25.314026" lon="100.962939">
<time>2016-04-06T12:21:09Z</time></trkpt>
<trkpt lat="25.314126" lon="100.962909">
<time>2016-04-06T12:21:10Z</time></trkpt>
<trkpt lat="25.314176" lon="100.962879">
<time>2016-04-06T12:21:11Z</time></trkpt>
<trkpt lat="25.314206" lon="100.962849">
<time>2016-04-06T12:21:12Z</time></trkpt>
<trkpt lat="25.314256" lon="100.962789">
<time>2016-04-06T12:21:13Z</time></trkpt>
<trkpt lat="25.314277" lon="100.962729">
<time>2016-04-06T12:21:14Z</time></trkpt>
<trkpt lat="25.314287" lon="100.96264">
<time>2016-04-06T12:21:15Z</time></trkpt>
<trkpt lat="25.314297" lon="100.96253">
<time>2016-04-06T12:21:16Z</time></trkpt>
<trkpt lat="25.314297" lon="100.96248">
<time>2016-04-06T12:21:17Z</time></trkpt>
<trkpt lat="25.314317" lon="100.96239">
<time>2016-04-06T12:21:18Z</time></trkpt>
<trkpt lat="25.314338" lon="100.962351">
<time>2016-04-06T12:21:19Z</time></trkpt>
<trkpt lat="25.314388" lon="100.962301">
<time>2016-04-06T12:21:20Z</time></trkpt>
<trkpt lat="25.314458" lon="100.962261">
<time>2016-04-06T12:21:21Z</time></trkpt>
<trkpt lat="25.314518" lon="100.962241">
<time>2016-04-06T12:21:22Z</time></trkpt>
<trkpt lat="25.314588" lon="100.962241">
<time>2016-04-06T12:21:23Z</time></trkpt>
<trkpt lat="25.314638" lon="100.962251">
<time>2016-04-06T12:21:24Z</time></trkpt>
<trkpt lat="25.314738" lon="100.962291">
<time>2016-04-06T12:21:25Z</time></trkpt>
<trkpt lat="25.314878" lon="100.962361">
<time>2016-04-06T12:21:26Z</time></trkpt>
<trkpt lat="25.315097" lon="100.96247">
<time>2016-04-06T12:21:27Z</time></trkpt>
<trkpt lat="25.315197" lon="100.96249">
<time>2016-04-06T12:21:28Z</time></trkpt>
<trkpt lat="25.315237" lon="100.96249">
<time>2016-04-06T12:21:29Z</time></trkpt>
<trkpt lat="25.315267" lon="100.96249">
<time>2016-04-06T12:21:30Z</time></trkpt>
<trkpt lat="25.315317" lon="100.96247">
<time>2016-04-06T12:21:31Z</time></trkpt>
<trkpt lat="25.315367" lon="100.96245">
<time>2016-04-06T12:21:32Z</time></trkpt>
<trkpt lat="25.315418" lon="100.962371">
<time>2016-04-06T12:21:33Z</time></trkpt>
<trkpt lat="25.315438" lon="100.962301">
<time>2016-04-06T12:21:34Z</time></trkpt>
<trkpt lat="25.315458" lon="100.962241">
<time>2016-04-06T12:21:35Z</time></trkpt>
<trkpt lat="25.315458" lon="100.962151">
<time>2016-04-06T12:21:36Z</time></trkpt>
<trkpt lat="25.315439" lon="100.962012">
<time>2016-04-06T12:21:37Z</time></trkpt>
<trkpt lat="25.315409" lon="100.961802">
<time>2016-04-06T12:21:38Z</time></trkpt>
<trkpt lat="25.315399" lon="100.961743">
<time>2016-04-06T12:21:39Z</time></trkpt>
<trkpt lat="25.315399" lon="100.961653">
<time>2016-04-06T12:21:40Z</time></trkpt>
<trkpt lat="25.3154" lon="100.961563">
<time>2016-04-06T12:21:41Z</time></trkpt>
<trkpt lat="25.31541" lon="100.961493">
<time>2016-04-06T12:21:42Z</time></trkpt>
<trkpt lat="25.31543" lon="100.961444">
<time>2016-04-06T12:21:43Z</time></trkpt>
<trkpt lat="25.31546" lon="100.961414">
<time>2016-04-06T12:21:44Z</time></trkpt>
<trkpt lat="25.3155" lon="100.961374">
<time>2016-04-06T12:21:45Z</time></trkpt>
<trkpt lat="25.31554" lon="100.961344">
<time>2016-04-06T12:21:46Z</time></trkpt>
<trkpt lat="25.31558" lon="100.961324">
<time>2016-04-06T12:21:47Z</time></trkpt>
<trkpt lat="25.31564" lon="100.961314">
<time>2016-04-06T12:21:48Z</time></trkpt>
<trkpt lat="25.3157" lon="100.961304">
<time>2016-04-06T12:21:49Z</time></trkpt>
<trkpt lat="25.31577" lon="100.961304">
<time>2016-04-06T12:21:50Z</time></trkpt>
<trkpt lat="25.31587" lon="100.961294">
<time>2016-04-06T12:21:51Z</time></trkpt>
<trkpt lat="25.31595" lon="100.961254">
<time>2016-04-06T12:21:52Z</time></trkpt>
<trkpt lat="25.316011" lon="100.961184">
<time>2016-04-06T12:21:53Z</time></trkpt>
<trkpt lat="25.316051" lon="100.961135">
<time>2016-04-06T12:21:54Z</time></trkpt>
<trkpt lat="25.316061" lon="100.961055">
<time>2016-04-06T12:21:55Z</time></trkpt>
<trkpt lat="25.316051" lon="100.960975">
<time>2016-04-06T12:21:56Z</time></trkpt>
<trkpt lat="25.316031" lon="100.960895">
<time>2016-04-06T12:21:57Z</time></trkpt>
<trkpt lat="25.315982" lon="100.960796">
<time>2016-04-06T12:21:58Z</time></trkpt>
<trkpt lat="25.315902" lon="100.960656">
<time>2016-04-06T12:21:59Z</time></trkpt>
<trkpt lat="25.315792" lon="100.960457">
<time>2016-04-06T12:22:00Z</time></trkpt>
<trkpt lat="25.315743" lon="100.960327">
<time>2016-04-06T12:22:01Z</time></trkpt>
<trkpt lat="25.315723" lon="100.960218">
<time>2016-04-06T12:22:02Z</time></trkpt>
<trkpt lat="25.315734" lon="100.959998">
<time>2016-04-06T12:22:03Z</time></trkpt>
<trkpt lat="25.315714" lon="100.959779">
<time>2016-04-06T12:22:04Z</time></trkpt>
<trkpt lat="25.315675" lon="100.95956">
<time>2016-04-06T12:22:05Z</time></trkpt>
<trkpt lat="25.315615" lon="100.959251">
<time>2016-04-06T12:22:06Z</time></trkpt>
<trkpt lat="25.315616" lon="100.959051">
<time>2016-04-06T12:22:07Z</time></trkpt>
<trkpt lat="25.315646" lon="100.958922">
<time>2016-04-06T12:22:08Z</time></trkpt>
<trkpt lat="25.315706" lon="100.958782">
<time>2016-04-06T12:22:09Z</time></trkpt>
<trkpt lat="25.315827" lon="100.958593">
<time>2016-04-06T12:22:10Z</time></trkpt>
<trkpt lat="25.316028" lon="100.958164">
<time>2016-04-06T12:22:11Z</time></trkpt>
<trkpt lat="25.316168" lon="100.957945">
<time>2016-04-06T12:22:12Z</time></trkpt>
<trkpt lat="25.316249" lon="100.957835">
<time>2016-04-06T12:22:13Z</time></trkpt>
<trkpt lat="25.316339" lon="100.957766">
<time>2016-04-06T12:22:14Z</time></trkpt>
<trkpt lat="25.316449" lon="100.957686">
<time>2016-04-06T12:22:15Z</time></trkpt>
<trkpt lat="25.316739" lon="100.957556">
<time>2016-04-06T12:22:16Z</time></trkpt>
<trkpt lat="25.31679" lon="100.957536">
<time>2016-04-06T12:22:17Z</time></trkpt>
<trkpt lat="25.31686" lon="100.957526">
<time>2016-04-06T12:22:18Z</time></trkpt>
<trkpt lat="25.31692" lon="100.957526">
<time>2016-04-06T12:22:19Z</time></trkpt>
<trkpt lat="25.31699" lon="100.957536">
<time>2016-04-06T12:22:20Z</time></trkpt>
<trkpt lat="25.31706" lon="100.957556">
<time>2016-04-06T12:22:21Z</time></trkpt>
<trkpt lat="25.317129" lon="100.957586">
<time>2016-04-06T12:22:22Z</time></trkpt>
<trkpt lat="25.317259" lon="100.957666">
<time>2016-04-06T12:22:23Z</time></trkpt>
<trkpt lat="25.317349" lon="100.957716">
<time>2016-04-06T12:22:24Z</time></trkpt>
<trkpt lat="25.317429" lon="100.957746">
<time>2016-04-06T12:22:25Z</time></trkpt>
<trkpt lat="25.317499" lon="100.957746">
<time>2016-04-06T12:22:26Z</time></trkpt>
<trkpt lat="25.317569" lon="100.957736">
<time>2016-04-06T12:22:27Z</time></trkpt>
<trkpt lat="25.317709" lon="100.957656">
<time>2016-04-06T12:22:28Z</time></trkpt>
<trkpt lat="25.317779" lon="100.957586">
<time>2016-04-06T12:22:29Z</time></trkpt>
<trkpt lat="25.31782" lon="100.957466">
<time>2016-04-06T12:22:30Z</time></trkpt>
<trkpt lat="25.31783" lon="100.957307">
<time>2016-04-06T12:22:31Z</time></trkpt>
<trkpt lat="25.317821" lon="100.957118">
<time>2016-04-06T12:22:32Z</time></trkpt>
<trkpt lat="25.317801" lon="100.956988">
<time>2016-04-06T12:22:33Z</time></trkpt>
<trkpt lat="25.317751" lon="100.956749">
<time>2016-04-06T12:22:34Z</time></trkpt>
<trkpt lat="25.317642" lon="100.95638">
<time>2016-04-06T12:22:35Z</time></trkpt>
<trkpt lat="25.317513" lon="100.955991">
<time>2016-04-06T12:22:36Z</time></trkpt>
<trkpt lat="25.317434" lon="100.955792">
<time>2016-04-06T12:22:37Z</time></trkpt>
<trkpt lat="25.317394" lon="100.955582">
<time>2016-04-06T12:22:38Z</time></trkpt>
<trkpt lat="25.317395" lon="100.955363">
<time>2016-04-06T12:22:39Z</time></trkpt>
<trkpt lat="25.317415" lon="100.955154">
<time>2016-04-06T12:22:40Z</time></trkpt>
<trkpt lat="25.317436" lon="100.954944">
<time>2016-04-06T12:22:41Z</time></trkpt>
<trkpt lat="25.317436" lon="100.954855">
<time>2016-04-06T12:22:42Z</time></trkpt>
<trkpt lat="25.317436" lon="100.954755">
<time>2016-04-06T12:22:43Z</time></trkpt>
<trkpt lat="25.317376" lon="100.954605">
<time>2016-04-06T12:22:44Z</time></trkpt>
<trkpt lat="25.317257" lon="100.954496">
<time>2016-04-06T12:22:45Z</time></trkpt>
<trkpt lat="25.317137" lon="100.954466">
<time>2016-04-06T12:22:46Z</time></trkpt>
<trkpt lat="25.316987" lon="100.954506">
<time>2016-04-06T12:22:47Z</time></trkpt>
<trkpt lat="25.316916" lon="100.954645">
<time>2016-04-06T12:22:48Z</time></trkpt>
<trkpt lat="25.316906" lon="100.954855">
<time>2016-04-06T12:22:49Z</time></trkpt>
<trkpt lat="25.316885" lon="100.955044">
<time>2016-04-06T12:22:50Z</time></trkpt>
<trkpt lat="25.316845" lon="100.955273">
<time>2016-04-06T12:22:51Z</time></trkpt>
<trkpt lat="25.316814" lon="100.955493">
<time>2016-04-06T12:22:52Z</time></trkpt>
<trkpt lat="25.316774" lon="100.955712">
<time>2016-04-06T12:22:53Z</time></trkpt>
<trkpt lat="25.316693" lon="100.955901">
<time>2016-04-06T12:22:54Z</time></trkpt>
<trkpt lat="25.316563" lon="100.956071">
<time>2016-04-06T12:22:55Z</time></trkpt>
<trkpt lat="25.316443" lon="100.956191">
<time>2016-04-06T12:22:56Z</time></trkpt>
<trkpt lat="25.316312" lon="100.95627">
<time>2016-04-06T12:22:57Z</time></trkpt>
<trkpt lat="25.316212" lon="100.95628">
<time>2016-04-06T12:22:58Z</time></trkpt>
<trkpt lat="25.316132" lon="100.95626">
<time>2016-04-06T12:22:59Z</time></trkpt>
<trkpt lat="25.315973" lon="100.956181">
<time>2016-04-06T12:23:00Z</time></trkpt>
<trkpt lat="25.315813" lon="100.956091">
<time>2016-04-06T12:23:01Z</time></trkpt>
<trkpt lat="25.315653" lon="100.956051">
<time>2016-04-06T12:23:02Z</time></trkpt>
<trkpt lat="25.315473" lon="100.956091">
<time>2016-04-06T12:23:03Z</time></trkpt>
<trkpt lat="25.315303" lon="100.956201">
<time>2016-04-06T12:23:04Z</time></trkpt>
<trkpt lat="25.315122" lon="100.95634">
<time>2016-04-06T12:23:05Z</time></trkpt>
<trkpt lat="25.314942" lon="100.95649">
<time>2016-04-06T12:23:06Z</time></trkpt>
<trkpt lat="25.314771" lon="100.956659">
<time>2016-04-06T12:23:07Z</time></trkpt>
<trkpt lat="25.314591" lon="100.956829">
<time>2016-04-06T12:23:08Z</time></trkpt>
<trkpt lat="25.314411" lon="100.957008">
<time>2016-04-06T12:23:09Z</time></trkpt>
<trkpt lat="25.31424" lon="100.957187">
<time>2016-04-06T12:23:10Z</time></trkpt>
<trkpt lat="25.31408" lon="100.957347">
<time>2016-04-06T12:23:11Z</time></trkpt>
<trkpt lat="25.313959" lon="100.957447">
<time>2016-04-06T12:23:12Z</time></trkpt>
<trkpt lat="25.313829" lon="100.957546">
<time>2016-04-06T12:23:13Z</time></trkpt>
<trkpt lat="25.313679" lon="100.957546">
<time>2016-04-06T12:23:14Z</time></trkpt>
<trkpt lat="25.313539" lon="100.957487">
<time>2016-04-06T12:23:15Z</time></trkpt>
<trkpt lat="25.31341" lon="100.957377">
<time>2016-04-06T12:23:16Z</time></trkpt>
<trkpt lat="25.3133" lon="100.957257">
<time>2016-04-06T12:23:17Z</time></trkpt>
<trkpt lat="25.31323" lon="100.957088">
<time>2016-04-06T12:23:18Z</time></trkpt>
<trkpt lat="25.313181" lon="100.956898">
<time>2016-04-06T12:23:19Z</time></trkpt>
<trkpt lat="25.313151" lon="100.956689">
<time>2016-04-06T12:23:20Z</time></trkpt>
<trkpt lat="25.313102" lon="100.95647">
<time>2016-04-06T12:23:21Z</time></trkpt>
<trkpt lat="25.313062" lon="100.95624">
<time>2016-04-06T12:23:22Z</time></trkpt>
<trkpt lat="25.313033" lon="100.956001">
<time>2016-04-06T12:23:23Z</time></trkpt>
<trkpt lat="25.313033" lon="100.955752">
<time>2016-04-06T12:23:24Z</time></trkpt>
<trkpt lat="25.313024" lon="100.955523">
<time>2016-04-06T12:23:25Z</time></trkpt>
<trkpt lat="25.312984" lon="100.955323">
<time>2016-04-06T12:23:26Z</time></trkpt>
<trkpt lat="25.312885" lon="100.955174">
<time>2016-04-06T12:23:27Z</time></trkpt>
<trkpt lat="25.312745" lon="100.955034">
<time>2016-04-06T12:23:28Z</time></trkpt>
<trkpt lat="25.312615" lon="100.954875">
<time>2016-04-06T12:23:29Z</time></trkpt>
<trkpt lat="25.312486" lon="100.954685">
<time>2016-04-06T12:23:30Z</time></trkpt>
<trkpt lat="25.312396" lon="100.954486">
<time>2016-04-06T12:23:31Z</time></trkpt>
<trkpt lat="25.312317" lon="100.954267">
<time>2016-04-06T12:23:32Z</time></trkpt>
<trkpt lat="25.312237" lon="100.954057">
<time>2016-04-06T12:23:33Z</time></trkpt>
<trkpt lat="25.312138" lon="100.953888">
<time>2016-04-06T12:23:34Z</time></trkpt>
<trkpt lat="25.311988" lon="100.953798">
<time>2016-04-06T12:23:35Z</time></trkpt>
<trkpt lat="25.311828" lon="100.953798">
<time>2016-04-06T12:23:36Z</time></trkpt>
<trkpt lat="25.311608" lon="100.953838">
<time>2016-04-06T12:23:37Z</time></trkpt>
<trkpt lat="25.311407" lon="100.953888">
<time>2016-04-06T12:23:38Z</time></trkpt>
<trkpt lat="25.311197" lon="100.953968">
<time>2016-04-06T12:23:39Z</time></trkpt>
<trkpt lat="25.310977" lon="100.954047">
<time>2016-04-06T12:23:40Z</time></trkpt>
<trkpt lat="25.310787" lon="100.954117">
<time>2016-04-06T12:23:41Z</time></trkpt>
<trkpt lat="25.310627" lon="100.954217">
<time>2016-04-06T12:23:42Z</time></trkpt>
<trkpt lat="25.310496" lon="100.954386">
<time>2016-04-06T12:23:43Z</time></trkpt>
<trkpt lat="25.310436" lon="100.954556">
<time>2016-04-06T12:23:44Z</time></trkpt>
<trkpt lat="25.310405" lon="100.954745">
<time>2016-04-06T12:23:45Z</time></trkpt>
<trkpt lat="25.310355" lon="100.954935">
<time>2016-04-06T12:23:46Z</time></trkpt>
<trkpt lat="25.310275" lon="100.955104">
<time>2016-04-06T12:23:47Z</time></trkpt>
<trkpt lat="25.310144" lon="100.955234">
<time>2016-04-06T12:23:48Z</time></trkpt>
<trkpt lat="25.309974" lon="100.955333">
<time>2016-04-06T12:23:49Z</time></trkpt>
<trkpt lat="25.309784" lon="100.955393">
<time>2016-04-06T12:23:50Z</time></trkpt>
<trkpt lat="25.309584" lon="100.955453">
<time>2016-04-06T12:23:51Z</time></trkpt>
<trkpt lat="25.309374" lon="100.955503">
<time>2016-04-06T12:23:52Z</time></trkpt>
<trkpt lat="25.309163" lon="100.955543">
<time>2016-04-06T12:23:53Z</time></trkpt>
<trkpt lat="25.308973" lon="100.955553">
<time>2016-04-06T12:23:54Z</time></trkpt>
<trkpt lat="25.308773" lon="100.955533">
<time>2016-04-06T12:23:55Z</time></trkpt>
<trkpt lat="25.308594" lon="100.955483">
<time>2016-04-06T12:23:56Z</time></trkpt>
<trkpt lat="25.308444" lon="100.955373">
<time>2016-04-06T12:23:57Z</time></trkpt>
<trkpt lat="25.308314" lon="100.955234">
<time>2016-04-06T12:23:58Z</time></trkpt>
<trkpt lat="25.308184" lon="100.955094">
<time>2016-04-06T12:23:59Z</time></trkpt>
<trkpt lat="25.308035" lon="100.954925">
<time>2016-04-06T12:24:00Z</time></trkpt>
<trkpt lat="25.307885" lon="100.954775">
<time>2016-04-06T12:24:01Z</time></trkpt>
<trkpt lat="25.307715" lon="100.954616">
<time>2016-04-06T12:24:02Z</time></trkpt>
<trkpt lat="25.307606" lon="100.954466">
<time>2016-04-06T12:24:03Z</time></trkpt>
<trkpt lat="25.307586" lon="100.954416">
<time>2016-04-06T12:24:04Z</time></trkpt>
<trkpt lat="25.307566" lon="100.954356">
<time>2016-04-06T12:24:05Z</time></trkpt>
<trkpt lat="25.307576" lon="100.954237">
<time>2016-04-06T12:24:06Z</time></trkpt>
<trkpt lat="25.307677" lon="100.954057">
<time>2016-04-06T12:24:07Z</time></trkpt>
<trkpt lat="25.307807" lon="100.953928">
<time>2016-04-06T12:24:08Z</time></trkpt>
<trkpt lat="25.307937" lon="100.953768">
<time>2016-04-06T12:24:09Z</time></trkpt>
<trkpt lat="25.308078" lon="100.953609">
<time>2016-04-06T12:24:10Z</time></trkpt>
<trkpt lat="25.308228" lon="100.953459">
<time>2016-04-06T12:24:11Z</time></trkpt>
<trkpt lat="25.308378" lon="100.95331">
<time>2016-04-06T12:24:12Z</time></trkpt>
<trkpt lat="25.308519" lon="100.95318">
<time>2016-04-06T12:24:13Z</time></trkpt>
<trkpt lat="25.308649" lon="100.95306">
<time>2016-04-06T12:24:14Z</time></trkpt>
<trkpt lat="25.308769" lon="100.952941">
<time>2016-04-06T12:24:15Z</time></trkpt>
<trkpt lat="25.30887" lon="100.952791">
<time>2016-04-06T12:24:16Z</time></trkpt>
<trkpt lat="25.30897" lon="100.952642">
<time>2016-04-06T12:24:17Z</time></trkpt>
<trkpt lat="25.30909" lon="100.952502">
<time>2016-04-06T12:24:18Z</time></trkpt>
<trkpt lat="25.309251" lon="100.952293">
<time>2016-04-06T12:24:19Z</time></trkpt>
<trkpt lat="25.309411" lon="100.952153">
<time>2016-04-06T12:24:20Z</time></trkpt>
<trkpt lat="25.309551" lon="100.952033">
<time>2016-04-06T12:24:21Z</time></trkpt>
<trkpt lat="25.309712" lon="100.951914">
<time>2016-04-06T12:24:22Z</time></trkpt>
<trkpt lat="25.309862" lon="100.951804">
<time>2016-04-06T12:24:23Z</time></trkpt>
<trkpt lat="25.310022" lon="100.951704">
<time>2016-04-06T12:24:24Z</time></trkpt>
<trkpt lat="25.310192" lon="100.951595">
<time>2016-04-06T12:24:25Z</time></trkpt>
<trkpt lat="25.310363" lon="100.951495">
<time>2016-04-06T12:24:26Z</time></trkpt>
<trkpt lat="25.310543" lon="100.951395">
<time>2016-04-06T12:24:27Z</time></trkpt>
<trkpt lat="25.310733" lon="100.951286">
<time>2016-04-06T12:24:28Z</time></trkpt>
<trkpt lat="25.310933" lon="100.951176">
<time>2016-04-06T12:24:29Z</time></trkpt>
<trkpt lat="25.311114" lon="100.951056">
<time>2016-04-06T12:24:30Z</time></trkpt>
<trkpt lat="25.311294" lon="100.950917">
<time>2016-04-06T12:24:31Z</time></trkpt>
<trkpt lat="25.311454" lon="100.950757">
<time>2016-04-06T12:24:32Z</time></trkpt>
<trkpt lat="25.311605" lon="100.950578">
<time>2016-04-06T12:24:33Z</time></trkpt>
<trkpt lat="25.311735" lon="100.950378">
<time>2016-04-06T12:24:34Z</time></trkpt>
<trkpt lat="25.311856" lon="100.950169">
<time>2016-04-06T12:24:35Z</time></trkpt>
<trkpt lat="25.311956" lon="100.949959">
<time>2016-04-06T12:24:36Z</time></trkpt>
<trkpt lat="25.312027" lon="100.94973">
<time>2016-04-06T12:24:37Z</time></trkpt>
<trkpt lat="25.312077" lon="100.949491">
<time>2016-04-06T12:24:38Z</time></trkpt>
<trkpt lat="25.312158" lon="100.949271">
<time>2016-04-06T12:24:39Z</time></trkpt>
<trkpt lat="25.312278" lon="100.949082">
<time>2016-04-06T12:24:40Z</time></trkpt>
<trkpt lat="25.312428" lon="100.948932">
<time>2016-04-06T12:24:41Z</time></trkpt>
<trkpt lat="25.312588" lon="100.948823">
<time>2016-04-06T12:24:42Z</time></trkpt>
<trkpt lat="25.312739" lon="100.948703">
<time>2016-04-06T12:24:43Z</time></trkpt>
<trkpt lat="25.312899" lon="100.948603">
<time>2016-04-06T12:24:44Z</time></trkpt>
<trkpt lat="25.313049" lon="100.948504">
<time>2016-04-06T12:24:45Z</time></trkpt>
<trkpt lat="25.313189" lon="100.948394">
<time>2016-04-06T12:24:46Z</time></trkpt>
<trkpt lat="25.31333" lon="100.948284">
<time>2016-04-06T12:24:47Z</time></trkpt>
<trkpt lat="25.31347" lon="100.948185">
<time>2016-04-06T12:24:48Z</time></trkpt>
<trkpt lat="25.3136" lon="100.948035">
<time>2016-04-06T12:24:49Z</time></trkpt>
<trkpt lat="25.313721" lon="100.947875">
<time>2016-04-06T12:24:50Z</time></trkpt>
<trkpt lat="25.313831" lon="100.947696">
<time>2016-04-06T12:24:51Z</time></trkpt>
<trkpt lat="25.313961" lon="100.947487">
<time>2016-04-06T12:24:52Z</time></trkpt>
<trkpt lat="25.314072" lon="100.947277">
<time>2016-04-06T12:24:53Z</time></trkpt>
<trkpt lat="25.314172" lon="100.947048">
<time>2016-04-06T12:24:54Z</time></trkpt>
<trkpt lat="25.314243" lon="100.946818">
<time>2016-04-06T12:24:55Z</time></trkpt>
<trkpt lat="25.314273" lon="100.946579">
<time>2016-04-06T12:24:56Z</time></trkpt>
<trkpt lat="25.314274" lon="100.94635">
<time>2016-04-06T12:24:57Z</time></trkpt>
<trkpt lat="25.314224" lon="100.9461">
<time>2016-04-06T12:24:58Z</time></trkpt>
<trkpt lat="25.314215" lon="100.945881">
<time>2016-04-06T12:24:59Z</time></trkpt>
<trkpt lat="25.314275" lon="100.945652">
<time>2016-04-06T12:25:00Z</time></trkpt>
<trkpt lat="25.314415" lon="100.945492">
<time>2016-04-06T12:25:01Z</time></trkpt>
<trkpt lat="25.314566" lon="100.945362">
<time>2016-04-06T12:25:02Z</time></trkpt>
<trkpt lat="25.314696" lon="100.945173">
<time>2016-04-06T12:25:03Z</time></trkpt>
<trkpt lat="25.314756" lon="100.944963">
<time>2016-04-06T12:25:04Z</time></trkpt>
<trkpt lat="25.314787" lon="100.944744">
<time>2016-04-06T12:25:05Z</time></trkpt>
<trkpt lat="25.314817" lon="100.944515">
<time>2016-04-06T12:25:06Z</time></trkpt>
<trkpt lat="25.314848" lon="100.944275">
<time>2016-04-06T12:25:07Z</time></trkpt>
<trkpt lat="25.314878" lon="100.944046">
<time>2016-04-06T12:25:08Z</time></trkpt>
<trkpt lat="25.314879" lon="100.943846">
<time>2016-04-06T12:25:09Z</time></trkpt>
<trkpt lat="25.314839" lon="100.943657">
<time>2016-04-06T12:25:10Z</time></trkpt>
<trkpt lat="25.314769" lon="100.943418">
<time>2016-04-06T12:25:11Z</time></trkpt>
<trkpt lat="25.31462" lon="100.943228">
<time>2016-04-06T12:25:12Z</time></trkpt>
<trkpt lat="25.31452" lon="100.943118">
<time>2016-04-06T12:25:13Z</time></trkpt>
<trkpt lat="25.31435" lon="100.943059">
<time>2016-04-06T12:25:14Z</time></trkpt>
<trkpt lat="25.31417" lon="100.943059">
<time>2016-04-06T12:25:15Z</time></trkpt>
<trkpt lat="25.31402" lon="100.943118">
<time>2016-04-06T12:25:16Z</time></trkpt>
<trkpt lat="25.31387" lon="100.943158">
<time>2016-04-06T12:25:17Z</time></trkpt>
<trkpt lat="25.31368" lon="100.943188">
<time>2016-04-06T12:25:18Z</time></trkpt>
<trkpt lat="25.31349" lon="100.943168">
<time>2016-04-06T12:25:19Z</time></trkpt>
<trkpt lat="25.31329" lon="100.943148">
<time>2016-04-06T12:25:20Z</time></trkpt>
<trkpt lat="25.31311" lon="100.943138">
<time>2016-04-06T12:25:21Z</time></trkpt>
<trkpt lat="25.31289" lon="100.943148">
<time>2016-04-06T12:25:22Z</time></trkpt>
<trkpt lat="25.31269" lon="100.943178">
<time>2016-04-06T12:25:23Z</time></trkpt>
<trkpt lat="25.312509" lon="100.943208">
<time>2016-04-06T12:25:24Z</time></trkpt>
<trkpt lat="25.312369" lon="100.943218">
<time>2016-04-06T12:25:25Z</time></trkpt>
<trkpt lat="25.31225" lon="100.943158">
<time>2016-04-06T12:25:26Z</time></trkpt>
<trkpt lat="25.31219" lon="100.943019">
<time>2016-04-06T12:25:27Z</time></trkpt>
<trkpt lat="25.31212" lon="100.942869">
<time>2016-04-06T12:25:28Z</time></trkpt>
<trkpt lat="25.31206" lon="100.942719">
<time>2016-04-06T12:25:29Z</time></trkpt>
<trkpt lat="25.311951" lon="100.94257">
<time>2016-04-06T12:25:30Z</time></trkpt>
<trkpt lat="25.311801" lon="100.94239">
<time>2016-04-06T12:25:31Z</time></trkpt>
<trkpt lat="25.311631" lon="100.942241">
<time>2016-04-06T12:25:32Z</time></trkpt>
<trkpt lat="25.311512" lon="100.942051">
<time>2016-04-06T12:25:33Z</time></trkpt>
<trkpt lat="25.311382" lon="100.941852">
<time>2016-04-06T12:25:34Z</time></trkpt>
<trkpt lat="25.311252" lon="100.941662">
<time>2016-04-06T12:25:35Z</time></trkpt>
<trkpt lat="25.311072" lon="100.941513">
<time>2016-04-06T12:25:36Z</time></trkpt>
<trkpt lat="25.310903" lon="100.941393">
<time>2016-04-06T12:25:37Z</time></trkpt>
<trkpt lat="25.310713" lon="100.941333">
<time>2016-04-06T12:25:38Z</time></trkpt>
<trkpt lat="25.310523" lon="100.941323">
<time>2016-04-06T12:25:39Z</time></trkpt>
<trkpt lat="25.310313" lon="100.941333">
<time>2016-04-06T12:25:40Z</time></trkpt>
<trkpt lat="25.310113" lon="100.941313">
<time>2016-04-06T12:25:41Z</time></trkpt>
<trkpt lat="25.309973" lon="100.941223">
<time>2016-04-06T12:25:42Z</time></trkpt>
<trkpt lat="25.309903" lon="100.941064">
<time>2016-04-06T12:25:43Z</time></trkpt>
<trkpt lat="25.309934" lon="100.940864">
<time>2016-04-06T12:25:44Z</time></trkpt>
<trkpt lat="25.310014" lon="100.940675">
<time>2016-04-06T12:25:45Z</time></trkpt>
<trkpt lat="25.310114" lon="100.940485">
<time>2016-04-06T12:25:46Z</time></trkpt>
<trkpt lat="25.310215" lon="100.940316">
<time>2016-04-06T12:25:47Z</time></trkpt>
<trkpt lat="25.310315" lon="100.940146">
<time>2016-04-06T12:25:48Z</time></trkpt>
<trkpt lat="25.310395" lon="100.939976">
<time>2016-04-06T12:25:49Z</time></trkpt>
<trkpt lat="25.310445" lon="100.939807">
<time>2016-04-06T12:25:50Z</time></trkpt>
<trkpt lat="25.310446" lon="100.939637">
<time>2016-04-06T12:25:51Z</time></trkpt>
<trkpt lat="25.310436" lon="100.939478">
<time>2016-04-06T12:25:52Z</time></trkpt>
<trkpt lat="25.310416" lon="100.939318">
<time>2016-04-06T12:25:53Z</time></trkpt>
<trkpt lat="25.310427" lon="100.939139">
<time>2016-04-06T12:25:54Z</time></trkpt>
<trkpt lat="25.310457" lon="100.938949">
<time>2016-04-06T12:25:55Z</time></trkpt>
<trkpt lat="25.310517" lon="100.93874">
<time>2016-04-06T12:25:56Z</time></trkpt>
<trkpt lat="25.310637" lon="100.93858">
<time>2016-04-06T12:25:57Z</time></trkpt>
<trkpt lat="25.310738" lon="100.93841">
<time>2016-04-06T12:25:58Z</time></trkpt>
<trkpt lat="25.310808" lon="100.938221">
<time>2016-04-06T12:25:59Z</time></trkpt>
<trkpt lat="25.310828" lon="100.938031">
<time>2016-04-06T12:26:00Z</time></trkpt>
<trkpt lat="25.310799" lon="100.937852">
<time>2016-04-06T12:26:01Z</time></trkpt>
<trkpt lat="25.310759" lon="100.937672">
<time>2016-04-06T12:26:02Z</time></trkpt>
<trkpt lat="25.310689" lon="100.937463">
<time>2016-04-06T12:26:03Z</time></trkpt>
<trkpt lat="25.31064" lon="100.937243">
<time>2016-04-06T12:26:04Z</time></trkpt>
<trkpt lat="25.31059" lon="100.937024">
<time>2016-04-06T12:26:05Z</time></trkpt>
<trkpt lat="25.31053" lon="100.936794">
<time>2016-04-06T12:26:06Z</time></trkpt>
<trkpt lat="25.310481" lon="100.936595">
<time>2016-04-06T12:26:07Z</time></trkpt>
<trkpt lat="25.310431" lon="100.936375">
<time>2016-04-06T12:26:08Z</time></trkpt>
<trkpt lat="25.310381" lon="100.936176">
<time>2016-04-06T12:26:09Z</time></trkpt>
<trkpt lat="25.310342" lon="100.935976">
<time>2016-04-06T12:26:10Z</time></trkpt>
<trkpt lat="25.310292" lon="100.935787">
<time>2016-04-06T12:26:11Z</time></trkpt>
<trkpt lat="25.310262" lon="100.935587">
<time>2016-04-06T12:26:12Z</time></trkpt>
<trkpt lat="25.310243" lon="100.935397">
<time>2016-04-06T12:26:13Z</time></trkpt>
<trkpt lat="25.310233" lon="100.935208">
<time>2016-04-06T12:26:14Z</time></trkpt>
<trkpt lat="25.310223" lon="100.935038">
<time>2016-04-06T12:26:15Z</time></trkpt>
<trkpt lat="25.310213" lon="100.934869">
<time>2016-04-06T12:26:16Z</time></trkpt>
<trkpt lat="25.310204" lon="100.934699">
<time>2016-04-06T12:26:17Z</time></trkpt>
<trkpt lat="25.310194" lon="100.934509">
<time>2016-04-06T12:26:18Z</time></trkpt>
<trkpt lat="25.310184" lon="100.9343">
<time>2016-04-06T12:26:19Z</time></trkpt>
<trkpt lat="25.310165" lon="100.93407">
<time>2016-04-06T12:26:20Z</time></trkpt>
<trkpt lat="25.310155" lon="100.933811">
<time>2016-04-06T12:26:21Z</time></trkpt>
<trkpt lat="25.310145" lon="100.933562">
<time>2016-04-06T12:26:22Z</time></trkpt>
<trkpt lat="25.310156" lon="100.933292">
<time>2016-04-06T12:26:23Z</time></trkpt>
<trkpt lat="25.310156" lon="100.933103">
<time>2016-04-06T12:26:24Z</time></trkpt>
<trkpt lat="25.310176" lon="100.932903">
<time>2016-04-06T12:26:25Z</time></trkpt>
<trkpt lat="25.310227" lon="100.932713">
<time>2016-04-06T12:26:26Z</time></trkpt>
<trkpt lat="25.310257" lon="100.932534">
<time>2016-04-06T12:26:27Z</time></trkpt>
<trkpt lat="25.310317" lon="100.932324">
<time>2016-04-06T12:26:28Z</time></trkpt>
<trkpt lat="25.310347" lon="100.932115">
<time>2016-04-06T12:26:29Z</time></trkpt>
<trkpt lat="25.310388" lon="100.931925">
<time>2016-04-06T12:26:30Z</time></trkpt>
<trkpt lat="25.310418" lon="100.931735">
<time>2016-04-06T12:26:31Z</time></trkpt>
<trkpt lat="25.310448" lon="100.931556">
<time>2016-04-06T12:26:32Z</time></trkpt>
<trkpt lat="25.310468" lon="100.931376">
<time>2016-04-06T12:26:33Z</time></trkpt>
<trkpt lat="25.310489" lon="100.931217">
<time>2016-04-06T12:26:34Z</time></trkpt>
<trkpt lat="25.310509" lon="100.931067">
<time>2016-04-06T12:26:35Z</time></trkpt>
<trkpt lat="25.310529" lon="100.930927">
<time>2016-04-06T12:26:36Z</time></trkpt>
<trkpt lat="25.310579" lon="100.930708">
<time>2016-04-06T12:26:37Z</time></trkpt>
<trkpt lat="25.31063" lon="100.930518">
<time>2016-04-06T12:26:38Z</time></trkpt>
<trkpt lat="25.31067" lon="100.930348">
<time>2016-04-06T12:26:39Z</time></trkpt>
<trkpt lat="25.31072" lon="100.930179">
<time>2016-04-06T12:26:40Z</time></trkpt>
<trkpt lat="25.31078" lon="100.930009">
<time>2016-04-06T12:26:41Z</time></trkpt>
<trkpt lat="25.310841" lon="100.929829">
<time>2016-04-06T12:26:42Z</time></trkpt>
<trkpt lat="25.310901" lon="100.92964">
<time>2016-04-06T12:26:43Z</time></trkpt>
<trkpt lat="25.310971" lon="100.92944">
<time>2016-04-06T12:26:44Z</time></trkpt>
<trkpt lat="25.311051" lon="100.929221">
<time>2016-04-06T12:26:45Z</time></trkpt>
<trkpt lat="25.311122" lon="100.929021">
<time>2016-04-06T12:26:46Z</time></trkpt>
<trkpt lat="25.311212" lon="100.928801">
<time>2016-04-06T12:26:47Z</time></trkpt>
<trkpt lat="25.311322" lon="100.928612">
<time>2016-04-06T12:26:48Z</time></trkpt>
<trkpt lat="25.311442" lon="100.928432">
<time>2016-04-06T12:26:49Z</time></trkpt>
<trkpt lat="25.311583" lon="100.928242">
<time>2016-04-06T12:26:50Z</time></trkpt>
<trkpt lat="25.311733" lon="100.928063">
<time>2016-04-06T12:26:51Z</time></trkpt>
<trkpt lat="25.311863" lon="100.927863">
<time>2016-04-06T12:26:52Z</time></trkpt>
<trkpt lat="25.311983" lon="100.927644">
<time>2016-04-06T12:26:53Z</time></trkpt>
<trkpt lat="25.312064" lon="100.927404">
<time>2016-04-06T12:26:54Z</time></trkpt>
<trkpt lat="25.312124" lon="100.927155">
<time>2016-04-06T12:26:55Z</time></trkpt>
<trkpt lat="25.312204" lon="100.926925">
<time>2016-04-06T12:26:56Z</time></trkpt>
<trkpt lat="25.312334" lon="100.926755">
<time>2016-04-06T12:26:57Z</time></trkpt>
<trkpt lat="25.312515" lon="100.926655">
<time>2016-04-06T12:26:58Z</time></trkpt>
<trkpt lat="25.312735" lon="100.926596">
<time>2016-04-06T12:26:59Z</time></trkpt>
<trkpt lat="25.312955" lon="100.926576">
<time>2016-04-06T12:27:00Z</time></trkpt>
<trkpt lat="25.313185" lon="100.926536">
<time>2016-04-06T12:27:01Z</time></trkpt>
<trkpt lat="25.313415" lon="100.926496">
<time>2016-04-06T12:27:02Z</time></trkpt>
<trkpt lat="25.313645" lon="100.926436">
<time>2016-04-06T12:27:03Z</time></trkpt>
<trkpt lat="25.313875" lon="100.926396">
<time>2016-04-06T12:27:04Z</time></trkpt>
<trkpt lat="25.314115" lon="100.926326">
<time>2016-04-06T12:27:05Z</time></trkpt>
<trkpt lat="25.314335" lon="100.926236">
<time>2016-04-06T12:27:06Z</time></trkpt>
<trkpt lat="25.314545" lon="100.926126">
<time>2016-04-06T12:27:07Z</time></trkpt>
<trkpt lat="25.314756" lon="100.926007">
<time>2016-04-06T12:27:08Z</time></trkpt>
<trkpt lat="25.314976" lon="100.925907">
<time>2016-04-06T12:27:09Z</time></trkpt>
<trkpt lat="25.315196" lon="100.925847">
<time>2016-04-06T12:27:10Z</time></trkpt>
<trkpt lat="25.315426" lon="100.925827">
<time>2016-04-06T12:27:11Z</time></trkpt>
<trkpt lat="25.315656" lon="100.925827">
<time>2016-04-06T12:27:12Z</time></trkpt>
<trkpt lat="25.315886" lon="100.925847">
<time>2016-04-06T12:27:13Z</time></trkpt>
<trkpt lat="25.316106" lon="100.925867">
<time>2016-04-06T12:27:14Z</time></trkpt>
<trkpt lat="25.316326" lon="100.925877">
<time>2016-04-06T12:27:15Z</time></trkpt>
<trkpt lat="25.316546" lon="100.925857">
<time>2016-04-06T12:27:16Z</time></trkpt>
<trkpt lat="25.316656" lon="100.925807">
<time>2016-04-06T12:27:17Z</time></trkpt>
<trkpt lat="25.316696" lon="100.925777">
<time>2016-04-06T12:27:18Z</time></trkpt>
<trkpt lat="25.316796" lon="100.925657">
<time>2016-04-06T12:27:19Z</time></trkpt>
<trkpt lat="25.316866" lon="100.925458">
<time>2016-04-06T12:27:20Z</time></trkpt>
<trkpt lat="25.316907" lon="100.925268">
<time>2016-04-06T12:27:21Z</time></trkpt>
<trkpt lat="25.316917" lon="100.925088">
<time>2016-04-06T12:27:22Z</time></trkpt>
<trkpt lat="25.316937" lon="100.924909">
<time>2016-04-06T12:27:23Z</time></trkpt>
<trkpt lat="25.316967" lon="100.924739">
<time>2016-04-06T12:27:24Z</time></trkpt>
<trkpt lat="25.316997" lon="100.924569">
<time>2016-04-06T12:27:25Z</time></trkpt>
<trkpt lat="25.317038" lon="100.924399">
<time>2016-04-06T12:27:26Z</time></trkpt>
<trkpt lat="25.317078" lon="100.92423">
<time>2016-04-06T12:27:27Z</time></trkpt>
<trkpt lat="25.317128" lon="100.92406">
<time>2016-04-06T12:27:28Z</time></trkpt>
<trkpt lat="25.317178" lon="100.9239">
<time>2016-04-06T12:27:29Z</time></trkpt>
<trkpt lat="25.317258" lon="100.923701">
<time>2016-04-06T12:27:30Z</time></trkpt>
<trkpt lat="25.317318" lon="100.923501">
<time>2016-04-06T12:27:31Z</time></trkpt>
<trkpt lat="25.317369" lon="100.923301">
<time>2016-04-06T12:27:32Z</time></trkpt>
<trkpt lat="25.317419" lon="100.923112">
<time>2016-04-06T12:27:33Z</time></trkpt>
<trkpt lat="25.317429" lon="100.923082">
<time>2016-04-06T12:27:34Z</time></trkpt>
<trkpt lat="25.317469" lon="100.922912">
<time>2016-04-06T12:27:35Z</time></trkpt>
<trkpt lat="25.317519" lon="100.922692">
<time>2016-04-06T12:27:36Z</time></trkpt>
<trkpt lat="25.31758" lon="100.922473">
<time>2016-04-06T12:27:37Z</time></trkpt>
<trkpt lat="25.31764" lon="100.922253">
<time>2016-04-06T12:27:38Z</time></trkpt>
<trkpt lat="25.31775" lon="100.922083">
<time>2016-04-06T12:27:39Z</time></trkpt>
<trkpt lat="25.31787" lon="100.921894">
<time>2016-04-06T12:27:40Z</time></trkpt>
<trkpt lat="25.31795" lon="100.921754">
<time>2016-04-06T12:27:41Z</time></trkpt>
<trkpt lat="25.318" lon="100.921674">
<time>2016-04-06T12:27:42Z</time></trkpt>
<trkpt lat="25.318121" lon="100.921444">
<time>2016-04-06T12:27:43Z</time></trkpt>
<trkpt lat="25.318261" lon="100.921205">
<time>2016-04-06T12:27:44Z</time></trkpt>
<trkpt lat="25.318431" lon="100.921005">
<time>2016-04-06T12:27:45Z</time></trkpt>
<trkpt lat="25.318601" lon="100.920825">
<time>2016-04-06T12:27:46Z</time></trkpt>
<trkpt lat="25.318751" lon="100.920626">
<time>2016-04-06T12:27:47Z</time></trkpt>
<trkpt lat="25.318872" lon="100.920416">
<time>2016-04-06T12:27:48Z</time></trkpt>
<trkpt lat="25.318982" lon="100.920186">
<time>2016-04-06T12:27:49Z</time></trkpt>
<trkpt lat="25.319092" lon="100.919967">
<time>2016-04-06T12:27:50Z</time></trkpt>
<trkpt lat="25.319232" lon="100.919787">
<time>2016-04-06T12:27:51Z</time></trkpt>
<trkpt lat="25.319412" lon="100.919637">
<time>2016-04-06T12:27:52Z</time></trkpt>
<trkpt lat="25.319622" lon="100.919547">
<time>2016-04-06T12:27:53Z</time></trkpt>
<trkpt lat="25.319832" lon="100.919477">
<time>2016-04-06T12:27:54Z</time></trkpt>
<trkpt lat="25.320033" lon="100.919388">
<time>2016-04-06T12:27:55Z</time></trkpt>
<trkpt lat="25.320183" lon="100.919278">
<time>2016-04-06T12:27:56Z</time></trkpt>
<trkpt lat="25.320253" lon="100.919098">
<time>2016-04-06T12:27:57Z</time></trkpt>
<trkpt lat="25.320243" lon="100.918888">
<time>2016-04-06T12:27:58Z</time></trkpt>
<trkpt lat="25.320183" lon="100.918669">
<time>2016-04-06T12:27:59Z</time></trkpt>
<trkpt lat="25.320133" lon="100.918439">
<time>2016-04-06T12:28:00Z</time></trkpt>
<trkpt lat="25.320084" lon="100.918209">
<time>2016-04-06T12:28:01Z</time></trkpt>
<trkpt lat="25.320074" lon="100.91797">
<time>2016-04-06T12:28:02Z</time></trkpt>
<trkpt lat="25.320114" lon="100.91773">
<time>2016-04-06T12:28:03Z</time></trkpt>
<trkpt lat="25.320214" lon="100.9175">
<time>2016-04-06T12:28:04Z</time></trkpt>
<trkpt lat="25.320344" lon="100.917281">
<time>2016-04-06T12:28:05Z</time></trkpt>
<trkpt lat="25.320484" lon="100.917071">
<time>2016-04-06T12:28:06Z</time></trkpt>
<trkpt lat="25.320625" lon="100.916831">
<time>2016-04-06T12:28:07Z</time></trkpt>
<trkpt lat="25.320735" lon="100.916582">
<time>2016-04-06T12:28:08Z</time></trkpt>
<trkpt lat="25.320825" lon="100.916312">
<time>2016-04-06T12:28:09Z</time></trkpt>
<trkpt lat="25.320925" lon="100.916022">
<time>2016-04-06T12:28:10Z</time></trkpt>
<trkpt lat="25.321065" lon="100.915783">
<time>2016-04-06T12:28:11Z</time></trkpt>
<trkpt lat="25.321226" lon="100.915563">
<time>2016-04-06T12:28:12Z</time></trkpt>
<trkpt lat="25.321366" lon="100.915383">
<time>2016-04-06T12:28:13Z</time></trkpt>
<trkpt lat="25.321396" lon="100.915193">
<time>2016-04-06T12:28:14Z</time></trkpt>
<trkpt lat="25.321336" lon="100.915034">
<time>2016-04-06T12:28:15Z</time></trkpt>
<trkpt lat="25.321186" lon="100.914924">
<time>2016-04-06T12:28:16Z</time></trkpt>
<trkpt lat="25.321006" lon="100.914864">
<time>2016-04-06T12:28:17Z</time></trkpt>
<trkpt lat="25.320816" lon="100.914814">
<time>2016-04-06T12:28:18Z</time></trkpt>
<trkpt lat="25.320616" lon="100.914744">
<time>2016-04-06T12:28:19Z</time></trkpt>
<trkpt lat="25.320366" lon="100.914684">
<time>2016-04-06T12:28:20Z</time></trkpt>
<trkpt lat="25.320096" lon="100.914684">
<time>2016-04-06T12:28:21Z</time></trkpt>
<trkpt lat="25.319866" lon="100.914724">
<time>2016-04-06T12:28:22Z</time></trkpt>
<trkpt lat="25.319666" lon="100.914824">
<time>2016-04-06T12:28:23Z</time></trkpt>
<trkpt lat="25.319526" lon="100.915004">
<time>2016-04-06T12:28:24Z</time></trkpt>
<trkpt lat="25.319446" lon="100.915233">
<time>2016-04-06T12:28:25Z</time></trkpt>
<trkpt lat="25.319335" lon="100.915473">
<time>2016-04-06T12:28:26Z</time></trkpt>
<trkpt lat="25.319165" lon="100.915663">
<time>2016-04-06T12:28:27Z</time></trkpt>
<trkpt lat="25.318955" lon="100.915773">
<time>2016-04-06T12:28:28Z</time></trkpt>
<trkpt lat="25.318755" lon="100.915893">
<time>2016-04-06T12:28:29Z</time></trkpt>
<trkpt lat="25.318585" lon="100.916042">
<time>2016-04-06T12:28:30Z</time></trkpt>
<trkpt lat="25.318465" lon="100.916202">
<time>2016-04-06T12:28:31Z</time></trkpt>
<trkpt lat="25.318365" lon="100.916292">
<time>2016-04-06T12:28:32Z</time></trkpt>
<trkpt lat="25.318215" lon="100.916292">
<time>2016-04-06T12:28:33Z</time></trkpt>
<trkpt lat="25.318115" lon="100.916202">
<time>2016-04-06T12:28:34Z</time></trkpt>
<trkpt lat="25.318075" lon="100.916062">
<time>2016-04-06T12:28:35Z</time></trkpt>
<trkpt lat="25.318085" lon="100.915883">
<time>2016-04-06T12:28:36Z</time></trkpt>
<trkpt lat="25.318135" lon="100.915673">
<time>2016-04-06T12:28:37Z</time></trkpt>
<trkpt lat="25.318195" lon="100.915433">
<time>2016-04-06T12:28:38Z</time></trkpt>
<trkpt lat="25.318246" lon="100.915203">
<time>2016-04-06T12:28:39Z</time></trkpt>
<trkpt lat="25.318296" lon="100.914944">
<time>2016-04-06T12:28:40Z</time></trkpt>
<trkpt lat="25.318406" lon="100.914724">
<time>2016-04-06T12:28:41Z</time></trkpt>
<trkpt lat="25.318546" lon="100.914564">
<time>2016-04-06T12:28:42Z</time></trkpt>
<trkpt lat="25.318706" lon="100.914404">
<time>2016-04-06T12:28:43Z</time></trkpt>
<trkpt lat="25.318836" lon="100.914195">
<time>2016-04-06T12:28:44Z</time></trkpt>
<trkpt lat="25.318946" lon="100.913945">
<time>2016-04-06T12:28:45Z</time></trkpt>
<trkpt lat="25.319036" lon="100.913715">
<time>2016-04-06T12:28:46Z</time></trkpt>
<trkpt lat="25.319107" lon="100.913506">
<time>2016-04-06T12:28:47Z</time></trkpt>
<trkpt lat="25.319107" lon="100.913316">
<time>2016-04-06T12:28:48Z</time></trkpt>
<trkpt lat="25.319007" lon="100.913176">
<time>2016-04-06T12:28:49Z</time></trkpt>
<trkpt lat="25.318857" lon="100.913106">
<time>2016-04-06T12:28:50Z</time></trkpt>
<trkpt lat="25.318707" lon="100.913096">
<time>2016-04-06T12:28:51Z</time></trkpt>
<trkpt lat="25.318537" lon="100.913106">
<time>2016-04-06T12:28:52Z</time></trkpt>
<trkpt lat="25.318347" lon="100.913086">
<time>2016-04-06T12:28:53Z</time></trkpt>
<trkpt lat="25.318197" lon="100.912996">
<time>2016-04-06T12:28:54Z</time></trkpt>
<trkpt lat="25.318117" lon="100.912866">
<time>2016-04-06T12:28:55Z</time></trkpt>
<trkpt lat="25.318107" lon="100.912716">
<time>2016-04-06T12:28:56Z</time></trkpt>
<trkpt lat="25.318157" lon="100.912587">
<time>2016-04-06T12:28:57Z</time></trkpt>
<trkpt lat="25.318307" lon="100.912457">
<time>2016-04-06T12:28:58Z</time></trkpt>
<trkpt lat="25.318487" lon="100.912367">
<time>2016-04-06T12:28:59Z</time></trkpt>
<trkpt lat="25.318687" lon="100.912267">
<time>2016-04-06T12:29:00Z</time></trkpt>
<trkpt lat="25.318877" lon="100.912237">
<time>2016-04-06T12:29:01Z</time></trkpt>
<trkpt lat="25.319077" lon="100.912227">
<time>2016-04-06T12:29:02Z</time></trkpt>
<trkpt lat="25.319267" lon="100.912237">
<time>2016-04-06T12:29:03Z</time></trkpt>
<trkpt lat="25.319457" lon="100.912297">
<time>2016-04-06T12:29:04Z</time></trkpt>
<trkpt lat="25.319607" lon="100.912397">
<time>2016-04-06T12:29:05Z</time></trkpt>
<trkpt lat="25.319767" lon="100.912477">
<time>2016-04-06T12:29:06Z</time></trkpt>
<trkpt lat="25.319937" lon="100.912507">
<time>2016-04-06T12:29:07Z</time></trkpt>
<trkpt lat="25.320117" lon="100.912487">
<time>2016-04-06T12:29:08Z</time></trkpt>
<trkpt lat="25.320287" lon="100.912397">
<time>2016-04-06T12:29:09Z</time></trkpt>
<trkpt lat="25.320417" lon="100.912237">
<time>2016-04-06T12:29:10Z</time></trkpt>
<trkpt lat="25.320548" lon="100.912057">
<time>2016-04-06T12:29:11Z</time></trkpt>
<trkpt lat="25.320678" lon="100.911877">
<time>2016-04-06T12:29:12Z</time></trkpt>
<trkpt lat="25.320798" lon="100.911708">
<time>2016-04-06T12:29:13Z</time></trkpt>
<trkpt lat="25.320818" lon="100.911668">
<time>2016-04-06T12:29:14Z</time></trkpt>
<trkpt lat="25.320898" lon="100.911508">
<time>2016-04-06T12:29:15Z</time></trkpt>
<trkpt lat="25.320998" lon="100.911318">
<time>2016-04-06T12:29:16Z</time></trkpt>
<trkpt lat="25.321118" lon="100.911138">
<time>2016-04-06T12:29:17Z</time></trkpt>
<trkpt lat="25.321238" lon="100.910998">
<time>2016-04-06T12:29:18Z</time></trkpt>
<trkpt lat="25.321268" lon="100.910978">
<time>2016-04-06T12:29:19Z</time></trkpt>
<trkpt lat="25.321438" lon="100.910819">
<time>2016-04-06T12:29:20Z</time></trkpt>
<trkpt lat="25.321628" lon="100.910659">
<time>2016-04-06T12:29:21Z</time></trkpt>
<trkpt lat="25.321808" lon="100.910489">
<time>2016-04-06T12:29:22Z</time></trkpt>
<trkpt lat="25.322028" lon="100.910349">
<time>2016-04-06T12:29:23Z</time></trkpt>
<trkpt lat="25.322249" lon="100.910229">
<time>2016-04-06T12:29:24Z</time></trkpt>
<trkpt lat="25.322499" lon="100.910139">
<time>2016-04-06T12:29:25Z</time></trkpt>
<trkpt lat="25.322739" lon="100.910059">
<time>2016-04-06T12:29:26Z</time></trkpt>
<trkpt lat="25.322969" lon="100.909989">
<time>2016-04-06T12:29:27Z</time></trkpt>
<trkpt lat="25.323189" lon="100.909909">
<time>2016-04-06T12:29:28Z</time></trkpt>
<trkpt lat="25.323399" lon="100.9098">
<time>2016-04-06T12:29:29Z</time></trkpt>
<trkpt lat="25.323599" lon="100.90967">
<time>2016-04-06T12:29:30Z</time></trkpt>
<trkpt lat="25.323799" lon="100.9095">
<time>2016-04-06T12:29:31Z</time></trkpt>
<trkpt lat="25.323989" lon="100.90933">
<time>2016-04-06T12:29:32Z</time></trkpt>
<trkpt lat="25.324189" lon="100.90914">
<time>2016-04-06T12:29:33Z</time></trkpt>
<trkpt lat="25.324369" lon="100.90895">
<time>2016-04-06T12:29:34Z</time></trkpt>
<trkpt lat="25.324549" lon="100.908761">
<time>2016-04-06T12:29:35Z</time></trkpt>
<trkpt lat="25.324729" lon="100.908581">
<time>2016-04-06T12:29:36Z</time></trkpt>
<trkpt lat="25.32489" lon="100.908391">
<time>2016-04-06T12:29:37Z</time></trkpt>
<trkpt lat="25.32506" lon="100.908201">
<time>2016-04-06T12:29:38Z</time></trkpt>
<trkpt lat="25.32521" lon="100.908011">
<time>2016-04-06T12:29:39Z</time></trkpt>
<trkpt lat="25.32537" lon="100.907831">
<time>2016-04-06T12:29:40Z</time></trkpt>
<trkpt lat="25.32551" lon="100.907622">
<time>2016-04-06T12:29:41Z</time></trkpt>
<trkpt lat="25.32565" lon="100.907412">
<time>2016-04-06T12:29:42Z</time></trkpt>
<trkpt lat="25.3258" lon="100.907192">
<time>2016-04-06T12:29:43Z</time></trkpt>
<trkpt lat="25.32594" lon="100.906972">
<time>2016-04-06T12:29:44Z</time></trkpt>
<trkpt lat="25.32608" lon="100.906762">
<time>2016-04-06T12:29:45Z</time></trkpt>
<trkpt lat="25.32623" lon="100.906553">
<time>2016-04-06T12:29:46Z</time></trkpt>
<trkpt lat="25.3264" lon="100.906373">
<time>2016-04-06T12:29:47Z</time></trkpt>
<trkpt lat="25.3266" lon="100.906213">
<time>2016-04-06T12:29:48Z</time></trkpt>
<trkpt lat="25.3268" lon="100.906073">
<time>2016-04-06T12:29:49Z</time></trkpt>
<trkpt lat="25.32699" lon="100.905933">
<time>2016-04-06T12:29:50Z</time></trkpt>
<trkpt lat="25.32714" lon="100.905783">
<time>2016-04-06T12:29:51Z</time></trkpt>
<trkpt lat="25.327311" lon="100.905533">
<time>2016-04-06T12:29:52Z</time></trkpt>
<trkpt lat="25.327401" lon="100.905314">
<time>2016-04-06T12:29:53Z</time></trkpt>
<trkpt lat="25.327411" lon="100.905134">
<time>2016-04-06T12:29:54Z</time></trkpt>
<trkpt lat="25.327381" lon="100.904954">
<time>2016-04-06T12:29:55Z</time></trkpt>
<trkpt lat="25.327301" lon="100.904764">
<time>2016-04-06T12:29:56Z</time></trkpt>
<trkpt lat="25.327211" lon="100.904554">
<time>2016-04-06T12:29:57Z</time></trkpt>
<trkpt lat="25.327181" lon="100.904354">
<time>2016-04-06T12:29:58Z</time></trkpt>
<trkpt lat="25.327261" lon="100.904184">
<time>2016-04-06T12:29:59Z</time></trkpt>
<trkpt lat="25.327411" lon="100.904085">
<time>2016-04-06T12:30:00Z</time></trkpt>
<trkpt lat="25.327591" lon="100.904065">
<time>2016-04-06T12:30:01Z</time></trkpt>
<trkpt lat="25.327761" lon="100.904065">
<time>2016-04-06T12:30:02Z</time></trkpt>
<trkpt lat="25.327941" lon="100.904045">
<time>2016-04-06T12:30:03Z</time></trkpt>
<trkpt lat="25.328091" lon="100.903965">
<time>2016-04-06T12:30:04Z</time></trkpt>
<trkpt lat="25.328231" lon="100.903845">
<time>2016-04-06T12:30:05Z</time></trkpt>
<trkpt lat="25.328361" lon="100.903715">
<time>2016-04-06T12:30:06Z</time></trkpt>
<trkpt lat="25.328511" lon="100.903595">
<time>2016-04-06T12:30:07Z</time></trkpt>
<trkpt lat="25.328631" lon="100.903435">
<time>2016-04-06T12:30:08Z</time></trkpt>
<trkpt lat="25.328771" lon="100.903285">
<time>2016-04-06T12:30:09Z</time></trkpt>
<trkpt lat="25.328901" lon="100.903125">
<time>2016-04-06T12:30:10Z</time></trkpt>
<trkpt lat="25.329001" lon="100.902935">
<time>2016-04-06T12:30:11Z</time></trkpt>
<trkpt lat="25.329081" lon="100.902745">
<time>2016-04-06T12:30:12Z</time></trkpt>
<trkpt lat="25.329141" lon="100.902546">
<time>2016-04-06T12:30:13Z</time></trkpt>
<trkpt lat="25.329171" lon="100.902336">
<time>2016-04-06T12:30:14Z</time></trkpt>
<trkpt lat="25.329181" lon="100.902116">
<time>2016-04-06T12:30:15Z</time></trkpt>
<trkpt lat="25.329161" lon="100.901906">
<time>2016-04-06T12:30:16Z</time></trkpt>
<trkpt lat="25.329111" lon="100.901706">
<time>2016-04-06T12:30:17Z</time></trkpt>
<trkpt lat="25.329071" lon="100.901586">
<time>2016-04-06T12:30:18Z</time></trkpt>
<trkpt lat="25.329041" lon="100.901496">
<time>2016-04-06T12:30:19Z</time></trkpt>
<trkpt lat="25.328971" lon="100.901296">
<time>2016-04-06T12:30:20Z</time></trkpt>
<trkpt lat="25.328891" lon="100.901106">
<time>2016-04-06T12:30:21Z</time></trkpt>
<trkpt lat="25.328821" lon="100.900907">
<time>2016-04-06T12:30:22Z</time></trkpt>
<trkpt lat="25.328771" lon="100.900697">
<time>2016-04-06T12:30:23Z</time></trkpt>
<trkpt lat="25.328751" lon="100.900487">
<time>2016-04-06T12:30:24Z</time></trkpt>
<trkpt lat="25.328751" lon="100.900457">
<time>2016-04-06T12:30:25Z</time></trkpt>
<trkpt lat="25.328771" lon="100.900267">
<time>2016-04-06T12:30:26Z</time></trkpt>
<trkpt lat="25.328821" lon="100.900047">
<time>2016-04-06T12:30:27Z</time></trkpt>
<trkpt lat="25.328891" lon="100.899837">
<time>2016-04-06T12:30:28Z</time></trkpt>
<trkpt lat="25.328951" lon="100.899617">
<time>2016-04-06T12:30:29Z</time></trkpt>
<trkpt lat="25.329031" lon="100.899417">
<time>2016-04-06T12:30:30Z</time></trkpt>
<trkpt lat="25.329101" lon="100.899218">
<time>2016-04-06T12:30:31Z</time></trkpt>
<trkpt lat="25.329191" lon="100.899038">
<time>2016-04-06T12:30:32Z</time></trkpt>
<trkpt lat="25.329291" lon="100.898878">
<time>2016-04-06T12:30:33Z</time></trkpt>
<trkpt lat="25.329411" lon="100.898718">
<time>2016-04-06T12:30:34Z</time></trkpt>
<trkpt lat="25.329521" lon="100.898598">
<time>2016-04-06T12:30:35Z</time></trkpt>
<trkpt lat="25.329531" lon="100.898588">
<time>2016-04-06T12:30:36Z</time></trkpt>
<trkpt lat="25.329651" lon="100.898438">
<time>2016-04-06T12:30:37Z</time></trkpt>
<trkpt lat="25.329781" lon="100.898298">
<time>2016-04-06T12:30:38Z</time></trkpt>
<trkpt lat="25.329911" lon="100.898138">
<time>2016-04-06T12:30:39Z</time></trkpt>
<trkpt lat="25.330051" lon="100.897988">
<time>2016-04-06T12:30:40Z</time></trkpt>
<trkpt lat="25.330161" lon="100.897838">
<time>2016-04-06T12:30:41Z</time></trkpt>
<trkpt lat="25.330271" lon="100.897588">
<time>2016-04-06T12:30:42Z</time></trkpt>
<trkpt lat="25.330341" lon="100.897368">
<time>2016-04-06T12:30:43Z</time></trkpt>
<trkpt lat="25.330411" lon="100.897118">
<time>2016-04-06T12:30:44Z</time></trkpt>
<trkpt lat="25.330491" lon="100.896869">
<time>2016-04-06T12:30:45Z</time></trkpt>
<trkpt lat="25.330561" lon="100.896619">
<time>2016-04-06T12:30:46Z</time></trkpt>
<trkpt lat="25.330641" lon="100.896369">
<time>2016-04-06T12:30:47Z</time></trkpt>
<trkpt lat="25.330721" lon="100.896119">
<time>2016-04-06T12:30:48Z</time></trkpt>
<trkpt lat="25.330791" lon="100.895899">
<time>2016-04-06T12:30:49Z</time></trkpt>
<trkpt lat="25.330861" lon="100.895639">
<time>2016-04-06T12:30:50Z</time></trkpt>
<trkpt lat="25.330871" lon="100.895399">
<time>2016-04-06T12:30:51Z</time></trkpt>
<trkpt lat="25.330861" lon="100.895169">
<time>2016-04-06T12:30:52Z</time></trkpt>
<trkpt lat="25.330851" lon="100.894949">
<time>2016-04-06T12:30:53Z</time></trkpt>
<trkpt lat="25.330861" lon="100.894759">
<time>2016-04-06T12:30:54Z</time></trkpt>
<trkpt lat="25.330891" lon="100.894579">
<time>2016-04-06T12:30:55Z</time></trkpt>
<trkpt lat="25.330981" lon="100.894429">
<time>2016-04-06T12:30:56Z</time></trkpt>
<trkpt lat="25.331121" lon="100.894319">
<time>2016-04-06T12:30:57Z</time></trkpt>
<trkpt lat="25.331271" lon="100.894259">
<time>2016-04-06T12:30:58Z</time></trkpt>
<trkpt lat="25.331441" lon="100.894269">
<time>2016-04-06T12:30:59Z</time></trkpt>
<trkpt lat="25.331611" lon="100.894289">
<time>2016-04-06T12:31:00Z</time></trkpt>
<trkpt lat="25.331821" lon="100.894369">
<time>2016-04-06T12:31:01Z</time></trkpt>
<trkpt lat="25.331971" lon="100.894369">
<time>2016-04-06T12:31:02Z</time></trkpt>
<trkpt lat="25.332131" lon="100.894339">
<time>2016-04-06T12:31:03Z</time></trkpt>
<trkpt lat="25.332291" lon="100.894259">
<time>2016-04-06T12:31:04Z</time></trkpt>
<trkpt lat="25.332401" lon="100.894079">
<time>2016-04-06T12:31:05Z</time></trkpt>
<trkpt lat="25.332521" lon="100.893919">
<time>2016-04-06T12:31:06Z</time></trkpt>
<trkpt lat="25.332621" lon="100.893719">
<time>2016-04-06T12:31:07Z</time></trkpt>
<trkpt lat="25.332741" lon="100.89355">
<time>2016-04-06T12:31:08Z</time></trkpt>
<trkpt lat="25.33287" lon="100.89337">
<time>2016-04-06T12:31:09Z</time></trkpt>
<trkpt lat="25.333" lon="100.89317">
<time>2016-04-06T12:31:10Z</time></trkpt>
<trkpt lat="25.33312" lon="100.89299">
<time>2016-04-06T12:31:11Z</time></trkpt>
<trkpt lat="25.3332" lon="100.8928">
<time>2016-04-06T12:31:12Z</time></trkpt>
<trkpt lat="25.33326" lon="100.8926">
<time>2016-04-06T12:31:13Z</time></trkpt>
<trkpt lat="25.33335" lon="100.89234">
<time>2016-04-06T12:31:14Z</time></trkpt>
<trkpt lat="25.33342" lon="100.89218">
<time>2016-04-06T12:31:15Z</time></trkpt>
<trkpt lat="25.33353" lon="100.89201">
<time>2016-04-06T12:31:16Z</time></trkpt>
<trkpt lat="25.33367" lon="100.8919">
<time>2016-04-06T12:31:17Z</time></trkpt>
<trkpt lat="25.33386" lon="100.89187">
<time>2016-04-06T12:31:18Z</time></trkpt>
<trkpt lat="25.33403" lon="100.89187">
<time>2016-04-06T12:31:19Z</time></trkpt>
<trkpt lat="25.33422" lon="100.89186">
<time>2016-04-06T12:31:20Z</time></trkpt>
<trkpt lat="25.33441" lon="100.89181">
<time>2016-04-06T12:31:21Z</time></trkpt>
<trkpt lat="25.33457" lon="100.89174">
<time>2016-04-06T12:31:22Z</time></trkpt>
<trkpt lat="25.33472" lon="100.89165">
<time>2016-04-06T12:31:23Z</time></trkpt>
<trkpt lat="25.33485" lon="100.89156">
<time>2016-04-06T12:31:24Z</time></trkpt>
<trkpt lat="25.33497" lon="100.89145">
<time>2016-04-06T12:31:25Z</time></trkpt>
<trkpt lat="25.3351" lon="100.89134">
<time>2016-04-06T12:31:26Z</time></trkpt>
<trkpt lat="25.33524" lon="100.89124">
<time>2016-04-06T12:31:27Z</time></trkpt>
<trkpt lat="25.33538" lon="100.89112">
<time>2016-04-06T12:31:28Z</time></trkpt>
<trkpt lat="25.33553" lon="100.89101">
<time>2016-04-06T12:31:29Z</time></trkpt>
<trkpt lat="25.33568" lon="100.89089">
<time>2016-04-06T12:31:30Z</time></trkpt>
<trkpt lat="25.33583" lon="100.89077">
<time>2016-04-06T12:31:31Z</time></trkpt>
<trkpt lat="25.33598" lon="100.89066">
<time>2016-04-06T12:31:32Z</time></trkpt>
<trkpt lat="25.33616" lon="100.89057">
<time>2016-04-06T12:31:33Z</time></trkpt>
<trkpt lat="25.33634" lon="100.89051">
<time>2016-04-06T12:31:34Z</time></trkpt>
<trkpt lat="25.33651" lon="100.89043">
<time>2016-04-06T12:31:35Z</time></trkpt>
<trkpt lat="25.33664" lon="100.8903">
<time>2016-04-06T12:31:36Z</time></trkpt>
<trkpt lat="25.33675" lon="100.89015">
<time>2016-04-06T12:31:37Z</time></trkpt>
<trkpt lat="25.3369" lon="100.89001">
<time>2016-04-06T12:31:38Z</time></trkpt>
<trkpt lat="25.33707" lon="100.88995">
<time>2016-04-06T12:31:39Z</time></trkpt>
<trkpt lat="25.33725" lon="100.88992">
<time>2016-04-06T12:31:40Z</time></trkpt>
<trkpt lat="25.33741" lon="100.88986">
<time>2016-04-06T12:31:41Z</time></trkpt>
<trkpt lat="25.33752" lon="100.88975">
<time>2016-04-06T12:31:42Z</time></trkpt>
<trkpt lat="25.33763" lon="100.88957">
<time>2016-04-06T12:31:43Z</time></trkpt>
<trkpt lat="25.337669" lon="100.88937">
<time>2016-04-06T12:31:44Z</time></trkpt>
<trkpt lat="25.337709" lon="100.88915">
<time>2016-04-06T12:31:45Z</time></trkpt>
<trkpt lat="25.337729" lon="100.88891">
<time>2016-04-06T12:31:46Z</time></trkpt>
<trkpt lat="25.337719" lon="100.88868">
<time>2016-04-06T12:31:47Z</time></trkpt>
<trkpt lat="25.337699" lon="100.88839">
<time>2016-04-06T12:31:48Z</time></trkpt>
<trkpt lat="25.337669" lon="100.88813">
<time>2016-04-06T12:31:49Z</time></trkpt>
<trkpt lat="25.337639" lon="100.88787">
<time>2016-04-06T12:31:50Z</time></trkpt>
<trkpt lat="25.337609" lon="100.88761">
<time>2016-04-06T12:31:51Z</time></trkpt>
<trkpt lat="25.337578" lon="100.88739">
<time>2016-04-06T12:31:52Z</time></trkpt>
<trkpt lat="25.337608" lon="100.88721">
<time>2016-04-06T12:31:53Z</time></trkpt>
<trkpt lat="25.337718" lon="100.88708">
<time>2016-04-06T12:31:54Z</time></trkpt>
<trkpt lat="25.337888" lon="100.88705">
<time>2016-04-06T12:31:55Z</time></trkpt>
<trkpt lat="25.338018" lon="100.88711">
<time>2016-04-06T12:31:56Z</time></trkpt>
<trkpt lat="25.338138" lon="100.88721">
<time>2016-04-06T12:31:57Z</time></trkpt>
<trkpt lat="25.338258" lon="100.88732">
<time>2016-04-06T12:31:58Z</time></trkpt>
<trkpt lat="25.338389" lon="100.88745">
<time>2016-04-06T12:31:59Z</time></trkpt>
<trkpt lat="25.338529" lon="100.88759">
<time>2016-04-06T12:32:00Z</time></trkpt>
<trkpt lat="25.338679" lon="100.88774">
<time>2016-04-06T12:32:01Z</time></trkpt>
<trkpt lat="25.338839" lon="100.8879">
<time>2016-04-06T12:32:02Z</time></trkpt>
<trkpt lat="25.338999" lon="100.88805">
<time>2016-04-06T12:32:03Z</time></trkpt>
<trkpt lat="25.339169" lon="100.88817">
<time>2016-04-06T12:32:04Z</time></trkpt>
<trkpt lat="25.339349" lon="100.88825">
<time>2016-04-06T12:32:05Z</time></trkpt>
<trkpt lat="25.339539" lon="100.8883">
<time>2016-04-06T12:32:06Z</time></trkpt>
<trkpt lat="25.339649" lon="100.88829">
<time>2016-04-06T12:32:07Z</time></trkpt>
<trkpt lat="25.339759" lon="100.88822">
<time>2016-04-06T12:32:08Z</time></trkpt>
<trkpt lat="25.339859" lon="100.88809">
<time>2016-04-06T12:32:09Z</time></trkpt>
<trkpt lat="25.340009" lon="100.88793">
<time>2016-04-06T12:32:10Z</time></trkpt>
<trkpt lat="25.340109" lon="100.88784">
<time>2016-04-06T12:32:11Z</time></trkpt>
<trkpt lat="25.340119" lon="100.88783">
<time>2016-04-06T12:32:12Z</time></trkpt>
<trkpt lat="25.340299" lon="100.88764">
<time>2016-04-06T12:32:13Z</time></trkpt>
<trkpt lat="25.340429" lon="100.88754">
<time>2016-04-06T12:32:14Z</time></trkpt>
<trkpt lat="25.340509" lon="100.88751">
<time>2016-04-06T12:32:15Z</time></trkpt>
<trkpt lat="25.340589" lon="100.88751">
<time>2016-04-06T12:32:16Z</time></trkpt>
<trkpt lat="25.340719" lon="100.88758">
<time>2016-04-06T12:32:17Z</time></trkpt>
<trkpt lat="25.340839" lon="100.88769">
<time>2016-04-06T12:32:18Z</time></trkpt>
<trkpt lat="25.340959" lon="100.88778">
<time>2016-04-06T12:32:19Z</time></trkpt>
<trkpt lat="25.341089" lon="100.88784">
<time>2016-04-06T12:32:20Z</time></trkpt>
<trkpt lat="25.341219" lon="100.88783">
<time>2016-04-06T12:32:21Z</time></trkpt>
<trkpt lat="25.341339" lon="100.88774">
<time>2016-04-06T12:32:22Z</time></trkpt>
<trkpt lat="25.341429" lon="100.8876">
<time>2016-04-06T12:32:23Z</time></trkpt>
<trkpt lat="25.341509" lon="100.88742">
<time>2016-04-06T12:32:24Z</time></trkpt>
<trkpt lat="25.341609" lon="100.88726">
<time>2016-04-06T12:32:25Z</time></trkpt>
<trkpt lat="25.341679" lon="100.88706">
<time>2016-04-06T12:32:26Z</time></trkpt>
<trkpt lat="25.341709" lon="100.88682">
<time>2016-04-06T12:32:27Z</time></trkpt>
<trkpt lat="25.341688" lon="100.88658">
<time>2016-04-06T12:32:28Z</time></trkpt>
<trkpt lat="25.341648" lon="100.88632">
<time>2016-04-06T12:32:29Z</time></trkpt>
<trkpt lat="25.341598" lon="100.88606">
<time>2016-04-06T12:32:30Z</time></trkpt>
<trkpt lat="25.341588" lon="100.88582">
<time>2016-04-06T12:32:31Z</time></trkpt>
<trkpt lat="25.341628" lon="100.88559">
<time>2016-04-06T12:32:32Z</time></trkpt>
<trkpt lat="25.341718" lon="100.88541">
<time>2016-04-06T12:32:33Z</time></trkpt>
<trkpt lat="25.341748" lon="100.8852">
<time>2016-04-06T12:32:34Z</time></trkpt>
<trkpt lat="25.341737" lon="100.885">
<time>2016-04-06T12:32:35Z</time></trkpt>
<trkpt lat="25.341697" lon="100.88478">
<time>2016-04-06T12:32:36Z</time></trkpt>
<trkpt lat="25.341647" lon="100.88454">
<time>2016-04-06T12:32:37Z</time></trkpt>
<trkpt lat="25.341607" lon="100.88428">
<time>2016-04-06T12:32:38Z</time></trkpt>
<trkpt lat="25.341577" lon="100.884009">
<time>2016-04-06T12:32:39Z</time></trkpt>
<trkpt lat="25.341577" lon="100.883749">
<time>2016-04-06T12:32:40Z</time></trkpt>
<trkpt lat="25.341616" lon="100.883469">
<time>2016-04-06T12:32:41Z</time></trkpt>
<trkpt lat="25.341646" lon="100.883199">
<time>2016-04-06T12:32:42Z</time></trkpt>
<trkpt lat="25.341656" lon="100.882939">
<time>2016-04-06T12:32:43Z</time></trkpt>
<trkpt lat="25.341696" lon="100.882689">
<time>2016-04-06T12:32:44Z</time></trkpt>
<trkpt lat="25.341826" lon="100.882459">
<time>2016-04-06T12:32:45Z</time></trkpt>
<trkpt lat="25.342026" lon="100.882269">
<time>2016-04-06T12:32:46Z</time></trkpt>
<trkpt lat="25.342245" lon="100.882079">
<time>2016-04-06T12:32:47Z</time></trkpt>
<trkpt lat="25.342465" lon="100.881899">
<time>2016-04-06T12:32:48Z</time></trkpt>
<trkpt lat="25.342655" lon="100.881729">
<time>2016-04-06T12:32:49Z</time></trkpt>
<trkpt lat="25.342805" lon="100.881559">
<time>2016-04-06T12:32:50Z</time></trkpt>
<trkpt lat="25.342865" lon="100.881359">
<time>2016-04-06T12:32:51Z</time></trkpt>
<trkpt lat="25.342865" lon="100.881139">
<time>2016-04-06T12:32:52Z</time></trkpt>
<trkpt lat="25.342835" lon="100.880889">
<time>2016-04-06T12:32:53Z</time></trkpt>
<trkpt lat="25.342784" lon="100.880659">
<time>2016-04-06T12:32:54Z</time></trkpt>
<trkpt lat="25.342784" lon="100.880409">
<time>2016-04-06T12:32:55Z</time></trkpt>
<trkpt lat="25.342864" lon="100.880158">
<time>2016-04-06T12:32:56Z</time></trkpt>
<trkpt lat="25.342994" lon="100.879948">
<time>2016-04-06T12:32:57Z</time></trkpt>
<trkpt lat="25.343174" lon="100.879738">
<time>2016-04-06T12:32:58Z</time></trkpt>
<trkpt lat="25.343364" lon="100.879568">
<time>2016-04-06T12:32:59Z</time></trkpt>
<trkpt lat="25.343563" lon="100.879408">
<time>2016-04-06T12:33:00Z</time></trkpt>
<trkpt lat="25.343783" lon="100.879258">
<time>2016-04-06T12:33:01Z</time></trkpt>
<trkpt lat="25.344003" lon="100.879118">
<time>2016-04-06T12:33:02Z</time></trkpt>
<trkpt lat="25.344223" lon="100.878988">
<time>2016-04-06T12:33:03Z</time></trkpt>
<trkpt lat="25.344443" lon="100.878868">
<time>2016-04-06T12:33:04Z</time></trkpt>
<trkpt lat="25.344643" lon="100.878688">
<time>2016-04-06T12:33:05Z</time></trkpt>
<trkpt lat="25.344763" lon="100.878598">
<time>2016-04-06T12:33:06Z</time></trkpt>
<trkpt lat="25.344883" lon="100.878478">
<time>2016-04-06T12:33:07Z</time></trkpt>
<trkpt lat="25.344993" lon="100.878318">
<time>2016-04-06T12:33:08Z</time></trkpt>
<trkpt lat="25.345052" lon="100.878128">
<time>2016-04-06T12:33:09Z</time></trkpt>
<trkpt lat="25.345052" lon="100.877957">
<time>2016-04-06T12:33:10Z</time></trkpt>
<trkpt lat="25.345002" lon="100.877777">
<time>2016-04-06T12:33:11Z</time></trkpt>
<trkpt lat="25.344872" lon="100.877667">
<time>2016-04-06T12:33:12Z</time></trkpt>
<trkpt lat="25.344702" lon="100.877587">
<time>2016-04-06T12:33:13Z</time></trkpt>
<trkpt lat="25.344542" lon="100.877557">
<time>2016-04-06T12:33:14Z</time></trkpt>
<trkpt lat="25.344342" lon="100.877517">
<time>2016-04-06T12:33:15Z</time></trkpt>
<trkpt lat="25.344152" lon="100.877477">
<time>2016-04-06T12:33:16Z</time></trkpt>
<trkpt lat="25.343962" lon="100.877407">
<time>2016-04-06T12:33:17Z</time></trkpt>
<trkpt lat="25.343801" lon="100.877267">
<time>2016-04-06T12:33:18Z</time></trkpt>
<trkpt lat="25.343721" lon="100.877067">
<time>2016-04-06T12:33:19Z</time></trkpt>
<trkpt lat="25.343701" lon="100.876867">
<time>2016-04-06T12:33:20Z</time></trkpt>
<trkpt lat="25.343701" lon="100.876727">
<time>2016-04-06T12:33:21Z</time></trkpt>
<trkpt lat="25.343731" lon="100.876527">
<time>2016-04-06T12:33:22Z</time></trkpt>
<trkpt lat="25.343781" lon="100.876357">
<time>2016-04-06T12:33:23Z</time></trkpt>
<trkpt lat="25.34384" lon="100.876197">
<time>2016-04-06T12:33:24Z</time></trkpt>
<trkpt lat="25.34394" lon="100.876057">
<time>2016-04-06T12:33:25Z</time></trkpt>
<trkpt lat="25.34407" lon="100.875937">
<time>2016-04-06T12:33:26Z</time></trkpt>
<trkpt lat="25.34421" lon="100.875867">
<time>2016-04-06T12:33:27Z</time></trkpt>
<trkpt lat="25.34435" lon="100.875776">
<time>2016-04-06T12:33:28Z</time></trkpt>
<trkpt lat="25.34448" lon="100.875706">
<time>2016-04-06T12:33:29Z</time></trkpt>
<trkpt lat="25.34461" lon="100.875626">
<time>2016-04-06T12:33:30Z</time></trkpt>
<trkpt lat="25.34493" lon="100.875506">
<time>2016-04-06T12:33:31Z</time></trkpt>
<trkpt lat="25.34511" lon="100.875426">
<time>2016-04-06T12:33:32Z</time></trkpt>
<trkpt lat="25.34528" lon="100.875326">
<time>2016-04-06T12:33:33Z</time></trkpt>
<trkpt lat="25.34547" lon="100.875186">
<time>2016-04-06T12:33:34Z</time></trkpt>
<trkpt lat="25.34568" lon="100.875016">
<time>2016-04-06T12:33:35Z</time></trkpt>
<trkpt lat="25.345849" lon="100.874906">
<time>2016-04-06T12:33:36Z</time></trkpt>
<trkpt lat="25.346039" lon="100.874796">
<time>2016-04-06T12:33:37Z</time></trkpt>
<trkpt lat="25.346239" lon="100.874686">
<time>2016-04-06T12:33:38Z</time></trkpt>
<trkpt lat="25.346439" lon="100.874566">
<time>2016-04-06T12:33:39Z</time></trkpt>
<trkpt lat="25.346639" lon="100.874456">
<time>2016-04-06T12:33:40Z</time></trkpt>
<trkpt lat="25.346839" lon="100.874336">
<time>2016-04-06T12:33:41Z</time></trkpt>
<trkpt lat="25.347039" lon="100.874216">
<time>2016-04-06T12:33:42Z</time></trkpt>
<trkpt lat="25.347229" lon="100.874105">
<time>2016-04-06T12:33:43Z</time></trkpt>
<trkpt lat="25.347429" lon="100.874035">
<time>2016-04-06T12:33:44Z</time></trkpt>
<trkpt lat="25.347649" lon="100.874015">
<time>2016-04-06T12:33:45Z</time></trkpt>
<trkpt lat="25.347879" lon="100.874045">
<time>2016-04-06T12:33:46Z</time></trkpt>
<trkpt lat="25.348119" lon="100.874075">
<time>2016-04-06T12:33:47Z</time></trkpt>
<trkpt lat="25.348369" lon="100.874085">
<time>2016-04-06T12:33:48Z</time></trkpt>
<trkpt lat="25.348619" lon="100.874095">
<time>2016-04-06T12:33:49Z</time></trkpt>
<trkpt lat="25.348859" lon="100.874115">
<time>2016-04-06T12:33:50Z</time></trkpt>
<trkpt lat="25.349099" lon="100.874135">
<time>2016-04-06T12:33:51Z</time></trkpt>
<trkpt lat="25.349329" lon="100.874145">
<time>2016-04-06T12:33:52Z</time></trkpt>
<trkpt lat="25.349539" lon="100.874155">
<time>2016-04-06T12:33:53Z</time></trkpt>
<trkpt lat="25.349729" lon="100.874105">
<time>2016-04-06T12:33:54Z</time></trkpt>
<trkpt lat="25.349859" lon="100.873965">
<time>2016-04-06T12:33:55Z</time></trkpt>
<trkpt lat="25.349969" lon="100.873785">
<time>2016-04-06T12:33:56Z</time></trkpt>
<trkpt lat="25.350059" lon="100.873625">
<time>2016-04-06T12:33:57Z</time></trkpt>
<trkpt lat="25.350148" lon="100.873445">
<time>2016-04-06T12:33:58Z</time></trkpt>
<trkpt lat="25.350238" lon="100.873285">
<time>2016-04-06T12:33:59Z</time></trkpt>
<trkpt lat="25.350328" lon="100.873125">
<time>2016-04-06T12:34:00Z</time></trkpt>
<trkpt lat="25.350418" lon="100.872975">
<time>2016-04-06T12:34:01Z</time></trkpt>
<trkpt lat="25.350518" lon="100.872825">
<time>2016-04-06T12:34:02Z</time></trkpt>
<trkpt lat="25.350628" lon="100.872674">
<time>2016-04-06T12:34:03Z</time></trkpt>
<trkpt lat="25.350748" lon="100.872534">
<time>2016-04-06T12:34:04Z</time></trkpt>
<trkpt lat="25.350887" lon="100.872404">
<time>2016-04-06T12:34:05Z</time></trkpt>
<trkpt lat="25.351047" lon="100.872254">
<time>2016-04-06T12:34:06Z</time></trkpt>
<trkpt lat="25.351207" lon="100.872104">
<time>2016-04-06T12:34:07Z</time></trkpt>
<trkpt lat="25.351387" lon="100.871954">
<time>2016-04-06T12:34:08Z</time></trkpt>
<trkpt lat="25.351577" lon="100.871794">
<time>2016-04-06T12:34:09Z</time></trkpt>
<trkpt lat="25.351767" lon="100.871634">
<time>2016-04-06T12:34:10Z</time></trkpt>
<trkpt lat="25.351987" lon="100.871494">
<time>2016-04-06T12:34:11Z</time></trkpt>
<trkpt lat="25.352216" lon="100.871384">
<time>2016-04-06T12:34:12Z</time></trkpt>
<trkpt lat="25.352446" lon="100.871254">
<time>2016-04-06T12:34:13Z</time></trkpt>
<trkpt lat="25.352666" lon="100.871093">
<time>2016-04-06T12:34:14Z</time></trkpt>
<trkpt lat="25.352876" lon="100.870923">
<time>2016-04-06T12:34:15Z</time></trkpt>
<trkpt lat="25.353086" lon="100.870803">
<time>2016-04-06T12:34:16Z</time></trkpt>
<trkpt lat="25.353316" lon="100.870803">
<time>2016-04-06T12:34:17Z</time></trkpt>
<trkpt lat="25.353476" lon="100.870903">
<time>2016-04-06T12:34:18Z</time></trkpt>
<trkpt lat="25.353566" lon="100.871013">
<time>2016-04-06T12:34:19Z</time></trkpt>
<trkpt lat="25.353686" lon="100.871193">
<time>2016-04-06T12:34:20Z</time></trkpt>
<trkpt lat="25.353787" lon="100.871283">
<time>2016-04-06T12:34:21Z</time></trkpt>
<trkpt lat="25.353847" lon="100.871314">
<time>2016-04-06T12:34:22Z</time></trkpt>
<trkpt lat="25.353897" lon="100.871314">
<time>2016-04-06T12:34:23Z</time></trkpt>
<trkpt lat="25.353977" lon="100.871304">
<time>2016-04-06T12:34:24Z</time></trkpt>
<trkpt lat="25.354017" lon="100.871293">
<time>2016-04-06T12:34:25Z</time></trkpt>
<trkpt lat="25.354086" lon="100.871233">
<time>2016-04-06T12:34:26Z</time></trkpt>
<trkpt lat="25.354146" lon="100.871183">
<time>2016-04-06T12:34:27Z</time></trkpt>
<trkpt lat="25.354266" lon="100.871063">
<time>2016-04-06T12:34:28Z</time></trkpt>
<trkpt lat="25.354396" lon="100.870953">
<time>2016-04-06T12:34:29Z</time></trkpt>
<trkpt lat="25.354536" lon="100.870883">
<time>2016-04-06T12:34:30Z</time></trkpt>
<trkpt lat="25.354676" lon="100.870833">
<time>2016-04-06T12:34:31Z</time></trkpt>
<trkpt lat="25.354826" lon="100.870803">
<time>2016-04-06T12:34:32Z</time></trkpt>
<trkpt lat="25.354976" lon="100.870803">
<time>2016-04-06T12:34:33Z</time></trkpt>
<trkpt lat="25.355126" lon="100.870823">
<time>2016-04-06T12:34:34Z</time></trkpt>
<trkpt lat="25.355336" lon="100.870903">
<time>2016-04-06T12:34:35Z</time></trkpt>
<trkpt lat="25.355486" lon="100.871043">
<time>2016-04-06T12:34:36Z</time></trkpt>
<trkpt lat="25.355637" lon="100.871183">
<time>2016-04-06T12:34:37Z</time></trkpt>
<trkpt lat="25.355787" lon="100.871343">
<time>2016-04-06T12:34:38Z</time></trkpt>
<trkpt lat="25.355957" lon="100.871484">
<time>2016-04-06T12:34:39Z</time></trkpt>
<trkpt lat="25.356117" lon="100.871634">
<time>2016-04-06T12:34:40Z</time></trkpt>
<trkpt lat="25.356277" lon="100.871794">
<time>2016-04-06T12:34:41Z</time></trkpt>
<trkpt lat="25.356428" lon="100.871934">
<time>2016-04-06T12:34:42Z</time></trkpt>
<trkpt lat="25.356598" lon="100.871994">
<time>2016-04-06T12:34:43Z</time></trkpt>
<trkpt lat="25.356758" lon="100.871924">
<time>2016-04-06T12:34:44Z</time></trkpt>
<trkpt lat="25.356867" lon="100.871764">
<time>2016-04-06T12:34:45Z</time></trkpt>
<trkpt lat="25.356947" lon="100.871604">
<time>2016-04-06T12:34:46Z</time></trkpt>
<trkpt lat="25.357027" lon="100.871424">
<time>2016-04-06T12:34:47Z</time></trkpt>
<trkpt lat="25.357107" lon="100.871243">
<time>2016-04-06T12:34:48Z</time></trkpt>
<trkpt lat="25.357187" lon="100.871053">
<time>2016-04-06T12:34:49Z</time></trkpt>
<trkpt lat="25.357277" lon="100.870863">
<time>2016-04-06T12:34:50Z</time></trkpt>
<trkpt lat="25.357416" lon="100.870703">
<time>2016-04-06T12:34:51Z</time></trkpt>
<trkpt lat="25.357576" lon="100.870553">
<time>2016-04-06T12:34:52Z</time></trkpt>
<trkpt lat="25.357746" lon="100.870393">
<time>2016-04-06T12:34:53Z</time></trkpt>
<trkpt lat="25.357916" lon="100.870233">
<time>2016-04-06T12:34:54Z</time></trkpt>
<trkpt lat="25.358086" lon="100.870073">
<time>2016-04-06T12:34:55Z</time></trkpt>
<trkpt lat="25.358276" lon="100.869932">
<time>2016-04-06T12:34:56Z</time></trkpt>
<trkpt lat="25.358485" lon="100.869812">
<time>2016-04-06T12:34:57Z</time></trkpt>
<trkpt lat="25.358685" lon="100.869682">
<time>2016-04-06T12:34:58Z</time></trkpt>
<trkpt lat="25.358875" lon="100.869562">
<time>2016-04-06T12:34:59Z</time></trkpt>
<trkpt lat="25.359075" lon="100.869442">
<time>2016-04-06T12:35:00Z</time></trkpt>
<trkpt lat="25.359275" lon="100.869362">
<time>2016-04-06T12:35:01Z</time></trkpt>
<trkpt lat="25.359485" lon="100.869322">
<time>2016-04-06T12:35:02Z</time></trkpt>
<trkpt lat="25.359715" lon="100.869322">
<time>2016-04-06T12:35:03Z</time></trkpt>
<trkpt lat="25.359925" lon="100.869322">
<time>2016-04-06T12:35:04Z</time></trkpt>
<trkpt lat="25.360125" lon="100.869272">
<time>2016-04-06T12:35:05Z</time></trkpt>
<trkpt lat="25.360265" lon="100.869132">
<time>2016-04-06T12:35:06Z</time></trkpt>
<trkpt lat="25.360325" lon="100.868942">
<time>2016-04-06T12:35:07Z</time></trkpt>
<trkpt lat="25.360334" lon="100.868731">
<time>2016-04-06T12:35:08Z</time></trkpt>
<trkpt lat="25.360364" lon="100.868521">
<time>2016-04-06T12:35:09Z</time></trkpt>
<trkpt lat="25.360424" lon="100.868331">
<time>2016-04-06T12:35:10Z</time></trkpt>
<trkpt lat="25.360504" lon="100.868141">
<time>2016-04-06T12:35:11Z</time></trkpt>
<trkpt lat="25.360593" lon="100.867951">
<time>2016-04-06T12:35:12Z</time></trkpt>
<trkpt lat="25.360683" lon="100.867751">
<time>2016-04-06T12:35:13Z</time></trkpt>
<trkpt lat="25.360753" lon="100.86753">
<time>2016-04-06T12:35:14Z</time></trkpt>
<trkpt lat="25.360833" lon="100.86736">
<time>2016-04-06T12:35:15Z</time></trkpt>
<trkpt lat="25.360942" lon="100.86712">
<time>2016-04-06T12:35:16Z</time></trkpt>
<trkpt lat="25.361042" lon="100.86691">
<time>2016-04-06T12:35:17Z</time></trkpt>
<trkpt lat="25.361152" lon="100.86669">
<time>2016-04-06T12:35:18Z</time></trkpt>
<trkpt lat="25.361252" lon="100.86647">
<time>2016-04-06T12:35:19Z</time></trkpt>
<trkpt lat="25.361361" lon="100.866249">
<time>2016-04-06T12:35:20Z</time></trkpt>
<trkpt lat="25.361441" lon="100.865999">
<time>2016-04-06T12:35:21Z</time></trkpt>
<trkpt lat="25.361491" lon="100.865809">
<time>2016-04-06T12:35:22Z</time></trkpt>
<trkpt lat="25.361501" lon="100.865739">
<time>2016-04-06T12:35:23Z</time></trkpt>
<trkpt lat="25.36153" lon="100.865469">
<time>2016-04-06T12:35:24Z</time></trkpt>
<trkpt lat="25.36154" lon="100.865188">
<time>2016-04-06T12:35:25Z</time></trkpt>
<trkpt lat="25.36157" lon="100.864898">
<time>2016-04-06T12:35:26Z</time></trkpt>
<trkpt lat="25.361579" lon="100.864608">
<time>2016-04-06T12:35:27Z</time></trkpt>
<trkpt lat="25.361599" lon="100.864308">
<time>2016-04-06T12:35:28Z</time></trkpt>
<trkpt lat="25.361609" lon="100.864067">
<time>2016-04-06T12:35:29Z</time></trkpt>
<trkpt lat="25.361648" lon="100.863837">
<time>2016-04-06T12:35:30Z</time></trkpt>
<trkpt lat="25.361648" lon="100.863617">
<time>2016-04-06T12:35:31Z</time></trkpt>
<trkpt lat="25.361618" lon="100.863387">
<time>2016-04-06T12:35:32Z</time></trkpt>
<trkpt lat="25.361627" lon="100.863127">
<time>2016-04-06T12:35:33Z</time></trkpt>
<trkpt lat="25.361637" lon="100.862856">
<time>2016-04-06T12:35:34Z</time></trkpt>
<trkpt lat="25.361666" lon="100.862556">
<time>2016-04-06T12:35:35Z</time></trkpt>
<trkpt lat="25.361706" lon="100.862276">
<time>2016-04-06T12:35:36Z</time></trkpt>
<trkpt lat="25.361726" lon="100.862005">
<time>2016-04-06T12:35:37Z</time></trkpt>
<trkpt lat="25.361726" lon="100.861945">
<time>2016-04-06T12:35:38Z</time></trkpt>
<trkpt lat="25.361795" lon="100.861625">
<time>2016-04-06T12:35:39Z</time></trkpt>
<trkpt lat="25.361815" lon="100.861315">
<time>2016-04-06T12:35:40Z</time></trkpt>
<trkpt lat="25.361824" lon="100.861034">
<time>2016-04-06T12:35:41Z</time></trkpt>
<trkpt lat="25.361854" lon="100.860774">
<time>2016-04-06T12:35:42Z</time></trkpt>
<trkpt lat="25.361874" lon="100.860524">
<time>2016-04-06T12:35:43Z</time></trkpt>
<trkpt lat="25.361893" lon="100.860264">
<time>2016-04-06T12:35:44Z</time></trkpt>
<trkpt lat="25.361913" lon="100.860003">
<time>2016-04-06T12:35:45Z</time></trkpt>
<trkpt lat="25.361922" lon="100.859743">
<time>2016-04-06T12:35:46Z</time></trkpt>
<trkpt lat="25.361932" lon="100.859483">
<time>2016-04-06T12:35:47Z</time></trkpt>
<trkpt lat="25.361952" lon="100.859233">
<time>2016-04-06T12:35:48Z</time></trkpt>
<trkpt lat="25.361961" lon="100.858972">
<time>2016-04-06T12:35:49Z</time></trkpt>
<trkpt lat="25.361981" lon="100.858722">
<time>2016-04-06T12:35:50Z</time></trkpt>
<trkpt lat="25.361991" lon="100.858462">
<time>2016-04-06T12:35:51Z</time></trkpt>
<trkpt lat="25.362" lon="100.858211">
<time>2016-04-06T12:35:52Z</time></trkpt>
<trkpt lat="25.36204" lon="100.857941">
<time>2016-04-06T12:35:53Z</time></trkpt>
<trkpt lat="25.362079" lon="100.857681">
<time>2016-04-06T12:35:54Z</time></trkpt>
<trkpt lat="25.362129" lon="100.857451">
<time>2016-04-06T12:35:55Z</time></trkpt>
<trkpt lat="25.362209" lon="100.8572">
<time>2016-04-06T12:35:56Z</time></trkpt>
<trkpt lat="25.362288" lon="100.85695">
<time>2016-04-06T12:35:57Z</time></trkpt>
<trkpt lat="25.362368" lon="100.85672">
<time>2016-04-06T12:35:58Z</time></trkpt>
<trkpt lat="25.362458" lon="100.85649">
<time>2016-04-06T12:35:59Z</time></trkpt>
<trkpt lat="25.362517" lon="100.856319">
<time>2016-04-06T12:36:00Z</time></trkpt>
<trkpt lat="25.362537" lon="100.856259">
<time>2016-04-06T12:36:01Z</time></trkpt>
<trkpt lat="25.362617" lon="100.856029">
<time>2016-04-06T12:36:02Z</time></trkpt>
<trkpt lat="25.362697" lon="100.855809">
<time>2016-04-06T12:36:03Z</time></trkpt>
<trkpt lat="25.362786" lon="100.855599">
<time>2016-04-06T12:36:04Z</time></trkpt>
<trkpt lat="25.362896" lon="100.855378">
<time>2016-04-06T12:36:05Z</time></trkpt>
<trkpt lat="25.363016" lon="100.855178">
<time>2016-04-06T12:36:06Z</time></trkpt>
<trkpt lat="25.363155" lon="100.854978">
<time>2016-04-06T12:36:07Z</time></trkpt>
<trkpt lat="25.363285" lon="100.854768">
<time>2016-04-06T12:36:08Z</time></trkpt>
<trkpt lat="25.363435" lon="100.854567">
<time>2016-04-06T12:36:09Z</time></trkpt>
<trkpt lat="25.363564" lon="100.854397">
<time>2016-04-06T12:36:10Z</time></trkpt>
<trkpt lat="25.363674" lon="100.854237">
<time>2016-04-06T12:36:11Z</time></trkpt>
<trkpt lat="25.363774" lon="100.854087">
<time>2016-04-06T12:36:12Z</time></trkpt>
<trkpt lat="25.363874" lon="100.853947">
<time>2016-04-06T12:36:13Z</time></trkpt>
<trkpt lat="25.363994" lon="100.853836">
<time>2016-04-06T12:36:14Z</time></trkpt>
<trkpt lat="25.364123" lon="100.853726">
<time>2016-04-06T12:36:15Z</time></trkpt>
<trkpt lat="25.364273" lon="100.853646">
<time>2016-04-06T12:36:16Z</time></trkpt>
<trkpt lat="25.364433" lon="100.853586">
<time>2016-04-06T12:36:17Z</time></trkpt>
<trkpt lat="25.364593" lon="100.853536">
<time>2016-04-06T12:36:18Z</time></trkpt>
<trkpt lat="25.364753" lon="100.853486">
<time>2016-04-06T12:36:19Z</time></trkpt>
<trkpt lat="25.364903" lon="100.853416">
<time>2016-04-06T12:36:20Z</time></trkpt>
<trkpt lat="25.365063" lon="100.853356">
<time>2016-04-06T12:36:21Z</time></trkpt>
<trkpt lat="25.365223" lon="100.853276">
<time>2016-04-06T12:36:22Z</time></trkpt>
<trkpt lat="25.365363" lon="100.853196">
<time>2016-04-06T12:36:23Z</time></trkpt>
<trkpt lat="25.365493" lon="100.853125">
<time>2016-04-06T12:36:24Z</time></trkpt>
<trkpt lat="25.365633" lon="100.853055">
<time>2016-04-06T12:36:25Z</time></trkpt>
<trkpt lat="25.365772" lon="100.852965">
<time>2016-04-06T12:36:26Z</time></trkpt>
<trkpt lat="25.365902" lon="100.852875">
<time>2016-04-06T12:36:27Z</time></trkpt>
<trkpt lat="25.366052" lon="100.852815">
<time>2016-04-06T12:36:28Z</time></trkpt>
<trkpt lat="25.366222" lon="100.852775">
<time>2016-04-06T12:36:29Z</time></trkpt>
<trkpt lat="25.366422" lon="100.852755">
<time>2016-04-06T12:36:30Z</time></trkpt>
<trkpt lat="25.366602" lon="100.852715">
<time>2016-04-06T12:36:31Z</time></trkpt>
<trkpt lat="25.366772" lon="100.852655">
<time>2016-04-06T12:36:32Z</time></trkpt>
<trkpt lat="25.366932" lon="100.852575">
<time>2016-04-06T12:36:33Z</time></trkpt>
<trkpt lat="25.367062" lon="100.852465">
<time>2016-04-06T12:36:34Z</time></trkpt>
<trkpt lat="25.367132" lon="100.852314">
<time>2016-04-06T12:36:35Z</time></trkpt>
<trkpt lat="25.367261" lon="100.852194">
<time>2016-04-06T12:36:36Z</time></trkpt>
<trkpt lat="25.367391" lon="100.852104">
<time>2016-04-06T12:36:37Z</time></trkpt>
<trkpt lat="25.367541" lon="100.852034">
<time>2016-04-06T12:36:38Z</time></trkpt>
<trkpt lat="25.367711" lon="100.852004">
<time>2016-04-06T12:36:39Z</time></trkpt>
<trkpt lat="25.367891" lon="100.852024">
<time>2016-04-06T12:36:40Z</time></trkpt>
<trkpt lat="25.368061" lon="100.852044">
<time>2016-04-06T12:36:41Z</time></trkpt>
<trkpt lat="25.368241" lon="100.852044">
<time>2016-04-06T12:36:42Z</time></trkpt>
<trkpt lat="25.368421" lon="100.852024">
<time>2016-04-06T12:36:43Z</time></trkpt>
<trkpt lat="25.368591" lon="100.851974">
<time>2016-04-06T12:36:44Z</time></trkpt>
<trkpt lat="25.368751" lon="100.851894">
<time>2016-04-06T12:36:45Z</time></trkpt>
<trkpt lat="25.368901" lon="100.851804">
<time>2016-04-06T12:36:46Z</time></trkpt>
<trkpt lat="25.369041" lon="100.851694">
<time>2016-04-06T12:36:47Z</time></trkpt>
<trkpt lat="25.369161" lon="100.851553">
<time>2016-04-06T12:36:48Z</time></trkpt>
<trkpt lat="25.36926" lon="100.851393">
<time>2016-04-06T12:36:49Z</time></trkpt>
<trkpt lat="25.36935" lon="100.851203">
<time>2016-04-06T12:36:50Z</time></trkpt>
<trkpt lat="25.36941" lon="100.851013">
<time>2016-04-06T12:36:51Z</time></trkpt>
<trkpt lat="25.36947" lon="100.850843">
<time>2016-04-06T12:36:52Z</time></trkpt>
<trkpt lat="25.369529" lon="100.850672">
<time>2016-04-06T12:36:53Z</time></trkpt>
<trkpt lat="25.369649" lon="100.850392">
<time>2016-04-06T12:36:54Z</time></trkpt>
<trkpt lat="25.369708" lon="100.850192">
<time>2016-04-06T12:36:55Z</time></trkpt>
<trkpt lat="25.369768" lon="100.850001">
<time>2016-04-06T12:36:56Z</time></trkpt>
<trkpt lat="25.369828" lon="100.849831">
<time>2016-04-06T12:36:57Z</time></trkpt>
<trkpt lat="25.369908" lon="100.849671">
<time>2016-04-06T12:36:58Z</time></trkpt>
<trkpt lat="25.370017" lon="100.849541">
<time>2016-04-06T12:36:59Z</time></trkpt>
<trkpt lat="25.370147" lon="100.849441">
<time>2016-04-06T12:37:00Z</time></trkpt>
<trkpt lat="25.370317" lon="100.849401">
<time>2016-04-06T12:37:01Z</time></trkpt>
<trkpt lat="25.370487" lon="100.849401">
<time>2016-04-06T12:37:02Z</time></trkpt>
<trkpt lat="25.370667" lon="100.849411">
<time>2016-04-06T12:37:03Z</time></trkpt>
<trkpt lat="25.370837" lon="100.849431">
<time>2016-04-06T12:37:04Z</time></trkpt>
<trkpt lat="25.370997" lon="100.849431">
<time>2016-04-06T12:37:05Z</time></trkpt>
<trkpt lat="25.371157" lon="100.849421">
<time>2016-04-06T12:37:06Z</time></trkpt>
<trkpt lat="25.371317" lon="100.849381">
<time>2016-04-06T12:37:07Z</time></trkpt>
<trkpt lat="25.371457" lon="100.84929">
<time>2016-04-06T12:37:08Z</time></trkpt>
<trkpt lat="25.371597" lon="100.84917">
<time>2016-04-06T12:37:09Z</time></trkpt>
<trkpt lat="25.371717" lon="100.84901">
<time>2016-04-06T12:37:10Z</time></trkpt>
<trkpt lat="25.371857" lon="100.84884">
<time>2016-04-06T12:37:11Z</time></trkpt>
<trkpt lat="25.372006" lon="100.84867">
<time>2016-04-06T12:37:12Z</time></trkpt>
<trkpt lat="25.372166" lon="100.848519">
<time>2016-04-06T12:37:13Z</time></trkpt>
<trkpt lat="25.372356" lon="100.848399">
<time>2016-04-06T12:37:14Z</time></trkpt>
<trkpt lat="25.372576" lon="100.848329">
<time>2016-04-06T12:37:15Z</time></trkpt>
<trkpt lat="25.372806" lon="100.848299">
<time>2016-04-06T12:37:16Z</time></trkpt>
<trkpt lat="25.373036" lon="100.848289">
<time>2016-04-06T12:37:17Z</time></trkpt>
<trkpt lat="25.373266" lon="100.848269">
<time>2016-04-06T12:37:18Z</time></trkpt>
<trkpt lat="25.373486" lon="100.848299">
<time>2016-04-06T12:37:19Z</time></trkpt>
<trkpt lat="25.373706" lon="100.848399">
<time>2016-04-06T12:37:20Z</time></trkpt>
<trkpt lat="25.373906" lon="100.848549">
<time>2016-04-06T12:37:21Z</time></trkpt>
<trkpt lat="25.374127" lon="100.84871">
<time>2016-04-06T12:37:22Z</time></trkpt>
<trkpt lat="25.374337" lon="100.84887">
<time>2016-04-06T12:37:23Z</time></trkpt>
<trkpt lat="25.374547" lon="100.84902">
<time>2016-04-06T12:37:24Z</time></trkpt>
<trkpt lat="25.374577" lon="100.84903">
<time>2016-04-06T12:37:25Z</time></trkpt>
<trkpt lat="25.374758" lon="100.84916">
<time>2016-04-06T12:37:26Z</time></trkpt>
<trkpt lat="25.374988" lon="100.84924">
<time>2016-04-06T12:37:27Z</time></trkpt>
<trkpt lat="25.375228" lon="100.84926">
<time>2016-04-06T12:37:28Z</time></trkpt>
<trkpt lat="25.375438" lon="100.84927">
<time>2016-04-06T12:37:29Z</time></trkpt>
<trkpt lat="25.375458" lon="100.84927">
<time>2016-04-06T12:37:30Z</time></trkpt>
<trkpt lat="25.375698" lon="100.84925">
<time>2016-04-06T12:37:31Z</time></trkpt>
<trkpt lat="25.375938" lon="100.8492">
<time>2016-04-06T12:37:32Z</time></trkpt>
<trkpt lat="25.376168" lon="100.84908">
<time>2016-04-06T12:37:33Z</time></trkpt>
<trkpt lat="25.376418" lon="100.84899">
<time>2016-04-06T12:37:34Z</time></trkpt>
<trkpt lat="25.376677" lon="100.84881">
<time>2016-04-06T12:37:35Z</time></trkpt>
<trkpt lat="25.376937" lon="100.84865">
<time>2016-04-06T12:37:36Z</time></trkpt>
<trkpt lat="25.377157" lon="100.848479">
<time>2016-04-06T12:37:37Z</time></trkpt>
<trkpt lat="25.377377" lon="100.848299">
<time>2016-04-06T12:37:38Z</time></trkpt>
<trkpt lat="25.377556" lon="100.848159">
<time>2016-04-06T12:37:39Z</time></trkpt>
<trkpt lat="25.377796" lon="100.847989">
<time>2016-04-06T12:37:40Z</time></trkpt>
<trkpt lat="25.378146" lon="100.847848">
<time>2016-04-06T12:37:41Z</time></trkpt>
<trkpt lat="25.378386" lon="100.847728">
<time>2016-04-06T12:37:42Z</time></trkpt>
<trkpt lat="25.378626" lon="100.847648">
<time>2016-04-06T12:37:43Z</time></trkpt>
<trkpt lat="25.378866" lon="100.847588">
<time>2016-04-06T12:37:44Z</time></trkpt>
<trkpt lat="25.379075" lon="100.847538">
<time>2016-04-06T12:37:45Z</time></trkpt>
<trkpt lat="25.379195" lon="100.847518">
<time>2016-04-06T12:37:46Z</time></trkpt>
<trkpt lat="25.379275" lon="100.847488">
<time>2016-04-06T12:37:47Z</time></trkpt>
<trkpt lat="25.379395" lon="100.847438">
<time>2016-04-06T12:37:48Z</time></trkpt>
<trkpt lat="25.379535" lon="100.847388">
<time>2016-04-06T12:37:49Z</time></trkpt>
<trkpt lat="25.379705" lon="100.847328">
<time>2016-04-06T12:37:50Z</time></trkpt>
<trkpt lat="25.379885" lon="100.847268">
<time>2016-04-06T12:37:51Z</time></trkpt>
<trkpt lat="25.380065" lon="100.847208">
<time>2016-04-06T12:37:52Z</time></trkpt>
<trkpt lat="25.380255" lon="100.847087">
<time>2016-04-06T12:37:53Z</time></trkpt>
<trkpt lat="25.380445" lon="100.846977">
<time>2016-04-06T12:37:54Z</time></trkpt>
<trkpt lat="25.380655" lon="100.846877">
<time>2016-04-06T12:37:55Z</time></trkpt>
<trkpt lat="25.380854" lon="100.846767">
<time>2016-04-06T12:37:56Z</time></trkpt>
<trkpt lat="25.381054" lon="100.846597">
<time>2016-04-06T12:37:57Z</time></trkpt>
<trkpt lat="25.381264" lon="100.846416">
<time>2016-04-06T12:37:58Z</time></trkpt>
<trkpt lat="25.381454" lon="100.846286">
<time>2016-04-06T12:37:59Z</time></trkpt>
<trkpt lat="25.381464" lon="100.846276">
<time>2016-04-06T12:38:00Z</time></trkpt>
<trkpt lat="25.381683" lon="100.846106">
<time>2016-04-06T12:38:01Z</time></trkpt>
<trkpt lat="25.381763" lon="100.846026">
<time>2016-04-06T12:38:02Z</time></trkpt>
<trkpt lat="25.381883" lon="100.845926">
<time>2016-04-06T12:38:03Z</time></trkpt>
<trkpt lat="25.382133" lon="100.845756">
<time>2016-04-06T12:38:04Z</time></trkpt>
<trkpt lat="25.382393" lon="100.845535">
<time>2016-04-06T12:38:05Z</time></trkpt>
<trkpt lat="25.382612" lon="100.845375">
<time>2016-04-06T12:38:06Z</time></trkpt>
<trkpt lat="25.382822" lon="100.845225">
<time>2016-04-06T12:38:07Z</time></trkpt>
<trkpt lat="25.383042" lon="100.845075">
<time>2016-04-06T12:38:08Z</time></trkpt>
<trkpt lat="25.383232" lon="100.844954">
<time>2016-04-06T12:38:09Z</time></trkpt>
<trkpt lat="25.383392" lon="100.844864">
<time>2016-04-06T12:38:10Z</time></trkpt>
<trkpt lat="25.383571" lon="100.844754">
<time>2016-04-06T12:38:11Z</time></trkpt>
<trkpt lat="25.383781" lon="100.844714">
<time>2016-04-06T12:38:12Z</time></trkpt>
<trkpt lat="25.383971" lon="100.844724">
<time>2016-04-06T12:38:13Z</time></trkpt>
<trkpt lat="25.384191" lon="100.844734">
<time>2016-04-06T12:38:14Z</time></trkpt>
<trkpt lat="25.384351" lon="100.844704">
<time>2016-04-06T12:38:15Z</time></trkpt>
<trkpt lat="25.384491" lon="100.844634">
<time>2016-04-06T12:38:16Z</time></trkpt>
<trkpt lat="25.384601" lon="100.844514">
<time>2016-04-06T12:38:17Z</time></trkpt>
<trkpt lat="25.384681" lon="100.844354">
<time>2016-04-06T12:38:18Z</time></trkpt>
<trkpt lat="25.384731" lon="100.844183">
<time>2016-04-06T12:38:19Z</time></trkpt>
<trkpt lat="25.38477" lon="100.843993">
<time>2016-04-06T12:38:20Z</time></trkpt>
<trkpt lat="25.38485" lon="100.843783">
<time>2016-04-06T12:38:21Z</time></trkpt>
<trkpt lat="25.38496" lon="100.843643">
<time>2016-04-06T12:38:22Z</time></trkpt>
<trkpt lat="25.385069" lon="100.843472">
<time>2016-04-06T12:38:23Z</time></trkpt>
<trkpt lat="25.385179" lon="100.843322">
<time>2016-04-06T12:38:24Z</time></trkpt>
<trkpt lat="25.385259" lon="100.843162">
<time>2016-04-06T12:38:25Z</time></trkpt>
<trkpt lat="25.385358" lon="100.842881">
<time>2016-04-06T12:38:26Z</time></trkpt>
<trkpt lat="25.385418" lon="100.842681">
<time>2016-04-06T12:38:27Z</time></trkpt>
<trkpt lat="25.385438" lon="100.842561">
<time>2016-04-06T12:38:28Z</time></trkpt>
<trkpt lat="25.385397" lon="100.842391">
<time>2016-04-06T12:38:29Z</time></trkpt>
<trkpt lat="25.385317" lon="100.842271">
<time>2016-04-06T12:38:30Z</time></trkpt>
<trkpt lat="25.385197" lon="100.84217">
<time>2016-04-06T12:38:31Z</time></trkpt>
<trkpt lat="25.385077" lon="100.84204">
<time>2016-04-06T12:38:32Z</time></trkpt>
<trkpt lat="25.385006" lon="100.84186">
<time>2016-04-06T12:38:33Z</time></trkpt>
<trkpt lat="25.384976" lon="100.84163">
<time>2016-04-06T12:38:34Z</time></trkpt>
<trkpt lat="25.384946" lon="100.841419">
<time>2016-04-06T12:38:35Z</time></trkpt>
<trkpt lat="25.384925" lon="100.841209">
<time>2016-04-06T12:38:36Z</time></trkpt>
<trkpt lat="25.384925" lon="100.840999">
<time>2016-04-06T12:38:37Z</time></trkpt>
<trkpt lat="25.384954" lon="100.840748">
<time>2016-04-06T12:38:38Z</time></trkpt>
<trkpt lat="25.385004" lon="100.840498">
<time>2016-04-06T12:38:39Z</time></trkpt>
<trkpt lat="25.385034" lon="100.840238">
<time>2016-04-06T12:38:40Z</time></trkpt>
<trkpt lat="25.385093" lon="100.840017">
<time>2016-04-06T12:38:41Z</time></trkpt>
<trkpt lat="25.385193" lon="100.839757">
<time>2016-04-06T12:38:42Z</time></trkpt>
<trkpt lat="25.385262" lon="100.839507">
<time>2016-04-06T12:38:43Z</time></trkpt>
<trkpt lat="25.385352" lon="100.839266">
<time>2016-04-06T12:38:44Z</time></trkpt>
<trkpt lat="25.385441" lon="100.839066">
<time>2016-04-06T12:38:45Z</time></trkpt>
<trkpt lat="25.385541" lon="100.838906">
<time>2016-04-06T12:38:46Z</time></trkpt>
<trkpt lat="25.385681" lon="100.838735">
<time>2016-04-06T12:38:47Z</time></trkpt>
<trkpt lat="25.385831" lon="100.838605">
<time>2016-04-06T12:38:48Z</time></trkpt>
<trkpt lat="25.38598" lon="100.838485">
<time>2016-04-06T12:38:49Z</time></trkpt>
<trkpt lat="25.38615" lon="100.838385">
<time>2016-04-06T12:38:50Z</time></trkpt>
<trkpt lat="25.38632" lon="100.838305">
<time>2016-04-06T12:38:51Z</time></trkpt>
<trkpt lat="25.38651" lon="100.838235">
<time>2016-04-06T12:38:52Z</time></trkpt>
<trkpt lat="25.38667" lon="100.838135">
<time>2016-04-06T12:38:53Z</time></trkpt>
<trkpt lat="25.38684" lon="100.838004">
<time>2016-04-06T12:38:54Z</time></trkpt>
<trkpt lat="25.38699" lon="100.837864">
<time>2016-04-06T12:38:55Z</time></trkpt>
<trkpt lat="25.387119" lon="100.837724">
<time>2016-04-06T12:38:56Z</time></trkpt>
<trkpt lat="25.387209" lon="100.837644">
<time>2016-04-06T12:38:57Z</time></trkpt>
<trkpt lat="25.387259" lon="100.837594">
<time>2016-04-06T12:38:58Z</time></trkpt>
<trkpt lat="25.387439" lon="100.837514">
<time>2016-04-06T12:38:59Z</time></trkpt>
<trkpt lat="25.387629" lon="100.837494">
<time>2016-04-06T12:39:00Z</time></trkpt>
<trkpt lat="25.387829" lon="100.837544">
<time>2016-04-06T12:39:01Z</time></trkpt>
<trkpt lat="25.387879" lon="100.837564">
<time>2016-04-06T12:39:02Z</time></trkpt>
<trkpt lat="25.388019" lon="100.837604">
<time>2016-04-06T12:39:03Z</time></trkpt>
<trkpt lat="25.388209" lon="100.837654">
<time>2016-04-06T12:39:04Z</time></trkpt>
<trkpt lat="25.388399" lon="100.837664">
<time>2016-04-06T12:39:05Z</time></trkpt>
<trkpt lat="25.388569" lon="100.837634">
<time>2016-04-06T12:39:06Z</time></trkpt>
<trkpt lat="25.388699" lon="100.837554">
<time>2016-04-06T12:39:07Z</time></trkpt>
<trkpt lat="25.388849" lon="100.837423">
<time>2016-04-06T12:39:08Z</time></trkpt>
<trkpt lat="25.388999" lon="100.837303">
<time>2016-04-06T12:39:09Z</time></trkpt>
<trkpt lat="25.389159" lon="100.837173">
<time>2016-04-06T12:39:10Z</time></trkpt>
<trkpt lat="25.389308" lon="100.837083">
<time>2016-04-06T12:39:11Z</time></trkpt>
<trkpt lat="25.389438" lon="100.837013">
<time>2016-04-06T12:39:12Z</time></trkpt>
<trkpt lat="25.389558" lon="100.836983">
<time>2016-04-06T12:39:13Z</time></trkpt>
<trkpt lat="25.389738" lon="100.836883">
<time>2016-04-06T12:39:14Z</time></trkpt>
<trkpt lat="25.389848" lon="100.836883">
<time>2016-04-06T12:39:15Z</time></trkpt>
<trkpt lat="25.389948" lon="100.836873">
<time>2016-04-06T12:39:16Z</time></trkpt>
<trkpt lat="25.390088" lon="100.836883">
<time>2016-04-06T12:39:17Z</time></trkpt>
<trkpt lat="25.390188" lon="100.836923">
<time>2016-04-06T12:39:18Z</time></trkpt>
<trkpt lat="25.390309" lon="100.837013">
<time>2016-04-06T12:39:19Z</time></trkpt>
<trkpt lat="25.390389" lon="100.837043">
<time>2016-04-06T12:39:20Z</time></trkpt>
<trkpt lat="25.390519" lon="100.837043">
<time>2016-04-06T12:39:21Z</time></trkpt>
<trkpt lat="25.390619" lon="100.837023">
<time>2016-04-06T12:39:22Z</time></trkpt>
<trkpt lat="25.390709" lon="100.836983">
<time>2016-04-06T12:39:23Z</time></trkpt>
<trkpt lat="25.390798" lon="100.836953">
<time>2016-04-06T12:39:24Z</time></trkpt>
<trkpt lat="25.390918" lon="100.836903">
<time>2016-04-06T12:39:25Z</time></trkpt>
<trkpt lat="25.391058" lon="100.836883">
<time>2016-04-06T12:39:26Z</time></trkpt>
<trkpt lat="25.391188" lon="100.836883">
<time>2016-04-06T12:39:27Z</time></trkpt>
<trkpt lat="25.391349" lon="100.836903">
<time>2016-04-06T12:39:28Z</time></trkpt>
<trkpt lat="25.391529" lon="100.836923">
<time>2016-04-06T12:39:29Z</time></trkpt>
<trkpt lat="25.391699" lon="100.836883">
<time>2016-04-06T12:39:30Z</time></trkpt>
<trkpt lat="25.391899" lon="100.836863">
<time>2016-04-06T12:39:31Z</time></trkpt>
<trkpt lat="25.392099" lon="100.836833">
<time>2016-04-06T12:39:32Z</time></trkpt>
<trkpt lat="25.392288" lon="100.836772">
<time>2016-04-06T12:39:33Z</time></trkpt>
<trkpt lat="25.392488" lon="100.836682">
<time>2016-04-06T12:39:34Z</time></trkpt>
<trkpt lat="25.392668" lon="100.836562">
<time>2016-04-06T12:39:35Z</time></trkpt>
<trkpt lat="25.392828" lon="100.836442">
<time>2016-04-06T12:39:36Z</time></trkpt>
<trkpt lat="25.393008" lon="100.836312">
<time>2016-04-06T12:39:37Z</time></trkpt>
<trkpt lat="25.393168" lon="100.836252">
<time>2016-04-06T12:39:38Z</time></trkpt>
<trkpt lat="25.393308" lon="100.836222">
<time>2016-04-06T12:39:39Z</time></trkpt>
<trkpt lat="25.393438" lon="100.836292">
<time>2016-04-06T12:39:40Z</time></trkpt>
<trkpt lat="25.393508" lon="100.836432">
<time>2016-04-06T12:39:41Z</time></trkpt>
<trkpt lat="25.393528" lon="100.836602">
<time>2016-04-06T12:39:42Z</time></trkpt>
<trkpt lat="25.393449" lon="100.836863">
<time>2016-04-06T12:39:43Z</time></trkpt>
<trkpt lat="25.393379" lon="100.837123">
<time>2016-04-06T12:39:44Z</time></trkpt>
<trkpt lat="25.39326" lon="100.837413">
<time>2016-04-06T12:39:45Z</time></trkpt>
<trkpt lat="25.39318" lon="100.837584">
<time>2016-04-06T12:39:46Z</time></trkpt>
<trkpt lat="25.39314" lon="100.837724">
<time>2016-04-06T12:39:47Z</time></trkpt>
<trkpt lat="25.393171" lon="100.837914">
<time>2016-04-06T12:39:48Z</time></trkpt>
<trkpt lat="25.393241" lon="100.837994">
<time>2016-04-06T12:39:49Z</time></trkpt>
<trkpt lat="25.393391" lon="100.838074">
<time>2016-04-06T12:39:50Z</time></trkpt>
<trkpt lat="25.393521" lon="100.838164">
<time>2016-04-06T12:39:51Z</time></trkpt>
<trkpt lat="25.393681" lon="100.838154">
<time>2016-04-06T12:39:52Z</time></trkpt>
<trkpt lat="25.393841" lon="100.838044">
<time>2016-04-06T12:39:53Z</time></trkpt>
<trkpt lat="25.394011" lon="100.837904">
<time>2016-04-06T12:39:54Z</time></trkpt>
<trkpt lat="25.394181" lon="100.837734">
<time>2016-04-06T12:39:55Z</time></trkpt>
<trkpt lat="25.39436" lon="100.837574">
<time>2016-04-06T12:39:56Z</time></trkpt>
<trkpt lat="25.39453" lon="100.837453">
<time>2016-04-06T12:39:57Z</time></trkpt>
<trkpt lat="25.39471" lon="100.837443">
<time>2016-04-06T12:39:58Z</time></trkpt>
<trkpt lat="25.39491" lon="100.837493">
<time>2016-04-06T12:39:59Z</time></trkpt>
<trkpt lat="25.3951" lon="100.837594">
<time>2016-04-06T12:40:00Z</time></trkpt>
<trkpt lat="25.395311" lon="100.837704">
<time>2016-04-06T12:40:01Z</time></trkpt>
<trkpt lat="25.395501" lon="100.837874">
<time>2016-04-06T12:40:02Z</time></trkpt>
<trkpt lat="25.395731" lon="100.838034">
<time>2016-04-06T12:40:03Z</time></trkpt>
<trkpt lat="25.395982" lon="100.838194">
<time>2016-04-06T12:40:04Z</time></trkpt>
<trkpt lat="25.396212" lon="100.838295">
<time>2016-04-06T12:40:05Z</time></trkpt>
<trkpt lat="25.396452" lon="100.838325">
<time>2016-04-06T12:40:06Z</time></trkpt>
<trkpt lat="25.396552" lon="100.838325">
<time>2016-04-06T12:40:07Z</time></trkpt>
<trkpt lat="25.396712" lon="100.838295">
<time>2016-04-06T12:40:08Z</time></trkpt>
<trkpt lat="25.396812" lon="100.838204">
<time>2016-04-06T12:40:09Z</time></trkpt>
<trkpt lat="25.396872" lon="100.838064">
<time>2016-04-06T12:40:10Z</time></trkpt>
<trkpt lat="25.396851" lon="100.837884">
<time>2016-04-06T12:40:11Z</time></trkpt>
<trkpt lat="25.396791" lon="100.837714">
<time>2016-04-06T12:40:12Z</time></trkpt>
<trkpt lat="25.396701" lon="100.837553">
<time>2016-04-06T12:40:13Z</time></trkpt>
<trkpt lat="25.39661" lon="100.837383">
<time>2016-04-06T12:40:14Z</time></trkpt>
<trkpt lat="25.39651" lon="100.837263">
<time>2016-04-06T12:40:15Z</time></trkpt>
<trkpt lat="25.39639" lon="100.837143">
<time>2016-04-06T12:40:16Z</time></trkpt>
<trkpt lat="25.39631" lon="100.836983">
<time>2016-04-06T12:40:17Z</time></trkpt>
<trkpt lat="25.396259" lon="100.836822">
<time>2016-04-06T12:40:18Z</time></trkpt>
<trkpt lat="25.396229" lon="100.836632">
<time>2016-04-06T12:40:19Z</time></trkpt>
<trkpt lat="25.396219" lon="100.836432">
<time>2016-04-06T12:40:20Z</time></trkpt>
<trkpt lat="25.396198" lon="100.836211">
<time>2016-04-06T12:40:21Z</time></trkpt>
<trkpt lat="25.396178" lon="100.836001">
<time>2016-04-06T12:40:22Z</time></trkpt>
<trkpt lat="25.396167" lon="100.835801">
<time>2016-04-06T12:40:23Z</time></trkpt>
<trkpt lat="25.396147" lon="100.835581">
<time>2016-04-06T12:40:24Z</time></trkpt>
<trkpt lat="25.396126" lon="100.83535">
<time>2016-04-06T12:40:25Z</time></trkpt>
<trkpt lat="25.396106" lon="100.83512">
<time>2016-04-06T12:40:26Z</time></trkpt>
<trkpt lat="25.396086" lon="100.834869">
<time>2016-04-06T12:40:27Z</time></trkpt>
<trkpt lat="25.396065" lon="100.834639">
<time>2016-04-06T12:40:28Z</time></trkpt>
<trkpt lat="25.396075" lon="100.834419">
<time>2016-04-06T12:40:29Z</time></trkpt>
<trkpt lat="25.396144" lon="100.834208">
<time>2016-04-06T12:40:30Z</time></trkpt>
<trkpt lat="25.396254" lon="100.834018">
<time>2016-04-06T12:40:31Z</time></trkpt>
<trkpt lat="25.396354" lon="100.833828">
<time>2016-04-06T12:40:32Z</time></trkpt>
<trkpt lat="25.396433" lon="100.833628">
<time>2016-04-06T12:40:33Z</time></trkpt>
<trkpt lat="25.396463" lon="100.833427">
<time>2016-04-06T12:40:34Z</time></trkpt>
<trkpt lat="25.396443" lon="100.833227">
<time>2016-04-06T12:40:35Z</time></trkpt>
<trkpt lat="25.396382" lon="100.833067">
<time>2016-04-06T12:40:36Z</time></trkpt>
<trkpt lat="25.396372" lon="100.832886">
<time>2016-04-06T12:40:37Z</time></trkpt>
<trkpt lat="25.396372" lon="100.832686">
<time>2016-04-06T12:40:38Z</time></trkpt>
<trkpt lat="25.396411" lon="100.832466">
<time>2016-04-06T12:40:39Z</time></trkpt>
<trkpt lat="25.396481" lon="100.832236">
<time>2016-04-06T12:40:40Z</time></trkpt>
<trkpt lat="25.39655" lon="100.831985">
<time>2016-04-06T12:40:41Z</time></trkpt>
<trkpt lat="25.39661" lon="100.831725">
<time>2016-04-06T12:40:42Z</time></trkpt>
<trkpt lat="25.396669" lon="100.831464">
<time>2016-04-06T12:40:43Z</time></trkpt>
<trkpt lat="25.396719" lon="100.831204">
<time>2016-04-06T12:40:44Z</time></trkpt>
<trkpt lat="25.396728" lon="100.830964">
<time>2016-04-06T12:40:45Z</time></trkpt>
<trkpt lat="25.396698" lon="100.830713">
<time>2016-04-06T12:40:46Z</time></trkpt>
<trkpt lat="25.396637" lon="100.830453">
<time>2016-04-06T12:40:47Z</time></trkpt>
<trkpt lat="25.396587" lon="100.830192">
<time>2016-04-06T12:40:48Z</time></trkpt>
<trkpt lat="25.396536" lon="100.829942">
<time>2016-04-06T12:40:49Z</time></trkpt>
<trkpt lat="25.396516" lon="100.829662">
<time>2016-04-06T12:40:50Z</time></trkpt>
<trkpt lat="25.396515" lon="100.829391">
<time>2016-04-06T12:40:51Z</time></trkpt>
<trkpt lat="25.396515" lon="100.829141">
<time>2016-04-06T12:40:52Z</time></trkpt>
<trkpt lat="25.396514" lon="100.82888">
<time>2016-04-06T12:40:53Z</time></trkpt>
<trkpt lat="25.396504" lon="100.82863">
<time>2016-04-06T12:40:54Z</time></trkpt>
<trkpt lat="25.396493" lon="100.82838">
<time>2016-04-06T12:40:55Z</time></trkpt>
<trkpt lat="25.396493" lon="100.828119">
<time>2016-04-06T12:40:56Z</time></trkpt>
<trkpt lat="25.396492" lon="100.827859">
<time>2016-04-06T12:40:57Z</time></trkpt>
<trkpt lat="25.396482" lon="100.827598">
<time>2016-04-06T12:40:58Z</time></trkpt>
<trkpt lat="25.396451" lon="100.827328">
<time>2016-04-06T12:40:59Z</time></trkpt>
<trkpt lat="25.396441" lon="100.827068">
<time>2016-04-06T12:41:00Z</time></trkpt>
<trkpt lat="25.396441" lon="100.826817">
<time>2016-04-06T12:41:01Z</time></trkpt>
<trkpt lat="25.39646" lon="100.826587">
<time>2016-04-06T12:41:02Z</time></trkpt>
<trkpt lat="25.3965" lon="100.826417">
<time>2016-04-06T12:41:03Z</time></trkpt>
<trkpt lat="25.396539" lon="100.826236">
<time>2016-04-06T12:41:04Z</time></trkpt>
<trkpt lat="25.396599" lon="100.826056">
<time>2016-04-06T12:41:05Z</time></trkpt>
<trkpt lat="25.396659" lon="100.825846">
<time>2016-04-06T12:41:06Z</time></trkpt>
<trkpt lat="25.396728" lon="100.825635">
<time>2016-04-06T12:41:07Z</time></trkpt>
<trkpt lat="25.396808" lon="100.825425">
<time>2016-04-06T12:41:08Z</time></trkpt>
<trkpt lat="25.396898" lon="100.825205">
<time>2016-04-06T12:41:09Z</time></trkpt>
<trkpt lat="25.396977" lon="100.824984">
<time>2016-04-06T12:41:10Z</time></trkpt>
<trkpt lat="25.397077" lon="100.824754">
<time>2016-04-06T12:41:11Z</time></trkpt>
<trkpt lat="25.397186" lon="100.824524">
<time>2016-04-06T12:41:12Z</time></trkpt>
<trkpt lat="25.397296" lon="100.824273">
<time>2016-04-06T12:41:13Z</time></trkpt>
<trkpt lat="25.397306" lon="100.824243">
<time>2016-04-06T12:41:14Z</time></trkpt>
<trkpt lat="25.397415" lon="100.824023">
<time>2016-04-06T12:41:15Z</time></trkpt>
<trkpt lat="25.397535" lon="100.823793">
<time>2016-04-06T12:41:16Z</time></trkpt>
<trkpt lat="25.397625" lon="100.823532">
<time>2016-04-06T12:41:17Z</time></trkpt>
<trkpt lat="25.397734" lon="100.823292">
<time>2016-04-06T12:41:18Z</time></trkpt>
<trkpt lat="25.397864" lon="100.823051">
<time>2016-04-06T12:41:19Z</time></trkpt>
<trkpt lat="25.398003" lon="100.822811">
<time>2016-04-06T12:41:20Z</time></trkpt>
<trkpt lat="25.398193" lon="100.822631">
<time>2016-04-06T12:41:21Z</time></trkpt>
<trkpt lat="25.398393" lon="100.822521">
<time>2016-04-06T12:41:22Z</time></trkpt>
<trkpt lat="25.398552" lon="100.82235">
<time>2016-04-06T12:41:23Z</time></trkpt>
<trkpt lat="25.398692" lon="100.82214">
<time>2016-04-06T12:41:24Z</time></trkpt>
<trkpt lat="25.398822" lon="100.82192">
<time>2016-04-06T12:41:25Z</time></trkpt>
<trkpt lat="25.398941" lon="100.821699">
<time>2016-04-06T12:41:26Z</time></trkpt>
<trkpt lat="25.399061" lon="100.821479">
<time>2016-04-06T12:41:27Z</time></trkpt>
<trkpt lat="25.399191" lon="100.821259">
<time>2016-04-06T12:41:28Z</time></trkpt>
<trkpt lat="25.39933" lon="100.821028">
<time>2016-04-06T12:41:29Z</time></trkpt>
<trkpt lat="25.39945" lon="100.820818">
<time>2016-04-06T12:41:30Z</time></trkpt>
<trkpt lat="25.399559" lon="100.820608">
<time>2016-04-06T12:41:31Z</time></trkpt>
<trkpt lat="25.399629" lon="100.820407">
<time>2016-04-06T12:41:32Z</time></trkpt>
<trkpt lat="25.399629" lon="100.820197">
<time>2016-04-06T12:41:33Z</time></trkpt>
<trkpt lat="25.399578" lon="100.819987">
<time>2016-04-06T12:41:34Z</time></trkpt>
<trkpt lat="25.399518" lon="100.819817">
<time>2016-04-06T12:41:35Z</time></trkpt>
<trkpt lat="25.399508" lon="100.819656">
<time>2016-04-06T12:41:36Z</time></trkpt>
<trkpt lat="25.399537" lon="100.819506">
<time>2016-04-06T12:41:37Z</time></trkpt>
<trkpt lat="25.399647" lon="100.819436">
<time>2016-04-06T12:41:38Z</time></trkpt>
<trkpt lat="25.399807" lon="100.819336">
<time>2016-04-06T12:41:39Z</time></trkpt>
<trkpt lat="25.399957" lon="100.819306">
<time>2016-04-06T12:41:40Z</time></trkpt>
<trkpt lat="25.400247" lon="100.819306">
<time>2016-04-06T12:41:41Z</time></trkpt>
<trkpt lat="25.400437" lon="100.819206">
<time>2016-04-06T12:41:42Z</time></trkpt>
<trkpt lat="25.400597" lon="100.819015">
<time>2016-04-06T12:41:43Z</time></trkpt>
<trkpt lat="25.400666" lon="100.818795">
<time>2016-04-06T12:41:44Z</time></trkpt>
<trkpt lat="25.400736" lon="100.818625">
<time>2016-04-06T12:41:45Z</time></trkpt>
<trkpt lat="25.400796" lon="100.818495">
<time>2016-04-06T12:41:46Z</time></trkpt>
<trkpt lat="25.400875" lon="100.818364">
<time>2016-04-06T12:41:47Z</time></trkpt>
<trkpt lat="25.400985" lon="100.818224">
<time>2016-04-06T12:41:48Z</time></trkpt>
<trkpt lat="25.401095" lon="100.818084">
<time>2016-04-06T12:41:49Z</time></trkpt>
<trkpt lat="25.401205" lon="100.817934">
<time>2016-04-06T12:41:50Z</time></trkpt>
<trkpt lat="25.401314" lon="100.817763">
<time>2016-04-06T12:41:51Z</time></trkpt>
<trkpt lat="25.401414" lon="100.817563">
<time>2016-04-06T12:41:52Z</time></trkpt>
<trkpt lat="25.401514" lon="100.817323">
<time>2016-04-06T12:41:53Z</time></trkpt>
<trkpt lat="25.401613" lon="100.817062">
<time>2016-04-06T12:41:54Z</time></trkpt>
<trkpt lat="25.401713" lon="100.816802">
<time>2016-04-06T12:41:55Z</time></trkpt>
<trkpt lat="25.401852" lon="100.816522">
<time>2016-04-06T12:41:56Z</time></trkpt>
<trkpt lat="25.402022" lon="100.816261">
<time>2016-04-06T12:41:57Z</time></trkpt>
<trkpt lat="25.402221" lon="100.816011">
<time>2016-04-06T12:41:58Z</time></trkpt>
<trkpt lat="25.402411" lon="100.81578">
<time>2016-04-06T12:41:59Z</time></trkpt>
<trkpt lat="25.402691" lon="100.81562">
<time>2016-04-06T12:42:00Z</time></trkpt>
<trkpt lat="25.40313" lon="100.81538">
<time>2016-04-06T12:42:01Z</time></trkpt>
<trkpt lat="25.40342" lon="100.815149">
<time>2016-04-06T12:42:02Z</time></trkpt>
<trkpt lat="25.403829" lon="100.814729">
<time>2016-04-06T12:42:03Z</time></trkpt>
<trkpt lat="25.404109" lon="100.814338">
<time>2016-04-06T12:42:04Z</time></trkpt>
<trkpt lat="25.404218" lon="100.814108">
<time>2016-04-06T12:42:05Z</time></trkpt>
<trkpt lat="25.404368" lon="100.813898">
<time>2016-04-06T12:42:06Z</time></trkpt>
<trkpt lat="25.404518" lon="100.813697">
<time>2016-04-06T12:42:07Z</time></trkpt>
<trkpt lat="25.404657" lon="100.813537">
<time>2016-04-06T12:42:08Z</time></trkpt>
<trkpt lat="25.404767" lon="100.813347">
<time>2016-04-06T12:42:09Z</time></trkpt>
<trkpt lat="25.404847" lon="100.813157">
<time>2016-04-06T12:42:10Z</time></trkpt>
<trkpt lat="25.404886" lon="100.812926">
<time>2016-04-06T12:42:11Z</time></trkpt>
<trkpt lat="25.404936" lon="100.812686">
<time>2016-04-06T12:42:12Z</time></trkpt>
<trkpt lat="25.405015" lon="100.812486">
<time>2016-04-06T12:42:13Z</time></trkpt>
<trkpt lat="25.405165" lon="100.812355">
<time>2016-04-06T12:42:14Z</time></trkpt>
<trkpt lat="25.405355" lon="100.812305">
<time>2016-04-06T12:42:15Z</time></trkpt>
<trkpt lat="25.405555" lon="100.812305">
<time>2016-04-06T12:42:16Z</time></trkpt>
<trkpt lat="25.405755" lon="100.812295">
<time>2016-04-06T12:42:17Z</time></trkpt>
<trkpt lat="25.405925" lon="100.812235">
<time>2016-04-06T12:42:18Z</time></trkpt>
<trkpt lat="25.406065" lon="100.812145">
<time>2016-04-06T12:42:19Z</time></trkpt>
<trkpt lat="25.406205" lon="100.811985">
<time>2016-04-06T12:42:20Z</time></trkpt>
<trkpt lat="25.406295" lon="100.811825">
<time>2016-04-06T12:42:21Z</time></trkpt>
<trkpt lat="25.406374" lon="100.811624">
<time>2016-04-06T12:42:22Z</time></trkpt>
<trkpt lat="25.406424" lon="100.811394">
<time>2016-04-06T12:42:23Z</time></trkpt>
<trkpt lat="25.406463" lon="100.811134">
<time>2016-04-06T12:42:24Z</time></trkpt>
<trkpt lat="25.406533" lon="100.810903">
<time>2016-04-06T12:42:25Z</time></trkpt>
<trkpt lat="25.406613" lon="100.810693">
<time>2016-04-06T12:42:26Z</time></trkpt>
<trkpt lat="25.406712" lon="100.810493">
<time>2016-04-06T12:42:27Z</time></trkpt>
<trkpt lat="25.406922" lon="100.810312">
<time>2016-04-06T12:42:28Z</time></trkpt>
<trkpt lat="25.407182" lon="100.810212">
<time>2016-04-06T12:42:29Z</time></trkpt>
<trkpt lat="25.407452" lon="100.810082">
<time>2016-04-06T12:42:30Z</time></trkpt>
<trkpt lat="25.407681" lon="100.809922">
<time>2016-04-06T12:42:31Z</time></trkpt>
<trkpt lat="25.407921" lon="100.809782">
<time>2016-04-06T12:42:32Z</time></trkpt>
<trkpt lat="25.408161" lon="100.809601">
<time>2016-04-06T12:42:33Z</time></trkpt>
<trkpt lat="25.408411" lon="100.809451">
<time>2016-04-06T12:42:34Z</time></trkpt>
<trkpt lat="25.40867" lon="100.809251">
<time>2016-04-06T12:42:35Z</time></trkpt>
<trkpt lat="25.40885" lon="100.809101">
<time>2016-04-06T12:42:36Z</time></trkpt>
<trkpt lat="25.4091" lon="100.80893">
<time>2016-04-06T12:42:37Z</time></trkpt>
<trkpt lat="25.40936" lon="100.80875">
<time>2016-04-06T12:42:38Z</time></trkpt>
<trkpt lat="25.409559" lon="100.80855">
<time>2016-04-06T12:42:39Z</time></trkpt>
<trkpt lat="25.409769" lon="100.80838">
<time>2016-04-06T12:42:40Z</time></trkpt>
<trkpt lat="25.409959" lon="100.808189">
<time>2016-04-06T12:42:41Z</time></trkpt>
<trkpt lat="25.410109" lon="100.808029">
<time>2016-04-06T12:42:42Z</time></trkpt>
<trkpt lat="25.410218" lon="100.807829">
<time>2016-04-06T12:42:43Z</time></trkpt>
<trkpt lat="25.410338" lon="100.807609">
<time>2016-04-06T12:42:44Z</time></trkpt>
<trkpt lat="25.410437" lon="100.807318">
<time>2016-04-06T12:42:45Z</time></trkpt>
<trkpt lat="25.410557" lon="100.806978">
<time>2016-04-06T12:42:46Z</time></trkpt>
<trkpt lat="25.410676" lon="100.806677">
<time>2016-04-06T12:42:47Z</time></trkpt>
<trkpt lat="25.410736" lon="100.806427">
<time>2016-04-06T12:42:48Z</time></trkpt>
<trkpt lat="25.410805" lon="100.806177">
<time>2016-04-06T12:42:49Z</time></trkpt>
<trkpt lat="25.410875" lon="100.805916">
<time>2016-04-06T12:42:50Z</time></trkpt>
<trkpt lat="25.410945" lon="100.805656">
<time>2016-04-06T12:42:51Z</time></trkpt>
<trkpt lat="25.410994" lon="100.805426">
<time>2016-04-06T12:42:52Z</time></trkpt>
<trkpt lat="25.411054" lon="100.805245">
<time>2016-04-06T12:42:53Z</time></trkpt>
<trkpt lat="25.411084" lon="100.805085">
<time>2016-04-06T12:42:54Z</time></trkpt>
<trkpt lat="25.411143" lon="100.804825">
<time>2016-04-06T12:42:55Z</time></trkpt>
<trkpt lat="25.411253" lon="100.804504">
<time>2016-04-06T12:42:56Z</time></trkpt>
<trkpt lat="25.411382" lon="100.804244">
<time>2016-04-06T12:42:57Z</time></trkpt>
<trkpt lat="25.411562" lon="100.804114">
<time>2016-04-06T12:42:58Z</time></trkpt>
<trkpt lat="25.411742" lon="100.804064">
<time>2016-04-06T12:42:59Z</time></trkpt>
<trkpt lat="25.411932" lon="100.804084">
<time>2016-04-06T12:43:00Z</time></trkpt>
<trkpt lat="25.412162" lon="100.804084">
<time>2016-04-06T12:43:01Z</time></trkpt>
<trkpt lat="25.412372" lon="100.804124">
<time>2016-04-06T12:43:02Z</time></trkpt>
<trkpt lat="25.412633" lon="100.804224">
<time>2016-04-06T12:43:03Z</time></trkpt>
<trkpt lat="25.412833" lon="100.804294">
<time>2016-04-06T12:43:04Z</time></trkpt>
<trkpt lat="25.413073" lon="100.804304">
<time>2016-04-06T12:43:05Z</time></trkpt>
<trkpt lat="25.413353" lon="100.804294">
<time>2016-04-06T12:43:06Z</time></trkpt>
<trkpt lat="25.413623" lon="100.804254">
<time>2016-04-06T12:43:07Z</time></trkpt>
<trkpt lat="25.413903" lon="100.804204">
<time>2016-04-06T12:43:08Z</time></trkpt>
<trkpt lat="25.414163" lon="100.804124">
<time>2016-04-06T12:43:09Z</time></trkpt>
<trkpt lat="25.414413" lon="100.804014">
<time>2016-04-06T12:43:10Z</time></trkpt>
<trkpt lat="25.414642" lon="100.803893">
<time>2016-04-06T12:43:11Z</time></trkpt>
<trkpt lat="25.414882" lon="100.803803">
<time>2016-04-06T12:43:12Z</time></trkpt>
<trkpt lat="25.415072" lon="100.803703">
<time>2016-04-06T12:43:13Z</time></trkpt>
<trkpt lat="25.415212" lon="100.803563">
<time>2016-04-06T12:43:14Z</time></trkpt>
<trkpt lat="25.415292" lon="100.803383">
<time>2016-04-06T12:43:15Z</time></trkpt>
<trkpt lat="25.415331" lon="100.803162">
<time>2016-04-06T12:43:16Z</time></trkpt>
<trkpt lat="25.415361" lon="100.802972">
<time>2016-04-06T12:43:17Z</time></trkpt>
<trkpt lat="25.415371" lon="100.802742">
<time>2016-04-06T12:43:18Z</time></trkpt>
<trkpt lat="25.41539" lon="100.802502">
<time>2016-04-06T12:43:19Z</time></trkpt>
<trkpt lat="25.4154" lon="100.802341">
<time>2016-04-06T12:43:20Z</time></trkpt>
<trkpt lat="25.41542" lon="100.802151">
<time>2016-04-06T12:43:21Z</time></trkpt>
<trkpt lat="25.415439" lon="100.801971">
<time>2016-04-06T12:43:22Z</time></trkpt>
<trkpt lat="25.415469" lon="100.801751">
<time>2016-04-06T12:43:23Z</time></trkpt>
<trkpt lat="25.415519" lon="100.80149">
<time>2016-04-06T12:43:24Z</time></trkpt>
<trkpt lat="25.415568" lon="100.80124">
<time>2016-04-06T12:43:25Z</time></trkpt>
<trkpt lat="25.415628" lon="100.801">
<time>2016-04-06T12:43:26Z</time></trkpt>
<trkpt lat="25.415677" lon="100.800789">
<time>2016-04-06T12:43:27Z</time></trkpt>
<trkpt lat="25.415727" lon="100.800579">
<time>2016-04-06T12:43:28Z</time></trkpt>
<trkpt lat="25.415777" lon="100.800359">
<time>2016-04-06T12:43:29Z</time></trkpt>
<trkpt lat="25.415836" lon="100.800149">
<time>2016-04-06T12:43:30Z</time></trkpt>
<trkpt lat="25.415906" lon="100.799938">
<time>2016-04-06T12:43:31Z</time></trkpt>
<trkpt lat="25.415986" lon="100.799758">
<time>2016-04-06T12:43:32Z</time></trkpt>
<trkpt lat="25.416116" lon="100.799608">
<time>2016-04-06T12:43:33Z</time></trkpt>
<trkpt lat="25.416286" lon="100.799518">
<time>2016-04-06T12:43:34Z</time></trkpt>
<trkpt lat="25.416505" lon="100.799478">
<time>2016-04-06T12:43:35Z</time></trkpt>
<trkpt lat="25.416685" lon="100.799448">
<time>2016-04-06T12:43:36Z</time></trkpt>
<trkpt lat="25.416735" lon="100.799438">
<time>2016-04-06T12:43:37Z</time></trkpt>
<trkpt lat="25.416975" lon="100.799418">
<time>2016-04-06T12:43:38Z</time></trkpt>
<trkpt lat="25.417226" lon="100.799448">
<time>2016-04-06T12:43:39Z</time></trkpt>
<trkpt lat="25.417466" lon="100.799538">
<time>2016-04-06T12:43:40Z</time></trkpt>
<trkpt lat="25.417696" lon="100.799638">
<time>2016-04-06T12:43:41Z</time></trkpt>
<trkpt lat="25.417916" lon="100.799768">
<time>2016-04-06T12:43:42Z</time></trkpt>
<trkpt lat="25.418126" lon="100.799878">
<time>2016-04-06T12:43:43Z</time></trkpt>
<trkpt lat="25.418347" lon="100.799988">
<time>2016-04-06T12:43:44Z</time></trkpt>
<trkpt lat="25.418567" lon="100.800088">
<time>2016-04-06T12:43:45Z</time></trkpt>
<trkpt lat="25.418797" lon="100.800199">
<time>2016-04-06T12:43:46Z</time></trkpt>
<trkpt lat="25.419017" lon="100.800299">
<time>2016-04-06T12:43:47Z</time></trkpt>
<trkpt lat="25.419248" lon="100.800399">
<time>2016-04-06T12:43:48Z</time></trkpt>
<trkpt lat="25.419468" lon="100.800499">
<time>2016-04-06T12:43:49Z</time></trkpt>
<trkpt lat="25.419708" lon="100.800629">
<time>2016-04-06T12:43:50Z</time></trkpt>
<trkpt lat="25.419928" lon="100.800699">
<time>2016-04-06T12:43:51Z</time></trkpt>
<trkpt lat="25.420128" lon="100.800719">
<time>2016-04-06T12:43:52Z</time></trkpt>
<trkpt lat="25.420308" lon="100.800659">
<time>2016-04-06T12:43:53Z</time></trkpt>
<trkpt lat="25.420478" lon="100.800559">
<time>2016-04-06T12:43:54Z</time></trkpt>
<trkpt lat="25.420648" lon="100.800419">
<time>2016-04-06T12:43:55Z</time></trkpt>
<trkpt lat="25.420838" lon="100.800279">
<time>2016-04-06T12:43:56Z</time></trkpt>
<trkpt lat="25.421058" lon="100.800178">
<time>2016-04-06T12:43:57Z</time></trkpt>
<trkpt lat="25.421298" lon="100.800108">
<time>2016-04-06T12:43:58Z</time></trkpt>
<trkpt lat="25.421547" lon="100.800018">
<time>2016-04-06T12:43:59Z</time></trkpt>
<trkpt lat="25.421797" lon="100.799948">
<time>2016-04-06T12:44:00Z</time></trkpt>
<trkpt lat="25.422047" lon="100.799858">
<time>2016-04-06T12:44:01Z</time></trkpt>
<trkpt lat="25.422237" lon="100.799768">
<time>2016-04-06T12:44:02Z</time></trkpt>
<trkpt lat="25.422527" lon="100.799618">
<time>2016-04-06T12:44:03Z</time></trkpt>
<trkpt lat="25.422747" lon="100.799438">
<time>2016-04-06T12:44:04Z</time></trkpt>
<trkpt lat="25.422957" lon="100.799297">
<time>2016-04-06T12:44:05Z</time></trkpt>
<trkpt lat="25.423226" lon="100.799097">
<time>2016-04-06T12:44:06Z</time></trkpt>
<trkpt lat="25.423426" lon="100.798907">
<time>2016-04-06T12:44:07Z</time></trkpt>
<trkpt lat="25.423616" lon="100.798717">
<time>2016-04-06T12:44:08Z</time></trkpt>
<trkpt lat="25.423816" lon="100.798536">
<time>2016-04-06T12:44:09Z</time></trkpt>
<trkpt lat="25.423995" lon="100.798366">
<time>2016-04-06T12:44:10Z</time></trkpt>
<trkpt lat="25.424165" lon="100.798196">
<time>2016-04-06T12:44:11Z</time></trkpt>
<trkpt lat="25.424335" lon="100.798036">
<time>2016-04-06T12:44:12Z</time></trkpt>
<trkpt lat="25.424505" lon="100.797876">
<time>2016-04-06T12:44:13Z</time></trkpt>
<trkpt lat="25.424674" lon="100.797735">
<time>2016-04-06T12:44:14Z</time></trkpt>
<trkpt lat="25.424844" lon="100.797585">
<time>2016-04-06T12:44:15Z</time></trkpt>
<trkpt lat="25.425004" lon="100.797425">
<time>2016-04-06T12:44:16Z</time></trkpt>
<trkpt lat="25.425154" lon="100.797275">
<time>2016-04-06T12:44:17Z</time></trkpt>
<trkpt lat="25.425164" lon="100.797265">
<time>2016-04-06T12:44:18Z</time></trkpt>
<trkpt lat="25.425324" lon="100.797115">
<time>2016-04-06T12:44:19Z</time></trkpt>
<trkpt lat="25.425493" lon="100.796964">
<time>2016-04-06T12:44:20Z</time></trkpt>
<trkpt lat="25.425653" lon="100.796814">
<time>2016-04-06T12:44:21Z</time></trkpt>
<trkpt lat="25.425823" lon="100.796654">
<time>2016-04-06T12:44:22Z</time></trkpt>
<trkpt lat="25.426003" lon="100.796494">
<time>2016-04-06T12:44:23Z</time></trkpt>
<trkpt lat="25.426173" lon="100.796324">
<time>2016-04-06T12:44:24Z</time></trkpt>
<trkpt lat="25.426362" lon="100.796154">
<time>2016-04-06T12:44:25Z</time></trkpt>
<trkpt lat="25.426542" lon="100.795983">
<time>2016-04-06T12:44:26Z</time></trkpt>
<trkpt lat="25.426722" lon="100.795823">
<time>2016-04-06T12:44:27Z</time></trkpt>
<trkpt lat="25.426882" lon="100.795663">
<time>2016-04-06T12:44:28Z</time></trkpt>
<trkpt lat="25.426962" lon="100.795593">
<time>2016-04-06T12:44:29Z</time></trkpt>
<trkpt lat="25.427042" lon="100.795513">
<time>2016-04-06T12:44:30Z</time></trkpt>
<trkpt lat="25.427211" lon="100.795373">
<time>2016-04-06T12:44:31Z</time></trkpt>
<trkpt lat="25.427361" lon="100.795232">
<time>2016-04-06T12:44:32Z</time></trkpt>
<trkpt lat="25.427521" lon="100.795082">
<time>2016-04-06T12:44:33Z</time></trkpt>
<trkpt lat="25.427661" lon="100.794912">
<time>2016-04-06T12:44:34Z</time></trkpt>
<trkpt lat="25.427821" lon="100.794752">
<time>2016-04-06T12:44:35Z</time></trkpt>
<trkpt lat="25.42796" lon="100.794592">
<time>2016-04-06T12:44:36Z</time></trkpt>
<trkpt lat="25.42809" lon="100.794442">
<time>2016-04-06T12:44:37Z</time></trkpt>
<trkpt lat="25.42821" lon="100.794281">
<time>2016-04-06T12:44:38Z</time></trkpt>
<trkpt lat="25.42824" lon="100.794241">
<time>2016-04-06T12:44:39Z</time></trkpt>
<trkpt lat="25.42828" lon="100.794211">
<time>2016-04-06T12:44:40Z</time></trkpt>
<trkpt lat="25.42833" lon="100.794181">
<time>2016-04-06T12:44:41Z</time></trkpt>
<trkpt lat="25.42838" lon="100.794151">
<time>2016-04-06T12:44:42Z</time></trkpt>
<trkpt lat="25.42843" lon="100.794131">
<time>2016-04-06T12:44:43Z</time></trkpt>
<trkpt lat="25.42848" lon="100.794101">
<time>2016-04-06T12:44:44Z</time></trkpt>
<trkpt lat="25.42853" lon="100.794061">
<time>2016-04-06T12:44:45Z</time></trkpt>
<trkpt lat="25.42858" lon="100.794001">
<time>2016-04-06T12:44:46Z</time></trkpt>
<trkpt lat="25.42863" lon="100.793921">
<time>2016-04-06T12:44:47Z</time></trkpt>
<trkpt lat="25.428669" lon="100.793811">
<time>2016-04-06T12:44:48Z</time></trkpt>
<trkpt lat="25.428719" lon="100.793641">
<time>2016-04-06T12:44:49Z</time></trkpt>
<trkpt lat="25.428759" lon="100.79345">
<time>2016-04-06T12:44:50Z</time></trkpt>
<trkpt lat="25.428789" lon="100.79326">
<time>2016-04-06T12:44:51Z</time></trkpt>
<trkpt lat="25.428818" lon="100.79305">
<time>2016-04-06T12:44:52Z</time></trkpt>
<trkpt lat="25.428848" lon="100.79285">
<time>2016-04-06T12:44:53Z</time></trkpt>
<trkpt lat="25.428878" lon="100.79265">
<time>2016-04-06T12:44:54Z</time></trkpt>
<trkpt lat="25.428917" lon="100.792439">
<time>2016-04-06T12:44:55Z</time></trkpt>
<trkpt lat="25.428957" lon="100.792229">
<time>2016-04-06T12:44:56Z</time></trkpt>
<trkpt lat="25.428997" lon="100.792019">
<time>2016-04-06T12:44:57Z</time></trkpt>
<trkpt lat="25.429026" lon="100.791739">
<time>2016-04-06T12:44:58Z</time></trkpt>
<trkpt lat="25.429056" lon="100.791448">
<time>2016-04-06T12:44:59Z</time></trkpt>
<trkpt lat="25.429106" lon="100.791208">
<time>2016-04-06T12:45:00Z</time></trkpt>
<trkpt lat="25.429125" lon="100.790988">
<time>2016-04-06T12:45:01Z</time></trkpt>
<trkpt lat="25.429155" lon="100.790818">
<time>2016-04-06T12:45:02Z</time></trkpt>
<trkpt lat="25.429185" lon="100.790627">
<time>2016-04-06T12:45:03Z</time></trkpt>
<trkpt lat="25.429215" lon="100.790487">
<time>2016-04-06T12:45:04Z</time></trkpt>
<trkpt lat="25.429235" lon="100.790387">
<time>2016-04-06T12:45:05Z</time></trkpt>
<trkpt lat="25.429254" lon="100.790277">
<time>2016-04-06T12:45:06Z</time></trkpt>
<trkpt lat="25.429274" lon="100.790117">
<time>2016-04-06T12:45:07Z</time></trkpt>
<trkpt lat="25.429304" lon="100.789947">
<time>2016-04-06T12:45:08Z</time></trkpt>
<trkpt lat="25.429334" lon="100.789767">
<time>2016-04-06T12:45:09Z</time></trkpt>
<trkpt lat="25.429343" lon="100.789566">
<time>2016-04-06T12:45:10Z</time></trkpt>
<trkpt lat="25.429373" lon="100.789356">
<time>2016-04-06T12:45:11Z</time></trkpt>
<trkpt lat="25.429423" lon="100.789136">
<time>2016-04-06T12:45:12Z</time></trkpt>
<trkpt lat="25.429463" lon="100.788936">
<time>2016-04-06T12:45:13Z</time></trkpt>
<trkpt lat="25.429492" lon="100.788726">
<time>2016-04-06T12:45:14Z</time></trkpt>
<trkpt lat="25.429532" lon="100.788505">
<time>2016-04-06T12:45:15Z</time></trkpt>
<trkpt lat="25.429562" lon="100.788315">
<time>2016-04-06T12:45:16Z</time></trkpt>
<trkpt lat="25.429572" lon="100.788225">
<time>2016-04-06T12:45:17Z</time></trkpt>
<trkpt lat="25.429572" lon="100.788115">
<time>2016-04-06T12:45:18Z</time></trkpt>
<trkpt lat="25.429571" lon="100.787985">
<time>2016-04-06T12:45:19Z</time></trkpt>
<trkpt lat="25.429561" lon="100.787885">
<time>2016-04-06T12:45:20Z</time></trkpt>
<trkpt lat="25.429551" lon="100.787805">
<time>2016-04-06T12:45:21Z</time></trkpt>
<trkpt lat="25.429521" lon="100.787675">
<time>2016-04-06T12:45:22Z</time></trkpt>
<trkpt lat="25.42938" lon="100.787274">
<time>2016-04-06T12:45:23Z</time></trkpt>
<trkpt lat="25.42923" lon="100.786964">
<time>2016-04-06T12:45:24Z</time></trkpt>
<trkpt lat="25.429029" lon="100.786423">
<time>2016-04-06T12:45:25Z</time></trkpt>
<trkpt lat="25.428799" lon="100.785993">
<time>2016-04-06T12:45:26Z</time></trkpt>
<trkpt lat="25.428237" lon="100.784862">
<time>2016-04-06T12:45:27Z</time></trkpt>
<trkpt lat="25.427666" lon="100.783731">
<time>2016-04-06T12:45:28Z</time></trkpt>
<trkpt lat="25.427565" lon="100.783571">
<time>2016-04-06T12:45:29Z</time></trkpt>
<trkpt lat="25.427465" lon="100.783441">
<time>2016-04-06T12:45:30Z</time></trkpt>
<trkpt lat="25.427265" lon="100.783231">
<time>2016-04-06T12:45:31Z</time></trkpt>
<trkpt lat="25.426964" lon="100.782981">
<time>2016-04-06T12:45:32Z</time></trkpt>
<trkpt lat="25.426704" lon="100.78277">
<time>2016-04-06T12:45:33Z</time></trkpt>
<trkpt lat="25.426474" lon="100.78256">
<time>2016-04-06T12:45:34Z</time></trkpt>
<trkpt lat="25.426254" lon="100.78232">
<time>2016-04-06T12:45:35Z</time></trkpt>
<trkpt lat="25.425813" lon="100.7818">
<time>2016-04-06T12:45:36Z</time></trkpt>
<trkpt lat="25.425773" lon="100.78176">
<time>2016-04-06T12:45:37Z</time></trkpt>
<trkpt lat="25.425452" lon="100.781389">
<time>2016-04-06T12:45:38Z</time></trkpt>
<trkpt lat="25.425412" lon="100.781339">
<time>2016-04-06T12:45:39Z</time></trkpt>
<trkpt lat="25.424952" lon="100.780839">
<time>2016-04-06T12:45:40Z</time></trkpt>
<trkpt lat="25.42422" lon="100.779999">
<time>2016-04-06T12:45:41Z</time></trkpt>
<trkpt lat="25.42356" lon="100.779288">
<time>2016-04-06T12:45:42Z</time></trkpt>
<trkpt lat="25.423229" lon="100.778948">
<time>2016-04-06T12:45:43Z</time></trkpt>
<trkpt lat="25.422999" lon="100.778678">
<time>2016-04-06T12:45:44Z</time></trkpt>
<trkpt lat="25.422468" lon="100.777967">
<time>2016-04-06T12:45:45Z</time></trkpt>
<trkpt lat="25.421947" lon="100.777247">
<time>2016-04-06T12:45:46Z</time></trkpt>
<trkpt lat="25.421657" lon="100.776907">
<time>2016-04-06T12:45:47Z</time></trkpt>
<trkpt lat="25.421266" lon="100.776566">
<time>2016-04-06T12:45:48Z</time></trkpt>
<trkpt lat="25.420896" lon="100.776266">
<time>2016-04-06T12:45:49Z</time></trkpt>
<trkpt lat="25.417993" lon="100.774285">
<time>2016-04-06T12:45:50Z</time></trkpt>
<trkpt lat="25.417803" lon="100.774125">
<time>2016-04-06T12:45:51Z</time></trkpt>
<trkpt lat="25.417693" lon="100.774015">
<time>2016-04-06T12:45:52Z</time></trkpt>
<trkpt lat="25.417643" lon="100.773955">
<time>2016-04-06T12:45:53Z</time></trkpt>
<trkpt lat="25.417483" lon="100.773795">
<time>2016-04-06T12:45:54Z</time></trkpt>
<trkpt lat="25.417353" lon="100.773655">
<time>2016-04-06T12:45:55Z</time></trkpt>
<trkpt lat="25.417192" lon="100.773505">
<time>2016-04-06T12:45:56Z</time></trkpt>
<trkpt lat="25.417032" lon="100.773365">
<time>2016-04-06T12:45:57Z</time></trkpt>
<trkpt lat="25.416882" lon="100.773215">
<time>2016-04-06T12:45:58Z</time></trkpt>
<trkpt lat="25.416732" lon="100.773065">
<time>2016-04-06T12:45:59Z</time></trkpt>
<trkpt lat="25.416682" lon="100.773025">
<time>2016-04-06T12:46:00Z</time></trkpt>
<trkpt lat="25.416622" lon="100.772955">
<time>2016-04-06T12:46:01Z</time></trkpt>
<trkpt lat="25.416572" lon="100.772915">
<time>2016-04-06T12:46:02Z</time></trkpt>
<trkpt lat="25.416412" lon="100.772765">
<time>2016-04-06T12:46:03Z</time></trkpt>
<trkpt lat="25.416251" lon="100.772605">
<time>2016-04-06T12:46:04Z</time></trkpt>
<trkpt lat="25.416081" lon="100.772445">
<time>2016-04-06T12:46:05Z</time></trkpt>
<trkpt lat="25.415921" lon="100.772284">
<time>2016-04-06T12:46:06Z</time></trkpt>
<trkpt lat="25.415761" lon="100.772134">
<time>2016-04-06T12:46:07Z</time></trkpt>
<trkpt lat="25.415631" lon="100.771984">
<time>2016-04-06T12:46:08Z</time></trkpt>
<trkpt lat="25.415481" lon="100.771824">
<time>2016-04-06T12:46:09Z</time></trkpt>
<trkpt lat="25.41534" lon="100.771684">
<time>2016-04-06T12:46:10Z</time></trkpt>
<trkpt lat="25.41521" lon="100.771564">
<time>2016-04-06T12:46:11Z</time></trkpt>
<trkpt lat="25.41509" lon="100.771454">
<time>2016-04-06T12:46:12Z</time></trkpt>
<trkpt lat="25.41497" lon="100.771324">
<time>2016-04-06T12:46:13Z</time></trkpt>
<trkpt lat="25.41485" lon="100.771194">
<time>2016-04-06T12:46:14Z</time></trkpt>
<trkpt lat="25.41482" lon="100.771164">
<time>2016-04-06T12:46:15Z</time></trkpt>
<trkpt lat="25.41471" lon="100.771054">
<time>2016-04-06T12:46:16Z</time></trkpt>
<trkpt lat="25.41457" lon="100.770904">
<time>2016-04-06T12:46:17Z</time></trkpt>
<trkpt lat="25.41442" lon="100.770744">
<time>2016-04-06T12:46:18Z</time></trkpt>
<trkpt lat="25.414269" lon="100.770584">
<time>2016-04-06T12:46:19Z</time></trkpt>
<trkpt lat="25.414119" lon="100.770424">
<time>2016-04-06T12:46:20Z</time></trkpt>
<trkpt lat="25.413989" lon="100.770294">
<time>2016-04-06T12:46:21Z</time></trkpt>
<trkpt lat="25.413859" lon="100.770154">
<time>2016-04-06T12:46:22Z</time></trkpt>
<trkpt lat="25.413729" lon="100.769974">
<time>2016-04-06T12:46:23Z</time></trkpt>
<trkpt lat="25.413609" lon="100.769794">
<time>2016-04-06T12:46:24Z</time></trkpt>
<trkpt lat="25.413488" lon="100.769594">
<time>2016-04-06T12:46:25Z</time></trkpt>
<trkpt lat="25.413388" lon="100.769423">
<time>2016-04-06T12:46:26Z</time></trkpt>
<trkpt lat="25.413288" lon="100.769273">
<time>2016-04-06T12:46:27Z</time></trkpt>
<trkpt lat="25.413208" lon="100.769113">
<time>2016-04-06T12:46:28Z</time></trkpt>
<trkpt lat="25.413118" lon="100.768873">
<time>2016-04-06T12:46:29Z</time></trkpt>
<trkpt lat="25.413038" lon="100.768723">
<time>2016-04-06T12:46:30Z</time></trkpt>
<trkpt lat="25.412938" lon="100.768553">
<time>2016-04-06T12:46:31Z</time></trkpt>
<trkpt lat="25.412827" lon="100.768403">
<time>2016-04-06T12:46:32Z</time></trkpt>
<trkpt lat="25.412727" lon="100.768203">
<time>2016-04-06T12:46:33Z</time></trkpt>
<trkpt lat="25.412607" lon="100.768033">
<time>2016-04-06T12:46:34Z</time></trkpt>
<trkpt lat="25.412527" lon="100.767853">
<time>2016-04-06T12:46:35Z</time></trkpt>
<trkpt lat="25.412427" lon="100.767673">
<time>2016-04-06T12:46:36Z</time></trkpt>
<trkpt lat="25.412377" lon="100.767613">
<time>2016-04-06T12:46:37Z</time></trkpt>
<trkpt lat="25.412317" lon="100.767513">
<time>2016-04-06T12:46:38Z</time></trkpt>
<trkpt lat="25.412217" lon="100.767333">
<time>2016-04-06T12:46:39Z</time></trkpt>
<trkpt lat="25.412106" lon="100.767163">
<time>2016-04-06T12:46:40Z</time></trkpt>
<trkpt lat="25.412006" lon="100.766963">
<time>2016-04-06T12:46:41Z</time></trkpt>
<trkpt lat="25.411886" lon="100.766763">
<time>2016-04-06T12:46:42Z</time></trkpt>
<trkpt lat="25.411776" lon="100.766563">
<time>2016-04-06T12:46:43Z</time></trkpt>
<trkpt lat="25.411656" lon="100.766363">
<time>2016-04-06T12:46:44Z</time></trkpt>
<trkpt lat="25.411536" lon="100.766153">
<time>2016-04-06T12:46:45Z</time></trkpt>
<trkpt lat="25.411415" lon="100.765943">
<time>2016-04-06T12:46:46Z</time></trkpt>
<trkpt lat="25.411295" lon="100.765723">
<time>2016-04-06T12:46:47Z</time></trkpt>
<trkpt lat="25.411175" lon="100.765503">
<time>2016-04-06T12:46:48Z</time></trkpt>
<trkpt lat="25.411055" lon="100.765293">
<time>2016-04-06T12:46:49Z</time></trkpt>
<trkpt lat="25.410935" lon="100.765083">
<time>2016-04-06T12:46:50Z</time></trkpt>
<trkpt lat="25.410805" lon="100.764863">
<time>2016-04-06T12:46:51Z</time></trkpt>
<trkpt lat="25.410685" lon="100.764663">
<time>2016-04-06T12:46:52Z</time></trkpt>
<trkpt lat="25.410584" lon="100.764463">
<time>2016-04-06T12:46:53Z</time></trkpt>
<trkpt lat="25.410484" lon="100.764292">
<time>2016-04-06T12:46:54Z</time></trkpt>
<trkpt lat="25.410374" lon="100.764112">
<time>2016-04-06T12:46:55Z</time></trkpt>
<trkpt lat="25.410264" lon="100.763932">
<time>2016-04-06T12:46:56Z</time></trkpt>
<trkpt lat="25.410154" lon="100.763752">
<time>2016-04-06T12:46:57Z</time></trkpt>
<trkpt lat="25.410014" lon="100.763522">
<time>2016-04-06T12:46:58Z</time></trkpt>
<trkpt lat="25.409864" lon="100.763272">
<time>2016-04-06T12:46:59Z</time></trkpt>
<trkpt lat="25.409713" lon="100.763012">
<time>2016-04-06T12:47:00Z</time></trkpt>
<trkpt lat="25.409583" lon="100.762762">
<time>2016-04-06T12:47:01Z</time></trkpt>
<trkpt lat="25.409443" lon="100.762552">
<time>2016-04-06T12:47:02Z</time></trkpt>
<trkpt lat="25.409303" lon="100.762312">
<time>2016-04-06T12:47:03Z</time></trkpt>
<trkpt lat="25.409153" lon="100.762032">
<time>2016-04-06T12:47:04Z</time></trkpt>
<trkpt lat="25.409013" lon="100.761772">
<time>2016-04-06T12:47:05Z</time></trkpt>
<trkpt lat="25.408873" lon="100.761532">
<time>2016-04-06T12:47:06Z</time></trkpt>
<trkpt lat="25.408722" lon="100.761282">
<time>2016-04-06T12:47:07Z</time></trkpt>
<trkpt lat="25.408582" lon="100.761032">
<time>2016-04-06T12:47:08Z</time></trkpt>
<trkpt lat="25.408462" lon="100.760812">
<time>2016-04-06T12:47:09Z</time></trkpt>
<trkpt lat="25.408392" lon="100.760692">
<time>2016-04-06T12:47:10Z</time></trkpt>
<trkpt lat="25.408352" lon="100.760602">
<time>2016-04-06T12:47:11Z</time></trkpt>
<trkpt lat="25.408272" lon="100.760462">
<time>2016-04-06T12:47:12Z</time></trkpt>
<trkpt lat="25.408252" lon="100.760412">
<time>2016-04-06T12:47:13Z</time></trkpt>
<trkpt lat="25.408152" lon="100.760242">
<time>2016-04-06T12:47:14Z</time></trkpt>
<trkpt lat="25.408042" lon="100.760032">
<time>2016-04-06T12:47:15Z</time></trkpt>
<trkpt lat="25.407922" lon="100.759822">
<time>2016-04-06T12:47:16Z</time></trkpt>
<trkpt lat="25.407801" lon="100.759612">
<time>2016-04-06T12:47:17Z</time></trkpt>
<trkpt lat="25.407681" lon="100.759422">
<time>2016-04-06T12:47:18Z</time></trkpt>
<trkpt lat="25.407591" lon="100.759253">
<time>2016-04-06T12:47:19Z</time></trkpt>
<trkpt lat="25.407481" lon="100.759073">
<time>2016-04-06T12:47:20Z</time></trkpt>
<trkpt lat="25.407371" lon="100.758913">
<time>2016-04-06T12:47:21Z</time></trkpt>
<trkpt lat="25.407311" lon="100.758803">
<time>2016-04-06T12:47:22Z</time></trkpt>
<trkpt lat="25.407231" lon="100.758663">
<time>2016-04-06T12:47:23Z</time></trkpt>
<trkpt lat="25.407151" lon="100.758543">
<time>2016-04-06T12:47:24Z</time></trkpt>
<trkpt lat="25.407081" lon="100.758413">
<time>2016-04-06T12:47:25Z</time></trkpt>
<trkpt lat="25.407001" lon="100.758283">
<time>2016-04-06T12:47:26Z</time></trkpt>
<trkpt lat="25.406911" lon="100.758133">
<time>2016-04-06T12:47:27Z</time></trkpt>
<trkpt lat="25.406821" lon="100.757973">
<time>2016-04-06T12:47:28Z</time></trkpt>
<trkpt lat="25.406711" lon="100.757803">
<time>2016-04-06T12:47:29Z</time></trkpt>
<trkpt lat="25.406611" lon="100.757613">
<time>2016-04-06T12:47:30Z</time></trkpt>
<trkpt lat="25.4065" lon="100.757453">
<time>2016-04-06T12:47:31Z</time></trkpt>
<trkpt lat="25.40639" lon="100.757253">
<time>2016-04-06T12:47:32Z</time></trkpt>
<trkpt lat="25.40629" lon="100.757053">
<time>2016-04-06T12:47:33Z</time></trkpt>
<trkpt lat="25.40619" lon="100.756873">
<time>2016-04-06T12:47:34Z</time></trkpt>
<trkpt lat="25.40606" lon="100.756663">
<time>2016-04-06T12:47:35Z</time></trkpt>
<trkpt lat="25.40593" lon="100.756463">
<time>2016-04-06T12:47:36Z</time></trkpt>
<trkpt lat="25.40583" lon="100.756273">
<time>2016-04-06T12:47:37Z</time></trkpt>
<trkpt lat="25.40573" lon="100.756083">
<time>2016-04-06T12:47:38Z</time></trkpt>
<trkpt lat="25.40561" lon="100.755873">
<time>2016-04-06T12:47:39Z</time></trkpt>
<trkpt lat="25.40548" lon="100.755683">
<time>2016-04-06T12:47:40Z</time></trkpt>
<trkpt lat="25.40537" lon="100.755493">
<time>2016-04-06T12:47:41Z</time></trkpt>
<trkpt lat="25.40526" lon="100.755303">
<time>2016-04-06T12:47:42Z</time></trkpt>
<trkpt lat="25.40519" lon="100.755113">
<time>2016-04-06T12:47:43Z</time></trkpt>
<trkpt lat="25.405109" lon="100.754923">
<time>2016-04-06T12:47:44Z</time></trkpt>
<trkpt lat="25.405069" lon="100.754703">
<time>2016-04-06T12:47:45Z</time></trkpt>
<trkpt lat="25.405069" lon="100.754683">
<time>2016-04-06T12:47:46Z</time></trkpt>
<trkpt lat="25.405089" lon="100.754463">
<time>2016-04-06T12:47:47Z</time></trkpt>
<trkpt lat="25.405149" lon="100.754254">
<time>2016-04-06T12:47:48Z</time></trkpt>
<trkpt lat="25.405219" lon="100.754024">
<time>2016-04-06T12:47:49Z</time></trkpt>
<trkpt lat="25.405319" lon="100.753764">
<time>2016-04-06T12:47:50Z</time></trkpt>
<trkpt lat="25.405409" lon="100.753524">
<time>2016-04-06T12:47:51Z</time></trkpt>
<trkpt lat="25.405509" lon="100.753314">
<time>2016-04-06T12:47:52Z</time></trkpt>
<trkpt lat="25.405619" lon="100.753064">
<time>2016-04-06T12:47:53Z</time></trkpt>
<trkpt lat="25.405739" lon="100.752824">
<time>2016-04-06T12:47:54Z</time></trkpt>
<trkpt lat="25.405819" lon="100.752614">
<time>2016-04-06T12:47:55Z</time></trkpt>
<trkpt lat="25.405909" lon="100.752414">
<time>2016-04-06T12:47:56Z</time></trkpt>
<trkpt lat="25.406009" lon="100.752174">
<time>2016-04-06T12:47:57Z</time></trkpt>
<trkpt lat="25.406099" lon="100.751954">
<time>2016-04-06T12:47:58Z</time></trkpt>
<trkpt lat="25.406189" lon="100.751724">
<time>2016-04-06T12:47:59Z</time></trkpt>
<trkpt lat="25.406249" lon="100.751544">
<time>2016-04-06T12:48:00Z</time></trkpt>
<trkpt lat="25.406309" lon="100.751345">
<time>2016-04-06T12:48:01Z</time></trkpt>
<trkpt lat="25.406379" lon="100.751105">
<time>2016-04-06T12:48:02Z</time></trkpt>
<trkpt lat="25.406449" lon="100.750875">
<time>2016-04-06T12:48:03Z</time></trkpt>
<trkpt lat="25.406569" lon="100.750385">
<time>2016-04-06T12:48:04Z</time></trkpt>
<trkpt lat="25.406629" lon="100.750015">
<time>2016-04-06T12:48:05Z</time></trkpt>
<trkpt lat="25.406749" lon="100.749595">
<time>2016-04-06T12:48:06Z</time></trkpt>
<trkpt lat="25.406809" lon="100.749435">
<time>2016-04-06T12:48:07Z</time></trkpt>
<trkpt lat="25.406859" lon="100.749235">
<time>2016-04-06T12:48:08Z</time></trkpt>
<trkpt lat="25.406939" lon="100.749076">
<time>2016-04-06T12:48:09Z</time></trkpt>
<trkpt lat="25.407049" lon="100.748876">
<time>2016-04-06T12:48:10Z</time></trkpt>
<trkpt lat="25.407169" lon="100.748706">
<time>2016-04-06T12:48:11Z</time></trkpt>
<trkpt lat="25.407309" lon="100.748546">
<time>2016-04-06T12:48:12Z</time></trkpt>
<trkpt lat="25.407429" lon="100.748376">
<time>2016-04-06T12:48:13Z</time></trkpt>
<trkpt lat="25.407529" lon="100.748216">
<time>2016-04-06T12:48:14Z</time></trkpt>
<trkpt lat="25.407629" lon="100.748056">
<time>2016-04-06T12:48:15Z</time></trkpt>
<trkpt lat="25.407709" lon="100.747876">
<time>2016-04-06T12:48:16Z</time></trkpt>
<trkpt lat="25.407759" lon="100.747696">
<time>2016-04-06T12:48:17Z</time></trkpt>
<trkpt lat="25.407799" lon="100.747526">
<time>2016-04-06T12:48:18Z</time></trkpt>
<trkpt lat="25.407839" lon="100.747376">
<time>2016-04-06T12:48:19Z</time></trkpt>
<trkpt lat="25.407879" lon="100.747227">
<time>2016-04-06T12:48:20Z</time></trkpt>
<trkpt lat="25.407909" lon="100.747077">
<time>2016-04-06T12:48:21Z</time></trkpt>
<trkpt lat="25.407939" lon="100.746917">
<time>2016-04-06T12:48:22Z</time></trkpt>
<trkpt lat="25.407969" lon="100.746767">
<time>2016-04-06T12:48:23Z</time></trkpt>
<trkpt lat="25.408009" lon="100.746577">
<time>2016-04-06T12:48:24Z</time></trkpt>
<trkpt lat="25.40804" lon="100.746417">
<time>2016-04-06T12:48:25Z</time></trkpt>
<trkpt lat="25.40807" lon="100.746237">
<time>2016-04-06T12:48:26Z</time></trkpt>
<trkpt lat="25.4081" lon="100.746067">
<time>2016-04-06T12:48:27Z</time></trkpt>
<trkpt lat="25.40815" lon="100.745887">
<time>2016-04-06T12:48:28Z</time></trkpt>
<trkpt lat="25.40817" lon="100.745707">
<time>2016-04-06T12:48:29Z</time></trkpt>
<trkpt lat="25.4082" lon="100.745468">
<time>2016-04-06T12:48:30Z</time></trkpt>
<trkpt lat="25.40824" lon="100.745198">
<time>2016-04-06T12:48:31Z</time></trkpt>
<trkpt lat="25.40828" lon="100.744968">
<time>2016-04-06T12:48:32Z</time></trkpt>
<trkpt lat="25.40831" lon="100.744728">
<time>2016-04-06T12:48:33Z</time></trkpt>
<trkpt lat="25.40834" lon="100.744488">
<time>2016-04-06T12:48:34Z</time></trkpt>
<trkpt lat="25.40836" lon="100.744278">
<time>2016-04-06T12:48:35Z</time></trkpt>
<trkpt lat="25.40838" lon="100.744029">
<time>2016-04-06T12:48:36Z</time></trkpt>
<trkpt lat="25.40842" lon="100.743779">
<time>2016-04-06T12:48:37Z</time></trkpt>
<trkpt lat="25.40844" lon="100.743549">
<time>2016-04-06T12:48:38Z</time></trkpt>
<trkpt lat="25.40846" lon="100.743329">
<time>2016-04-06T12:48:39Z</time></trkpt>
<trkpt lat="25.40846" lon="100.743319">
<time>2016-04-06T12:48:40Z</time></trkpt>
<trkpt lat="25.40845" lon="100.743139">
<time>2016-04-06T12:48:41Z</time></trkpt>
<trkpt lat="25.40845" lon="100.742969">
<time>2016-04-06T12:48:42Z</time></trkpt>
<trkpt lat="25.40844" lon="100.742859">
<time>2016-04-06T12:48:43Z</time></trkpt>
<trkpt lat="25.40843" lon="100.74267">
<time>2016-04-06T12:48:44Z</time></trkpt>
<trkpt lat="25.40842" lon="100.74252">
<time>2016-04-06T12:48:45Z</time></trkpt>
<trkpt lat="25.40841" lon="100.74239">
<time>2016-04-06T12:48:46Z</time></trkpt>
<trkpt lat="25.40841" lon="100.74228">
<time>2016-04-06T12:48:47Z</time></trkpt>
<trkpt lat="25.40838" lon="100.74211">
<time>2016-04-06T12:48:48Z</time></trkpt>
<trkpt lat="25.40837" lon="100.74208">
<time>2016-04-06T12:48:49Z</time></trkpt>
<trkpt lat="25.40835" lon="100.74192">
<time>2016-04-06T12:48:50Z</time></trkpt>
<trkpt lat="25.40831" lon="100.74175">
<time>2016-04-06T12:48:51Z</time></trkpt>
<trkpt lat="25.40826" lon="100.74158">
<time>2016-04-06T12:48:52Z</time></trkpt>
<trkpt lat="25.408201" lon="100.741391">
<time>2016-04-06T12:48:53Z</time></trkpt>
<trkpt lat="25.408141" lon="100.741211">
<time>2016-04-06T12:48:54Z</time></trkpt>
<trkpt lat="25.408061" lon="100.741031">
<time>2016-04-06T12:48:55Z</time></trkpt>
<trkpt lat="25.407971" lon="100.740871">
<time>2016-04-06T12:48:56Z</time></trkpt>
<trkpt lat="25.407851" lon="100.740681">
<time>2016-04-06T12:48:57Z</time></trkpt>
<trkpt lat="25.407691" lon="100.740491">
<time>2016-04-06T12:48:58Z</time></trkpt>
<trkpt lat="25.407571" lon="100.740312">
<time>2016-04-06T12:48:59Z</time></trkpt>
<trkpt lat="25.407451" lon="100.740132">
<time>2016-04-06T12:49:00Z</time></trkpt>
<trkpt lat="25.407311" lon="100.739932">
<time>2016-04-06T12:49:01Z</time></trkpt>
<trkpt lat="25.407201" lon="100.739742">
<time>2016-04-06T12:49:02Z</time></trkpt>
<trkpt lat="25.407121" lon="100.739582">
<time>2016-04-06T12:49:03Z</time></trkpt>
<trkpt lat="25.407041" lon="100.739412">
<time>2016-04-06T12:49:04Z</time></trkpt>
<trkpt lat="25.406961" lon="100.739203">
<time>2016-04-06T12:49:05Z</time></trkpt>
<trkpt lat="25.406941" lon="100.739013">
<time>2016-04-06T12:49:06Z</time></trkpt>
<trkpt lat="25.406931" lon="100.738823">
<time>2016-04-06T12:49:07Z</time></trkpt>
<trkpt lat="25.406961" lon="100.738643">
<time>2016-04-06T12:49:08Z</time></trkpt>
<trkpt lat="25.407001" lon="100.738473">
<time>2016-04-06T12:49:09Z</time></trkpt>
<trkpt lat="25.407041" lon="100.738323">
<time>2016-04-06T12:49:10Z</time></trkpt>
<trkpt lat="25.407081" lon="100.738183">
<time>2016-04-06T12:49:11Z</time></trkpt>
<trkpt lat="25.407091" lon="100.738064">
<time>2016-04-06T12:49:12Z</time></trkpt>
<trkpt lat="25.407142" lon="100.737944">
<time>2016-04-06T12:49:13Z</time></trkpt>
<trkpt lat="25.407182" lon="100.737844">
<time>2016-04-06T12:49:14Z</time></trkpt>
<trkpt lat="25.407232" lon="100.737714">
<time>2016-04-06T12:49:15Z</time></trkpt>
<trkpt lat="25.407272" lon="100.737604">
<time>2016-04-06T12:49:16Z</time></trkpt>
<trkpt lat="25.407302" lon="100.737484">
<time>2016-04-06T12:49:17Z</time></trkpt>
<trkpt lat="25.407342" lon="100.737384">
<time>2016-04-06T12:49:18Z</time></trkpt>
<trkpt lat="25.407382" lon="100.737284">
<time>2016-04-06T12:49:19Z</time></trkpt>
<trkpt lat="25.407432" lon="100.737134">
<time>2016-04-06T12:49:20Z</time></trkpt>
<trkpt lat="25.407492" lon="100.737035">
<time>2016-04-06T12:49:21Z</time></trkpt>
<trkpt lat="25.407532" lon="100.736935">
<time>2016-04-06T12:49:22Z</time></trkpt>
<trkpt lat="25.407582" lon="100.736805">
<time>2016-04-06T12:49:23Z</time></trkpt>
<trkpt lat="25.407642" lon="100.736675">
<time>2016-04-06T12:49:24Z</time></trkpt>
<trkpt lat="25.407702" lon="100.736545">
<time>2016-04-06T12:49:25Z</time></trkpt>
<trkpt lat="25.407752" lon="100.736425">
<time>2016-04-06T12:49:26Z</time></trkpt>
<trkpt lat="25.407802" lon="100.736315">
<time>2016-04-06T12:49:27Z</time></trkpt>
<trkpt lat="25.407852" lon="100.736195">
<time>2016-04-06T12:49:28Z</time></trkpt>
<trkpt lat="25.407903" lon="100.736076">
<time>2016-04-06T12:49:29Z</time></trkpt>
<trkpt lat="25.407963" lon="100.735956">
<time>2016-04-06T12:49:30Z</time></trkpt>
<trkpt lat="25.408043" lon="100.735816">
<time>2016-04-06T12:49:31Z</time></trkpt>
<trkpt lat="25.408093" lon="100.735676">
<time>2016-04-06T12:49:32Z</time></trkpt>
<trkpt lat="25.408173" lon="100.735536">
<time>2016-04-06T12:49:33Z</time></trkpt>
<trkpt lat="25.408243" lon="100.735376">
<time>2016-04-06T12:49:34Z</time></trkpt>
<trkpt lat="25.408303" lon="100.735266">
<time>2016-04-06T12:49:35Z</time></trkpt>
<trkpt lat="25.408363" lon="100.735147">
<time>2016-04-06T12:49:36Z</time></trkpt>
<trkpt lat="25.408423" lon="100.735047">
<time>2016-04-06T12:49:37Z</time></trkpt>
<trkpt lat="25.408483" lon="100.734917">
<time>2016-04-06T12:49:38Z</time></trkpt>
<trkpt lat="25.408543" lon="100.734787">
<time>2016-04-06T12:49:39Z</time></trkpt>
<trkpt lat="25.408613" lon="100.734667">
<time>2016-04-06T12:49:40Z</time></trkpt>
<trkpt lat="25.408683" lon="100.734537">
<time>2016-04-06T12:49:41Z</time></trkpt>
<trkpt lat="25.408764" lon="100.734377">
<time>2016-04-06T12:49:42Z</time></trkpt>
<trkpt lat="25.408874" lon="100.734198">
<time>2016-04-06T12:49:43Z</time></trkpt>
<trkpt lat="25.408964" lon="100.734028">
<time>2016-04-06T12:49:44Z</time></trkpt>
<trkpt lat="25.408974" lon="100.734028">
<time>2016-04-06T12:49:45Z</time></trkpt>
<trkpt lat="25.409044" lon="100.733888">
<time>2016-04-06T12:49:46Z</time></trkpt>
<trkpt lat="25.409134" lon="100.733728">
<time>2016-04-06T12:49:47Z</time></trkpt>
<trkpt lat="25.409254" lon="100.733538">
<time>2016-04-06T12:49:48Z</time></trkpt>
<trkpt lat="25.409364" lon="100.733348">
<time>2016-04-06T12:49:49Z</time></trkpt>
<trkpt lat="25.409494" lon="100.733159">
<time>2016-04-06T12:49:50Z</time></trkpt>
<trkpt lat="25.409645" lon="100.732929">
<time>2016-04-06T12:49:51Z</time></trkpt>
<trkpt lat="25.409775" lon="100.732739">
<time>2016-04-06T12:49:52Z</time></trkpt>
<trkpt lat="25.409895" lon="100.732559">
<time>2016-04-06T12:49:53Z</time></trkpt>
<trkpt lat="25.409985" lon="100.73241">
<time>2016-04-06T12:49:54Z</time></trkpt>
<trkpt lat="25.410125" lon="100.73225">
<time>2016-04-06T12:49:55Z</time></trkpt>
<trkpt lat="25.410245" lon="100.73209">
<time>2016-04-06T12:49:56Z</time></trkpt>
<trkpt lat="25.410365" lon="100.73193">
<time>2016-04-06T12:49:57Z</time></trkpt>
<trkpt lat="25.410475" lon="100.73177">
<time>2016-04-06T12:49:58Z</time></trkpt>
<trkpt lat="25.410596" lon="100.73161">
<time>2016-04-06T12:49:59Z</time></trkpt>
<trkpt lat="25.410716" lon="100.731441">
<time>2016-04-06T12:50:00Z</time></trkpt>
<trkpt lat="25.410856" lon="100.731281">
<time>2016-04-06T12:50:01Z</time></trkpt>
<trkpt lat="25.410976" lon="100.731111">
<time>2016-04-06T12:50:02Z</time></trkpt>
<trkpt lat="25.411096" lon="100.730961">
<time>2016-04-06T12:50:03Z</time></trkpt>
<trkpt lat="25.411226" lon="100.730791">
<time>2016-04-06T12:50:04Z</time></trkpt>
<trkpt lat="25.411346" lon="100.730622">
<time>2016-04-06T12:50:05Z</time></trkpt>
<trkpt lat="25.411457" lon="100.730472">
<time>2016-04-06T12:50:06Z</time></trkpt>
<trkpt lat="25.411577" lon="100.730322">
<time>2016-04-06T12:50:07Z</time></trkpt>
<trkpt lat="25.411677" lon="100.730182">
<time>2016-04-06T12:50:08Z</time></trkpt>
<trkpt lat="25.411777" lon="100.730032">
<time>2016-04-06T12:50:09Z</time></trkpt>
<trkpt lat="25.411887" lon="100.729903">
<time>2016-04-06T12:50:10Z</time></trkpt>
<trkpt lat="25.411977" lon="100.729773">
<time>2016-04-06T12:50:11Z</time></trkpt>
<trkpt lat="25.412077" lon="100.729623">
<time>2016-04-06T12:50:12Z</time></trkpt>
<trkpt lat="25.412157" lon="100.729463">
<time>2016-04-06T12:50:13Z</time></trkpt>
<trkpt lat="25.412218" lon="100.729333">
<time>2016-04-06T12:50:14Z</time></trkpt>
<trkpt lat="25.412248" lon="100.729253">
<time>2016-04-06T12:50:15Z</time></trkpt>
<trkpt lat="25.412248" lon="100.729253">
<time>2016-04-06T12:50:16Z</time></trkpt>
<trkpt lat="25.411758" lon="100.728524">
<time>2016-04-06T12:50:17Z</time></trkpt>
<trkpt lat="25.411588" lon="100.728105">
<time>2016-04-06T12:50:18Z</time></trkpt>
<trkpt lat="25.411429" lon="100.727666">
<time>2016-04-06T12:50:19Z</time></trkpt>
<trkpt lat="25.411319" lon="100.727376">
<time>2016-04-06T12:50:20Z</time></trkpt>
<trkpt lat="25.411179" lon="100.726957">
<time>2016-04-06T12:50:21Z</time></trkpt>
<trkpt lat="25.411179" lon="100.726937">
<time>2016-04-06T12:50:22Z</time></trkpt>
<trkpt lat="25.411069" lon="100.726597">
<time>2016-04-06T12:50:23Z</time></trkpt>
<trkpt lat="25.41094" lon="100.726277">
<time>2016-04-06T12:50:24Z</time></trkpt>
<trkpt lat="25.41078" lon="100.725958">
<time>2016-04-06T12:50:25Z</time></trkpt>
<trkpt lat="25.41058" lon="100.725469">
<time>2016-04-06T12:50:26Z</time></trkpt>
<trkpt lat="25.410431" lon="100.725129">
<time>2016-04-06T12:50:27Z</time></trkpt>
<trkpt lat="25.410171" lon="100.72462">
<time>2016-04-06T12:50:28Z</time></trkpt>
<trkpt lat="25.409921" lon="100.724101">
<time>2016-04-06T12:50:29Z</time></trkpt>
<trkpt lat="25.409692" lon="100.723601">
<time>2016-04-06T12:50:30Z</time></trkpt>
<trkpt lat="25.409542" lon="100.723312">
<time>2016-04-06T12:50:31Z</time></trkpt>
<trkpt lat="25.409342" lon="100.722853">
<time>2016-04-06T12:50:32Z</time></trkpt>
<trkpt lat="25.409103" lon="100.722353">
<time>2016-04-06T12:50:33Z</time></trkpt>
<trkpt lat="25.408853" lon="100.721834">
<time>2016-04-06T12:50:34Z</time></trkpt>
<trkpt lat="25.408644" lon="100.721365">
<time>2016-04-06T12:50:35Z</time></trkpt>
<trkpt lat="25.408464" lon="100.720906">
<time>2016-04-06T12:50:36Z</time></trkpt>
<trkpt lat="25.408235" lon="100.720476">
<time>2016-04-06T12:50:37Z</time></trkpt>
<trkpt lat="25.408115" lon="100.720287">
<time>2016-04-06T12:50:38Z</time></trkpt>
<trkpt lat="25.408005" lon="100.720057">
<time>2016-04-06T12:50:39Z</time></trkpt>
<trkpt lat="25.407755" lon="100.719538">
<time>2016-04-06T12:50:40Z</time></trkpt>
<trkpt lat="25.407576" lon="100.719159">
<time>2016-04-06T12:50:41Z</time></trkpt>
<trkpt lat="25.407386" lon="100.718729">
<time>2016-04-06T12:50:42Z</time></trkpt>
<trkpt lat="25.407197" lon="100.71832">
<time>2016-04-06T12:50:43Z</time></trkpt>
<trkpt lat="25.407077" lon="100.71805">
<time>2016-04-06T12:50:44Z</time></trkpt>
<trkpt lat="25.406987" lon="100.717891">
<time>2016-04-06T12:50:45Z</time></trkpt>
<trkpt lat="25.406907" lon="100.717511">
<time>2016-04-06T12:50:46Z</time></trkpt>
<trkpt lat="25.406838" lon="100.717242">
<time>2016-04-06T12:50:47Z</time></trkpt>
<trkpt lat="25.406738" lon="100.716912">
<time>2016-04-06T12:50:48Z</time></trkpt>
<trkpt lat="25.406589" lon="100.716393">
<time>2016-04-06T12:50:49Z</time></trkpt>
<trkpt lat="25.406489" lon="100.716044">
<time>2016-04-06T12:50:50Z</time></trkpt>
<trkpt lat="25.40633" lon="100.715505">
<time>2016-04-06T12:50:51Z</time></trkpt>
<trkpt lat="25.40616" lon="100.714986">
<time>2016-04-06T12:50:52Z</time></trkpt>
<trkpt lat="25.406001" lon="100.714497">
<time>2016-04-06T12:50:53Z</time></trkpt>
<trkpt lat="25.405851" lon="100.714018">
<time>2016-04-06T12:50:54Z</time></trkpt>
<trkpt lat="25.405692" lon="100.713499">
<time>2016-04-06T12:50:55Z</time></trkpt>
<trkpt lat="25.405533" lon="100.713">
<time>2016-04-06T12:50:56Z</time></trkpt>
<trkpt lat="25.405373" lon="100.71248">
<time>2016-04-06T12:50:57Z</time></trkpt>
<trkpt lat="25.405224" lon="100.711961">
<time>2016-04-06T12:50:58Z</time></trkpt>
<trkpt lat="25.405055" lon="100.711423">
<time>2016-04-06T12:50:59Z</time></trkpt>
<trkpt lat="25.404895" lon="100.710913">
<time>2016-04-06T12:51:00Z</time></trkpt>
<trkpt lat="25.404666" lon="100.710175">
<time>2016-04-06T12:51:01Z</time></trkpt>
<trkpt lat="25.404666" lon="100.710175">
<time>2016-04-06T12:51:02Z</time></trkpt>
<trkpt lat="25.405247" lon="100.709875">
<time>2016-04-06T12:51:03Z</time></trkpt>
<trkpt lat="25.405577" lon="100.709706">
<time>2016-04-06T12:51:04Z</time></trkpt>
<trkpt lat="25.405797" lon="100.709616">
<time>2016-04-06T12:51:05Z</time></trkpt>
<trkpt lat="25.405917" lon="100.709556">
<time>2016-04-06T12:51:06Z</time></trkpt>
<trkpt lat="25.406157" lon="100.709416">
<time>2016-04-06T12:51:07Z</time></trkpt>
<trkpt lat="25.406448" lon="100.709287">
<time>2016-04-06T12:51:08Z</time></trkpt>
<trkpt lat="25.406888" lon="100.709037">
<time>2016-04-06T12:51:09Z</time></trkpt>
<trkpt lat="25.407198" lon="100.708857">
<time>2016-04-06T12:51:10Z</time></trkpt>
<trkpt lat="25.407549" lon="100.708678">
<time>2016-04-06T12:51:11Z</time></trkpt>
<trkpt lat="25.407799" lon="100.708558">
<time>2016-04-06T12:51:12Z</time></trkpt>
<trkpt lat="25.408249" lon="100.708309">
<time>2016-04-06T12:51:13Z</time></trkpt>
<trkpt lat="25.40858" lon="100.708169">
<time>2016-04-06T12:51:14Z</time></trkpt>
<trkpt lat="25.4088" lon="100.708049">
<time>2016-04-06T12:51:15Z</time></trkpt>
<trkpt lat="25.40899" lon="100.707939">
<time>2016-04-06T12:51:16Z</time></trkpt>
<trkpt lat="25.40942" lon="100.70772">
<time>2016-04-06T12:51:17Z</time></trkpt>
<trkpt lat="25.409831" lon="100.7075">
<time>2016-04-06T12:51:18Z</time></trkpt>
<trkpt lat="25.410001" lon="100.70742">
<time>2016-04-06T12:51:19Z</time></trkpt>
<trkpt lat="25.410261" lon="100.707271">
<time>2016-04-06T12:51:20Z</time></trkpt>
<trkpt lat="25.410602" lon="100.707101">
<time>2016-04-06T12:51:21Z</time></trkpt>
<trkpt lat="25.410942" lon="100.706931">
<time>2016-04-06T12:51:22Z</time></trkpt>
<trkpt lat="25.411222" lon="100.706792">
<time>2016-04-06T12:51:23Z</time></trkpt>
<trkpt lat="25.411362" lon="100.706692">
<time>2016-04-06T12:51:24Z</time></trkpt>
<trkpt lat="25.411612" lon="100.706572">
<time>2016-04-06T12:51:25Z</time></trkpt>
<trkpt lat="25.411893" lon="100.706432">
<time>2016-04-06T12:51:26Z</time></trkpt>
<trkpt lat="25.412193" lon="100.706283">
<time>2016-04-06T12:51:27Z</time></trkpt>
<trkpt lat="25.412543" lon="100.706163">
<time>2016-04-06T12:51:28Z</time></trkpt>
<trkpt lat="25.412603" lon="100.706143">
<time>2016-04-06T12:51:29Z</time></trkpt>
<trkpt lat="25.412673" lon="100.706113">
<time>2016-04-06T12:51:30Z</time></trkpt>
<trkpt lat="25.412924" lon="100.705953">
<time>2016-04-06T12:51:31Z</time></trkpt>
<trkpt lat="25.412964" lon="100.705933">
<time>2016-04-06T12:51:32Z</time></trkpt>
<trkpt lat="25.413054" lon="100.705863">
<time>2016-04-06T12:51:33Z</time></trkpt>
<trkpt lat="25.413224" lon="100.705744">
<time>2016-04-06T12:51:34Z</time></trkpt>
<trkpt lat="25.413685" lon="100.705414">
<time>2016-04-06T12:51:35Z</time></trkpt>
<trkpt lat="25.414065" lon="100.705125">
<time>2016-04-06T12:51:36Z</time></trkpt>
<trkpt lat="25.414536" lon="100.704766">
<time>2016-04-06T12:51:37Z</time></trkpt>
<trkpt lat="25.414756" lon="100.704606">
<time>2016-04-06T12:51:38Z</time></trkpt>
<trkpt lat="25.414906" lon="100.704496">
<time>2016-04-06T12:51:39Z</time></trkpt>
<trkpt lat="25.415367" lon="100.704157">
<time>2016-04-06T12:51:40Z</time></trkpt>
<trkpt lat="25.415567" lon="100.703987">
<time>2016-04-06T12:51:41Z</time></trkpt>
<trkpt lat="25.415687" lon="100.703907">
<time>2016-04-06T12:51:42Z</time></trkpt>
<trkpt lat="25.415777" lon="100.703858">
<time>2016-04-06T12:51:43Z</time></trkpt>
<trkpt lat="25.415867" lon="100.703798">
<time>2016-04-06T12:51:44Z</time></trkpt>
<trkpt lat="25.415938" lon="100.703748">
<time>2016-04-06T12:51:45Z</time></trkpt>
<trkpt lat="25.416048" lon="100.703668">
<time>2016-04-06T12:51:46Z</time></trkpt>
<trkpt lat="25.416198" lon="100.703558">
<time>2016-04-06T12:51:47Z</time></trkpt>
<trkpt lat="25.416428" lon="100.703408">
<time>2016-04-06T12:51:48Z</time></trkpt>
<trkpt lat="25.416598" lon="100.703309">
<time>2016-04-06T12:51:49Z</time></trkpt>
<trkpt lat="25.416658" lon="100.703289">
<time>2016-04-06T12:51:50Z</time></trkpt>
<trkpt lat="25.416678" lon="100.703269">
<time>2016-04-06T12:51:51Z</time></trkpt>
<trkpt lat="25.416829" lon="100.703169">
<time>2016-04-06T12:51:52Z</time></trkpt>
<trkpt lat="25.416959" lon="100.703079">
<time>2016-04-06T12:51:53Z</time></trkpt>
<trkpt lat="25.417349" lon="100.70277">
<time>2016-04-06T12:51:54Z</time></trkpt>
<trkpt lat="25.417459" lon="100.70267">
<time>2016-04-06T12:51:55Z</time></trkpt>
<trkpt lat="25.41757" lon="100.70254">
<time>2016-04-06T12:51:56Z</time></trkpt>
<trkpt lat="25.41768" lon="100.702461">
<time>2016-04-06T12:51:57Z</time></trkpt>
<trkpt lat="25.41792" lon="100.702231">
<time>2016-04-06T12:51:58Z</time></trkpt>
<trkpt lat="25.418131" lon="100.702041">
<time>2016-04-06T12:51:59Z</time></trkpt>
<trkpt lat="25.418391" lon="100.701822">
<time>2016-04-06T12:52:00Z</time></trkpt>
<trkpt lat="25.418551" lon="100.701702">
<time>2016-04-06T12:52:01Z</time></trkpt>
<trkpt lat="25.418772" lon="100.701532">
<time>2016-04-06T12:52:02Z</time></trkpt>
<trkpt lat="25.419002" lon="100.701333">
<time>2016-04-06T12:52:03Z</time></trkpt>
<trkpt lat="25.419222" lon="100.701183">
<time>2016-04-06T12:52:04Z</time></trkpt>
<trkpt lat="25.419372" lon="100.701044">
<time>2016-04-06T12:52:05Z</time></trkpt>
<trkpt lat="25.419593" lon="100.700874">
<time>2016-04-06T12:52:06Z</time></trkpt>
<trkpt lat="25.419813" lon="100.700734">
<time>2016-04-06T12:52:07Z</time></trkpt>
<trkpt lat="25.420053" lon="100.700535">
<time>2016-04-06T12:52:08Z</time></trkpt>
<trkpt lat="25.420514" lon="100.700175">
<time>2016-04-06T12:52:09Z</time></trkpt>
<trkpt lat="25.420714" lon="100.700006">
<time>2016-04-06T12:52:10Z</time></trkpt>
<trkpt lat="25.421145" lon="100.699677">
<time>2016-04-06T12:52:11Z</time></trkpt>
<trkpt lat="25.421445" lon="100.699437">
<time>2016-04-06T12:52:12Z</time></trkpt>
<trkpt lat="25.421676" lon="100.699237">
<time>2016-04-06T12:52:13Z</time></trkpt>
<trkpt lat="25.421936" lon="100.699028">
<time>2016-04-06T12:52:14Z</time></trkpt>
<trkpt lat="25.422166" lon="100.698858">
<time>2016-04-06T12:52:15Z</time></trkpt>
<trkpt lat="25.422377" lon="100.698689">
<time>2016-04-06T12:52:16Z</time></trkpt>
<trkpt lat="25.422527" lon="100.698549">
<time>2016-04-06T12:52:17Z</time></trkpt>
<trkpt lat="25.422577" lon="100.698489">
<time>2016-04-06T12:52:18Z</time></trkpt>
<trkpt lat="25.422657" lon="100.69832">
<time>2016-04-06T12:52:19Z</time></trkpt>
<trkpt lat="25.422818" lon="100.69793">
<time>2016-04-06T12:52:20Z</time></trkpt>
<trkpt lat="25.422989" lon="100.697511">
<time>2016-04-06T12:52:21Z</time></trkpt>
<trkpt lat="25.42316" lon="100.697112">
<time>2016-04-06T12:52:22Z</time></trkpt>
<trkpt lat="25.42329" lon="100.696793">
<time>2016-04-06T12:52:23Z</time></trkpt>
<trkpt lat="25.423501" lon="100.696324">
<time>2016-04-06T12:52:24Z</time></trkpt>
<trkpt lat="25.423702" lon="100.695855">
<time>2016-04-06T12:52:25Z</time></trkpt>
<trkpt lat="25.423913" lon="100.695396">
<time>2016-04-06T12:52:26Z</time></trkpt>
<trkpt lat="25.423943" lon="100.695326">
<time>2016-04-06T12:52:27Z</time></trkpt>
<trkpt lat="25.424093" lon="100.694947">
<time>2016-04-06T12:52:28Z</time></trkpt>
<trkpt lat="25.424284" lon="100.694518">
<time>2016-04-06T12:52:29Z</time></trkpt>
<trkpt lat="25.424465" lon="100.694099">
<time>2016-04-06T12:52:30Z</time></trkpt>
<trkpt lat="25.424646" lon="100.69368">
<time>2016-04-06T12:52:31Z</time></trkpt>
<trkpt lat="25.424816" lon="100.693301">
<time>2016-04-06T12:52:32Z</time></trkpt>
<trkpt lat="25.424857" lon="100.693201">
<time>2016-04-06T12:52:33Z</time></trkpt>
<trkpt lat="25.424877" lon="100.693151">
<time>2016-04-06T12:52:34Z</time></trkpt>
<trkpt lat="25.425007" lon="100.692832">
<time>2016-04-06T12:52:35Z</time></trkpt>
<trkpt lat="25.425178" lon="100.692433">
<time>2016-04-06T12:52:36Z</time></trkpt>
<trkpt lat="25.425318" lon="100.692144">
<time>2016-04-06T12:52:37Z</time></trkpt>
<trkpt lat="25.425629" lon="100.691625">
<time>2016-04-06T12:52:38Z</time></trkpt>
<trkpt lat="25.425629" lon="100.691625">
<time>2016-04-06T12:52:39Z</time></trkpt>
<trkpt lat="25.42585" lon="100.691226">
<time>2016-04-06T12:52:40Z</time></trkpt>
<trkpt lat="25.425951" lon="100.691026">
<time>2016-04-06T12:52:41Z</time></trkpt>
<trkpt lat="25.426021" lon="100.690847">
<time>2016-04-06T12:52:42Z</time></trkpt>
<trkpt lat="25.426091" lon="100.690727">
<time>2016-04-06T12:52:43Z</time></trkpt>
<trkpt lat="25.426171" lon="100.690558">
<time>2016-04-06T12:52:44Z</time></trkpt>
<trkpt lat="25.426242" lon="100.690398">
<time>2016-04-06T12:52:45Z</time></trkpt>
<trkpt lat="25.426312" lon="100.690258">
<time>2016-04-06T12:52:46Z</time></trkpt>
<trkpt lat="25.426362" lon="100.690109">
<time>2016-04-06T12:52:47Z</time></trkpt>
<trkpt lat="25.426402" lon="100.690009">
<time>2016-04-06T12:52:48Z</time></trkpt>
<trkpt lat="25.426413" lon="100.689969">
<time>2016-04-06T12:52:49Z</time></trkpt>
<trkpt lat="25.426463" lon="100.689839">
<time>2016-04-06T12:52:50Z</time></trkpt>
<trkpt lat="25.426543" lon="100.68968">
<time>2016-04-06T12:52:51Z</time></trkpt>
<trkpt lat="25.426603" lon="100.68951">
<time>2016-04-06T12:52:52Z</time></trkpt>
<trkpt lat="25.426684" lon="100.689261">
<time>2016-04-06T12:52:53Z</time></trkpt>
<trkpt lat="25.426734" lon="100.689021">
<time>2016-04-06T12:52:54Z</time></trkpt>
<trkpt lat="25.426745" lon="100.688882">
<time>2016-04-06T12:52:55Z</time></trkpt>
<trkpt lat="25.426765" lon="100.688732">
<time>2016-04-06T12:52:56Z</time></trkpt>
<trkpt lat="25.426785" lon="100.688572">
<time>2016-04-06T12:52:57Z</time></trkpt>
<trkpt lat="25.426785" lon="100.688443">
<time>2016-04-06T12:52:58Z</time></trkpt>
<trkpt lat="25.426806" lon="100.688323">
<time>2016-04-06T12:52:59Z</time></trkpt>
<trkpt lat="25.426816" lon="100.688123">
<time>2016-04-06T12:53:00Z</time></trkpt>
<trkpt lat="25.426816" lon="100.688034">
<time>2016-04-06T12:53:01Z</time></trkpt>
<trkpt lat="25.426826" lon="100.687964">
<time>2016-04-06T12:53:02Z</time></trkpt>
<trkpt lat="25.426847" lon="100.687774">
<time>2016-04-06T12:53:03Z</time></trkpt>
<trkpt lat="25.426867" lon="100.687655">
<time>2016-04-06T12:53:04Z</time></trkpt>
<trkpt lat="25.426877" lon="100.687535">
<time>2016-04-06T12:53:05Z</time></trkpt>
<trkpt lat="25.426877" lon="100.687405">
<time>2016-04-06T12:53:06Z</time></trkpt>
<trkpt lat="25.426867" lon="100.687266">
<time>2016-04-06T12:53:07Z</time></trkpt>
<trkpt lat="25.426878" lon="100.687136">
<time>2016-04-06T12:53:08Z</time></trkpt>
<trkpt lat="25.426878" lon="100.687016">
<time>2016-04-06T12:53:09Z</time></trkpt>
<trkpt lat="25.426888" lon="100.686886">
<time>2016-04-06T12:53:10Z</time></trkpt>
<trkpt lat="25.426888" lon="100.686757">
<time>2016-04-06T12:53:11Z</time></trkpt>
<trkpt lat="25.426889" lon="100.686607">
<time>2016-04-06T12:53:12Z</time></trkpt>
<trkpt lat="25.426909" lon="100.686448">
<time>2016-04-06T12:53:13Z</time></trkpt>
<trkpt lat="25.426919" lon="100.686278">
<time>2016-04-06T12:53:14Z</time></trkpt>
<trkpt lat="25.42693" lon="100.686108">
<time>2016-04-06T12:53:15Z</time></trkpt>
<trkpt lat="25.42693" lon="100.685929">
<time>2016-04-06T12:53:16Z</time></trkpt>
<trkpt lat="25.42693" lon="100.685889">
<time>2016-04-06T12:53:17Z</time></trkpt>
<trkpt lat="25.42694" lon="100.685749">
<time>2016-04-06T12:53:18Z</time></trkpt>
<trkpt lat="25.426941" lon="100.68557">
<time>2016-04-06T12:53:19Z</time></trkpt>
<trkpt lat="25.426951" lon="100.68541">
<time>2016-04-06T12:53:20Z</time></trkpt>
<trkpt lat="25.426941" lon="100.68526">
<time>2016-04-06T12:53:21Z</time></trkpt>
<trkpt lat="25.426951" lon="100.685111">
<time>2016-04-06T12:53:22Z</time></trkpt>
<trkpt lat="25.426982" lon="100.684961">
<time>2016-04-06T12:53:23Z</time></trkpt>
<trkpt lat="25.426992" lon="100.684792">
<time>2016-04-06T12:53:24Z</time></trkpt>
<trkpt lat="25.427002" lon="100.684612">
<time>2016-04-06T12:53:25Z</time></trkpt>
<trkpt lat="25.427003" lon="100.684423">
<time>2016-04-06T12:53:26Z</time></trkpt>
<trkpt lat="25.427013" lon="100.684233">
<time>2016-04-06T12:53:27Z</time></trkpt>
<trkpt lat="25.427013" lon="100.684044">
<time>2016-04-06T12:53:28Z</time></trkpt>
<trkpt lat="25.427034" lon="100.683844">
<time>2016-04-06T12:53:29Z</time></trkpt>
<trkpt lat="25.427044" lon="100.683605">
<time>2016-04-06T12:53:30Z</time></trkpt>
<trkpt lat="25.427055" lon="100.683405">
<time>2016-04-06T12:53:31Z</time></trkpt>
<trkpt lat="25.427075" lon="100.683176">
<time>2016-04-06T12:53:32Z</time></trkpt>
<trkpt lat="25.427085" lon="100.682976">
<time>2016-04-06T12:53:33Z</time></trkpt>
<trkpt lat="25.427086" lon="100.682717">
<time>2016-04-06T12:53:34Z</time></trkpt>
<trkpt lat="25.427086" lon="100.682607">
<time>2016-04-06T12:53:35Z</time></trkpt>
<trkpt lat="25.427096" lon="100.682487">
<time>2016-04-06T12:53:36Z</time></trkpt>
<trkpt lat="25.427097" lon="100.682248">
<time>2016-04-06T12:53:37Z</time></trkpt>
<trkpt lat="25.427107" lon="100.682019">
<time>2016-04-06T12:53:38Z</time></trkpt>
<trkpt lat="25.427118" lon="100.681779">
<time>2016-04-06T12:53:39Z</time></trkpt>
<trkpt lat="25.427128" lon="100.68156">
<time>2016-04-06T12:53:40Z</time></trkpt>
<trkpt lat="25.427108" lon="100.68134">
<time>2016-04-06T12:53:41Z</time></trkpt>
<trkpt lat="25.427049" lon="100.681111">
<time>2016-04-06T12:53:42Z</time></trkpt>
<trkpt lat="25.426949" lon="100.680891">
<time>2016-04-06T12:53:43Z</time></trkpt>
<trkpt lat="25.42682" lon="100.680692">
<time>2016-04-06T12:53:44Z</time></trkpt>
<trkpt lat="25.42666" lon="100.680472">
<time>2016-04-06T12:53:45Z</time></trkpt>
<trkpt lat="25.42649" lon="100.680243">
<time>2016-04-06T12:53:46Z</time></trkpt>
<trkpt lat="25.426301" lon="100.680014">
<time>2016-04-06T12:53:47Z</time></trkpt>
<trkpt lat="25.426121" lon="100.679784">
<time>2016-04-06T12:53:48Z</time></trkpt>
<trkpt lat="25.425942" lon="100.679555">
<time>2016-04-06T12:53:49Z</time></trkpt>
<trkpt lat="25.425912" lon="100.679515">
<time>2016-04-06T12:53:50Z</time></trkpt>
<trkpt lat="25.425782" lon="100.679335">
<time>2016-04-06T12:53:51Z</time></trkpt>
<trkpt lat="25.425652" lon="100.679176">
<time>2016-04-06T12:53:52Z</time></trkpt>
<trkpt lat="25.425532" lon="100.679016">
<time>2016-04-06T12:53:53Z</time></trkpt>
<trkpt lat="25.425403" lon="100.678837">
<time>2016-04-06T12:53:54Z</time></trkpt>
<trkpt lat="25.425393" lon="100.678817">
<time>2016-04-06T12:53:55Z</time></trkpt>
<trkpt lat="25.425253" lon="100.678667">
<time>2016-04-06T12:53:56Z</time></trkpt>
<trkpt lat="25.425113" lon="100.678478">
<time>2016-04-06T12:53:57Z</time></trkpt>
<trkpt lat="25.424964" lon="100.678298">
<time>2016-04-06T12:53:58Z</time></trkpt>
<trkpt lat="25.424834" lon="100.678099">
<time>2016-04-06T12:53:59Z</time></trkpt>
<trkpt lat="25.424684" lon="100.677899">
<time>2016-04-06T12:54:00Z</time></trkpt>
<trkpt lat="25.424575" lon="100.67765">
<time>2016-04-06T12:54:01Z</time></trkpt>
<trkpt lat="25.424485" lon="100.67745">
<time>2016-04-06T12:54:02Z</time></trkpt>
<trkpt lat="25.424396" lon="100.677181">
<time>2016-04-06T12:54:03Z</time></trkpt>
<trkpt lat="25.424296" lon="100.676892">
<time>2016-04-06T12:54:04Z</time></trkpt>
<trkpt lat="25.424207" lon="100.676562">
<time>2016-04-06T12:54:05Z</time></trkpt>
<trkpt lat="25.424107" lon="100.676293">
<time>2016-04-06T12:54:06Z</time></trkpt>
<trkpt lat="25.424008" lon="100.676024">
<time>2016-04-06T12:54:07Z</time></trkpt>
<trkpt lat="25.423918" lon="100.675774">
<time>2016-04-06T12:54:08Z</time></trkpt>
<trkpt lat="25.423839" lon="100.675555">
<time>2016-04-06T12:54:09Z</time></trkpt>
<trkpt lat="25.423769" lon="100.675365">
<time>2016-04-06T12:54:10Z</time></trkpt>
<trkpt lat="25.423709" lon="100.675166">
<time>2016-04-06T12:54:11Z</time></trkpt>
<trkpt lat="25.42363" lon="100.674967">
<time>2016-04-06T12:54:12Z</time></trkpt>
<trkpt lat="25.42355" lon="100.674757">
<time>2016-04-06T12:54:13Z</time></trkpt>
<trkpt lat="25.42347" lon="100.674558">
<time>2016-04-06T12:54:14Z</time></trkpt>
<trkpt lat="25.423391" lon="100.674398">
<time>2016-04-06T12:54:15Z</time></trkpt>
<trkpt lat="25.423331" lon="100.674238">
<time>2016-04-06T12:54:16Z</time></trkpt>
<trkpt lat="25.423271" lon="100.674079">
<time>2016-04-06T12:54:17Z</time></trkpt>
<trkpt lat="25.423202" lon="100.673909">
<time>2016-04-06T12:54:18Z</time></trkpt>
<trkpt lat="25.423112" lon="100.67375">
<time>2016-04-06T12:54:19Z</time></trkpt>
<trkpt lat="25.423042" lon="100.67356">
<time>2016-04-06T12:54:20Z</time></trkpt>
<trkpt lat="25.422973" lon="100.673351">
<time>2016-04-06T12:54:21Z</time></trkpt>
<trkpt lat="25.422893" lon="100.673141">
<time>2016-04-06T12:54:22Z</time></trkpt>
<trkpt lat="25.422803" lon="100.672952">
<time>2016-04-06T12:54:23Z</time></trkpt>
<trkpt lat="25.422734" lon="100.672802">
<time>2016-04-06T12:54:24Z</time></trkpt>
<trkpt lat="25.422674" lon="100.672652">
<time>2016-04-06T12:54:25Z</time></trkpt>
<trkpt lat="25.422594" lon="100.672443">
<time>2016-04-06T12:54:26Z</time></trkpt>
<trkpt lat="25.422505" lon="100.672263">
<time>2016-04-06T12:54:27Z</time></trkpt>
<trkpt lat="25.422415" lon="100.672064">
<time>2016-04-06T12:54:28Z</time></trkpt>
<trkpt lat="25.422335" lon="100.671864">
<time>2016-04-06T12:54:29Z</time></trkpt>
<trkpt lat="25.422246" lon="100.671675">
<time>2016-04-06T12:54:30Z</time></trkpt>
<trkpt lat="25.422156" lon="100.671505">
<time>2016-04-06T12:54:31Z</time></trkpt>
<trkpt lat="25.422096" lon="100.671416">
<time>2016-04-06T12:54:32Z</time></trkpt>
<trkpt lat="25.422056" lon="100.671346">
<time>2016-04-06T12:54:33Z</time></trkpt>
<trkpt lat="25.421957" lon="100.671196">
<time>2016-04-06T12:54:34Z</time></trkpt>
<trkpt lat="25.421857" lon="100.671047">
<time>2016-04-06T12:54:35Z</time></trkpt>
<trkpt lat="25.421757" lon="100.670887">
<time>2016-04-06T12:54:36Z</time></trkpt>
<trkpt lat="25.421667" lon="100.670737">
<time>2016-04-06T12:54:37Z</time></trkpt>
<trkpt lat="25.421548" lon="100.670578">
<time>2016-04-06T12:54:38Z</time></trkpt>
<trkpt lat="25.421448" lon="100.670398">
<time>2016-04-06T12:54:39Z</time></trkpt>
<trkpt lat="25.421318" lon="100.670229">
<time>2016-04-06T12:54:40Z</time></trkpt>
<trkpt lat="25.421219" lon="100.670069">
<time>2016-04-06T12:54:41Z</time></trkpt>
<trkpt lat="25.421099" lon="100.669909">
<time>2016-04-06T12:54:42Z</time></trkpt>
<trkpt lat="25.421009" lon="100.66975">
<time>2016-04-06T12:54:43Z</time></trkpt>
<trkpt lat="25.420899" lon="100.66959">
<time>2016-04-06T12:54:44Z</time></trkpt>
<trkpt lat="25.42078" lon="100.669441">
<time>2016-04-06T12:54:45Z</time></trkpt>
<trkpt lat="25.42067" lon="100.669291">
<time>2016-04-06T12:54:46Z</time></trkpt>
<trkpt lat="25.42058" lon="100.669131">
<time>2016-04-06T12:54:47Z</time></trkpt>
<trkpt lat="25.42056" lon="100.669092">
<time>2016-04-06T12:54:48Z</time></trkpt>
<trkpt lat="25.420501" lon="100.668952">
<time>2016-04-06T12:54:49Z</time></trkpt>
<trkpt lat="25.420421" lon="100.668772">
<time>2016-04-06T12:54:50Z</time></trkpt>
<trkpt lat="25.420381" lon="100.668683">
<time>2016-04-06T12:54:51Z</time></trkpt>
<trkpt lat="25.420341" lon="100.668583">
<time>2016-04-06T12:54:52Z</time></trkpt>
<trkpt lat="25.420272" lon="100.668413">
<time>2016-04-06T12:54:53Z</time></trkpt>
<trkpt lat="25.420222" lon="100.668264">
<time>2016-04-06T12:54:54Z</time></trkpt>
<trkpt lat="25.420162" lon="100.668134">
<time>2016-04-06T12:54:55Z</time></trkpt>
<trkpt lat="25.420102" lon="100.668014">
<time>2016-04-06T12:54:56Z</time></trkpt>
<trkpt lat="25.420032" lon="100.667875">
<time>2016-04-06T12:54:57Z</time></trkpt>
<trkpt lat="25.419993" lon="100.667715">
<time>2016-04-06T12:54:58Z</time></trkpt>
<trkpt lat="25.419923" lon="100.667565">
<time>2016-04-06T12:54:59Z</time></trkpt>
<trkpt lat="25.419853" lon="100.667386">
<time>2016-04-06T12:55:00Z</time></trkpt>
<trkpt lat="25.419764" lon="100.667206">
<time>2016-04-06T12:55:01Z</time></trkpt>
<trkpt lat="25.419674" lon="100.667057">
<time>2016-04-06T12:55:02Z</time></trkpt>
<trkpt lat="25.419574" lon="100.666897">
<time>2016-04-06T12:55:03Z</time></trkpt>
<trkpt lat="25.419505" lon="100.666738">
<time>2016-04-06T12:55:04Z</time></trkpt>
<trkpt lat="25.419435" lon="100.666588">
<time>2016-04-06T12:55:05Z</time></trkpt>
<trkpt lat="25.419365" lon="100.666438">
<time>2016-04-06T12:55:06Z</time></trkpt>
<trkpt lat="25.419295" lon="100.666309">
<time>2016-04-06T12:55:07Z</time></trkpt>
<trkpt lat="25.419236" lon="100.666179">
<time>2016-04-06T12:55:08Z</time></trkpt>
<trkpt lat="25.419176" lon="100.666059">
<time>2016-04-06T12:55:09Z</time></trkpt>
<trkpt lat="25.419166" lon="100.666039">
<time>2016-04-06T12:55:10Z</time></trkpt>
<trkpt lat="25.419116" lon="100.66594">
<time>2016-04-06T12:55:11Z</time></trkpt>
<trkpt lat="25.419046" lon="100.66581">
<time>2016-04-06T12:55:12Z</time></trkpt>
<trkpt lat="25.418976" lon="100.66566">
<time>2016-04-06T12:55:13Z</time></trkpt>
<trkpt lat="25.418907" lon="100.665531">
<time>2016-04-06T12:55:14Z</time></trkpt>
<trkpt lat="25.418827" lon="100.665331">
<time>2016-04-06T12:55:15Z</time></trkpt>
<trkpt lat="25.418777" lon="100.665162">
<time>2016-04-06T12:55:16Z</time></trkpt>
<trkpt lat="25.418688" lon="100.664882">
<time>2016-04-06T12:55:17Z</time></trkpt>
<trkpt lat="25.418578" lon="100.664673">
<time>2016-04-06T12:55:18Z</time></trkpt>
<trkpt lat="25.418499" lon="100.664443">
<time>2016-04-06T12:55:19Z</time></trkpt>
<trkpt lat="25.418389" lon="100.664234">
<time>2016-04-06T12:55:20Z</time></trkpt>
<trkpt lat="25.418289" lon="100.664005">
<time>2016-04-06T12:55:21Z</time></trkpt>
<trkpt lat="25.4182" lon="100.663745">
<time>2016-04-06T12:55:22Z</time></trkpt>
<trkpt lat="25.41806" lon="100.663506">
<time>2016-04-06T12:55:23Z</time></trkpt>
<trkpt lat="25.417991" lon="100.663366">
<time>2016-04-06T12:55:24Z</time></trkpt>
<trkpt lat="25.417891" lon="100.663127">
<time>2016-04-06T12:55:25Z</time></trkpt>
<trkpt lat="25.417771" lon="100.662907">
<time>2016-04-06T12:55:26Z</time></trkpt>
<trkpt lat="25.417652" lon="100.662688">
<time>2016-04-06T12:55:27Z</time></trkpt>
<trkpt lat="25.417482" lon="100.662508">
<time>2016-04-06T12:55:28Z</time></trkpt>
<trkpt lat="25.417302" lon="100.662339">
<time>2016-04-06T12:55:29Z</time></trkpt>
<trkpt lat="25.417103" lon="100.662199">
<time>2016-04-06T12:55:30Z</time></trkpt>
<trkpt lat="25.416903" lon="100.662069">
<time>2016-04-06T12:55:31Z</time></trkpt>
<trkpt lat="25.416713" lon="100.66196">
<time>2016-04-06T12:55:32Z</time></trkpt>
<trkpt lat="25.416683" lon="100.66194">
<time>2016-04-06T12:55:33Z</time></trkpt>
<trkpt lat="25.416363" lon="100.6617">
<time>2016-04-06T12:55:34Z</time></trkpt>
<trkpt lat="25.416194" lon="100.661581">
<time>2016-04-06T12:55:35Z</time></trkpt>
<trkpt lat="25.416024" lon="100.661481">
<time>2016-04-06T12:55:36Z</time></trkpt>
<trkpt lat="25.415864" lon="100.661381">
<time>2016-04-06T12:55:37Z</time></trkpt>
<trkpt lat="25.415774" lon="100.661301">
<time>2016-04-06T12:55:38Z</time></trkpt>
<trkpt lat="25.415694" lon="100.661252">
<time>2016-04-06T12:55:39Z</time></trkpt>
<trkpt lat="25.415564" lon="100.661132">
<time>2016-04-06T12:55:40Z</time></trkpt>
<trkpt lat="25.415475" lon="100.661032">
<time>2016-04-06T12:55:41Z</time></trkpt>
<trkpt lat="25.415365" lon="100.660912">
<time>2016-04-06T12:55:42Z</time></trkpt>
<trkpt lat="25.415255" lon="100.660763">
<time>2016-04-06T12:55:43Z</time></trkpt>
<trkpt lat="25.415125" lon="100.660603">
<time>2016-04-06T12:55:44Z</time></trkpt>
<trkpt lat="25.414995" lon="100.660464">
<time>2016-04-06T12:55:45Z</time></trkpt>
<trkpt lat="25.414866" lon="100.660304">
<time>2016-04-06T12:55:46Z</time></trkpt>
<trkpt lat="25.414766" lon="100.660124">
<time>2016-04-06T12:55:47Z</time></trkpt>
<trkpt lat="25.414686" lon="100.659905">
<time>2016-04-06T12:55:48Z</time></trkpt>
<trkpt lat="25.414647" lon="100.659656">
<time>2016-04-06T12:55:49Z</time></trkpt>
<trkpt lat="25.414597" lon="100.659426">
<time>2016-04-06T12:55:50Z</time></trkpt>
<trkpt lat="25.414568" lon="100.659197">
<time>2016-04-06T12:55:51Z</time></trkpt>
<trkpt lat="25.414528" lon="100.658957">
<time>2016-04-06T12:55:52Z</time></trkpt>
<trkpt lat="25.414489" lon="100.658708">
<time>2016-04-06T12:55:53Z</time></trkpt>
<trkpt lat="25.414449" lon="100.658449">
<time>2016-04-06T12:55:54Z</time></trkpt>
<trkpt lat="25.41441" lon="100.658179">
<time>2016-04-06T12:55:55Z</time></trkpt>
<trkpt lat="25.41437" lon="100.6579">
<time>2016-04-06T12:55:56Z</time></trkpt>
<trkpt lat="25.414331" lon="100.657611">
<time>2016-04-06T12:55:57Z</time></trkpt>
<trkpt lat="25.414291" lon="100.657321">
<time>2016-04-06T12:55:58Z</time></trkpt>
<trkpt lat="25.414252" lon="100.657042">
<time>2016-04-06T12:55:59Z</time></trkpt>
<trkpt lat="25.414222" lon="100.656763">
<time>2016-04-06T12:56:00Z</time></trkpt>
<trkpt lat="25.414233" lon="100.656493">
<time>2016-04-06T12:56:01Z</time></trkpt>
<trkpt lat="25.414283" lon="100.656254">
<time>2016-04-06T12:56:02Z</time></trkpt>
<trkpt lat="25.414384" lon="100.656005">
<time>2016-04-06T12:56:03Z</time></trkpt>
<trkpt lat="25.414534" lon="100.655785">
<time>2016-04-06T12:56:04Z</time></trkpt>
<trkpt lat="25.414684" lon="100.655566">
<time>2016-04-06T12:56:05Z</time></trkpt>
<trkpt lat="25.414825" lon="100.655366">
<time>2016-04-06T12:56:06Z</time></trkpt>
<trkpt lat="25.414935" lon="100.655117">
<time>2016-04-06T12:56:07Z</time></trkpt>
<trkpt lat="25.414976" lon="100.654887">
<time>2016-04-06T12:56:08Z</time></trkpt>
<trkpt lat="25.414936" lon="100.654638">
<time>2016-04-06T12:56:09Z</time></trkpt>
<trkpt lat="25.414837" lon="100.654398">
<time>2016-04-06T12:56:10Z</time></trkpt>
<trkpt lat="25.414707" lon="100.654139">
<time>2016-04-06T12:56:11Z</time></trkpt>
<trkpt lat="25.414578" lon="100.65387">
<time>2016-04-06T12:56:12Z</time></trkpt>
<trkpt lat="25.414448" lon="100.65365">
<time>2016-04-06T12:56:13Z</time></trkpt>
<trkpt lat="25.414278" lon="100.653361">
<time>2016-04-06T12:56:14Z</time></trkpt>
<trkpt lat="25.414119" lon="100.653122">
<time>2016-04-06T12:56:15Z</time></trkpt>
<trkpt lat="25.413909" lon="100.652822">
<time>2016-04-06T12:56:16Z</time></trkpt>
<trkpt lat="25.41374" lon="100.652543">
<time>2016-04-06T12:56:17Z</time></trkpt>
<trkpt lat="25.41364" lon="100.652323">
<time>2016-04-06T12:56:18Z</time></trkpt>
<trkpt lat="25.4136" lon="100.652104">
<time>2016-04-06T12:56:19Z</time></trkpt>
<trkpt lat="25.413651" lon="100.651904">
<time>2016-04-06T12:56:20Z</time></trkpt>
<trkpt lat="25.413791" lon="100.651775">
<time>2016-04-06T12:56:21Z</time></trkpt>
<trkpt lat="25.413961" lon="100.651675">
<time>2016-04-06T12:56:22Z</time></trkpt>
<trkpt lat="25.414162" lon="100.651565">
<time>2016-04-06T12:56:23Z</time></trkpt>
<trkpt lat="25.414372" lon="100.651426">
<time>2016-04-06T12:56:24Z</time></trkpt>
<trkpt lat="25.414612" lon="100.651286">
<time>2016-04-06T12:56:25Z</time></trkpt>
<trkpt lat="25.414852" lon="100.651156">
<time>2016-04-06T12:56:26Z</time></trkpt>
<trkpt lat="25.415093" lon="100.650997">
<time>2016-04-06T12:56:27Z</time></trkpt>
<trkpt lat="25.415313" lon="100.650817">
<time>2016-04-06T12:56:28Z</time></trkpt>
<trkpt lat="25.415533" lon="100.650637">
<time>2016-04-06T12:56:29Z</time></trkpt>
<trkpt lat="25.415764" lon="100.650488">
<time>2016-04-06T12:56:30Z</time></trkpt>
<trkpt lat="25.416044" lon="100.650368">
<time>2016-04-06T12:56:31Z</time></trkpt>
<trkpt lat="25.416284" lon="100.650228">
<time>2016-04-06T12:56:32Z</time></trkpt>
<trkpt lat="25.416525" lon="100.650069">
<time>2016-04-06T12:56:33Z</time></trkpt>
<trkpt lat="25.416685" lon="100.649969">
<time>2016-04-06T12:56:34Z</time></trkpt>
<trkpt lat="25.416755" lon="100.649929">
<time>2016-04-06T12:56:35Z</time></trkpt>
<trkpt lat="25.417065" lon="100.649779">
<time>2016-04-06T12:56:36Z</time></trkpt>
<trkpt lat="25.417276" lon="100.64966">
<time>2016-04-06T12:56:37Z</time></trkpt>
<trkpt lat="25.417526" lon="100.6495">
<time>2016-04-06T12:56:38Z</time></trkpt>
<trkpt lat="25.417706" lon="100.649301">
<time>2016-04-06T12:56:39Z</time></trkpt>
<trkpt lat="25.417837" lon="100.649091">
<time>2016-04-06T12:56:40Z</time></trkpt>
<trkpt lat="25.417897" lon="100.648852">
<time>2016-04-06T12:56:41Z</time></trkpt>
<trkpt lat="25.417928" lon="100.648582">
<time>2016-04-06T12:56:42Z</time></trkpt>
<trkpt lat="25.417938" lon="100.648303">
<time>2016-04-06T12:56:43Z</time></trkpt>
<trkpt lat="25.417939" lon="100.648014">
<time>2016-04-06T12:56:44Z</time></trkpt>
<trkpt lat="25.417939" lon="100.647724">
<time>2016-04-06T12:56:45Z</time></trkpt>
<trkpt lat="25.41796" lon="100.647435">
<time>2016-04-06T12:56:46Z</time></trkpt>
<trkpt lat="25.41798" lon="100.647126">
<time>2016-04-06T12:56:47Z</time></trkpt>
<trkpt lat="25.418011" lon="100.646826">
<time>2016-04-06T12:56:48Z</time></trkpt>
<trkpt lat="25.418021" lon="100.646537">
<time>2016-04-06T12:56:49Z</time></trkpt>
<trkpt lat="25.417971" lon="100.646267">
<time>2016-04-06T12:56:50Z</time></trkpt>
<trkpt lat="25.417862" lon="100.646028">
<time>2016-04-06T12:56:51Z</time></trkpt>
<trkpt lat="25.417702" lon="100.645809">
<time>2016-04-06T12:56:52Z</time></trkpt>
<trkpt lat="25.417502" lon="100.645609">
<time>2016-04-06T12:56:53Z</time></trkpt>
<trkpt lat="25.417293" lon="100.645419">
<time>2016-04-06T12:56:54Z</time></trkpt>
<trkpt lat="25.417083" lon="100.64523">
<time>2016-04-06T12:56:55Z</time></trkpt>
<trkpt lat="25.416893" lon="100.64503">
<time>2016-04-06T12:56:56Z</time></trkpt>
<trkpt lat="25.416744" lon="100.644781">
<time>2016-04-06T12:56:57Z</time></trkpt>
<trkpt lat="25.416684" lon="100.644601">
<time>2016-04-06T12:56:58Z</time></trkpt>
<trkpt lat="25.416654" lon="100.644492">
<time>2016-04-06T12:56:59Z</time></trkpt>
<trkpt lat="25.416575" lon="100.644202">
<time>2016-04-06T12:57:00Z</time></trkpt>
<trkpt lat="25.416505" lon="100.643923">
<time>2016-04-06T12:57:01Z</time></trkpt>
<trkpt lat="25.416495" lon="100.643903">
<time>2016-04-06T12:57:02Z</time></trkpt>
<trkpt lat="25.416435" lon="100.643653">
<time>2016-04-06T12:57:03Z</time></trkpt>
<trkpt lat="25.416376" lon="100.643394">
<time>2016-04-06T12:57:04Z</time></trkpt>
<trkpt lat="25.416316" lon="100.643154">
<time>2016-04-06T12:57:05Z</time></trkpt>
<trkpt lat="25.416277" lon="100.642915">
<time>2016-04-06T12:57:06Z</time></trkpt>
<trkpt lat="25.416267" lon="100.642676">
<time>2016-04-06T12:57:07Z</time></trkpt>
<trkpt lat="25.416277" lon="100.642466">
<time>2016-04-06T12:57:08Z</time></trkpt>
<trkpt lat="25.416288" lon="100.642256">
<time>2016-04-06T12:57:09Z</time></trkpt>
<trkpt lat="25.416308" lon="100.642077">
<time>2016-04-06T12:57:10Z</time></trkpt>
<trkpt lat="25.416308" lon="100.641897">
<time>2016-04-06T12:57:11Z</time></trkpt>
<trkpt lat="25.416298" lon="100.641768">
<time>2016-04-06T12:57:12Z</time></trkpt>
<trkpt lat="25.416289" lon="100.641718">
<time>2016-04-06T12:57:13Z</time></trkpt>
<trkpt lat="25.416249" lon="100.641518">
<time>2016-04-06T12:57:14Z</time></trkpt>
<trkpt lat="25.416209" lon="100.641338">
<time>2016-04-06T12:57:15Z</time></trkpt>
<trkpt lat="25.416189" lon="100.641189">
<time>2016-04-06T12:57:16Z</time></trkpt>
<trkpt lat="25.416179" lon="100.641149">
<time>2016-04-06T12:57:17Z</time></trkpt>
<trkpt lat="25.41615" lon="100.640969">
<time>2016-04-06T12:57:18Z</time></trkpt>
<trkpt lat="25.41612" lon="100.64082">
<time>2016-04-06T12:57:19Z</time></trkpt>
<trkpt lat="25.41607" lon="100.64061">
<time>2016-04-06T12:57:20Z</time></trkpt>
<trkpt lat="25.41607" lon="100.64059">
<time>2016-04-06T12:57:21Z</time></trkpt>
<trkpt lat="25.416011" lon="100.64038">
<time>2016-04-06T12:57:22Z</time></trkpt>
<trkpt lat="25.415971" lon="100.640161">
<time>2016-04-06T12:57:23Z</time></trkpt>
<trkpt lat="25.415921" lon="100.639971">
<time>2016-04-06T12:57:24Z</time></trkpt>
<trkpt lat="25.415851" lon="100.639772">
<time>2016-04-06T12:57:25Z</time></trkpt>
<trkpt lat="25.415792" lon="100.639562">
<time>2016-04-06T12:57:26Z</time></trkpt>
<trkpt lat="25.415732" lon="100.639353">
<time>2016-04-06T12:57:27Z</time></trkpt>
<trkpt lat="25.415672" lon="100.639163">
<time>2016-04-06T12:57:28Z</time></trkpt>
<trkpt lat="25.415623" lon="100.638993">
<time>2016-04-06T12:57:29Z</time></trkpt>
<trkpt lat="25.415553" lon="100.638684">
<time>2016-04-06T12:57:30Z</time></trkpt>
<trkpt lat="25.415503" lon="100.638465">
<time>2016-04-06T12:57:31Z</time></trkpt>
<trkpt lat="25.415504" lon="100.638355">
<time>2016-04-06T12:57:32Z</time></trkpt>
<trkpt lat="25.415504" lon="100.638315">
<time>2016-04-06T12:57:33Z</time></trkpt>
<trkpt lat="25.415504" lon="100.638245">
<time>2016-04-06T12:57:34Z</time></trkpt>
<trkpt lat="25.415504" lon="100.638185">
<time>2016-04-06T12:57:35Z</time></trkpt>
<trkpt lat="25.415514" lon="100.638035">
<time>2016-04-06T12:57:36Z</time></trkpt>
<trkpt lat="25.415514" lon="100.637966">
<time>2016-04-06T12:57:37Z</time></trkpt>
<trkpt lat="25.415554" lon="100.637746">
<time>2016-04-06T12:57:38Z</time></trkpt>
<trkpt lat="25.415595" lon="100.637536">
<time>2016-04-06T12:57:39Z</time></trkpt>
<trkpt lat="25.415655" lon="100.637357">
<time>2016-04-06T12:57:40Z</time></trkpt>
<trkpt lat="25.415715" lon="100.637227">
<time>2016-04-06T12:57:41Z</time></trkpt>
<trkpt lat="25.415765" lon="100.637097">
<time>2016-04-06T12:57:42Z</time></trkpt>
<trkpt lat="25.415826" lon="100.636918">
<time>2016-04-06T12:57:43Z</time></trkpt>
<trkpt lat="25.415886" lon="100.636738">
<time>2016-04-06T12:57:44Z</time></trkpt>
<trkpt lat="25.415956" lon="100.636548">
<time>2016-04-06T12:57:45Z</time></trkpt>
<trkpt lat="25.416057" lon="100.636339">
<time>2016-04-06T12:57:46Z</time></trkpt>
<trkpt lat="25.416167" lon="100.636159">
<time>2016-04-06T12:57:47Z</time></trkpt>
<trkpt lat="25.416317" lon="100.63599">
<time>2016-04-06T12:57:48Z</time></trkpt>
<trkpt lat="25.416487" lon="100.63583">
<time>2016-04-06T12:57:49Z</time></trkpt>
<trkpt lat="25.416548" lon="100.63579">
<time>2016-04-06T12:57:50Z</time></trkpt>
<trkpt lat="25.416688" lon="100.63566">
<time>2016-04-06T12:57:51Z</time></trkpt>
<trkpt lat="25.416808" lon="100.635461">
<time>2016-04-06T12:57:52Z</time></trkpt>
<trkpt lat="25.416989" lon="100.635131">
<time>2016-04-06T12:57:53Z</time></trkpt>
<trkpt lat="25.417199" lon="100.634692">
<time>2016-04-06T12:57:54Z</time></trkpt>
<trkpt lat="25.4173" lon="100.634512">
<time>2016-04-06T12:57:55Z</time></trkpt>
<trkpt lat="25.41754" lon="100.634073">
<time>2016-04-06T12:57:56Z</time></trkpt>
<trkpt lat="25.417711" lon="100.633734">
<time>2016-04-06T12:57:57Z</time></trkpt>
<trkpt lat="25.417911" lon="100.633365">
<time>2016-04-06T12:57:58Z</time></trkpt>
<trkpt lat="25.418032" lon="100.633105">
<time>2016-04-06T12:57:59Z</time></trkpt>
<trkpt lat="25.418092" lon="100.632915">
<time>2016-04-06T12:58:00Z</time></trkpt>
<trkpt lat="25.418393" lon="100.631828">
<time>2016-04-06T12:58:01Z</time></trkpt>
<trkpt lat="25.418464" lon="100.631618">
<time>2016-04-06T12:58:02Z</time></trkpt>
<trkpt lat="25.418474" lon="100.631568">
<time>2016-04-06T12:58:03Z</time></trkpt>
<trkpt lat="25.418504" lon="100.631408">
<time>2016-04-06T12:58:04Z</time></trkpt>
<trkpt lat="25.418524" lon="100.631229">
<time>2016-04-06T12:58:05Z</time></trkpt>
<trkpt lat="25.418524" lon="100.631119">
<time>2016-04-06T12:58:06Z</time></trkpt>
<trkpt lat="25.418505" lon="100.630999">
<time>2016-04-06T12:58:07Z</time></trkpt>
<trkpt lat="25.418485" lon="100.630899">
<time>2016-04-06T12:58:08Z</time></trkpt>
<trkpt lat="25.418455" lon="100.630779">
<time>2016-04-06T12:58:09Z</time></trkpt>
<trkpt lat="25.418435" lon="100.63071">
<time>2016-04-06T12:58:10Z</time></trkpt>
<trkpt lat="25.418196" lon="100.630141">
<time>2016-04-06T12:58:11Z</time></trkpt>
<trkpt lat="25.417767" lon="100.629023">
<time>2016-04-06T12:58:12Z</time></trkpt>
<trkpt lat="25.417607" lon="100.628633">
<time>2016-04-06T12:58:13Z</time></trkpt>
<trkpt lat="25.417418" lon="100.628204">
<time>2016-04-06T12:58:14Z</time></trkpt>
<trkpt lat="25.417188" lon="100.627735">
<time>2016-04-06T12:58:15Z</time></trkpt>
<trkpt lat="25.416839" lon="100.626986">
<time>2016-04-06T12:58:16Z</time></trkpt>
<trkpt lat="25.416679" lon="100.626677">
<time>2016-04-06T12:58:17Z</time></trkpt>
<trkpt lat="25.41661" lon="100.626417">
<time>2016-04-06T12:58:18Z</time></trkpt>
<trkpt lat="25.41656" lon="100.626237">
<time>2016-04-06T12:58:19Z</time></trkpt>
<trkpt lat="25.41653" lon="100.626078">
<time>2016-04-06T12:58:20Z</time></trkpt>
<trkpt lat="25.41652" lon="100.625948">
<time>2016-04-06T12:58:21Z</time></trkpt>
<trkpt lat="25.41652" lon="100.625878">
<time>2016-04-06T12:58:22Z</time></trkpt>
<trkpt lat="25.41651" lon="100.625818">
<time>2016-04-06T12:58:23Z</time></trkpt>
<trkpt lat="25.416531" lon="100.625648">
<time>2016-04-06T12:58:24Z</time></trkpt>
<trkpt lat="25.416551" lon="100.625509">
<time>2016-04-06T12:58:25Z</time></trkpt>
<trkpt lat="25.416591" lon="100.625349">
<time>2016-04-06T12:58:26Z</time></trkpt>
<trkpt lat="25.416641" lon="100.625209">
<time>2016-04-06T12:58:27Z</time></trkpt>
<trkpt lat="25.416681" lon="100.625119">
<time>2016-04-06T12:58:28Z</time></trkpt>
<trkpt lat="25.416761" lon="100.625019">
<time>2016-04-06T12:58:29Z</time></trkpt>
<trkpt lat="25.417142" lon="100.62464">
<time>2016-04-06T12:58:30Z</time></trkpt>
<trkpt lat="25.417302" lon="100.62449">
<time>2016-04-06T12:58:31Z</time></trkpt>
<trkpt lat="25.418234" lon="100.623302">
<time>2016-04-06T12:58:32Z</time></trkpt>
<trkpt lat="25.418384" lon="100.623112">
<time>2016-04-06T12:58:33Z</time></trkpt>
<trkpt lat="25.418574" lon="100.622853">
<time>2016-04-06T12:58:34Z</time></trkpt>
<trkpt lat="25.418754" lon="100.622593">
<time>2016-04-06T12:58:35Z</time></trkpt>
<trkpt lat="25.418945" lon="100.622354">
<time>2016-04-06T12:58:36Z</time></trkpt>
<trkpt lat="25.419135" lon="100.622104">
<time>2016-04-06T12:58:37Z</time></trkpt>
<trkpt lat="25.419335" lon="100.621834">
<time>2016-04-06T12:58:38Z</time></trkpt>
<trkpt lat="25.419536" lon="100.621565">
<time>2016-04-06T12:58:39Z</time></trkpt>
<trkpt lat="25.419736" lon="100.621295">
<time>2016-04-06T12:58:40Z</time></trkpt>
<trkpt lat="25.419916" lon="100.621026">
<time>2016-04-06T12:58:41Z</time></trkpt>
<trkpt lat="25.420116" lon="100.620796">
<time>2016-04-06T12:58:42Z</time></trkpt>
<trkpt lat="25.420137" lon="100.620786">
<time>2016-04-06T12:58:43Z</time></trkpt>
<trkpt lat="25.420367" lon="100.620526">
<time>2016-04-06T12:58:44Z</time></trkpt>
<trkpt lat="25.420517" lon="100.620327">
<time>2016-04-06T12:58:45Z</time></trkpt>
<trkpt lat="25.420747" lon="100.620077">
<time>2016-04-06T12:58:46Z</time></trkpt>
<trkpt lat="25.420948" lon="100.619817">
<time>2016-04-06T12:58:47Z</time></trkpt>
<trkpt lat="25.421148" lon="100.619568">
<time>2016-04-06T12:58:48Z</time></trkpt>
<trkpt lat="25.421338" lon="100.619328">
<time>2016-04-06T12:58:49Z</time></trkpt>
<trkpt lat="25.421528" lon="100.619068">
<time>2016-04-06T12:58:50Z</time></trkpt>
<trkpt lat="25.421709" lon="100.618839">
<time>2016-04-06T12:58:51Z</time></trkpt>
<trkpt lat="25.421899" lon="100.618599">
<time>2016-04-06T12:58:52Z</time></trkpt>
<trkpt lat="25.422069" lon="100.618389">
<time>2016-04-06T12:58:53Z</time></trkpt>
<trkpt lat="25.422239" lon="100.61817">
<time>2016-04-06T12:58:54Z</time></trkpt>
<trkpt lat="25.42242" lon="100.61795">
<time>2016-04-06T12:58:55Z</time></trkpt>
<trkpt lat="25.42259" lon="100.61774">
<time>2016-04-06T12:58:56Z</time></trkpt>
<trkpt lat="25.42276" lon="100.61753">
<time>2016-04-06T12:58:57Z</time></trkpt>
<trkpt lat="25.42293" lon="100.617321">
<time>2016-04-06T12:58:58Z</time></trkpt>
<trkpt lat="25.4231" lon="100.617091">
<time>2016-04-06T12:58:59Z</time></trkpt>
<trkpt lat="25.423281" lon="100.616861">
<time>2016-04-06T12:59:00Z</time></trkpt>
<trkpt lat="25.423451" lon="100.616622">
<time>2016-04-06T12:59:01Z</time></trkpt>
<trkpt lat="25.423631" lon="100.616392">
<time>2016-04-06T12:59:02Z</time></trkpt>
<trkpt lat="25.423801" lon="100.616162">
<time>2016-04-06T12:59:03Z</time></trkpt>
<trkpt lat="25.423972" lon="100.615952">
<time>2016-04-06T12:59:04Z</time></trkpt>
<trkpt lat="25.424152" lon="100.615743">
<time>2016-04-06T12:59:05Z</time></trkpt>
<trkpt lat="25.424322" lon="100.615523">
<time>2016-04-06T12:59:06Z</time></trkpt>
<trkpt lat="25.424502" lon="100.615303">
<time>2016-04-06T12:59:07Z</time></trkpt>
<trkpt lat="25.424672" lon="100.615074">
<time>2016-04-06T12:59:08Z</time></trkpt>
<trkpt lat="25.424843" lon="100.614844">
<time>2016-04-06T12:59:09Z</time></trkpt>
<trkpt lat="25.425023" lon="100.614614">
<time>2016-04-06T12:59:10Z</time></trkpt>
<trkpt lat="25.425253" lon="100.614254">
<time>2016-04-06T12:59:11Z</time></trkpt>
<trkpt lat="25.425443" lon="100.614015">
<time>2016-04-06T12:59:12Z</time></trkpt>
<trkpt lat="25.425533" lon="100.613905">
<time>2016-04-06T12:59:13Z</time></trkpt>
<trkpt lat="25.425624" lon="100.613785">
<time>2016-04-06T12:59:14Z</time></trkpt>
<trkpt lat="25.425824" lon="100.613595">
<time>2016-04-06T12:59:15Z</time></trkpt>
<trkpt lat="25.425964" lon="100.613425">
<time>2016-04-06T12:59:16Z</time></trkpt>
<trkpt lat="25.426114" lon="100.613236">
<time>2016-04-06T12:59:17Z</time></trkpt>
<trkpt lat="25.426264" lon="100.613036">
<time>2016-04-06T12:59:18Z</time></trkpt>
<trkpt lat="25.426414" lon="100.612836">
<time>2016-04-06T12:59:19Z</time></trkpt>
<trkpt lat="25.426565" lon="100.612646">
<time>2016-04-06T12:59:20Z</time></trkpt>
<trkpt lat="25.426735" lon="100.612417">
<time>2016-04-06T12:59:21Z</time></trkpt>
<trkpt lat="25.426905" lon="100.612197">
<time>2016-04-06T12:59:22Z</time></trkpt>
<trkpt lat="25.427085" lon="100.611987">
<time>2016-04-06T12:59:23Z</time></trkpt>
<trkpt lat="25.427225" lon="100.611787">
<time>2016-04-06T12:59:24Z</time></trkpt>
<trkpt lat="25.427395" lon="100.611577">
<time>2016-04-06T12:59:25Z</time></trkpt>
<trkpt lat="25.427435" lon="100.611518">
<time>2016-04-06T12:59:26Z</time></trkpt>
<trkpt lat="25.427556" lon="100.611368">
<time>2016-04-06T12:59:27Z</time></trkpt>
<trkpt lat="25.427716" lon="100.611158">
<time>2016-04-06T12:59:28Z</time></trkpt>
<trkpt lat="25.427876" lon="100.610968">
<time>2016-04-06T12:59:29Z</time></trkpt>
<trkpt lat="25.428036" lon="100.610778">
<time>2016-04-06T12:59:30Z</time></trkpt>
<trkpt lat="25.428186" lon="100.610579">
<time>2016-04-06T12:59:31Z</time></trkpt>
<trkpt lat="25.428356" lon="100.610379">
<time>2016-04-06T12:59:32Z</time></trkpt>
<trkpt lat="25.428517" lon="100.610159">
<time>2016-04-06T12:59:33Z</time></trkpt>
<trkpt lat="25.428637" lon="100.609929">
<time>2016-04-06T12:59:34Z</time></trkpt>
<trkpt lat="25.428777" lon="100.609719">
<time>2016-04-06T12:59:35Z</time></trkpt>
<trkpt lat="25.428917" lon="100.60951">
<time>2016-04-06T12:59:36Z</time></trkpt>
<trkpt lat="25.429077" lon="100.60925">
<time>2016-04-06T12:59:37Z</time></trkpt>
<trkpt lat="25.429217" lon="100.60906">
<time>2016-04-06T12:59:38Z</time></trkpt>
<trkpt lat="25.429417" lon="100.6089">
<time>2016-04-06T12:59:39Z</time></trkpt>
<trkpt lat="25.429648" lon="100.6087">
<time>2016-04-06T12:59:40Z</time></trkpt>
<trkpt lat="25.429828" lon="100.608481">
<time>2016-04-06T12:59:41Z</time></trkpt>
<trkpt lat="25.430058" lon="100.608281">
<time>2016-04-06T12:59:42Z</time></trkpt>
<trkpt lat="25.430258" lon="100.608061">
<time>2016-04-06T12:59:43Z</time></trkpt>
<trkpt lat="25.430458" lon="100.607851">
<time>2016-04-06T12:59:44Z</time></trkpt>
<trkpt lat="25.430658" lon="100.607641">
<time>2016-04-06T12:59:45Z</time></trkpt>
<trkpt lat="25.430768" lon="100.607431">
<time>2016-04-06T12:59:46Z</time></trkpt>
<trkpt lat="25.430849" lon="100.607182">
<time>2016-04-06T12:59:47Z</time></trkpt>
<trkpt lat="25.430899" lon="100.607122">
<time>2016-04-06T12:59:48Z</time></trkpt>
<trkpt lat="25.430949" lon="100.607052">
<time>2016-04-06T12:59:49Z</time></trkpt>
<trkpt lat="25.431139" lon="100.606902">
<time>2016-04-06T12:59:50Z</time></trkpt>
<trkpt lat="25.431329" lon="100.606792">
<time>2016-04-06T12:59:51Z</time></trkpt>
<trkpt lat="25.431569" lon="100.606742">
<time>2016-04-06T12:59:52Z</time></trkpt>
<trkpt lat="25.431799" lon="100.606732">
<time>2016-04-06T12:59:53Z</time></trkpt>
<trkpt lat="25.432039" lon="100.606702">
<time>2016-04-06T12:59:54Z</time></trkpt>
<trkpt lat="25.432279" lon="100.606662">
<time>2016-04-06T12:59:55Z</time></trkpt>
<trkpt lat="25.432519" lon="100.606602">
<time>2016-04-06T12:59:56Z</time></trkpt>
<trkpt lat="25.432749" lon="100.606512">
<time>2016-04-06T12:59:57Z</time></trkpt>
<trkpt lat="25.432979" lon="100.606402">
<time>2016-04-06T12:59:58Z</time></trkpt>
<trkpt lat="25.4332" lon="100.606282">
<time>2016-04-06T12:59:59Z</time></trkpt>
<trkpt lat="25.43341" lon="100.606152">
<time>2016-04-06T13:00:00Z</time></trkpt>
<trkpt lat="25.43362" lon="100.605993">
<time>2016-04-06T13:00:01Z</time></trkpt>
<trkpt lat="25.43364" lon="100.605983">
<time>2016-04-06T13:00:02Z</time></trkpt>
<trkpt lat="25.43364" lon="100.605983">
<time>2016-04-06T13:00:03Z</time></trkpt>
<trkpt lat="25.43387" lon="100.606083">
<time>2016-04-06T13:00:04Z</time></trkpt>
<trkpt lat="25.43401" lon="100.606132">
<time>2016-04-06T13:00:05Z</time></trkpt>
<trkpt lat="25.43414" lon="100.606222">
<time>2016-04-06T13:00:06Z</time></trkpt>
<trkpt lat="25.43459" lon="100.606502">
<time>2016-04-06T13:00:07Z</time></trkpt>
<trkpt lat="25.43459" lon="100.606502">
<time>2016-04-06T13:00:08Z</time></trkpt>
<trkpt lat="25.43468" lon="100.606362">
<time>2016-04-06T13:00:09Z</time></trkpt>
<trkpt lat="25.43501" lon="100.605953">
<time>2016-04-06T13:00:10Z</time></trkpt>
<trkpt lat="25.43532" lon="100.605863">
<time>2016-04-06T13:00:11Z</time></trkpt>
<trkpt lat="25.43557" lon="100.605903">
<time>2016-04-06T13:00:12Z</time></trkpt>
<trkpt lat="25.43584" lon="100.606092">
<time>2016-04-06T13:00:13Z</time></trkpt>
<trkpt lat="25.43642" lon="100.606812">
<time>2016-04-06T13:00:14Z</time></trkpt>
<trkpt lat="25.43663" lon="100.606942">
<time>2016-04-06T13:00:15Z</time></trkpt>
<trkpt lat="25.43693" lon="100.606972">
<time>2016-04-06T13:00:16Z</time></trkpt>
<trkpt lat="25.43771" lon="100.606842">
<time>2016-04-06T13:00:17Z</time></trkpt>
<trkpt lat="25.438111" lon="100.606612">
<time>2016-04-06T13:00:18Z</time></trkpt>
<trkpt lat="25.438701" lon="100.606242">
<time>2016-04-06T13:00:19Z</time></trkpt>
<trkpt lat="25.438801" lon="100.606092">
<time>2016-04-06T13:00:20Z</time></trkpt>
<trkpt lat="25.438871" lon="100.605833">
<time>2016-04-06T13:00:21Z</time></trkpt>
<trkpt lat="25.438961" lon="100.605463">
<time>2016-04-06T13:00:22Z</time></trkpt>
<trkpt lat="25.438951" lon="100.605303">
<time>2016-04-06T13:00:23Z</time></trkpt>
<trkpt lat="25.438881" lon="100.605043">
<time>2016-04-06T13:00:24Z</time></trkpt>
<trkpt lat="25.438621" lon="100.604434">
<time>2016-04-06T13:00:25Z</time></trkpt>
<trkpt lat="25.438502" lon="100.604194">
<time>2016-04-06T13:00:26Z</time></trkpt>
<trkpt lat="25.438462" lon="100.603984">
<time>2016-04-06T13:00:27Z</time></trkpt>
<trkpt lat="25.438362" lon="100.602735">
<time>2016-04-06T13:00:28Z</time></trkpt>
<trkpt lat="25.438312" lon="100.601985">
<time>2016-04-06T13:00:29Z</time></trkpt>
<trkpt lat="25.438282" lon="100.601396">
<time>2016-04-06T13:00:30Z</time></trkpt>
<trkpt lat="25.438403" lon="100.599497">
<time>2016-04-06T13:00:31Z</time></trkpt>
<trkpt lat="25.438553" lon="100.598167">
<time>2016-04-06T13:00:32Z</time></trkpt>
<trkpt lat="25.438663" lon="100.597398">
<time>2016-04-06T13:00:33Z</time></trkpt>
<trkpt lat="25.438703" lon="100.596988">
<time>2016-04-06T13:00:34Z</time></trkpt>
<trkpt lat="25.438713" lon="100.596828">
<time>2016-04-06T13:00:35Z</time></trkpt>
<trkpt lat="25.438683" lon="100.596668">
<time>2016-04-06T13:00:36Z</time></trkpt>
<trkpt lat="25.438653" lon="100.596588">
<time>2016-04-06T13:00:37Z</time></trkpt>
<trkpt lat="25.438503" lon="100.596488">
<time>2016-04-06T13:00:38Z</time></trkpt>
<trkpt lat="25.438243" lon="100.596308">
<time>2016-04-06T13:00:39Z</time></trkpt>
<trkpt lat="25.437993" lon="100.596098">
<time>2016-04-06T13:00:40Z</time></trkpt>
<trkpt lat="25.437883" lon="100.595888">
<time>2016-04-06T13:00:41Z</time></trkpt>
<trkpt lat="25.437923" lon="100.595578">
<time>2016-04-06T13:00:42Z</time></trkpt>
<trkpt lat="25.438192" lon="100.594279">
<time>2016-04-06T13:00:43Z</time></trkpt>
<trkpt lat="25.438322" lon="100.593829">
<time>2016-04-06T13:00:44Z</time></trkpt>
<trkpt lat="25.438402" lon="100.593669">
<time>2016-04-06T13:00:45Z</time></trkpt>
<trkpt lat="25.438763" lon="100.593529">
<time>2016-04-06T13:00:46Z</time></trkpt>
<trkpt lat="25.439793" lon="100.592959">
<time>2016-04-06T13:00:47Z</time></trkpt>
<trkpt lat="25.440853" lon="100.592339">
<time>2016-04-06T13:00:48Z</time></trkpt>
<trkpt lat="25.441513" lon="100.592089">
<time>2016-04-06T13:00:49Z</time></trkpt>
<trkpt lat="25.443483" lon="100.591339">
<time>2016-04-06T13:00:50Z</time></trkpt>
<trkpt lat="25.444283" lon="100.591059">
<time>2016-04-06T13:00:51Z</time></trkpt>
<trkpt lat="25.444473" lon="100.590899">
<time>2016-04-06T13:00:52Z</time></trkpt>
<trkpt lat="25.444753" lon="100.590339">
<time>2016-04-06T13:00:53Z</time></trkpt>
<trkpt lat="25.445203" lon="100.589379">
<time>2016-04-06T13:00:54Z</time></trkpt>
<trkpt lat="25.445383" lon="100.589059">
<time>2016-04-06T13:00:55Z</time></trkpt>
<trkpt lat="25.445743" lon="100.588689">
<time>2016-04-06T13:00:56Z</time></trkpt>
<trkpt lat="25.447203" lon="100.587349">
<time>2016-04-06T13:00:57Z</time></trkpt>
<trkpt lat="25.448922" lon="100.585639">
<time>2016-04-06T13:00:58Z</time></trkpt>
<trkpt lat="25.449222" lon="100.585389">
<time>2016-04-06T13:00:59Z</time></trkpt>
<trkpt lat="25.449322" lon="100.585349">
<time>2016-04-06T13:01:00Z</time></trkpt>
<trkpt lat="25.449322" lon="100.585349">
<time>2016-04-06T13:01:01Z</time></trkpt>
<trkpt lat="25.449242" lon="100.584789">
<time>2016-04-06T13:01:02Z</time></trkpt>
<trkpt lat="25.449192" lon="100.584538">
<time>2016-04-06T13:01:03Z</time></trkpt>
<trkpt lat="25.449182" lon="100.584398">
<time>2016-04-06T13:01:04Z</time></trkpt>
<trkpt lat="25.449232" lon="100.584108">
<time>2016-04-06T13:01:05Z</time></trkpt>
<trkpt lat="25.449541" lon="100.582118">
<time>2016-04-06T13:01:06Z</time></trkpt>
<trkpt lat="25.450118" lon="100.578426">
<time>2016-04-06T13:01:07Z</time></trkpt>
<trkpt lat="25.450506" lon="100.575684">
<time>2016-04-06T13:01:08Z</time></trkpt>
<trkpt lat="25.450625" lon="100.575104">
<time>2016-04-06T13:01:09Z</time></trkpt>
<trkpt lat="25.450755" lon="100.574513">
<time>2016-04-06T13:01:10Z</time></trkpt>
<trkpt lat="25.450864" lon="100.574183">
<time>2016-04-06T13:01:11Z</time></trkpt>
<trkpt lat="25.450864" lon="100.574183">
<time>2016-04-06T13:01:12Z</time></trkpt>
<trkpt lat="25.450764" lon="100.574043">
<time>2016-04-06T13:01:13Z</time></trkpt>
<trkpt lat="25.450534" lon="100.573653">
<time>2016-04-06T13:01:14Z</time></trkpt>
<trkpt lat="25.450253" lon="100.573212">
<time>2016-04-06T13:01:15Z</time></trkpt>
<trkpt lat="25.450003" lon="100.572832">
<time>2016-04-06T13:01:16Z</time></trkpt>
<trkpt lat="25.449983" lon="100.572752">
<time>2016-04-06T13:01:17Z</time></trkpt>
<trkpt lat="25.449973" lon="100.572692">
<time>2016-04-06T13:01:18Z</time></trkpt>
<trkpt lat="25.449992" lon="100.572632">
<time>2016-04-06T13:01:19Z</time></trkpt>
<trkpt lat="25.450012" lon="100.572482">
<time>2016-04-06T13:01:20Z</time></trkpt>
<trkpt lat="25.450012" lon="100.572482">
<time>2016-04-06T13:01:21Z</time></trkpt>
<trkpt lat="25.450042" lon="100.572472">
<time>2016-04-06T13:01:22Z</time></trkpt>
<trkpt lat="25.450222" lon="100.572422">
<time>2016-04-06T13:01:23Z</time></trkpt>
<trkpt lat="25.450372" lon="100.572332">
<time>2016-04-06T13:01:24Z</time></trkpt>
<trkpt lat="25.450472" lon="100.572192">
<time>2016-04-06T13:01:25Z</time></trkpt>
<trkpt lat="25.450542" lon="100.572051">
<time>2016-04-06T13:01:26Z</time></trkpt>
<trkpt lat="25.450582" lon="100.571901">
<time>2016-04-06T13:01:27Z</time></trkpt>
<trkpt lat="25.450632" lon="100.571771">
<time>2016-04-06T13:01:28Z</time></trkpt>
<trkpt lat="25.450692" lon="100.571661">
<time>2016-04-06T13:01:29Z</time></trkpt>
<trkpt lat="25.450751" lon="100.571541">
<time>2016-04-06T13:01:30Z</time></trkpt>
<trkpt lat="25.450821" lon="100.571381">
<time>2016-04-06T13:01:31Z</time></trkpt>
<trkpt lat="25.450851" lon="100.571281">
<time>2016-04-06T13:01:32Z</time></trkpt>
<trkpt lat="25.450911" lon="100.571151">
<time>2016-04-06T13:01:33Z</time></trkpt>
<trkpt lat="25.450951" lon="100.571021">
<time>2016-04-06T13:01:34Z</time></trkpt>
<trkpt lat="25.451001" lon="100.57091">
<time>2016-04-06T13:01:35Z</time></trkpt>
<trkpt lat="25.451041" lon="100.57081">
<time>2016-04-06T13:01:36Z</time></trkpt>
<trkpt lat="25.451041" lon="100.5708">
<time>2016-04-06T13:01:37Z</time></trkpt>
<trkpt lat="25.451091" lon="100.57068">
<time>2016-04-06T13:01:38Z</time></trkpt>
<trkpt lat="25.4511" lon="100.57065">
<time>2016-04-06T13:01:39Z</time></trkpt>
<trkpt lat="25.45114" lon="100.57054">
<time>2016-04-06T13:01:40Z</time></trkpt>
<trkpt lat="25.4512" lon="100.57038">
<time>2016-04-06T13:01:41Z</time></trkpt>
<trkpt lat="25.45127" lon="100.57022">
<time>2016-04-06T13:01:42Z</time></trkpt>
<trkpt lat="25.45134" lon="100.57006">
<time>2016-04-06T13:01:43Z</time></trkpt>
<trkpt lat="25.45142" lon="100.569889">
<time>2016-04-06T13:01:44Z</time></trkpt>
<trkpt lat="25.451489" lon="100.569719">
<time>2016-04-06T13:01:45Z</time></trkpt>
<trkpt lat="25.451559" lon="100.569579">
<time>2016-04-06T13:01:46Z</time></trkpt>
<trkpt lat="25.451619" lon="100.569439">
<time>2016-04-06T13:01:47Z</time></trkpt>
<trkpt lat="25.451669" lon="100.569319">
<time>2016-04-06T13:01:48Z</time></trkpt>
<trkpt lat="25.451719" lon="100.569229">
<time>2016-04-06T13:01:49Z</time></trkpt>
<trkpt lat="25.451759" lon="100.569109">
<time>2016-04-06T13:01:50Z</time></trkpt>
<trkpt lat="25.451809" lon="100.568938">
<time>2016-04-06T13:01:51Z</time></trkpt>
<trkpt lat="25.451819" lon="100.568868">
<time>2016-04-06T13:01:52Z</time></trkpt>
<trkpt lat="25.451828" lon="100.568798">
<time>2016-04-06T13:01:53Z</time></trkpt>
<trkpt lat="25.451838" lon="100.568778">
<time>2016-04-06T13:01:54Z</time></trkpt>
<trkpt lat="25.451828" lon="100.568618">
<time>2016-04-06T13:01:55Z</time></trkpt>
<trkpt lat="25.451828" lon="100.568518">
<time>2016-04-06T13:01:56Z</time></trkpt>
<trkpt lat="25.451808" lon="100.568398">
<time>2016-04-06T13:01:57Z</time></trkpt>
<trkpt lat="25.451798" lon="100.568268">
<time>2016-04-06T13:01:58Z</time></trkpt>
<trkpt lat="25.451778" lon="100.568168">
<time>2016-04-06T13:01:59Z</time></trkpt>
<trkpt lat="25.451747" lon="100.568018">
<time>2016-04-06T13:02:00Z</time></trkpt>
<trkpt lat="25.451697" lon="100.567887">
<time>2016-04-06T13:02:01Z</time></trkpt>
<trkpt lat="25.451637" lon="100.567757">
<time>2016-04-06T13:02:02Z</time></trkpt>
<trkpt lat="25.451577" lon="100.567627">
<time>2016-04-06T13:02:03Z</time></trkpt>
<trkpt lat="25.451507" lon="100.567517">
<time>2016-04-06T13:02:04Z</time></trkpt>
<trkpt lat="25.451447" lon="100.567427">
<time>2016-04-06T13:02:05Z</time></trkpt>
<trkpt lat="25.451366" lon="100.567327">
<time>2016-04-06T13:02:06Z</time></trkpt>
<trkpt lat="25.451286" lon="100.567247">
<time>2016-04-06T13:02:07Z</time></trkpt>
<trkpt lat="25.451186" lon="100.567147">
<time>2016-04-06T13:02:08Z</time></trkpt>
<trkpt lat="25.451106" lon="100.567076">
<time>2016-04-06T13:02:09Z</time></trkpt>
<trkpt lat="25.451006" lon="100.566986">
<time>2016-04-06T13:02:10Z</time></trkpt>
<trkpt lat="25.450926" lon="100.566916">
<time>2016-04-06T13:02:11Z</time></trkpt>
<trkpt lat="25.450856" lon="100.566836">
<time>2016-04-06T13:02:12Z</time></trkpt>
<trkpt lat="25.450766" lon="100.566736">
<time>2016-04-06T13:02:13Z</time></trkpt>
<trkpt lat="25.450675" lon="100.566646">
<time>2016-04-06T13:02:14Z</time></trkpt>
<trkpt lat="25.450605" lon="100.566566">
<time>2016-04-06T13:02:15Z</time></trkpt>
<trkpt lat="25.450545" lon="100.566496">
<time>2016-04-06T13:02:16Z</time></trkpt>
<trkpt lat="25.450455" lon="100.566406">
<time>2016-04-06T13:02:17Z</time></trkpt>
<trkpt lat="25.450425" lon="100.566366">
<time>2016-04-06T13:02:18Z</time></trkpt>
<trkpt lat="25.450365" lon="100.566306">
<time>2016-04-06T13:02:19Z</time></trkpt>
<trkpt lat="25.450335" lon="100.566256">
<time>2016-04-06T13:02:20Z</time></trkpt>
<trkpt lat="25.450285" lon="100.566196">
<time>2016-04-06T13:02:21Z</time></trkpt>
<trkpt lat="25.450205" lon="100.566105">
<time>2016-04-06T13:02:22Z</time></trkpt>
<trkpt lat="25.450134" lon="100.566015">
<time>2016-04-06T13:02:23Z</time></trkpt>
<trkpt lat="25.450074" lon="100.565905">
<time>2016-04-06T13:02:24Z</time></trkpt>
<trkpt lat="25.449944" lon="100.565775">
<time>2016-04-06T13:02:25Z</time></trkpt>
<trkpt lat="25.449804" lon="100.565645">
<time>2016-04-06T13:02:26Z</time></trkpt>
<trkpt lat="25.449694" lon="100.565525">
<time>2016-04-06T13:02:27Z</time></trkpt>
<trkpt lat="25.449603" lon="100.565415">
<time>2016-04-06T13:02:28Z</time></trkpt>
<trkpt lat="25.449513" lon="100.565284">
<time>2016-04-06T13:02:29Z</time></trkpt>
<trkpt lat="25.449433" lon="100.565154">
<time>2016-04-06T13:02:30Z</time></trkpt>
<trkpt lat="25.449383" lon="100.565024">
<time>2016-04-06T13:02:31Z</time></trkpt>
<trkpt lat="25.449343" lon="100.564894">
<time>2016-04-06T13:02:32Z</time></trkpt>
<trkpt lat="25.449322" lon="100.564754">
<time>2016-04-06T13:02:33Z</time></trkpt>
<trkpt lat="25.449312" lon="100.564624">
<time>2016-04-06T13:02:34Z</time></trkpt>
<trkpt lat="25.449322" lon="100.564453">
<time>2016-04-06T13:02:35Z</time></trkpt>
<trkpt lat="25.449322" lon="100.564293">
<time>2016-04-06T13:02:36Z</time></trkpt>
<trkpt lat="25.449332" lon="100.564133">
<time>2016-04-06T13:02:37Z</time></trkpt>
<trkpt lat="25.449341" lon="100.563963">
<time>2016-04-06T13:02:38Z</time></trkpt>
<trkpt lat="25.449351" lon="100.563773">
<time>2016-04-06T13:02:39Z</time></trkpt>
<trkpt lat="25.449361" lon="100.563612">
<time>2016-04-06T13:02:40Z</time></trkpt>
<trkpt lat="25.44936" lon="100.563412">
<time>2016-04-06T13:02:41Z</time></trkpt>
<trkpt lat="25.44937" lon="100.563232">
<time>2016-04-06T13:02:42Z</time></trkpt>
<trkpt lat="25.44938" lon="100.563072">
<time>2016-04-06T13:02:43Z</time></trkpt>
<trkpt lat="25.44938" lon="100.562901">
<time>2016-04-06T13:02:44Z</time></trkpt>
<trkpt lat="25.449389" lon="100.562731">
<time>2016-04-06T13:02:45Z</time></trkpt>
<trkpt lat="25.449399" lon="100.562581">
<time>2016-04-06T13:02:46Z</time></trkpt>
<trkpt lat="25.449399" lon="100.562461">
<time>2016-04-06T13:02:47Z</time></trkpt>
<trkpt lat="25.449409" lon="100.562281">
<time>2016-04-06T13:02:48Z</time></trkpt>
<trkpt lat="25.449409" lon="100.56218">
<time>2016-04-06T13:02:49Z</time></trkpt>
<trkpt lat="25.449408" lon="100.56205">
<time>2016-04-06T13:02:50Z</time></trkpt>
<trkpt lat="25.449408" lon="100.5619">
<time>2016-04-06T13:02:51Z</time></trkpt>
<trkpt lat="25.449408" lon="100.56175">
<time>2016-04-06T13:02:52Z</time></trkpt>
<trkpt lat="25.449398" lon="100.56159">
<time>2016-04-06T13:02:53Z</time></trkpt>
<trkpt lat="25.449407" lon="100.561419">
<time>2016-04-06T13:02:54Z</time></trkpt>
<trkpt lat="25.449417" lon="100.561239">
<time>2016-04-06T13:02:55Z</time></trkpt>
<trkpt lat="25.449437" lon="100.561049">
<time>2016-04-06T13:02:56Z</time></trkpt>
<trkpt lat="25.449447" lon="100.560839">
<time>2016-04-06T13:02:57Z</time></trkpt>
<trkpt lat="25.449456" lon="100.560638">
<time>2016-04-06T13:02:58Z</time></trkpt>
<trkpt lat="25.449476" lon="100.560418">
<time>2016-04-06T13:02:59Z</time></trkpt>
<trkpt lat="25.449486" lon="100.560218">
<time>2016-04-06T13:03:00Z</time></trkpt>
<trkpt lat="25.449495" lon="100.560017">
<time>2016-04-06T13:03:01Z</time></trkpt>
<trkpt lat="25.449505" lon="100.559827">
<time>2016-04-06T13:03:02Z</time></trkpt>
<trkpt lat="25.449505" lon="100.559657">
<time>2016-04-06T13:03:03Z</time></trkpt>
<trkpt lat="25.449504" lon="100.559487">
<time>2016-04-06T13:03:04Z</time></trkpt>
<trkpt lat="25.449514" lon="100.559336">
<time>2016-04-06T13:03:05Z</time></trkpt>
<trkpt lat="25.449514" lon="100.559196">
<time>2016-04-06T13:03:06Z</time></trkpt>
<trkpt lat="25.449514" lon="100.559056">
<time>2016-04-06T13:03:07Z</time></trkpt>
<trkpt lat="25.449533" lon="100.558916">
<time>2016-04-06T13:03:08Z</time></trkpt>
<trkpt lat="25.449523" lon="100.558776">
<time>2016-04-06T13:03:09Z</time></trkpt>
<trkpt lat="25.449543" lon="100.558585">
<time>2016-04-06T13:03:10Z</time></trkpt>
<trkpt lat="25.449553" lon="100.558405">
<time>2016-04-06T13:03:11Z</time></trkpt>
<trkpt lat="25.449562" lon="100.558245">
<time>2016-04-06T13:03:12Z</time></trkpt>
<trkpt lat="25.449572" lon="100.558115">
<time>2016-04-06T13:03:13Z</time></trkpt>
<trkpt lat="25.449572" lon="100.557984">
<time>2016-04-06T13:03:14Z</time></trkpt>
<trkpt lat="25.449572" lon="100.557864">
<time>2016-04-06T13:03:15Z</time></trkpt>
<trkpt lat="25.449591" lon="100.557684">
<time>2016-04-06T13:03:16Z</time></trkpt>
<trkpt lat="25.449611" lon="100.557494">
<time>2016-04-06T13:03:17Z</time></trkpt>
<trkpt lat="25.449641" lon="100.557333">
<time>2016-04-06T13:03:18Z</time></trkpt>
<trkpt lat="25.449651" lon="100.557173">
<time>2016-04-06T13:03:19Z</time></trkpt>
<trkpt lat="25.44966" lon="100.557063">
<time>2016-04-06T13:03:20Z</time></trkpt>
<trkpt lat="25.44966" lon="100.556953">
<time>2016-04-06T13:03:21Z</time></trkpt>
<trkpt lat="25.44966" lon="100.556833">
<time>2016-04-06T13:03:22Z</time></trkpt>
<trkpt lat="25.44968" lon="100.556732">
<time>2016-04-06T13:03:23Z</time></trkpt>
<trkpt lat="25.44968" lon="100.556612">
<time>2016-04-06T13:03:24Z</time></trkpt>
<trkpt lat="25.449689" lon="100.556502">
<time>2016-04-06T13:03:25Z</time></trkpt>
<trkpt lat="25.449689" lon="100.556372">
<time>2016-04-06T13:03:26Z</time></trkpt>
<trkpt lat="25.449699" lon="100.556252">
<time>2016-04-06T13:03:27Z</time></trkpt>
<trkpt lat="25.449699" lon="100.556121">
<time>2016-04-06T13:03:28Z</time></trkpt>
<trkpt lat="25.449708" lon="100.556001">
<time>2016-04-06T13:03:29Z</time></trkpt>
<trkpt lat="25.449708" lon="100.555871">
<time>2016-04-06T13:03:30Z</time></trkpt>
<trkpt lat="25.449708" lon="100.555751">
<time>2016-04-06T13:03:31Z</time></trkpt>
<trkpt lat="25.449718" lon="100.555621">
<time>2016-04-06T13:03:32Z</time></trkpt>
<trkpt lat="25.449718" lon="100.55551">
<time>2016-04-06T13:03:33Z</time></trkpt>
<trkpt lat="25.449727" lon="100.55539">
<time>2016-04-06T13:03:34Z</time></trkpt>
<trkpt lat="25.449737" lon="100.55526">
<time>2016-04-06T13:03:35Z</time></trkpt>
<trkpt lat="25.449747" lon="100.55513">
<time>2016-04-06T13:03:36Z</time></trkpt>
<trkpt lat="25.449747" lon="100.555">
<time>2016-04-06T13:03:37Z</time></trkpt>
<trkpt lat="25.449766" lon="100.554869">
<time>2016-04-06T13:03:38Z</time></trkpt>
<trkpt lat="25.449766" lon="100.554789">
<time>2016-04-06T13:03:39Z</time></trkpt>
<trkpt lat="25.449766" lon="100.554789">
<time>2016-04-06T13:03:40Z</time></trkpt>
<trkpt lat="25.449776" lon="100.554759">
<time>2016-04-06T13:03:41Z</time></trkpt>
<trkpt lat="25.449786" lon="100.554649">
<time>2016-04-06T13:03:42Z</time></trkpt>
<trkpt lat="25.449786" lon="100.554539">
<time>2016-04-06T13:03:43Z</time></trkpt>
<trkpt lat="25.449796" lon="100.554429">
<time>2016-04-06T13:03:44Z</time></trkpt>
<trkpt lat="25.449805" lon="100.554298">
<time>2016-04-06T13:03:45Z</time></trkpt>
<trkpt lat="25.449805" lon="100.554178">
<time>2016-04-06T13:03:46Z</time></trkpt>
<trkpt lat="25.449805" lon="100.554068">
<time>2016-04-06T13:03:47Z</time></trkpt>
<trkpt lat="25.449815" lon="100.553948">
<time>2016-04-06T13:03:48Z</time></trkpt>
<trkpt lat="25.449815" lon="100.553818">
<time>2016-04-06T13:03:49Z</time></trkpt>
<trkpt lat="25.449824" lon="100.553687">
<time>2016-04-06T13:03:50Z</time></trkpt>
<trkpt lat="25.449824" lon="100.553537">
<time>2016-04-06T13:03:51Z</time></trkpt>
<trkpt lat="25.449834" lon="100.553377">
<time>2016-04-06T13:03:52Z</time></trkpt>
<trkpt lat="25.449843" lon="100.553207">
<time>2016-04-06T13:03:53Z</time></trkpt>
<trkpt lat="25.449843" lon="100.553026">
<time>2016-04-06T13:03:54Z</time></trkpt>
<trkpt lat="25.449853" lon="100.552846">
<time>2016-04-06T13:03:55Z</time></trkpt>
<trkpt lat="25.449862" lon="100.552706">
<time>2016-04-06T13:03:56Z</time></trkpt>
<trkpt lat="25.449872" lon="100.552656">
<time>2016-04-06T13:03:57Z</time></trkpt>
<trkpt lat="25.449892" lon="100.552445">
<time>2016-04-06T13:03:58Z</time></trkpt>
<trkpt lat="25.449912" lon="100.552275">
<time>2016-04-06T13:03:59Z</time></trkpt>
<trkpt lat="25.449922" lon="100.552205">
<time>2016-04-06T13:04:00Z</time></trkpt>
<trkpt lat="25.449941" lon="100.552095">
<time>2016-04-06T13:04:01Z</time></trkpt>
<trkpt lat="25.449961" lon="100.551914">
<time>2016-04-06T13:04:02Z</time></trkpt>
<trkpt lat="25.449991" lon="100.551754">
<time>2016-04-06T13:04:03Z</time></trkpt>
<trkpt lat="25.450001" lon="100.551734">
<time>2016-04-06T13:04:04Z</time></trkpt>
<trkpt lat="25.45004" lon="100.551564">
<time>2016-04-06T13:04:05Z</time></trkpt>
<trkpt lat="25.45008" lon="100.551453">
<time>2016-04-06T13:04:06Z</time></trkpt>
<trkpt lat="25.4501" lon="100.551403">
<time>2016-04-06T13:04:07Z</time></trkpt>
<trkpt lat="25.45022" lon="100.551233">
<time>2016-04-06T13:04:08Z</time></trkpt>
<trkpt lat="25.450359" lon="100.551093">
<time>2016-04-06T13:04:09Z</time></trkpt>
<trkpt lat="25.450499" lon="100.550962">
<time>2016-04-06T13:04:10Z</time></trkpt>
<trkpt lat="25.450659" lon="100.550822">
<time>2016-04-06T13:04:11Z</time></trkpt>
<trkpt lat="25.450809" lon="100.550682">
<time>2016-04-06T13:04:12Z</time></trkpt>
<trkpt lat="25.450959" lon="100.550552">
<time>2016-04-06T13:04:13Z</time></trkpt>
<trkpt lat="25.451078" lon="100.550452">
<time>2016-04-06T13:04:14Z</time></trkpt>
<trkpt lat="25.451148" lon="100.550391">
<time>2016-04-06T13:04:15Z</time></trkpt>
<trkpt lat="25.451268" lon="100.550271">
<time>2016-04-06T13:04:16Z</time></trkpt>
<trkpt lat="25.451398" lon="100.550151">
<time>2016-04-06T13:04:17Z</time></trkpt>
<trkpt lat="25.451538" lon="100.550031">
<time>2016-04-06T13:04:18Z</time></trkpt>
<trkpt lat="25.451598" lon="100.549971">
<time>2016-04-06T13:04:19Z</time></trkpt>
<trkpt lat="25.451677" lon="100.54991">
<time>2016-04-06T13:04:20Z</time></trkpt>
<trkpt lat="25.451807" lon="100.54979">
<time>2016-04-06T13:04:21Z</time></trkpt>
<trkpt lat="25.451947" lon="100.54968">
<time>2016-04-06T13:04:22Z</time></trkpt>
<trkpt lat="25.452077" lon="100.54959">
<time>2016-04-06T13:04:23Z</time></trkpt>
<trkpt lat="25.452237" lon="100.54948">
<time>2016-04-06T13:04:24Z</time></trkpt>
<trkpt lat="25.452367" lon="100.54946">
<time>2016-04-06T13:04:25Z</time></trkpt>
<trkpt lat="25.452507" lon="100.54946">
<time>2016-04-06T13:04:26Z</time></trkpt>
<trkpt lat="25.452657" lon="100.54947">
<time>2016-04-06T13:04:27Z</time></trkpt>
<trkpt lat="25.452807" lon="100.54949">
<time>2016-04-06T13:04:28Z</time></trkpt>
<trkpt lat="25.452957" lon="100.54951">
<time>2016-04-06T13:04:29Z</time></trkpt>
<trkpt lat="25.453117" lon="100.54953">
<time>2016-04-06T13:04:30Z</time></trkpt>
<trkpt lat="25.453277" lon="100.54955">
<time>2016-04-06T13:04:31Z</time></trkpt>
<trkpt lat="25.453447" lon="100.54956">
<time>2016-04-06T13:04:32Z</time></trkpt>
<trkpt lat="25.453617" lon="100.54957">
<time>2016-04-06T13:04:33Z</time></trkpt>
<trkpt lat="25.453787" lon="100.54958">
<time>2016-04-06T13:04:34Z</time></trkpt>
<trkpt lat="25.453957" lon="100.54958">
<time>2016-04-06T13:04:35Z</time></trkpt>
<trkpt lat="25.454117" lon="100.54959">
<time>2016-04-06T13:04:36Z</time></trkpt>
<trkpt lat="25.454257" lon="100.54959">
<time>2016-04-06T13:04:37Z</time></trkpt>
<trkpt lat="25.454377" lon="100.54957">
<time>2016-04-06T13:04:38Z</time></trkpt>
<trkpt lat="25.454487" lon="100.54955">
<time>2016-04-06T13:04:39Z</time></trkpt>
<trkpt lat="25.454597" lon="100.54953">
<time>2016-04-06T13:04:40Z</time></trkpt>
<trkpt lat="25.454727" lon="100.54949">
<time>2016-04-06T13:04:41Z</time></trkpt>
<trkpt lat="25.454857" lon="100.54945">
<time>2016-04-06T13:04:42Z</time></trkpt>
<trkpt lat="25.454987" lon="100.549409">
<time>2016-04-06T13:04:43Z</time></trkpt>
<trkpt lat="25.455137" lon="100.549359">
<time>2016-04-06T13:04:44Z</time></trkpt>
<trkpt lat="25.455307" lon="100.549309">
<time>2016-04-06T13:04:45Z</time></trkpt>
<trkpt lat="25.455457" lon="100.549269">
<time>2016-04-06T13:04:46Z</time></trkpt>
<trkpt lat="25.455477" lon="100.549269">
<time>2016-04-06T13:04:47Z</time></trkpt>
<trkpt lat="25.455527" lon="100.549239">
<time>2016-04-06T13:04:48Z</time></trkpt>
<trkpt lat="25.455587" lon="100.549189">
<time>2016-04-06T13:04:49Z</time></trkpt>
<trkpt lat="25.455677" lon="100.549109">
<time>2016-04-06T13:04:50Z</time></trkpt>
<trkpt lat="25.455757" lon="100.549019">
<time>2016-04-06T13:04:51Z</time></trkpt>
<trkpt lat="25.455787" lon="100.548969">
<time>2016-04-06T13:04:52Z</time></trkpt>
<trkpt lat="25.455807" lon="100.548939">
<time>2016-04-06T13:04:53Z</time></trkpt>
<trkpt lat="25.455856" lon="100.548838">
<time>2016-04-06T13:04:54Z</time></trkpt>
<trkpt lat="25.455896" lon="100.548728">
<time>2016-04-06T13:04:55Z</time></trkpt>
<trkpt lat="25.455976" lon="100.548468">
<time>2016-04-06T13:04:56Z</time></trkpt>
<trkpt lat="25.456055" lon="100.548257">
<time>2016-04-06T13:04:57Z</time></trkpt>
<trkpt lat="25.456194" lon="100.547736">
<time>2016-04-06T13:04:58Z</time></trkpt>
<trkpt lat="25.456353" lon="100.547245">
<time>2016-04-06T13:04:59Z</time></trkpt>
<trkpt lat="25.456462" lon="100.546884">
<time>2016-04-06T13:05:00Z</time></trkpt>
<trkpt lat="25.456562" lon="100.546494">
<time>2016-04-06T13:05:01Z</time></trkpt>
<trkpt lat="25.456631" lon="100.546263">
<time>2016-04-06T13:05:02Z</time></trkpt>
<trkpt lat="25.456681" lon="100.546053">
<time>2016-04-06T13:05:03Z</time></trkpt>
<trkpt lat="25.45676" lon="100.545852">
<time>2016-04-06T13:05:04Z</time></trkpt>
<trkpt lat="25.45685" lon="100.545612">
<time>2016-04-06T13:05:05Z</time></trkpt>
<trkpt lat="25.456929" lon="100.545421">
<time>2016-04-06T13:05:06Z</time></trkpt>
<trkpt lat="25.456979" lon="100.545301">
<time>2016-04-06T13:05:07Z</time></trkpt>
<trkpt lat="25.457029" lon="100.545211">
<time>2016-04-06T13:05:08Z</time></trkpt>
<trkpt lat="25.457089" lon="100.545101">
<time>2016-04-06T13:05:09Z</time></trkpt>
<trkpt lat="25.457238" lon="100.54485">
<time>2016-04-06T13:05:10Z</time></trkpt>
<trkpt lat="25.457308" lon="100.54469">
<time>2016-04-06T13:05:11Z</time></trkpt>
<trkpt lat="25.457348" lon="100.54459">
<time>2016-04-06T13:05:12Z</time></trkpt>
<trkpt lat="25.457368" lon="100.5445">
<time>2016-04-06T13:05:13Z</time></trkpt>
<trkpt lat="25.457377" lon="100.544429">
<time>2016-04-06T13:05:14Z</time></trkpt>
<trkpt lat="25.457377" lon="100.544339">
<time>2016-04-06T13:05:15Z</time></trkpt>
<trkpt lat="25.457377" lon="100.544249">
<time>2016-04-06T13:05:16Z</time></trkpt>
<trkpt lat="25.457377" lon="100.544159">
<time>2016-04-06T13:05:17Z</time></trkpt>
<trkpt lat="25.457357" lon="100.544039">
<time>2016-04-06T13:05:18Z</time></trkpt>
<trkpt lat="25.457306" lon="100.543778">
<time>2016-04-06T13:05:19Z</time></trkpt>
<trkpt lat="25.457245" lon="100.543477">
<time>2016-04-06T13:05:20Z</time></trkpt>
<trkpt lat="25.457215" lon="100.543327">
<time>2016-04-06T13:05:21Z</time></trkpt>
<trkpt lat="25.457205" lon="100.543227">
<time>2016-04-06T13:05:22Z</time></trkpt>
<trkpt lat="25.457184" lon="100.543117">
<time>2016-04-06T13:05:23Z</time></trkpt>
<trkpt lat="25.457154" lon="100.542976">
<time>2016-04-06T13:05:24Z</time></trkpt>
<trkpt lat="25.457114" lon="100.542826">
<time>2016-04-06T13:05:25Z</time></trkpt>
<trkpt lat="25.457063" lon="100.542686">
<time>2016-04-06T13:05:26Z</time></trkpt>
<trkpt lat="25.457043" lon="100.542626">
<time>2016-04-06T13:05:27Z</time></trkpt>
<trkpt lat="25.457003" lon="100.542555">
<time>2016-04-06T13:05:28Z</time></trkpt>
<trkpt lat="25.456953" lon="100.542485">
<time>2016-04-06T13:05:29Z</time></trkpt>
<trkpt lat="25.456732" lon="100.542235">
<time>2016-04-06T13:05:30Z</time></trkpt>
<trkpt lat="25.456602" lon="100.542104">
<time>2016-04-06T13:05:31Z</time></trkpt>
<trkpt lat="25.456512" lon="100.541994">
<time>2016-04-06T13:05:32Z</time></trkpt>
<trkpt lat="25.456311" lon="100.541764">
<time>2016-04-06T13:05:33Z</time></trkpt>
<trkpt lat="25.456211" lon="100.541643">
<time>2016-04-06T13:05:34Z</time></trkpt>
<trkpt lat="25.45608" lon="100.541503">
<time>2016-04-06T13:05:35Z</time></trkpt>
<trkpt lat="25.45594" lon="100.541373">
<time>2016-04-06T13:05:36Z</time></trkpt>
<trkpt lat="25.45585" lon="100.541303">
<time>2016-04-06T13:05:37Z</time></trkpt>
<trkpt lat="25.45577" lon="100.541253">
<time>2016-04-06T13:05:38Z</time></trkpt>
<trkpt lat="25.45569" lon="100.541202">
<time>2016-04-06T13:05:39Z</time></trkpt>
<trkpt lat="25.45562" lon="100.541172">
<time>2016-04-06T13:05:40Z</time></trkpt>
<trkpt lat="25.45556" lon="100.541152">
<time>2016-04-06T13:05:41Z</time></trkpt>
<trkpt lat="25.455479" lon="100.541132">
<time>2016-04-06T13:05:42Z</time></trkpt>
<trkpt lat="25.455389" lon="100.541112">
<time>2016-04-06T13:05:43Z</time></trkpt>
<trkpt lat="25.455279" lon="100.541102">
<time>2016-04-06T13:05:44Z</time></trkpt>
<trkpt lat="25.454879" lon="100.541072">
<time>2016-04-06T13:05:45Z</time></trkpt>
<trkpt lat="25.454269" lon="100.541012">
<time>2016-04-06T13:05:46Z</time></trkpt>
<trkpt lat="25.453269" lon="100.540962">
<time>2016-04-06T13:05:47Z</time></trkpt>
<trkpt lat="25.452848" lon="100.540932">
<time>2016-04-06T13:05:48Z</time></trkpt>
<trkpt lat="25.452438" lon="100.540902">
<time>2016-04-06T13:05:49Z</time></trkpt>
<trkpt lat="25.452238" lon="100.540902">
<time>2016-04-06T13:05:50Z</time></trkpt>
<trkpt lat="25.452118" lon="100.540902">
<time>2016-04-06T13:05:51Z</time></trkpt>
<trkpt lat="25.452018" lon="100.540902">
<time>2016-04-06T13:05:52Z</time></trkpt>
<trkpt lat="25.451888" lon="100.540912">
<time>2016-04-06T13:05:53Z</time></trkpt>
<trkpt lat="25.450698" lon="100.541062">
<time>2016-04-06T13:05:54Z</time></trkpt>
<trkpt lat="25.450478" lon="100.541082">
<time>2016-04-06T13:05:55Z</time></trkpt>
<trkpt lat="25.450328" lon="100.541092">
<time>2016-04-06T13:05:56Z</time></trkpt>
<trkpt lat="25.450178" lon="100.541092">
<time>2016-04-06T13:05:57Z</time></trkpt>
<trkpt lat="25.450048" lon="100.541072">
<time>2016-04-06T13:05:58Z</time></trkpt>
<trkpt lat="25.449938" lon="100.541062">
<time>2016-04-06T13:05:59Z</time></trkpt>
<trkpt lat="25.449838" lon="100.541032">
<time>2016-04-06T13:06:00Z</time></trkpt>
<trkpt lat="25.449618" lon="100.540992">
<time>2016-04-06T13:06:01Z</time></trkpt>
<trkpt lat="25.449478" lon="100.540952">
<time>2016-04-06T13:06:02Z</time></trkpt>
<trkpt lat="25.449267" lon="100.540912">
<time>2016-04-06T13:06:03Z</time></trkpt>
<trkpt lat="25.449087" lon="100.540862">
<time>2016-04-06T13:06:04Z</time></trkpt>
<trkpt lat="25.448957" lon="100.540822">
<time>2016-04-06T13:06:05Z</time></trkpt>
<trkpt lat="25.448817" lon="100.540772">
<time>2016-04-06T13:06:06Z</time></trkpt>
<trkpt lat="25.448567" lon="100.540681">
<time>2016-04-06T13:06:07Z</time></trkpt>
<trkpt lat="25.448346" lon="100.540591">
<time>2016-04-06T13:06:08Z</time></trkpt>
<trkpt lat="25.447746" lon="100.540311">
<time>2016-04-06T13:06:09Z</time></trkpt>
<trkpt lat="25.447245" lon="100.54008">
<time>2016-04-06T13:06:10Z</time></trkpt>
<trkpt lat="25.446904" lon="100.53992">
<time>2016-04-06T13:06:11Z</time></trkpt>
<trkpt lat="25.446684" lon="100.53983">
<time>2016-04-06T13:06:12Z</time></trkpt>
<trkpt lat="25.446494" lon="100.539749">
<time>2016-04-06T13:06:13Z</time></trkpt>
<trkpt lat="25.446414" lon="100.539699">
<time>2016-04-06T13:06:14Z</time></trkpt>
<trkpt lat="25.446364" lon="100.539669">
<time>2016-04-06T13:06:15Z</time></trkpt>
<trkpt lat="25.446304" lon="100.539629">
<time>2016-04-06T13:06:16Z</time></trkpt>
<trkpt lat="25.446254" lon="100.539569">
<time>2016-04-06T13:06:17Z</time></trkpt>
<trkpt lat="25.446213" lon="100.539519">
<time>2016-04-06T13:06:18Z</time></trkpt>
<trkpt lat="25.446173" lon="100.539449">
<time>2016-04-06T13:06:19Z</time></trkpt>
<trkpt lat="25.446163" lon="100.539429">
<time>2016-04-06T13:06:20Z</time></trkpt>
<trkpt lat="25.446133" lon="100.539369">
<time>2016-04-06T13:06:21Z</time></trkpt>
<trkpt lat="25.446113" lon="100.539278">
<time>2016-04-06T13:06:22Z</time></trkpt>
<trkpt lat="25.446103" lon="100.539208">
<time>2016-04-06T13:06:23Z</time></trkpt>
<trkpt lat="25.446102" lon="100.539148">
<time>2016-04-06T13:06:24Z</time></trkpt>
<trkpt lat="25.446112" lon="100.539078">
<time>2016-04-06T13:06:25Z</time></trkpt>
<trkpt lat="25.446132" lon="100.538998">
<time>2016-04-06T13:06:26Z</time></trkpt>
<trkpt lat="25.446162" lon="100.538918">
<time>2016-04-06T13:06:27Z</time></trkpt>
<trkpt lat="25.446202" lon="100.538857">
<time>2016-04-06T13:06:28Z</time></trkpt>
<trkpt lat="25.446232" lon="100.538807">
<time>2016-04-06T13:06:29Z</time></trkpt>
<trkpt lat="25.446292" lon="100.538757">
<time>2016-04-06T13:06:30Z</time></trkpt>
<trkpt lat="25.446391" lon="100.538697">
<time>2016-04-06T13:06:31Z</time></trkpt>
<trkpt lat="25.446491" lon="100.538637">
<time>2016-04-06T13:06:32Z</time></trkpt>
<trkpt lat="25.446561" lon="100.538597">
<time>2016-04-06T13:06:33Z</time></trkpt>
<trkpt lat="25.446881" lon="100.538456">
<time>2016-04-06T13:06:34Z</time></trkpt>
<trkpt lat="25.447101" lon="100.538356">
<time>2016-04-06T13:06:35Z</time></trkpt>
<trkpt lat="25.447191" lon="100.538316">
<time>2016-04-06T13:06:36Z</time></trkpt>
<trkpt lat="25.447391" lon="100.538196">
<time>2016-04-06T13:06:37Z</time></trkpt>
<trkpt lat="25.44752" lon="100.538116">
<time>2016-04-06T13:06:38Z</time></trkpt>
<trkpt lat="25.44769" lon="100.537985">
<time>2016-04-06T13:06:39Z</time></trkpt>
<trkpt lat="25.4478" lon="100.537905">
<time>2016-04-06T13:06:40Z</time></trkpt>
<trkpt lat="25.44788" lon="100.537825">
<time>2016-04-06T13:06:41Z</time></trkpt>
<trkpt lat="25.448039" lon="100.537675">
<time>2016-04-06T13:06:42Z</time></trkpt>
<trkpt lat="25.448139" lon="100.537584">
<time>2016-04-06T13:06:43Z</time></trkpt>
<trkpt lat="25.448259" lon="100.537474">
<time>2016-04-06T13:06:44Z</time></trkpt>
<trkpt lat="25.448429" lon="100.537304">
<time>2016-04-06T13:06:45Z</time></trkpt>
<trkpt lat="25.448528" lon="100.537223">
<time>2016-04-06T13:06:46Z</time></trkpt>
<trkpt lat="25.448578" lon="100.537173">
<time>2016-04-06T13:06:47Z</time></trkpt>
<trkpt lat="25.448658" lon="100.537103">
<time>2016-04-06T13:06:48Z</time></trkpt>
<trkpt lat="25.448708" lon="100.537063">
<time>2016-04-06T13:06:49Z</time></trkpt>
<trkpt lat="25.448808" lon="100.537003">
<time>2016-04-06T13:06:50Z</time></trkpt>
<trkpt lat="25.448878" lon="100.536973">
<time>2016-04-06T13:06:51Z</time></trkpt>
<trkpt lat="25.449028" lon="100.536883">
<time>2016-04-06T13:06:52Z</time></trkpt>
<trkpt lat="25.449128" lon="100.536823">
<time>2016-04-06T13:06:53Z</time></trkpt>
<trkpt lat="25.449277" lon="100.536742">
<time>2016-04-06T13:06:54Z</time></trkpt>
<trkpt lat="25.449367" lon="100.536692">
<time>2016-04-06T13:06:55Z</time></trkpt>
<trkpt lat="25.449467" lon="100.536622">
<time>2016-04-06T13:06:56Z</time></trkpt>
<trkpt lat="25.449547" lon="100.536552">
<time>2016-04-06T13:06:57Z</time></trkpt>
<trkpt lat="25.449597" lon="100.536492">
<time>2016-04-06T13:06:58Z</time></trkpt>
<trkpt lat="25.449647" lon="100.536391">
<time>2016-04-06T13:06:59Z</time></trkpt>
<trkpt lat="25.449667" lon="100.536331">
<time>2016-04-06T13:07:00Z</time></trkpt>
<trkpt lat="25.449686" lon="100.536251">
<time>2016-04-06T13:07:01Z</time></trkpt>
<trkpt lat="25.449696" lon="100.536191">
<time>2016-04-06T13:07:02Z</time></trkpt>
<trkpt lat="25.449706" lon="100.536111">
<time>2016-04-06T13:07:03Z</time></trkpt>
<trkpt lat="25.449696" lon="100.536041">
<time>2016-04-06T13:07:04Z</time></trkpt>
<trkpt lat="25.449696" lon="100.536001">
<time>2016-04-06T13:07:05Z</time></trkpt>
<trkpt lat="25.449676" lon="100.5359">
<time>2016-04-06T13:07:06Z</time></trkpt>
<trkpt lat="25.449655" lon="100.53575">
<time>2016-04-06T13:07:07Z</time></trkpt>
<trkpt lat="25.449625" lon="100.53559">
<time>2016-04-06T13:07:08Z</time></trkpt>
<trkpt lat="25.449594" lon="100.535429">
<time>2016-04-06T13:07:09Z</time></trkpt>
<trkpt lat="25.449574" lon="100.535329">
<time>2016-04-06T13:07:10Z</time></trkpt>
<trkpt lat="25.449564" lon="100.535229">
<time>2016-04-06T13:07:11Z</time></trkpt>
<trkpt lat="25.449523" lon="100.534727">
<time>2016-04-06T13:07:12Z</time></trkpt>
<trkpt lat="25.449512" lon="100.534507">
<time>2016-04-06T13:07:13Z</time></trkpt>
<trkpt lat="25.449491" lon="100.534226">
<time>2016-04-06T13:07:14Z</time></trkpt>
<trkpt lat="25.449471" lon="100.534036">
<time>2016-04-06T13:07:15Z</time></trkpt>
<trkpt lat="25.44945" lon="100.533865">
<time>2016-04-06T13:07:16Z</time></trkpt>
<trkpt lat="25.44943" lon="100.533665">
<time>2016-04-06T13:07:17Z</time></trkpt>
<trkpt lat="25.44942" lon="100.533525">
<time>2016-04-06T13:07:18Z</time></trkpt>
<trkpt lat="25.449399" lon="100.533424">
<time>2016-04-06T13:07:19Z</time></trkpt>
<trkpt lat="25.449369" lon="100.533234">
<time>2016-04-06T13:07:20Z</time></trkpt>
<trkpt lat="25.449318" lon="100.532973">
<time>2016-04-06T13:07:21Z</time></trkpt>
<trkpt lat="25.449257" lon="100.532632">
<time>2016-04-06T13:07:22Z</time></trkpt>
<trkpt lat="25.449206" lon="100.532352">
<time>2016-04-06T13:07:23Z</time></trkpt>
<trkpt lat="25.449176" lon="100.532101">
<time>2016-04-06T13:07:24Z</time></trkpt>
<trkpt lat="25.449145" lon="100.53191">
<time>2016-04-06T13:07:25Z</time></trkpt>
<trkpt lat="25.449125" lon="100.53177">
<time>2016-04-06T13:07:26Z</time></trkpt>
<trkpt lat="25.449084" lon="100.53158">
<time>2016-04-06T13:07:27Z</time></trkpt>
<trkpt lat="25.449054" lon="100.531459">
<time>2016-04-06T13:07:28Z</time></trkpt>
<trkpt lat="25.448994" lon="100.531289">
<time>2016-04-06T13:07:29Z</time></trkpt>
<trkpt lat="25.448943" lon="100.531139">
<time>2016-04-06T13:07:30Z</time></trkpt>
<trkpt lat="25.448903" lon="100.531028">
<time>2016-04-06T13:07:31Z</time></trkpt>
<trkpt lat="25.448873" lon="100.530928">
<time>2016-04-06T13:07:32Z</time></trkpt>
<trkpt lat="25.448833" lon="100.530848">
<time>2016-04-06T13:07:33Z</time></trkpt>
<trkpt lat="25.448792" lon="100.530758">
<time>2016-04-06T13:07:34Z</time></trkpt>
<trkpt lat="25.448752" lon="100.530677">
<time>2016-04-06T13:07:35Z</time></trkpt>
<trkpt lat="25.448702" lon="100.530597">
<time>2016-04-06T13:07:36Z</time></trkpt>
<trkpt lat="25.448642" lon="100.530507">
<time>2016-04-06T13:07:37Z</time></trkpt>
<trkpt lat="25.448591" lon="100.530437">
<time>2016-04-06T13:07:38Z</time></trkpt>
<trkpt lat="25.448521" lon="100.530367">
<time>2016-04-06T13:07:39Z</time></trkpt>
<trkpt lat="25.448441" lon="100.530286">
<time>2016-04-06T13:07:40Z</time></trkpt>
<trkpt lat="25.44806" lon="100.529905">
<time>2016-04-06T13:07:41Z</time></trkpt>
<trkpt lat="25.447659" lon="100.529494">
<time>2016-04-06T13:07:42Z</time></trkpt>
<trkpt lat="25.447478" lon="100.529304">
<time>2016-04-06T13:07:43Z</time></trkpt>
<trkpt lat="25.447328" lon="100.529133">
<time>2016-04-06T13:07:44Z</time></trkpt>
<trkpt lat="25.447187" lon="100.528993">
<time>2016-04-06T13:07:45Z</time></trkpt>
<trkpt lat="25.447077" lon="100.528853">
<time>2016-04-06T13:07:46Z</time></trkpt>
<trkpt lat="25.447007" lon="100.528752">
<time>2016-04-06T13:07:47Z</time></trkpt>
<trkpt lat="25.446997" lon="100.528742">
<time>2016-04-06T13:07:48Z</time></trkpt>
<trkpt lat="25.446886" lon="100.528582">
<time>2016-04-06T13:07:49Z</time></trkpt>
<trkpt lat="25.446806" lon="100.528442">
<time>2016-04-06T13:07:50Z</time></trkpt>
<trkpt lat="25.446725" lon="100.528291">
<time>2016-04-06T13:07:51Z</time></trkpt>
<trkpt lat="25.446675" lon="100.528171">
<time>2016-04-06T13:07:52Z</time></trkpt>
<trkpt lat="25.446483" lon="100.527639">
<time>2016-04-06T13:07:53Z</time></trkpt>
<trkpt lat="25.446372" lon="100.527268">
<time>2016-04-06T13:07:54Z</time></trkpt>
<trkpt lat="25.446322" lon="100.527068">
<time>2016-04-06T13:07:55Z</time></trkpt>
<trkpt lat="25.446272" lon="100.526938">
<time>2016-04-06T13:07:56Z</time></trkpt>
<trkpt lat="25.446211" lon="100.526787">
<time>2016-04-06T13:07:57Z</time></trkpt>
<trkpt lat="25.446151" lon="100.526637">
<time>2016-04-06T13:07:58Z</time></trkpt>
<trkpt lat="25.4461" lon="100.526506">
<time>2016-04-06T13:07:59Z</time></trkpt>
<trkpt lat="25.44607" lon="100.526436">
<time>2016-04-06T13:08:00Z</time></trkpt>
<trkpt lat="25.44602" lon="100.526346">
<time>2016-04-06T13:08:01Z</time></trkpt>
<trkpt lat="25.44598" lon="100.526276">
<time>2016-04-06T13:08:02Z</time></trkpt>
<trkpt lat="25.44594" lon="100.526226">
<time>2016-04-06T13:08:03Z</time></trkpt>
<trkpt lat="25.445849" lon="100.526085">
<time>2016-04-06T13:08:04Z</time></trkpt>
<trkpt lat="25.445769" lon="100.525965">
<time>2016-04-06T13:08:05Z</time></trkpt>
<trkpt lat="25.445658" lon="100.525835">
<time>2016-04-06T13:08:06Z</time></trkpt>
<trkpt lat="25.445528" lon="100.525654">
<time>2016-04-06T13:08:07Z</time></trkpt>
<trkpt lat="25.445437" lon="100.525514">
<time>2016-04-06T13:08:08Z</time></trkpt>
<trkpt lat="25.445367" lon="100.525424">
<time>2016-04-06T13:08:09Z</time></trkpt>
<trkpt lat="25.445327" lon="100.525363">
<time>2016-04-06T13:08:10Z</time></trkpt>
<trkpt lat="25.445267" lon="100.525313">
<time>2016-04-06T13:08:11Z</time></trkpt>
<trkpt lat="25.445207" lon="100.525253">
<time>2016-04-06T13:08:12Z</time></trkpt>
<trkpt lat="25.445126" lon="100.525173">
<time>2016-04-06T13:08:13Z</time></trkpt>
<trkpt lat="25.445046" lon="100.525113">
<time>2016-04-06T13:08:14Z</time></trkpt>
<trkpt lat="25.444966" lon="100.525043">
<time>2016-04-06T13:08:15Z</time></trkpt>
<trkpt lat="25.444826" lon="100.524922">
<time>2016-04-06T13:08:16Z</time></trkpt>
<trkpt lat="25.444655" lon="100.524782">
<time>2016-04-06T13:08:17Z</time></trkpt>
<trkpt lat="25.444545" lon="100.524682">
<time>2016-04-06T13:08:18Z</time></trkpt>
<trkpt lat="25.444435" lon="100.524571">
<time>2016-04-06T13:08:19Z</time></trkpt>
<trkpt lat="25.444364" lon="100.524491">
<time>2016-04-06T13:08:20Z</time></trkpt>
<trkpt lat="25.444294" lon="100.524411">
<time>2016-04-06T13:08:21Z</time></trkpt>
<trkpt lat="25.444254" lon="100.524351">
<time>2016-04-06T13:08:22Z</time></trkpt>
<trkpt lat="25.444184" lon="100.52425">
<time>2016-04-06T13:08:23Z</time></trkpt>
<trkpt lat="25.444133" lon="100.52415">
<time>2016-04-06T13:08:24Z</time></trkpt>
<trkpt lat="25.444073" lon="100.52405">
<time>2016-04-06T13:08:25Z</time></trkpt>
<trkpt lat="25.444013" lon="100.52393">
<time>2016-04-06T13:08:26Z</time></trkpt>
<trkpt lat="25.443932" lon="100.523759">
<time>2016-04-06T13:08:27Z</time></trkpt>
<trkpt lat="25.443812" lon="100.523498">
<time>2016-04-06T13:08:28Z</time></trkpt>
<trkpt lat="25.443691" lon="100.523278">
<time>2016-04-06T13:08:29Z</time></trkpt>
<trkpt lat="25.443611" lon="100.523127">
<time>2016-04-06T13:08:30Z</time></trkpt>
<trkpt lat="25.44349" lon="100.522917">
<time>2016-04-06T13:08:31Z</time></trkpt>
<trkpt lat="25.443379" lon="100.522756">
<time>2016-04-06T13:08:32Z</time></trkpt>
<trkpt lat="25.443279" lon="100.522606">
<time>2016-04-06T13:08:33Z</time></trkpt>
<trkpt lat="25.443088" lon="100.522325">
<time>2016-04-06T13:08:34Z</time></trkpt>
<trkpt lat="25.442958" lon="100.522135">
<time>2016-04-06T13:08:35Z</time></trkpt>
<trkpt lat="25.442847" lon="100.521944">
<time>2016-04-06T13:08:36Z</time></trkpt>
<trkpt lat="25.442746" lon="100.521754">
<time>2016-04-06T13:08:37Z</time></trkpt>
<trkpt lat="25.442666" lon="100.521563">
<time>2016-04-06T13:08:38Z</time></trkpt>
<trkpt lat="25.442616" lon="100.521443">
<time>2016-04-06T13:08:39Z</time></trkpt>
<trkpt lat="25.442545" lon="100.521312">
<time>2016-04-06T13:08:40Z</time></trkpt>
<trkpt lat="25.442485" lon="100.521182">
<time>2016-04-06T13:08:41Z</time></trkpt>
<trkpt lat="25.442424" lon="100.521072">
<time>2016-04-06T13:08:42Z</time></trkpt>
<trkpt lat="25.442354" lon="100.520951">
<time>2016-04-06T13:08:43Z</time></trkpt>
<trkpt lat="25.442274" lon="100.520841">
<time>2016-04-06T13:08:44Z</time></trkpt>
<trkpt lat="25.442224" lon="100.520771">
<time>2016-04-06T13:08:45Z</time></trkpt>
<trkpt lat="25.442163" lon="100.520701">
<time>2016-04-06T13:08:46Z</time></trkpt>
<trkpt lat="25.442103" lon="100.52062">
<time>2016-04-06T13:08:47Z</time></trkpt>
<trkpt lat="25.441822" lon="100.52032">
<time>2016-04-06T13:08:48Z</time></trkpt>
<trkpt lat="25.441712" lon="100.520179">
<time>2016-04-06T13:08:49Z</time></trkpt>
<trkpt lat="25.441621" lon="100.520019">
<time>2016-04-06T13:08:50Z</time></trkpt>
<trkpt lat="25.441551" lon="100.519878">
<time>2016-04-06T13:08:51Z</time></trkpt>
<trkpt lat="25.441501" lon="100.519758">
<time>2016-04-06T13:08:52Z</time></trkpt>
<trkpt lat="25.44146" lon="100.519598">
<time>2016-04-06T13:08:53Z</time></trkpt>
<trkpt lat="25.44145" lon="100.519467">
<time>2016-04-06T13:08:54Z</time></trkpt>
<trkpt lat="25.441459" lon="100.519387">
<time>2016-04-06T13:08:55Z</time></trkpt>
<trkpt lat="25.441469" lon="100.519307">
<time>2016-04-06T13:08:56Z</time></trkpt>
<trkpt lat="25.441499" lon="100.519196">
<time>2016-04-06T13:08:57Z</time></trkpt>
<trkpt lat="25.441558" lon="100.519016">
<time>2016-04-06T13:08:58Z</time></trkpt>
<trkpt lat="25.441648" lon="100.518775">
<time>2016-04-06T13:08:59Z</time></trkpt>
<trkpt lat="25.441737" lon="100.518484">
<time>2016-04-06T13:09:00Z</time></trkpt>
<trkpt lat="25.441836" lon="100.518153">
<time>2016-04-06T13:09:01Z</time></trkpt>
<trkpt lat="25.441915" lon="100.517923">
<time>2016-04-06T13:09:02Z</time></trkpt>
<trkpt lat="25.442144" lon="100.517431">
<time>2016-04-06T13:09:03Z</time></trkpt>
<trkpt lat="25.442194" lon="100.517301">
<time>2016-04-06T13:09:04Z</time></trkpt>
<trkpt lat="25.442224" lon="100.517221">
<time>2016-04-06T13:09:05Z</time></trkpt>
<trkpt lat="25.442243" lon="100.517141">
<time>2016-04-06T13:09:06Z</time></trkpt>
<trkpt lat="25.442273" lon="100.51703">
<time>2016-04-06T13:09:07Z</time></trkpt>
<trkpt lat="25.442293" lon="100.51693">
<time>2016-04-06T13:09:08Z</time></trkpt>
<trkpt lat="25.442302" lon="100.51685">
<time>2016-04-06T13:09:09Z</time></trkpt>
<trkpt lat="25.442322" lon="100.516689">
<time>2016-04-06T13:09:10Z</time></trkpt>
<trkpt lat="25.442439" lon="100.515686">
<time>2016-04-06T13:09:11Z</time></trkpt>
<trkpt lat="25.442459" lon="100.515526">
<time>2016-04-06T13:09:12Z</time></trkpt>
<trkpt lat="25.442458" lon="100.515456">
<time>2016-04-06T13:09:13Z</time></trkpt>
<trkpt lat="25.442458" lon="100.515365">
<time>2016-04-06T13:09:14Z</time></trkpt>
<trkpt lat="25.442448" lon="100.515295">
<time>2016-04-06T13:09:15Z</time></trkpt>
<trkpt lat="25.442438" lon="100.515235">
<time>2016-04-06T13:09:16Z</time></trkpt>
<trkpt lat="25.442418" lon="100.515165">
<time>2016-04-06T13:09:17Z</time></trkpt>
<trkpt lat="25.442397" lon="100.515105">
<time>2016-04-06T13:09:18Z</time></trkpt>
<trkpt lat="25.442367" lon="100.515014">
<time>2016-04-06T13:09:19Z</time></trkpt>
<trkpt lat="25.442347" lon="100.514964">
<time>2016-04-06T13:09:20Z</time></trkpt>
<trkpt lat="25.442317" lon="100.514904">
<time>2016-04-06T13:09:21Z</time></trkpt>
<trkpt lat="25.442166" lon="100.514603">
<time>2016-04-06T13:09:22Z</time></trkpt>
<trkpt lat="25.442045" lon="100.514342">
<time>2016-04-06T13:09:23Z</time></trkpt>
<trkpt lat="25.442015" lon="100.514252">
<time>2016-04-06T13:09:24Z</time></trkpt>
<trkpt lat="25.441995" lon="100.514162">
<time>2016-04-06T13:09:25Z</time></trkpt>
<trkpt lat="25.441964" lon="100.514082">
<time>2016-04-06T13:09:26Z</time></trkpt>
<trkpt lat="25.441944" lon="100.514001">
<time>2016-04-06T13:09:27Z</time></trkpt>
<trkpt lat="25.441934" lon="100.513941">
<time>2016-04-06T13:09:28Z</time></trkpt>
<trkpt lat="25.441934" lon="100.513871">
<time>2016-04-06T13:09:29Z</time></trkpt>
<trkpt lat="25.441934" lon="100.513801">
<time>2016-04-06T13:09:30Z</time></trkpt>
<trkpt lat="25.441933" lon="100.513741">
<time>2016-04-06T13:09:31Z</time></trkpt>
<trkpt lat="25.441943" lon="100.513701">
<time>2016-04-06T13:09:32Z</time></trkpt>
<trkpt lat="25.441953" lon="100.51366">
<time>2016-04-06T13:09:33Z</time></trkpt>
<trkpt lat="25.441983" lon="100.5136">
<time>2016-04-06T13:09:34Z</time></trkpt>
<trkpt lat="25.442003" lon="100.51356">
<time>2016-04-06T13:09:35Z</time></trkpt>
<trkpt lat="25.442033" lon="100.51352">
<time>2016-04-06T13:09:36Z</time></trkpt>
<trkpt lat="25.442063" lon="100.51349">
<time>2016-04-06T13:09:37Z</time></trkpt>
<trkpt lat="25.442103" lon="100.51345">
<time>2016-04-06T13:09:38Z</time></trkpt>
<trkpt lat="25.442162" lon="100.51341">
<time>2016-04-06T13:09:39Z</time></trkpt>
<trkpt lat="25.442222" lon="100.51339">
<time>2016-04-06T13:09:40Z</time></trkpt>
<trkpt lat="25.442262" lon="100.51336">
<time>2016-04-06T13:09:41Z</time></trkpt>
<trkpt lat="25.442332" lon="100.513339">
<time>2016-04-06T13:09:42Z</time></trkpt>
<trkpt lat="25.442962" lon="100.513189">
<time>2016-04-06T13:09:43Z</time></trkpt>
<trkpt lat="25.442972" lon="100.513189">
<time>2016-04-06T13:09:44Z</time></trkpt>
<trkpt lat="25.443252" lon="100.513129">
<time>2016-04-06T13:09:45Z</time></trkpt>
<trkpt lat="25.443632" lon="100.513039">
<time>2016-04-06T13:09:46Z</time></trkpt>
<trkpt lat="25.443812" lon="100.512998">
<time>2016-04-06T13:09:47Z</time></trkpt>
<trkpt lat="25.444012" lon="100.512958">
<time>2016-04-06T13:09:48Z</time></trkpt>
<trkpt lat="25.444112" lon="100.512948">
<time>2016-04-06T13:09:49Z</time></trkpt>
<trkpt lat="25.444172" lon="100.512938">
<time>2016-04-06T13:09:50Z</time></trkpt>
<trkpt lat="25.444202" lon="100.512928">
<time>2016-04-06T13:09:51Z</time></trkpt>
<trkpt lat="25.444301" lon="100.512898">
<time>2016-04-06T13:09:52Z</time></trkpt>
<trkpt lat="25.444561" lon="100.512848">
<time>2016-04-06T13:09:53Z</time></trkpt>
<trkpt lat="25.444721" lon="100.512808">
<time>2016-04-06T13:09:54Z</time></trkpt>
<trkpt lat="25.444851" lon="100.512768">
<time>2016-04-06T13:09:55Z</time></trkpt>
<trkpt lat="25.444941" lon="100.512748">
<time>2016-04-06T13:09:56Z</time></trkpt>
<trkpt lat="25.445031" lon="100.512698">
<time>2016-04-06T13:09:57Z</time></trkpt>
<trkpt lat="25.445101" lon="100.512647">
<time>2016-04-06T13:09:58Z</time></trkpt>
<trkpt lat="25.445151" lon="100.512607">
<time>2016-04-06T13:09:59Z</time></trkpt>
<trkpt lat="25.445201" lon="100.512547">
<time>2016-04-06T13:10:00Z</time></trkpt>
<trkpt lat="25.445241" lon="100.512497">
<time>2016-04-06T13:10:01Z</time></trkpt>
<trkpt lat="25.44527" lon="100.512447">
<time>2016-04-06T13:10:02Z</time></trkpt>
<trkpt lat="25.4453" lon="100.512377">
<time>2016-04-06T13:10:03Z</time></trkpt>
<trkpt lat="25.44531" lon="100.512316">
<time>2016-04-06T13:10:04Z</time></trkpt>
<trkpt lat="25.44533" lon="100.512246">
<time>2016-04-06T13:10:05Z</time></trkpt>
<trkpt lat="25.44533" lon="100.512176">
<time>2016-04-06T13:10:06Z</time></trkpt>
<trkpt lat="25.445339" lon="100.511925">
<time>2016-04-06T13:10:07Z</time></trkpt>
<trkpt lat="25.445327" lon="100.511273">
<time>2016-04-06T13:10:08Z</time></trkpt>
<trkpt lat="25.445336" lon="100.511043">
<time>2016-04-06T13:10:09Z</time></trkpt>
<trkpt lat="25.445356" lon="100.510892">
<time>2016-04-06T13:10:10Z</time></trkpt>
<trkpt lat="25.445375" lon="100.510732">
<time>2016-04-06T13:10:11Z</time></trkpt>
<trkpt lat="25.445395" lon="100.510611">
<time>2016-04-06T13:10:12Z</time></trkpt>
<trkpt lat="25.445454" lon="100.510341">
<time>2016-04-06T13:10:13Z</time></trkpt>
<trkpt lat="25.445523" lon="100.509919">
<time>2016-04-06T13:10:14Z</time></trkpt>
<trkpt lat="25.445572" lon="100.509638">
<time>2016-04-06T13:10:15Z</time></trkpt>
<trkpt lat="25.445621" lon="100.509388">
<time>2016-04-06T13:10:16Z</time></trkpt>
<trkpt lat="25.445641" lon="100.509277">
<time>2016-04-06T13:10:17Z</time></trkpt>
<trkpt lat="25.445651" lon="100.509227">
<time>2016-04-06T13:10:18Z</time></trkpt>
<trkpt lat="25.445661" lon="100.509187">
<time>2016-04-06T13:10:19Z</time></trkpt>
<trkpt lat="25.445651" lon="100.509127">
<time>2016-04-06T13:10:20Z</time></trkpt>
<trkpt lat="25.44565" lon="100.509037">
<time>2016-04-06T13:10:21Z</time></trkpt>
<trkpt lat="25.44564" lon="100.508966">
<time>2016-04-06T13:10:22Z</time></trkpt>
<trkpt lat="25.44561" lon="100.508856">
<time>2016-04-06T13:10:23Z</time></trkpt>
<trkpt lat="25.44557" lon="100.508726">
<time>2016-04-06T13:10:24Z</time></trkpt>
<trkpt lat="25.445519" lon="100.508595">
<time>2016-04-06T13:10:25Z</time></trkpt>
<trkpt lat="25.445479" lon="100.508505">
<time>2016-04-06T13:10:26Z</time></trkpt>
<trkpt lat="25.445418" lon="100.508385">
<time>2016-04-06T13:10:27Z</time></trkpt>
<trkpt lat="25.445368" lon="100.508325">
<time>2016-04-06T13:10:28Z</time></trkpt>
<trkpt lat="25.445308" lon="100.508244">
<time>2016-04-06T13:10:29Z</time></trkpt>
<trkpt lat="25.445238" lon="100.508184">
<time>2016-04-06T13:10:30Z</time></trkpt>
<trkpt lat="25.445178" lon="100.508134">
<time>2016-04-06T13:10:31Z</time></trkpt>
<trkpt lat="25.445087" lon="100.508074">
<time>2016-04-06T13:10:32Z</time></trkpt>
<trkpt lat="25.444987" lon="100.508024">
<time>2016-04-06T13:10:33Z</time></trkpt>
<trkpt lat="25.444907" lon="100.507983">
<time>2016-04-06T13:10:34Z</time></trkpt>
<trkpt lat="25.444747" lon="100.507913">
<time>2016-04-06T13:10:35Z</time></trkpt>
<trkpt lat="25.444567" lon="100.507823">
<time>2016-04-06T13:10:36Z</time></trkpt>
<trkpt lat="25.444356" lon="100.507713">
<time>2016-04-06T13:10:37Z</time></trkpt>
<trkpt lat="25.444256" lon="100.507653">
<time>2016-04-06T13:10:38Z</time></trkpt>
<trkpt lat="25.444186" lon="100.507612">
<time>2016-04-06T13:10:39Z</time></trkpt>
<trkpt lat="25.444106" lon="100.507562">
<time>2016-04-06T13:10:40Z</time></trkpt>
<trkpt lat="25.444025" lon="100.507492">
<time>2016-04-06T13:10:41Z</time></trkpt>
<trkpt lat="25.443915" lon="100.507402">
<time>2016-04-06T13:10:42Z</time></trkpt>
<trkpt lat="25.443795" lon="100.507291">
<time>2016-04-06T13:10:43Z</time></trkpt>
<trkpt lat="25.443544" lon="100.507061">
<time>2016-04-06T13:10:44Z</time></trkpt>
<trkpt lat="25.443414" lon="100.50693">
<time>2016-04-06T13:10:45Z</time></trkpt>
<trkpt lat="25.443323" lon="100.50685">
<time>2016-04-06T13:10:46Z</time></trkpt>
<trkpt lat="25.443243" lon="100.50679">
<time>2016-04-06T13:10:47Z</time></trkpt>
<trkpt lat="25.443133" lon="100.50671">
<time>2016-04-06T13:10:48Z</time></trkpt>
<trkpt lat="25.443053" lon="100.50665">
<time>2016-04-06T13:10:49Z</time></trkpt>
<trkpt lat="25.442973" lon="100.506599">
<time>2016-04-06T13:10:50Z</time></trkpt>
<trkpt lat="25.442852" lon="100.506529">
<time>2016-04-06T13:10:51Z</time></trkpt>
<trkpt lat="25.442732" lon="100.506449">
<time>2016-04-06T13:10:52Z</time></trkpt>
<trkpt lat="25.442512" lon="100.506319">
<time>2016-04-06T13:10:53Z</time></trkpt>
<trkpt lat="25.442441" lon="100.506258">
<time>2016-04-06T13:10:54Z</time></trkpt>
<trkpt lat="25.442371" lon="100.506208">
<time>2016-04-06T13:10:55Z</time></trkpt>
<trkpt lat="25.442301" lon="100.506138">
<time>2016-04-06T13:10:56Z</time></trkpt>
<trkpt lat="25.442231" lon="100.506068">
<time>2016-04-06T13:10:57Z</time></trkpt>
<trkpt lat="25.44203" lon="100.505797">
<time>2016-04-06T13:10:58Z</time></trkpt>
<trkpt lat="25.44195" lon="100.505687">
<time>2016-04-06T13:10:59Z</time></trkpt>
<trkpt lat="25.441839" lon="100.505556">
<time>2016-04-06T13:11:00Z</time></trkpt>
<trkpt lat="25.441759" lon="100.505426">
<time>2016-04-06T13:11:01Z</time></trkpt>
<trkpt lat="25.441678" lon="100.505316">
<time>2016-04-06T13:11:02Z</time></trkpt>
<trkpt lat="25.441618" lon="100.505215">
<time>2016-04-06T13:11:03Z</time></trkpt>
<trkpt lat="25.441538" lon="100.505075">
<time>2016-04-06T13:11:04Z</time></trkpt>
<trkpt lat="25.441517" lon="100.505005">
<time>2016-04-06T13:11:05Z</time></trkpt>
<trkpt lat="25.441447" lon="100.504814">
<time>2016-04-06T13:11:06Z</time></trkpt>
<trkpt lat="25.441336" lon="100.504543">
<time>2016-04-06T13:11:07Z</time></trkpt>
<trkpt lat="25.441276" lon="100.504383">
<time>2016-04-06T13:11:08Z</time></trkpt>
<trkpt lat="25.441215" lon="100.504232">
<time>2016-04-06T13:11:09Z</time></trkpt>
<trkpt lat="25.441195" lon="100.504152">
<time>2016-04-06T13:11:10Z</time></trkpt>
<trkpt lat="25.441164" lon="100.504042">
<time>2016-04-06T13:11:11Z</time></trkpt>
<trkpt lat="25.441164" lon="100.503961">
<time>2016-04-06T13:11:12Z</time></trkpt>
<trkpt lat="25.441154" lon="100.503891">
<time>2016-04-06T13:11:13Z</time></trkpt>
<trkpt lat="25.441164" lon="100.503741">
<time>2016-04-06T13:11:14Z</time></trkpt>
<trkpt lat="25.441173" lon="100.50364">
<time>2016-04-06T13:11:15Z</time></trkpt>
<trkpt lat="25.441202" lon="100.50333">
<time>2016-04-06T13:11:16Z</time></trkpt>
<trkpt lat="25.441222" lon="100.503169">
<time>2016-04-06T13:11:17Z</time></trkpt>
<trkpt lat="25.441222" lon="100.503059">
<time>2016-04-06T13:11:18Z</time></trkpt>
<trkpt lat="25.441211" lon="100.502968">
<time>2016-04-06T13:11:19Z</time></trkpt>
<trkpt lat="25.441201" lon="100.502848">
<time>2016-04-06T13:11:20Z</time></trkpt>
<trkpt lat="25.441181" lon="100.502748">
<time>2016-04-06T13:11:21Z</time></trkpt>
<trkpt lat="25.44113" lon="100.502627">
<time>2016-04-06T13:11:22Z</time></trkpt>
<trkpt lat="25.44106" lon="100.502467">
<time>2016-04-06T13:11:23Z</time></trkpt>
<trkpt lat="25.440999" lon="100.502327">
<time>2016-04-06T13:11:24Z</time></trkpt>
<trkpt lat="25.440889" lon="100.502096">
<time>2016-04-06T13:11:25Z</time></trkpt>
<trkpt lat="25.440828" lon="100.501925">
<time>2016-04-06T13:11:26Z</time></trkpt>
<trkpt lat="25.440778" lon="100.501795">
<time>2016-04-06T13:11:27Z</time></trkpt>
<trkpt lat="25.440747" lon="100.501695">
<time>2016-04-06T13:11:28Z</time></trkpt>
<trkpt lat="25.440727" lon="100.501584">
<time>2016-04-06T13:11:29Z</time></trkpt>
<trkpt lat="25.440707" lon="100.501444">
<time>2016-04-06T13:11:30Z</time></trkpt>
<trkpt lat="25.440696" lon="100.501333">
<time>2016-04-06T13:11:31Z</time></trkpt>
<trkpt lat="25.440686" lon="100.501133">
<time>2016-04-06T13:11:32Z</time></trkpt>
<trkpt lat="25.440665" lon="100.500952">
<time>2016-04-06T13:11:33Z</time></trkpt>
<trkpt lat="25.440645" lon="100.500842">
<time>2016-04-06T13:11:34Z</time></trkpt>
<trkpt lat="25.440614" lon="100.500752">
<time>2016-04-06T13:11:35Z</time></trkpt>
<trkpt lat="25.440574" lon="100.500682">
<time>2016-04-06T13:11:36Z</time></trkpt>
<trkpt lat="25.440514" lon="100.500601">
<time>2016-04-06T13:11:37Z</time></trkpt>
<trkpt lat="25.440464" lon="100.500541">
<time>2016-04-06T13:11:38Z</time></trkpt>
<trkpt lat="25.440414" lon="100.500491">
<time>2016-04-06T13:11:39Z</time></trkpt>
<trkpt lat="25.440343" lon="100.500441">
<time>2016-04-06T13:11:40Z</time></trkpt>
<trkpt lat="25.440293" lon="100.500411">
<time>2016-04-06T13:11:41Z</time></trkpt>
<trkpt lat="25.440203" lon="100.500371">
<time>2016-04-06T13:11:42Z</time></trkpt>
<trkpt lat="25.440033" lon="100.50034">
<time>2016-04-06T13:11:43Z</time></trkpt>
<trkpt lat="25.439883" lon="100.50032">
<time>2016-04-06T13:11:44Z</time></trkpt>
<trkpt lat="25.439623" lon="100.5003">
<time>2016-04-06T13:11:45Z</time></trkpt>
<trkpt lat="25.439393" lon="100.50027">
<time>2016-04-06T13:11:46Z</time></trkpt>
<trkpt lat="25.439223" lon="100.50022">
<time>2016-04-06T13:11:47Z</time></trkpt>
<trkpt lat="25.439142" lon="100.5002">
<time>2016-04-06T13:11:48Z</time></trkpt>
<trkpt lat="25.439032" lon="100.50014">
<time>2016-04-06T13:11:49Z</time></trkpt>
<trkpt lat="25.438912" lon="100.50008">
<time>2016-04-06T13:11:50Z</time></trkpt>
<trkpt lat="25.438822" lon="100.50002">
<time>2016-04-06T13:11:51Z</time></trkpt>
<trkpt lat="25.438661" lon="100.499919">
<time>2016-04-06T13:11:52Z</time></trkpt>
<trkpt lat="25.438531" lon="100.499849">
<time>2016-04-06T13:11:53Z</time></trkpt>
<trkpt lat="25.438471" lon="100.499799">
<time>2016-04-06T13:11:54Z</time></trkpt>
<trkpt lat="25.438361" lon="100.499719">
<time>2016-04-06T13:11:55Z</time></trkpt>
<trkpt lat="25.438291" lon="100.499658">
<time>2016-04-06T13:11:56Z</time></trkpt>
<trkpt lat="25.43821" lon="100.499588">
<time>2016-04-06T13:11:57Z</time></trkpt>
<trkpt lat="25.43814" lon="100.499518">
<time>2016-04-06T13:11:58Z</time></trkpt>
<trkpt lat="25.438" lon="100.499388">
<time>2016-04-06T13:11:59Z</time></trkpt>
<trkpt lat="25.437829" lon="100.499217">
<time>2016-04-06T13:12:00Z</time></trkpt>
<trkpt lat="25.437649" lon="100.499037">
<time>2016-04-06T13:12:01Z</time></trkpt>
<trkpt lat="25.437548" lon="100.498926">
<time>2016-04-06T13:12:02Z</time></trkpt>
<trkpt lat="25.437468" lon="100.498856">
<time>2016-04-06T13:12:03Z</time></trkpt>
<trkpt lat="25.437378" lon="100.498776">
<time>2016-04-06T13:12:04Z</time></trkpt>
<trkpt lat="25.437257" lon="100.498665">
<time>2016-04-06T13:12:05Z</time></trkpt>
<trkpt lat="25.437167" lon="100.498585">
<time>2016-04-06T13:12:06Z</time></trkpt>
<trkpt lat="25.437067" lon="100.498505">
<time>2016-04-06T13:12:07Z</time></trkpt>
<trkpt lat="25.436947" lon="100.498415">
<time>2016-04-06T13:12:08Z</time></trkpt>
<trkpt lat="25.436826" lon="100.498334">
<time>2016-04-06T13:12:09Z</time></trkpt>
<trkpt lat="25.436766" lon="100.498304">
<time>2016-04-06T13:12:10Z</time></trkpt>
<trkpt lat="25.436696" lon="100.498254">
<time>2016-04-06T13:12:11Z</time></trkpt>
<trkpt lat="25.436646" lon="100.498214">
<time>2016-04-06T13:12:12Z</time></trkpt>
<trkpt lat="25.436566" lon="100.498174">
<time>2016-04-06T13:12:13Z</time></trkpt>
<trkpt lat="25.436516" lon="100.498144">
<time>2016-04-06T13:12:14Z</time></trkpt>
<trkpt lat="25.436476" lon="100.498124">
<time>2016-04-06T13:12:15Z</time></trkpt>
<trkpt lat="25.436395" lon="100.498094">
<time>2016-04-06T13:12:16Z</time></trkpt>
<trkpt lat="25.436335" lon="100.498064">
<time>2016-04-06T13:12:17Z</time></trkpt>
<trkpt lat="25.436195" lon="100.498013">
<time>2016-04-06T13:12:18Z</time></trkpt>
<trkpt lat="25.435935" lon="100.497943">
<time>2016-04-06T13:12:19Z</time></trkpt>
<trkpt lat="25.435555" lon="100.497853">
<time>2016-04-06T13:12:20Z</time></trkpt>
<trkpt lat="25.435394" lon="100.497823">
<time>2016-04-06T13:12:21Z</time></trkpt>
<trkpt lat="25.435254" lon="100.497803">
<time>2016-04-06T13:12:22Z</time></trkpt>
<trkpt lat="25.435174" lon="100.497793">
<time>2016-04-06T13:12:23Z</time></trkpt>
<trkpt lat="25.435004" lon="100.497783">
<time>2016-04-06T13:12:24Z</time></trkpt>
<trkpt lat="25.434804" lon="100.497763">
<time>2016-04-06T13:12:25Z</time></trkpt>
<trkpt lat="25.434734" lon="100.497753">
<time>2016-04-06T13:12:26Z</time></trkpt>
<trkpt lat="25.434654" lon="100.497733">
<time>2016-04-06T13:12:27Z</time></trkpt>
<trkpt lat="25.434554" lon="100.497723">
<time>2016-04-06T13:12:28Z</time></trkpt>
<trkpt lat="25.434494" lon="100.497703">
<time>2016-04-06T13:12:29Z</time></trkpt>
<trkpt lat="25.434404" lon="100.497673">
<time>2016-04-06T13:12:30Z</time></trkpt>
<trkpt lat="25.434324" lon="100.497632">
<time>2016-04-06T13:12:31Z</time></trkpt>
<trkpt lat="25.434213" lon="100.497582">
<time>2016-04-06T13:12:32Z</time></trkpt>
<trkpt lat="25.434053" lon="100.497492">
<time>2016-04-06T13:12:33Z</time></trkpt>
<trkpt lat="25.433712" lon="100.497291">
<time>2016-04-06T13:12:34Z</time></trkpt>
<trkpt lat="25.433602" lon="100.497221">
<time>2016-04-06T13:12:35Z</time></trkpt>
<trkpt lat="25.433552" lon="100.497181">
<time>2016-04-06T13:12:36Z</time></trkpt>
<trkpt lat="25.433492" lon="100.497151">
<time>2016-04-06T13:12:37Z</time></trkpt>
<trkpt lat="25.433452" lon="100.497111">
<time>2016-04-06T13:12:38Z</time></trkpt>
<trkpt lat="25.433422" lon="100.497081">
<time>2016-04-06T13:12:39Z</time></trkpt>
<trkpt lat="25.433402" lon="100.497061">
<time>2016-04-06T13:12:40Z</time></trkpt>
<trkpt lat="25.433361" lon="100.497011">
<time>2016-04-06T13:12:41Z</time></trkpt>
<trkpt lat="25.433321" lon="100.49697">
<time>2016-04-06T13:12:42Z</time></trkpt>
<trkpt lat="25.433291" lon="100.49691">
<time>2016-04-06T13:12:43Z</time></trkpt>
<trkpt lat="25.433231" lon="100.49683">
<time>2016-04-06T13:12:44Z</time></trkpt>
<trkpt lat="25.43312" lon="100.496639">
<time>2016-04-06T13:12:45Z</time></trkpt>
<trkpt lat="25.432919" lon="100.496288">
<time>2016-04-06T13:12:46Z</time></trkpt>
<trkpt lat="25.432829" lon="100.496088">
<time>2016-04-06T13:12:47Z</time></trkpt>
<trkpt lat="25.432768" lon="100.495947">
<time>2016-04-06T13:12:48Z</time></trkpt>
<trkpt lat="25.432728" lon="100.495847">
<time>2016-04-06T13:12:49Z</time></trkpt>
<trkpt lat="25.432677" lon="100.495717">
<time>2016-04-06T13:12:50Z</time></trkpt>
<trkpt lat="25.432657" lon="100.495606">
<time>2016-04-06T13:12:51Z</time></trkpt>
<trkpt lat="25.432637" lon="100.495446">
<time>2016-04-06T13:12:52Z</time></trkpt>
<trkpt lat="25.432606" lon="100.495225">
<time>2016-04-06T13:12:53Z</time></trkpt>
<trkpt lat="25.432585" lon="100.494864">
<time>2016-04-06T13:12:54Z</time></trkpt>
<trkpt lat="25.432554" lon="100.494493">
<time>2016-04-06T13:12:55Z</time></trkpt>
<trkpt lat="25.432543" lon="100.494362">
<time>2016-04-06T13:12:56Z</time></trkpt>
<trkpt lat="25.432523" lon="100.494272">
<time>2016-04-06T13:12:57Z</time></trkpt>
<trkpt lat="25.432503" lon="100.494122">
<time>2016-04-06T13:12:58Z</time></trkpt>
<trkpt lat="25.432462" lon="100.493891">
<time>2016-04-06T13:12:59Z</time></trkpt>
<trkpt lat="25.432391" lon="100.49349">
<time>2016-04-06T13:13:00Z</time></trkpt>
<trkpt lat="25.432248" lon="100.492758">
<time>2016-04-06T13:13:01Z</time></trkpt>
<trkpt lat="25.432238" lon="100.492677">
<time>2016-04-06T13:13:02Z</time></trkpt>
<trkpt lat="25.432198" lon="100.492487">
<time>2016-04-06T13:13:03Z</time></trkpt>
<trkpt lat="25.432177" lon="100.492316">
<time>2016-04-06T13:13:04Z</time></trkpt>
<trkpt lat="25.432157" lon="100.492146">
<time>2016-04-06T13:13:05Z</time></trkpt>
<trkpt lat="25.432136" lon="100.491925">
<time>2016-04-06T13:13:06Z</time></trkpt>
<trkpt lat="25.432125" lon="100.491664">
<time>2016-04-06T13:13:07Z</time></trkpt>
<trkpt lat="25.432114" lon="100.491153">
<time>2016-04-06T13:13:08Z</time></trkpt>
<trkpt lat="25.432092" lon="100.490731">
<time>2016-04-06T13:13:09Z</time></trkpt>
<trkpt lat="25.432092" lon="100.490621">
<time>2016-04-06T13:13:10Z</time></trkpt>
<trkpt lat="25.432102" lon="100.490521">
<time>2016-04-06T13:13:11Z</time></trkpt>
<trkpt lat="25.432121" lon="100.4904">
<time>2016-04-06T13:13:12Z</time></trkpt>
<trkpt lat="25.432131" lon="100.4903">
<time>2016-04-06T13:13:13Z</time></trkpt>
<trkpt lat="25.432161" lon="100.49022">
<time>2016-04-06T13:13:14Z</time></trkpt>
<trkpt lat="25.432211" lon="100.49011">
<time>2016-04-06T13:13:15Z</time></trkpt>
<trkpt lat="25.43226" lon="100.489999">
<time>2016-04-06T13:13:16Z</time></trkpt>
<trkpt lat="25.43233" lon="100.489909">
<time>2016-04-06T13:13:17Z</time></trkpt>
<trkpt lat="25.43238" lon="100.489829">
<time>2016-04-06T13:13:18Z</time></trkpt>
<trkpt lat="25.432499" lon="100.489678">
<time>2016-04-06T13:13:19Z</time></trkpt>
<trkpt lat="25.432728" lon="100.489367">
<time>2016-04-06T13:13:20Z</time></trkpt>
<trkpt lat="25.432948" lon="100.489036">
<time>2016-04-06T13:13:21Z</time></trkpt>
<trkpt lat="25.433147" lon="100.488755">
<time>2016-04-06T13:13:22Z</time></trkpt>
<trkpt lat="25.433216" lon="100.488655">
<time>2016-04-06T13:13:23Z</time></trkpt>
<trkpt lat="25.433246" lon="100.488585">
<time>2016-04-06T13:13:24Z</time></trkpt>
<trkpt lat="25.433266" lon="100.488525">
<time>2016-04-06T13:13:25Z</time></trkpt>
<trkpt lat="25.433276" lon="100.488455">
<time>2016-04-06T13:13:26Z</time></trkpt>
<trkpt lat="25.433286" lon="100.488394">
<time>2016-04-06T13:13:27Z</time></trkpt>
<trkpt lat="25.433285" lon="100.488234">
<time>2016-04-06T13:13:28Z</time></trkpt>
<trkpt lat="25.433285" lon="100.488134">
<time>2016-04-06T13:13:29Z</time></trkpt>
<trkpt lat="25.433213" lon="100.487371">
<time>2016-04-06T13:13:30Z</time></trkpt>
<trkpt lat="25.433161" lon="100.486749">
<time>2016-04-06T13:13:31Z</time></trkpt>
<trkpt lat="25.433151" lon="100.486679">
<time>2016-04-06T13:13:32Z</time></trkpt>
<trkpt lat="25.43314" lon="100.486629">
<time>2016-04-06T13:13:33Z</time></trkpt>
<trkpt lat="25.43313" lon="100.486569">
<time>2016-04-06T13:13:34Z</time></trkpt>
<trkpt lat="25.43312" lon="100.486519">
<time>2016-04-06T13:13:35Z</time></trkpt>
<trkpt lat="25.4331" lon="100.486449">
<time>2016-04-06T13:13:36Z</time></trkpt>
<trkpt lat="25.43307" lon="100.486358">
<time>2016-04-06T13:13:37Z</time></trkpt>
<trkpt lat="25.433039" lon="100.486278">
<time>2016-04-06T13:13:38Z</time></trkpt>
<trkpt lat="25.433009" lon="100.486218">
<time>2016-04-06T13:13:39Z</time></trkpt>
<trkpt lat="25.432959" lon="100.486138">
<time>2016-04-06T13:13:40Z</time></trkpt>
<trkpt lat="25.432919" lon="100.486087">
<time>2016-04-06T13:13:41Z</time></trkpt>
<trkpt lat="25.432879" lon="100.486037">
<time>2016-04-06T13:13:42Z</time></trkpt>
<trkpt lat="25.432849" lon="100.485997">
<time>2016-04-06T13:13:43Z</time></trkpt>
<trkpt lat="25.432798" lon="100.485967">
<time>2016-04-06T13:13:44Z</time></trkpt>
<trkpt lat="25.432758" lon="100.485937">
<time>2016-04-06T13:13:45Z</time></trkpt>
<trkpt lat="25.432698" lon="100.485907">
<time>2016-04-06T13:13:46Z</time></trkpt>
<trkpt lat="25.432648" lon="100.485887">
<time>2016-04-06T13:13:47Z</time></trkpt>
<trkpt lat="25.432578" lon="100.485867">
<time>2016-04-06T13:13:48Z</time></trkpt>
<trkpt lat="25.432498" lon="100.485857">
<time>2016-04-06T13:13:49Z</time></trkpt>
<trkpt lat="25.432298" lon="100.485827">
<time>2016-04-06T13:13:50Z</time></trkpt>
<trkpt lat="25.432028" lon="100.485797">
<time>2016-04-06T13:13:51Z</time></trkpt>
<trkpt lat="25.431618" lon="100.485757">
<time>2016-04-06T13:13:52Z</time></trkpt>
<trkpt lat="25.431487" lon="100.485736">
<time>2016-04-06T13:13:53Z</time></trkpt>
<trkpt lat="25.431417" lon="100.485716">
<time>2016-04-06T13:13:54Z</time></trkpt>
<trkpt lat="25.431347" lon="100.485706">
<time>2016-04-06T13:13:55Z</time></trkpt>
<trkpt lat="25.431257" lon="100.485676">
<time>2016-04-06T13:13:56Z</time></trkpt>
<trkpt lat="25.431137" lon="100.485636">
<time>2016-04-06T13:13:57Z</time></trkpt>
<trkpt lat="25.431087" lon="100.485606">
<time>2016-04-06T13:13:58Z</time></trkpt>
<trkpt lat="25.431017" lon="100.485566">
<time>2016-04-06T13:13:59Z</time></trkpt>
<trkpt lat="25.430837" lon="100.485466">
<time>2016-04-06T13:14:00Z</time></trkpt>
<trkpt lat="25.430716" lon="100.485395">
<time>2016-04-06T13:14:01Z</time></trkpt>
<trkpt lat="25.430656" lon="100.485365">
<time>2016-04-06T13:14:02Z</time></trkpt>
<trkpt lat="25.430576" lon="100.485325">
<time>2016-04-06T13:14:03Z</time></trkpt>
<trkpt lat="25.430516" lon="100.485305">
<time>2016-04-06T13:14:04Z</time></trkpt>
<trkpt lat="25.430466" lon="100.485285">
<time>2016-04-06T13:14:05Z</time></trkpt>
<trkpt lat="25.430396" lon="100.485265">
<time>2016-04-06T13:14:06Z</time></trkpt>
<trkpt lat="25.430306" lon="100.485235">
<time>2016-04-06T13:14:07Z</time></trkpt>
<trkpt lat="25.430256" lon="100.485225">
<time>2016-04-06T13:14:08Z</time></trkpt>
<trkpt lat="25.430206" lon="100.485225">
<time>2016-04-06T13:14:09Z</time></trkpt>
<trkpt lat="25.430076" lon="100.485205">
<time>2016-04-06T13:14:10Z</time></trkpt>
<trkpt lat="25.429986" lon="100.485205">
<time>2016-04-06T13:14:11Z</time></trkpt>
<trkpt lat="25.429936" lon="100.485205">
<time>2016-04-06T13:14:12Z</time></trkpt>
<trkpt lat="25.429846" lon="100.485205">
<time>2016-04-06T13:14:13Z</time></trkpt>
<trkpt lat="25.429776" lon="100.485215">
<time>2016-04-06T13:14:14Z</time></trkpt>
<trkpt lat="25.429706" lon="100.485215">
<time>2016-04-06T13:14:15Z</time></trkpt>
<trkpt lat="25.429596" lon="100.485235">
<time>2016-04-06T13:14:16Z</time></trkpt>
<trkpt lat="25.429526" lon="100.485255">
<time>2016-04-06T13:14:17Z</time></trkpt>
<trkpt lat="25.429386" lon="100.485285">
<time>2016-04-06T13:14:18Z</time></trkpt>
<trkpt lat="25.429286" lon="100.485325">
<time>2016-04-06T13:14:19Z</time></trkpt>
<trkpt lat="25.428946" lon="100.485476">
<time>2016-04-06T13:14:20Z</time></trkpt>
<trkpt lat="25.428307" lon="100.485787">
<time>2016-04-06T13:14:21Z</time></trkpt>
<trkpt lat="25.428097" lon="100.485887">
<time>2016-04-06T13:14:22Z</time></trkpt>
<trkpt lat="25.428017" lon="100.485917">
<time>2016-04-06T13:14:23Z</time></trkpt>
<trkpt lat="25.427927" lon="100.485947">
<time>2016-04-06T13:14:24Z</time></trkpt>
<trkpt lat="25.427837" lon="100.485967">
<time>2016-04-06T13:14:25Z</time></trkpt>
<trkpt lat="25.427767" lon="100.485977">
<time>2016-04-06T13:14:26Z</time></trkpt>
<trkpt lat="25.427657" lon="100.485987">
<time>2016-04-06T13:14:27Z</time></trkpt>
<trkpt lat="25.427577" lon="100.485997">
<time>2016-04-06T13:14:28Z</time></trkpt>
<trkpt lat="25.427517" lon="100.485997">
<time>2016-04-06T13:14:29Z</time></trkpt>
<trkpt lat="25.427467" lon="100.485997">
<time>2016-04-06T13:14:30Z</time></trkpt>
<trkpt lat="25.427437" lon="100.485997">
<time>2016-04-06T13:14:31Z</time></trkpt>
<trkpt lat="25.427357" lon="100.485977">
<time>2016-04-06T13:14:32Z</time></trkpt>
<trkpt lat="25.427287" lon="100.485957">
<time>2016-04-06T13:14:33Z</time></trkpt>
<trkpt lat="25.427187" lon="100.485927">
<time>2016-04-06T13:14:34Z</time></trkpt>
<trkpt lat="25.427127" lon="100.485897">
<time>2016-04-06T13:14:35Z</time></trkpt>
<trkpt lat="25.427057" lon="100.485847">
<time>2016-04-06T13:14:36Z</time></trkpt>
<trkpt lat="25.426997" lon="100.485807">
<time>2016-04-06T13:14:37Z</time></trkpt>
<trkpt lat="25.426936" lon="100.485747">
<time>2016-04-06T13:14:38Z</time></trkpt>
<trkpt lat="25.426876" lon="100.485696">
<time>2016-04-06T13:14:39Z</time></trkpt>
<trkpt lat="25.426826" lon="100.485626">
<time>2016-04-06T13:14:40Z</time></trkpt>
<trkpt lat="25.426756" lon="100.485526">
<time>2016-04-06T13:14:41Z</time></trkpt>
<trkpt lat="25.426665" lon="100.485406">
<time>2016-04-06T13:14:42Z</time></trkpt>
<trkpt lat="25.426615" lon="100.485345">
<time>2016-04-06T13:14:43Z</time></trkpt>
<trkpt lat="25.426565" lon="100.485285">
<time>2016-04-06T13:14:44Z</time></trkpt>
<trkpt lat="25.426525" lon="100.485245">
<time>2016-04-06T13:14:45Z</time></trkpt>
<trkpt lat="25.426485" lon="100.485225">
<time>2016-04-06T13:14:46Z</time></trkpt>
<trkpt lat="25.426485" lon="100.485215">
<time>2016-04-06T13:14:47Z</time></trkpt>
<trkpt lat="25.426435" lon="100.485185">
<time>2016-04-06T13:14:48Z</time></trkpt>
<trkpt lat="25.426385" lon="100.485155">
<time>2016-04-06T13:14:49Z</time></trkpt>
<trkpt lat="25.426335" lon="100.485135">
<time>2016-04-06T13:14:50Z</time></trkpt>
<trkpt lat="25.426274" lon="100.485115">
<time>2016-04-06T13:14:51Z</time></trkpt>
<trkpt lat="25.426214" lon="100.485095">
<time>2016-04-06T13:14:52Z</time></trkpt>
<trkpt lat="25.426154" lon="100.485085">
<time>2016-04-06T13:14:53Z</time></trkpt>
<trkpt lat="25.425974" lon="100.485045">
<time>2016-04-06T13:14:54Z</time></trkpt>
<trkpt lat="25.425714" lon="100.485004">
<time>2016-04-06T13:14:55Z</time></trkpt>
<trkpt lat="25.425584" lon="100.484974">
<time>2016-04-06T13:14:56Z</time></trkpt>
<trkpt lat="25.425514" lon="100.484954">
<time>2016-04-06T13:14:57Z</time></trkpt>
<trkpt lat="25.425454" lon="100.484934">
<time>2016-04-06T13:14:58Z</time></trkpt>
<trkpt lat="25.425384" lon="100.484914">
<time>2016-04-06T13:14:59Z</time></trkpt>
<trkpt lat="25.425324" lon="100.484894">
<time>2016-04-06T13:15:00Z</time></trkpt>
<trkpt lat="25.425274" lon="100.484864">
<time>2016-04-06T13:15:01Z</time></trkpt>
<trkpt lat="25.425193" lon="100.484834">
<time>2016-04-06T13:15:02Z</time></trkpt>
<trkpt lat="25.424983" lon="100.484734">
<time>2016-04-06T13:15:03Z</time></trkpt>
<trkpt lat="25.424923" lon="100.484704">
<time>2016-04-06T13:15:04Z</time></trkpt>
<trkpt lat="25.424873" lon="100.484684">
<time>2016-04-06T13:15:05Z</time></trkpt>
<trkpt lat="25.424803" lon="100.484663">
<time>2016-04-06T13:15:06Z</time></trkpt>
<trkpt lat="25.424733" lon="100.484643">
<time>2016-04-06T13:15:07Z</time></trkpt>
<trkpt lat="25.424683" lon="100.484623">
<time>2016-04-06T13:15:08Z</time></trkpt>
<trkpt lat="25.424633" lon="100.484613">
<time>2016-04-06T13:15:09Z</time></trkpt>
<trkpt lat="25.424593" lon="100.484613">
<time>2016-04-06T13:15:10Z</time></trkpt>
<trkpt lat="25.424453" lon="100.484593">
<time>2016-04-06T13:15:11Z</time></trkpt>
<trkpt lat="25.424413" lon="100.484583">
<time>2016-04-06T13:15:12Z</time></trkpt>
<trkpt lat="25.424362" lon="100.484573">
<time>2016-04-06T13:15:13Z</time></trkpt>
<trkpt lat="25.424302" lon="100.484563">
<time>2016-04-06T13:15:14Z</time></trkpt>
<trkpt lat="25.424252" lon="100.484543">
<time>2016-04-06T13:15:15Z</time></trkpt>
<trkpt lat="25.424182" lon="100.484523">
<time>2016-04-06T13:15:16Z</time></trkpt>
<trkpt lat="25.424132" lon="100.484493">
<time>2016-04-06T13:15:17Z</time></trkpt>
<trkpt lat="25.424092" lon="100.484473">
<time>2016-04-06T13:15:18Z</time></trkpt>
<trkpt lat="25.424062" lon="100.484453">
<time>2016-04-06T13:15:19Z</time></trkpt>
<trkpt lat="25.423992" lon="100.484403">
<time>2016-04-06T13:15:20Z</time></trkpt>
<trkpt lat="25.423922" lon="100.484363">
<time>2016-04-06T13:15:21Z</time></trkpt>
<trkpt lat="25.423882" lon="100.484332">
<time>2016-04-06T13:15:22Z</time></trkpt>
<trkpt lat="25.423832" lon="100.484292">
<time>2016-04-06T13:15:23Z</time></trkpt>
<trkpt lat="25.423791" lon="100.484262">
<time>2016-04-06T13:15:24Z</time></trkpt>
<trkpt lat="25.423751" lon="100.484232">
<time>2016-04-06T13:15:25Z</time></trkpt>
<trkpt lat="25.423721" lon="100.484222">
<time>2016-04-06T13:15:26Z</time></trkpt>
<trkpt lat="25.423681" lon="100.484202">
<time>2016-04-06T13:15:27Z</time></trkpt>
<trkpt lat="25.423631" lon="100.484172">
<time>2016-04-06T13:15:28Z</time></trkpt>
<trkpt lat="25.423571" lon="100.484162">
<time>2016-04-06T13:15:29Z</time></trkpt>
<trkpt lat="25.423541" lon="100.484152">
<time>2016-04-06T13:15:30Z</time></trkpt>
<trkpt lat="25.423501" lon="100.484142">
<time>2016-04-06T13:15:31Z</time></trkpt>
<trkpt lat="25.423451" lon="100.484142">
<time>2016-04-06T13:15:32Z</time></trkpt>
<trkpt lat="25.423411" lon="100.484152">
<time>2016-04-06T13:15:33Z</time></trkpt>
<trkpt lat="25.423341" lon="100.484162">
<time>2016-04-06T13:15:34Z</time></trkpt>
<trkpt lat="25.423271" lon="100.484182">
<time>2016-04-06T13:15:35Z</time></trkpt>
<trkpt lat="25.423181" lon="100.484222">
<time>2016-04-06T13:15:36Z</time></trkpt>
<trkpt lat="25.423101" lon="100.484282">
<time>2016-04-06T13:15:37Z</time></trkpt>
<trkpt lat="25.422882" lon="100.484453">
<time>2016-04-06T13:15:38Z</time></trkpt>
<trkpt lat="25.422253" lon="100.485015">
<time>2016-04-06T13:15:39Z</time></trkpt>
<trkpt lat="25.422203" lon="100.485045">
<time>2016-04-06T13:15:40Z</time></trkpt>
<trkpt lat="25.421974" lon="100.485205">
<time>2016-04-06T13:15:41Z</time></trkpt>
<trkpt lat="25.421834" lon="100.485305">
<time>2016-04-06T13:15:42Z</time></trkpt>
<trkpt lat="25.421634" lon="100.485426">
<time>2016-04-06T13:15:43Z</time></trkpt>
<trkpt lat="25.421525" lon="100.485486">
<time>2016-04-06T13:15:44Z</time></trkpt>
<trkpt lat="25.421405" lon="100.485566">
<time>2016-04-06T13:15:45Z</time></trkpt>
<trkpt lat="25.421285" lon="100.485656">
<time>2016-04-06T13:15:46Z</time></trkpt>
<trkpt lat="25.421195" lon="100.485727">
<time>2016-04-06T13:15:47Z</time></trkpt>
<trkpt lat="25.420886" lon="100.485947">
<time>2016-04-06T13:15:48Z</time></trkpt>
<trkpt lat="25.420527" lon="100.486248">
<time>2016-04-06T13:15:49Z</time></trkpt>
<trkpt lat="25.420447" lon="100.486308">
<time>2016-04-06T13:15:50Z</time></trkpt>
<trkpt lat="25.420317" lon="100.486399">
<time>2016-04-06T13:15:51Z</time></trkpt>
<trkpt lat="25.420237" lon="100.486449">
<time>2016-04-06T13:15:52Z</time></trkpt>
<trkpt lat="25.420167" lon="100.486479">
<time>2016-04-06T13:15:53Z</time></trkpt>
<trkpt lat="25.420057" lon="100.486509">
<time>2016-04-06T13:15:54Z</time></trkpt>
<trkpt lat="25.419927" lon="100.486549">
<time>2016-04-06T13:15:55Z</time></trkpt>
<trkpt lat="25.419797" lon="100.486569">
<time>2016-04-06T13:15:56Z</time></trkpt>
<trkpt lat="25.419397" lon="100.486609">
<time>2016-04-06T13:15:57Z</time></trkpt>
<trkpt lat="25.419097" lon="100.48665">
<time>2016-04-06T13:15:58Z</time></trkpt>
<trkpt lat="25.419047" lon="100.48665">
<time>2016-04-06T13:15:59Z</time></trkpt>
<trkpt lat="25.418987" lon="100.48665">
<time>2016-04-06T13:16:00Z</time></trkpt>
<trkpt lat="25.418937" lon="100.48665">
<time>2016-04-06T13:16:01Z</time></trkpt>
<trkpt lat="25.418897" lon="100.486639">
<time>2016-04-06T13:16:02Z</time></trkpt>
<trkpt lat="25.418847" lon="100.486629">
<time>2016-04-06T13:16:03Z</time></trkpt>
<trkpt lat="25.418797" lon="100.486619">
<time>2016-04-06T13:16:04Z</time></trkpt>
<trkpt lat="25.418717" lon="100.486589">
<time>2016-04-06T13:16:05Z</time></trkpt>
<trkpt lat="25.418487" lon="100.486489">
<time>2016-04-06T13:16:06Z</time></trkpt>
<trkpt lat="25.418246" lon="100.486369">
<time>2016-04-06T13:16:07Z</time></trkpt>
<trkpt lat="25.418066" lon="100.486298">
<time>2016-04-06T13:16:08Z</time></trkpt>
<trkpt lat="25.417686" lon="100.486158">
<time>2016-04-06T13:16:09Z</time></trkpt>
<trkpt lat="25.417115" lon="100.485957">
<time>2016-04-06T13:16:10Z</time></trkpt>
<trkpt lat="25.416975" lon="100.485897">
<time>2016-04-06T13:16:11Z</time></trkpt>
<trkpt lat="25.416785" lon="100.485837">
<time>2016-04-06T13:16:12Z</time></trkpt>
<trkpt lat="25.416684" lon="100.485807">
<time>2016-04-06T13:16:13Z</time></trkpt>
<trkpt lat="25.416574" lon="100.485777">
<time>2016-04-06T13:16:14Z</time></trkpt>
<trkpt lat="25.416474" lon="100.485757">
<time>2016-04-06T13:16:15Z</time></trkpt>
<trkpt lat="25.416364" lon="100.485727">
<time>2016-04-06T13:16:16Z</time></trkpt>
<trkpt lat="25.416194" lon="100.485677">
<time>2016-04-06T13:16:17Z</time></trkpt>
<trkpt lat="25.416094" lon="100.485657">
<time>2016-04-06T13:16:18Z</time></trkpt>
<trkpt lat="25.416024" lon="100.485627">
<time>2016-04-06T13:16:19Z</time></trkpt>
<trkpt lat="25.415974" lon="100.485617">
<time>2016-04-06T13:16:20Z</time></trkpt>
<trkpt lat="25.415934" lon="100.485596">
<time>2016-04-06T13:16:21Z</time></trkpt>
<trkpt lat="25.415904" lon="100.485586">
<time>2016-04-06T13:16:22Z</time></trkpt>
<trkpt lat="25.415864" lon="100.485566">
<time>2016-04-06T13:16:23Z</time></trkpt>
<trkpt lat="25.415843" lon="100.485546">
<time>2016-04-06T13:16:24Z</time></trkpt>
<trkpt lat="25.415813" lon="100.485526">
<time>2016-04-06T13:16:25Z</time></trkpt>
<trkpt lat="25.415783" lon="100.485496">
<time>2016-04-06T13:16:26Z</time></trkpt>
<trkpt lat="25.415763" lon="100.485476">
<time>2016-04-06T13:16:27Z</time></trkpt>
<trkpt lat="25.415743" lon="100.485456">
<time>2016-04-06T13:16:28Z</time></trkpt>
<trkpt lat="25.415723" lon="100.485426">
<time>2016-04-06T13:16:29Z</time></trkpt>
<trkpt lat="25.415703" lon="100.485386">
<time>2016-04-06T13:16:30Z</time></trkpt>
<trkpt lat="25.415683" lon="100.485336">
<time>2016-04-06T13:16:31Z</time></trkpt>
<trkpt lat="25.415663" lon="100.485286">
<time>2016-04-06T13:16:32Z</time></trkpt>
<trkpt lat="25.415653" lon="100.485225">
<time>2016-04-06T13:16:33Z</time></trkpt>
<trkpt lat="25.415642" lon="100.485165">
<time>2016-04-06T13:16:34Z</time></trkpt>
<trkpt lat="25.415632" lon="100.485095">
<time>2016-04-06T13:16:35Z</time></trkpt>
<trkpt lat="25.415622" lon="100.485005">
<time>2016-04-06T13:16:36Z</time></trkpt>
<trkpt lat="25.415622" lon="100.484894">
<time>2016-04-06T13:16:37Z</time></trkpt>
<trkpt lat="25.415621" lon="100.484784">
<time>2016-04-06T13:16:38Z</time></trkpt>
<trkpt lat="25.415641" lon="100.484553">
<time>2016-04-06T13:16:39Z</time></trkpt>
<trkpt lat="25.41567" lon="100.484242">
<time>2016-04-06T13:16:40Z</time></trkpt>
<trkpt lat="25.415679" lon="100.484072">
<time>2016-04-06T13:16:41Z</time></trkpt>
<trkpt lat="25.415689" lon="100.483921">
<time>2016-04-06T13:16:42Z</time></trkpt>
<trkpt lat="25.415698" lon="100.483771">
<time>2016-04-06T13:16:43Z</time></trkpt>
<trkpt lat="25.415698" lon="100.483621">
<time>2016-04-06T13:16:44Z</time></trkpt>
<trkpt lat="25.415698" lon="100.48354">
<time>2016-04-06T13:16:45Z</time></trkpt>
<trkpt lat="25.415697" lon="100.48339">
<time>2016-04-06T13:16:46Z</time></trkpt>
<trkpt lat="25.415706" lon="100.483079">
<time>2016-04-06T13:16:47Z</time></trkpt>
<trkpt lat="25.415715" lon="100.482598">
<time>2016-04-06T13:16:48Z</time></trkpt>
<trkpt lat="25.415734" lon="100.482176">
<time>2016-04-06T13:16:49Z</time></trkpt>
<trkpt lat="25.415752" lon="100.481735">
<time>2016-04-06T13:16:50Z</time></trkpt>
<trkpt lat="25.415771" lon="100.481424">
<time>2016-04-06T13:16:51Z</time></trkpt>
<trkpt lat="25.4158" lon="100.481053">
<time>2016-04-06T13:16:52Z</time></trkpt>
<trkpt lat="25.415819" lon="100.480702">
<time>2016-04-06T13:16:53Z</time></trkpt>
<trkpt lat="25.415829" lon="100.480481">
<time>2016-04-06T13:16:54Z</time></trkpt>
<trkpt lat="25.415848" lon="100.480201">
<time>2016-04-06T13:16:55Z</time></trkpt>
<trkpt lat="25.415857" lon="100.48002">
<time>2016-04-06T13:16:56Z</time></trkpt>
<trkpt lat="25.415877" lon="100.47985">
<time>2016-04-06T13:16:57Z</time></trkpt>
<trkpt lat="25.415897" lon="100.479729">
<time>2016-04-06T13:16:58Z</time></trkpt>
<trkpt lat="25.415926" lon="100.479599">
<time>2016-04-06T13:16:59Z</time></trkpt>
<trkpt lat="25.415985" lon="100.479188">
<time>2016-04-06T13:17:00Z</time></trkpt>
<trkpt lat="25.416064" lon="100.478686">
<time>2016-04-06T13:17:01Z</time></trkpt>
<trkpt lat="25.416112" lon="100.478014">
<time>2016-04-06T13:17:02Z</time></trkpt>
<trkpt lat="25.41615" lon="100.477513">
<time>2016-04-06T13:17:03Z</time></trkpt>
<trkpt lat="25.41616" lon="100.477302">
<time>2016-04-06T13:17:04Z</time></trkpt>
<trkpt lat="25.416159" lon="100.477072">
<time>2016-04-06T13:17:05Z</time></trkpt>
<trkpt lat="25.416158" lon="100.47657">
<time>2016-04-06T13:17:06Z</time></trkpt>
<trkpt lat="25.416157" lon="100.4764">
<time>2016-04-06T13:17:07Z</time></trkpt>
<trkpt lat="25.416157" lon="100.476219">
<time>2016-04-06T13:17:08Z</time></trkpt>
<trkpt lat="25.416166" lon="100.476119">
<time>2016-04-06T13:17:09Z</time></trkpt>
<trkpt lat="25.416176" lon="100.476019">
<time>2016-04-06T13:17:10Z</time></trkpt>
<trkpt lat="25.416196" lon="100.475948">
<time>2016-04-06T13:17:11Z</time></trkpt>
<trkpt lat="25.416206" lon="100.475898">
<time>2016-04-06T13:17:12Z</time></trkpt>
<trkpt lat="25.416226" lon="100.475848">
<time>2016-04-06T13:17:13Z</time></trkpt>
<trkpt lat="25.416246" lon="100.475808">
<time>2016-04-06T13:17:14Z</time></trkpt>
<trkpt lat="25.416276" lon="100.475778">
<time>2016-04-06T13:17:15Z</time></trkpt>
<trkpt lat="25.416295" lon="100.475748">
<time>2016-04-06T13:17:16Z</time></trkpt>
<trkpt lat="25.416325" lon="100.475718">
<time>2016-04-06T13:17:17Z</time></trkpt>
<trkpt lat="25.416355" lon="100.475688">
<time>2016-04-06T13:17:18Z</time></trkpt>
<trkpt lat="25.416415" lon="100.475647">
<time>2016-04-06T13:17:19Z</time></trkpt>
<trkpt lat="25.416475" lon="100.475627">
<time>2016-04-06T13:17:20Z</time></trkpt>
<trkpt lat="25.416515" lon="100.475617">
<time>2016-04-06T13:17:21Z</time></trkpt>
<trkpt lat="25.416575" lon="100.475607">
<time>2016-04-06T13:17:22Z</time></trkpt>
<trkpt lat="25.416605" lon="100.475607">
<time>2016-04-06T13:17:23Z</time></trkpt>
<trkpt lat="25.416645" lon="100.475607">
<time>2016-04-06T13:17:24Z</time></trkpt>
<trkpt lat="25.416675" lon="100.475607">
<time>2016-04-06T13:17:25Z</time></trkpt>
<trkpt lat="25.416685" lon="100.475607">
<time>2016-04-06T13:17:26Z</time></trkpt>
<trkpt lat="25.416735" lon="100.475617">
<time>2016-04-06T13:17:27Z</time></trkpt>
<trkpt lat="25.416805" lon="100.475637">
<time>2016-04-06T13:17:28Z</time></trkpt>
<trkpt lat="25.416885" lon="100.475668">
<time>2016-04-06T13:17:29Z</time></trkpt>
<trkpt lat="25.416985" lon="100.475698">
<time>2016-04-06T13:17:30Z</time></trkpt>
<trkpt lat="25.417136" lon="100.475768">
<time>2016-04-06T13:17:31Z</time></trkpt>
<trkpt lat="25.417266" lon="100.475818">
<time>2016-04-06T13:17:32Z</time></trkpt>
<trkpt lat="25.417386" lon="100.475858">
<time>2016-04-06T13:17:33Z</time></trkpt>
<trkpt lat="25.417476" lon="100.475888">
<time>2016-04-06T13:17:34Z</time></trkpt>
<trkpt lat="25.417546" lon="100.475908">
<time>2016-04-06T13:17:35Z</time></trkpt>
<trkpt lat="25.417646" lon="100.475938">
<time>2016-04-06T13:17:36Z</time></trkpt>
<trkpt lat="25.417716" lon="100.475948">
<time>2016-04-06T13:17:37Z</time></trkpt>
<trkpt lat="25.417796" lon="100.475938">
<time>2016-04-06T13:17:38Z</time></trkpt>
<trkpt lat="25.417856" lon="100.475918">
<time>2016-04-06T13:17:39Z</time></trkpt>
<trkpt lat="25.417926" lon="100.475888">
<time>2016-04-06T13:17:40Z</time></trkpt>
<trkpt lat="25.417976" lon="100.475848">
<time>2016-04-06T13:17:41Z</time></trkpt>
<trkpt lat="25.418016" lon="100.475808">
<time>2016-04-06T13:17:42Z</time></trkpt>
<trkpt lat="25.418056" lon="100.475758">
<time>2016-04-06T13:17:43Z</time></trkpt>
<trkpt lat="25.418086" lon="100.475718">
<time>2016-04-06T13:17:44Z</time></trkpt>
<trkpt lat="25.418116" lon="100.475667">
<time>2016-04-06T13:17:45Z</time></trkpt>
<trkpt lat="25.418136" lon="100.475617">
<time>2016-04-06T13:17:46Z</time></trkpt>
<trkpt lat="25.418155" lon="100.475547">
<time>2016-04-06T13:17:47Z</time></trkpt>
<trkpt lat="25.418175" lon="100.475487">
<time>2016-04-06T13:17:48Z</time></trkpt>
<trkpt lat="25.418185" lon="100.475427">
<time>2016-04-06T13:17:49Z</time></trkpt>
<trkpt lat="25.418195" lon="100.475357">
<time>2016-04-06T13:17:50Z</time></trkpt>
<trkpt lat="25.418185" lon="100.475296">
<time>2016-04-06T13:17:51Z</time></trkpt>
<trkpt lat="25.418184" lon="100.475236">
<time>2016-04-06T13:17:52Z</time></trkpt>
<trkpt lat="25.418164" lon="100.475176">
<time>2016-04-06T13:17:53Z</time></trkpt>
<trkpt lat="25.418144" lon="100.475126">
<time>2016-04-06T13:17:54Z</time></trkpt>
<trkpt lat="25.418114" lon="100.475076">
<time>2016-04-06T13:17:55Z</time></trkpt>
<trkpt lat="25.418074" lon="100.475016">
<time>2016-04-06T13:17:56Z</time></trkpt>
<trkpt lat="25.418014" lon="100.474955">
<time>2016-04-06T13:17:57Z</time></trkpt>
<trkpt lat="25.417953" lon="100.474895">
<time>2016-04-06T13:17:58Z</time></trkpt>
<trkpt lat="25.417903" lon="100.474835">
<time>2016-04-06T13:17:59Z</time></trkpt>
<trkpt lat="25.417843" lon="100.474785">
<time>2016-04-06T13:18:00Z</time></trkpt>
<trkpt lat="25.417773" lon="100.474745">
<time>2016-04-06T13:18:01Z</time></trkpt>
<trkpt lat="25.417723" lon="100.474705">
<time>2016-04-06T13:18:02Z</time></trkpt>
<trkpt lat="25.417633" lon="100.474675">
<time>2016-04-06T13:18:03Z</time></trkpt>
<trkpt lat="25.417583" lon="100.474655">
<time>2016-04-06T13:18:04Z</time></trkpt>
<trkpt lat="25.417513" lon="100.474645">
<time>2016-04-06T13:18:05Z</time></trkpt>
<trkpt lat="25.417433" lon="100.474625">
<time>2016-04-06T13:18:06Z</time></trkpt>
<trkpt lat="25.417333" lon="100.474615">
<time>2016-04-06T13:18:07Z</time></trkpt>
<trkpt lat="25.417082" lon="100.474594">
<time>2016-04-06T13:18:08Z</time></trkpt>
<trkpt lat="25.416772" lon="100.474544">
<time>2016-04-06T13:18:09Z</time></trkpt>
<trkpt lat="25.416692" lon="100.474524">
<time>2016-04-06T13:18:10Z</time></trkpt>
<trkpt lat="25.416622" lon="100.474514">
<time>2016-04-06T13:18:11Z</time></trkpt>
<trkpt lat="25.416212" lon="100.474404">
<time>2016-04-06T13:18:12Z</time></trkpt>
<trkpt lat="25.415821" lon="100.474284">
<time>2016-04-06T13:18:13Z</time></trkpt>
<trkpt lat="25.415381" lon="100.474163">
<time>2016-04-06T13:18:14Z</time></trkpt>
<trkpt lat="25.41503" lon="100.474043">
<time>2016-04-06T13:18:15Z</time></trkpt>
<trkpt lat="25.41489" lon="100.473993">
<time>2016-04-06T13:18:16Z</time></trkpt>
<trkpt lat="25.41478" lon="100.473953">
<time>2016-04-06T13:18:17Z</time></trkpt>
<trkpt lat="25.41467" lon="100.473903">
<time>2016-04-06T13:18:18Z</time></trkpt>
<trkpt lat="25.41459" lon="100.473862">
<time>2016-04-06T13:18:19Z</time></trkpt>
<trkpt lat="25.41452" lon="100.473822">
<time>2016-04-06T13:18:20Z</time></trkpt>
<trkpt lat="25.41447" lon="100.473792">
<time>2016-04-06T13:18:21Z</time></trkpt>
<trkpt lat="25.41439" lon="100.473742">
<time>2016-04-06T13:18:22Z</time></trkpt>
<trkpt lat="25.414319" lon="100.473692">
<time>2016-04-06T13:18:23Z</time></trkpt>
<trkpt lat="25.414219" lon="100.473622">
<time>2016-04-06T13:18:24Z</time></trkpt>
<trkpt lat="25.414099" lon="100.473532">
<time>2016-04-06T13:18:25Z</time></trkpt>
<trkpt lat="25.413979" lon="100.473431">
<time>2016-04-06T13:18:26Z</time></trkpt>
<trkpt lat="25.413878" lon="100.473341">
<time>2016-04-06T13:18:27Z</time></trkpt>
<trkpt lat="25.413698" lon="100.473181">
<time>2016-04-06T13:18:28Z</time></trkpt>
<trkpt lat="25.413608" lon="100.4731">
<time>2016-04-06T13:18:29Z</time></trkpt>
<trkpt lat="25.413517" lon="100.47303">
<time>2016-04-06T13:18:30Z</time></trkpt>
<trkpt lat="25.413447" lon="100.47297">
<time>2016-04-06T13:18:31Z</time></trkpt>
<trkpt lat="25.413307" lon="100.47285">
<time>2016-04-06T13:18:32Z</time></trkpt>
<trkpt lat="25.413197" lon="100.472749">
<time>2016-04-06T13:18:33Z</time></trkpt>
<trkpt lat="25.413026" lon="100.472599">
<time>2016-04-06T13:18:34Z</time></trkpt>
<trkpt lat="25.412755" lon="100.472368">
<time>2016-04-06T13:18:35Z</time></trkpt>
<trkpt lat="25.412415" lon="100.472058">
<time>2016-04-06T13:18:36Z</time></trkpt>
<trkpt lat="25.411983" lon="100.471656">
<time>2016-04-06T13:18:37Z</time></trkpt>
<trkpt lat="25.411763" lon="100.471466">
<time>2016-04-06T13:18:38Z</time></trkpt>
<trkpt lat="25.411693" lon="100.471416">
<time>2016-04-06T13:18:39Z</time></trkpt>
<trkpt lat="25.411643" lon="100.471386">
<time>2016-04-06T13:18:40Z</time></trkpt>
<trkpt lat="25.411582" lon="100.471356">
<time>2016-04-06T13:18:41Z</time></trkpt>
<trkpt lat="25.411552" lon="100.471336">
<time>2016-04-06T13:18:42Z</time></trkpt>
<trkpt lat="25.411492" lon="100.471326">
<time>2016-04-06T13:18:43Z</time></trkpt>
<trkpt lat="25.411402" lon="100.471306">
<time>2016-04-06T13:18:44Z</time></trkpt>
<trkpt lat="25.411302" lon="100.471306">
<time>2016-04-06T13:18:45Z</time></trkpt>
<trkpt lat="25.411172" lon="100.471316">
<time>2016-04-06T13:18:46Z</time></trkpt>
<trkpt lat="25.410772" lon="100.471376">
<time>2016-04-06T13:18:47Z</time></trkpt>
<trkpt lat="25.410192" lon="100.471456">
<time>2016-04-06T13:18:48Z</time></trkpt>
<trkpt lat="25.409843" lon="100.471506">
<time>2016-04-06T13:18:49Z</time></trkpt>
<trkpt lat="25.409743" lon="100.471516">
<time>2016-04-06T13:18:50Z</time></trkpt>
<trkpt lat="25.409692" lon="100.471516">
<time>2016-04-06T13:18:51Z</time></trkpt>
<trkpt lat="25.409632" lon="100.471516">
<time>2016-04-06T13:18:52Z</time></trkpt>
<trkpt lat="25.409602" lon="100.471516">
<time>2016-04-06T13:18:53Z</time></trkpt>
<trkpt lat="25.409552" lon="100.471506">
<time>2016-04-06T13:18:54Z</time></trkpt>
<trkpt lat="25.409522" lon="100.471506">
<time>2016-04-06T13:18:55Z</time></trkpt>
<trkpt lat="25.409502" lon="100.471486">
<time>2016-04-06T13:18:56Z</time></trkpt>
<trkpt lat="25.409462" lon="100.471466">
<time>2016-04-06T13:18:57Z</time></trkpt>
<trkpt lat="25.409412" lon="100.471436">
<time>2016-04-06T13:18:58Z</time></trkpt>
<trkpt lat="25.409382" lon="100.471426">
<time>2016-04-06T13:18:59Z</time></trkpt>
<trkpt lat="25.409352" lon="100.471396">
<time>2016-04-06T13:19:00Z</time></trkpt>
<trkpt lat="25.409292" lon="100.471316">
<time>2016-04-06T13:19:01Z</time></trkpt>
<trkpt lat="25.409201" lon="100.471175">
<time>2016-04-06T13:19:02Z</time></trkpt>
<trkpt lat="25.409121" lon="100.470995">
<time>2016-04-06T13:19:03Z</time></trkpt>
<trkpt lat="25.409081" lon="100.470914">
<time>2016-04-06T13:19:04Z</time></trkpt>
<trkpt lat="25.409061" lon="100.470874">
<time>2016-04-06T13:19:05Z</time></trkpt>
<trkpt lat="25.40903" lon="100.470824">
<time>2016-04-06T13:19:06Z</time></trkpt>
<trkpt lat="25.409" lon="100.470774">
<time>2016-04-06T13:19:07Z</time></trkpt>
<trkpt lat="25.40897" lon="100.470734">
<time>2016-04-06T13:19:08Z</time></trkpt>
<trkpt lat="25.40892" lon="100.470674">
<time>2016-04-06T13:19:09Z</time></trkpt>
<trkpt lat="25.40889" lon="100.470624">
<time>2016-04-06T13:19:10Z</time></trkpt>
<trkpt lat="25.40886" lon="100.470594">
<time>2016-04-06T13:19:11Z</time></trkpt>
<trkpt lat="25.40883" lon="100.470554">
<time>2016-04-06T13:19:12Z</time></trkpt>
<trkpt lat="25.40879" lon="100.470523">
<time>2016-04-06T13:19:13Z</time></trkpt>
<trkpt lat="25.40875" lon="100.470483">
<time>2016-04-06T13:19:14Z</time></trkpt>
<trkpt lat="25.408669" lon="100.470423">
<time>2016-04-06T13:19:15Z</time></trkpt>
<trkpt lat="25.408599" lon="100.470373">
<time>2016-04-06T13:19:16Z</time></trkpt>
<trkpt lat="25.408539" lon="100.470333">
<time>2016-04-06T13:19:17Z</time></trkpt>
<trkpt lat="25.408489" lon="100.470313">
<time>2016-04-06T13:19:18Z</time></trkpt>
<trkpt lat="25.408419" lon="100.470273">
<time>2016-04-06T13:19:19Z</time></trkpt>
<trkpt lat="25.408359" lon="100.470243">
<time>2016-04-06T13:19:20Z</time></trkpt>
<trkpt lat="25.408339" lon="100.470233">
<time>2016-04-06T13:19:21Z</time></trkpt>
<trkpt lat="25.408299" lon="100.470213">
<time>2016-04-06T13:19:22Z</time></trkpt>
<trkpt lat="25.408279" lon="100.470193">
<time>2016-04-06T13:19:23Z</time></trkpt>
<trkpt lat="25.408259" lon="100.470183">
<time>2016-04-06T13:19:24Z</time></trkpt>
<trkpt lat="25.408229" lon="100.470162">
<time>2016-04-06T13:19:25Z</time></trkpt>
<trkpt lat="25.408198" lon="100.470132">
<time>2016-04-06T13:19:26Z</time></trkpt>
<trkpt lat="25.408188" lon="100.470112">
<time>2016-04-06T13:19:27Z</time></trkpt>
<trkpt lat="25.408168" lon="100.470092">
<time>2016-04-06T13:19:28Z</time></trkpt>
<trkpt lat="25.408158" lon="100.470062">
<time>2016-04-06T13:19:29Z</time></trkpt>
<trkpt lat="25.408138" lon="100.470022">
<time>2016-04-06T13:19:30Z</time></trkpt>
<trkpt lat="25.408128" lon="100.469972">
<time>2016-04-06T13:19:31Z</time></trkpt>
<trkpt lat="25.408118" lon="100.469942">
<time>2016-04-06T13:19:32Z</time></trkpt>
<trkpt lat="25.408118" lon="100.469882">
<time>2016-04-06T13:19:33Z</time></trkpt>
<trkpt lat="25.408118" lon="100.469812">
<time>2016-04-06T13:19:34Z</time></trkpt>
<trkpt lat="25.408117" lon="100.469731">
<time>2016-04-06T13:19:35Z</time></trkpt>
<trkpt lat="25.408127" lon="100.469651">
<time>2016-04-06T13:19:36Z</time></trkpt>
<trkpt lat="25.408127" lon="100.469601">
<time>2016-04-06T13:19:37Z</time></trkpt>
<trkpt lat="25.408127" lon="100.469561">
<time>2016-04-06T13:19:38Z</time></trkpt>
<trkpt lat="25.408127" lon="100.469541">
<time>2016-04-06T13:19:39Z</time></trkpt>
<trkpt lat="25.408177" lon="100.469481">
<time>2016-04-06T13:19:40Z</time></trkpt>
<trkpt lat="25.408217" lon="100.469441">
<time>2016-04-06T13:19:41Z</time></trkpt>
<trkpt lat="25.408346" lon="100.4693">
<time>2016-04-06T13:19:42Z</time></trkpt>
<trkpt lat="25.408486" lon="100.46915">
<time>2016-04-06T13:19:43Z</time></trkpt>
<trkpt lat="25.408586" lon="100.469039">
<time>2016-04-06T13:19:44Z</time></trkpt>
<trkpt lat="25.408705" lon="100.468949">
<time>2016-04-06T13:19:45Z</time></trkpt>
<trkpt lat="25.408805" lon="100.468869">
<time>2016-04-06T13:19:46Z</time></trkpt>
<trkpt lat="25.408895" lon="100.468829">
<time>2016-04-06T13:19:47Z</time></trkpt>
<trkpt lat="25.409045" lon="100.468809">
<time>2016-04-06T13:19:48Z</time></trkpt>
<trkpt lat="25.409195" lon="100.468829">
<time>2016-04-06T13:19:49Z</time></trkpt>
<trkpt lat="25.409415" lon="100.468879">
<time>2016-04-06T13:19:50Z</time></trkpt>
<trkpt lat="25.409566" lon="100.468909">
<time>2016-04-06T13:19:51Z</time></trkpt>
<trkpt lat="25.409706" lon="100.468939">
<time>2016-04-06T13:19:52Z</time></trkpt>
<trkpt lat="25.409846" lon="100.468969">
<time>2016-04-06T13:19:53Z</time></trkpt>
<trkpt lat="25.409976" lon="100.468979">
<time>2016-04-06T13:19:54Z</time></trkpt>
<trkpt lat="25.410106" lon="100.468909">
<time>2016-04-06T13:19:55Z</time></trkpt>
<trkpt lat="25.410235" lon="100.468789">
<time>2016-04-06T13:19:56Z</time></trkpt>
<trkpt lat="25.410365" lon="100.468678">
<time>2016-04-06T13:19:57Z</time></trkpt>
<trkpt lat="25.410465" lon="100.468568">
<time>2016-04-06T13:19:58Z</time></trkpt>
<trkpt lat="25.410575" lon="100.468458">
<time>2016-04-06T13:19:59Z</time></trkpt>
<trkpt lat="25.410684" lon="100.468358">
<time>2016-04-06T13:20:00Z</time></trkpt>
<trkpt lat="25.410784" lon="100.468257">
<time>2016-04-06T13:20:01Z</time></trkpt>
<trkpt lat="25.410894" lon="100.468157">
<time>2016-04-06T13:20:02Z</time></trkpt>
<trkpt lat="25.411033" lon="100.468017">
<time>2016-04-06T13:20:03Z</time></trkpt>
<trkpt lat="25.411163" lon="100.467926">
<time>2016-04-06T13:20:04Z</time></trkpt>
<trkpt lat="25.411283" lon="100.467826">
<time>2016-04-06T13:20:05Z</time></trkpt>
<trkpt lat="25.411383" lon="100.467726">
<time>2016-04-06T13:20:06Z</time></trkpt>
<trkpt lat="25.411493" lon="100.467626">
<time>2016-04-06T13:20:07Z</time></trkpt>
<trkpt lat="25.411602" lon="100.467515">
<time>2016-04-06T13:20:08Z</time></trkpt>
<trkpt lat="25.411762" lon="100.467355">
<time>2016-04-06T13:20:09Z</time></trkpt>
<trkpt lat="25.411882" lon="100.467225">
<time>2016-04-06T13:20:10Z</time></trkpt>
<trkpt lat="25.412011" lon="100.467094">
<time>2016-04-06T13:20:11Z</time></trkpt>
<trkpt lat="25.412121" lon="100.466964">
<time>2016-04-06T13:20:12Z</time></trkpt>
<trkpt lat="25.412231" lon="100.466833">
<time>2016-04-06T13:20:13Z</time></trkpt>
<trkpt lat="25.41236" lon="100.466683">
<time>2016-04-06T13:20:14Z</time></trkpt>
<trkpt lat="25.41248" lon="100.466553">
<time>2016-04-06T13:20:15Z</time></trkpt>
<trkpt lat="25.4126" lon="100.466402">
<time>2016-04-06T13:20:16Z</time></trkpt>
<trkpt lat="25.412739" lon="100.466262">
<time>2016-04-06T13:20:17Z</time></trkpt>
<trkpt lat="25.412879" lon="100.466112">
<time>2016-04-06T13:20:18Z</time></trkpt>
<trkpt lat="25.413029" lon="100.465991">
<time>2016-04-06T13:20:19Z</time></trkpt>
<trkpt lat="25.413188" lon="100.465911">
<time>2016-04-06T13:20:20Z</time></trkpt>
<trkpt lat="25.413358" lon="100.465851">
<time>2016-04-06T13:20:21Z</time></trkpt>
<trkpt lat="25.413528" lon="100.465821">
<time>2016-04-06T13:20:22Z</time></trkpt>
<trkpt lat="25.413708" lon="100.465801">
<time>2016-04-06T13:20:23Z</time></trkpt>
<trkpt lat="25.413868" lon="100.465781">
<time>2016-04-06T13:20:24Z</time></trkpt>
<trkpt lat="25.414028" lon="100.465761">
<time>2016-04-06T13:20:25Z</time></trkpt>
<trkpt lat="25.414188" lon="100.465751">
<time>2016-04-06T13:20:26Z</time></trkpt>
<trkpt lat="25.414358" lon="100.465721">
<time>2016-04-06T13:20:27Z</time></trkpt>
<trkpt lat="25.414538" lon="100.46568">
<time>2016-04-06T13:20:28Z</time></trkpt>
<trkpt lat="25.414728" lon="100.46566">
<time>2016-04-06T13:20:29Z</time></trkpt>
<trkpt lat="25.414908" lon="100.46564">
<time>2016-04-06T13:20:30Z</time></trkpt>
<trkpt lat="25.415088" lon="100.46562">
<time>2016-04-06T13:20:31Z</time></trkpt>
<trkpt lat="25.415238" lon="100.4656">
<time>2016-04-06T13:20:32Z</time></trkpt>
<trkpt lat="25.415378" lon="100.46557">
<time>2016-04-06T13:20:33Z</time></trkpt>
<trkpt lat="25.415498" lon="100.46553">
<time>2016-04-06T13:20:34Z</time></trkpt>
<trkpt lat="25.415608" lon="100.46547">
<time>2016-04-06T13:20:35Z</time></trkpt>
<trkpt lat="25.415708" lon="100.46538">
<time>2016-04-06T13:20:36Z</time></trkpt>
<trkpt lat="25.415807" lon="100.465259">
<time>2016-04-06T13:20:37Z</time></trkpt>
<trkpt lat="25.415897" lon="100.465139">
<time>2016-04-06T13:20:38Z</time></trkpt>
<trkpt lat="25.415987" lon="100.465019">
<time>2016-04-06T13:20:39Z</time></trkpt>
<trkpt lat="25.416146" lon="100.464848">
<time>2016-04-06T13:20:40Z</time></trkpt>
<trkpt lat="25.416316" lon="100.464708">
<time>2016-04-06T13:20:41Z</time></trkpt>
<trkpt lat="25.416506" lon="100.464608">
<time>2016-04-06T13:20:42Z</time></trkpt>
<trkpt lat="25.416686" lon="100.464537">
<time>2016-04-06T13:20:43Z</time></trkpt>
<trkpt lat="25.416936" lon="100.464487">
<time>2016-04-06T13:20:44Z</time></trkpt>
<trkpt lat="25.417156" lon="100.464477">
<time>2016-04-06T13:20:45Z</time></trkpt>
<trkpt lat="25.417366" lon="100.464467">
<time>2016-04-06T13:20:46Z</time></trkpt>
<trkpt lat="25.417556" lon="100.464417">
<time>2016-04-06T13:20:47Z</time></trkpt>
<trkpt lat="25.417715" lon="100.464287">
<time>2016-04-06T13:20:48Z</time></trkpt>
<trkpt lat="25.417835" lon="100.464096">
<time>2016-04-06T13:20:49Z</time></trkpt>
<trkpt lat="25.417924" lon="100.463906">
<time>2016-04-06T13:20:50Z</time></trkpt>
<trkpt lat="25.418024" lon="100.463725">
<time>2016-04-06T13:20:51Z</time></trkpt>
<trkpt lat="25.418154" lon="100.463585">
<time>2016-04-06T13:20:52Z</time></trkpt>
<trkpt lat="25.418303" lon="100.463475">
<time>2016-04-06T13:20:53Z</time></trkpt>
<trkpt lat="25.418463" lon="100.463384">
<time>2016-04-06T13:20:54Z</time></trkpt>
<trkpt lat="25.418633" lon="100.463304">
<time>2016-04-06T13:20:55Z</time></trkpt>
<trkpt lat="25.418743" lon="100.463254">
<time>2016-04-06T13:20:56Z</time></trkpt>
<trkpt lat="25.418803" lon="100.463234">
<time>2016-04-06T13:20:57Z</time></trkpt>
<trkpt lat="25.418983" lon="100.463144">
<time>2016-04-06T13:20:58Z</time></trkpt>
<trkpt lat="25.419152" lon="100.463064">
<time>2016-04-06T13:20:59Z</time></trkpt>
<trkpt lat="25.419322" lon="100.462973">
<time>2016-04-06T13:21:00Z</time></trkpt>
<trkpt lat="25.419462" lon="100.462923">
<time>2016-04-06T13:21:01Z</time></trkpt>
<trkpt lat="25.419632" lon="100.462813">
<time>2016-04-06T13:21:02Z</time></trkpt>
<trkpt lat="25.419792" lon="100.462673">
<time>2016-04-06T13:21:03Z</time></trkpt>
<trkpt lat="25.419951" lon="100.462502">
<time>2016-04-06T13:21:04Z</time></trkpt>
<trkpt lat="25.420091" lon="100.462332">
<time>2016-04-06T13:21:05Z</time></trkpt>
<trkpt lat="25.42022" lon="100.462141">
<time>2016-04-06T13:21:06Z</time></trkpt>
<trkpt lat="25.42033" lon="100.461941">
<time>2016-04-06T13:21:07Z</time></trkpt>
<trkpt lat="25.420409" lon="100.46173">
<time>2016-04-06T13:21:08Z</time></trkpt>
<trkpt lat="25.420489" lon="100.46149">
<time>2016-04-06T13:21:09Z</time></trkpt>
<trkpt lat="25.420558" lon="100.461249">
<time>2016-04-06T13:21:10Z</time></trkpt>
<trkpt lat="25.420628" lon="100.460998">
<time>2016-04-06T13:21:11Z</time></trkpt>
<trkpt lat="25.420687" lon="100.460758">
<time>2016-04-06T13:21:12Z</time></trkpt>
<trkpt lat="25.420747" lon="100.460517">
<time>2016-04-06T13:21:13Z</time></trkpt>
<trkpt lat="25.420816" lon="100.460257">
<time>2016-04-06T13:21:14Z</time></trkpt>
<trkpt lat="25.420895" lon="100.460016">
<time>2016-04-06T13:21:15Z</time></trkpt>
<trkpt lat="25.420965" lon="100.459785">
<time>2016-04-06T13:21:16Z</time></trkpt>
<trkpt lat="25.421014" lon="100.459535">
<time>2016-04-06T13:21:17Z</time></trkpt>
<trkpt lat="25.421044" lon="100.459284">
<time>2016-04-06T13:21:18Z</time></trkpt>
<trkpt lat="25.421073" lon="100.459034">
<time>2016-04-06T13:21:19Z</time></trkpt>
<trkpt lat="25.421092" lon="100.458793">
<time>2016-04-06T13:21:20Z</time></trkpt>
<trkpt lat="25.421072" lon="100.458613">
<time>2016-04-06T13:21:21Z</time></trkpt>
<trkpt lat="25.421001" lon="100.458342">
<time>2016-04-06T13:21:22Z</time></trkpt>
<trkpt lat="25.420921" lon="100.458172">
<time>2016-04-06T13:21:23Z</time></trkpt>
<trkpt lat="25.42078" lon="100.457961">
<time>2016-04-06T13:21:24Z</time></trkpt>
<trkpt lat="25.42064" lon="100.457771">
<time>2016-04-06T13:21:25Z</time></trkpt>
<trkpt lat="25.42051" lon="100.45758">
<time>2016-04-06T13:21:26Z</time></trkpt>
<trkpt lat="25.420429" lon="100.45739">
<time>2016-04-06T13:21:27Z</time></trkpt>
<trkpt lat="25.420399" lon="100.457179">
<time>2016-04-06T13:21:28Z</time></trkpt>
<trkpt lat="25.420408" lon="100.456949">
<time>2016-04-06T13:21:29Z</time></trkpt>
<trkpt lat="25.420467" lon="100.456708">
<time>2016-04-06T13:21:30Z</time></trkpt>
<trkpt lat="25.420527" lon="100.456468">
<time>2016-04-06T13:21:31Z</time></trkpt>
<trkpt lat="25.420586" lon="100.456237">
<time>2016-04-06T13:21:32Z</time></trkpt>
<trkpt lat="25.420656" lon="100.456027">
<time>2016-04-06T13:21:33Z</time></trkpt>
<trkpt lat="25.420765" lon="100.455816">
<time>2016-04-06T13:21:34Z</time></trkpt>
<trkpt lat="25.420905" lon="100.455646">
<time>2016-04-06T13:21:35Z</time></trkpt>
<trkpt lat="25.421095" lon="100.455485">
<time>2016-04-06T13:21:36Z</time></trkpt>
<trkpt lat="25.421295" lon="100.455355">
<time>2016-04-06T13:21:37Z</time></trkpt>
<trkpt lat="25.421504" lon="100.455235">
<time>2016-04-06T13:21:38Z</time></trkpt>
<trkpt lat="25.421644" lon="100.455114">
<time>2016-04-06T13:21:39Z</time></trkpt>
<trkpt lat="25.421794" lon="100.454994">
<time>2016-04-06T13:21:40Z</time></trkpt>
<trkpt lat="25.421954" lon="100.454864">
<time>2016-04-06T13:21:41Z</time></trkpt>
<trkpt lat="25.422073" lon="100.454744">
<time>2016-04-06T13:21:42Z</time></trkpt>
<trkpt lat="25.422183" lon="100.454623">
<time>2016-04-06T13:21:43Z</time></trkpt>
<trkpt lat="25.422283" lon="100.454503">
<time>2016-04-06T13:21:44Z</time></trkpt>
<trkpt lat="25.422393" lon="100.454383">
<time>2016-04-06T13:21:45Z</time></trkpt>
<trkpt lat="25.422492" lon="100.454273">
<time>2016-04-06T13:21:46Z</time></trkpt>
<trkpt lat="25.422552" lon="100.454172">
<time>2016-04-06T13:21:47Z</time></trkpt>
<trkpt lat="25.422642" lon="100.454042">
<time>2016-04-06T13:21:48Z</time></trkpt>
<trkpt lat="25.422712" lon="100.453932">
<time>2016-04-06T13:21:49Z</time></trkpt>
<trkpt lat="25.422821" lon="100.453832">
<time>2016-04-06T13:21:50Z</time></trkpt>
<trkpt lat="25.422921" lon="100.453721">
<time>2016-04-06T13:21:51Z</time></trkpt>
<trkpt lat="25.423021" lon="100.453591">
<time>2016-04-06T13:21:52Z</time></trkpt>
<trkpt lat="25.423121" lon="100.453461">
<time>2016-04-06T13:21:53Z</time></trkpt>
<trkpt lat="25.42325" lon="100.45333">
<time>2016-04-06T13:21:54Z</time></trkpt>
<trkpt lat="25.42336" lon="100.45319">
<time>2016-04-06T13:21:55Z</time></trkpt>
<trkpt lat="25.42346" lon="100.45305">
<time>2016-04-06T13:21:56Z</time></trkpt>
<trkpt lat="25.42356" lon="100.452889">
<time>2016-04-06T13:21:57Z</time></trkpt>
<trkpt lat="25.423669" lon="100.452739">
<time>2016-04-06T13:21:58Z</time></trkpt>
<trkpt lat="25.423789" lon="100.452589">
<time>2016-04-06T13:21:59Z</time></trkpt>
<trkpt lat="25.423899" lon="100.452428">
<time>2016-04-06T13:22:00Z</time></trkpt>
<trkpt lat="25.424028" lon="100.452258">
<time>2016-04-06T13:22:01Z</time></trkpt>
<trkpt lat="25.424148" lon="100.452088">
<time>2016-04-06T13:22:02Z</time></trkpt>
<trkpt lat="25.424258" lon="100.451967">
<time>2016-04-06T13:22:03Z</time></trkpt>
<trkpt lat="25.424377" lon="100.451827">
<time>2016-04-06T13:22:04Z</time></trkpt>
<trkpt lat="25.424487" lon="100.451677">
<time>2016-04-06T13:22:05Z</time></trkpt>
<trkpt lat="25.424557" lon="100.451486">
<time>2016-04-06T13:22:06Z</time></trkpt>
<trkpt lat="25.424656" lon="100.451276">
<time>2016-04-06T13:22:07Z</time></trkpt>
<trkpt lat="25.424796" lon="100.451066">
<time>2016-04-06T13:22:08Z</time></trkpt>
<trkpt lat="25.424966" lon="100.450875">
<time>2016-04-06T13:22:09Z</time></trkpt>
<trkpt lat="25.425145" lon="100.450695">
<time>2016-04-06T13:22:10Z</time></trkpt>
<trkpt lat="25.425285" lon="100.450504">
<time>2016-04-06T13:22:11Z</time></trkpt>
<trkpt lat="25.425434" lon="100.450324">
<time>2016-04-06T13:22:12Z</time></trkpt>
<trkpt lat="25.425534" lon="100.450164">
<time>2016-04-06T13:22:13Z</time></trkpt>
<trkpt lat="25.425634" lon="100.449973">
<time>2016-04-06T13:22:14Z</time></trkpt>
<trkpt lat="25.425713" lon="100.449793">
<time>2016-04-06T13:22:15Z</time></trkpt>
<trkpt lat="25.425783" lon="100.449592">
<time>2016-04-06T13:22:16Z</time></trkpt>
<trkpt lat="25.425883" lon="100.449362">
<time>2016-04-06T13:22:17Z</time></trkpt>
<trkpt lat="25.425972" lon="100.449131">
<time>2016-04-06T13:22:18Z</time></trkpt>
<trkpt lat="25.426072" lon="100.448921">
<time>2016-04-06T13:22:19Z</time></trkpt>
<trkpt lat="25.426171" lon="100.448711">
<time>2016-04-06T13:22:20Z</time></trkpt>
<trkpt lat="25.426261" lon="100.44853">
<time>2016-04-06T13:22:21Z</time></trkpt>
<trkpt lat="25.426361" lon="100.44835">
<time>2016-04-06T13:22:22Z</time></trkpt>
<trkpt lat="25.426411" lon="100.44828">
<time>2016-04-06T13:22:23Z</time></trkpt>
<trkpt lat="25.42647" lon="100.44818">
<time>2016-04-06T13:22:24Z</time></trkpt>
<trkpt lat="25.42658" lon="100.448039">
<time>2016-04-06T13:22:25Z</time></trkpt>
<trkpt lat="25.4266" lon="100.448019">
<time>2016-04-06T13:22:26Z</time></trkpt>
<trkpt lat="25.42673" lon="100.447859">
<time>2016-04-06T13:22:27Z</time></trkpt>
<trkpt lat="25.426879" lon="100.447699">
<time>2016-04-06T13:22:28Z</time></trkpt>
<trkpt lat="25.427019" lon="100.447538">
<time>2016-04-06T13:22:29Z</time></trkpt>
<trkpt lat="25.427159" lon="100.447368">
<time>2016-04-06T13:22:30Z</time></trkpt>
<trkpt lat="25.427289" lon="100.447198">
<time>2016-04-06T13:22:31Z</time></trkpt>
<trkpt lat="25.427428" lon="100.447047">
<time>2016-04-06T13:22:32Z</time></trkpt>
<trkpt lat="25.427558" lon="100.446897">
<time>2016-04-06T13:22:33Z</time></trkpt>
<trkpt lat="25.427698" lon="100.446737">
<time>2016-04-06T13:22:34Z</time></trkpt>
<trkpt lat="25.427817" lon="100.446606">
<time>2016-04-06T13:22:35Z</time></trkpt>
<trkpt lat="25.427927" lon="100.446486">
<time>2016-04-06T13:22:36Z</time></trkpt>
<trkpt lat="25.428007" lon="100.446386">
<time>2016-04-06T13:22:37Z</time></trkpt>
<trkpt lat="25.428107" lon="100.446266">
<time>2016-04-06T13:22:38Z</time></trkpt>
<trkpt lat="25.428167" lon="100.446176">
<time>2016-04-06T13:22:39Z</time></trkpt>
<trkpt lat="25.428227" lon="100.446095">
<time>2016-04-06T13:22:40Z</time></trkpt>
<trkpt lat="25.428296" lon="100.446025">
<time>2016-04-06T13:22:41Z</time></trkpt>
<trkpt lat="25.428386" lon="100.445945">
<time>2016-04-06T13:22:42Z</time></trkpt>
<trkpt lat="25.428466" lon="100.445845">
<time>2016-04-06T13:22:43Z</time></trkpt>
<trkpt lat="25.428546" lon="100.445735">
<time>2016-04-06T13:22:44Z</time></trkpt>
<trkpt lat="25.428646" lon="100.445604">
<time>2016-04-06T13:22:45Z</time></trkpt>
<trkpt lat="25.428785" lon="100.445454">
<time>2016-04-06T13:22:46Z</time></trkpt>
<trkpt lat="25.428865" lon="100.445364">
<time>2016-04-06T13:22:47Z</time></trkpt>
<trkpt lat="25.428955" lon="100.445264">
<time>2016-04-06T13:22:48Z</time></trkpt>
<trkpt lat="25.429045" lon="100.445164">
<time>2016-04-06T13:22:49Z</time></trkpt>
<trkpt lat="25.429145" lon="100.445063">
<time>2016-04-06T13:22:50Z</time></trkpt>
<trkpt lat="25.429284" lon="100.444883">
<time>2016-04-06T13:22:51Z</time></trkpt>
<trkpt lat="25.429384" lon="100.444773">
<time>2016-04-06T13:22:52Z</time></trkpt>
<trkpt lat="25.429454" lon="100.444693">
<time>2016-04-06T13:22:53Z</time></trkpt>
<trkpt lat="25.429494" lon="100.444663">
<time>2016-04-06T13:22:54Z</time></trkpt>
<trkpt lat="25.429594" lon="100.444552">
<time>2016-04-06T13:22:55Z</time></trkpt>
<trkpt lat="25.429704" lon="100.444442">
<time>2016-04-06T13:22:56Z</time></trkpt>
<trkpt lat="25.429814" lon="100.444342">
<time>2016-04-06T13:22:57Z</time></trkpt>
<trkpt lat="25.429933" lon="100.444252">
<time>2016-04-06T13:22:58Z</time></trkpt>
<trkpt lat="25.430063" lon="100.444172">
<time>2016-04-06T13:22:59Z</time></trkpt>
<trkpt lat="25.430193" lon="100.444092">
<time>2016-04-06T13:23:00Z</time></trkpt>
<trkpt lat="25.430313" lon="100.443991">
<time>2016-04-06T13:23:01Z</time></trkpt>
<trkpt lat="25.430443" lon="100.443901">
<time>2016-04-06T13:23:02Z</time></trkpt>
<trkpt lat="25.430563" lon="100.443811">
<time>2016-04-06T13:23:03Z</time></trkpt>
<trkpt lat="25.430693" lon="100.443731">
<time>2016-04-06T13:23:04Z</time></trkpt>
<trkpt lat="25.430823" lon="100.443651">
<time>2016-04-06T13:23:05Z</time></trkpt>
<trkpt lat="25.430952" lon="100.443571">
<time>2016-04-06T13:23:06Z</time></trkpt>
<trkpt lat="25.431092" lon="100.44349">
<time>2016-04-06T13:23:07Z</time></trkpt>
<trkpt lat="25.431232" lon="100.44341">
<time>2016-04-06T13:23:08Z</time></trkpt>
<trkpt lat="25.431362" lon="100.44334">
<time>2016-04-06T13:23:09Z</time></trkpt>
<trkpt lat="25.431532" lon="100.4432">
<time>2016-04-06T13:23:10Z</time></trkpt>
<trkpt lat="25.431682" lon="100.4431">
<time>2016-04-06T13:23:11Z</time></trkpt>
<trkpt lat="25.431832" lon="100.442999">
<time>2016-04-06T13:23:12Z</time></trkpt>
<trkpt lat="25.431971" lon="100.442899">
<time>2016-04-06T13:23:13Z</time></trkpt>
<trkpt lat="25.432101" lon="100.442809">
<time>2016-04-06T13:23:14Z</time></trkpt>
<trkpt lat="25.432231" lon="100.442729">
<time>2016-04-06T13:23:15Z</time></trkpt>
<trkpt lat="25.432351" lon="100.442639">
<time>2016-04-06T13:23:16Z</time></trkpt>
<trkpt lat="25.432471" lon="100.442549">
<time>2016-04-06T13:23:17Z</time></trkpt>
<trkpt lat="25.432541" lon="100.442499">
<time>2016-04-06T13:23:18Z</time></trkpt>
<trkpt lat="25.432571" lon="100.442469">
<time>2016-04-06T13:23:19Z</time></trkpt>
<trkpt lat="25.432671" lon="100.442388">
<time>2016-04-06T13:23:20Z</time></trkpt>
<trkpt lat="25.432681" lon="100.442388">
<time>2016-04-06T13:23:21Z</time></trkpt>
<trkpt lat="25.432771" lon="100.442318">
<time>2016-04-06T13:23:22Z</time></trkpt>
<trkpt lat="25.43288" lon="100.442228">
<time>2016-04-06T13:23:23Z</time></trkpt>
<trkpt lat="25.43299" lon="100.442108">
<time>2016-04-06T13:23:24Z</time></trkpt>
<trkpt lat="25.4331" lon="100.442008">
<time>2016-04-06T13:23:25Z</time></trkpt>
<trkpt lat="25.43315" lon="100.441907">
<time>2016-04-06T13:23:26Z</time></trkpt>
<trkpt lat="25.43319" lon="100.441817">
<time>2016-04-06T13:23:27Z</time></trkpt>
<trkpt lat="25.43326" lon="100.441687">
<time>2016-04-06T13:23:28Z</time></trkpt>
<trkpt lat="25.433299" lon="100.441557">
<time>2016-04-06T13:23:29Z</time></trkpt>
<trkpt lat="25.433309" lon="100.441457">
<time>2016-04-06T13:23:30Z</time></trkpt>
<trkpt lat="25.433329" lon="100.441326">
<time>2016-04-06T13:23:31Z</time></trkpt>
<trkpt lat="25.433329" lon="100.441186">
<time>2016-04-06T13:23:32Z</time></trkpt>
<trkpt lat="25.433378" lon="100.441016">
<time>2016-04-06T13:23:33Z</time></trkpt>
<trkpt lat="25.433408" lon="100.440876">
<time>2016-04-06T13:23:34Z</time></trkpt>
<trkpt lat="25.433438" lon="100.440715">
<time>2016-04-06T13:23:35Z</time></trkpt>
<trkpt lat="25.433498" lon="100.440555">
<time>2016-04-06T13:23:36Z</time></trkpt>
<trkpt lat="25.433537" lon="100.440385">
<time>2016-04-06T13:23:37Z</time></trkpt>
<trkpt lat="25.433607" lon="100.440215">
<time>2016-04-06T13:23:38Z</time></trkpt>
<trkpt lat="25.433697" lon="100.440034">
<time>2016-04-06T13:23:39Z</time></trkpt>
<trkpt lat="25.433776" lon="100.439864">
<time>2016-04-06T13:23:40Z</time></trkpt>
<trkpt lat="25.433866" lon="100.439694">
<time>2016-04-06T13:23:41Z</time></trkpt>
<trkpt lat="25.433956" lon="100.439513">
<time>2016-04-06T13:23:42Z</time></trkpt>
<trkpt lat="25.434036" lon="100.439373">
<time>2016-04-06T13:23:43Z</time></trkpt>
<trkpt lat="25.434056" lon="100.439333">
<time>2016-04-06T13:23:44Z</time></trkpt>
<trkpt lat="25.434155" lon="100.439153">
<time>2016-04-06T13:23:45Z</time></trkpt>
<trkpt lat="25.434245" lon="100.438982">
<time>2016-04-06T13:23:46Z</time></trkpt>
<trkpt lat="25.434345" lon="100.438802">
<time>2016-04-06T13:23:47Z</time></trkpt>
<trkpt lat="25.434405" lon="100.438672">
<time>2016-04-06T13:23:48Z</time></trkpt>
<trkpt lat="25.434504" lon="100.438522">
<time>2016-04-06T13:23:49Z</time></trkpt>
<trkpt lat="25.434614" lon="100.438331">
<time>2016-04-06T13:23:50Z</time></trkpt>
<trkpt lat="25.434714" lon="100.438141">
<time>2016-04-06T13:23:51Z</time></trkpt>
<trkpt lat="25.434834" lon="100.437961">
<time>2016-04-06T13:23:52Z</time></trkpt>
<trkpt lat="25.434953" lon="100.437781">
<time>2016-04-06T13:23:53Z</time></trkpt>
<trkpt lat="25.435073" lon="100.43759">
<time>2016-04-06T13:23:54Z</time></trkpt>
<trkpt lat="25.435183" lon="100.4374">
<time>2016-04-06T13:23:55Z</time></trkpt>
<trkpt lat="25.435282" lon="100.43723">
<time>2016-04-06T13:23:56Z</time></trkpt>
<trkpt lat="25.435382" lon="100.437069">
<time>2016-04-06T13:23:57Z</time></trkpt>
<trkpt lat="25.435482" lon="100.436919">
<time>2016-04-06T13:23:58Z</time></trkpt>
<trkpt lat="25.435642" lon="100.436759">
<time>2016-04-06T13:23:59Z</time></trkpt>
<trkpt lat="25.435812" lon="100.436659">
<time>2016-04-06T13:24:00Z</time></trkpt>
<trkpt lat="25.436022" lon="100.436549">
<time>2016-04-06T13:24:01Z</time></trkpt>
<trkpt lat="25.436182" lon="100.436478">
<time>2016-04-06T13:24:02Z</time></trkpt>
<trkpt lat="25.436361" lon="100.436418">
<time>2016-04-06T13:24:03Z</time></trkpt>
<trkpt lat="25.436541" lon="100.436378">
<time>2016-04-06T13:24:04Z</time></trkpt>
<trkpt lat="25.436691" lon="100.436338">
<time>2016-04-06T13:24:05Z</time></trkpt>
<trkpt lat="25.436871" lon="100.436318">
<time>2016-04-06T13:24:06Z</time></trkpt>
<trkpt lat="25.437061" lon="100.436308">
<time>2016-04-06T13:24:07Z</time></trkpt>
<trkpt lat="25.437232" lon="100.436318">
<time>2016-04-06T13:24:08Z</time></trkpt>
<trkpt lat="25.437242" lon="100.436318">
<time>2016-04-06T13:24:09Z</time></trkpt>
<trkpt lat="25.437422" lon="100.436338">
<time>2016-04-06T13:24:10Z</time></trkpt>
<trkpt lat="25.437612" lon="100.436378">
<time>2016-04-06T13:24:11Z</time></trkpt>
<trkpt lat="25.437792" lon="100.436438">
<time>2016-04-06T13:24:12Z</time></trkpt>
<trkpt lat="25.437922" lon="100.436468">
<time>2016-04-06T13:24:13Z</time></trkpt>
<trkpt lat="25.438042" lon="100.436498">
<time>2016-04-06T13:24:14Z</time></trkpt>
<trkpt lat="25.438152" lon="100.436518">
<time>2016-04-06T13:24:15Z</time></trkpt>
<trkpt lat="25.438282" lon="100.436549">
<time>2016-04-06T13:24:16Z</time></trkpt>
<trkpt lat="25.438422" lon="100.436559">
<time>2016-04-06T13:24:17Z</time></trkpt>
<trkpt lat="25.438542" lon="100.436569">
<time>2016-04-06T13:24:18Z</time></trkpt>
<trkpt lat="25.438672" lon="100.436589">
<time>2016-04-06T13:24:19Z</time></trkpt>
<trkpt lat="25.438802" lon="100.436619">
<time>2016-04-06T13:24:20Z</time></trkpt>
<trkpt lat="25.438972" lon="100.436639">
<time>2016-04-06T13:24:21Z</time></trkpt>
<trkpt lat="25.439093" lon="100.436689">
<time>2016-04-06T13:24:22Z</time></trkpt>
<trkpt lat="25.439233" lon="100.436719">
<time>2016-04-06T13:24:23Z</time></trkpt>
<trkpt lat="25.439333" lon="100.436739">
<time>2016-04-06T13:24:24Z</time></trkpt>
<trkpt lat="25.439433" lon="100.436759">
<time>2016-04-06T13:24:25Z</time></trkpt>
<trkpt lat="25.439543" lon="100.436789">
<time>2016-04-06T13:24:26Z</time></trkpt>
<trkpt lat="25.439713" lon="100.436809">
<time>2016-04-06T13:24:27Z</time></trkpt>
<trkpt lat="25.439863" lon="100.436839">
<time>2016-04-06T13:24:28Z</time></trkpt>
<trkpt lat="25.440013" lon="100.436869">
<time>2016-04-06T13:24:29Z</time></trkpt>
<trkpt lat="25.440173" lon="100.436899">
<time>2016-04-06T13:24:30Z</time></trkpt>
<trkpt lat="25.440343" lon="100.436929">
<time>2016-04-06T13:24:31Z</time></trkpt>
<trkpt lat="25.440533" lon="100.436959">
<time>2016-04-06T13:24:32Z</time></trkpt>
<trkpt lat="25.440713" lon="100.436989">
<time>2016-04-06T13:24:33Z</time></trkpt>
<trkpt lat="25.440894" lon="100.437029">
<time>2016-04-06T13:24:34Z</time></trkpt>
<trkpt lat="25.441074" lon="100.437059">
<time>2016-04-06T13:24:35Z</time></trkpt>
<trkpt lat="25.441264" lon="100.437099">
<time>2016-04-06T13:24:36Z</time></trkpt>
<trkpt lat="25.441444" lon="100.437129">
<time>2016-04-06T13:24:37Z</time></trkpt>
<trkpt lat="25.441624" lon="100.437159">
<time>2016-04-06T13:24:38Z</time></trkpt>
<trkpt lat="25.441784" lon="100.437189">
<time>2016-04-06T13:24:39Z</time></trkpt>
<trkpt lat="25.441954" lon="100.437229">
<time>2016-04-06T13:24:40Z</time></trkpt>
<trkpt lat="25.442134" lon="100.43726">
<time>2016-04-06T13:24:41Z</time></trkpt>
<trkpt lat="25.442314" lon="100.43729">
<time>2016-04-06T13:24:42Z</time></trkpt>
<trkpt lat="25.442504" lon="100.43733">
<time>2016-04-06T13:24:43Z</time></trkpt>
<trkpt lat="25.442534" lon="100.43733">
<time>2016-04-06T13:24:44Z</time></trkpt>
<trkpt lat="25.442694" lon="100.43736">
<time>2016-04-06T13:24:45Z</time></trkpt>
<trkpt lat="25.442875" lon="100.4374">
<time>2016-04-06T13:24:46Z</time></trkpt>
<trkpt lat="25.443055" lon="100.43743">
<time>2016-04-06T13:24:47Z</time></trkpt>
<trkpt lat="25.443245" lon="100.43749">
<time>2016-04-06T13:24:48Z</time></trkpt>
<trkpt lat="25.443435" lon="100.43752">
<time>2016-04-06T13:24:49Z</time></trkpt>
<trkpt lat="25.443635" lon="100.43757">
<time>2016-04-06T13:24:50Z</time></trkpt>
<trkpt lat="25.443835" lon="100.4376">
<time>2016-04-06T13:24:51Z</time></trkpt>
<trkpt lat="25.444035" lon="100.43763">
<time>2016-04-06T13:24:52Z</time></trkpt>
<trkpt lat="25.444245" lon="100.43765">
<time>2016-04-06T13:24:53Z</time></trkpt>
<trkpt lat="25.444435" lon="100.43766">
<time>2016-04-06T13:24:54Z</time></trkpt>
<trkpt lat="25.444625" lon="100.43766">
<time>2016-04-06T13:24:55Z</time></trkpt>
<trkpt lat="25.444806" lon="100.43768">
<time>2016-04-06T13:24:56Z</time></trkpt>
<trkpt lat="25.444986" lon="100.43767">
<time>2016-04-06T13:24:57Z</time></trkpt>
<trkpt lat="25.445176" lon="100.43765">
<time>2016-04-06T13:24:58Z</time></trkpt>
<trkpt lat="25.445376" lon="100.43764">
<time>2016-04-06T13:24:59Z</time></trkpt>
<trkpt lat="25.445576" lon="100.43761">
<time>2016-04-06T13:25:00Z</time></trkpt>
<trkpt lat="25.445776" lon="100.43758">
<time>2016-04-06T13:25:01Z</time></trkpt>
<trkpt lat="25.445976" lon="100.43753">
<time>2016-04-06T13:25:02Z</time></trkpt>
<trkpt lat="25.446176" lon="100.43748">
<time>2016-04-06T13:25:03Z</time></trkpt>
<trkpt lat="25.446385" lon="100.43741">
<time>2016-04-06T13:25:04Z</time></trkpt>
<trkpt lat="25.446575" lon="100.43734">
<time>2016-04-06T13:25:05Z</time></trkpt>
<trkpt lat="25.446785" lon="100.437269">
<time>2016-04-06T13:25:06Z</time></trkpt>
<trkpt lat="25.446985" lon="100.437199">
<time>2016-04-06T13:25:07Z</time></trkpt>
<trkpt lat="25.447205" lon="100.437109">
<time>2016-04-06T13:25:08Z</time></trkpt>
<trkpt lat="25.447355" lon="100.437069">
<time>2016-04-06T13:25:09Z</time></trkpt>
<trkpt lat="25.447555" lon="100.436989">
<time>2016-04-06T13:25:10Z</time></trkpt>
<trkpt lat="25.447765" lon="100.436909">
<time>2016-04-06T13:25:11Z</time></trkpt>
<trkpt lat="25.447955" lon="100.436809">
<time>2016-04-06T13:25:12Z</time></trkpt>
<trkpt lat="25.448115" lon="100.436709">
<time>2016-04-06T13:25:13Z</time></trkpt>
<trkpt lat="25.448255" lon="100.436618">
<time>2016-04-06T13:25:14Z</time></trkpt>
<trkpt lat="25.448395" lon="100.436538">
<time>2016-04-06T13:25:15Z</time></trkpt>
<trkpt lat="25.448524" lon="100.436468">
<time>2016-04-06T13:25:16Z</time></trkpt>
<trkpt lat="25.448644" lon="100.436398">
<time>2016-04-06T13:25:17Z</time></trkpt>
<trkpt lat="25.448774" lon="100.436328">
<time>2016-04-06T13:25:18Z</time></trkpt>
<trkpt lat="25.448894" lon="100.436268">
<time>2016-04-06T13:25:19Z</time></trkpt>
<trkpt lat="25.449004" lon="100.436208">
<time>2016-04-06T13:25:20Z</time></trkpt>
<trkpt lat="25.449114" lon="100.436148">
<time>2016-04-06T13:25:21Z</time></trkpt>
<trkpt lat="25.449234" lon="100.436088">
<time>2016-04-06T13:25:22Z</time></trkpt>
<trkpt lat="25.449344" lon="100.436017">
<time>2016-04-06T13:25:23Z</time></trkpt>
<trkpt lat="25.449474" lon="100.435927">
<time>2016-04-06T13:25:24Z</time></trkpt>
<trkpt lat="25.449624" lon="100.435827">
<time>2016-04-06T13:25:25Z</time></trkpt>
<trkpt lat="25.449794" lon="100.435727">
<time>2016-04-06T13:25:26Z</time></trkpt>
<trkpt lat="25.449974" lon="100.435657">
<time>2016-04-06T13:25:27Z</time></trkpt>
<trkpt lat="25.450144" lon="100.435587">
<time>2016-04-06T13:25:28Z</time></trkpt>
<trkpt lat="25.450343" lon="100.435507">
<time>2016-04-06T13:25:29Z</time></trkpt>
<trkpt lat="25.450533" lon="100.435407">
<time>2016-04-06T13:25:30Z</time></trkpt>
<trkpt lat="25.450703" lon="100.435326">
<time>2016-04-06T13:25:31Z</time></trkpt>
<trkpt lat="25.450873" lon="100.435236">
<time>2016-04-06T13:25:32Z</time></trkpt>
<trkpt lat="25.451043" lon="100.435156">
<time>2016-04-06T13:25:33Z</time></trkpt>
<trkpt lat="25.451203" lon="100.435066">
<time>2016-04-06T13:25:34Z</time></trkpt>
<trkpt lat="25.451343" lon="100.434976">
<time>2016-04-06T13:25:35Z</time></trkpt>
<trkpt lat="25.451493" lon="100.434886">
<time>2016-04-06T13:25:36Z</time></trkpt>
<trkpt lat="25.451643" lon="100.434776">
<time>2016-04-06T13:25:37Z</time></trkpt>
<trkpt lat="25.451793" lon="100.434635">
<time>2016-04-06T13:25:38Z</time></trkpt>
<trkpt lat="25.451922" lon="100.434485">
<time>2016-04-06T13:25:39Z</time></trkpt>
<trkpt lat="25.452022" lon="100.434315">
<time>2016-04-06T13:25:40Z</time></trkpt>
<trkpt lat="25.452082" lon="100.434165">
<time>2016-04-06T13:25:41Z</time></trkpt>
<trkpt lat="25.452122" lon="100.433944">
<time>2016-04-06T13:25:42Z</time></trkpt>
<trkpt lat="25.452121" lon="100.433714">
<time>2016-04-06T13:25:43Z</time></trkpt>
<trkpt lat="25.452091" lon="100.433484">
<time>2016-04-06T13:25:44Z</time></trkpt>
<trkpt lat="25.452071" lon="100.433253">
<time>2016-04-06T13:25:45Z</time></trkpt>
<trkpt lat="25.45206" lon="100.433023">
<time>2016-04-06T13:25:46Z</time></trkpt>
<trkpt lat="25.45205" lon="100.432793">
<time>2016-04-06T13:25:47Z</time></trkpt>
<trkpt lat="25.45205" lon="100.432572">
<time>2016-04-06T13:25:48Z</time></trkpt>
<trkpt lat="25.452049" lon="100.432362">
<time>2016-04-06T13:25:49Z</time></trkpt>
<trkpt lat="25.452059" lon="100.432132">
<time>2016-04-06T13:25:50Z</time></trkpt>
<trkpt lat="25.452049" lon="100.431902">
<time>2016-04-06T13:25:51Z</time></trkpt>
<trkpt lat="25.452058" lon="100.431671">
<time>2016-04-06T13:25:52Z</time></trkpt>
<trkpt lat="25.452038" lon="100.431461">
<time>2016-04-06T13:25:53Z</time></trkpt>
<trkpt lat="25.452028" lon="100.431311">
<time>2016-04-06T13:25:54Z</time></trkpt>
<trkpt lat="25.451978" lon="100.431111">
<time>2016-04-06T13:25:55Z</time></trkpt>
<trkpt lat="25.451907" lon="100.43092">
<time>2016-04-06T13:25:56Z</time></trkpt>
<trkpt lat="25.451847" lon="100.43072">
<time>2016-04-06T13:25:57Z</time></trkpt>
<trkpt lat="25.451807" lon="100.43053">
<time>2016-04-06T13:25:58Z</time></trkpt>
<trkpt lat="25.451786" lon="100.43032">
<time>2016-04-06T13:25:59Z</time></trkpt>
<trkpt lat="25.451786" lon="100.430219">
<time>2016-04-06T13:26:00Z</time></trkpt>
<trkpt lat="25.451786" lon="100.430099">
<time>2016-04-06T13:26:01Z</time></trkpt>
<trkpt lat="25.451836" lon="100.429919">
<time>2016-04-06T13:26:02Z</time></trkpt>
<trkpt lat="25.451926" lon="100.429759">
<time>2016-04-06T13:26:03Z</time></trkpt>
<trkpt lat="25.452046" lon="100.429609">
<time>2016-04-06T13:26:04Z</time></trkpt>
<trkpt lat="25.452186" lon="100.429478">
<time>2016-04-06T13:26:05Z</time></trkpt>
<trkpt lat="25.452335" lon="100.429358">
<time>2016-04-06T13:26:06Z</time></trkpt>
<trkpt lat="25.452495" lon="100.429238">
<time>2016-04-06T13:26:07Z</time></trkpt>
<trkpt lat="25.452675" lon="100.429128">
<time>2016-04-06T13:26:08Z</time></trkpt>
<trkpt lat="25.452865" lon="100.429018">
<time>2016-04-06T13:26:09Z</time></trkpt>
<trkpt lat="25.453055" lon="100.428908">
<time>2016-04-06T13:26:10Z</time></trkpt>
<trkpt lat="25.453205" lon="100.428808">
<time>2016-04-06T13:26:11Z</time></trkpt>
<trkpt lat="25.453355" lon="100.428718">
<time>2016-04-06T13:26:12Z</time></trkpt>
<trkpt lat="25.453505" lon="100.428637">
<time>2016-04-06T13:26:13Z</time></trkpt>
<trkpt lat="25.453635" lon="100.428577">
<time>2016-04-06T13:26:14Z</time></trkpt>
<trkpt lat="25.453765" lon="100.428517">
<time>2016-04-06T13:26:15Z</time></trkpt>
<trkpt lat="25.453905" lon="100.428457">
<time>2016-04-06T13:26:16Z</time></trkpt>
<trkpt lat="25.454055" lon="100.428357">
<time>2016-04-06T13:26:17Z</time></trkpt>
<trkpt lat="25.454215" lon="100.428267">
<time>2016-04-06T13:26:18Z</time></trkpt>
<trkpt lat="25.454374" lon="100.428177">
<time>2016-04-06T13:26:19Z</time></trkpt>
<trkpt lat="25.454544" lon="100.428057">
<time>2016-04-06T13:26:20Z</time></trkpt>
<trkpt lat="25.454704" lon="100.427947">
<time>2016-04-06T13:26:21Z</time></trkpt>
<trkpt lat="25.454874" lon="100.427816">
<time>2016-04-06T13:26:22Z</time></trkpt>
<trkpt lat="25.455034" lon="100.427706">
<time>2016-04-06T13:26:23Z</time></trkpt>
<trkpt lat="25.455224" lon="100.427596">
<time>2016-04-06T13:26:24Z</time></trkpt>
<trkpt lat="25.455414" lon="100.427496">
<time>2016-04-06T13:26:25Z</time></trkpt>
<trkpt lat="25.455604" lon="100.427386">
<time>2016-04-06T13:26:26Z</time></trkpt>
<trkpt lat="25.455764" lon="100.427296">
<time>2016-04-06T13:26:27Z</time></trkpt>
<trkpt lat="25.455794" lon="100.427276">
<time>2016-04-06T13:26:28Z</time></trkpt>
<trkpt lat="25.455994" lon="100.427176">
<time>2016-04-06T13:26:29Z</time></trkpt>
<trkpt lat="25.456184" lon="100.427046">
<time>2016-04-06T13:26:30Z</time></trkpt>
<trkpt lat="25.456393" lon="100.426925">
<time>2016-04-06T13:26:31Z</time></trkpt>
<trkpt lat="25.456613" lon="100.426785">
<time>2016-04-06T13:26:32Z</time></trkpt>
<trkpt lat="25.456823" lon="100.426665">
<time>2016-04-06T13:26:33Z</time></trkpt>
<trkpt lat="25.457023" lon="100.426545">
<time>2016-04-06T13:26:34Z</time></trkpt>
<trkpt lat="25.457203" lon="100.426455">
<time>2016-04-06T13:26:35Z</time></trkpt>
<trkpt lat="25.457393" lon="100.426335">
<time>2016-04-06T13:26:36Z</time></trkpt>
<trkpt lat="25.457543" lon="100.426235">
<time>2016-04-06T13:26:37Z</time></trkpt>
<trkpt lat="25.457703" lon="100.426165">
<time>2016-04-06T13:26:38Z</time></trkpt>
<trkpt lat="25.457873" lon="100.426085">
<time>2016-04-06T13:26:39Z</time></trkpt>
<trkpt lat="25.458043" lon="100.426014">
<time>2016-04-06T13:26:40Z</time></trkpt>
<trkpt lat="25.458203" lon="100.425974">
<time>2016-04-06T13:26:41Z</time></trkpt>
<trkpt lat="25.458393" lon="100.425914">
<time>2016-04-06T13:26:42Z</time></trkpt>
<trkpt lat="25.458593" lon="100.425844">
<time>2016-04-06T13:26:43Z</time></trkpt>
<trkpt lat="25.458753" lon="100.425784">
<time>2016-04-06T13:26:44Z</time></trkpt>
<trkpt lat="25.458883" lon="100.425734">
<time>2016-04-06T13:26:45Z</time></trkpt>
<trkpt lat="25.458983" lon="100.425704">
<time>2016-04-06T13:26:46Z</time></trkpt>
<trkpt lat="25.459073" lon="100.425664">
<time>2016-04-06T13:26:47Z</time></trkpt>
<trkpt lat="25.459193" lon="100.425634">
<time>2016-04-06T13:26:48Z</time></trkpt>
<trkpt lat="25.459343" lon="100.425584">
<time>2016-04-06T13:26:49Z</time></trkpt>
<trkpt lat="25.459503" lon="100.425524">
<time>2016-04-06T13:26:50Z</time></trkpt>
<trkpt lat="25.459663" lon="100.425454">
<time>2016-04-06T13:26:51Z</time></trkpt>
<trkpt lat="25.459823" lon="100.425394">
<time>2016-04-06T13:26:52Z</time></trkpt>
<trkpt lat="25.459973" lon="100.425314">
<time>2016-04-06T13:26:53Z</time></trkpt>
<trkpt lat="25.460133" lon="100.425264">
<time>2016-04-06T13:26:54Z</time></trkpt>
<trkpt lat="25.460303" lon="100.425214">
<time>2016-04-06T13:26:55Z</time></trkpt>
<trkpt lat="25.460483" lon="100.425153">
<time>2016-04-06T13:26:56Z</time></trkpt>
<trkpt lat="25.460653" lon="100.425073">
<time>2016-04-06T13:26:57Z</time></trkpt>
<trkpt lat="25.460833" lon="100.425003">
<time>2016-04-06T13:26:58Z</time></trkpt>
<trkpt lat="25.461022" lon="100.424933">
<time>2016-04-06T13:26:59Z</time></trkpt>
<trkpt lat="25.461202" lon="100.424863">
<time>2016-04-06T13:27:00Z</time></trkpt>
<trkpt lat="25.461392" lon="100.424763">
<time>2016-04-06T13:27:01Z</time></trkpt>
<trkpt lat="25.461582" lon="100.424673">
<time>2016-04-06T13:27:02Z</time></trkpt>
<trkpt lat="25.461762" lon="100.424573">
<time>2016-04-06T13:27:03Z</time></trkpt>
<trkpt lat="25.461942" lon="100.424483">
<time>2016-04-06T13:27:04Z</time></trkpt>
<trkpt lat="25.462092" lon="100.424413">
<time>2016-04-06T13:27:05Z</time></trkpt>
<trkpt lat="25.462222" lon="100.424333">
<time>2016-04-06T13:27:06Z</time></trkpt>
<trkpt lat="25.462352" lon="100.424263">
<time>2016-04-06T13:27:07Z</time></trkpt>
<trkpt lat="25.462482" lon="100.424192">
<time>2016-04-06T13:27:08Z</time></trkpt>
<trkpt lat="25.462612" lon="100.424122">
<time>2016-04-06T13:27:09Z</time></trkpt>
<trkpt lat="25.462742" lon="100.424052">
<time>2016-04-06T13:27:10Z</time></trkpt>
<trkpt lat="25.462862" lon="100.423982">
<time>2016-04-06T13:27:11Z</time></trkpt>
<trkpt lat="25.462982" lon="100.423912">
<time>2016-04-06T13:27:12Z</time></trkpt>
<trkpt lat="25.463102" lon="100.423842">
<time>2016-04-06T13:27:13Z</time></trkpt>
<trkpt lat="25.463222" lon="100.423792">
<time>2016-04-06T13:27:14Z</time></trkpt>
<trkpt lat="25.463352" lon="100.423732">
<time>2016-04-06T13:27:15Z</time></trkpt>
<trkpt lat="25.463482" lon="100.423682">
<time>2016-04-06T13:27:16Z</time></trkpt>
<trkpt lat="25.463612" lon="100.423652">
<time>2016-04-06T13:27:17Z</time></trkpt>
<trkpt lat="25.463732" lon="100.423632">
<time>2016-04-06T13:27:18Z</time></trkpt>
<trkpt lat="25.463842" lon="100.423632">
<time>2016-04-06T13:27:19Z</time></trkpt>
<trkpt lat="25.463952" lon="100.423622">
<time>2016-04-06T13:27:20Z</time></trkpt>
<trkpt lat="25.464072" lon="100.423632">
<time>2016-04-06T13:27:21Z</time></trkpt>
<trkpt lat="25.464202" lon="100.423662">
<time>2016-04-06T13:27:22Z</time></trkpt>
<trkpt lat="25.464352" lon="100.423702">
<time>2016-04-06T13:27:23Z</time></trkpt>
<trkpt lat="25.464512" lon="100.423752">
<time>2016-04-06T13:27:24Z</time></trkpt>
<trkpt lat="25.464682" lon="100.423812">
<time>2016-04-06T13:27:25Z</time></trkpt>
<trkpt lat="25.464842" lon="100.423872">
<time>2016-04-06T13:27:26Z</time></trkpt>
<trkpt lat="25.465003" lon="100.423932">
<time>2016-04-06T13:27:27Z</time></trkpt>
<trkpt lat="25.465143" lon="100.423992">
<time>2016-04-06T13:27:28Z</time></trkpt>
<trkpt lat="25.465263" lon="100.424042">
<time>2016-04-06T13:27:29Z</time></trkpt>
<trkpt lat="25.465403" lon="100.424072">
<time>2016-04-06T13:27:30Z</time></trkpt>
<trkpt lat="25.465553" lon="100.424102">
<time>2016-04-06T13:27:31Z</time></trkpt>
<trkpt lat="25.465673" lon="100.424122">
<time>2016-04-06T13:27:32Z</time></trkpt>
<trkpt lat="25.465783" lon="100.424162">
<time>2016-04-06T13:27:33Z</time></trkpt>
<trkpt lat="25.465883" lon="100.424202">
<time>2016-04-06T13:27:34Z</time></trkpt>
<trkpt lat="25.465983" lon="100.424222">
<time>2016-04-06T13:27:35Z</time></trkpt>
<trkpt lat="25.466073" lon="100.424252">
<time>2016-04-06T13:27:36Z</time></trkpt>
<trkpt lat="25.466183" lon="100.424262">
<time>2016-04-06T13:27:37Z</time></trkpt>
<trkpt lat="25.466313" lon="100.424282">
<time>2016-04-06T13:27:38Z</time></trkpt>
<trkpt lat="25.466453" lon="100.424292">
<time>2016-04-06T13:27:39Z</time></trkpt>
<trkpt lat="25.466623" lon="100.424302">
<time>2016-04-06T13:27:40Z</time></trkpt>
<trkpt lat="25.466793" lon="100.424272">
<time>2016-04-06T13:27:41Z</time></trkpt>
<trkpt lat="25.466953" lon="100.424222">
<time>2016-04-06T13:27:42Z</time></trkpt>
<trkpt lat="25.467083" lon="100.424132">
<time>2016-04-06T13:27:43Z</time></trkpt>
<trkpt lat="25.467213" lon="100.424032">
<time>2016-04-06T13:27:44Z</time></trkpt>
<trkpt lat="25.467333" lon="100.423912">
<time>2016-04-06T13:27:45Z</time></trkpt>
<trkpt lat="25.467463" lon="100.423802">
<time>2016-04-06T13:27:46Z</time></trkpt>
<trkpt lat="25.467533" lon="100.423702">
<time>2016-04-06T13:27:47Z</time></trkpt>
<trkpt lat="25.467623" lon="100.423612">
<time>2016-04-06T13:27:48Z</time></trkpt>
<trkpt lat="25.467713" lon="100.423462">
<time>2016-04-06T13:27:49Z</time></trkpt>
<trkpt lat="25.467773" lon="100.423372">
<time>2016-04-06T13:27:50Z</time></trkpt>
<trkpt lat="25.468332" lon="100.422831">
<time>2016-04-06T13:27:51Z</time></trkpt>
<trkpt lat="25.468992" lon="100.422211">
<time>2016-04-06T13:27:52Z</time></trkpt>
<trkpt lat="25.469232" lon="100.422">
<time>2016-04-06T13:27:53Z</time></trkpt>
<trkpt lat="25.469542" lon="100.4217">
<time>2016-04-06T13:27:54Z</time></trkpt>
<trkpt lat="25.469621" lon="100.42159">
<time>2016-04-06T13:27:55Z</time></trkpt>
<trkpt lat="25.469671" lon="100.42148">
<time>2016-04-06T13:27:56Z</time></trkpt>
<trkpt lat="25.469711" lon="100.42132">
<time>2016-04-06T13:27:57Z</time></trkpt>
<trkpt lat="25.469721" lon="100.42114">
<time>2016-04-06T13:27:58Z</time></trkpt>
<trkpt lat="25.469691" lon="100.420969">
<time>2016-04-06T13:27:59Z</time></trkpt>
<trkpt lat="25.469601" lon="100.420759">
<time>2016-04-06T13:28:00Z</time></trkpt>
<trkpt lat="25.46944" lon="100.420479">
<time>2016-04-06T13:28:01Z</time></trkpt>
<trkpt lat="25.46928" lon="100.420059">
<time>2016-04-06T13:28:02Z</time></trkpt>
<trkpt lat="25.46925" lon="100.419969">
<time>2016-04-06T13:28:03Z</time></trkpt>
<trkpt lat="25.46912" lon="100.419638">
<time>2016-04-06T13:28:04Z</time></trkpt>
<trkpt lat="25.46911" lon="100.419608">
<time>2016-04-06T13:28:05Z</time></trkpt>
<trkpt lat="25.468939" lon="100.419158">
<time>2016-04-06T13:28:06Z</time></trkpt>
<trkpt lat="25.468899" lon="100.419058">
<time>2016-04-06T13:28:07Z</time></trkpt>
<trkpt lat="25.468809" lon="100.418838">
<time>2016-04-06T13:28:08Z</time></trkpt>
<trkpt lat="25.468719" lon="100.418698">
<time>2016-04-06T13:28:09Z</time></trkpt>
<trkpt lat="25.468619" lon="100.418578">
<time>2016-04-06T13:28:10Z</time></trkpt>
<trkpt lat="25.468509" lon="100.418468">
<time>2016-04-06T13:28:11Z</time></trkpt>
<trkpt lat="25.468388" lon="100.418388">
<time>2016-04-06T13:28:12Z</time></trkpt>
<trkpt lat="25.468248" lon="100.418298">
<time>2016-04-06T13:28:13Z</time></trkpt>
<trkpt lat="25.468158" lon="100.418257">
<time>2016-04-06T13:28:14Z</time></trkpt>
<trkpt lat="25.468048" lon="100.418227">
<time>2016-04-06T13:28:15Z</time></trkpt>
<trkpt lat="25.467948" lon="100.418187">
<time>2016-04-06T13:28:16Z</time></trkpt>
<trkpt lat="25.467688" lon="100.418107">
<time>2016-04-06T13:28:17Z</time></trkpt>
<trkpt lat="25.467558" lon="100.418057">
<time>2016-04-06T13:28:18Z</time></trkpt>
<trkpt lat="25.467458" lon="100.417997">
<time>2016-04-06T13:28:19Z</time></trkpt>
<trkpt lat="25.467368" lon="100.417927">
<time>2016-04-06T13:28:20Z</time></trkpt>
<trkpt lat="25.467268" lon="100.417797">
<time>2016-04-06T13:28:21Z</time></trkpt>
<trkpt lat="25.467167" lon="100.417587">
<time>2016-04-06T13:28:22Z</time></trkpt>
<trkpt lat="25.467087" lon="100.417407">
<time>2016-04-06T13:28:23Z</time></trkpt>
<trkpt lat="25.466997" lon="100.417247">
<time>2016-04-06T13:28:24Z</time></trkpt>
<trkpt lat="25.466897" lon="100.417127">
<time>2016-04-06T13:28:25Z</time></trkpt>
<trkpt lat="25.466757" lon="100.417027">
<time>2016-04-06T13:28:26Z</time></trkpt>
<trkpt lat="25.466627" lon="100.416967">
<time>2016-04-06T13:28:27Z</time></trkpt>
<trkpt lat="25.466567" lon="100.416947">
<time>2016-04-06T13:28:28Z</time></trkpt>
<trkpt lat="25.466497" lon="100.416937">
<time>2016-04-06T13:28:29Z</time></trkpt>
<trkpt lat="25.466427" lon="100.416937">
<time>2016-04-06T13:28:30Z</time></trkpt>
<trkpt lat="25.466377" lon="100.416937">
<time>2016-04-06T13:28:31Z</time></trkpt>
<trkpt lat="25.466177" lon="100.416957">
<time>2016-04-06T13:28:32Z</time></trkpt>
<trkpt lat="25.466067" lon="100.416967">
<time>2016-04-06T13:28:33Z</time></trkpt>
<trkpt lat="25.465977" lon="100.416967">
<time>2016-04-06T13:28:34Z</time></trkpt>
<trkpt lat="25.465947" lon="100.416967">
<time>2016-04-06T13:28:35Z</time></trkpt>
<trkpt lat="25.465927" lon="100.416967">
<time>2016-04-06T13:28:36Z</time></trkpt>
<trkpt lat="25.465847" lon="100.416947">
<time>2016-04-06T13:28:37Z</time></trkpt>
<trkpt lat="25.465777" lon="100.416927">
<time>2016-04-06T13:28:38Z</time></trkpt>
<trkpt lat="25.465707" lon="100.416897">
<time>2016-04-06T13:28:39Z</time></trkpt>
<trkpt lat="25.465637" lon="100.416847">
<time>2016-04-06T13:28:40Z</time></trkpt>
<trkpt lat="25.465536" lon="100.416727">
<time>2016-04-06T13:28:41Z</time></trkpt>
<trkpt lat="25.465466" lon="100.416576">
<time>2016-04-06T13:28:42Z</time></trkpt>
<trkpt lat="25.465406" lon="100.416306">
<time>2016-04-06T13:28:43Z</time></trkpt>
<trkpt lat="25.465306" lon="100.415856">
<time>2016-04-06T13:28:44Z</time></trkpt>
<trkpt lat="25.465175" lon="100.415246">
<time>2016-04-06T13:28:45Z</time></trkpt>
<trkpt lat="25.465125" lon="100.415136">
<time>2016-04-06T13:28:46Z</time></trkpt>
<trkpt lat="25.465035" lon="100.415026">
<time>2016-04-06T13:28:47Z</time></trkpt>
<trkpt lat="25.464905" lon="100.414836">
<time>2016-04-06T13:28:48Z</time></trkpt>
<trkpt lat="25.464705" lon="100.414675">
<time>2016-04-06T13:28:49Z</time></trkpt>
<trkpt lat="25.464465" lon="100.414555">
<time>2016-04-06T13:28:50Z</time></trkpt>
<trkpt lat="25.464205" lon="100.414475">
<time>2016-04-06T13:28:51Z</time></trkpt>
<trkpt lat="25.464004" lon="100.414325">
<time>2016-04-06T13:28:52Z</time></trkpt>
<trkpt lat="25.463874" lon="100.414205">
<time>2016-04-06T13:28:53Z</time></trkpt>
<trkpt lat="25.463704" lon="100.413965">
<time>2016-04-06T13:28:54Z</time></trkpt>
<trkpt lat="25.463564" lon="100.413755">
<time>2016-04-06T13:28:55Z</time></trkpt>
<trkpt lat="25.463424" lon="100.413545">
<time>2016-04-06T13:28:56Z</time></trkpt>
<trkpt lat="25.463364" lon="100.413395">
<time>2016-04-06T13:28:57Z</time></trkpt>
<trkpt lat="25.463254" lon="100.413185">
<time>2016-04-06T13:28:58Z</time></trkpt>
<trkpt lat="25.463133" lon="100.412985">
<time>2016-04-06T13:28:59Z</time></trkpt>
<trkpt lat="25.463033" lon="100.412775">
<time>2016-04-06T13:29:00Z</time></trkpt>
<trkpt lat="25.462963" lon="100.412565">
<time>2016-04-06T13:29:01Z</time></trkpt>
<trkpt lat="25.462923" lon="100.412324">
<time>2016-04-06T13:29:02Z</time></trkpt>
<trkpt lat="25.462893" lon="100.412094">
<time>2016-04-06T13:29:03Z</time></trkpt>
<trkpt lat="25.462853" lon="100.411884">
<time>2016-04-06T13:29:04Z</time></trkpt>
<trkpt lat="25.462803" lon="100.411694">
<time>2016-04-06T13:29:05Z</time></trkpt>
<trkpt lat="25.462733" lon="100.411484">
<time>2016-04-06T13:29:06Z</time></trkpt>
<trkpt lat="25.462612" lon="100.411304">
<time>2016-04-06T13:29:07Z</time></trkpt>
<trkpt lat="25.462452" lon="100.411214">
<time>2016-04-06T13:29:08Z</time></trkpt>
<trkpt lat="25.462242" lon="100.411234">
<time>2016-04-06T13:29:09Z</time></trkpt>
<trkpt lat="25.462082" lon="100.411344">
<time>2016-04-06T13:29:10Z</time></trkpt>
<trkpt lat="25.461922" lon="100.411474">
<time>2016-04-06T13:29:11Z</time></trkpt>
<trkpt lat="25.461772" lon="100.411624">
<time>2016-04-06T13:29:12Z</time></trkpt>
<trkpt lat="25.461602" lon="100.411744">
<time>2016-04-06T13:29:13Z</time></trkpt>
<trkpt lat="25.461482" lon="100.411824">
<time>2016-04-06T13:29:14Z</time></trkpt>
<trkpt lat="25.461452" lon="100.411834">
<time>2016-04-06T13:29:15Z</time></trkpt>
<trkpt lat="25.461422" lon="100.411834">
<time>2016-04-06T13:29:16Z</time></trkpt>
<trkpt lat="25.461372" lon="100.411834">
<time>2016-04-06T13:29:17Z</time></trkpt>
<trkpt lat="25.461312" lon="100.411824">
<time>2016-04-06T13:29:18Z</time></trkpt>
<trkpt lat="25.461282" lon="100.411824">
<time>2016-04-06T13:29:19Z</time></trkpt>
<trkpt lat="25.461262" lon="100.411804">
<time>2016-04-06T13:29:20Z</time></trkpt>
<trkpt lat="25.461232" lon="100.411774">
<time>2016-04-06T13:29:21Z</time></trkpt>
<trkpt lat="25.461192" lon="100.411724">
<time>2016-04-06T13:29:22Z</time></trkpt>
<trkpt lat="25.461172" lon="100.411644">
<time>2016-04-06T13:29:23Z</time></trkpt>
<trkpt lat="25.461162" lon="100.411564">
<time>2016-04-06T13:29:24Z</time></trkpt>
<trkpt lat="25.461182" lon="100.411484">
<time>2016-04-06T13:29:25Z</time></trkpt>
<trkpt lat="25.461202" lon="100.411424">
<time>2016-04-06T13:29:26Z</time></trkpt>
<trkpt lat="25.461282" lon="100.411294">
<time>2016-04-06T13:29:27Z</time></trkpt>
<trkpt lat="25.461352" lon="100.411174">
<time>2016-04-06T13:29:28Z</time></trkpt>
<trkpt lat="25.461432" lon="100.411054">
<time>2016-04-06T13:29:29Z</time></trkpt>
<trkpt lat="25.461512" lon="100.410924">
<time>2016-04-06T13:29:30Z</time></trkpt>
<trkpt lat="25.461582" lon="100.410764">
<time>2016-04-06T13:29:31Z</time></trkpt>
<trkpt lat="25.461592" lon="100.410584">
<time>2016-04-06T13:29:32Z</time></trkpt>
<trkpt lat="25.461532" lon="100.410414">
<time>2016-04-06T13:29:33Z</time></trkpt>
<trkpt lat="25.461422" lon="100.410274">
<time>2016-04-06T13:29:34Z</time></trkpt>
<trkpt lat="25.461292" lon="100.410134">
<time>2016-04-06T13:29:35Z</time></trkpt>
<trkpt lat="25.461161" lon="100.410014">
<time>2016-04-06T13:29:36Z</time></trkpt>
<trkpt lat="25.461061" lon="100.409864">
<time>2016-04-06T13:29:37Z</time></trkpt>
<trkpt lat="25.460931" lon="100.409764">
<time>2016-04-06T13:29:38Z</time></trkpt>
<trkpt lat="25.460801" lon="100.409634">
<time>2016-04-06T13:29:39Z</time></trkpt>
<trkpt lat="25.460681" lon="100.409534">
<time>2016-04-06T13:29:40Z</time></trkpt>
<trkpt lat="25.460561" lon="100.409444">
<time>2016-04-06T13:29:41Z</time></trkpt>
<trkpt lat="25.460441" lon="100.409384">
<time>2016-04-06T13:29:42Z</time></trkpt>
<trkpt lat="25.460341" lon="100.409314">
<time>2016-04-06T13:29:43Z</time></trkpt>
<trkpt lat="25.460231" lon="100.409224">
<time>2016-04-06T13:29:44Z</time></trkpt>
<trkpt lat="25.460121" lon="100.409154">
<time>2016-04-06T13:29:45Z</time></trkpt>
<trkpt lat="25.460021" lon="100.409074">
<time>2016-04-06T13:29:46Z</time></trkpt>
<trkpt lat="25.459911" lon="100.408994">
<time>2016-04-06T13:29:47Z</time></trkpt>
<trkpt lat="25.459821" lon="100.408914">
<time>2016-04-06T13:29:48Z</time></trkpt>
<trkpt lat="25.459721" lon="100.408833">
<time>2016-04-06T13:29:49Z</time></trkpt>
<trkpt lat="25.459631" lon="100.408743">
<time>2016-04-06T13:29:50Z</time></trkpt>
<trkpt lat="25.459521" lon="100.408693">
<time>2016-04-06T13:29:51Z</time></trkpt>
<trkpt lat="25.459411" lon="100.408653">
<time>2016-04-06T13:29:52Z</time></trkpt>
<trkpt lat="25.4593" lon="100.408623">
<time>2016-04-06T13:29:53Z</time></trkpt>
<trkpt lat="25.45918" lon="100.408623">
<time>2016-04-06T13:29:54Z</time></trkpt>
<trkpt lat="25.45907" lon="100.408603">
<time>2016-04-06T13:29:55Z</time></trkpt>
<trkpt lat="25.45893" lon="100.408603">
<time>2016-04-06T13:29:56Z</time></trkpt>
<trkpt lat="25.45878" lon="100.408593">
<time>2016-04-06T13:29:57Z</time></trkpt>
<trkpt lat="25.45862" lon="100.408573">
<time>2016-04-06T13:29:58Z</time></trkpt>
<trkpt lat="25.45848" lon="100.408543">
<time>2016-04-06T13:29:59Z</time></trkpt>
<trkpt lat="25.45834" lon="100.408503">
<time>2016-04-06T13:30:00Z</time></trkpt>
<trkpt lat="25.45823" lon="100.408403">
<time>2016-04-06T13:30:01Z</time></trkpt>
<trkpt lat="25.45814" lon="100.408283">
<time>2016-04-06T13:30:02Z</time></trkpt>
<trkpt lat="25.45811" lon="100.408123">
<time>2016-04-06T13:30:03Z</time></trkpt>
<trkpt lat="25.45808" lon="100.407993">
<time>2016-04-06T13:30:04Z</time></trkpt>
<trkpt lat="25.45805" lon="100.407853">
<time>2016-04-06T13:30:05Z</time></trkpt>
<trkpt lat="25.45801" lon="100.407733">
<time>2016-04-06T13:30:06Z</time></trkpt>
<trkpt lat="25.45794" lon="100.407603">
<time>2016-04-06T13:30:07Z</time></trkpt>
<trkpt lat="25.45786" lon="100.407503">
<time>2016-04-06T13:30:08Z</time></trkpt>
<trkpt lat="25.45772" lon="100.407423">
<time>2016-04-06T13:30:09Z</time></trkpt>
<trkpt lat="25.45757" lon="100.407423">
<time>2016-04-06T13:30:10Z</time></trkpt>
<trkpt lat="25.45742" lon="100.407483">
<time>2016-04-06T13:30:11Z</time></trkpt>
<trkpt lat="25.4573" lon="100.407553">
<time>2016-04-06T13:30:12Z</time></trkpt>
<trkpt lat="25.45717" lon="100.407643">
<time>2016-04-06T13:30:13Z</time></trkpt>
<trkpt lat="25.45704" lon="100.407703">
<time>2016-04-06T13:30:14Z</time></trkpt>
<trkpt lat="25.4569" lon="100.407743">
<time>2016-04-06T13:30:15Z</time></trkpt>
<trkpt lat="25.45677" lon="100.407753">
<time>2016-04-06T13:30:16Z</time></trkpt>
<trkpt lat="25.456589" lon="100.407743">
<time>2016-04-06T13:30:17Z</time></trkpt>
<trkpt lat="25.456439" lon="100.407703">
<time>2016-04-06T13:30:18Z</time></trkpt>
<trkpt lat="25.456309" lon="100.407643">
<time>2016-04-06T13:30:19Z</time></trkpt>
<trkpt lat="25.456179" lon="100.407553">
<time>2016-04-06T13:30:20Z</time></trkpt>
<trkpt lat="25.456019" lon="100.407473">
<time>2016-04-06T13:30:21Z</time></trkpt>
<trkpt lat="25.455849" lon="100.407383">
<time>2016-04-06T13:30:22Z</time></trkpt>
<trkpt lat="25.455639" lon="100.407323">
<time>2016-04-06T13:30:23Z</time></trkpt>
<trkpt lat="25.455419" lon="100.407273">
<time>2016-04-06T13:30:24Z</time></trkpt>
<trkpt lat="25.455249" lon="100.407143">
<time>2016-04-06T13:30:25Z</time></trkpt>
<trkpt lat="25.455159" lon="100.406963">
<time>2016-04-06T13:30:26Z</time></trkpt>
<trkpt lat="25.455129" lon="100.406733">
<time>2016-04-06T13:30:27Z</time></trkpt>
<trkpt lat="25.455159" lon="100.406543">
<time>2016-04-06T13:30:28Z</time></trkpt>
<trkpt lat="25.455119" lon="100.406473">
<time>2016-04-06T13:30:29Z</time></trkpt>
<trkpt lat="25.455039" lon="100.406463">
<time>2016-04-06T13:30:30Z</time></trkpt>
<trkpt lat="25.454899" lon="100.406543">
<time>2016-04-06T13:30:31Z</time></trkpt>
<trkpt lat="25.454779" lon="100.406663">
<time>2016-04-06T13:30:32Z</time></trkpt>
<trkpt lat="25.454639" lon="100.406763">
<time>2016-04-06T13:30:33Z</time></trkpt>
<trkpt lat="25.454499" lon="100.406903">
<time>2016-04-06T13:30:34Z</time></trkpt>
<trkpt lat="25.454309" lon="100.406973">
<time>2016-04-06T13:30:35Z</time></trkpt>
<trkpt lat="25.454159" lon="100.406993">
<time>2016-04-06T13:30:36Z</time></trkpt>
<trkpt lat="25.453989" lon="100.406943">
<time>2016-04-06T13:30:37Z</time></trkpt>
<trkpt lat="25.453859" lon="100.406833">
<time>2016-04-06T13:30:38Z</time></trkpt>
<trkpt lat="25.453748" lon="100.406703">
<time>2016-04-06T13:30:39Z</time></trkpt>
<trkpt lat="25.453658" lon="100.406553">
<time>2016-04-06T13:30:40Z</time></trkpt>
<trkpt lat="25.453588" lon="100.406393">
<time>2016-04-06T13:30:41Z</time></trkpt>
<trkpt lat="25.453568" lon="100.406233">
<time>2016-04-06T13:30:42Z</time></trkpt>
<trkpt lat="25.453588" lon="100.406083">
<time>2016-04-06T13:30:43Z</time></trkpt>
<trkpt lat="25.453658" lon="100.405943">
<time>2016-04-06T13:30:44Z</time></trkpt>
<trkpt lat="25.453728" lon="100.405833">
<time>2016-04-06T13:30:45Z</time></trkpt>
<trkpt lat="25.453808" lon="100.405703">
<time>2016-04-06T13:30:46Z</time></trkpt>
<trkpt lat="25.453888" lon="100.405583">
<time>2016-04-06T13:30:47Z</time></trkpt>
<trkpt lat="25.453948" lon="100.405433">
<time>2016-04-06T13:30:48Z</time></trkpt>
<trkpt lat="25.453988" lon="100.405293">
<time>2016-04-06T13:30:49Z</time></trkpt>
<trkpt lat="25.454008" lon="100.405153">
<time>2016-04-06T13:30:50Z</time></trkpt>
<trkpt lat="25.454018" lon="100.405023">
<time>2016-04-06T13:30:51Z</time></trkpt>
<trkpt lat="25.454028" lon="100.404903">
<time>2016-04-06T13:30:52Z</time></trkpt>
<trkpt lat="25.454038" lon="100.404763">
<time>2016-04-06T13:30:53Z</time></trkpt>
<trkpt lat="25.454028" lon="100.404633">
<time>2016-04-06T13:30:54Z</time></trkpt>
<trkpt lat="25.453988" lon="100.404503">
<time>2016-04-06T13:30:55Z</time></trkpt>
<trkpt lat="25.453908" lon="100.404393">
<time>2016-04-06T13:30:56Z</time></trkpt>
<trkpt lat="25.453828" lon="100.404293">
<time>2016-04-06T13:30:57Z</time></trkpt>
<trkpt lat="25.453758" lon="100.404203">
<time>2016-04-06T13:30:58Z</time></trkpt>
<trkpt lat="25.453688" lon="100.404113">
<time>2016-04-06T13:30:59Z</time></trkpt>
<trkpt lat="25.453618" lon="100.404033">
<time>2016-04-06T13:31:00Z</time></trkpt>
<trkpt lat="25.453538" lon="100.403943">
<time>2016-04-06T13:31:01Z</time></trkpt>
<trkpt lat="25.453438" lon="100.403873">
<time>2016-04-06T13:31:02Z</time></trkpt>
<trkpt lat="25.453348" lon="100.403843">
<time>2016-04-06T13:31:03Z</time></trkpt>
<trkpt lat="25.453218" lon="100.403843">
<time>2016-04-06T13:31:04Z</time></trkpt>
<trkpt lat="25.453098" lon="100.403863">
<time>2016-04-06T13:31:05Z</time></trkpt>
<trkpt lat="25.453008" lon="100.403883">
<time>2016-04-06T13:31:06Z</time></trkpt>
<trkpt lat="25.452888" lon="100.403843">
<time>2016-04-06T13:31:07Z</time></trkpt>
<trkpt lat="25.452818" lon="100.403743">
<time>2016-04-06T13:31:08Z</time></trkpt>
<trkpt lat="25.452748" lon="100.403643">
<time>2016-04-06T13:31:09Z</time></trkpt>
<trkpt lat="25.452688" lon="100.403473">
<time>2016-04-06T13:31:10Z</time></trkpt>
<trkpt lat="25.452638" lon="100.403293">
<time>2016-04-06T13:31:11Z</time></trkpt>
<trkpt lat="25.452598" lon="100.403103">
<time>2016-04-06T13:31:12Z</time></trkpt>
<trkpt lat="25.452547" lon="100.402923">
<time>2016-04-06T13:31:13Z</time></trkpt>
<trkpt lat="25.452497" lon="100.402743">
<time>2016-04-06T13:31:14Z</time></trkpt>
<trkpt lat="25.452467" lon="100.402523">
<time>2016-04-06T13:31:15Z</time></trkpt>
<trkpt lat="25.452477" lon="100.402293">
<time>2016-04-06T13:31:16Z</time></trkpt>
<trkpt lat="25.452537" lon="100.402073">
<time>2016-04-06T13:31:17Z</time></trkpt>
<trkpt lat="25.452607" lon="100.401873">
<time>2016-04-06T13:31:18Z</time></trkpt>
<trkpt lat="25.452707" lon="100.401713">
<time>2016-04-06T13:31:19Z</time></trkpt>
<trkpt lat="25.452787" lon="100.401553">
<time>2016-04-06T13:31:20Z</time></trkpt>
<trkpt lat="25.452867" lon="100.401373">
<time>2016-04-06T13:31:21Z</time></trkpt>
<trkpt lat="25.452918" lon="100.401203">
<time>2016-04-06T13:31:22Z</time></trkpt>
<trkpt lat="25.452948" lon="100.401023">
<time>2016-04-06T13:31:23Z</time></trkpt>
<trkpt lat="25.452968" lon="100.400853">
<time>2016-04-06T13:31:24Z</time></trkpt>
<trkpt lat="25.452958" lon="100.400694">
<time>2016-04-06T13:31:25Z</time></trkpt>
<trkpt lat="25.452897" lon="100.400554">
<time>2016-04-06T13:31:26Z</time></trkpt>
<trkpt lat="25.452787" lon="100.400464">
<time>2016-04-06T13:31:27Z</time></trkpt>
<trkpt lat="25.452637" lon="100.400444">
<time>2016-04-06T13:31:28Z</time></trkpt>
<trkpt lat="25.452497" lon="100.400454">
<time>2016-04-06T13:31:29Z</time></trkpt>
<trkpt lat="25.452297" lon="100.400484">
<time>2016-04-06T13:31:30Z</time></trkpt>
<trkpt lat="25.452107" lon="100.400524">
<time>2016-04-06T13:31:31Z</time></trkpt>
<trkpt lat="25.451937" lon="100.400564">
<time>2016-04-06T13:31:32Z</time></trkpt>
<trkpt lat="25.451657" lon="100.400654">
<time>2016-04-06T13:31:33Z</time></trkpt>
<trkpt lat="25.451447" lon="100.400714">
<time>2016-04-06T13:31:34Z</time></trkpt>
<trkpt lat="25.451307" lon="100.400784">
<time>2016-04-06T13:31:35Z</time></trkpt>
<trkpt lat="25.451107" lon="100.400854">
<time>2016-04-06T13:31:36Z</time></trkpt>
<trkpt lat="25.450917" lon="100.400934">
<time>2016-04-06T13:31:37Z</time></trkpt>
<trkpt lat="25.450737" lon="100.401014">
<time>2016-04-06T13:31:38Z</time></trkpt>
<trkpt lat="25.450547" lon="100.401103">
<time>2016-04-06T13:31:39Z</time></trkpt>
<trkpt lat="25.450357" lon="100.401183">
<time>2016-04-06T13:31:40Z</time></trkpt>
<trkpt lat="25.450167" lon="100.401253">
<time>2016-04-06T13:31:41Z</time></trkpt>
<trkpt lat="25.449977" lon="100.401293">
<time>2016-04-06T13:31:42Z</time></trkpt>
<trkpt lat="25.449797" lon="100.401333">
<time>2016-04-06T13:31:43Z</time></trkpt>
<trkpt lat="25.449627" lon="100.401363">
<time>2016-04-06T13:31:44Z</time></trkpt>
<trkpt lat="25.449487" lon="100.401363">
<time>2016-04-06T13:31:45Z</time></trkpt>
<trkpt lat="25.449297" lon="100.401343">
<time>2016-04-06T13:31:46Z</time></trkpt>
<trkpt lat="25.449117" lon="100.401294">
<time>2016-04-06T13:31:47Z</time></trkpt>
<trkpt lat="25.448966" lon="100.401294">
<time>2016-04-06T13:31:48Z</time></trkpt>
<trkpt lat="25.448766" lon="100.401314">
<time>2016-04-06T13:31:49Z</time></trkpt>
<trkpt lat="25.448586" lon="100.401384">
<time>2016-04-06T13:31:50Z</time></trkpt>
<trkpt lat="25.448416" lon="100.401474">
<time>2016-04-06T13:31:51Z</time></trkpt>
<trkpt lat="25.448246" lon="100.401553">
<time>2016-04-06T13:31:52Z</time></trkpt>
<trkpt lat="25.448066" lon="100.401613">
<time>2016-04-06T13:31:53Z</time></trkpt>
<trkpt lat="25.447896" lon="100.401643">
<time>2016-04-06T13:31:54Z</time></trkpt>
<trkpt lat="25.447696" lon="100.401614">
<time>2016-04-06T13:31:55Z</time></trkpt>
<trkpt lat="25.447516" lon="100.401584">
<time>2016-04-06T13:31:56Z</time></trkpt>
<trkpt lat="25.447346" lon="100.401544">
<time>2016-04-06T13:31:57Z</time></trkpt>
<trkpt lat="25.447206" lon="100.401434">
<time>2016-04-06T13:31:58Z</time></trkpt>
<trkpt lat="25.447146" lon="100.401274">
<time>2016-04-06T13:31:59Z</time></trkpt>
<trkpt lat="25.447136" lon="100.401094">
<time>2016-04-06T13:32:00Z</time></trkpt>
<trkpt lat="25.447176" lon="100.400914">
<time>2016-04-06T13:32:01Z</time></trkpt>
<trkpt lat="25.447216" lon="100.400754">
<time>2016-04-06T13:32:02Z</time></trkpt>
<trkpt lat="25.447276" lon="100.400614">
<time>2016-04-06T13:32:03Z</time></trkpt>
<trkpt lat="25.447326" lon="100.400484">
<time>2016-04-06T13:32:04Z</time></trkpt>
<trkpt lat="25.447426" lon="100.400364">
<time>2016-04-06T13:32:05Z</time></trkpt>
<trkpt lat="25.447486" lon="100.400234">
<time>2016-04-06T13:32:06Z</time></trkpt>
<trkpt lat="25.447576" lon="100.400104">
<time>2016-04-06T13:32:07Z</time></trkpt>
<trkpt lat="25.447646" lon="100.399944">
<time>2016-04-06T13:32:08Z</time></trkpt>
<trkpt lat="25.447726" lon="100.399784">
<time>2016-04-06T13:32:09Z</time></trkpt>
<trkpt lat="25.447846" lon="100.399614">
<time>2016-04-06T13:32:10Z</time></trkpt>
<trkpt lat="25.447976" lon="100.399464">
<time>2016-04-06T13:32:11Z</time></trkpt>
<trkpt lat="25.448086" lon="100.399304">
<time>2016-04-06T13:32:12Z</time></trkpt>
<trkpt lat="25.448196" lon="100.399144">
<time>2016-04-06T13:32:13Z</time></trkpt>
<trkpt lat="25.448226" lon="100.399034">
<time>2016-04-06T13:32:14Z</time></trkpt>
<trkpt lat="25.448196" lon="100.398924">
<time>2016-04-06T13:32:15Z</time></trkpt>
<trkpt lat="25.448096" lon="100.398814">
<time>2016-04-06T13:32:16Z</time></trkpt>
<trkpt lat="25.447976" lon="100.398694">
<time>2016-04-06T13:32:17Z</time></trkpt>
<trkpt lat="25.447846" lon="100.398584">
<time>2016-04-06T13:32:18Z</time></trkpt>
<trkpt lat="25.447726" lon="100.398454">
<time>2016-04-06T13:32:19Z</time></trkpt>
<trkpt lat="25.447606" lon="100.398304">
<time>2016-04-06T13:32:20Z</time></trkpt>
<trkpt lat="25.447496" lon="100.398204">
<time>2016-04-06T13:32:21Z</time></trkpt>
<trkpt lat="25.447336" lon="100.398104">
<time>2016-04-06T13:32:22Z</time></trkpt>
<trkpt lat="25.447186" lon="100.398014">
<time>2016-04-06T13:32:23Z</time></trkpt>
<trkpt lat="25.447016" lon="100.397914">
<time>2016-04-06T13:32:24Z</time></trkpt>
<trkpt lat="25.446816" lon="100.397824">
<time>2016-04-06T13:32:25Z</time></trkpt>
<trkpt lat="25.446626" lon="100.397744">
<time>2016-04-06T13:32:26Z</time></trkpt>
<trkpt lat="25.446456" lon="100.397654">
<time>2016-04-06T13:32:27Z</time></trkpt>
<trkpt lat="25.446266" lon="100.397554">
<time>2016-04-06T13:32:28Z</time></trkpt>
<trkpt lat="25.446096" lon="100.397474">
<time>2016-04-06T13:32:29Z</time></trkpt>
<trkpt lat="25.445956" lon="100.397405">
<time>2016-04-06T13:32:30Z</time></trkpt>
<trkpt lat="25.445806" lon="100.397365">
<time>2016-04-06T13:32:31Z</time></trkpt>
<trkpt lat="25.445666" lon="100.397355">
<time>2016-04-06T13:32:32Z</time></trkpt>
<trkpt lat="25.445516" lon="100.397345">
<time>2016-04-06T13:32:33Z</time></trkpt>
<trkpt lat="25.445356" lon="100.397355">
<time>2016-04-06T13:32:34Z</time></trkpt>
<trkpt lat="25.445176" lon="100.397375">
<time>2016-04-06T13:32:35Z</time></trkpt>
<trkpt lat="25.444966" lon="100.397415">
<time>2016-04-06T13:32:36Z</time></trkpt>
<trkpt lat="25.444786" lon="100.397455">
<time>2016-04-06T13:32:37Z</time></trkpt>
<trkpt lat="25.444586" lon="100.397485">
<time>2016-04-06T13:32:38Z</time></trkpt>
<trkpt lat="25.444376" lon="100.397475">
<time>2016-04-06T13:32:39Z</time></trkpt>
<trkpt lat="25.444216" lon="100.397465">
<time>2016-04-06T13:32:40Z</time></trkpt>
<trkpt lat="25.444096" lon="100.397445">
<time>2016-04-06T13:32:41Z</time></trkpt>
<trkpt lat="25.443986" lon="100.397395">
<time>2016-04-06T13:32:42Z</time></trkpt>
<trkpt lat="25.443886" lon="100.397295">
<time>2016-04-06T13:32:43Z</time></trkpt>
<trkpt lat="25.443806" lon="100.397175">
<time>2016-04-06T13:32:44Z</time></trkpt>
<trkpt lat="25.443686" lon="100.397015">
<time>2016-04-06T13:32:45Z</time></trkpt>
<trkpt lat="25.443586" lon="100.396855">
<time>2016-04-06T13:32:46Z</time></trkpt>
<trkpt lat="25.443476" lon="100.396695">
<time>2016-04-06T13:32:47Z</time></trkpt>
<trkpt lat="25.443356" lon="100.396555">
<time>2016-04-06T13:32:48Z</time></trkpt>
<trkpt lat="25.443246" lon="100.396455">
<time>2016-04-06T13:32:49Z</time></trkpt>
<trkpt lat="25.443145" lon="100.396435">
<time>2016-04-06T13:32:50Z</time></trkpt>
<trkpt lat="25.443065" lon="100.396445">
<time>2016-04-06T13:32:51Z</time></trkpt>
<trkpt lat="25.442965" lon="100.396635">
<time>2016-04-06T13:32:52Z</time></trkpt>
<trkpt lat="25.442875" lon="100.396855">
<time>2016-04-06T13:32:53Z</time></trkpt>
<trkpt lat="25.442835" lon="100.397045">
<time>2016-04-06T13:32:54Z</time></trkpt>
<trkpt lat="25.442795" lon="100.397205">
<time>2016-04-06T13:32:55Z</time></trkpt>
<trkpt lat="25.442705" lon="100.397345">
<time>2016-04-06T13:32:56Z</time></trkpt>
<trkpt lat="25.442565" lon="100.397445">
<time>2016-04-06T13:32:57Z</time></trkpt>
<trkpt lat="25.442415" lon="100.397485">
<time>2016-04-06T13:32:58Z</time></trkpt>
<trkpt lat="25.442215" lon="100.397465">
<time>2016-04-06T13:32:59Z</time></trkpt>
<trkpt lat="25.442035" lon="100.397435">
<time>2016-04-06T13:33:00Z</time></trkpt>
<trkpt lat="25.441855" lon="100.397415">
<time>2016-04-06T13:33:01Z</time></trkpt>
<trkpt lat="25.441655" lon="100.397385">
<time>2016-04-06T13:33:02Z</time></trkpt>
<trkpt lat="25.441425" lon="100.397345">
<time>2016-04-06T13:33:03Z</time></trkpt>
<trkpt lat="25.441255" lon="100.397295">
<time>2016-04-06T13:33:04Z</time></trkpt>
<trkpt lat="25.441085" lon="100.397235">
<time>2016-04-06T13:33:05Z</time></trkpt>
<trkpt lat="25.440945" lon="100.397155">
<time>2016-04-06T13:33:06Z</time></trkpt>
<trkpt lat="25.440845" lon="100.397025">
<time>2016-04-06T13:33:07Z</time></trkpt>
<trkpt lat="25.440785" lon="100.396835">
<time>2016-04-06T13:33:08Z</time></trkpt>
<trkpt lat="25.440745" lon="100.396625">
<time>2016-04-06T13:33:09Z</time></trkpt>
<trkpt lat="25.440725" lon="100.396395">
<time>2016-04-06T13:33:10Z</time></trkpt>
<trkpt lat="25.440735" lon="100.396175">
<time>2016-04-06T13:33:11Z</time></trkpt>
<trkpt lat="25.440775" lon="100.395955">
<time>2016-04-06T13:33:12Z</time></trkpt>
<trkpt lat="25.440845" lon="100.395765">
<time>2016-04-06T13:33:13Z</time></trkpt>
<trkpt lat="25.440945" lon="100.395565">
<time>2016-04-06T13:33:14Z</time></trkpt>
<trkpt lat="25.441055" lon="100.395375">
<time>2016-04-06T13:33:15Z</time></trkpt>
<trkpt lat="25.441175" lon="100.395155">
<time>2016-04-06T13:33:16Z</time></trkpt>
<trkpt lat="25.441305" lon="100.394976">
<time>2016-04-06T13:33:17Z</time></trkpt>
<trkpt lat="25.441455" lon="100.394786">
<time>2016-04-06T13:33:18Z</time></trkpt>
<trkpt lat="25.441576" lon="100.394586">
<time>2016-04-06T13:33:19Z</time></trkpt>
<trkpt lat="25.441696" lon="100.394406">
<time>2016-04-06T13:33:20Z</time></trkpt>
<trkpt lat="25.441836" lon="100.394186">
<time>2016-04-06T13:33:21Z</time></trkpt>
<trkpt lat="25.441956" lon="100.393956">
<time>2016-04-06T13:33:22Z</time></trkpt>
<trkpt lat="25.442016" lon="100.393716">
<time>2016-04-06T13:33:23Z</time></trkpt>
<trkpt lat="25.442076" lon="100.393486">
<time>2016-04-06T13:33:24Z</time></trkpt>
<trkpt lat="25.442106" lon="100.393276">
<time>2016-04-06T13:33:25Z</time></trkpt>
<trkpt lat="25.442106" lon="100.393086">
<time>2016-04-06T13:33:26Z</time></trkpt>
<trkpt lat="25.442076" lon="100.392887">
<time>2016-04-06T13:33:27Z</time></trkpt>
<trkpt lat="25.442026" lon="100.392727">
<time>2016-04-06T13:33:28Z</time></trkpt>
<trkpt lat="25.441946" lon="100.392587">
<time>2016-04-06T13:33:29Z</time></trkpt>
<trkpt lat="25.441826" lon="100.392497">
<time>2016-04-06T13:33:30Z</time></trkpt>
<trkpt lat="25.441736" lon="100.392477">
<time>2016-04-06T13:33:31Z</time></trkpt>
<trkpt lat="25.441586" lon="100.392527">
<time>2016-04-06T13:33:32Z</time></trkpt>
<trkpt lat="25.441486" lon="100.392597">
<time>2016-04-06T13:33:33Z</time></trkpt>
<trkpt lat="25.441376" lon="100.392707">
<time>2016-04-06T13:33:34Z</time></trkpt>
<trkpt lat="25.441256" lon="100.392817">
<time>2016-04-06T13:33:35Z</time></trkpt>
<trkpt lat="25.441106" lon="100.392927">
<time>2016-04-06T13:33:36Z</time></trkpt>
<trkpt lat="25.440946" lon="100.392997">
<time>2016-04-06T13:33:37Z</time></trkpt>
<trkpt lat="25.440776" lon="100.393057">
<time>2016-04-06T13:33:38Z</time></trkpt>
<trkpt lat="25.440626" lon="100.393106">
<time>2016-04-06T13:33:39Z</time></trkpt>
<trkpt lat="25.440476" lon="100.393166">
<time>2016-04-06T13:33:40Z</time></trkpt>
<trkpt lat="25.440336" lon="100.393186">
<time>2016-04-06T13:33:41Z</time></trkpt>
<trkpt lat="25.440176" lon="100.393146">
<time>2016-04-06T13:33:42Z</time></trkpt>
<trkpt lat="25.440036" lon="100.393047">
<time>2016-04-06T13:33:43Z</time></trkpt>
<trkpt lat="25.439896" lon="100.392947">
<time>2016-04-06T13:33:44Z</time></trkpt>
<trkpt lat="25.439776" lon="100.392727">
<time>2016-04-06T13:33:45Z</time></trkpt>
<trkpt lat="25.439686" lon="100.392597">
<time>2016-04-06T13:33:46Z</time></trkpt>
<trkpt lat="25.439606" lon="100.392467">
<time>2016-04-06T13:33:47Z</time></trkpt>
<trkpt lat="25.439536" lon="100.392327">
<time>2016-04-06T13:33:48Z</time></trkpt>
<trkpt lat="25.439446" lon="100.392197">
<time>2016-04-06T13:33:49Z</time></trkpt>
<trkpt lat="25.439346" lon="100.392107">
<time>2016-04-06T13:33:50Z</time></trkpt>
<trkpt lat="25.439226" lon="100.392047">
<time>2016-04-06T13:33:51Z</time></trkpt>
<trkpt lat="25.439116" lon="100.392017">
<time>2016-04-06T13:33:52Z</time></trkpt>
<trkpt lat="25.438996" lon="100.392017">
<time>2016-04-06T13:33:53Z</time></trkpt>
<trkpt lat="25.438866" lon="100.391987">
<time>2016-04-06T13:33:54Z</time></trkpt>
<trkpt lat="25.438716" lon="100.391947">
<time>2016-04-06T13:33:55Z</time></trkpt>
<trkpt lat="25.438566" lon="100.391907">
<time>2016-04-06T13:33:56Z</time></trkpt>
<trkpt lat="25.438396" lon="100.391837">
<time>2016-04-06T13:33:57Z</time></trkpt>
<trkpt lat="25.438246" lon="100.391747">
<time>2016-04-06T13:33:58Z</time></trkpt>
<trkpt lat="25.438116" lon="100.391617">
<time>2016-04-06T13:33:59Z</time></trkpt>
<trkpt lat="25.438006" lon="100.391467">
<time>2016-04-06T13:34:00Z</time></trkpt>
<trkpt lat="25.437936" lon="100.391298">
<time>2016-04-06T13:34:01Z</time></trkpt>
<trkpt lat="25.437916" lon="100.391098">
<time>2016-04-06T13:34:02Z</time></trkpt>
<trkpt lat="25.437936" lon="100.390878">
<time>2016-04-06T13:34:03Z</time></trkpt>
<trkpt lat="25.437976" lon="100.390648">
<time>2016-04-06T13:34:04Z</time></trkpt>
<trkpt lat="25.438016" lon="100.390418">
<time>2016-04-06T13:34:05Z</time></trkpt>
<trkpt lat="25.438036" lon="100.390198">
<time>2016-04-06T13:34:06Z</time></trkpt>
<trkpt lat="25.438006" lon="100.389978">
<time>2016-04-06T13:34:07Z</time></trkpt>
<trkpt lat="25.437916" lon="100.389789">
<time>2016-04-06T13:34:08Z</time></trkpt>
<trkpt lat="25.437777" lon="100.389639">
<time>2016-04-06T13:34:09Z</time></trkpt>
<trkpt lat="25.437597" lon="100.389539">
<time>2016-04-06T13:34:10Z</time></trkpt>
<trkpt lat="25.437437" lon="100.389469">
<time>2016-04-06T13:34:11Z</time></trkpt>
<trkpt lat="25.437267" lon="100.389379">
<time>2016-04-06T13:34:12Z</time></trkpt>
<trkpt lat="25.437107" lon="100.389279">
<time>2016-04-06T13:34:13Z</time></trkpt>
<trkpt lat="25.436937" lon="100.389199">
<time>2016-04-06T13:34:14Z</time></trkpt>
<trkpt lat="25.436777" lon="100.389139">
<time>2016-04-06T13:34:15Z</time></trkpt>
<trkpt lat="25.436606" lon="100.389109">
<time>2016-04-06T13:34:16Z</time></trkpt>
<trkpt lat="25.436446" lon="100.389079">
<time>2016-04-06T13:34:17Z</time></trkpt>
<trkpt lat="25.436286" lon="100.389079">
<time>2016-04-06T13:34:18Z</time></trkpt>
<trkpt lat="25.436136" lon="100.389049">
<time>2016-04-06T13:34:19Z</time></trkpt>
<trkpt lat="25.436016" lon="100.388949">
<time>2016-04-06T13:34:20Z</time></trkpt>
<trkpt lat="25.435947" lon="100.388789">
<time>2016-04-06T13:34:21Z</time></trkpt>
<trkpt lat="25.435947" lon="100.388569">
<time>2016-04-06T13:34:22Z</time></trkpt>
<trkpt lat="25.435957" lon="100.3884">
<time>2016-04-06T13:34:23Z</time></trkpt>
<trkpt lat="25.435987" lon="100.3882">
<time>2016-04-06T13:34:24Z</time></trkpt>
<trkpt lat="25.436027" lon="100.38797">
<time>2016-04-06T13:34:25Z</time></trkpt>
<trkpt lat="25.436047" lon="100.3879">
<time>2016-04-06T13:34:26Z</time></trkpt>
<trkpt lat="25.436087" lon="100.38774">
<time>2016-04-06T13:34:27Z</time></trkpt>
<trkpt lat="25.436147" lon="100.38748">
<time>2016-04-06T13:34:28Z</time></trkpt>
<trkpt lat="25.436227" lon="100.38722">
<time>2016-04-06T13:34:29Z</time></trkpt>
<trkpt lat="25.436308" lon="100.387001">
<time>2016-04-06T13:34:30Z</time></trkpt>
<trkpt lat="25.436348" lon="100.386771">
<time>2016-04-06T13:34:31Z</time></trkpt>
<trkpt lat="25.436318" lon="100.386561">
<time>2016-04-06T13:34:32Z</time></trkpt>
<trkpt lat="25.436228" lon="100.386451">
<time>2016-04-06T13:34:33Z</time></trkpt>
<trkpt lat="25.436098" lon="100.386381">
<time>2016-04-06T13:34:34Z</time></trkpt>
<trkpt lat="25.435948" lon="100.386401">
<time>2016-04-06T13:34:35Z</time></trkpt>
<trkpt lat="25.435808" lon="100.386461">
<time>2016-04-06T13:34:36Z</time></trkpt>
<trkpt lat="25.435678" lon="100.386521">
<time>2016-04-06T13:34:37Z</time></trkpt>
<trkpt lat="25.435548" lon="100.386611">
<time>2016-04-06T13:34:38Z</time></trkpt>
<trkpt lat="25.435398" lon="100.386741">
<time>2016-04-06T13:34:39Z</time></trkpt>
<trkpt lat="25.435217" lon="100.386911">
<time>2016-04-06T13:34:40Z</time></trkpt>
<trkpt lat="25.435047" lon="100.387071">
<time>2016-04-06T13:34:41Z</time></trkpt>
<trkpt lat="25.434947" lon="100.387171">
<time>2016-04-06T13:34:42Z</time></trkpt>
<trkpt lat="25.434887" lon="100.38723">
<time>2016-04-06T13:34:43Z</time></trkpt>
<trkpt lat="25.434717" lon="100.38739">
<time>2016-04-06T13:34:44Z</time></trkpt>
<trkpt lat="25.434547" lon="100.38756">
<time>2016-04-06T13:34:45Z</time></trkpt>
<trkpt lat="25.434357" lon="100.38772">
<time>2016-04-06T13:34:46Z</time></trkpt>
<trkpt lat="25.434177" lon="100.3879">
<time>2016-04-06T13:34:47Z</time></trkpt>
<trkpt lat="25.434006" lon="100.38808">
<time>2016-04-06T13:34:48Z</time></trkpt>
<trkpt lat="25.433856" lon="100.38827">
<time>2016-04-06T13:34:49Z</time></trkpt>
<trkpt lat="25.433686" lon="100.38843">
<time>2016-04-06T13:34:50Z</time></trkpt>
<trkpt lat="25.433536" lon="100.388589">
<time>2016-04-06T13:34:51Z</time></trkpt>
<trkpt lat="25.433376" lon="100.388689">
<time>2016-04-06T13:34:52Z</time></trkpt>
<trkpt lat="25.433236" lon="100.388729">
<time>2016-04-06T13:34:53Z</time></trkpt>
<trkpt lat="25.433066" lon="100.388689">
<time>2016-04-06T13:34:54Z</time></trkpt>
<trkpt lat="25.432976" lon="100.38856">
<time>2016-04-06T13:34:55Z</time></trkpt>
<trkpt lat="25.432946" lon="100.38841">
<time>2016-04-06T13:34:56Z</time></trkpt>
<trkpt lat="25.432936" lon="100.38824">
<time>2016-04-06T13:34:57Z</time></trkpt>
<trkpt lat="25.432936" lon="100.38804">
<time>2016-04-06T13:34:58Z</time></trkpt>
<trkpt lat="25.432956" lon="100.38783">
<time>2016-04-06T13:34:59Z</time></trkpt>
<trkpt lat="25.433016" lon="100.38762">
<time>2016-04-06T13:35:00Z</time></trkpt>
<trkpt lat="25.433077" lon="100.38742">
<time>2016-04-06T13:35:01Z</time></trkpt>
<trkpt lat="25.433137" lon="100.387211">
<time>2016-04-06T13:35:02Z</time></trkpt>
<trkpt lat="25.433197" lon="100.387001">
<time>2016-04-06T13:35:03Z</time></trkpt>
<trkpt lat="25.433257" lon="100.386821">
<time>2016-04-06T13:35:04Z</time></trkpt>
<trkpt lat="25.433297" lon="100.386661">
<time>2016-04-06T13:35:05Z</time></trkpt>
<trkpt lat="25.433357" lon="100.386491">
<time>2016-04-06T13:35:06Z</time></trkpt>
<trkpt lat="25.433407" lon="100.386311">
<time>2016-04-06T13:35:07Z</time></trkpt>
<trkpt lat="25.433457" lon="100.386131">
<time>2016-04-06T13:35:08Z</time></trkpt>
<trkpt lat="25.433508" lon="100.385942">
<time>2016-04-06T13:35:09Z</time></trkpt>
<trkpt lat="25.433548" lon="100.385762">
<time>2016-04-06T13:35:10Z</time></trkpt>
<trkpt lat="25.433588" lon="100.385582">
<time>2016-04-06T13:35:11Z</time></trkpt>
<trkpt lat="25.433618" lon="100.385402">
<time>2016-04-06T13:35:12Z</time></trkpt>
<trkpt lat="25.433638" lon="100.385232">
<time>2016-04-06T13:35:13Z</time></trkpt>
<trkpt lat="25.433608" lon="100.385062">
<time>2016-04-06T13:35:14Z</time></trkpt>
<trkpt lat="25.433548" lon="100.384912">
<time>2016-04-06T13:35:15Z</time></trkpt>
<trkpt lat="25.433428" lon="100.384853">
<time>2016-04-06T13:35:16Z</time></trkpt>
<trkpt lat="25.433338" lon="100.384733">
<time>2016-04-06T13:35:17Z</time></trkpt>
<trkpt lat="25.433278" lon="100.384593">
<time>2016-04-06T13:35:18Z</time></trkpt>
<trkpt lat="25.433269" lon="100.384433">
<time>2016-04-06T13:35:19Z</time></trkpt>
<trkpt lat="25.433269" lon="100.384323">
<time>2016-04-06T13:35:20Z</time></trkpt>
<trkpt lat="25.433169" lon="100.384183">
<time>2016-04-06T13:35:21Z</time></trkpt>
<trkpt lat="25.433109" lon="100.384163">
<time>2016-04-06T13:35:22Z</time></trkpt>
<trkpt lat="25.433029" lon="100.384143">
<time>2016-04-06T13:35:23Z</time></trkpt>
<trkpt lat="25.432859" lon="100.384183">
<time>2016-04-06T13:35:24Z</time></trkpt>
<trkpt lat="25.432718" lon="100.384293">
<time>2016-04-06T13:35:25Z</time></trkpt>
<trkpt lat="25.432578" lon="100.384433">
<time>2016-04-06T13:35:26Z</time></trkpt>
<trkpt lat="25.432448" lon="100.384573">
<time>2016-04-06T13:35:27Z</time></trkpt>
<trkpt lat="25.432288" lon="100.384703">
<time>2016-04-06T13:35:28Z</time></trkpt>
<trkpt lat="25.432108" lon="100.384823">
<time>2016-04-06T13:35:29Z</time></trkpt>
<trkpt lat="25.431928" lon="100.384922">
<time>2016-04-06T13:35:30Z</time></trkpt>
<trkpt lat="25.431748" lon="100.385042">
<time>2016-04-06T13:35:31Z</time></trkpt>
<trkpt lat="25.431578" lon="100.385142">
<time>2016-04-06T13:35:32Z</time></trkpt>
<trkpt lat="25.431408" lon="100.385212">
<time>2016-04-06T13:35:33Z</time></trkpt>
<trkpt lat="25.431238" lon="100.385192">
<time>2016-04-06T13:35:34Z</time></trkpt>
<trkpt lat="25.431068" lon="100.385102">
<time>2016-04-06T13:35:35Z</time></trkpt>
<trkpt lat="25.430958" lon="100.384982">
<time>2016-04-06T13:35:36Z</time></trkpt>
<trkpt lat="25.430878" lon="100.384813">
<time>2016-04-06T13:35:37Z</time></trkpt>
<trkpt lat="25.430838" lon="100.384643">
<time>2016-04-06T13:35:38Z</time></trkpt>
<trkpt lat="25.430838" lon="100.384463">
<time>2016-04-06T13:35:39Z</time></trkpt>
<trkpt lat="25.430878" lon="100.384323">
<time>2016-04-06T13:35:40Z</time></trkpt>
<trkpt lat="25.430928" lon="100.384183">
<time>2016-04-06T13:35:41Z</time></trkpt>
<trkpt lat="25.430978" lon="100.384063">
<time>2016-04-06T13:35:42Z</time></trkpt>
<trkpt lat="25.431028" lon="100.383923">
<time>2016-04-06T13:35:43Z</time></trkpt>
<trkpt lat="25.431068" lon="100.383784">
<time>2016-04-06T13:35:44Z</time></trkpt>
<trkpt lat="25.431099" lon="100.383654">
<time>2016-04-06T13:35:45Z</time></trkpt>
<trkpt lat="25.431119" lon="100.383574">
<time>2016-04-06T13:35:46Z</time></trkpt>
<trkpt lat="25.431149" lon="100.383464">
<time>2016-04-06T13:35:47Z</time></trkpt>
<trkpt lat="25.431139" lon="100.383334">
<time>2016-04-06T13:35:48Z</time></trkpt>
<trkpt lat="25.431089" lon="100.383224">
<time>2016-04-06T13:35:49Z</time></trkpt>
<trkpt lat="25.430979" lon="100.383134">
<time>2016-04-06T13:35:50Z</time></trkpt>
<trkpt lat="25.430849" lon="100.383124">
<time>2016-04-06T13:35:51Z</time></trkpt>
<trkpt lat="25.430689" lon="100.383174">
<time>2016-04-06T13:35:52Z</time></trkpt>
<trkpt lat="25.430539" lon="100.383254">
<time>2016-04-06T13:35:53Z</time></trkpt>
<trkpt lat="25.430389" lon="100.383344">
<time>2016-04-06T13:35:54Z</time></trkpt>
<trkpt lat="25.430239" lon="100.383434">
<time>2016-04-06T13:35:55Z</time></trkpt>
<trkpt lat="25.430088" lon="100.383524">
<time>2016-04-06T13:35:56Z</time></trkpt>
<trkpt lat="25.429928" lon="100.383594">
<time>2016-04-06T13:35:57Z</time></trkpt>
<trkpt lat="25.429758" lon="100.383654">
<time>2016-04-06T13:35:58Z</time></trkpt>
<trkpt lat="25.429588" lon="100.383684">
<time>2016-04-06T13:35:59Z</time></trkpt>
<trkpt lat="25.429418" lon="100.383694">
<time>2016-04-06T13:36:00Z</time></trkpt>
<trkpt lat="25.429268" lon="100.383704">
<time>2016-04-06T13:36:01Z</time></trkpt>
<trkpt lat="25.429068" lon="100.383684">
<time>2016-04-06T13:36:02Z</time></trkpt>
<trkpt lat="25.428918" lon="100.383654">
<time>2016-04-06T13:36:03Z</time></trkpt>
<trkpt lat="25.428748" lon="100.383674">
<time>2016-04-06T13:36:04Z</time></trkpt>
<trkpt lat="25.428638" lon="100.383684">
<time>2016-04-06T13:36:05Z</time></trkpt>
<trkpt lat="25.428528" lon="100.383704">
<time>2016-04-06T13:36:06Z</time></trkpt>
<trkpt lat="25.428428" lon="100.383744">
<time>2016-04-06T13:36:07Z</time></trkpt>
<trkpt lat="25.428328" lon="100.383784">
<time>2016-04-06T13:36:08Z</time></trkpt>
<trkpt lat="25.428218" lon="100.383824">
<time>2016-04-06T13:36:09Z</time></trkpt>
<trkpt lat="25.428118" lon="100.383854">
<time>2016-04-06T13:36:10Z</time></trkpt>
<trkpt lat="25.428018" lon="100.383874">
<time>2016-04-06T13:36:11Z</time></trkpt>
<trkpt lat="25.427918" lon="100.383884">
<time>2016-04-06T13:36:12Z</time></trkpt>
<trkpt lat="25.427838" lon="100.383854">
<time>2016-04-06T13:36:13Z</time></trkpt>
<trkpt lat="25.427778" lon="100.383824">
<time>2016-04-06T13:36:14Z</time></trkpt>
<trkpt lat="25.427778" lon="100.383824">
<time>2016-04-06T13:36:15Z</time></trkpt>
<trkpt lat="25.427768" lon="100.383814">
<time>2016-04-06T13:36:16Z</time></trkpt>
<trkpt lat="25.427698" lon="100.383754">
<time>2016-04-06T13:36:17Z</time></trkpt>
<trkpt lat="25.427648" lon="100.383664">
<time>2016-04-06T13:36:18Z</time></trkpt>
<trkpt lat="25.427618" lon="100.383504">
<time>2016-04-06T13:36:19Z</time></trkpt>
<trkpt lat="25.427678" lon="100.383364">
<time>2016-04-06T13:36:20Z</time></trkpt>
<trkpt lat="25.427718" lon="100.383294">
<time>2016-04-06T13:36:21Z</time></trkpt>
<trkpt lat="25.427798" lon="100.383204">
<time>2016-04-06T13:36:22Z</time></trkpt>
<trkpt lat="25.427908" lon="100.383104">
<time>2016-04-06T13:36:23Z</time></trkpt>
<trkpt lat="25.428008" lon="100.383014">
<time>2016-04-06T13:36:24Z</time></trkpt>
<trkpt lat="25.428118" lon="100.382924">
<time>2016-04-06T13:36:25Z</time></trkpt>
<trkpt lat="25.428219" lon="100.382805">
<time>2016-04-06T13:36:26Z</time></trkpt>
<trkpt lat="25.428349" lon="100.382705">
<time>2016-04-06T13:36:27Z</time></trkpt>
<trkpt lat="25.428479" lon="100.382605">
<time>2016-04-06T13:36:28Z</time></trkpt>
<trkpt lat="25.428599" lon="100.382475">
<time>2016-04-06T13:36:29Z</time></trkpt>
<trkpt lat="25.428719" lon="100.382355">
<time>2016-04-06T13:36:30Z</time></trkpt>
<trkpt lat="25.428829" lon="100.382235">
<time>2016-04-06T13:36:31Z</time></trkpt>
<trkpt lat="25.428899" lon="100.382115">
<time>2016-04-06T13:36:32Z</time></trkpt>
<trkpt lat="25.428999" lon="100.382005">
<time>2016-04-06T13:36:33Z</time></trkpt>
<trkpt lat="25.429079" lon="100.381875">
<time>2016-04-06T13:36:34Z</time></trkpt>
<trkpt lat="25.42919" lon="100.381776">
<time>2016-04-06T13:36:35Z</time></trkpt>
<trkpt lat="25.42931" lon="100.381666">
<time>2016-04-06T13:36:36Z</time></trkpt>
<trkpt lat="25.42944" lon="100.381556">
<time>2016-04-06T13:36:37Z</time></trkpt>
<trkpt lat="25.42959" lon="100.381446">
<time>2016-04-06T13:36:38Z</time></trkpt>
<trkpt lat="25.42973" lon="100.381326">
<time>2016-04-06T13:36:39Z</time></trkpt>
<trkpt lat="25.42986" lon="100.381186">
<time>2016-04-06T13:36:40Z</time></trkpt>
<trkpt lat="25.42998" lon="100.381036">
<time>2016-04-06T13:36:41Z</time></trkpt>
<trkpt lat="25.4301" lon="100.380876">
<time>2016-04-06T13:36:42Z</time></trkpt>
<trkpt lat="25.430231" lon="100.380717">
<time>2016-04-06T13:36:43Z</time></trkpt>
<trkpt lat="25.430381" lon="100.380587">
<time>2016-04-06T13:36:44Z</time></trkpt>
<trkpt lat="25.430551" lon="100.380487">
<time>2016-04-06T13:36:45Z</time></trkpt>
<trkpt lat="25.430721" lon="100.380397">
<time>2016-04-06T13:36:46Z</time></trkpt>
<trkpt lat="25.430791" lon="100.380377">
<time>2016-04-06T13:36:47Z</time></trkpt>
<trkpt lat="25.430901" lon="100.380327">
<time>2016-04-06T13:36:48Z</time></trkpt>
<trkpt lat="25.431081" lon="100.380267">
<time>2016-04-06T13:36:49Z</time></trkpt>
<trkpt lat="25.431251" lon="100.380187">
<time>2016-04-06T13:36:50Z</time></trkpt>
<trkpt lat="25.431421" lon="100.380097">
<time>2016-04-06T13:36:51Z</time></trkpt>
<trkpt lat="25.431572" lon="100.380007">
<time>2016-04-06T13:36:52Z</time></trkpt>
<trkpt lat="25.431722" lon="100.379877">
<time>2016-04-06T13:36:53Z</time></trkpt>
<trkpt lat="25.431862" lon="100.379758">
<time>2016-04-06T13:36:54Z</time></trkpt>
<trkpt lat="25.431872" lon="100.379748">
<time>2016-04-06T13:36:55Z</time></trkpt>
<trkpt lat="25.432022" lon="100.379618">
<time>2016-04-06T13:36:56Z</time></trkpt>
<trkpt lat="25.432142" lon="100.379518">
<time>2016-04-06T13:36:57Z</time></trkpt>
<trkpt lat="25.432262" lon="100.379428">
<time>2016-04-06T13:36:58Z</time></trkpt>
<trkpt lat="25.432372" lon="100.379318">
<time>2016-04-06T13:36:59Z</time></trkpt>
<trkpt lat="25.432492" lon="100.379228">
<time>2016-04-06T13:37:00Z</time></trkpt>
<trkpt lat="25.432623" lon="100.379118">
<time>2016-04-06T13:37:01Z</time></trkpt>
<trkpt lat="25.432753" lon="100.379028">
<time>2016-04-06T13:37:02Z</time></trkpt>
<trkpt lat="25.432873" lon="100.378948">
<time>2016-04-06T13:37:03Z</time></trkpt>
<trkpt lat="25.432983" lon="100.378879">
<time>2016-04-06T13:37:04Z</time></trkpt>
<trkpt lat="25.433083" lon="100.378809">
<time>2016-04-06T13:37:05Z</time></trkpt>
<trkpt lat="25.433183" lon="100.378749">
<time>2016-04-06T13:37:06Z</time></trkpt>
<trkpt lat="25.433303" lon="100.378669">
<time>2016-04-06T13:37:07Z</time></trkpt>
<trkpt lat="25.433423" lon="100.378579">
<time>2016-04-06T13:37:08Z</time></trkpt>
<trkpt lat="25.433543" lon="100.378489">
<time>2016-04-06T13:37:09Z</time></trkpt>
<trkpt lat="25.433683" lon="100.378389">
<time>2016-04-06T13:37:10Z</time></trkpt>
<trkpt lat="25.433824" lon="100.378289">
<time>2016-04-06T13:37:11Z</time></trkpt>
<trkpt lat="25.433974" lon="100.378159">
<time>2016-04-06T13:37:12Z</time></trkpt>
<trkpt lat="25.434124" lon="100.378">
<time>2016-04-06T13:37:13Z</time></trkpt>
<trkpt lat="25.434294" lon="100.37784">
<time>2016-04-06T13:37:14Z</time></trkpt>
<trkpt lat="25.434474" lon="100.37768">
<time>2016-04-06T13:37:15Z</time></trkpt>
<trkpt lat="25.434665" lon="100.3775">
<time>2016-04-06T13:37:16Z</time></trkpt>
<trkpt lat="25.434845" lon="100.37729">
<time>2016-04-06T13:37:17Z</time></trkpt>
<trkpt lat="25.435045" lon="100.377101">
<time>2016-04-06T13:37:18Z</time></trkpt>
<trkpt lat="25.435265" lon="100.376931">
<time>2016-04-06T13:37:19Z</time></trkpt>
<trkpt lat="25.435455" lon="100.376751">
<time>2016-04-06T13:37:20Z</time></trkpt>
<trkpt lat="25.435666" lon="100.376551">
<time>2016-04-06T13:37:21Z</time></trkpt>
<trkpt lat="25.435846" lon="100.376312">
<time>2016-04-06T13:37:22Z</time></trkpt>
<trkpt lat="25.436006" lon="100.376112">
<time>2016-04-06T13:37:23Z</time></trkpt>
<trkpt lat="25.436186" lon="100.375942">
<time>2016-04-06T13:37:24Z</time></trkpt>
<trkpt lat="25.436327" lon="100.375742">
<time>2016-04-06T13:37:25Z</time></trkpt>
<trkpt lat="25.436457" lon="100.375552">
<time>2016-04-06T13:37:26Z</time></trkpt>
<trkpt lat="25.436567" lon="100.375373">
<time>2016-04-06T13:37:27Z</time></trkpt>
<trkpt lat="25.436667" lon="100.375193">
<time>2016-04-06T13:37:28Z</time></trkpt>
<trkpt lat="25.436777" lon="100.375053">
<time>2016-04-06T13:37:29Z</time></trkpt>
<trkpt lat="25.436807" lon="100.375023">
<time>2016-04-06T13:37:30Z</time></trkpt>
<trkpt lat="25.436918" lon="100.374963">
<time>2016-04-06T13:37:31Z</time></trkpt>
<trkpt lat="25.437078" lon="100.374953">
<time>2016-04-06T13:37:32Z</time></trkpt>
<trkpt lat="25.437218" lon="100.375023">
<time>2016-04-06T13:37:33Z</time></trkpt>
<trkpt lat="25.437358" lon="100.375093">
<time>2016-04-06T13:37:34Z</time></trkpt>
<trkpt lat="25.437497" lon="100.375183">
<time>2016-04-06T13:37:35Z</time></trkpt>
<trkpt lat="25.437637" lon="100.375263">
<time>2016-04-06T13:37:36Z</time></trkpt>
<trkpt lat="25.437787" lon="100.375343">
<time>2016-04-06T13:37:37Z</time></trkpt>
<trkpt lat="25.437937" lon="100.375393">
<time>2016-04-06T13:37:38Z</time></trkpt>
<trkpt lat="25.438077" lon="100.375413">
<time>2016-04-06T13:37:39Z</time></trkpt>
<trkpt lat="25.438207" lon="100.375393">
<time>2016-04-06T13:37:40Z</time></trkpt>
<trkpt lat="25.438317" lon="100.375353">
<time>2016-04-06T13:37:41Z</time></trkpt>
<trkpt lat="25.438428" lon="100.375273">
<time>2016-04-06T13:37:42Z</time></trkpt>
<trkpt lat="25.438578" lon="100.375193">
<time>2016-04-06T13:37:43Z</time></trkpt>
<trkpt lat="25.438688" lon="100.375103">
<time>2016-04-06T13:37:44Z</time></trkpt>
<trkpt lat="25.438798" lon="100.375023">
<time>2016-04-06T13:37:45Z</time></trkpt>
<trkpt lat="25.438898" lon="100.374953">
<time>2016-04-06T13:37:46Z</time></trkpt>
<trkpt lat="25.438998" lon="100.374893">
<time>2016-04-06T13:37:47Z</time></trkpt>
<trkpt lat="25.439078" lon="100.374833">
<time>2016-04-06T13:37:48Z</time></trkpt>
<trkpt lat="25.439178" lon="100.374763">
<time>2016-04-06T13:37:49Z</time></trkpt>
<trkpt lat="25.439278" lon="100.374683">
<time>2016-04-06T13:37:50Z</time></trkpt>
<trkpt lat="25.439379" lon="100.374594">
<time>2016-04-06T13:37:51Z</time></trkpt>
<trkpt lat="25.439469" lon="100.374484">
<time>2016-04-06T13:37:52Z</time></trkpt>
<trkpt lat="25.439529" lon="100.374364">
<time>2016-04-06T13:37:53Z</time></trkpt>
<trkpt lat="25.439579" lon="100.374234">
<time>2016-04-06T13:37:54Z</time></trkpt>
<trkpt lat="25.439629" lon="100.374104">
<time>2016-04-06T13:37:55Z</time></trkpt>
<trkpt lat="25.439689" lon="100.373964">
<time>2016-04-06T13:37:56Z</time></trkpt>
<trkpt lat="25.439759" lon="100.373835">
<time>2016-04-06T13:37:57Z</time></trkpt>
<trkpt lat="25.43984" lon="100.373695">
<time>2016-04-06T13:37:58Z</time></trkpt>
<trkpt lat="25.43993" lon="100.373525">
<time>2016-04-06T13:37:59Z</time></trkpt>
<trkpt lat="25.44004" lon="100.373415">
<time>2016-04-06T13:38:00Z</time></trkpt>
<trkpt lat="25.44018" lon="100.373315">
<time>2016-04-06T13:38:01Z</time></trkpt>
<trkpt lat="25.44033" lon="100.373165">
<time>2016-04-06T13:38:02Z</time></trkpt>
<trkpt lat="25.44047" lon="100.373056">
<time>2016-04-06T13:38:03Z</time></trkpt>
<trkpt lat="25.440631" lon="100.372936">
<time>2016-04-06T13:38:04Z</time></trkpt>
<trkpt lat="25.440741" lon="100.372826">
<time>2016-04-06T13:38:05Z</time></trkpt>
<trkpt lat="25.440841" lon="100.372696">
<time>2016-04-06T13:38:06Z</time></trkpt>
<trkpt lat="25.440931" lon="100.372606">
<time>2016-04-06T13:38:07Z</time></trkpt>
<trkpt lat="25.441031" lon="100.372506">
<time>2016-04-06T13:38:08Z</time></trkpt>
<trkpt lat="25.441151" lon="100.372426">
<time>2016-04-06T13:38:09Z</time></trkpt>
<trkpt lat="25.441261" lon="100.372337">
<time>2016-04-06T13:38:10Z</time></trkpt>
<trkpt lat="25.441352" lon="100.372237">
<time>2016-04-06T13:38:11Z</time></trkpt>
<trkpt lat="25.441432" lon="100.372147">
<time>2016-04-06T13:38:12Z</time></trkpt>
<trkpt lat="25.441492" lon="100.372057">
<time>2016-04-06T13:38:13Z</time></trkpt>
<trkpt lat="25.441552" lon="100.371977">
<time>2016-04-06T13:38:14Z</time></trkpt>
<trkpt lat="25.441632" lon="100.371897">
<time>2016-04-06T13:38:15Z</time></trkpt>
<trkpt lat="25.441722" lon="100.371787">
<time>2016-04-06T13:38:16Z</time></trkpt>
<trkpt lat="25.441822" lon="100.371677">
<time>2016-04-06T13:38:17Z</time></trkpt>
<trkpt lat="25.441922" lon="100.371568">
<time>2016-04-06T13:38:18Z</time></trkpt>
<trkpt lat="25.441963" lon="100.371448">
<time>2016-04-06T13:38:19Z</time></trkpt>
<trkpt lat="25.441953" lon="100.371328">
<time>2016-04-06T13:38:20Z</time></trkpt>
<trkpt lat="25.441943" lon="100.371208">
<time>2016-04-06T13:38:21Z</time></trkpt>
<trkpt lat="25.441853" lon="100.371078">
<time>2016-04-06T13:38:22Z</time></trkpt>
<trkpt lat="25.441703" lon="100.371018">
<time>2016-04-06T13:38:23Z</time></trkpt>
<trkpt lat="25.441553" lon="100.371018">
<time>2016-04-06T13:38:24Z</time></trkpt>
<trkpt lat="25.441383" lon="100.371038">
<time>2016-04-06T13:38:25Z</time></trkpt>
<trkpt lat="25.441293" lon="100.371048">
<time>2016-04-06T13:38:26Z</time></trkpt>
<trkpt lat="25.441133" lon="100.371028">
<time>2016-04-06T13:38:27Z</time></trkpt>
<trkpt lat="25.440993" lon="100.371018">
<time>2016-04-06T13:38:28Z</time></trkpt>
<trkpt lat="25.440843" lon="100.371018">
<time>2016-04-06T13:38:29Z</time></trkpt>
<trkpt lat="25.440723" lon="100.371008">
<time>2016-04-06T13:38:30Z</time></trkpt>
<trkpt lat="25.440593" lon="100.371018">
<time>2016-04-06T13:38:31Z</time></trkpt>
<trkpt lat="25.440453" lon="100.370998">
<time>2016-04-06T13:38:32Z</time></trkpt>
<trkpt lat="25.440323" lon="100.370988">
<time>2016-04-06T13:38:33Z</time></trkpt>
<trkpt lat="25.440193" lon="100.370968">
<time>2016-04-06T13:38:34Z</time></trkpt>
<trkpt lat="25.440063" lon="100.370919">
<time>2016-04-06T13:38:35Z</time></trkpt>
<trkpt lat="25.439923" lon="100.370859">
<time>2016-04-06T13:38:36Z</time></trkpt>
<trkpt lat="25.439803" lon="100.370829">
<time>2016-04-06T13:38:37Z</time></trkpt>
<trkpt lat="25.439663" lon="100.370769">
<time>2016-04-06T13:38:38Z</time></trkpt>
<trkpt lat="25.439623" lon="100.370759">
<time>2016-04-06T13:38:39Z</time></trkpt>
<trkpt lat="25.439513" lon="100.370719">
<time>2016-04-06T13:38:40Z</time></trkpt>
<trkpt lat="25.439403" lon="100.370649">
<time>2016-04-06T13:38:41Z</time></trkpt>
<trkpt lat="25.439243" lon="100.370559">
<time>2016-04-06T13:38:42Z</time></trkpt>
<trkpt lat="25.439093" lon="100.370459">
<time>2016-04-06T13:38:43Z</time></trkpt>
<trkpt lat="25.438943" lon="100.370379">
<time>2016-04-06T13:38:44Z</time></trkpt>
<trkpt lat="25.438803" lon="100.370329">
<time>2016-04-06T13:38:45Z</time></trkpt>
<trkpt lat="25.438663" lon="100.37024">
<time>2016-04-06T13:38:46Z</time></trkpt>
<trkpt lat="25.438543" lon="100.37018">
<time>2016-04-06T13:38:47Z</time></trkpt>
<trkpt lat="25.438443" lon="100.37012">
<time>2016-04-06T13:38:48Z</time></trkpt>
<trkpt lat="25.438333" lon="100.37007">
<time>2016-04-06T13:38:49Z</time></trkpt>
<trkpt lat="25.438233" lon="100.37001">
<time>2016-04-06T13:38:50Z</time></trkpt>
<trkpt lat="25.438123" lon="100.36996">
<time>2016-04-06T13:38:51Z</time></trkpt>
<trkpt lat="25.438013" lon="100.36992">
<time>2016-04-06T13:38:52Z</time></trkpt>
<trkpt lat="25.437914" lon="100.36986">
<time>2016-04-06T13:38:53Z</time></trkpt>
<trkpt lat="25.437804" lon="100.36979">
<time>2016-04-06T13:38:54Z</time></trkpt>
<trkpt lat="25.437704" lon="100.36969">
<time>2016-04-06T13:38:55Z</time></trkpt>
<trkpt lat="25.437614" lon="100.369561">
<time>2016-04-06T13:38:56Z</time></trkpt>
<trkpt lat="25.437524" lon="100.369431">
<time>2016-04-06T13:38:57Z</time></trkpt>
<trkpt lat="25.437424" lon="100.369281">
<time>2016-04-06T13:38:58Z</time></trkpt>
<trkpt lat="25.437324" lon="100.369141">
<time>2016-04-06T13:38:59Z</time></trkpt>
<trkpt lat="25.437224" lon="100.369001">
<time>2016-04-06T13:39:00Z</time></trkpt>
<trkpt lat="25.437165" lon="100.368842">
<time>2016-04-06T13:39:01Z</time></trkpt>
<trkpt lat="25.437145" lon="100.368672">
<time>2016-04-06T13:39:02Z</time></trkpt>
<trkpt lat="25.437175" lon="100.368502">
<time>2016-04-06T13:39:03Z</time></trkpt>
<trkpt lat="25.437215" lon="100.368372">
<time>2016-04-06T13:39:04Z</time></trkpt>
<trkpt lat="25.437285" lon="100.368223">
<time>2016-04-06T13:39:05Z</time></trkpt>
<trkpt lat="25.437366" lon="100.368073">
<time>2016-04-06T13:39:06Z</time></trkpt>
<trkpt lat="25.437456" lon="100.367943">
<time>2016-04-06T13:39:07Z</time></trkpt>
<trkpt lat="25.437556" lon="100.367803">
<time>2016-04-06T13:39:08Z</time></trkpt>
<trkpt lat="25.437646" lon="100.367663">
<time>2016-04-06T13:39:09Z</time></trkpt>
<trkpt lat="25.437706" lon="100.367524">
<time>2016-04-06T13:39:10Z</time></trkpt>
<trkpt lat="25.437727" lon="100.367354">
<time>2016-04-06T13:39:11Z</time></trkpt>
<trkpt lat="25.437687" lon="100.367174">
<time>2016-04-06T13:39:12Z</time></trkpt>
<trkpt lat="25.437627" lon="100.367004">
<time>2016-04-06T13:39:13Z</time></trkpt>
<trkpt lat="25.437567" lon="100.366835">
<time>2016-04-06T13:39:14Z</time></trkpt>
<trkpt lat="25.437537" lon="100.366665">
<time>2016-04-06T13:39:15Z</time></trkpt>
<trkpt lat="25.437558" lon="100.366575">
<time>2016-04-06T13:39:16Z</time></trkpt>
<trkpt lat="25.437568" lon="100.366495">
<time>2016-04-06T13:39:17Z</time></trkpt>
<trkpt lat="25.437658" lon="100.366325">
<time>2016-04-06T13:39:18Z</time></trkpt>
<trkpt lat="25.437768" lon="100.366196">
<time>2016-04-06T13:39:19Z</time></trkpt>
<trkpt lat="25.437888" lon="100.366086">
<time>2016-04-06T13:39:20Z</time></trkpt>
<trkpt lat="25.438018" lon="100.365976">
<time>2016-04-06T13:39:21Z</time></trkpt>
<trkpt lat="25.438139" lon="100.365876">
<time>2016-04-06T13:39:22Z</time></trkpt>
<trkpt lat="25.438239" lon="100.365776">
<time>2016-04-06T13:39:23Z</time></trkpt>
<trkpt lat="25.438339" lon="100.365677">
<time>2016-04-06T13:39:24Z</time></trkpt>
<trkpt lat="25.438459" lon="100.365587">
<time>2016-04-06T13:39:25Z</time></trkpt>
<trkpt lat="25.438579" lon="100.365507">
<time>2016-04-06T13:39:26Z</time></trkpt>
<trkpt lat="25.438699" lon="100.365467">
<time>2016-04-06T13:39:27Z</time></trkpt>
<trkpt lat="25.438829" lon="100.365447">
<time>2016-04-06T13:39:28Z</time></trkpt>
<trkpt lat="25.438969" lon="100.365437">
<time>2016-04-06T13:39:29Z</time></trkpt>
<trkpt lat="25.439089" lon="100.365437">
<time>2016-04-06T13:39:30Z</time></trkpt>
<trkpt lat="25.439189" lon="100.365437">
<time>2016-04-06T13:39:31Z</time></trkpt>
<trkpt lat="25.43931" lon="100.365417">
<time>2016-04-06T13:39:32Z</time></trkpt>
<trkpt lat="25.43943" lon="100.365357">
<time>2016-04-06T13:39:33Z</time></trkpt>
<trkpt lat="25.43955" lon="100.365297">
<time>2016-04-06T13:39:34Z</time></trkpt>
<trkpt lat="25.43969" lon="100.365197">
<time>2016-04-06T13:39:35Z</time></trkpt>
<trkpt lat="25.43981" lon="100.365117">
<time>2016-04-06T13:39:36Z</time></trkpt>
<trkpt lat="25.43995" lon="100.365018">
<time>2016-04-06T13:39:37Z</time></trkpt>
<trkpt lat="25.44009" lon="100.364928">
<time>2016-04-06T13:39:38Z</time></trkpt>
<trkpt lat="25.440221" lon="100.364818">
<time>2016-04-06T13:39:39Z</time></trkpt>
<trkpt lat="25.440331" lon="100.364748">
<time>2016-04-06T13:39:40Z</time></trkpt>
<trkpt lat="25.440421" lon="100.364638">
<time>2016-04-06T13:39:41Z</time></trkpt>
<trkpt lat="25.440501" lon="100.364518">
<time>2016-04-06T13:39:42Z</time></trkpt>
<trkpt lat="25.440591" lon="100.364408">
<time>2016-04-06T13:39:43Z</time></trkpt>
<trkpt lat="25.440661" lon="100.364279">
<time>2016-04-06T13:39:44Z</time></trkpt>
<trkpt lat="25.440752" lon="100.364179">
<time>2016-04-06T13:39:45Z</time></trkpt>
<trkpt lat="25.440852" lon="100.364079">
<time>2016-04-06T13:39:46Z</time></trkpt>
<trkpt lat="25.440982" lon="100.364009">
<time>2016-04-06T13:39:47Z</time></trkpt>
<trkpt lat="25.441142" lon="100.363899">
<time>2016-04-06T13:39:48Z</time></trkpt>
<trkpt lat="25.441292" lon="100.363809">
<time>2016-04-06T13:39:49Z</time></trkpt>
<trkpt lat="25.441432" lon="100.36372">
<time>2016-04-06T13:39:50Z</time></trkpt>
<trkpt lat="25.441592" lon="100.36364">
<time>2016-04-06T13:39:51Z</time></trkpt>
<trkpt lat="25.441743" lon="100.36352">
<time>2016-04-06T13:39:52Z</time></trkpt>
<trkpt lat="25.441893" lon="100.36338">
<time>2016-04-06T13:39:53Z</time></trkpt>
<trkpt lat="25.442043" lon="100.36325">
<time>2016-04-06T13:39:54Z</time></trkpt>
<trkpt lat="25.442183" lon="100.363131">
<time>2016-04-06T13:39:55Z</time></trkpt>
<trkpt lat="25.442304" lon="100.362991">
<time>2016-04-06T13:39:56Z</time></trkpt>
<trkpt lat="25.442444" lon="100.362871">
<time>2016-04-06T13:39:57Z</time></trkpt>
<trkpt lat="25.442624" lon="100.362741">
<time>2016-04-06T13:39:58Z</time></trkpt>
<trkpt lat="25.442804" lon="100.362621">
<time>2016-04-06T13:39:59Z</time></trkpt>
<trkpt lat="25.442974" lon="100.362502">
<time>2016-04-06T13:40:00Z</time></trkpt>
<trkpt lat="25.443215" lon="100.362412">
<time>2016-04-06T13:40:01Z</time></trkpt>
<trkpt lat="25.443355" lon="100.362382">
<time>2016-04-06T13:40:02Z</time></trkpt>
<trkpt lat="25.443485" lon="100.362342">
<time>2016-04-06T13:40:03Z</time></trkpt>
<trkpt lat="25.443615" lon="100.362312">
<time>2016-04-06T13:40:04Z</time></trkpt>
<trkpt lat="25.443755" lon="100.362262">
<time>2016-04-06T13:40:05Z</time></trkpt>
<trkpt lat="25.443905" lon="100.362252">
<time>2016-04-06T13:40:06Z</time></trkpt>
<trkpt lat="25.444065" lon="100.362222">
<time>2016-04-06T13:40:07Z</time></trkpt>
<trkpt lat="25.444195" lon="100.362222">
<time>2016-04-06T13:40:08Z</time></trkpt>
<trkpt lat="25.444295" lon="100.362252">
<time>2016-04-06T13:40:09Z</time></trkpt>
<trkpt lat="25.444425" lon="100.362272">
<time>2016-04-06T13:40:10Z</time></trkpt>
<trkpt lat="25.444545" lon="100.362282">
<time>2016-04-06T13:40:11Z</time></trkpt>
<trkpt lat="25.444665" lon="100.362282">
<time>2016-04-06T13:40:12Z</time></trkpt>
<trkpt lat="25.444775" lon="100.362282">
<time>2016-04-06T13:40:13Z</time></trkpt>
<trkpt lat="25.444875" lon="100.362282">
<time>2016-04-06T13:40:14Z</time></trkpt>
<trkpt lat="25.445025" lon="100.362282">
<time>2016-04-06T13:40:15Z</time></trkpt>
<trkpt lat="25.445175" lon="100.362232">
<time>2016-04-06T13:40:16Z</time></trkpt>
<trkpt lat="25.445295" lon="100.362212">
<time>2016-04-06T13:40:17Z</time></trkpt>
<trkpt lat="25.445395" lon="100.362202">
<time>2016-04-06T13:40:18Z</time></trkpt>
<trkpt lat="25.445495" lon="100.362212">
<time>2016-04-06T13:40:19Z</time></trkpt>
<trkpt lat="25.445605" lon="100.362222">
<time>2016-04-06T13:40:20Z</time></trkpt>
<trkpt lat="25.445725" lon="100.362252">
<time>2016-04-06T13:40:21Z</time></trkpt>
<trkpt lat="25.445845" lon="100.362282">
<time>2016-04-06T13:40:22Z</time></trkpt>
<trkpt lat="25.445965" lon="100.362282">
<time>2016-04-06T13:40:23Z</time></trkpt>
<trkpt lat="25.446106" lon="100.362272">
<time>2016-04-06T13:40:24Z</time></trkpt>
<trkpt lat="25.446236" lon="100.362212">
<time>2016-04-06T13:40:25Z</time></trkpt>
<trkpt lat="25.446356" lon="100.362122">
<time>2016-04-06T13:40:26Z</time></trkpt>
<trkpt lat="25.446466" lon="100.362032">
<time>2016-04-06T13:40:27Z</time></trkpt>
<trkpt lat="25.446586" lon="100.361962">
<time>2016-04-06T13:40:28Z</time></trkpt>
<trkpt lat="25.446686" lon="100.361893">
<time>2016-04-06T13:40:29Z</time></trkpt>
<trkpt lat="25.446786" lon="100.361813">
<time>2016-04-06T13:40:30Z</time></trkpt>
<trkpt lat="25.446886" lon="100.361733">
<time>2016-04-06T13:40:31Z</time></trkpt>
<trkpt lat="25.446967" lon="100.361653">
<time>2016-04-06T13:40:32Z</time></trkpt>
<trkpt lat="25.447077" lon="100.361583">
<time>2016-04-06T13:40:33Z</time></trkpt>
<trkpt lat="25.447147" lon="100.361533">
<time>2016-04-06T13:40:34Z</time></trkpt>
<trkpt lat="25.447257" lon="100.361473">
<time>2016-04-06T13:40:35Z</time></trkpt>
<trkpt lat="25.447367" lon="100.361423">
<time>2016-04-06T13:40:36Z</time></trkpt>
<trkpt lat="25.447487" lon="100.361343">
<time>2016-04-06T13:40:37Z</time></trkpt>
<trkpt lat="25.447597" lon="100.361284">
<time>2016-04-06T13:40:38Z</time></trkpt>
<trkpt lat="25.447707" lon="100.361224">
<time>2016-04-06T13:40:39Z</time></trkpt>
<trkpt lat="25.447858" lon="100.361154">
<time>2016-04-06T13:40:40Z</time></trkpt>
<trkpt lat="25.447948" lon="100.361124">
<time>2016-04-06T13:40:41Z</time></trkpt>
<trkpt lat="25.448038" lon="100.361084">
<time>2016-04-06T13:40:42Z</time></trkpt>
<trkpt lat="25.448138" lon="100.361054">
<time>2016-04-06T13:40:43Z</time></trkpt>
<trkpt lat="25.448228" lon="100.361014">
<time>2016-04-06T13:40:44Z</time></trkpt>
<trkpt lat="25.448318" lon="100.360984">
<time>2016-04-06T13:40:45Z</time></trkpt>
<trkpt lat="25.448408" lon="100.360954">
<time>2016-04-06T13:40:46Z</time></trkpt>
<trkpt lat="25.448498" lon="100.360914">
<time>2016-04-06T13:40:47Z</time></trkpt>
<trkpt lat="25.448608" lon="100.360854">
<time>2016-04-06T13:40:48Z</time></trkpt>
<trkpt lat="25.448768" lon="100.360764">
<time>2016-04-06T13:40:49Z</time></trkpt>
<trkpt lat="25.448858" lon="100.360734">
<time>2016-04-06T13:40:50Z</time></trkpt>
<trkpt lat="25.449019" lon="100.360655">
<time>2016-04-06T13:40:51Z</time></trkpt>
<trkpt lat="25.449169" lon="100.360565">
<time>2016-04-06T13:40:52Z</time></trkpt>
<trkpt lat="25.449309" lon="100.360505">
<time>2016-04-06T13:40:53Z</time></trkpt>
<trkpt lat="25.449469" lon="100.360435">
<time>2016-04-06T13:40:54Z</time></trkpt>
<trkpt lat="25.449629" lon="100.360335">
<time>2016-04-06T13:40:55Z</time></trkpt>
<trkpt lat="25.449719" lon="100.360275">
<time>2016-04-06T13:40:56Z</time></trkpt>
<trkpt lat="25.449799" lon="100.360215">
<time>2016-04-06T13:40:57Z</time></trkpt>
<trkpt lat="25.44988" lon="100.360155">
<time>2016-04-06T13:40:58Z</time></trkpt>
<trkpt lat="25.45001" lon="100.360056">
<time>2016-04-06T13:40:59Z</time></trkpt>
<trkpt lat="25.45017" lon="100.359936">
<time>2016-04-06T13:41:00Z</time></trkpt>
<trkpt lat="25.45026" lon="100.359896">
<time>2016-04-06T13:41:01Z</time></trkpt>
<trkpt lat="25.45035" lon="100.359856">
<time>2016-04-06T13:41:02Z</time></trkpt>
<trkpt lat="25.45044" lon="100.359816">
<time>2016-04-06T13:41:03Z</time></trkpt>
<trkpt lat="25.45053" lon="100.359776">
<time>2016-04-06T13:41:04Z</time></trkpt>
<trkpt lat="25.45061" lon="100.359746">
<time>2016-04-06T13:41:05Z</time></trkpt>
<trkpt lat="25.4507" lon="100.359706">
<time>2016-04-06T13:41:06Z</time></trkpt>
<trkpt lat="25.450791" lon="100.359666">
<time>2016-04-06T13:41:07Z</time></trkpt>
<trkpt lat="25.450871" lon="100.359636">
<time>2016-04-06T13:41:08Z</time></trkpt>
<trkpt lat="25.451031" lon="100.359537">
<time>2016-04-06T13:41:09Z</time></trkpt>
<trkpt lat="25.451191" lon="100.359477">
<time>2016-04-06T13:41:10Z</time></trkpt>
<trkpt lat="25.451331" lon="100.359417">
<time>2016-04-06T13:41:11Z</time></trkpt>
<trkpt lat="25.451441" lon="100.359377">
<time>2016-04-06T13:41:12Z</time></trkpt>
<trkpt lat="25.451551" lon="100.359317">
<time>2016-04-06T13:41:13Z</time></trkpt>
<trkpt lat="25.451651" lon="100.359257">
<time>2016-04-06T13:41:14Z</time></trkpt>
<trkpt lat="25.451771" lon="100.359177">
<time>2016-04-06T13:41:15Z</time></trkpt>
<trkpt lat="25.451852" lon="100.359117">
<time>2016-04-06T13:41:16Z</time></trkpt>
<trkpt lat="25.451962" lon="100.359047">
<time>2016-04-06T13:41:17Z</time></trkpt>
<trkpt lat="25.452072" lon="100.358958">
<time>2016-04-06T13:41:18Z</time></trkpt>
<trkpt lat="25.452192" lon="100.358868">
<time>2016-04-06T13:41:19Z</time></trkpt>
<trkpt lat="25.452312" lon="100.358788">
<time>2016-04-06T13:41:20Z</time></trkpt>
<trkpt lat="25.452432" lon="100.358718">
<time>2016-04-06T13:41:21Z</time></trkpt>
<trkpt lat="25.452542" lon="100.358658">
<time>2016-04-06T13:41:22Z</time></trkpt>
<trkpt lat="25.452663" lon="100.358598">
<time>2016-04-06T13:41:23Z</time></trkpt>
<trkpt lat="25.452803" lon="100.358548">
<time>2016-04-06T13:41:24Z</time></trkpt>
<trkpt lat="25.452953" lon="100.358508">
<time>2016-04-06T13:41:25Z</time></trkpt>
<trkpt lat="25.453123" lon="100.358468">
<time>2016-04-06T13:41:26Z</time></trkpt>
<trkpt lat="25.453283" lon="100.358428">
<time>2016-04-06T13:41:27Z</time></trkpt>
<trkpt lat="25.453433" lon="100.358359">
<time>2016-04-06T13:41:28Z</time></trkpt>
<trkpt lat="25.453583" lon="100.358249">
<time>2016-04-06T13:41:29Z</time></trkpt>
<trkpt lat="25.453724" lon="100.358109">
<time>2016-04-06T13:41:30Z</time></trkpt>
<trkpt lat="25.453914" lon="100.357949">
<time>2016-04-06T13:41:31Z</time></trkpt>
<trkpt lat="25.454084" lon="100.35778">
<time>2016-04-06T13:41:32Z</time></trkpt>
<trkpt lat="25.454264" lon="100.35763">
<time>2016-04-06T13:41:33Z</time></trkpt>
<trkpt lat="25.454515" lon="100.3575">
<time>2016-04-06T13:41:34Z</time></trkpt>
<trkpt lat="25.454705" lon="100.3574">
<time>2016-04-06T13:41:35Z</time></trkpt>
<trkpt lat="25.454935" lon="100.35735">
<time>2016-04-06T13:41:36Z</time></trkpt>
<trkpt lat="25.455195" lon="100.357251">
<time>2016-04-06T13:41:37Z</time></trkpt>
<trkpt lat="25.455406" lon="100.357171">
<time>2016-04-06T13:41:38Z</time></trkpt>
<trkpt lat="25.455616" lon="100.357081">
<time>2016-04-06T13:41:39Z</time></trkpt>
<trkpt lat="25.455796" lon="100.356971">
<time>2016-04-06T13:41:40Z</time></trkpt>
<trkpt lat="25.455956" lon="100.356851">
<time>2016-04-06T13:41:41Z</time></trkpt>
<trkpt lat="25.456146" lon="100.356781">
<time>2016-04-06T13:41:42Z</time></trkpt>
<trkpt lat="25.456286" lon="100.356721">
<time>2016-04-06T13:41:43Z</time></trkpt>
<trkpt lat="25.456387" lon="100.356682">
<time>2016-04-06T13:41:44Z</time></trkpt>
<trkpt lat="25.456477" lon="100.356642">
<time>2016-04-06T13:41:45Z</time></trkpt>
<trkpt lat="25.456587" lon="100.356562">
<time>2016-04-06T13:41:46Z</time></trkpt>
<trkpt lat="25.456647" lon="100.356522">
<time>2016-04-06T13:41:47Z</time></trkpt>
<trkpt lat="25.456677" lon="100.356502">
<time>2016-04-06T13:41:48Z</time></trkpt>
<trkpt lat="25.456767" lon="100.356402">
<time>2016-04-06T13:41:49Z</time></trkpt>
<trkpt lat="25.456867" lon="100.356272">
<time>2016-04-06T13:41:50Z</time></trkpt>
<trkpt lat="25.456968" lon="100.356123">
<time>2016-04-06T13:41:51Z</time></trkpt>
<trkpt lat="25.457038" lon="100.355943">
<time>2016-04-06T13:41:52Z</time></trkpt>
<trkpt lat="25.457128" lon="100.355773">
<time>2016-04-06T13:41:53Z</time></trkpt>
<trkpt lat="25.457238" lon="100.355614">
<time>2016-04-06T13:41:54Z</time></trkpt>
<trkpt lat="25.457379" lon="100.355484">
<time>2016-04-06T13:41:55Z</time></trkpt>
<trkpt lat="25.457499" lon="100.355404">
<time>2016-04-06T13:41:56Z</time></trkpt>
<trkpt lat="25.457649" lon="100.355294">
<time>2016-04-06T13:41:57Z</time></trkpt>
<trkpt lat="25.457759" lon="100.355224">
<time>2016-04-06T13:41:58Z</time></trkpt>
<trkpt lat="25.457899" lon="100.355164">
<time>2016-04-06T13:41:59Z</time></trkpt>
<trkpt lat="25.458059" lon="100.355104">
<time>2016-04-06T13:42:00Z</time></trkpt>
<trkpt lat="25.45818" lon="100.355084">
<time>2016-04-06T13:42:01Z</time></trkpt>
<trkpt lat="25.45833" lon="100.355094">
<time>2016-04-06T13:42:02Z</time></trkpt>
<trkpt lat="25.45848" lon="100.355124">
<time>2016-04-06T13:42:03Z</time></trkpt>
<trkpt lat="25.45865" lon="100.355164">
<time>2016-04-06T13:42:04Z</time></trkpt>
<trkpt lat="25.45879" lon="100.355184">
<time>2016-04-06T13:42:05Z</time></trkpt>
<trkpt lat="25.45895" lon="100.355174">
<time>2016-04-06T13:42:06Z</time></trkpt>
<trkpt lat="25.45916" lon="100.355154">
<time>2016-04-06T13:42:07Z</time></trkpt>
<trkpt lat="25.45937" lon="100.355094">
<time>2016-04-06T13:42:08Z</time></trkpt>
<trkpt lat="25.45961" lon="100.354955">
<time>2016-04-06T13:42:09Z</time></trkpt>
<trkpt lat="25.45979" lon="100.354865">
<time>2016-04-06T13:42:10Z</time></trkpt>
<trkpt lat="25.45998" lon="100.354815">
<time>2016-04-06T13:42:11Z</time></trkpt>
<trkpt lat="25.46017" lon="100.354815">
<time>2016-04-06T13:42:12Z</time></trkpt>
<trkpt lat="25.460351" lon="100.354815">
<time>2016-04-06T13:42:13Z</time></trkpt>
<trkpt lat="25.460541" lon="100.354815">
<time>2016-04-06T13:42:14Z</time></trkpt>
<trkpt lat="25.460711" lon="100.354785">
<time>2016-04-06T13:42:15Z</time></trkpt>
<trkpt lat="25.460881" lon="100.354725">
<time>2016-04-06T13:42:16Z</time></trkpt>
<trkpt lat="25.461081" lon="100.354665">
<time>2016-04-06T13:42:17Z</time></trkpt>
<trkpt lat="25.461281" lon="100.354585">
<time>2016-04-06T13:42:18Z</time></trkpt>
<trkpt lat="25.461491" lon="100.354515">
<time>2016-04-06T13:42:19Z</time></trkpt>
<trkpt lat="25.461712" lon="100.354416">
<time>2016-04-06T13:42:20Z</time></trkpt>
<trkpt lat="25.461932" lon="100.354346">
<time>2016-04-06T13:42:21Z</time></trkpt>
<trkpt lat="25.462132" lon="100.354256">
<time>2016-04-06T13:42:22Z</time></trkpt>
<trkpt lat="25.462302" lon="100.354126">
<time>2016-04-06T13:42:23Z</time></trkpt>
<trkpt lat="25.462452" lon="100.353976">
<time>2016-04-06T13:42:24Z</time></trkpt>
<trkpt lat="25.462603" lon="100.353807">
<time>2016-04-06T13:42:25Z</time></trkpt>
<trkpt lat="25.462753" lon="100.353647">
<time>2016-04-06T13:42:26Z</time></trkpt>
<trkpt lat="25.462903" lon="100.353507">
<time>2016-04-06T13:42:27Z</time></trkpt>
<trkpt lat="25.463064" lon="100.353408">
<time>2016-04-06T13:42:28Z</time></trkpt>
<trkpt lat="25.463244" lon="100.353328">
<time>2016-04-06T13:42:29Z</time></trkpt>
<trkpt lat="25.463434" lon="100.353268">
<time>2016-04-06T13:42:30Z</time></trkpt>
<trkpt lat="25.463614" lon="100.353218">
<time>2016-04-06T13:42:31Z</time></trkpt>
<trkpt lat="25.463794" lon="100.353158">
<time>2016-04-06T13:42:32Z</time></trkpt>
<trkpt lat="25.463984" lon="100.353098">
<time>2016-04-06T13:42:33Z</time></trkpt>
<trkpt lat="25.464204" lon="100.353058">
<time>2016-04-06T13:42:34Z</time></trkpt>
<trkpt lat="25.464445" lon="100.353018">
<time>2016-04-06T13:42:35Z</time></trkpt>
<trkpt lat="25.464645" lon="100.353028">
<time>2016-04-06T13:42:36Z</time></trkpt>
<trkpt lat="25.464855" lon="100.353028">
<time>2016-04-06T13:42:37Z</time></trkpt>
<trkpt lat="25.465075" lon="100.353058">
<time>2016-04-06T13:42:38Z</time></trkpt>
<trkpt lat="25.465295" lon="100.353088">
<time>2016-04-06T13:42:39Z</time></trkpt>
<trkpt lat="25.465515" lon="100.353098">
<time>2016-04-06T13:42:40Z</time></trkpt>
<trkpt lat="25.465745" lon="100.353078">
<time>2016-04-06T13:42:41Z</time></trkpt>
<trkpt lat="25.465975" lon="100.353028">
<time>2016-04-06T13:42:42Z</time></trkpt>
<trkpt lat="25.466205" lon="100.352968">
<time>2016-04-06T13:42:43Z</time></trkpt>
<trkpt lat="25.466425" lon="100.352898">
<time>2016-04-06T13:42:44Z</time></trkpt>
<trkpt lat="25.466645" lon="100.352809">
<time>2016-04-06T13:42:45Z</time></trkpt>
<trkpt lat="25.466856" lon="100.352779">
<time>2016-04-06T13:42:46Z</time></trkpt>
<trkpt lat="25.467056" lon="100.352789">
<time>2016-04-06T13:42:47Z</time></trkpt>
<trkpt lat="25.467256" lon="100.352829">
<time>2016-04-06T13:42:48Z</time></trkpt>
<trkpt lat="25.467456" lon="100.352839">
<time>2016-04-06T13:42:49Z</time></trkpt>
<trkpt lat="25.467636" lon="100.352789">
<time>2016-04-06T13:42:50Z</time></trkpt>
<trkpt lat="25.467796" lon="100.352679">
<time>2016-04-06T13:42:51Z</time></trkpt>
<trkpt lat="25.467946" lon="100.352539">
<time>2016-04-06T13:42:52Z</time></trkpt>
<trkpt lat="25.468087" lon="100.352389">
<time>2016-04-06T13:42:53Z</time></trkpt>
<trkpt lat="25.468237" lon="100.35224">
<time>2016-04-06T13:42:54Z</time></trkpt>
<trkpt lat="25.468387" lon="100.35207">
<time>2016-04-06T13:42:55Z</time></trkpt>
<trkpt lat="25.468527" lon="100.35192">
<time>2016-04-06T13:42:56Z</time></trkpt>
<trkpt lat="25.468668" lon="100.351791">
<time>2016-04-06T13:42:57Z</time></trkpt>
<trkpt lat="25.468828" lon="100.351671">
<time>2016-04-06T13:42:58Z</time></trkpt>
<trkpt lat="25.468998" lon="100.351571">
<time>2016-04-06T13:42:59Z</time></trkpt>
<trkpt lat="25.469188" lon="100.351491">
<time>2016-04-06T13:43:00Z</time></trkpt>
<trkpt lat="25.469369" lon="100.351441">
<time>2016-04-06T13:43:01Z</time></trkpt>
<trkpt lat="25.469549" lon="100.351411">
<time>2016-04-06T13:43:02Z</time></trkpt>
<trkpt lat="25.469719" lon="100.351371">
<time>2016-04-06T13:43:03Z</time></trkpt>
<trkpt lat="25.469869" lon="100.351311">
<time>2016-04-06T13:43:04Z</time></trkpt>
<trkpt lat="25.470009" lon="100.351252">
<time>2016-04-06T13:43:05Z</time></trkpt>
<trkpt lat="25.470149" lon="100.351182">
<time>2016-04-06T13:43:06Z</time></trkpt>
<trkpt lat="25.470299" lon="100.351112">
<time>2016-04-06T13:43:07Z</time></trkpt>
<trkpt lat="25.47045" lon="100.351012">
<time>2016-04-06T13:43:08Z</time></trkpt>
<trkpt lat="25.4706" lon="100.350872">
<time>2016-04-06T13:43:09Z</time></trkpt>
<trkpt lat="25.47075" lon="100.350723">
<time>2016-04-06T13:43:10Z</time></trkpt>
<trkpt lat="25.4709" lon="100.350553">
<time>2016-04-06T13:43:11Z</time></trkpt>
<trkpt lat="25.471061" lon="100.350373">
<time>2016-04-06T13:43:12Z</time></trkpt>
<trkpt lat="25.471231" lon="100.350214">
<time>2016-04-06T13:43:13Z</time></trkpt>
<trkpt lat="25.471411" lon="100.350044">
<time>2016-04-06T13:43:14Z</time></trkpt>
<trkpt lat="25.471582" lon="100.349884">
<time>2016-04-06T13:43:15Z</time></trkpt>
<trkpt lat="25.471762" lon="100.349744">
<time>2016-04-06T13:43:16Z</time></trkpt>
<trkpt lat="25.471922" lon="100.349625">
<time>2016-04-06T13:43:17Z</time></trkpt>
<trkpt lat="25.472063" lon="100.349475">
<time>2016-04-06T13:43:18Z</time></trkpt>
<trkpt lat="25.472173" lon="100.349305">
<time>2016-04-06T13:43:19Z</time></trkpt>
<trkpt lat="25.472253" lon="100.349106">
<time>2016-04-06T13:43:20Z</time></trkpt>
<trkpt lat="25.472314" lon="100.348916">
<time>2016-04-06T13:43:21Z</time></trkpt>
<trkpt lat="25.472364" lon="100.348717">
<time>2016-04-06T13:43:22Z</time></trkpt>
<trkpt lat="25.472414" lon="100.348507">
<time>2016-04-06T13:43:23Z</time></trkpt>
<trkpt lat="25.472445" lon="100.348297">
<time>2016-04-06T13:43:24Z</time></trkpt>
<trkpt lat="25.472455" lon="100.348068">
<time>2016-04-06T13:43:25Z</time></trkpt>
<trkpt lat="25.472486" lon="100.347858">
<time>2016-04-06T13:43:26Z</time></trkpt>
<trkpt lat="25.472546" lon="100.347659">
<time>2016-04-06T13:43:27Z</time></trkpt>
<trkpt lat="25.472646" lon="100.347499">
<time>2016-04-06T13:43:28Z</time></trkpt>
<trkpt lat="25.472786" lon="100.347349">
<time>2016-04-06T13:43:29Z</time></trkpt>
<trkpt lat="25.472947" lon="100.34721">
<time>2016-04-06T13:43:30Z</time></trkpt>
<trkpt lat="25.473107" lon="100.34708">
<time>2016-04-06T13:43:31Z</time></trkpt>
<trkpt lat="25.473247" lon="100.34697">
<time>2016-04-06T13:43:32Z</time></trkpt>
<trkpt lat="25.473387" lon="100.34687">
<time>2016-04-06T13:43:33Z</time></trkpt>
<trkpt lat="25.473558" lon="100.34679">
<time>2016-04-06T13:43:34Z</time></trkpt>
<trkpt lat="25.473738" lon="100.346721">
<time>2016-04-06T13:43:35Z</time></trkpt>
<trkpt lat="25.473918" lon="100.346651">
<time>2016-04-06T13:43:36Z</time></trkpt>
<trkpt lat="25.474078" lon="100.346581">
<time>2016-04-06T13:43:37Z</time></trkpt>
<trkpt lat="25.474208" lon="100.346491">
<time>2016-04-06T13:43:38Z</time></trkpt>
<trkpt lat="25.474279" lon="100.346351">
<time>2016-04-06T13:43:39Z</time></trkpt>
<trkpt lat="25.474299" lon="100.346182">
<time>2016-04-06T13:43:40Z</time></trkpt>
<trkpt lat="25.474299" lon="100.345992">
<time>2016-04-06T13:43:41Z</time></trkpt>
<trkpt lat="25.47432" lon="100.345792">
<time>2016-04-06T13:43:42Z</time></trkpt>
<trkpt lat="25.47435" lon="100.345583">
<time>2016-04-06T13:43:43Z</time></trkpt>
<trkpt lat="25.4744" lon="100.345383">
<time>2016-04-06T13:43:44Z</time></trkpt>
<trkpt lat="25.474441" lon="100.345164">
<time>2016-04-06T13:43:45Z</time></trkpt>
<trkpt lat="25.474511" lon="100.344934">
<time>2016-04-06T13:43:46Z</time></trkpt>
<trkpt lat="25.474572" lon="100.344725">
<time>2016-04-06T13:43:47Z</time></trkpt>
<trkpt lat="25.474642" lon="100.344525">
<time>2016-04-06T13:43:48Z</time></trkpt>
<trkpt lat="25.474762" lon="100.344355">
<time>2016-04-06T13:43:49Z</time></trkpt>
<trkpt lat="25.474893" lon="100.344236">
<time>2016-04-06T13:43:50Z</time></trkpt>
<trkpt lat="25.475013" lon="100.344136">
<time>2016-04-06T13:43:51Z</time></trkpt>
<trkpt lat="25.475123" lon="100.344066">
<time>2016-04-06T13:43:52Z</time></trkpt>
<trkpt lat="25.475283" lon="100.343996">
<time>2016-04-06T13:43:53Z</time></trkpt>
<trkpt lat="25.475413" lon="100.343946">
<time>2016-04-06T13:43:54Z</time></trkpt>
<trkpt lat="25.475553" lon="100.343896">
<time>2016-04-06T13:43:55Z</time></trkpt>
<trkpt lat="25.475694" lon="100.343797">
<time>2016-04-06T13:43:56Z</time></trkpt>
<trkpt lat="25.475844" lon="100.343727">
<time>2016-04-06T13:43:57Z</time></trkpt>
<trkpt lat="25.476004" lon="100.343647">
<time>2016-04-06T13:43:58Z</time></trkpt>
<trkpt lat="25.476134" lon="100.343547">
<time>2016-04-06T13:43:59Z</time></trkpt>
<trkpt lat="25.476294" lon="100.343437">
<time>2016-04-06T13:44:00Z</time></trkpt>
<trkpt lat="25.476445" lon="100.343347">
<time>2016-04-06T13:44:01Z</time></trkpt>
<trkpt lat="25.476585" lon="100.343268">
<time>2016-04-06T13:44:02Z</time></trkpt>
<trkpt lat="25.476715" lon="100.343218">
<time>2016-04-06T13:44:03Z</time></trkpt>
<trkpt lat="25.476825" lon="100.343178">
<time>2016-04-06T13:44:04Z</time></trkpt>
<trkpt lat="25.476935" lon="100.343148">
<time>2016-04-06T13:44:05Z</time></trkpt>
<trkpt lat="25.477045" lon="100.343128">
<time>2016-04-06T13:44:06Z</time></trkpt>
<trkpt lat="25.477195" lon="100.343118">
<time>2016-04-06T13:44:07Z</time></trkpt>
<trkpt lat="25.477365" lon="100.343098">
<time>2016-04-06T13:44:08Z</time></trkpt>
<trkpt lat="25.477545" lon="100.343088">
<time>2016-04-06T13:44:09Z</time></trkpt>
<trkpt lat="25.477715" lon="100.343078">
<time>2016-04-06T13:44:10Z</time></trkpt>
<trkpt lat="25.477896" lon="100.343068">
<time>2016-04-06T13:44:11Z</time></trkpt>
<trkpt lat="25.478046" lon="100.343058">
<time>2016-04-06T13:44:12Z</time></trkpt>
<trkpt lat="25.478236" lon="100.342988">
<time>2016-04-06T13:44:13Z</time></trkpt>
<trkpt lat="25.478356" lon="100.342858">
<time>2016-04-06T13:44:14Z</time></trkpt>
<trkpt lat="25.478396" lon="100.342729">
<time>2016-04-06T13:44:15Z</time></trkpt>
<trkpt lat="25.478457" lon="100.342559">
<time>2016-04-06T13:44:16Z</time></trkpt>
<trkpt lat="25.478477" lon="100.342349">
<time>2016-04-06T13:44:17Z</time></trkpt>
<trkpt lat="25.478497" lon="100.34219">
<time>2016-04-06T13:44:18Z</time></trkpt>
<trkpt lat="25.478508" lon="100.34203">
<time>2016-04-06T13:44:19Z</time></trkpt>
<trkpt lat="25.478548" lon="100.341871">
<time>2016-04-06T13:44:20Z</time></trkpt>
<trkpt lat="25.478608" lon="100.341721">
<time>2016-04-06T13:44:21Z</time></trkpt>
<trkpt lat="25.478678" lon="100.341591">
<time>2016-04-06T13:44:22Z</time></trkpt>
<trkpt lat="25.478769" lon="100.341461">
<time>2016-04-06T13:44:23Z</time></trkpt>
<trkpt lat="25.478949" lon="100.341292">
<time>2016-04-06T13:44:24Z</time></trkpt>
<trkpt lat="25.479079" lon="100.341172">
<time>2016-04-06T13:44:25Z</time></trkpt>
<trkpt lat="25.47922" lon="100.341042">
<time>2016-04-06T13:44:26Z</time></trkpt>
<trkpt lat="25.4793" lon="100.340972">
<time>2016-04-06T13:44:27Z</time></trkpt>
<trkpt lat="25.47944" lon="100.340843">
<time>2016-04-06T13:44:28Z</time></trkpt>
<trkpt lat="25.47958" lon="100.340743">
<time>2016-04-06T13:44:29Z</time></trkpt>
<trkpt lat="25.47968" lon="100.340673">
<time>2016-04-06T13:44:30Z</time></trkpt>
<trkpt lat="25.479761" lon="100.340613">
<time>2016-04-06T13:44:31Z</time></trkpt>
<trkpt lat="25.479841" lon="100.340533">
<time>2016-04-06T13:44:32Z</time></trkpt>
<trkpt lat="25.479921" lon="100.340453">
<time>2016-04-06T13:44:33Z</time></trkpt>
<trkpt lat="25.480011" lon="100.340384">
<time>2016-04-06T13:44:34Z</time></trkpt>
<trkpt lat="25.480111" lon="100.340324">
<time>2016-04-06T13:44:35Z</time></trkpt>
<trkpt lat="25.480241" lon="100.340264">
<time>2016-04-06T13:44:36Z</time></trkpt>
<trkpt lat="25.480371" lon="100.340234">
<time>2016-04-06T13:44:37Z</time></trkpt>
<trkpt lat="25.480512" lon="100.340224">
<time>2016-04-06T13:44:38Z</time></trkpt>
<trkpt lat="25.480642" lon="100.340234">
<time>2016-04-06T13:44:39Z</time></trkpt>
<trkpt lat="25.480752" lon="100.340254">
<time>2016-04-06T13:44:40Z</time></trkpt>
<trkpt lat="25.480932" lon="100.340284">
<time>2016-04-06T13:44:41Z</time></trkpt>
<trkpt lat="25.481082" lon="100.340284">
<time>2016-04-06T13:44:42Z</time></trkpt>
<trkpt lat="25.481242" lon="100.340274">
<time>2016-04-06T13:44:43Z</time></trkpt>
<trkpt lat="25.481392" lon="100.340274">
<time>2016-04-06T13:44:44Z</time></trkpt>
<trkpt lat="25.481572" lon="100.340264">
<time>2016-04-06T13:44:45Z</time></trkpt>
<trkpt lat="25.481732" lon="100.340264">
<time>2016-04-06T13:44:46Z</time></trkpt>
<trkpt lat="25.481892" lon="100.340254">
<time>2016-04-06T13:44:47Z</time></trkpt>
<trkpt lat="25.482052" lon="100.340234">
<time>2016-04-06T13:44:48Z</time></trkpt>
<trkpt lat="25.482212" lon="100.340204">
<time>2016-04-06T13:44:49Z</time></trkpt>
<trkpt lat="25.482362" lon="100.340144">
<time>2016-04-06T13:44:50Z</time></trkpt>
<trkpt lat="25.482492" lon="100.340064">
<time>2016-04-06T13:44:51Z</time></trkpt>
<trkpt lat="25.482613" lon="100.339935">
<time>2016-04-06T13:44:52Z</time></trkpt>
<trkpt lat="25.482743" lon="100.339815">
<time>2016-04-06T13:44:53Z</time></trkpt>
<trkpt lat="25.482873" lon="100.339685">
<time>2016-04-06T13:44:54Z</time></trkpt>
<trkpt lat="25.483013" lon="100.339555">
<time>2016-04-06T13:44:55Z</time></trkpt>
<trkpt lat="25.483154" lon="100.339406">
<time>2016-04-06T13:44:56Z</time></trkpt>
<trkpt lat="25.483304" lon="100.339266">
<time>2016-04-06T13:44:57Z</time></trkpt>
<trkpt lat="25.483444" lon="100.339136">
<time>2016-04-06T13:44:58Z</time></trkpt>
<trkpt lat="25.483605" lon="100.339026">
<time>2016-04-06T13:44:59Z</time></trkpt>
<trkpt lat="25.483785" lon="100.338947">
<time>2016-04-06T13:45:00Z</time></trkpt>
<trkpt lat="25.483965" lon="100.338907">
<time>2016-04-06T13:45:01Z</time></trkpt>
<trkpt lat="25.484135" lon="100.338867">
<time>2016-04-06T13:45:02Z</time></trkpt>
<trkpt lat="25.484295" lon="100.338837">
<time>2016-04-06T13:45:03Z</time></trkpt>
<trkpt lat="25.484455" lon="100.338807">
<time>2016-04-06T13:45:04Z</time></trkpt>
<trkpt lat="25.484595" lon="100.338777">
<time>2016-04-06T13:45:05Z</time></trkpt>
<trkpt lat="25.484736" lon="100.338737">
<time>2016-04-06T13:45:06Z</time></trkpt>
<trkpt lat="25.484866" lon="100.338707">
<time>2016-04-06T13:45:07Z</time></trkpt>
<trkpt lat="25.484986" lon="100.338677">
<time>2016-04-06T13:45:08Z</time></trkpt>
<trkpt lat="25.485096" lon="100.338667">
<time>2016-04-06T13:45:09Z</time></trkpt>
<trkpt lat="25.485186" lon="100.338627">
<time>2016-04-06T13:45:10Z</time></trkpt>
<trkpt lat="25.485266" lon="100.338567">
<time>2016-04-06T13:45:11Z</time></trkpt>
<trkpt lat="25.485326" lon="100.338458">
<time>2016-04-06T13:45:12Z</time></trkpt>
<trkpt lat="25.485356" lon="100.338338">
<time>2016-04-06T13:45:13Z</time></trkpt>
<trkpt lat="25.485357" lon="100.338208">
<time>2016-04-06T13:45:14Z</time></trkpt>
<trkpt lat="25.485347" lon="100.338058">
<time>2016-04-06T13:45:15Z</time></trkpt>
<trkpt lat="25.485327" lon="100.337899">
<time>2016-04-06T13:45:16Z</time></trkpt>
<trkpt lat="25.485318" lon="100.337739">
<time>2016-04-06T13:45:17Z</time></trkpt>
<trkpt lat="25.485298" lon="100.337589">
<time>2016-04-06T13:45:18Z</time></trkpt>
<trkpt lat="25.485278" lon="100.33744">
<time>2016-04-06T13:45:19Z</time></trkpt>
<trkpt lat="25.485258" lon="100.33728">
<time>2016-04-06T13:45:20Z</time></trkpt>
<trkpt lat="25.485269" lon="100.337111">
<time>2016-04-06T13:45:21Z</time></trkpt>
<trkpt lat="25.485259" lon="100.336941">
<time>2016-04-06T13:45:22Z</time></trkpt>
<trkpt lat="25.485239" lon="100.336761">
<time>2016-04-06T13:45:23Z</time></trkpt>
<trkpt lat="25.48523" lon="100.336582">
<time>2016-04-06T13:45:24Z</time></trkpt>
<trkpt lat="25.48522" lon="100.336412">
<time>2016-04-06T13:45:25Z</time></trkpt>
<trkpt lat="25.48525" lon="100.336272">
<time>2016-04-06T13:45:26Z</time></trkpt>
<trkpt lat="25.485331" lon="100.336163">
<time>2016-04-06T13:45:27Z</time></trkpt>
<trkpt lat="25.485461" lon="100.336053">
<time>2016-04-06T13:45:28Z</time></trkpt>
<trkpt lat="25.485591" lon="100.335963">
<time>2016-04-06T13:45:29Z</time></trkpt>
<trkpt lat="25.485721" lon="100.335933">
<time>2016-04-06T13:45:30Z</time></trkpt>
<trkpt lat="25.485861" lon="100.335943">
<time>2016-04-06T13:45:31Z</time></trkpt>
<trkpt lat="25.486021" lon="100.335953">
<time>2016-04-06T13:45:32Z</time></trkpt>
<trkpt lat="25.486161" lon="100.335983">
<time>2016-04-06T13:45:33Z</time></trkpt>
<trkpt lat="25.486301" lon="100.335973">
<time>2016-04-06T13:45:34Z</time></trkpt>
<trkpt lat="25.486461" lon="100.335943">
<time>2016-04-06T13:45:35Z</time></trkpt>
<trkpt lat="25.486641" lon="100.335903">
<time>2016-04-06T13:45:36Z</time></trkpt>
<trkpt lat="25.486792" lon="100.335853">
<time>2016-04-06T13:45:37Z</time></trkpt>
<trkpt lat="25.486982" lon="100.335803">
<time>2016-04-06T13:45:38Z</time></trkpt>
<trkpt lat="25.487132" lon="100.335753">
<time>2016-04-06T13:45:39Z</time></trkpt>
<trkpt lat="25.487252" lon="100.335694">
<time>2016-04-06T13:45:40Z</time></trkpt>
<trkpt lat="25.487352" lon="100.335604">
<time>2016-04-06T13:45:41Z</time></trkpt>
<trkpt lat="25.487442" lon="100.335474">
<time>2016-04-06T13:45:42Z</time></trkpt>
<trkpt lat="25.487543" lon="100.335384">
<time>2016-04-06T13:45:43Z</time></trkpt>
<trkpt lat="25.487683" lon="100.335284">
<time>2016-04-06T13:45:44Z</time></trkpt>
<trkpt lat="25.487823" lon="100.335215">
<time>2016-04-06T13:45:45Z</time></trkpt>
<trkpt lat="25.488013" lon="100.335175">
<time>2016-04-06T13:45:46Z</time></trkpt>
<trkpt lat="25.488133" lon="100.335205">
<time>2016-04-06T13:45:47Z</time></trkpt>
<trkpt lat="25.488253" lon="100.335274">
<time>2016-04-06T13:45:48Z</time></trkpt>
<trkpt lat="25.488313" lon="100.335344">
<time>2016-04-06T13:45:49Z</time></trkpt>
<trkpt lat="25.488373" lon="100.335504">
<time>2016-04-06T13:45:50Z</time></trkpt>
<trkpt lat="25.488412" lon="100.335664">
<time>2016-04-06T13:45:51Z</time></trkpt>
<trkpt lat="25.488492" lon="100.335833">
<time>2016-04-06T13:45:52Z</time></trkpt>
<trkpt lat="25.488562" lon="100.335923">
<time>2016-04-06T13:45:53Z</time></trkpt>
<trkpt lat="25.488632" lon="100.336013">
<time>2016-04-06T13:45:54Z</time></trkpt>
<trkpt lat="25.488732" lon="100.336083">
<time>2016-04-06T13:45:55Z</time></trkpt>
<trkpt lat="25.488842" lon="100.336133">
<time>2016-04-06T13:45:56Z</time></trkpt>
<trkpt lat="25.488952" lon="100.336143">
<time>2016-04-06T13:45:57Z</time></trkpt>
<trkpt lat="25.489052" lon="100.336113">
<time>2016-04-06T13:45:58Z</time></trkpt>
<trkpt lat="25.489162" lon="100.336063">
<time>2016-04-06T13:45:59Z</time></trkpt>
<trkpt lat="25.489272" lon="100.336003">
<time>2016-04-06T13:46:00Z</time></trkpt>
<trkpt lat="25.489402" lon="100.335913">
<time>2016-04-06T13:46:01Z</time></trkpt>
<trkpt lat="25.489532" lon="100.335843">
<time>2016-04-06T13:46:02Z</time></trkpt>
<trkpt lat="25.489673" lon="100.335753">
<time>2016-04-06T13:46:03Z</time></trkpt>
<trkpt lat="25.489803" lon="100.335644">
<time>2016-04-06T13:46:04Z</time></trkpt>
<trkpt lat="25.489933" lon="100.335504">
<time>2016-04-06T13:46:05Z</time></trkpt>
<trkpt lat="25.490053" lon="100.335374">
<time>2016-04-06T13:46:06Z</time></trkpt>
<trkpt lat="25.490154" lon="100.335234">
<time>2016-04-06T13:46:07Z</time></trkpt>
<trkpt lat="25.490264" lon="100.335085">
<time>2016-04-06T13:46:08Z</time></trkpt>
<trkpt lat="25.490374" lon="100.334955">
<time>2016-04-06T13:46:09Z</time></trkpt>
<trkpt lat="25.490475" lon="100.334825">
<time>2016-04-06T13:46:10Z</time></trkpt>
<trkpt lat="25.490545" lon="100.334686">
<time>2016-04-06T13:46:11Z</time></trkpt>
<trkpt lat="25.490575" lon="100.334526">
<time>2016-04-06T13:46:12Z</time></trkpt>
<trkpt lat="25.490576" lon="100.334346">
<time>2016-04-06T13:46:13Z</time></trkpt>
<trkpt lat="25.490576" lon="100.334207">
<time>2016-04-06T13:46:14Z</time></trkpt>
<trkpt lat="25.490596" lon="100.334037">
<time>2016-04-06T13:46:15Z</time></trkpt>
<trkpt lat="25.490646" lon="100.333887">
<time>2016-04-06T13:46:16Z</time></trkpt>
<trkpt lat="25.490707" lon="100.333718">
<time>2016-04-06T13:46:17Z</time></trkpt>
<trkpt lat="25.490797" lon="100.333578">
<time>2016-04-06T13:46:18Z</time></trkpt>
<trkpt lat="25.490917" lon="100.333458">
<time>2016-04-06T13:46:19Z</time></trkpt>
<trkpt lat="25.491048" lon="100.333329">
<time>2016-04-06T13:46:20Z</time></trkpt>
<trkpt lat="25.491188" lon="100.333229">
<time>2016-04-06T13:46:21Z</time></trkpt>
<trkpt lat="25.491308" lon="100.333079">
<time>2016-04-06T13:46:22Z</time></trkpt>
<trkpt lat="25.491408" lon="100.33291">
<time>2016-04-06T13:46:23Z</time></trkpt>
<trkpt lat="25.491519" lon="100.3328">
<time>2016-04-06T13:46:24Z</time></trkpt>
<trkpt lat="25.491659" lon="100.33269">
<time>2016-04-06T13:46:25Z</time></trkpt>
<trkpt lat="25.491769" lon="100.3326">
<time>2016-04-06T13:46:26Z</time></trkpt>
<trkpt lat="25.491909" lon="100.3325">
<time>2016-04-06T13:46:27Z</time></trkpt>
<trkpt lat="25.49205" lon="100.332411">
<time>2016-04-06T13:46:28Z</time></trkpt>
<trkpt lat="25.49219" lon="100.332321">
<time>2016-04-06T13:46:29Z</time></trkpt>
<trkpt lat="25.49232" lon="100.332231">
<time>2016-04-06T13:46:30Z</time></trkpt>
<trkpt lat="25.49242" lon="100.332131">
<time>2016-04-06T13:46:31Z</time></trkpt>
<trkpt lat="25.492511" lon="100.332021">
<time>2016-04-06T13:46:32Z</time></trkpt>
<trkpt lat="25.492591" lon="100.331912">
<time>2016-04-06T13:46:33Z</time></trkpt>
<trkpt lat="25.492681" lon="100.331832">
<time>2016-04-06T13:46:34Z</time></trkpt>
<trkpt lat="25.492771" lon="100.331772">
<time>2016-04-06T13:46:35Z</time></trkpt>
<trkpt lat="25.492881" lon="100.331742">
<time>2016-04-06T13:46:36Z</time></trkpt>
<trkpt lat="25.492991" lon="100.331732">
<time>2016-04-06T13:46:37Z</time></trkpt>
<trkpt lat="25.493111" lon="100.331752">
<time>2016-04-06T13:46:38Z</time></trkpt>
<trkpt lat="25.493241" lon="100.331772">
<time>2016-04-06T13:46:39Z</time></trkpt>
<trkpt lat="25.493371" lon="100.331762">
<time>2016-04-06T13:46:40Z</time></trkpt>
<trkpt lat="25.493491" lon="100.331682">
<time>2016-04-06T13:46:41Z</time></trkpt>
<trkpt lat="25.493602" lon="100.331582">
<time>2016-04-06T13:46:42Z</time></trkpt>
<trkpt lat="25.493692" lon="100.331413">
<time>2016-04-06T13:46:43Z</time></trkpt>
<trkpt lat="25.493782" lon="100.331253">
<time>2016-04-06T13:46:44Z</time></trkpt>
<trkpt lat="25.493873" lon="100.331073">
<time>2016-04-06T13:46:45Z</time></trkpt>
<trkpt lat="25.493973" lon="100.330914">
<time>2016-04-06T13:46:46Z</time></trkpt>
<trkpt lat="25.494083" lon="100.330774">
<time>2016-04-06T13:46:47Z</time></trkpt>
<trkpt lat="25.494214" lon="100.330654">
<time>2016-04-06T13:46:48Z</time></trkpt>
<trkpt lat="25.494344" lon="100.330545">
<time>2016-04-06T13:46:49Z</time></trkpt>
<trkpt lat="25.494474" lon="100.330445">
<time>2016-04-06T13:46:50Z</time></trkpt>
<trkpt lat="25.494614" lon="100.330355">
<time>2016-04-06T13:46:51Z</time></trkpt>
<trkpt lat="25.494725" lon="100.330255">
<time>2016-04-06T13:46:52Z</time></trkpt>
<trkpt lat="25.494815" lon="100.330155">
<time>2016-04-06T13:46:53Z</time></trkpt>
<trkpt lat="25.494885" lon="100.330046">
<time>2016-04-06T13:46:54Z</time></trkpt>
<trkpt lat="25.494925" lon="100.329936">
<time>2016-04-06T13:46:55Z</time></trkpt>
<trkpt lat="25.494955" lon="100.329826">
<time>2016-04-06T13:46:56Z</time></trkpt>
<trkpt lat="25.495006" lon="100.329726">
<time>2016-04-06T13:46:57Z</time></trkpt>
<trkpt lat="25.495066" lon="100.329627">
<time>2016-04-06T13:46:58Z</time></trkpt>
<trkpt lat="25.495146" lon="100.329527">
<time>2016-04-06T13:46:59Z</time></trkpt>
<trkpt lat="25.495236" lon="100.329437">
<time>2016-04-06T13:47:00Z</time></trkpt>
<trkpt lat="25.495327" lon="100.329327">
<time>2016-04-06T13:47:01Z</time></trkpt>
<trkpt lat="25.495397" lon="100.329218">
<time>2016-04-06T13:47:02Z</time></trkpt>
<trkpt lat="25.495417" lon="100.329088">
<time>2016-04-06T13:47:03Z</time></trkpt>
<trkpt lat="25.495387" lon="100.328958">
<time>2016-04-06T13:47:04Z</time></trkpt>
<trkpt lat="25.495317" lon="100.328848">
<time>2016-04-06T13:47:05Z</time></trkpt>
<trkpt lat="25.495218" lon="100.328729">
<time>2016-04-06T13:47:06Z</time></trkpt>
<trkpt lat="25.495108" lon="100.328629">
<time>2016-04-06T13:47:07Z</time></trkpt>
<trkpt lat="25.494998" lon="100.328529">
<time>2016-04-06T13:47:08Z</time></trkpt>
<trkpt lat="25.494908" lon="100.328439">
<time>2016-04-06T13:47:09Z</time></trkpt>
<trkpt lat="25.494828" lon="100.328359">
<time>2016-04-06T13:47:10Z</time></trkpt>
<trkpt lat="25.494768" lon="100.32827">
<time>2016-04-06T13:47:11Z</time></trkpt>
<trkpt lat="25.494729" lon="100.32816">
<time>2016-04-06T13:47:12Z</time></trkpt>
<trkpt lat="25.494709" lon="100.32802">
<time>2016-04-06T13:47:13Z</time></trkpt>
<trkpt lat="25.494719" lon="100.32791">
<time>2016-04-06T13:47:14Z</time></trkpt>
<trkpt lat="25.494769" lon="100.327801">
<time>2016-04-06T13:47:15Z</time></trkpt>
<trkpt lat="25.494809" lon="100.327711">
<time>2016-04-06T13:47:16Z</time></trkpt>
<trkpt lat="25.49489" lon="100.327591">
<time>2016-04-06T13:47:17Z</time></trkpt>
<trkpt lat="25.49496" lon="100.327531">
<time>2016-04-06T13:47:18Z</time></trkpt>
<trkpt lat="25.49505" lon="100.327461">
<time>2016-04-06T13:47:19Z</time></trkpt>
<trkpt lat="25.49515" lon="100.327411">
<time>2016-04-06T13:47:20Z</time></trkpt>
<trkpt lat="25.49524" lon="100.327362">
<time>2016-04-06T13:47:21Z</time></trkpt>
<trkpt lat="25.49533" lon="100.327332">
<time>2016-04-06T13:47:22Z</time></trkpt>
<trkpt lat="25.49543" lon="100.327282">
<time>2016-04-06T13:47:23Z</time></trkpt>
<trkpt lat="25.49554" lon="100.327292">
<time>2016-04-06T13:47:24Z</time></trkpt>
<trkpt lat="25.49564" lon="100.327312">
<time>2016-04-06T13:47:25Z</time></trkpt>
<trkpt lat="25.49572" lon="100.327401">
<time>2016-04-06T13:47:26Z</time></trkpt>
<trkpt lat="25.49582" lon="100.327531">
<time>2016-04-06T13:47:27Z</time></trkpt>
<trkpt lat="25.49594" lon="100.327641">
<time>2016-04-06T13:47:28Z</time></trkpt>
<trkpt lat="25.49605" lon="100.327771">
<time>2016-04-06T13:47:29Z</time></trkpt>
<trkpt lat="25.49616" lon="100.32789">
<time>2016-04-06T13:47:30Z</time></trkpt>
<trkpt lat="25.496269" lon="100.32797">
<time>2016-04-06T13:47:31Z</time></trkpt>
<trkpt lat="25.496439" lon="100.32797">
<time>2016-04-06T13:47:32Z</time></trkpt>
<trkpt lat="25.4966" lon="100.32791">
<time>2016-04-06T13:47:33Z</time></trkpt>
<trkpt lat="25.49674" lon="100.327831">
<time>2016-04-06T13:47:34Z</time></trkpt>
<trkpt lat="25.49685" lon="100.327721">
<time>2016-04-06T13:47:35Z</time></trkpt>
<trkpt lat="25.49697" lon="100.327591">
<time>2016-04-06T13:47:36Z</time></trkpt>
<trkpt lat="25.497081" lon="100.327501">
<time>2016-04-06T13:47:37Z</time></trkpt>
<trkpt lat="25.497191" lon="100.327431">
<time>2016-04-06T13:47:38Z</time></trkpt>
<trkpt lat="25.497301" lon="100.327372">
<time>2016-04-06T13:47:39Z</time></trkpt>
<trkpt lat="25.497451" lon="100.327312">
<time>2016-04-06T13:47:40Z</time></trkpt>
<trkpt lat="25.497601" lon="100.327262">
<time>2016-04-06T13:47:41Z</time></trkpt>
<trkpt lat="25.497771" lon="100.327212">
<time>2016-04-06T13:47:42Z</time></trkpt>
<trkpt lat="25.497941" lon="100.327172">
<time>2016-04-06T13:47:43Z</time></trkpt>
<trkpt lat="25.498112" lon="100.327132">
<time>2016-04-06T13:47:44Z</time></trkpt>
<trkpt lat="25.498302" lon="100.327092">
<time>2016-04-06T13:47:45Z</time></trkpt>
<trkpt lat="25.498442" lon="100.327042">
<time>2016-04-06T13:47:46Z</time></trkpt>
<trkpt lat="25.498632" lon="100.327002">
<time>2016-04-06T13:47:47Z</time></trkpt>
<trkpt lat="25.498772" lon="100.326962">
<time>2016-04-06T13:47:48Z</time></trkpt>
<trkpt lat="25.498902" lon="100.326942">
<time>2016-04-06T13:47:49Z</time></trkpt>
<trkpt lat="25.499032" lon="100.326912">
<time>2016-04-06T13:47:50Z</time></trkpt>
<trkpt lat="25.499152" lon="100.326912">
<time>2016-04-06T13:47:51Z</time></trkpt>
<trkpt lat="25.499292" lon="100.326912">
<time>2016-04-06T13:47:52Z</time></trkpt>
<trkpt lat="25.499442" lon="100.326912">
<time>2016-04-06T13:47:53Z</time></trkpt>
<trkpt lat="25.499532" lon="100.326912">
<time>2016-04-06T13:47:54Z</time></trkpt>
<trkpt lat="25.499632" lon="100.326922">
<time>2016-04-06T13:47:55Z</time></trkpt>
<trkpt lat="25.499742" lon="100.326922">
<time>2016-04-06T13:47:56Z</time></trkpt>
<trkpt lat="25.499853" lon="100.326932">
<time>2016-04-06T13:47:57Z</time></trkpt>
<trkpt lat="25.499953" lon="100.326942">
<time>2016-04-06T13:47:58Z</time></trkpt>
<trkpt lat="25.500013" lon="100.326942">
<time>2016-04-06T13:47:59Z</time></trkpt>
<trkpt lat="25.500063" lon="100.326942">
<time>2016-04-06T13:48:00Z</time></trkpt>
<trkpt lat="25.500213" lon="100.326932">
<time>2016-04-06T13:48:01Z</time></trkpt>
<trkpt lat="25.500333" lon="100.326942">
<time>2016-04-06T13:48:02Z</time></trkpt>
<trkpt lat="25.500463" lon="100.326942">
<time>2016-04-06T13:48:03Z</time></trkpt>
<trkpt lat="25.500603" lon="100.326942">
<time>2016-04-06T13:48:04Z</time></trkpt>
<trkpt lat="25.500743" lon="100.326942">
<time>2016-04-06T13:48:05Z</time></trkpt>
<trkpt lat="25.500883" lon="100.326952">
<time>2016-04-06T13:48:06Z</time></trkpt>
<trkpt lat="25.501023" lon="100.326982">
<time>2016-04-06T13:48:07Z</time></trkpt>
<trkpt lat="25.501143" lon="100.326972">
<time>2016-04-06T13:48:08Z</time></trkpt>
<trkpt lat="25.501283" lon="100.326972">
<time>2016-04-06T13:48:09Z</time></trkpt>
<trkpt lat="25.501413" lon="100.326982">
<time>2016-04-06T13:48:10Z</time></trkpt>
<trkpt lat="25.501553" lon="100.326992">
<time>2016-04-06T13:48:11Z</time></trkpt>
<trkpt lat="25.501703" lon="100.326992">
<time>2016-04-06T13:48:12Z</time></trkpt>
<trkpt lat="25.501853" lon="100.326992">
<time>2016-04-06T13:48:13Z</time></trkpt>
<trkpt lat="25.501973" lon="100.327022">
<time>2016-04-06T13:48:14Z</time></trkpt>
<trkpt lat="25.502093" lon="100.327022">
<time>2016-04-06T13:48:15Z</time></trkpt>
<trkpt lat="25.502193" lon="100.327022">
<time>2016-04-06T13:48:16Z</time></trkpt>
<trkpt lat="25.502333" lon="100.327032">
<time>2016-04-06T13:48:17Z</time></trkpt>
<trkpt lat="25.502463" lon="100.327052">
<time>2016-04-06T13:48:18Z</time></trkpt>
<trkpt lat="25.502593" lon="100.327072">
<time>2016-04-06T13:48:19Z</time></trkpt>
<trkpt lat="25.502723" lon="100.327082">
<time>2016-04-06T13:48:20Z</time></trkpt>
<trkpt lat="25.502853" lon="100.327082">
<time>2016-04-06T13:48:21Z</time></trkpt>
<trkpt lat="25.502963" lon="100.327072">
<time>2016-04-06T13:48:22Z</time></trkpt>
<trkpt lat="25.503073" lon="100.327052">
<time>2016-04-06T13:48:23Z</time></trkpt>
<trkpt lat="25.503173" lon="100.327032">
<time>2016-04-06T13:48:24Z</time></trkpt>
<trkpt lat="25.503283" lon="100.327012">
<time>2016-04-06T13:48:25Z</time></trkpt>
<trkpt lat="25.503404" lon="100.326972">
<time>2016-04-06T13:48:26Z</time></trkpt>
<trkpt lat="25.503544" lon="100.326942">
<time>2016-04-06T13:48:27Z</time></trkpt>
<trkpt lat="25.503694" lon="100.326922">
<time>2016-04-06T13:48:28Z</time></trkpt>
<trkpt lat="25.503844" lon="100.326912">
<time>2016-04-06T13:48:29Z</time></trkpt>
<trkpt lat="25.503984" lon="100.326922">
<time>2016-04-06T13:48:30Z</time></trkpt>
<trkpt lat="25.504124" lon="100.326952">
<time>2016-04-06T13:48:31Z</time></trkpt>
<trkpt lat="25.504274" lon="100.326982">
<time>2016-04-06T13:48:32Z</time></trkpt>
<trkpt lat="25.504424" lon="100.327022">
<time>2016-04-06T13:48:33Z</time></trkpt>
<trkpt lat="25.504554" lon="100.327052">
<time>2016-04-06T13:48:34Z</time></trkpt>
<trkpt lat="25.504684" lon="100.327092">
<time>2016-04-06T13:48:35Z</time></trkpt>
<trkpt lat="25.504814" lon="100.327112">
<time>2016-04-06T13:48:36Z</time></trkpt>
<trkpt lat="25.504934" lon="100.327152">
<time>2016-04-06T13:48:37Z</time></trkpt>
<trkpt lat="25.505044" lon="100.327172">
<time>2016-04-06T13:48:38Z</time></trkpt>
<trkpt lat="25.505154" lon="100.327182">
<time>2016-04-06T13:48:39Z</time></trkpt>
<trkpt lat="25.505314" lon="100.327212">
<time>2016-04-06T13:48:40Z</time></trkpt>
<trkpt lat="25.505464" lon="100.327242">
<time>2016-04-06T13:48:41Z</time></trkpt>
<trkpt lat="25.505624" lon="100.327272">
<time>2016-04-06T13:48:42Z</time></trkpt>
<trkpt lat="25.505804" lon="100.327311">
<time>2016-04-06T13:48:43Z</time></trkpt>
<trkpt lat="25.505894" lon="100.327321">
<time>2016-04-06T13:48:44Z</time></trkpt>
<trkpt lat="25.505994" lon="100.327341">
<time>2016-04-06T13:48:45Z</time></trkpt>
<trkpt lat="25.506094" lon="100.327351">
<time>2016-04-06T13:48:46Z</time></trkpt>
<trkpt lat="25.506204" lon="100.327371">
<time>2016-04-06T13:48:47Z</time></trkpt>
<trkpt lat="25.506314" lon="100.327401">
<time>2016-04-06T13:48:48Z</time></trkpt>
<trkpt lat="25.506424" lon="100.327411">
<time>2016-04-06T13:48:49Z</time></trkpt>
<trkpt lat="25.506554" lon="100.327441">
<time>2016-04-06T13:48:50Z</time></trkpt>
<trkpt lat="25.506684" lon="100.327451">
<time>2016-04-06T13:48:51Z</time></trkpt>
<trkpt lat="25.506804" lon="100.327461">
<time>2016-04-06T13:48:52Z</time></trkpt>
<trkpt lat="25.506924" lon="100.327471">
<time>2016-04-06T13:48:53Z</time></trkpt>
<trkpt lat="25.507044" lon="100.327471">
<time>2016-04-06T13:48:54Z</time></trkpt>
<trkpt lat="25.507154" lon="100.327501">
<time>2016-04-06T13:48:55Z</time></trkpt>
<trkpt lat="25.507274" lon="100.327531">
<time>2016-04-06T13:48:56Z</time></trkpt>
<trkpt lat="25.507394" lon="100.327561">
<time>2016-04-06T13:48:57Z</time></trkpt>
<trkpt lat="25.507524" lon="100.327581">
<time>2016-04-06T13:48:58Z</time></trkpt>
<trkpt lat="25.507664" lon="100.327611">
<time>2016-04-06T13:48:59Z</time></trkpt>
<trkpt lat="25.507774" lon="100.327641">
<time>2016-04-06T13:49:00Z</time></trkpt>
<trkpt lat="25.507864" lon="100.327671">
<time>2016-04-06T13:49:01Z</time></trkpt>
<trkpt lat="25.507954" lon="100.327691">
<time>2016-04-06T13:49:02Z</time></trkpt>
<trkpt lat="25.508044" lon="100.327711">
<time>2016-04-06T13:49:03Z</time></trkpt>
<trkpt lat="25.508144" lon="100.32772">
<time>2016-04-06T13:49:04Z</time></trkpt>
<trkpt lat="25.508244" lon="100.32773">
<time>2016-04-06T13:49:05Z</time></trkpt>
<trkpt lat="25.508344" lon="100.32776">
<time>2016-04-06T13:49:06Z</time></trkpt>
<trkpt lat="25.508444" lon="100.32778">
<time>2016-04-06T13:49:07Z</time></trkpt>
<trkpt lat="25.508624" lon="100.32783">
<time>2016-04-06T13:49:08Z</time></trkpt>
<trkpt lat="25.508724" lon="100.32785">
<time>2016-04-06T13:49:09Z</time></trkpt>
<trkpt lat="25.508834" lon="100.32788">
<time>2016-04-06T13:49:10Z</time></trkpt>
<trkpt lat="25.508954" lon="100.32792">
<time>2016-04-06T13:49:11Z</time></trkpt>
<trkpt lat="25.509084" lon="100.32796">
<time>2016-04-06T13:49:12Z</time></trkpt>
<trkpt lat="25.509163" lon="100.328">
<time>2016-04-06T13:49:13Z</time></trkpt>
<trkpt lat="25.509263" lon="100.32804">
<time>2016-04-06T13:49:14Z</time></trkpt>
<trkpt lat="25.509363" lon="100.3281">
<time>2016-04-06T13:49:15Z</time></trkpt>
<trkpt lat="25.509493" lon="100.328159">
<time>2016-04-06T13:49:16Z</time></trkpt>
<trkpt lat="25.509643" lon="100.328229">
<time>2016-04-06T13:49:17Z</time></trkpt>
<trkpt lat="25.509773" lon="100.328319">
<time>2016-04-06T13:49:18Z</time></trkpt>
<trkpt lat="25.509953" lon="100.328389">
<time>2016-04-06T13:49:19Z</time></trkpt>
<trkpt lat="25.510143" lon="100.328479">
<time>2016-04-06T13:49:20Z</time></trkpt>
<trkpt lat="25.510343" lon="100.328569">
<time>2016-04-06T13:49:21Z</time></trkpt>
<trkpt lat="25.510563" lon="100.328658">
<time>2016-04-06T13:49:22Z</time></trkpt>
<trkpt lat="25.510793" lon="100.328758">
<time>2016-04-06T13:49:23Z</time></trkpt>
<trkpt lat="25.511032" lon="100.328848">
<time>2016-04-06T13:49:24Z</time></trkpt>
<trkpt lat="25.511232" lon="100.328938">
<time>2016-04-06T13:49:25Z</time></trkpt>
<trkpt lat="25.511472" lon="100.329008">
<time>2016-04-06T13:49:26Z</time></trkpt>
<trkpt lat="25.511672" lon="100.329097">
<time>2016-04-06T13:49:27Z</time></trkpt>
<trkpt lat="25.511852" lon="100.329167">
<time>2016-04-06T13:49:28Z</time></trkpt>
<trkpt lat="25.512022" lon="100.329227">
<time>2016-04-06T13:49:29Z</time></trkpt>
<trkpt lat="25.512172" lon="100.329317">
<time>2016-04-06T13:49:30Z</time></trkpt>
<trkpt lat="25.512342" lon="100.329357">
<time>2016-04-06T13:49:31Z</time></trkpt>
<trkpt lat="25.512502" lon="100.329367">
<time>2016-04-06T13:49:32Z</time></trkpt>
<trkpt lat="25.512702" lon="100.329347">
<time>2016-04-06T13:49:33Z</time></trkpt>
<trkpt lat="25.512932" lon="100.329317">
<time>2016-04-06T13:49:34Z</time></trkpt>
<trkpt lat="25.513222" lon="100.329287">
<time>2016-04-06T13:49:35Z</time></trkpt>
<trkpt lat="25.513452" lon="100.329287">
<time>2016-04-06T13:49:36Z</time></trkpt>
<trkpt lat="25.513703" lon="100.329277">
<time>2016-04-06T13:49:37Z</time></trkpt>
<trkpt lat="25.513933" lon="100.329267">
<time>2016-04-06T13:49:38Z</time></trkpt>
<trkpt lat="25.514223" lon="100.329267">
<time>2016-04-06T13:49:39Z</time></trkpt>
<trkpt lat="25.514473" lon="100.329257">
<time>2016-04-06T13:49:40Z</time></trkpt>
<trkpt lat="25.514713" lon="100.329247">
<time>2016-04-06T13:49:41Z</time></trkpt>
<trkpt lat="25.514903" lon="100.329237">
<time>2016-04-06T13:49:42Z</time></trkpt>
<trkpt lat="25.514953" lon="100.329237">
<time>2016-04-06T13:49:43Z</time></trkpt>
<trkpt lat="25.515193" lon="100.329227">
<time>2016-04-06T13:49:44Z</time></trkpt>
<trkpt lat="25.515423" lon="100.329207">
<time>2016-04-06T13:49:45Z</time></trkpt>
<trkpt lat="25.515663" lon="100.329127">
<time>2016-04-06T13:49:46Z</time></trkpt>
<trkpt lat="25.515914" lon="100.329037">
<time>2016-04-06T13:49:47Z</time></trkpt>
<trkpt lat="25.516184" lon="100.328928">
<time>2016-04-06T13:49:48Z</time></trkpt>
<trkpt lat="25.516464" lon="100.328828">
<time>2016-04-06T13:49:49Z</time></trkpt>
<trkpt lat="25.516755" lon="100.328718">
<time>2016-04-06T13:49:50Z</time></trkpt>
<trkpt lat="25.517055" lon="100.328608">
<time>2016-04-06T13:49:51Z</time></trkpt>
<trkpt lat="25.517355" lon="100.328499">
<time>2016-04-06T13:49:52Z</time></trkpt>
<trkpt lat="25.517646" lon="100.328389">
<time>2016-04-06T13:49:53Z</time></trkpt>
<trkpt lat="25.517926" lon="100.328279">
<time>2016-04-06T13:49:54Z</time></trkpt>
<trkpt lat="25.518186" lon="100.328139">
<time>2016-04-06T13:49:55Z</time></trkpt>
<trkpt lat="25.518427" lon="100.32799">
<time>2016-04-06T13:49:56Z</time></trkpt>
<trkpt lat="25.518627" lon="100.32783">
<time>2016-04-06T13:49:57Z</time></trkpt>
<trkpt lat="25.518827" lon="100.32764">
<time>2016-04-06T13:49:58Z</time></trkpt>
<trkpt lat="25.519058" lon="100.327451">
<time>2016-04-06T13:49:59Z</time></trkpt>
<trkpt lat="25.519288" lon="100.327281">
<time>2016-04-06T13:50:00Z</time></trkpt>
<trkpt lat="25.519539" lon="100.327161">
<time>2016-04-06T13:50:01Z</time></trkpt>
<trkpt lat="25.519819" lon="100.327112">
<time>2016-04-06T13:50:02Z</time></trkpt>
<trkpt lat="25.520099" lon="100.327082">
<time>2016-04-06T13:50:03Z</time></trkpt>
<trkpt lat="25.520379" lon="100.327072">
<time>2016-04-06T13:50:04Z</time></trkpt>
<trkpt lat="25.520659" lon="100.327062">
<time>2016-04-06T13:50:05Z</time></trkpt>
<trkpt lat="25.520939" lon="100.327052">
<time>2016-04-06T13:50:06Z</time></trkpt>
<trkpt lat="25.521219" lon="100.327042">
<time>2016-04-06T13:50:07Z</time></trkpt>
<trkpt lat="25.521499" lon="100.327022">
<time>2016-04-06T13:50:08Z</time></trkpt>
<trkpt lat="25.52178" lon="100.327002">
<time>2016-04-06T13:50:09Z</time></trkpt>
<trkpt lat="25.52195" lon="100.326982">
<time>2016-04-06T13:50:10Z</time></trkpt>
<trkpt lat="25.52215" lon="100.326952">
<time>2016-04-06T13:50:11Z</time></trkpt>
<trkpt lat="25.52231" lon="100.326912">
<time>2016-04-06T13:50:12Z</time></trkpt>
<trkpt lat="25.52249" lon="100.326852">
<time>2016-04-06T13:50:13Z</time></trkpt>
<trkpt lat="25.52275" lon="100.326772">
<time>2016-04-06T13:50:14Z</time></trkpt>
<trkpt lat="25.523011" lon="100.326702">
<time>2016-04-06T13:50:15Z</time></trkpt>
<trkpt lat="25.523261" lon="100.326623">
<time>2016-04-06T13:50:16Z</time></trkpt>
<trkpt lat="25.523491" lon="100.326533">
<time>2016-04-06T13:50:17Z</time></trkpt>
<trkpt lat="25.523721" lon="100.326453">
<time>2016-04-06T13:50:18Z</time></trkpt>
<trkpt lat="25.523932" lon="100.326373">
<time>2016-04-06T13:50:19Z</time></trkpt>
<trkpt lat="25.524152" lon="100.326273">
<time>2016-04-06T13:50:20Z</time></trkpt>
<trkpt lat="25.524362" lon="100.326203">
<time>2016-04-06T13:50:21Z</time></trkpt>
<trkpt lat="25.524632" lon="100.326114">
<time>2016-04-06T13:50:22Z</time></trkpt>
<trkpt lat="25.524872" lon="100.326044">
<time>2016-04-06T13:50:23Z</time></trkpt>
<trkpt lat="25.525103" lon="100.325984">
<time>2016-04-06T13:50:24Z</time></trkpt>
<trkpt lat="25.525363" lon="100.325904">
<time>2016-04-06T13:50:25Z</time></trkpt>
<trkpt lat="25.525623" lon="100.325864">
<time>2016-04-06T13:50:26Z</time></trkpt>
<trkpt lat="25.525843" lon="100.325864">
<time>2016-04-06T13:50:27Z</time></trkpt>
<trkpt lat="25.526053" lon="100.325904">
<time>2016-04-06T13:50:28Z</time></trkpt>
<trkpt lat="25.526273" lon="100.325944">
<time>2016-04-06T13:50:29Z</time></trkpt>
<trkpt lat="25.526523" lon="100.326004">
<time>2016-04-06T13:50:30Z</time></trkpt>
<trkpt lat="25.526953" lon="100.326124">
<time>2016-04-06T13:50:31Z</time></trkpt>
<trkpt lat="25.527893" lon="100.326303">
<time>2016-04-06T13:50:32Z</time></trkpt>
<trkpt lat="25.528563" lon="100.326423">
<time>2016-04-06T13:50:33Z</time></trkpt>
<trkpt lat="25.529743" lon="100.326602">
<time>2016-04-06T13:50:34Z</time></trkpt>
<trkpt lat="25.530233" lon="100.326712">
<time>2016-04-06T13:50:35Z</time></trkpt>
<trkpt lat="25.530943" lon="100.326872">
<time>2016-04-06T13:50:36Z</time></trkpt>
<trkpt lat="25.531063" lon="100.326922">
<time>2016-04-06T13:50:37Z</time></trkpt>
<trkpt lat="25.531623" lon="100.327021">
<time>2016-04-06T13:50:38Z</time></trkpt>
<trkpt lat="25.532173" lon="100.327101">
<time>2016-04-06T13:50:39Z</time></trkpt>
<trkpt lat="25.532313" lon="100.327121">
<time>2016-04-06T13:50:40Z</time></trkpt>
<trkpt lat="25.532753" lon="100.327191">
<time>2016-04-06T13:50:41Z</time></trkpt>
<trkpt lat="25.532963" lon="100.327231">
<time>2016-04-06T13:50:42Z</time></trkpt>
<trkpt lat="25.533043" lon="100.327251">
<time>2016-04-06T13:50:43Z</time></trkpt>
<trkpt lat="25.533403" lon="100.327301">
<time>2016-04-06T13:50:44Z</time></trkpt>
<trkpt lat="25.533793" lon="100.327371">
<time>2016-04-06T13:50:45Z</time></trkpt>
<trkpt lat="25.533953" lon="100.327391">
<time>2016-04-06T13:50:46Z</time></trkpt>
<trkpt lat="25.534213" lon="100.32744">
<time>2016-04-06T13:50:47Z</time></trkpt>
<trkpt lat="25.534393" lon="100.32747">
<time>2016-04-06T13:50:48Z</time></trkpt>
<trkpt lat="25.534763" lon="100.32753">
<time>2016-04-06T13:50:49Z</time></trkpt>
<trkpt lat="25.535223" lon="100.3276">
<time>2016-04-06T13:50:50Z</time></trkpt>
<trkpt lat="25.535473" lon="100.32765">
<time>2016-04-06T13:50:51Z</time></trkpt>
<trkpt lat="25.535473" lon="100.32765">
<time>2016-04-06T13:50:52Z</time></trkpt>
<trkpt lat="25.535503" lon="100.32767">
<time>2016-04-06T13:50:53Z</time></trkpt>
<trkpt lat="25.535513" lon="100.32767">
<time>2016-04-06T13:50:54Z</time></trkpt>
<trkpt lat="25.535563" lon="100.32768">
<time>2016-04-06T13:50:55Z</time></trkpt>
<trkpt lat="25.535683" lon="100.32771">
<time>2016-04-06T13:50:56Z</time></trkpt>
<trkpt lat="25.535843" lon="100.32774">
<time>2016-04-06T13:50:57Z</time></trkpt>
<trkpt lat="25.535983" lon="100.32779">
<time>2016-04-06T13:50:58Z</time></trkpt>
<trkpt lat="25.536123" lon="100.327849">
<time>2016-04-06T13:50:59Z</time></trkpt>
<trkpt lat="25.536323" lon="100.327929">
<time>2016-04-06T13:51:00Z</time></trkpt>
<trkpt lat="25.536453" lon="100.327979">
<time>2016-04-06T13:51:01Z</time></trkpt>
<trkpt lat="25.536503" lon="100.328059">
<time>2016-04-06T13:51:02Z</time></trkpt>
<trkpt lat="25.536863" lon="100.328199">
<time>2016-04-06T13:51:03Z</time></trkpt>
<trkpt lat="25.537292" lon="100.328348">
<time>2016-04-06T13:51:04Z</time></trkpt>
<trkpt lat="25.537742" lon="100.328478">
<time>2016-04-06T13:51:05Z</time></trkpt>
<trkpt lat="25.537962" lon="100.328538">
<time>2016-04-06T13:51:06Z</time></trkpt>
<trkpt lat="25.538052" lon="100.328558">
<time>2016-04-06T13:51:07Z</time></trkpt>
<trkpt lat="25.538772" lon="100.328727">
<time>2016-04-06T13:51:08Z</time></trkpt>
<trkpt lat="25.538812" lon="100.328737">
<time>2016-04-06T13:51:09Z</time></trkpt>
<trkpt lat="25.540362" lon="100.329027">
<time>2016-04-06T13:51:10Z</time></trkpt>
<trkpt lat="25.542882" lon="100.329426">
<time>2016-04-06T13:51:11Z</time></trkpt>
<trkpt lat="25.543443" lon="100.329516">
<time>2016-04-06T13:51:12Z</time></trkpt>
<trkpt lat="25.545393" lon="100.329815">
<time>2016-04-06T13:51:13Z</time></trkpt>
<trkpt lat="25.545543" lon="100.329835">
<time>2016-04-06T13:51:14Z</time></trkpt>
<trkpt lat="25.545753" lon="100.329865">
<time>2016-04-06T13:51:15Z</time></trkpt>
<trkpt lat="25.550574" lon="100.330394">
<time>2016-04-06T13:51:16Z</time></trkpt>
<trkpt lat="25.551994" lon="100.330553">
<time>2016-04-06T13:51:17Z</time></trkpt>
<trkpt lat="25.552514" lon="100.330613">
<time>2016-04-06T13:51:18Z</time></trkpt>
<trkpt lat="25.552984" lon="100.330563">
<time>2016-04-06T13:51:19Z</time></trkpt>
<trkpt lat="25.553304" lon="100.330443">
<time>2016-04-06T13:51:20Z</time></trkpt>
<trkpt lat="25.553855" lon="100.330194">
<time>2016-04-06T13:51:21Z</time></trkpt>
<trkpt lat="25.554015" lon="100.330114">
<time>2016-04-06T13:51:22Z</time></trkpt>
<trkpt lat="25.554025" lon="100.330114">
<time>2016-04-06T13:51:23Z</time></trkpt>
<trkpt lat="25.556619" lon="100.328907">
<time>2016-04-06T13:51:24Z</time></trkpt>
<trkpt lat="25.558181" lon="100.328188">
<time>2016-04-06T13:51:25Z</time></trkpt>
<trkpt lat="25.559192" lon="100.327679">
<time>2016-04-06T13:51:26Z</time></trkpt>
<trkpt lat="25.562276" lon="100.326153">
<time>2016-04-06T13:51:27Z</time></trkpt>
<trkpt lat="25.563187" lon="100.325704">
<time>2016-04-06T13:51:28Z</time></trkpt>
<trkpt lat="25.564028" lon="100.325294">
<time>2016-04-06T13:51:29Z</time></trkpt>
<trkpt lat="25.56502" lon="100.324795">
<time>2016-04-06T13:51:30Z</time></trkpt>
<trkpt lat="25.565721" lon="100.324426">
<time>2016-04-06T13:51:31Z</time></trkpt>
<trkpt lat="25.566201" lon="100.324177">
<time>2016-04-06T13:51:32Z</time></trkpt>
<trkpt lat="25.566432" lon="100.324067">
<time>2016-04-06T13:51:33Z</time></trkpt>
<trkpt lat="25.566492" lon="100.324037">
<time>2016-04-06T13:51:34Z</time></trkpt>
<trkpt lat="25.566592" lon="100.323997">
<time>2016-04-06T13:51:35Z</time></trkpt>
<trkpt lat="25.567293" lon="100.323658">
<time>2016-04-06T13:51:36Z</time></trkpt>
<trkpt lat="25.568495" lon="100.322999">
<time>2016-04-06T13:51:37Z</time></trkpt>
<trkpt lat="25.569406" lon="100.32255">
<time>2016-04-06T13:51:38Z</time></trkpt>
<trkpt lat="25.569586" lon="100.32248">
<time>2016-04-06T13:51:39Z</time></trkpt>
<trkpt lat="25.570527" lon="100.322101">
<time>2016-04-06T13:51:40Z</time></trkpt>
<trkpt lat="25.571158" lon="100.321981">
<time>2016-04-06T13:51:41Z</time></trkpt>
<trkpt lat="25.571748" lon="100.321892">
<time>2016-04-06T13:51:42Z</time></trkpt>
<trkpt lat="25.57556" lon="100.321642">
<time>2016-04-06T13:51:43Z</time></trkpt>
<trkpt lat="25.57573" lon="100.321612">
<time>2016-04-06T13:51:44Z</time></trkpt>
<trkpt lat="25.576181" lon="100.321512">
<time>2016-04-06T13:51:45Z</time></trkpt>
<trkpt lat="25.577122" lon="100.321173">
<time>2016-04-06T13:51:46Z</time></trkpt>
<trkpt lat="25.577722" lon="100.320854">
<time>2016-04-06T13:51:47Z</time></trkpt>
<trkpt lat="25.577903" lon="100.320754">
<time>2016-04-06T13:51:48Z</time></trkpt>
<trkpt lat="25.579435" lon="100.319826">
<time>2016-04-06T13:51:49Z</time></trkpt>
<trkpt lat="25.580076" lon="100.319447">
<time>2016-04-06T13:51:50Z</time></trkpt>
<trkpt lat="25.580336" lon="100.319297">
<time>2016-04-06T13:51:51Z</time></trkpt>
<trkpt lat="25.581789" lon="100.318479">
<time>2016-04-06T13:51:52Z</time></trkpt>
<trkpt lat="25.581929" lon="100.318399">
<time>2016-04-06T13:51:53Z</time></trkpt>
<trkpt lat="25.583161" lon="100.317621">
<time>2016-04-06T13:51:54Z</time></trkpt>
<trkpt lat="25.583351" lon="100.317551">
<time>2016-04-06T13:51:55Z</time></trkpt>
<trkpt lat="25.585604" lon="100.316264">
<time>2016-04-06T13:51:56Z</time></trkpt>
<trkpt lat="25.588058" lon="100.314866">
<time>2016-04-06T13:51:57Z</time></trkpt>
<trkpt lat="25.591613" lon="100.312831">
<time>2016-04-06T13:51:58Z</time></trkpt>
<trkpt lat="25.593967" lon="100.311493">
<time>2016-04-06T13:51:59Z</time></trkpt>
<trkpt lat="25.596971" lon="100.309787">
<time>2016-04-06T13:52:00Z</time></trkpt>
<trkpt lat="25.597071" lon="100.309727">
<time>2016-04-06T13:52:01Z</time></trkpt>
<trkpt lat="25.599955" lon="100.30809">
<time>2016-04-06T13:52:02Z</time></trkpt>
<trkpt lat="25.601508" lon="100.307202">
<time>2016-04-06T13:52:03Z</time></trkpt>
<trkpt lat="25.602589" lon="100.306583">
<time>2016-04-06T13:52:04Z</time></trkpt>
<trkpt lat="25.602689" lon="100.306533">
<time>2016-04-06T13:52:05Z</time></trkpt>
<trkpt lat="25.60278" lon="100.306473">
<time>2016-04-06T13:52:06Z</time></trkpt>
<trkpt lat="25.60293" lon="100.306394">
<time>2016-04-06T13:52:07Z</time></trkpt>
<trkpt lat="25.607376" lon="100.303868">
<time>2016-04-06T13:52:08Z</time></trkpt>
<trkpt lat="25.607576" lon="100.303749">
<time>2016-04-06T13:52:09Z</time></trkpt>
<trkpt lat="25.609049" lon="100.3029">
<time>2016-04-06T13:52:10Z</time></trkpt>
<trkpt lat="25.60999" lon="100.302311">
<time>2016-04-06T13:52:11Z</time></trkpt>
<trkpt lat="25.61015" lon="100.302092">
<time>2016-04-06T13:52:12Z</time></trkpt>
<trkpt lat="25.611063" lon="100.300794">
<time>2016-04-06T13:52:13Z</time></trkpt>
<trkpt lat="25.611394" lon="100.300106">
<time>2016-04-06T13:52:14Z</time></trkpt>
<trkpt lat="25.611646" lon="100.299357">
<time>2016-04-06T13:52:15Z</time></trkpt>
<trkpt lat="25.611837" lon="100.298558">
<time>2016-04-06T13:52:16Z</time></trkpt>
<trkpt lat="25.611908" lon="100.29778">
<time>2016-04-06T13:52:17Z</time></trkpt>
<trkpt lat="25.611909" lon="100.297171">
<time>2016-04-06T13:52:18Z</time></trkpt>
<trkpt lat="25.61192" lon="100.296732">
<time>2016-04-06T13:52:19Z</time></trkpt>
<trkpt lat="25.61192" lon="100.296442">
<time>2016-04-06T13:52:20Z</time></trkpt>
<trkpt lat="25.61192" lon="100.296382">
<time>2016-04-06T13:52:21Z</time></trkpt>
<trkpt lat="25.611912" lon="100.295115">
<time>2016-04-06T13:52:22Z</time></trkpt>
<trkpt lat="25.611913" lon="100.295005">
<time>2016-04-06T13:52:23Z</time></trkpt>
<trkpt lat="25.611894" lon="100.294046">
<time>2016-04-06T13:52:24Z</time></trkpt>
<trkpt lat="25.611875" lon="100.293328">
<time>2016-04-06T13:52:25Z</time></trkpt>
<trkpt lat="25.611856" lon="100.292469">
<time>2016-04-06T13:52:26Z</time></trkpt>
<trkpt lat="25.611758" lon="100.291621">
<time>2016-04-06T13:52:27Z</time></trkpt>
<trkpt lat="25.611509" lon="100.290702">
<time>2016-04-06T13:52:28Z</time></trkpt>
<trkpt lat="25.611369" lon="100.290293">
<time>2016-04-06T13:52:29Z</time></trkpt>
<trkpt lat="25.611309" lon="100.290143">
<time>2016-04-06T13:52:30Z</time></trkpt>
<trkpt lat="25.61124" lon="100.289993">
<time>2016-04-06T13:52:31Z</time></trkpt>
<trkpt lat="25.61111" lon="100.289714">
<time>2016-04-06T13:52:32Z</time></trkpt>
<trkpt lat="25.61109" lon="100.289664">
<time>2016-04-06T13:52:33Z</time></trkpt>
<trkpt lat="25.610811" lon="100.289195">
<time>2016-04-06T13:52:34Z</time></trkpt>
<trkpt lat="25.610511" lon="100.288805">
<time>2016-04-06T13:52:35Z</time></trkpt>
<trkpt lat="25.610051" lon="100.288286">
<time>2016-04-06T13:52:36Z</time></trkpt>
<trkpt lat="25.609412" lon="100.287637">
<time>2016-04-06T13:52:37Z</time></trkpt>
<trkpt lat="25.609412" lon="100.287637">
<time>2016-04-06T13:52:38Z</time></trkpt>
<trkpt lat="25.61528" lon="100.283323">
<time>2016-04-06T13:52:39Z</time></trkpt>
<trkpt lat="25.6153" lon="100.283283">
<time>2016-04-06T13:52:40Z</time></trkpt>
<trkpt lat="25.6153" lon="100.283233">
<time>2016-04-06T13:52:41Z</time></trkpt>
<trkpt lat="25.614612" lon="100.281965">
<time>2016-04-06T13:52:42Z</time></trkpt>
<trkpt lat="25.614092" lon="100.281086">
<time>2016-04-06T13:52:43Z</time></trkpt>
<trkpt lat="25.614012" lon="100.280936">
<time>2016-04-06T13:52:44Z</time></trkpt>
<trkpt lat="25.614012" lon="100.280936">
<time>2016-04-06T13:52:45Z</time></trkpt>
<trkpt lat="25.615334" lon="100.280547">
<time>2016-04-06T13:52:46Z</time></trkpt>
<trkpt lat="25.615334" lon="100.280547">
<time>2016-04-06T13:52:47Z</time></trkpt>
<trkpt lat="25.615115" lon="100.279508">
<time>2016-04-06T13:52:48Z</time></trkpt>
<trkpt lat="25.614955" lon="100.278819">
<time>2016-04-06T13:52:49Z</time></trkpt>
<trkpt lat="25.614915" lon="100.278589">
<time>2016-04-06T13:52:50Z</time></trkpt>
<trkpt lat="25.614896" lon="100.27845">
<time>2016-04-06T13:52:51Z</time></trkpt>
<trkpt lat="25.614896" lon="100.2783">
<time>2016-04-06T13:52:52Z</time></trkpt>
<trkpt lat="25.614896" lon="100.27809">
<time>2016-04-06T13:52:53Z</time></trkpt>
<trkpt lat="25.614896" lon="100.27809">
<time>2016-04-06T13:52:54Z</time></trkpt>
<trkpt lat="25.614946" lon="100.27804">
<time>2016-04-06T13:52:55Z</time></trkpt>
<trkpt lat="25.614956" lon="100.27801">
<time>2016-04-06T13:52:56Z</time></trkpt>
<trkpt lat="25.614966" lon="100.27799">
<time>2016-04-06T13:52:57Z</time></trkpt>
<trkpt lat="25.614976" lon="100.27796">
<time>2016-04-06T13:52:58Z</time></trkpt>
<trkpt lat="25.614976" lon="100.27792">
<time>2016-04-06T13:52:59Z</time></trkpt>
<trkpt lat="25.614966" lon="100.27786">
<time>2016-04-06T13:53:00Z</time></trkpt>
<trkpt lat="25.614956" lon="100.27782">
<time>2016-04-06T13:53:01Z</time></trkpt>
<trkpt lat="25.614946" lon="100.27777">
<time>2016-04-06T13:53:02Z</time></trkpt>
<trkpt lat="25.614926" lon="100.2777">
<time>2016-04-06T13:53:03Z</time></trkpt>
<trkpt lat="25.614896" lon="100.277641">
<time>2016-04-06T13:53:04Z</time></trkpt>
<trkpt lat="25.614877" lon="100.277601">
<time>2016-04-06T13:53:05Z</time></trkpt>
<trkpt lat="25.614847" lon="100.277551">
<time>2016-04-06T13:53:06Z</time></trkpt>
<trkpt lat="25.614827" lon="100.277511">
<time>2016-04-06T13:53:07Z</time></trkpt>
<trkpt lat="25.614787" lon="100.277471">
<time>2016-04-06T13:53:08Z</time></trkpt>
<trkpt lat="25.614727" lon="100.277431">
<time>2016-04-06T13:53:09Z</time></trkpt>
<trkpt lat="25.614577" lon="100.277321">
<time>2016-04-06T13:53:10Z</time></trkpt>
<trkpt lat="25.614507" lon="100.277261">
<time>2016-04-06T13:53:11Z</time></trkpt>
<trkpt lat="25.614467" lon="100.277211">
<time>2016-04-06T13:53:12Z</time></trkpt>
<trkpt lat="25.614367" lon="100.277081">
<time>2016-04-06T13:53:13Z</time></trkpt>
<trkpt lat="25.614337" lon="100.277051">
<time>2016-04-06T13:53:14Z</time></trkpt>
<trkpt lat="25.614317" lon="100.277021">
<time>2016-04-06T13:53:15Z</time></trkpt>
<trkpt lat="25.614307" lon="100.276971">
<time>2016-04-06T13:53:16Z</time></trkpt>
<trkpt lat="25.614307" lon="100.276931">
<time>2016-04-06T13:53:17Z</time></trkpt>
<trkpt lat="25.614307" lon="100.276891">
<time>2016-04-06T13:53:18Z</time></trkpt>
<trkpt lat="25.614317" lon="100.276842">
<time>2016-04-06T13:53:19Z</time></trkpt>
<trkpt lat="25.614357" lon="100.276692">
<time>2016-04-06T13:53:20Z</time></trkpt>
<trkpt lat="25.614377" lon="100.276622">
<time>2016-04-06T13:53:21Z</time></trkpt>
<trkpt lat="25.614387" lon="100.276582">
<time>2016-04-06T13:53:22Z</time></trkpt>
<trkpt lat="25.614387" lon="100.276542">
<time>2016-04-06T13:53:23Z</time></trkpt>
<trkpt lat="25.614377" lon="100.276492">
<time>2016-04-06T13:53:24Z</time></trkpt>
<trkpt lat="25.614367" lon="100.276442">
<time>2016-04-06T13:53:25Z</time></trkpt>
<trkpt lat="25.614338" lon="100.276392">
<time>2016-04-06T13:53:26Z</time></trkpt>
<trkpt lat="25.614298" lon="100.276342">
<time>2016-04-06T13:53:27Z</time></trkpt>
<trkpt lat="25.614238" lon="100.276292">
<time>2016-04-06T13:53:28Z</time></trkpt>
<trkpt lat="25.614168" lon="100.276242">
<time>2016-04-06T13:53:29Z</time></trkpt>
<trkpt lat="25.614128" lon="100.276192">
<time>2016-04-06T13:53:30Z</time></trkpt>
<trkpt lat="25.614098" lon="100.276132">
<time>2016-04-06T13:53:31Z</time></trkpt>
<trkpt lat="25.614078" lon="100.276072">
<time>2016-04-06T13:53:32Z</time></trkpt>
<trkpt lat="25.614068" lon="100.276012">
<time>2016-04-06T13:53:33Z</time></trkpt>
<trkpt lat="25.614058" lon="100.275953">
<time>2016-04-06T13:53:34Z</time></trkpt>
<trkpt lat="25.614058" lon="100.275913">
<time>2016-04-06T13:53:35Z</time></trkpt>
<trkpt lat="25.614068" lon="100.275853">
<time>2016-04-06T13:53:36Z</time></trkpt>
<trkpt lat="25.614128" lon="100.275493">
<time>2016-04-06T13:53:37Z</time></trkpt>
<trkpt lat="25.614148" lon="100.275373">
<time>2016-04-06T13:53:38Z</time></trkpt>
<trkpt lat="25.614149" lon="100.275293">
<time>2016-04-06T13:53:39Z</time></trkpt>
<trkpt lat="25.614139" lon="100.275193">
<time>2016-04-06T13:53:40Z</time></trkpt>
<trkpt lat="25.614119" lon="100.275133">
<time>2016-04-06T13:53:41Z</time></trkpt>
<trkpt lat="25.614079" lon="100.275054">
<time>2016-04-06T13:53:42Z</time></trkpt>
<trkpt lat="25.614039" lon="100.274984">
<time>2016-04-06T13:53:43Z</time></trkpt>
<trkpt lat="25.613889" lon="100.274774">
<time>2016-04-06T13:53:44Z</time></trkpt>
<trkpt lat="25.613749" lon="100.274564">
<time>2016-04-06T13:53:45Z</time></trkpt>
<trkpt lat="25.613699" lon="100.274474">
<time>2016-04-06T13:53:46Z</time></trkpt>
<trkpt lat="25.613659" lon="100.274384">
<time>2016-04-06T13:53:47Z</time></trkpt>
<trkpt lat="25.613629" lon="100.274244">
<time>2016-04-06T13:53:48Z</time></trkpt>
<trkpt lat="25.613619" lon="100.274085">
<time>2016-04-06T13:53:49Z</time></trkpt>
<trkpt lat="25.613609" lon="100.274015">
<time>2016-04-06T13:53:50Z</time></trkpt>
<trkpt lat="25.61363" lon="100.273855">
<time>2016-04-06T13:53:51Z</time></trkpt>
<trkpt lat="25.61365" lon="100.273715">
<time>2016-04-06T13:53:52Z</time></trkpt>
<trkpt lat="25.61367" lon="100.273645">
<time>2016-04-06T13:53:53Z</time></trkpt>
<trkpt lat="25.6137" lon="100.273565">
<time>2016-04-06T13:53:54Z</time></trkpt>
<trkpt lat="25.61374" lon="100.273475">
<time>2016-04-06T13:53:55Z</time></trkpt>
<trkpt lat="25.61377" lon="100.273435">
<time>2016-04-06T13:53:56Z</time></trkpt>
<trkpt lat="25.6138" lon="100.273395">
<time>2016-04-06T13:53:57Z</time></trkpt>
<trkpt lat="25.6139" lon="100.273275">
<time>2016-04-06T13:53:58Z</time></trkpt>
<trkpt lat="25.61393" lon="100.273236">
<time>2016-04-06T13:53:59Z</time></trkpt>
<trkpt lat="25.614251" lon="100.272876">
<time>2016-04-06T13:54:00Z</time></trkpt>
<trkpt lat="25.614361" lon="100.272726">
<time>2016-04-06T13:54:01Z</time></trkpt>
<trkpt lat="25.614411" lon="100.272646">
<time>2016-04-06T13:54:02Z</time></trkpt>
<trkpt lat="25.614471" lon="100.272576">
<time>2016-04-06T13:54:03Z</time></trkpt>
<trkpt lat="25.614471" lon="100.272566">
<time>2016-04-06T13:54:04Z</time></trkpt>
<trkpt lat="25.614491" lon="100.272536">
<time>2016-04-06T13:54:05Z</time></trkpt>
<trkpt lat="25.614511" lon="100.272486">
<time>2016-04-06T13:54:06Z</time></trkpt>
<trkpt lat="25.614541" lon="100.272366">
<time>2016-04-06T13:54:07Z</time></trkpt>
<trkpt lat="25.614551" lon="100.272336">
<time>2016-04-06T13:54:08Z</time></trkpt>
<trkpt lat="25.614561" lon="100.272296">
<time>2016-04-06T13:54:09Z</time></trkpt>
<trkpt lat="25.614582" lon="100.272047">
<time>2016-04-06T13:54:10Z</time></trkpt>
<trkpt lat="25.614582" lon="100.271967">
<time>2016-04-06T13:54:11Z</time></trkpt>
<trkpt lat="25.614582" lon="100.271917">
<time>2016-04-06T13:54:12Z</time></trkpt>
<trkpt lat="25.614582" lon="100.271867">
<time>2016-04-06T13:54:13Z</time></trkpt>
<trkpt lat="25.614572" lon="100.271807">
<time>2016-04-06T13:54:14Z</time></trkpt>
<trkpt lat="25.614552" lon="100.271617">
<time>2016-04-06T13:54:15Z</time></trkpt>
<trkpt lat="25.614542" lon="100.271567">
<time>2016-04-06T13:54:16Z</time></trkpt>
<trkpt lat="25.614542" lon="100.271537">
<time>2016-04-06T13:54:17Z</time></trkpt>
<trkpt lat="25.614552" lon="100.271477">
<time>2016-04-06T13:54:18Z</time></trkpt>
<trkpt lat="25.614562" lon="100.271327">
<time>2016-04-06T13:54:19Z</time></trkpt>
<trkpt lat="25.614592" lon="100.271208">
<time>2016-04-06T13:54:20Z</time></trkpt>
<trkpt lat="25.614632" lon="100.271098">
<time>2016-04-06T13:54:21Z</time></trkpt>
<trkpt lat="25.614693" lon="100.270978">
<time>2016-04-06T13:54:22Z</time></trkpt>
<trkpt lat="25.614783" lon="100.270818">
<time>2016-04-06T13:54:23Z</time></trkpt>
<trkpt lat="25.614833" lon="100.270668">
<time>2016-04-06T13:54:24Z</time></trkpt>
<trkpt lat="25.614883" lon="100.270528">
<time>2016-04-06T13:54:25Z</time></trkpt>
<trkpt lat="25.614963" lon="100.270298">
<time>2016-04-06T13:54:26Z</time></trkpt>
<trkpt lat="25.615003" lon="100.270228">
<time>2016-04-06T13:54:27Z</time></trkpt>
<trkpt lat="25.615053" lon="100.270149">
<time>2016-04-06T13:54:28Z</time></trkpt>
<trkpt lat="25.615104" lon="100.270109">
<time>2016-04-06T13:54:29Z</time></trkpt>
<trkpt lat="25.615304" lon="100.269919">
<time>2016-04-06T13:54:30Z</time></trkpt>
<trkpt lat="25.615364" lon="100.269839">
<time>2016-04-06T13:54:31Z</time></trkpt>
<trkpt lat="25.615404" lon="100.269769">
<time>2016-04-06T13:54:32Z</time></trkpt>
<trkpt lat="25.615424" lon="100.269689">
<time>2016-04-06T13:54:33Z</time></trkpt>
<trkpt lat="25.615444" lon="100.269539">
<time>2016-04-06T13:54:34Z</time></trkpt>
<trkpt lat="25.615484" lon="100.269339">
<time>2016-04-06T13:54:35Z</time></trkpt>
<trkpt lat="25.615555" lon="100.269049">
<time>2016-04-06T13:54:36Z</time></trkpt>
<trkpt lat="25.615665" lon="100.26876">
<time>2016-04-06T13:54:37Z</time></trkpt>
<trkpt lat="25.615695" lon="100.26871">
<time>2016-04-06T13:54:38Z</time></trkpt>
<trkpt lat="25.615695" lon="100.26871">
<time>2016-04-06T13:54:39Z</time></trkpt>
<trkpt lat="25.614885" lon="100.2683">
<time>2016-04-06T13:54:40Z</time></trkpt>
<trkpt lat="25.614055" lon="100.267681">
<time>2016-04-06T13:54:41Z</time></trkpt>
<trkpt lat="25.614015" lon="100.267661">
<time>2016-04-06T13:54:42Z</time></trkpt>
<trkpt lat="25.613925" lon="100.267591">
<time>2016-04-06T13:54:43Z</time></trkpt>
<trkpt lat="25.613295" lon="100.267091">
<time>2016-04-06T13:54:44Z</time></trkpt>
<trkpt lat="25.612535" lon="100.266302">
<time>2016-04-06T13:54:45Z</time></trkpt>
<trkpt lat="25.612455" lon="100.266222">
<time>2016-04-06T13:54:46Z</time></trkpt>
<trkpt lat="25.612455" lon="100.266222">
<time>2016-04-06T13:54:47Z</time></trkpt>
<trkpt lat="25.612415" lon="100.266062">
<time>2016-04-06T13:54:48Z</time></trkpt>
<trkpt lat="25.612295" lon="100.265612">
<time>2016-04-06T13:54:49Z</time></trkpt>
<trkpt lat="25.611936" lon="100.264353">
<time>2016-04-06T13:54:50Z</time></trkpt>
<trkpt lat="25.611736" lon="100.263684">
<time>2016-04-06T13:54:51Z</time></trkpt>
<trkpt lat="25.611686" lon="100.263504">
<time>2016-04-06T13:54:52Z</time></trkpt>
<trkpt lat="25.611626" lon="100.263344">
<time>2016-04-06T13:54:53Z</time></trkpt>
<trkpt lat="25.611577" lon="100.263214">
<time>2016-04-06T13:54:54Z</time></trkpt>
<trkpt lat="25.611517" lon="100.263074">
<time>2016-04-06T13:54:55Z</time></trkpt>
<trkpt lat="25.611327" lon="100.262674">
<time>2016-04-06T13:54:56Z</time></trkpt>
<trkpt lat="25.611177" lon="100.262365">
<time>2016-04-06T13:54:57Z</time></trkpt>
<trkpt lat="25.611127" lon="100.262215">
<time>2016-04-06T13:54:58Z</time></trkpt>
<trkpt lat="25.611087" lon="100.262115">
<time>2016-04-06T13:54:59Z</time></trkpt>
<trkpt lat="25.611057" lon="100.262035">
<time>2016-04-06T13:55:00Z</time></trkpt>
<trkpt lat="25.611037" lon="100.261945">
<time>2016-04-06T13:55:01Z</time></trkpt>
<trkpt lat="25.611007" lon="100.261855">
<time>2016-04-06T13:55:02Z</time></trkpt>
<trkpt lat="25.610987" lon="100.261765">
<time>2016-04-06T13:55:03Z</time></trkpt>
<trkpt lat="25.610837" lon="100.261075">
<time>2016-04-06T13:55:04Z</time></trkpt>
<trkpt lat="25.610787" lon="100.260795">
<time>2016-04-06T13:55:05Z</time></trkpt>
<trkpt lat="25.610747" lon="100.260606">
<time>2016-04-06T13:55:06Z</time></trkpt>
<trkpt lat="25.610738" lon="100.260446">
<time>2016-04-06T13:55:07Z</time></trkpt>
<trkpt lat="25.610728" lon="100.260326">
<time>2016-04-06T13:55:08Z</time></trkpt>
<trkpt lat="25.610728" lon="100.260206">
<time>2016-04-06T13:55:09Z</time></trkpt>
<trkpt lat="25.610738" lon="100.259976">
<time>2016-04-06T13:55:10Z</time></trkpt>
<trkpt lat="25.610738" lon="100.259786">
<time>2016-04-06T13:55:11Z</time></trkpt>
<trkpt lat="25.610748" lon="100.259696">
<time>2016-04-06T13:55:12Z</time></trkpt>
<trkpt lat="25.610748" lon="100.259576">
<time>2016-04-06T13:55:13Z</time></trkpt>
<trkpt lat="25.610748" lon="100.259476">
<time>2016-04-06T13:55:14Z</time></trkpt>
<trkpt lat="25.610748" lon="100.259396">
<time>2016-04-06T13:55:15Z</time></trkpt>
<trkpt lat="25.610738" lon="100.259296">
<time>2016-04-06T13:55:16Z</time></trkpt>
<trkpt lat="25.610718" lon="100.259166">
<time>2016-04-06T13:55:17Z</time></trkpt>
<trkpt lat="25.610698" lon="100.258996">
<time>2016-04-06T13:55:18Z</time></trkpt>
<trkpt lat="25.610648" lon="100.258756">
<time>2016-04-06T13:55:19Z</time></trkpt>
<trkpt lat="25.610608" lon="100.258527">
<time>2016-04-06T13:55:20Z</time></trkpt>
<trkpt lat="25.610568" lon="100.258257">
<time>2016-04-06T13:55:21Z</time></trkpt>
<trkpt lat="25.610419" lon="100.257377">
<time>2016-04-06T13:55:22Z</time></trkpt>
<trkpt lat="25.610369" lon="100.257067">
<time>2016-04-06T13:55:23Z</time></trkpt>
<trkpt lat="25.610309" lon="100.256707">
<time>2016-04-06T13:55:24Z</time></trkpt>
<trkpt lat="25.610249" lon="100.256357">
<time>2016-04-06T13:55:25Z</time></trkpt>
<trkpt lat="25.610179" lon="100.256108">
<time>2016-04-06T13:55:26Z</time></trkpt>
<trkpt lat="25.610129" lon="100.255948">
<time>2016-04-06T13:55:27Z</time></trkpt>
<trkpt lat="25.610029" lon="100.255638">
<time>2016-04-06T13:55:28Z</time></trkpt>
<trkpt lat="25.609929" lon="100.255298">
<time>2016-04-06T13:55:29Z</time></trkpt>
<trkpt lat="25.609869" lon="100.255108">
<time>2016-04-06T13:55:30Z</time></trkpt>
<trkpt lat="25.609679" lon="100.254498">
<time>2016-04-06T13:55:31Z</time></trkpt>
<trkpt lat="25.609639" lon="100.254348">
<time>2016-04-06T13:55:32Z</time></trkpt>
<trkpt lat="25.609629" lon="100.254298">
<time>2016-04-06T13:55:33Z</time></trkpt>
<trkpt lat="25.609599" lon="100.254158">
<time>2016-04-06T13:55:34Z</time></trkpt>
<trkpt lat="25.609579" lon="100.254068">
<time>2016-04-06T13:55:35Z</time></trkpt>
<trkpt lat="25.609569" lon="100.253978">
<time>2016-04-06T13:55:36Z</time></trkpt>
<trkpt lat="25.609559" lon="100.253838">
<time>2016-04-06T13:55:37Z</time></trkpt>
<trkpt lat="25.609559" lon="100.253808">
<time>2016-04-06T13:55:38Z</time></trkpt>
<trkpt lat="25.609559" lon="100.253708">
<time>2016-04-06T13:55:39Z</time></trkpt>
<trkpt lat="25.609559" lon="100.253628">
<time>2016-04-06T13:55:40Z</time></trkpt>
<trkpt lat="25.609569" lon="100.253488">
<time>2016-04-06T13:55:41Z</time></trkpt>
<trkpt lat="25.609579" lon="100.253348">
<time>2016-04-06T13:55:42Z</time></trkpt>
<trkpt lat="25.609589" lon="100.253228">
<time>2016-04-06T13:55:43Z</time></trkpt>
<trkpt lat="25.609619" lon="100.253058">
<time>2016-04-06T13:55:44Z</time></trkpt>
<trkpt lat="25.609629" lon="100.252978">
<time>2016-04-06T13:55:45Z</time></trkpt>
<trkpt lat="25.609629" lon="100.252848">
<time>2016-04-06T13:55:46Z</time></trkpt>
<trkpt lat="25.609619" lon="100.252748">
<time>2016-04-06T13:55:47Z</time></trkpt>
<trkpt lat="25.609609" lon="100.252638">
<time>2016-04-06T13:55:48Z</time></trkpt>
<trkpt lat="25.609529" lon="100.252129">
<time>2016-04-06T13:55:49Z</time></trkpt>
<trkpt lat="25.609429" lon="100.251599">
<time>2016-04-06T13:55:50Z</time></trkpt>
<trkpt lat="25.609379" lon="100.251419">
<time>2016-04-06T13:55:51Z</time></trkpt>
<trkpt lat="25.609319" lon="100.251249">
<time>2016-04-06T13:55:52Z</time></trkpt>
<trkpt lat="25.609179" lon="100.250889">
<time>2016-04-06T13:55:53Z</time></trkpt>
<trkpt lat="25.609059" lon="100.250589">
<time>2016-04-06T13:55:54Z</time></trkpt></trkseg></trk></gpx>